<?xml version='1.0' encoding='UTF-8'?><gpx version="1.1" creator="JPX - https://github.com/jenetics/jpx" xmlns="http://www.topografix.com/GPX/1/1"><trk><trkseg><trkpt lat="45.5236248" lon="10.2674206"><ele>132.0</ele><time>2026-04-27T14:05:25.708Z</time></trkpt><trkpt lat="45.5236823" lon="10.2673601"><ele>132.0</ele><time>2026-04-27T14:05:28.699Z</time></trkpt><trkpt lat="45.5237487" lon="10.267228"><ele>132.0</ele><time>2026-04-27T14:05:30.714Z</time></trkpt><trkpt lat="45.5238007" lon="10.2671399"><ele>132.0</ele><time>2026-04-27T14:05:31.706Z</time></trkpt><trkpt lat="45.5238635" lon="10.2670467"><ele>132.0</ele><time>2026-04-27T14:05:32.703Z</time></trkpt><trkpt lat="45.5239331" lon="10.2669668"><ele>132.0</ele><time>2026-04-27T14:05:33.707Z</time></trkpt><trkpt lat="45.5240003" lon="10.2668835"><ele>131.79999999999998</ele><time>2026-04-27T14:05:34.721Z</time></trkpt><trkpt lat="45.5240772" lon="10.2668124"><ele>131.6</ele><time>2026-04-27T14:05:35.7Z</time></trkpt><trkpt lat="45.5241672" lon="10.2667446"><ele>131.39999999999998</ele><time>2026-04-27T14:05:36.701Z</time></trkpt><trkpt lat="45.524259" lon="10.2666629"><ele>131.2</ele><time>2026-04-27T14:05:37.691Z</time></trkpt><trkpt lat="45.5243467" lon="10.2665956"><ele>131.0</ele><time>2026-04-27T14:05:38.703Z</time></trkpt><trkpt lat="45.5244248" lon="10.2665352"><ele>131.0</ele><time>2026-04-27T14:05:39.705Z</time></trkpt><trkpt lat="45.5244912" lon="10.2664664"><ele>131.0</ele><time>2026-04-27T14:05:40.705Z</time></trkpt><trkpt lat="45.5245569" lon="10.266399"><ele>131.0</ele><time>2026-04-27T14:05:41.702Z</time></trkpt><trkpt lat="45.5246222" lon="10.2663143"><ele>131.0</ele><time>2026-04-27T14:05:42.698Z</time></trkpt><trkpt lat="45.5246885" lon="10.2662295"><ele>131.0</ele><time>2026-04-27T14:05:43.702Z</time></trkpt><trkpt lat="45.5247563" lon="10.2661391"><ele>131.0</ele><time>2026-04-27T14:05:44.71Z</time></trkpt><trkpt lat="45.5248267" lon="10.2660391"><ele>131.0</ele><time>2026-04-27T14:05:45.714Z</time></trkpt><trkpt lat="45.5248892" lon="10.2659279"><ele>131.0</ele><time>2026-04-27T14:05:46.695Z</time></trkpt><trkpt lat="45.524955" lon="10.2658134"><ele>131.0</ele><time>2026-04-27T14:05:47.697Z</time></trkpt><trkpt lat="45.5250247" lon="10.2656885"><ele>131.0</ele><time>2026-04-27T14:05:48.703Z</time></trkpt><trkpt lat="45.5250932" lon="10.2655738"><ele>131.0</ele><time>2026-04-27T14:05:49.702Z</time></trkpt><trkpt lat="45.5251629" lon="10.2654589"><ele>130.6</ele><time>2026-04-27T14:05:50.71Z</time></trkpt><trkpt lat="45.5252345" lon="10.2653298"><ele>130.2</ele><time>2026-04-27T14:05:51.703Z</time></trkpt><trkpt lat="45.525307" lon="10.2652086"><ele>129.8</ele><time>2026-04-27T14:05:52.707Z</time></trkpt><trkpt lat="45.5253793" lon="10.2650832"><ele>129.4</ele><time>2026-04-27T14:05:53.706Z</time></trkpt><trkpt lat="45.525436" lon="10.2649595"><ele>129.0</ele><time>2026-04-27T14:05:54.69Z</time></trkpt><trkpt lat="45.5254866" lon="10.2648509"><ele>129.33333333333334</ele><time>2026-04-27T14:05:55.703Z</time></trkpt><trkpt lat="45.5255348" lon="10.264747"><ele>129.66666666666666</ele><time>2026-04-27T14:05:56.708Z</time></trkpt><trkpt lat="45.5255771" lon="10.2646531"><ele>130.0</ele><time>2026-04-27T14:05:57.712Z</time></trkpt><trkpt lat="45.5256152" lon="10.2645477"><ele>130.33333333333331</ele><time>2026-04-27T14:05:58.696Z</time></trkpt><trkpt lat="45.5256564" lon="10.2644396"><ele>130.66666666666666</ele><time>2026-04-27T14:05:59.693Z</time></trkpt><trkpt lat="45.5256974" lon="10.2643255"><ele>131.0</ele><time>2026-04-27T14:06:00.709Z</time></trkpt><trkpt lat="45.5257365" lon="10.2642173"><ele>131.0</ele><time>2026-04-27T14:06:01.695Z</time></trkpt><trkpt lat="45.5257804" lon="10.2641101"><ele>131.0</ele><time>2026-04-27T14:06:02.694Z</time></trkpt><trkpt lat="45.5258257" lon="10.2639992"><ele>131.0</ele><time>2026-04-27T14:06:03.702Z</time></trkpt><trkpt lat="45.5258758" lon="10.2638821"><ele>131.0</ele><time>2026-04-27T14:06:04.7Z</time></trkpt><trkpt lat="45.5259302" lon="10.2637517"><ele>131.0</ele><time>2026-04-27T14:06:05.703Z</time></trkpt><trkpt lat="45.5259977" lon="10.2635897"><ele>131.75</ele><time>2026-04-27T14:06:06.701Z</time></trkpt><trkpt lat="45.5260757" lon="10.2634286"><ele>132.5</ele><time>2026-04-27T14:06:07.703Z</time></trkpt><trkpt lat="45.526163" lon="10.2632454"><ele>133.25</ele><time>2026-04-27T14:06:08.7Z</time></trkpt><trkpt lat="45.5262496" lon="10.2630604"><ele>134.0</ele><time>2026-04-27T14:06:09.696Z</time></trkpt><trkpt lat="45.5263388" lon="10.2628711"><ele>134.0</ele><time>2026-04-27T14:06:10.691Z</time></trkpt><trkpt lat="45.5264237" lon="10.2626859"><ele>134.0</ele><time>2026-04-27T14:06:11.694Z</time></trkpt><trkpt lat="45.5265003" lon="10.2625171"><ele>134.0</ele><time>2026-04-27T14:06:12.706Z</time></trkpt><trkpt lat="45.5265823" lon="10.2623433"><ele>134.0</ele><time>2026-04-27T14:06:13.681Z</time></trkpt><trkpt lat="45.526659" lon="10.2621746"><ele>134.0</ele><time>2026-04-27T14:06:14.697Z</time></trkpt><trkpt lat="45.5267326" lon="10.2620134"><ele>134.0</ele><time>2026-04-27T14:06:15.713Z</time></trkpt><trkpt lat="45.5268016" lon="10.2618742"><ele>134.0</ele><time>2026-04-27T14:06:16.691Z</time></trkpt><trkpt lat="45.5268682" lon="10.2617463"><ele>134.0</ele><time>2026-04-27T14:06:17.687Z</time></trkpt><trkpt lat="45.5269269" lon="10.2616395"><ele>134.0</ele><time>2026-04-27T14:06:18.705Z</time></trkpt><trkpt lat="45.5269687" lon="10.2615614"><ele>134.0</ele><time>2026-04-27T14:06:19.699Z</time></trkpt><trkpt lat="45.5270346" lon="10.261448"><ele>134.0</ele><time>2026-04-27T14:06:21.691Z</time></trkpt><trkpt lat="45.5270722" lon="10.2613049"><ele>134.0</ele><time>2026-04-27T14:06:23.695Z</time></trkpt><trkpt lat="45.5270869" lon="10.2612099"><ele>134.0</ele><time>2026-04-27T14:06:24.696Z</time></trkpt><trkpt lat="45.5271066" lon="10.2611097"><ele>134.0</ele><time>2026-04-27T14:06:25.697Z</time></trkpt><trkpt lat="45.5271392" lon="10.2609909"><ele>133.4</ele><time>2026-04-27T14:06:26.697Z</time></trkpt><trkpt lat="45.5271743" lon="10.2608621"><ele>132.8</ele><time>2026-04-27T14:06:27.705Z</time></trkpt><trkpt lat="45.5272164" lon="10.2607268"><ele>132.2</ele><time>2026-04-27T14:06:28.687Z</time></trkpt><trkpt lat="45.5272626" lon="10.2605917"><ele>131.6</ele><time>2026-04-27T14:06:29.704Z</time></trkpt><trkpt lat="45.5273165" lon="10.2604568"><ele>131.0</ele><time>2026-04-27T14:06:30.688Z</time></trkpt><trkpt lat="45.5273802" lon="10.2603037"><ele>131.0</ele><time>2026-04-27T14:06:31.693Z</time></trkpt><trkpt lat="45.5274498" lon="10.2601316"><ele>131.0</ele><time>2026-04-27T14:06:32.692Z</time></trkpt><trkpt lat="45.5275292" lon="10.2599242"><ele>131.0</ele><time>2026-04-27T14:06:33.697Z</time></trkpt><trkpt lat="45.5276108" lon="10.2597091"><ele>131.33333333333331</ele><time>2026-04-27T14:06:34.704Z</time></trkpt><trkpt lat="45.5276869" lon="10.2595102"><ele>131.66666666666666</ele><time>2026-04-27T14:06:35.699Z</time></trkpt><trkpt lat="45.5277643" lon="10.2593072"><ele>132.0</ele><time>2026-04-27T14:06:36.693Z</time></trkpt><trkpt lat="45.527848" lon="10.2590964"><ele>134.33333333333334</ele><time>2026-04-27T14:06:37.7Z</time></trkpt><trkpt lat="45.5279258" lon="10.2588939"><ele>136.66666666666669</ele><time>2026-04-27T14:06:38.681Z</time></trkpt><trkpt lat="45.5280028" lon="10.2586955"><ele>139.0</ele><time>2026-04-27T14:06:39.689Z</time></trkpt><trkpt lat="45.5280767" lon="10.2584897"><ele>139.0</ele><time>2026-04-27T14:06:40.685Z</time></trkpt><trkpt lat="45.528146" lon="10.258285"><ele>139.0</ele><time>2026-04-27T14:06:41.7Z</time></trkpt><trkpt lat="45.5282043" lon="10.258077"><ele>139.0</ele><time>2026-04-27T14:06:42.7Z</time></trkpt><trkpt lat="45.5282638" lon="10.2578819"><ele>138.25</ele><time>2026-04-27T14:06:43.707Z</time></trkpt><trkpt lat="45.5282956" lon="10.257676"><ele>137.5</ele><time>2026-04-27T14:06:44.712Z</time></trkpt><trkpt lat="45.5283246" lon="10.2574873"><ele>136.75</ele><time>2026-04-27T14:06:45.684Z</time></trkpt><trkpt lat="45.5283469" lon="10.257311"><ele>136.0</ele><time>2026-04-27T14:06:46.7Z</time></trkpt><trkpt lat="45.5283642" lon="10.257148"><ele>135.2</ele><time>2026-04-27T14:06:47.692Z</time></trkpt><trkpt lat="45.5283836" lon="10.2569948"><ele>134.39999999999998</ele><time>2026-04-27T14:06:48.703Z</time></trkpt><trkpt lat="45.5284032" lon="10.2568499"><ele>133.6</ele><time>2026-04-27T14:06:49.693Z</time></trkpt><trkpt lat="45.5284387" lon="10.2567133"><ele>132.79999999999998</ele><time>2026-04-27T14:06:50.713Z</time></trkpt><trkpt lat="45.5284741" lon="10.2565865"><ele>132.0</ele><time>2026-04-27T14:06:51.695Z</time></trkpt><trkpt lat="45.5285159" lon="10.2564538"><ele>132.6</ele><time>2026-04-27T14:06:52.689Z</time></trkpt><trkpt lat="45.5285592" lon="10.2563485"><ele>133.2</ele><time>2026-04-27T14:06:53.683Z</time></trkpt><trkpt lat="45.5286184" lon="10.2562537"><ele>133.8</ele><time>2026-04-27T14:06:54.709Z</time></trkpt><trkpt lat="45.5286538" lon="10.2561243"><ele>134.4</ele><time>2026-04-27T14:06:55.693Z</time></trkpt><trkpt lat="45.5286728" lon="10.2559853"><ele>135.0</ele><time>2026-04-27T14:06:56.696Z</time></trkpt><trkpt lat="45.5287022" lon="10.2558429"><ele>136.0</ele><time>2026-04-27T14:06:57.708Z</time></trkpt><trkpt lat="45.5287422" lon="10.2556807"><ele>137.0</ele><time>2026-04-27T14:06:58.719Z</time></trkpt><trkpt lat="45.5287895" lon="10.2555013"><ele>138.0</ele><time>2026-04-27T14:06:59.699Z</time></trkpt><trkpt lat="45.5288609" lon="10.2553064"><ele>139.0</ele><time>2026-04-27T14:07:00.694Z</time></trkpt><trkpt lat="45.5289457" lon="10.2550797"><ele>139.0</ele><time>2026-04-27T14:07:01.707Z</time></trkpt><trkpt lat="45.5290441" lon="10.2548738"><ele>139.0</ele><time>2026-04-27T14:07:02.692Z</time></trkpt><trkpt lat="45.529143" lon="10.2546797"><ele>139.0</ele><time>2026-04-27T14:07:03.703Z</time></trkpt><trkpt lat="45.5292364" lon="10.2545047"><ele>137.0</ele><time>2026-04-27T14:07:04.693Z</time></trkpt><trkpt lat="45.5293337" lon="10.2543163"><ele>135.0</ele><time>2026-04-27T14:07:05.682Z</time></trkpt><trkpt lat="45.529433" lon="10.2541199"><ele>133.0</ele><time>2026-04-27T14:07:06.71Z</time></trkpt><trkpt lat="45.5295182" lon="10.2539424"><ele>134.0</ele><time>2026-04-27T14:07:07.691Z</time></trkpt><trkpt lat="45.529608" lon="10.2537684"><ele>135.0</ele><time>2026-04-27T14:07:08.708Z</time></trkpt><trkpt lat="45.5296905" lon="10.2535933"><ele>136.0</ele><time>2026-04-27T14:07:09.699Z</time></trkpt><trkpt lat="45.5297948" lon="10.2534377"><ele>136.0</ele><time>2026-04-27T14:07:10.714Z</time></trkpt><trkpt lat="45.5298726" lon="10.2532611"><ele>136.0</ele><time>2026-04-27T14:07:11.715Z</time></trkpt><trkpt lat="45.5299494" lon="10.2530935"><ele>136.0</ele><time>2026-04-27T14:07:12.707Z</time></trkpt><trkpt lat="45.5300253" lon="10.2529365"><ele>136.0</ele><time>2026-04-27T14:07:13.701Z</time></trkpt><trkpt lat="45.5300991" lon="10.2527823"><ele>135.0</ele><time>2026-04-27T14:07:14.702Z</time></trkpt><trkpt lat="45.5301656" lon="10.2526359"><ele>134.0</ele><time>2026-04-27T14:07:15.691Z</time></trkpt><trkpt lat="45.5302271" lon="10.2524947"><ele>133.0</ele><time>2026-04-27T14:07:16.742Z</time></trkpt><trkpt lat="45.5302789" lon="10.2523631"><ele>132.0</ele><time>2026-04-27T14:07:17.694Z</time></trkpt><trkpt lat="45.5303282" lon="10.2522381"><ele>131.0</ele><time>2026-04-27T14:07:18.704Z</time></trkpt><trkpt lat="45.5303691" lon="10.2521203"><ele>131.5</ele><time>2026-04-27T14:07:19.704Z</time></trkpt><trkpt lat="45.5304108" lon="10.2520008"><ele>132.0</ele><time>2026-04-27T14:07:20.744Z</time></trkpt><trkpt lat="45.5304623" lon="10.2518984"><ele>132.5</ele><time>2026-04-27T14:07:21.681Z</time></trkpt><trkpt lat="45.530512" lon="10.251809"><ele>133.0</ele><time>2026-04-27T14:07:22.694Z</time></trkpt><trkpt lat="45.5305443" lon="10.2517167"><ele>133.5</ele><time>2026-04-27T14:07:23.699Z</time></trkpt><trkpt lat="45.5305527" lon="10.2516219"><ele>134.0</ele><time>2026-04-27T14:07:24.684Z</time></trkpt><trkpt lat="45.5305226" lon="10.2514719"><ele>133.66666666666666</ele><time>2026-04-27T14:07:26.695Z</time></trkpt><trkpt lat="45.5304406" lon="10.2513585"><ele>133.33333333333331</ele><time>2026-04-27T14:07:28.704Z</time></trkpt><trkpt lat="45.5303975" lon="10.2512873"><ele>133.0</ele><time>2026-04-27T14:07:29.694Z</time></trkpt><trkpt lat="45.5303655" lon="10.2512008"><ele>132.66666666666666</ele><time>2026-04-27T14:07:30.698Z</time></trkpt><trkpt lat="45.5303277" lon="10.2510906"><ele>132.33333333333334</ele><time>2026-04-27T14:07:31.694Z</time></trkpt><trkpt lat="45.5303161" lon="10.2509531"><ele>132.0</ele><time>2026-04-27T14:07:32.71Z</time></trkpt><trkpt lat="45.5303025" lon="10.2507961"><ele>131.25</ele><time>2026-04-27T14:07:33.686Z</time></trkpt><trkpt lat="45.5302936" lon="10.2505866"><ele>130.5</ele><time>2026-04-27T14:07:34.719Z</time></trkpt><trkpt lat="45.5302991" lon="10.2503452"><ele>129.75</ele><time>2026-04-27T14:07:35.697Z</time></trkpt><trkpt lat="45.5303062" lon="10.250169"><ele>129.0</ele><time>2026-04-27T14:07:36.693Z</time></trkpt><trkpt lat="45.5303131" lon="10.2499973"><ele>129.0</ele><time>2026-04-27T14:07:37.7Z</time></trkpt><trkpt lat="45.5303198" lon="10.2498464"><ele>129.0</ele><time>2026-04-27T14:07:38.717Z</time></trkpt><trkpt lat="45.5303213" lon="10.2496949"><ele>129.0</ele><time>2026-04-27T14:07:39.697Z</time></trkpt><trkpt lat="45.5303233" lon="10.2495571"><ele>129.0</ele><time>2026-04-27T14:07:40.691Z</time></trkpt><trkpt lat="45.5303224" lon="10.2494025"><ele>129.0</ele><time>2026-04-27T14:07:41.689Z</time></trkpt><trkpt lat="45.5303215" lon="10.2492623"><ele>129.2</ele><time>2026-04-27T14:07:42.69Z</time></trkpt><trkpt lat="45.5303215" lon="10.2491246"><ele>129.4</ele><time>2026-04-27T14:07:43.706Z</time></trkpt><trkpt lat="45.5303268" lon="10.2489824"><ele>129.6</ele><time>2026-04-27T14:07:44.705Z</time></trkpt><trkpt lat="45.5303265" lon="10.2488475"><ele>129.8</ele><time>2026-04-27T14:07:45.698Z</time></trkpt><trkpt lat="45.5303258" lon="10.2486928"><ele>130.0</ele><time>2026-04-27T14:07:46.713Z</time></trkpt><trkpt lat="45.5303249" lon="10.2485417"><ele>130.16666666666669</ele><time>2026-04-27T14:07:47.694Z</time></trkpt><trkpt lat="45.5303191" lon="10.2484128"><ele>130.33333333333334</ele><time>2026-04-27T14:07:48.692Z</time></trkpt><trkpt lat="45.5303323" lon="10.2482921"><ele>130.5</ele><time>2026-04-27T14:07:49.704Z</time></trkpt><trkpt lat="45.5303289" lon="10.2481847"><ele>130.66666666666666</ele><time>2026-04-27T14:07:50.688Z</time></trkpt><trkpt lat="45.5303208" lon="10.2480835"><ele>130.83333333333331</ele><time>2026-04-27T14:07:51.701Z</time></trkpt><trkpt lat="45.5303144" lon="10.2479927"><ele>131.0</ele><time>2026-04-27T14:07:52.697Z</time></trkpt><trkpt lat="45.5303127" lon="10.2479005"><ele>131.0</ele><time>2026-04-27T14:07:53.705Z</time></trkpt><trkpt lat="45.5303095" lon="10.2478037"><ele>131.0</ele><time>2026-04-27T14:07:54.699Z</time></trkpt><trkpt lat="45.5303065" lon="10.2476978"><ele>131.0</ele><time>2026-04-27T14:07:55.733Z</time></trkpt><trkpt lat="45.5302966" lon="10.2475856"><ele>131.0</ele><time>2026-04-27T14:07:56.721Z</time></trkpt><trkpt lat="45.5302955" lon="10.2474798"><ele>131.0</ele><time>2026-04-27T14:07:57.705Z</time></trkpt><trkpt lat="45.5302974" lon="10.2473583"><ele>131.0</ele><time>2026-04-27T14:07:58.696Z</time></trkpt><trkpt lat="45.5302976" lon="10.2472098"><ele>131.0</ele><time>2026-04-27T14:07:59.687Z</time></trkpt><trkpt lat="45.530302" lon="10.2470356"><ele>131.0</ele><time>2026-04-27T14:08:00.701Z</time></trkpt><trkpt lat="45.5303153" lon="10.2468378"><ele>131.0</ele><time>2026-04-27T14:08:01.692Z</time></trkpt><trkpt lat="45.5303289" lon="10.2466807"><ele>131.0</ele><time>2026-04-27T14:08:02.683Z</time></trkpt><trkpt lat="45.5303392" lon="10.2465076"><ele>131.0</ele><time>2026-04-27T14:08:03.705Z</time></trkpt><trkpt lat="45.5303503" lon="10.2463307"><ele>131.0</ele><time>2026-04-27T14:08:04.704Z</time></trkpt><trkpt lat="45.5303582" lon="10.246185"><ele>131.0</ele><time>2026-04-27T14:08:05.708Z</time></trkpt><trkpt lat="45.530362" lon="10.2460543"><ele>131.0</ele><time>2026-04-27T14:08:06.692Z</time></trkpt><trkpt lat="45.5303737" lon="10.2459274"><ele>131.0</ele><time>2026-04-27T14:08:07.709Z</time></trkpt><trkpt lat="45.5303849" lon="10.245811"><ele>131.0</ele><time>2026-04-27T14:08:08.699Z</time></trkpt><trkpt lat="45.5304053" lon="10.2456789"><ele>131.0</ele><time>2026-04-27T14:08:09.697Z</time></trkpt><trkpt lat="45.5304177" lon="10.245527"><ele>131.0</ele><time>2026-04-27T14:08:10.689Z</time></trkpt><trkpt lat="45.5304307" lon="10.2453914"><ele>131.0</ele><time>2026-04-27T14:08:11.701Z</time></trkpt><trkpt lat="45.5304298" lon="10.2452399"><ele>131.0</ele><time>2026-04-27T14:08:12.696Z</time></trkpt><trkpt lat="45.5304431" lon="10.2450835"><ele>131.2</ele><time>2026-04-27T14:08:13.708Z</time></trkpt><trkpt lat="45.5304594" lon="10.2449324"><ele>131.39999999999998</ele><time>2026-04-27T14:08:14.687Z</time></trkpt><trkpt lat="45.5304819" lon="10.2447728"><ele>131.6</ele><time>2026-04-27T14:08:15.717Z</time></trkpt><trkpt lat="45.5304835" lon="10.2446363"><ele>131.79999999999998</ele><time>2026-04-27T14:08:16.702Z</time></trkpt><trkpt lat="45.5304846" lon="10.244507"><ele>132.0</ele><time>2026-04-27T14:08:17.71Z</time></trkpt><trkpt lat="45.5305026" lon="10.2443614"><ele>132.0</ele><time>2026-04-27T14:08:18.694Z</time></trkpt><trkpt lat="45.5305116" lon="10.2442221"><ele>132.0</ele><time>2026-04-27T14:08:19.7Z</time></trkpt><trkpt lat="45.530516" lon="10.2440813"><ele>132.0</ele><time>2026-04-27T14:08:20.684Z</time></trkpt><trkpt lat="45.530517" lon="10.2439538"><ele>132.0</ele><time>2026-04-27T14:08:21.69Z</time></trkpt><trkpt lat="45.5305208" lon="10.2438253"><ele>132.0</ele><time>2026-04-27T14:08:22.7Z</time></trkpt><trkpt lat="45.5305335" lon="10.2436867"><ele>132.0</ele><time>2026-04-27T14:08:23.692Z</time></trkpt><trkpt lat="45.5305553" lon="10.2435514"><ele>132.0</ele><time>2026-04-27T14:08:24.681Z</time></trkpt><trkpt lat="45.53058" lon="10.2434229"><ele>132.0</ele><time>2026-04-27T14:08:25.704Z</time></trkpt><trkpt lat="45.5306006" lon="10.2432926"><ele>132.0</ele><time>2026-04-27T14:08:26.705Z</time></trkpt><trkpt lat="45.5306016" lon="10.2431445"><ele>132.0</ele><time>2026-04-27T14:08:27.712Z</time></trkpt><trkpt lat="45.5306026" lon="10.2429975"><ele>132.0</ele><time>2026-04-27T14:08:28.7Z</time></trkpt><trkpt lat="45.5306061" lon="10.2428704"><ele>132.0</ele><time>2026-04-27T14:08:29.708Z</time></trkpt><trkpt lat="45.5306161" lon="10.2427459"><ele>132.0</ele><time>2026-04-27T14:08:30.704Z</time></trkpt><trkpt lat="45.5306288" lon="10.2426246"><ele>132.0</ele><time>2026-04-27T14:08:31.7Z</time></trkpt><trkpt lat="45.5306404" lon="10.2425128"><ele>132.0</ele><time>2026-04-27T14:08:32.709Z</time></trkpt><trkpt lat="45.5306531" lon="10.2424033"><ele>132.0</ele><time>2026-04-27T14:08:33.702Z</time></trkpt><trkpt lat="45.5306646" lon="10.2422828"><ele>132.16666666666666</ele><time>2026-04-27T14:08:34.708Z</time></trkpt><trkpt lat="45.530676" lon="10.2421662"><ele>132.33333333333334</ele><time>2026-04-27T14:08:35.699Z</time></trkpt><trkpt lat="45.5306844" lon="10.2420589"><ele>132.5</ele><time>2026-04-27T14:08:36.714Z</time></trkpt><trkpt lat="45.5306929" lon="10.2419529"><ele>132.66666666666669</ele><time>2026-04-27T14:08:37.712Z</time></trkpt><trkpt lat="45.5307112" lon="10.2418225"><ele>132.83333333333334</ele><time>2026-04-27T14:08:38.708Z</time></trkpt><trkpt lat="45.5307195" lon="10.2416968"><ele>133.0</ele><time>2026-04-27T14:08:39.706Z</time></trkpt><trkpt lat="45.5307323" lon="10.2415676"><ele>133.20000000000002</ele><time>2026-04-27T14:08:40.707Z</time></trkpt><trkpt lat="45.5307509" lon="10.2414424"><ele>133.4</ele><time>2026-04-27T14:08:41.706Z</time></trkpt><trkpt lat="45.5307774" lon="10.2413029"><ele>133.60000000000002</ele><time>2026-04-27T14:08:42.692Z</time></trkpt><trkpt lat="45.5307935" lon="10.2411622"><ele>133.8</ele><time>2026-04-27T14:08:43.702Z</time></trkpt><trkpt lat="45.5308035" lon="10.2410243"><ele>134.0</ele><time>2026-04-27T14:08:44.704Z</time></trkpt><trkpt lat="45.5308045" lon="10.240873"><ele>134.0</ele><time>2026-04-27T14:08:45.711Z</time></trkpt><trkpt lat="45.530807" lon="10.2407258"><ele>134.0</ele><time>2026-04-27T14:08:46.701Z</time></trkpt><trkpt lat="45.5308146" lon="10.2405836"><ele>134.0</ele><time>2026-04-27T14:08:47.706Z</time></trkpt><trkpt lat="45.5308232" lon="10.2404356"><ele>134.0</ele><time>2026-04-27T14:08:48.693Z</time></trkpt><trkpt lat="45.5308302" lon="10.2402854"><ele>134.0</ele><time>2026-04-27T14:08:49.709Z</time></trkpt><trkpt lat="45.5308348" lon="10.2401261"><ele>133.8</ele><time>2026-04-27T14:08:50.701Z</time></trkpt><trkpt lat="45.5308482" lon="10.2399813"><ele>133.60000000000002</ele><time>2026-04-27T14:08:51.706Z</time></trkpt><trkpt lat="45.5308639" lon="10.2398441"><ele>133.4</ele><time>2026-04-27T14:08:52.7Z</time></trkpt><trkpt lat="45.5308797" lon="10.2397155"><ele>133.20000000000002</ele><time>2026-04-27T14:08:53.704Z</time></trkpt><trkpt lat="45.5308914" lon="10.2396161"><ele>133.0</ele><time>2026-04-27T14:08:54.691Z</time></trkpt><trkpt lat="45.5309083" lon="10.2394785"><ele>133.0</ele><time>2026-04-27T14:08:56.706Z</time></trkpt><trkpt lat="45.5309154" lon="10.2393831"><ele>133.0</ele><time>2026-04-27T14:08:59.709Z</time></trkpt><trkpt lat="45.5309275" lon="10.2392671"><ele>133.0</ele><time>2026-04-27T14:09:03.715Z</time></trkpt><trkpt lat="45.5309363" lon="10.2391329"><ele>133.0</ele><time>2026-04-27T14:09:05.701Z</time></trkpt><trkpt lat="45.5309422" lon="10.2390397"><ele>133.0</ele><time>2026-04-27T14:09:06.692Z</time></trkpt><trkpt lat="45.5309468" lon="10.2389404"><ele>133.0</ele><time>2026-04-27T14:09:07.708Z</time></trkpt><trkpt lat="45.5309531" lon="10.2388175"><ele>133.0</ele><time>2026-04-27T14:09:08.702Z</time></trkpt><trkpt lat="45.5309642" lon="10.238701"><ele>133.0</ele><time>2026-04-27T14:09:09.717Z</time></trkpt><trkpt lat="45.5309705" lon="10.2385961"><ele>133.0</ele><time>2026-04-27T14:09:10.718Z</time></trkpt><trkpt lat="45.5309761" lon="10.2384787"><ele>133.0</ele><time>2026-04-27T14:09:11.695Z</time></trkpt><trkpt lat="45.5309849" lon="10.2383639"><ele>133.0</ele><time>2026-04-27T14:09:12.711Z</time></trkpt><trkpt lat="45.5309934" lon="10.2382553"><ele>133.0</ele><time>2026-04-27T14:09:13.7Z</time></trkpt><trkpt lat="45.5310005" lon="10.2381581"><ele>132.83333333333334</ele><time>2026-04-27T14:09:14.701Z</time></trkpt><trkpt lat="45.5310091" lon="10.2380601"><ele>132.66666666666669</ele><time>2026-04-27T14:09:15.715Z</time></trkpt><trkpt lat="45.5310119" lon="10.2379628"><ele>132.5</ele><time>2026-04-27T14:09:16.693Z</time></trkpt><trkpt lat="45.5310195" lon="10.2378663"><ele>132.33333333333334</ele><time>2026-04-27T14:09:17.706Z</time></trkpt><trkpt lat="45.5310403" lon="10.2377117"><ele>132.16666666666666</ele><time>2026-04-27T14:09:19.705Z</time></trkpt><trkpt lat="45.5310542" lon="10.2376165"><ele>132.0</ele><time>2026-04-27T14:09:26.707Z</time></trkpt><trkpt lat="45.531055" lon="10.2374811"><ele>131.75</ele><time>2026-04-27T14:09:30.707Z</time></trkpt><trkpt lat="45.5310752" lon="10.2373011"><ele>131.5</ele><time>2026-04-27T14:09:39.707Z</time></trkpt><trkpt lat="45.5310931" lon="10.2371934"><ele>131.25</ele><time>2026-04-27T14:09:40.708Z</time></trkpt><trkpt lat="45.5311119" lon="10.2370434"><ele>131.0</ele><time>2026-04-27T14:09:41.701Z</time></trkpt><trkpt lat="45.5311055" lon="10.2368348"><ele>131.0</ele><time>2026-04-27T14:09:42.703Z</time></trkpt><trkpt lat="45.5310979" lon="10.2366637"><ele>131.0</ele><time>2026-04-27T14:09:43.691Z</time></trkpt><trkpt lat="45.5310934" lon="10.2365033"><ele>131.0</ele><time>2026-04-27T14:09:44.691Z</time></trkpt><trkpt lat="45.5310914" lon="10.2363555"><ele>131.0</ele><time>2026-04-27T14:09:45.688Z</time></trkpt><trkpt lat="45.531091" lon="10.236226"><ele>131.0</ele><time>2026-04-27T14:09:46.696Z</time></trkpt><trkpt lat="45.5310807" lon="10.2361"><ele>131.0</ele><time>2026-04-27T14:09:47.705Z</time></trkpt><trkpt lat="45.5310705" lon="10.2359725"><ele>131.0</ele><time>2026-04-27T14:09:48.707Z</time></trkpt><trkpt lat="45.5310526" lon="10.2358524"><ele>131.0</ele><time>2026-04-27T14:09:49.701Z</time></trkpt><trkpt lat="45.5310374" lon="10.2357266"><ele>131.0</ele><time>2026-04-27T14:09:50.709Z</time></trkpt><trkpt lat="45.5310253" lon="10.2355876"><ele>131.0</ele><time>2026-04-27T14:09:51.703Z</time></trkpt><trkpt lat="45.5310195" lon="10.2354471"><ele>131.16666666666666</ele><time>2026-04-27T14:09:52.701Z</time></trkpt><trkpt lat="45.531018" lon="10.2353135"><ele>131.33333333333331</ele><time>2026-04-27T14:09:53.709Z</time></trkpt><trkpt lat="45.5310163" lon="10.2351808"><ele>131.5</ele><time>2026-04-27T14:09:54.689Z</time></trkpt><trkpt lat="45.5310109" lon="10.2350501"><ele>131.66666666666666</ele><time>2026-04-27T14:09:55.7Z</time></trkpt><trkpt lat="45.5310048" lon="10.23493"><ele>131.83333333333334</ele><time>2026-04-27T14:09:56.711Z</time></trkpt><trkpt lat="45.5310045" lon="10.2348155"><ele>132.0</ele><time>2026-04-27T14:09:57.7Z</time></trkpt><trkpt lat="45.5310033" lon="10.2347128"><ele>132.4</ele><time>2026-04-27T14:09:58.704Z</time></trkpt><trkpt lat="45.5309948" lon="10.2345483"><ele>132.79999999999998</ele><time>2026-04-27T14:10:00.702Z</time></trkpt><trkpt lat="45.5309908" lon="10.2343826"><ele>133.2</ele><time>2026-04-27T14:10:02.693Z</time></trkpt><trkpt lat="45.5309783" lon="10.2342032"><ele>133.6</ele><time>2026-04-27T14:10:04.69Z</time></trkpt><trkpt lat="45.5309771" lon="10.2340749"><ele>134.0</ele><time>2026-04-27T14:10:06.701Z</time></trkpt><trkpt lat="45.5309945" lon="10.2339672"><ele>134.25</ele><time>2026-04-27T14:10:16.7Z</time></trkpt><trkpt lat="45.5309986" lon="10.2337942"><ele>134.5</ele><time>2026-04-27T14:10:18.697Z</time></trkpt><trkpt lat="45.5309868" lon="10.2336457"><ele>134.75</ele><time>2026-04-27T14:10:19.693Z</time></trkpt><trkpt lat="45.530979" lon="10.2334796"><ele>135.0</ele><time>2026-04-27T14:10:20.709Z</time></trkpt><trkpt lat="45.530972" lon="10.2333211"><ele>135.0</ele><time>2026-04-27T14:10:21.708Z</time></trkpt><trkpt lat="45.5309681" lon="10.233149"><ele>135.0</ele><time>2026-04-27T14:10:22.698Z</time></trkpt><trkpt lat="45.5309599" lon="10.2329605"><ele>135.0</ele><time>2026-04-27T14:10:23.705Z</time></trkpt><trkpt lat="45.5309538" lon="10.2327712"><ele>135.0</ele><time>2026-04-27T14:10:24.7Z</time></trkpt><trkpt lat="45.5309469" lon="10.2325921"><ele>135.0</ele><time>2026-04-27T14:10:25.697Z</time></trkpt><trkpt lat="45.5309349" lon="10.2324367"><ele>135.0</ele><time>2026-04-27T14:10:26.704Z</time></trkpt><trkpt lat="45.5309247" lon="10.2322711"><ele>135.0</ele><time>2026-04-27T14:10:27.695Z</time></trkpt><trkpt lat="45.5309153" lon="10.2321047"><ele>135.0</ele><time>2026-04-27T14:10:28.705Z</time></trkpt><trkpt lat="45.5309073" lon="10.2319449"><ele>135.0</ele><time>2026-04-27T14:10:29.7Z</time></trkpt><trkpt lat="45.5308975" lon="10.2317959"><ele>135.0</ele><time>2026-04-27T14:10:30.695Z</time></trkpt><trkpt lat="45.5308907" lon="10.2316488"><ele>135.0</ele><time>2026-04-27T14:10:31.707Z</time></trkpt><trkpt lat="45.5308839" lon="10.2315062"><ele>135.0</ele><time>2026-04-27T14:10:32.698Z</time></trkpt><trkpt lat="45.5308775" lon="10.231373"><ele>135.0</ele><time>2026-04-27T14:10:33.696Z</time></trkpt><trkpt lat="45.530872" lon="10.2312417"><ele>135.5</ele><time>2026-04-27T14:10:34.7Z</time></trkpt><trkpt lat="45.5308659" lon="10.2311105"><ele>136.0</ele><time>2026-04-27T14:10:35.693Z</time></trkpt><trkpt lat="45.5308616" lon="10.230979"><ele>136.5</ele><time>2026-04-27T14:10:36.701Z</time></trkpt><trkpt lat="45.5308556" lon="10.2308502"><ele>137.0</ele><time>2026-04-27T14:10:37.701Z</time></trkpt><trkpt lat="45.5308514" lon="10.2307268"><ele>137.5</ele><time>2026-04-27T14:10:38.69Z</time></trkpt><trkpt lat="45.5308447" lon="10.2306131"><ele>138.0</ele><time>2026-04-27T14:10:39.697Z</time></trkpt><trkpt lat="45.5308385" lon="10.2305048"><ele>138.42857142857144</ele><time>2026-04-27T14:10:40.705Z</time></trkpt><trkpt lat="45.5308351" lon="10.2304033"><ele>138.85714285714286</ele><time>2026-04-27T14:10:41.704Z</time></trkpt><trkpt lat="45.5308305" lon="10.2303112"><ele>139.28571428571428</ele><time>2026-04-27T14:10:42.699Z</time></trkpt><trkpt lat="45.5308283" lon="10.2302171"><ele>139.71428571428572</ele><time>2026-04-27T14:10:43.697Z</time></trkpt><trkpt lat="45.5308318" lon="10.2301229"><ele>140.14285714285714</ele><time>2026-04-27T14:10:44.695Z</time></trkpt><trkpt lat="45.5308212" lon="10.2300314"><ele>140.57142857142858</ele><time>2026-04-27T14:10:45.706Z</time></trkpt><trkpt lat="45.5308176" lon="10.2299365"><ele>141.0</ele><time>2026-04-27T14:10:46.701Z</time></trkpt><trkpt lat="45.5308155" lon="10.2298415"><ele>140.8</ele><time>2026-04-27T14:10:47.696Z</time></trkpt><trkpt lat="45.5308098" lon="10.229746"><ele>140.6</ele><time>2026-04-27T14:10:48.696Z</time></trkpt><trkpt lat="45.5307987" lon="10.2296275"><ele>140.4</ele><time>2026-04-27T14:10:50.702Z</time></trkpt><trkpt lat="45.5307854" lon="10.2295091"><ele>140.2</ele><time>2026-04-27T14:10:52.701Z</time></trkpt><trkpt lat="45.530786" lon="10.2293393"><ele>140.0</ele><time>2026-04-27T14:10:54.714Z</time></trkpt><trkpt lat="45.5307861" lon="10.2291577"><ele>140.0</ele><time>2026-04-27T14:10:56.694Z</time></trkpt><trkpt lat="45.5307893" lon="10.2290546"><ele>140.0</ele><time>2026-04-27T14:10:57.702Z</time></trkpt><trkpt lat="45.5307842" lon="10.2289535"><ele>140.0</ele><time>2026-04-27T14:10:58.689Z</time></trkpt><trkpt lat="45.5307736" lon="10.2288638"><ele>140.0</ele><time>2026-04-27T14:10:59.705Z</time></trkpt><trkpt lat="45.5307563" lon="10.2287621"><ele>140.0</ele><time>2026-04-27T14:11:01.694Z</time></trkpt><trkpt lat="45.5307353" lon="10.2286735"><ele>140.0</ele><time>2026-04-27T14:11:03.692Z</time></trkpt><trkpt lat="45.5307399" lon="10.2285126"><ele>139.85714285714286</ele><time>2026-04-27T14:11:05.706Z</time></trkpt><trkpt lat="45.5307303" lon="10.2283951"><ele>139.71428571428572</ele><time>2026-04-27T14:11:06.697Z</time></trkpt><trkpt lat="45.5307181" lon="10.2282866"><ele>139.57142857142856</ele><time>2026-04-27T14:11:07.702Z</time></trkpt><trkpt lat="45.5307088" lon="10.2281843"><ele>139.42857142857144</ele><time>2026-04-27T14:11:08.705Z</time></trkpt><trkpt lat="45.5307117" lon="10.2280797"><ele>139.28571428571428</ele><time>2026-04-27T14:11:09.691Z</time></trkpt><trkpt lat="45.5307148" lon="10.2279747"><ele>139.14285714285714</ele><time>2026-04-27T14:11:10.7Z</time></trkpt><trkpt lat="45.5307183" lon="10.2278747"><ele>139.0</ele><time>2026-04-27T14:11:11.707Z</time></trkpt><trkpt lat="45.5307232" lon="10.2277763"><ele>139.0</ele><time>2026-04-27T14:11:12.698Z</time></trkpt><trkpt lat="45.5307299" lon="10.2276585"><ele>139.0</ele><time>2026-04-27T14:11:14.761Z</time></trkpt><trkpt lat="45.5307221" lon="10.2275306"><ele>139.0</ele><time>2026-04-27T14:11:16.707Z</time></trkpt><trkpt lat="45.5307104" lon="10.2274304"><ele>139.0</ele><time>2026-04-27T14:11:18.705Z</time></trkpt><trkpt lat="45.5306996" lon="10.2272815"><ele>139.0</ele><time>2026-04-27T14:11:20.693Z</time></trkpt><trkpt lat="45.5306915" lon="10.2271772"><ele>139.0</ele><time>2026-04-27T14:11:21.698Z</time></trkpt><trkpt lat="45.5306862" lon="10.2270872"><ele>139.0</ele><time>2026-04-27T14:11:22.71Z</time></trkpt><trkpt lat="45.5306755" lon="10.2269952"><ele>139.0</ele><time>2026-04-27T14:11:23.699Z</time></trkpt><trkpt lat="45.5306688" lon="10.2269057"><ele>139.0</ele><time>2026-04-27T14:11:24.701Z</time></trkpt><trkpt lat="45.5306766" lon="10.2268087"><ele>139.0</ele><time>2026-04-27T14:11:25.703Z</time></trkpt><trkpt lat="45.5306934" lon="10.2266917"><ele>139.0</ele><time>2026-04-27T14:11:26.707Z</time></trkpt><trkpt lat="45.5307186" lon="10.2265659"><ele>139.0</ele><time>2026-04-27T14:11:27.693Z</time></trkpt><trkpt lat="45.5307445" lon="10.2264314"><ele>139.16666666666669</ele><time>2026-04-27T14:11:28.694Z</time></trkpt><trkpt lat="45.5307732" lon="10.2262905"><ele>139.33333333333334</ele><time>2026-04-27T14:11:29.704Z</time></trkpt><trkpt lat="45.530808" lon="10.2261705"><ele>139.5</ele><time>2026-04-27T14:11:30.698Z</time></trkpt><trkpt lat="45.5308409" lon="10.2260624"><ele>139.66666666666666</ele><time>2026-04-27T14:11:31.702Z</time></trkpt><trkpt lat="45.5308691" lon="10.2259575"><ele>139.83333333333331</ele><time>2026-04-27T14:11:32.71Z</time></trkpt><trkpt lat="45.5308979" lon="10.2258458"><ele>140.0</ele><time>2026-04-27T14:11:33.708Z</time></trkpt><trkpt lat="45.5309234" lon="10.2257357"><ele>139.66666666666666</ele><time>2026-04-27T14:11:34.705Z</time></trkpt><trkpt lat="45.530946" lon="10.2256322"><ele>139.33333333333331</ele><time>2026-04-27T14:11:35.693Z</time></trkpt><trkpt lat="45.5309705" lon="10.2255216"><ele>139.0</ele><time>2026-04-27T14:11:36.705Z</time></trkpt><trkpt lat="45.5309975" lon="10.2254124"><ele>138.66666666666666</ele><time>2026-04-27T14:11:37.69Z</time></trkpt><trkpt lat="45.5310214" lon="10.2253027"><ele>138.33333333333334</ele><time>2026-04-27T14:11:38.688Z</time></trkpt><trkpt lat="45.5310483" lon="10.2251901"><ele>138.0</ele><time>2026-04-27T14:11:39.691Z</time></trkpt><trkpt lat="45.5310764" lon="10.2250826"><ele>138.0</ele><time>2026-04-27T14:11:40.701Z</time></trkpt><trkpt lat="45.5310965" lon="10.2249872"><ele>138.0</ele><time>2026-04-27T14:11:41.704Z</time></trkpt><trkpt lat="45.5311276" lon="10.2248465"><ele>138.0</ele><time>2026-04-27T14:11:43.706Z</time></trkpt><trkpt lat="45.5311089" lon="10.2247405"><ele>138.0</ele><time>2026-04-27T14:12:32.709Z</time></trkpt><trkpt lat="45.5311372" lon="10.2246533"><ele>138.0</ele><time>2026-04-27T14:12:34.705Z</time></trkpt><trkpt lat="45.5311574" lon="10.2245634"><ele>138.0</ele><time>2026-04-27T14:12:35.696Z</time></trkpt><trkpt lat="45.5311817" lon="10.2244666"><ele>137.8</ele><time>2026-04-27T14:12:36.699Z</time></trkpt><trkpt lat="45.5312009" lon="10.2243483"><ele>137.60000000000002</ele><time>2026-04-27T14:12:37.713Z</time></trkpt><trkpt lat="45.5312255" lon="10.2242167"><ele>137.39999999999998</ele><time>2026-04-27T14:12:38.695Z</time></trkpt><trkpt lat="45.5312547" lon="10.2240789"><ele>137.2</ele><time>2026-04-27T14:12:39.712Z</time></trkpt><trkpt lat="45.5312812" lon="10.2239468"><ele>137.0</ele><time>2026-04-27T14:12:40.706Z</time></trkpt><trkpt lat="45.5313009" lon="10.2238329"><ele>137.5</ele><time>2026-04-27T14:12:41.709Z</time></trkpt><trkpt lat="45.5313243" lon="10.2237166"><ele>138.0</ele><time>2026-04-27T14:12:42.707Z</time></trkpt><trkpt lat="45.5313524" lon="10.2236002"><ele>138.5</ele><time>2026-04-27T14:12:43.713Z</time></trkpt><trkpt lat="45.5313818" lon="10.2234857"><ele>139.0</ele><time>2026-04-27T14:12:44.707Z</time></trkpt><trkpt lat="45.5314104" lon="10.2233662"><ele>139.5</ele><time>2026-04-27T14:12:45.707Z</time></trkpt><trkpt lat="45.5314361" lon="10.2232525"><ele>140.0</ele><time>2026-04-27T14:12:46.708Z</time></trkpt><trkpt lat="45.531462" lon="10.2231424"><ele>140.0</ele><time>2026-04-27T14:12:47.709Z</time></trkpt><trkpt lat="45.5314847" lon="10.2230424"><ele>140.0</ele><time>2026-04-27T14:12:48.704Z</time></trkpt><trkpt lat="45.5315042" lon="10.2229505"><ele>140.0</ele><time>2026-04-27T14:12:49.723Z</time></trkpt><trkpt lat="45.5315235" lon="10.2228505"><ele>140.0</ele><time>2026-04-27T14:12:50.729Z</time></trkpt><trkpt lat="45.5315406" lon="10.2227473"><ele>140.0</ele><time>2026-04-27T14:12:51.692Z</time></trkpt><trkpt lat="45.531557" lon="10.222638"><ele>140.0</ele><time>2026-04-27T14:12:52.701Z</time></trkpt><trkpt lat="45.5315732" lon="10.2225291"><ele>140.0</ele><time>2026-04-27T14:12:53.712Z</time></trkpt><trkpt lat="45.5315914" lon="10.2224131"><ele>139.8</ele><time>2026-04-27T14:12:54.7Z</time></trkpt><trkpt lat="45.5316223" lon="10.2222955"><ele>139.6</ele><time>2026-04-27T14:12:55.707Z</time></trkpt><trkpt lat="45.5316542" lon="10.2221591"><ele>139.4</ele><time>2026-04-27T14:12:56.708Z</time></trkpt><trkpt lat="45.5316869" lon="10.2220124"><ele>139.2</ele><time>2026-04-27T14:12:57.709Z</time></trkpt><trkpt lat="45.5317205" lon="10.2218672"><ele>139.0</ele><time>2026-04-27T14:12:58.712Z</time></trkpt><trkpt lat="45.5317547" lon="10.221735"><ele>139.0</ele><time>2026-04-27T14:12:59.699Z</time></trkpt><trkpt lat="45.5317856" lon="10.2216206"><ele>139.0</ele><time>2026-04-27T14:13:00.696Z</time></trkpt><trkpt lat="45.5318083" lon="10.2215312"><ele>139.0</ele><time>2026-04-27T14:13:01.724Z</time></trkpt><trkpt lat="45.5318541" lon="10.2213777"><ele>139.0</ele><time>2026-04-27T14:13:03.71Z</time></trkpt><trkpt lat="45.5318823" lon="10.2212908"><ele>139.0</ele><time>2026-04-27T14:13:04.724Z</time></trkpt><trkpt lat="45.5319386" lon="10.2211097"><ele>139.2</ele><time>2026-04-27T14:13:06.711Z</time></trkpt><trkpt lat="45.5319694" lon="10.2210104"><ele>139.4</ele><time>2026-04-27T14:13:07.712Z</time></trkpt><trkpt lat="45.5320128" lon="10.2208522"><ele>139.6</ele><time>2026-04-27T14:13:09.767Z</time></trkpt><trkpt lat="45.5320469" lon="10.2207227"><ele>139.8</ele><time>2026-04-27T14:13:11.711Z</time></trkpt><trkpt lat="45.5321187" lon="10.2206148"><ele>140.0</ele><time>2026-04-27T14:13:13.71Z</time></trkpt><trkpt lat="45.5321893" lon="10.2204947"><ele>140.8</ele><time>2026-04-27T14:13:15.719Z</time></trkpt><trkpt lat="45.5321692" lon="10.2203308"><ele>141.6</ele><time>2026-04-27T14:13:17.718Z</time></trkpt><trkpt lat="45.5321592" lon="10.2201393"><ele>142.4</ele><time>2026-04-27T14:13:19.724Z</time></trkpt><trkpt lat="45.5321822" lon="10.2200289"><ele>143.2</ele><time>2026-04-27T14:13:20.704Z</time></trkpt><trkpt lat="45.532203" lon="10.2199113"><ele>144.0</ele><time>2026-04-27T14:13:21.723Z</time></trkpt><trkpt lat="45.5322255" lon="10.2197894"><ele>144.0</ele><time>2026-04-27T14:13:22.708Z</time></trkpt><trkpt lat="45.5322612" lon="10.2196444"><ele>144.0</ele><time>2026-04-27T14:13:23.703Z</time></trkpt><trkpt lat="45.5323022" lon="10.2195038"><ele>144.0</ele><time>2026-04-27T14:13:24.707Z</time></trkpt><trkpt lat="45.5323343" lon="10.2193871"><ele>144.0</ele><time>2026-04-27T14:13:25.703Z</time></trkpt><trkpt lat="45.5323538" lon="10.2192905"><ele>144.0</ele><time>2026-04-27T14:13:26.705Z</time></trkpt><trkpt lat="45.5323713" lon="10.2191964"><ele>144.0</ele><time>2026-04-27T14:13:27.709Z</time></trkpt><trkpt lat="45.5323878" lon="10.2191073"><ele>143.8</ele><time>2026-04-27T14:13:28.721Z</time></trkpt><trkpt lat="45.5324105" lon="10.2189435"><ele>143.60000000000002</ele><time>2026-04-27T14:13:30.731Z</time></trkpt><trkpt lat="45.532449" lon="10.2188037"><ele>143.4</ele><time>2026-04-27T14:13:32.705Z</time></trkpt><trkpt lat="45.5324921" lon="10.2187155"><ele>143.20000000000002</ele><time>2026-04-27T14:13:34.709Z</time></trkpt><trkpt lat="45.5324719" lon="10.2185782"><ele>143.0</ele><time>2026-04-27T14:14:04.723Z</time></trkpt><trkpt lat="45.5325115" lon="10.2184516"><ele>142.99999999999997</ele><time>2026-04-27T14:14:07.7Z</time></trkpt><trkpt lat="45.5325396" lon="10.2183353"><ele>143.0</ele><time>2026-04-27T14:14:09.709Z</time></trkpt><trkpt lat="45.5325552" lon="10.2182472"><ele>143.0</ele><time>2026-04-27T14:14:11.703Z</time></trkpt><trkpt lat="45.5325745" lon="10.2181552"><ele>143.0</ele><time>2026-04-27T14:14:14.708Z</time></trkpt><trkpt lat="45.5326019" lon="10.2180684"><ele>143.0</ele><time>2026-04-27T14:14:32.712Z</time></trkpt><trkpt lat="45.5326236" lon="10.2179597"><ele>142.99999999999997</ele><time>2026-04-27T14:14:35.704Z</time></trkpt><trkpt lat="45.5326668" lon="10.2178561"><ele>143.0</ele><time>2026-04-27T14:14:38.703Z</time></trkpt><trkpt lat="45.5327313" lon="10.2178057"><ele>143.0</ele><time>2026-04-27T14:14:40.73Z</time></trkpt><trkpt lat="45.5328095" lon="10.2178274"><ele>143.0</ele><time>2026-04-27T14:14:42.714Z</time></trkpt><trkpt lat="45.5329259" lon="10.2178787"><ele>143.0</ele><time>2026-04-27T14:14:44.722Z</time></trkpt><trkpt lat="45.5330382" lon="10.2179576"><ele>143.0</ele><time>2026-04-27T14:14:46.713Z</time></trkpt><trkpt lat="45.5331186" lon="10.217992"><ele>143.0</ele><time>2026-04-27T14:14:47.712Z</time></trkpt><trkpt lat="45.5331928" lon="10.2180305"><ele>143.66666666666666</ele><time>2026-04-27T14:14:48.74Z</time></trkpt><trkpt lat="45.5332627" lon="10.2180524"><ele>144.33333333333331</ele><time>2026-04-27T14:14:49.706Z</time></trkpt><trkpt lat="45.5333568" lon="10.2180512"><ele>145.0</ele><time>2026-04-27T14:14:53.725Z</time></trkpt><trkpt lat="45.5334667" lon="10.2180778"><ele>145.66666666666666</ele><time>2026-04-27T14:14:56.723Z</time></trkpt><trkpt lat="45.5335294" lon="10.2180968"><ele>146.33333333333334</ele><time>2026-04-27T14:14:57.698Z</time></trkpt><trkpt lat="45.5336105" lon="10.2181148"><ele>147.0</ele><time>2026-04-27T14:14:58.704Z</time></trkpt><trkpt lat="45.5336907" lon="10.2181235"><ele>146.83333333333334</ele><time>2026-04-27T14:14:59.717Z</time></trkpt><trkpt lat="45.5337578" lon="10.2181289"><ele>146.66666666666666</ele><time>2026-04-27T14:15:00.716Z</time></trkpt><trkpt lat="45.5338776" lon="10.2181411"><ele>146.5</ele><time>2026-04-27T14:15:02.707Z</time></trkpt><trkpt lat="45.5339725" lon="10.2181386"><ele>146.33333333333331</ele><time>2026-04-27T14:15:04.704Z</time></trkpt><trkpt lat="45.5340559" lon="10.2181208"><ele>146.16666666666666</ele><time>2026-04-27T14:15:06.699Z</time></trkpt><trkpt lat="45.5341164" lon="10.218042"><ele>146.0</ele><time>2026-04-27T14:15:11.716Z</time></trkpt><trkpt lat="45.534164" lon="10.2179535"><ele>146.0</ele><time>2026-04-27T14:15:15.697Z</time></trkpt><trkpt lat="45.5341861" lon="10.2177747"><ele>146.0</ele><time>2026-04-27T14:15:17.706Z</time></trkpt><trkpt lat="45.5342268" lon="10.217651"><ele>146.0</ele><time>2026-04-27T14:15:18.7Z</time></trkpt><trkpt lat="45.5342642" lon="10.2175082"><ele>146.0</ele><time>2026-04-27T14:15:19.701Z</time></trkpt><trkpt lat="45.5342961" lon="10.2173752"><ele>146.0</ele><time>2026-04-27T14:15:20.71Z</time></trkpt><trkpt lat="45.5343234" lon="10.2172562"><ele>145.8</ele><time>2026-04-27T14:15:21.708Z</time></trkpt><trkpt lat="45.534354" lon="10.2171592"><ele>145.6</ele><time>2026-04-27T14:15:22.707Z</time></trkpt><trkpt lat="45.534388" lon="10.2170089"><ele>145.4</ele><time>2026-04-27T14:15:24.715Z</time></trkpt><trkpt lat="45.5344307" lon="10.2168081"><ele>145.2</ele><time>2026-04-27T14:15:26.719Z</time></trkpt><trkpt lat="45.53446" lon="10.2166818"><ele>145.0</ele><time>2026-04-27T14:15:27.72Z</time></trkpt><trkpt lat="45.5344949" lon="10.2165087"><ele>145.0</ele><time>2026-04-27T14:15:28.698Z</time></trkpt><trkpt lat="45.5345312" lon="10.2163189"><ele>145.0</ele><time>2026-04-27T14:15:29.692Z</time></trkpt><trkpt lat="45.5345698" lon="10.2161007"><ele>145.0</ele><time>2026-04-27T14:15:30.759Z</time></trkpt><trkpt lat="45.5346081" lon="10.2158435"><ele>144.33333333333334</ele><time>2026-04-27T14:15:31.711Z</time></trkpt><trkpt lat="45.5346575" lon="10.215616"><ele>143.66666666666666</ele><time>2026-04-27T14:15:32.703Z</time></trkpt><trkpt lat="45.534706" lon="10.2153901"><ele>143.0</ele><time>2026-04-27T14:15:33.723Z</time></trkpt><trkpt lat="45.534748" lon="10.2151618"><ele>143.0</ele><time>2026-04-27T14:15:34.75Z</time></trkpt><trkpt lat="45.5347903" lon="10.2149339"><ele>143.0</ele><time>2026-04-27T14:15:35.711Z</time></trkpt><trkpt lat="45.5348277" lon="10.2147128"><ele>143.0</ele><time>2026-04-27T14:15:36.743Z</time></trkpt><trkpt lat="45.5348677" lon="10.2144871"><ele>143.0</ele><time>2026-04-27T14:15:37.73Z</time></trkpt><trkpt lat="45.5348973" lon="10.2142657"><ele>143.0</ele><time>2026-04-27T14:15:38.711Z</time></trkpt><trkpt lat="45.5349318" lon="10.2140485"><ele>143.0</ele><time>2026-04-27T14:15:39.696Z</time></trkpt><trkpt lat="45.5349696" lon="10.2138525"><ele>143.25</ele><time>2026-04-27T14:15:40.704Z</time></trkpt><trkpt lat="45.5350075" lon="10.2136609"><ele>143.5</ele><time>2026-04-27T14:15:41.699Z</time></trkpt><trkpt lat="45.5350483" lon="10.2134739"><ele>143.75</ele><time>2026-04-27T14:15:42.691Z</time></trkpt><trkpt lat="45.53509" lon="10.2132783"><ele>144.0</ele><time>2026-04-27T14:15:43.704Z</time></trkpt><trkpt lat="45.5351282" lon="10.2130913"><ele>144.75</ele><time>2026-04-27T14:15:44.708Z</time></trkpt><trkpt lat="45.535168" lon="10.2129119"><ele>145.5</ele><time>2026-04-27T14:15:45.731Z</time></trkpt><trkpt lat="45.5352159" lon="10.2127385"><ele>146.25</ele><time>2026-04-27T14:15:46.704Z</time></trkpt><trkpt lat="45.5352541" lon="10.2125748"><ele>147.0</ele><time>2026-04-27T14:15:47.704Z</time></trkpt><trkpt lat="45.5352866" lon="10.2124183"><ele>146.2</ele><time>2026-04-27T14:15:48.71Z</time></trkpt><trkpt lat="45.535304" lon="10.2122857"><ele>145.39999999999998</ele><time>2026-04-27T14:15:49.728Z</time></trkpt><trkpt lat="45.5353158" lon="10.2121787"><ele>144.60000000000002</ele><time>2026-04-27T14:15:50.734Z</time></trkpt><trkpt lat="45.535301" lon="10.2120274"><ele>143.8</ele><time>2026-04-27T14:15:52.705Z</time></trkpt><trkpt lat="45.5352525" lon="10.2119309"><ele>143.0</ele><time>2026-04-27T14:15:54.712Z</time></trkpt><trkpt lat="45.535187" lon="10.2118433"><ele>143.0</ele><time>2026-04-27T14:15:56.71Z</time></trkpt><trkpt lat="45.5351367" lon="10.2117594"><ele>143.0</ele><time>2026-04-27T14:15:58.726Z</time></trkpt><trkpt lat="45.5350941" lon="10.2116519"><ele>143.0</ele><time>2026-04-27T14:16:00.709Z</time></trkpt><trkpt lat="45.5350679" lon="10.2114933"><ele>143.0</ele><time>2026-04-27T14:16:02.713Z</time></trkpt><trkpt lat="45.5350404" lon="10.2113293"><ele>143.0</ele><time>2026-04-27T14:16:04.71Z</time></trkpt><trkpt lat="45.5350062" lon="10.2112528"><ele>143.0</ele><time>2026-04-27T14:16:05.716Z</time></trkpt><trkpt lat="45.5349114" lon="10.2111734"><ele>143.0</ele><time>2026-04-27T14:16:07.736Z</time></trkpt><trkpt lat="45.5348404" lon="10.2111359"><ele>143.0</ele><time>2026-04-27T14:16:09.712Z</time></trkpt><trkpt lat="45.5347855" lon="10.2110518"><ele>143.0</ele><time>2026-04-27T14:16:11.709Z</time></trkpt><trkpt lat="45.5347295" lon="10.2109432"><ele>143.0</ele><time>2026-04-27T14:16:13.716Z</time></trkpt><trkpt lat="45.5346821" lon="10.2108076"><ele>143.0</ele><time>2026-04-27T14:16:15.752Z</time></trkpt><trkpt lat="45.5346425" lon="10.2107352"><ele>143.0</ele><time>2026-04-27T14:16:16.72Z</time></trkpt><trkpt lat="45.5345931" lon="10.2106663"><ele>143.0</ele><time>2026-04-27T14:16:17.711Z</time></trkpt><trkpt lat="45.5345279" lon="10.2105846"><ele>143.0</ele><time>2026-04-27T14:16:18.701Z</time></trkpt><trkpt lat="45.5344079" lon="10.210438"><ele>143.0</ele><time>2026-04-27T14:16:20.709Z</time></trkpt><trkpt lat="45.5343389" lon="10.2103637"><ele>143.33333333333331</ele><time>2026-04-27T14:16:21.713Z</time></trkpt><trkpt lat="45.5342679" lon="10.2102881"><ele>143.66666666666666</ele><time>2026-04-27T14:16:22.701Z</time></trkpt><trkpt lat="45.5341973" lon="10.2102075"><ele>144.0</ele><time>2026-04-27T14:16:23.706Z</time></trkpt><trkpt lat="45.5341384" lon="10.2101288"><ele>144.33333333333334</ele><time>2026-04-27T14:16:24.712Z</time></trkpt><trkpt lat="45.5340681" lon="10.2100547"><ele>144.66666666666669</ele><time>2026-04-27T14:16:25.721Z</time></trkpt><trkpt lat="45.5340054" lon="10.2099861"><ele>145.0</ele><time>2026-04-27T14:16:26.698Z</time></trkpt><trkpt lat="45.5339453" lon="10.2099236"><ele>145.0</ele><time>2026-04-27T14:16:27.713Z</time></trkpt><trkpt lat="45.5338675" lon="10.2098627"><ele>145.0</ele><time>2026-04-27T14:16:28.707Z</time></trkpt><trkpt lat="45.5337978" lon="10.2097982"><ele>145.0</ele><time>2026-04-27T14:16:29.697Z</time></trkpt><trkpt lat="45.5337246" lon="10.209721"><ele>145.0</ele><time>2026-04-27T14:16:30.697Z</time></trkpt><trkpt lat="45.5336479" lon="10.2096387"><ele>145.0</ele><time>2026-04-27T14:16:31.715Z</time></trkpt><trkpt lat="45.5335822" lon="10.209574"><ele>145.0</ele><time>2026-04-27T14:16:32.71Z</time></trkpt><trkpt lat="45.5335052" lon="10.2095282"><ele>144.0</ele><time>2026-04-27T14:16:33.712Z</time></trkpt><trkpt lat="45.533422" lon="10.2094907"><ele>143.0</ele><time>2026-04-27T14:16:34.704Z</time></trkpt><trkpt lat="45.5333351" lon="10.209454"><ele>142.0</ele><time>2026-04-27T14:16:35.727Z</time></trkpt><trkpt lat="45.5332661" lon="10.2094289"><ele>141.0</ele><time>2026-04-27T14:16:36.701Z</time></trkpt><trkpt lat="45.5331836" lon="10.2093894"><ele>140.0</ele><time>2026-04-27T14:16:37.708Z</time></trkpt><trkpt lat="45.5329255" lon="10.2092571"><ele>139.4</ele><time>2026-04-27T14:16:40.706Z</time></trkpt><trkpt lat="45.5328176" lon="10.2091906"><ele>138.8</ele><time>2026-04-27T14:16:42.702Z</time></trkpt><trkpt lat="45.532759" lon="10.2091461"><ele>138.2</ele><time>2026-04-27T14:16:45.694Z</time></trkpt><trkpt lat="45.5327002" lon="10.2090873"><ele>137.6</ele><time>2026-04-27T14:16:47.696Z</time></trkpt><trkpt lat="45.5326023" lon="10.209029"><ele>137.0</ele><time>2026-04-27T14:16:49.692Z</time></trkpt><trkpt lat="45.5325227" lon="10.2089742"><ele>137.0</ele><time>2026-04-27T14:16:51.707Z</time></trkpt><trkpt lat="45.5324477" lon="10.2089233"><ele>137.0</ele><time>2026-04-27T14:16:53.714Z</time></trkpt><trkpt lat="45.5323524" lon="10.2088663"><ele>137.0</ele><time>2026-04-27T14:16:55.711Z</time></trkpt><trkpt lat="45.5322663" lon="10.2087811"><ele>137.0</ele><time>2026-04-27T14:16:57.7Z</time></trkpt><trkpt lat="45.5322055" lon="10.2087375"><ele>137.0</ele><time>2026-04-27T14:16:58.704Z</time></trkpt><trkpt lat="45.5321216" lon="10.2086814"><ele>137.0</ele><time>2026-04-27T14:17:00.723Z</time></trkpt><trkpt lat="45.5320447" lon="10.2086395"><ele>137.0</ele><time>2026-04-27T14:17:01.699Z</time></trkpt><trkpt lat="45.5319868" lon="10.2085933"><ele>137.0</ele><time>2026-04-27T14:17:02.699Z</time></trkpt><trkpt lat="45.5319227" lon="10.2085171"><ele>137.0</ele><time>2026-04-27T14:17:04.773Z</time></trkpt><trkpt lat="45.5318699" lon="10.2084317"><ele>137.0</ele><time>2026-04-27T14:17:08.717Z</time></trkpt><trkpt lat="45.5317854" lon="10.2083792"><ele>137.0</ele><time>2026-04-27T14:17:19.727Z</time></trkpt><trkpt lat="45.5317342" lon="10.2083049"><ele>137.0</ele><time>2026-04-27T14:17:25.703Z</time></trkpt><trkpt lat="45.5316905" lon="10.208211"><ele>137.0</ele><time>2026-04-27T14:17:32.713Z</time></trkpt><trkpt lat="45.5316425" lon="10.208081"><ele>137.0</ele><time>2026-04-27T14:17:48.72Z</time></trkpt><trkpt lat="45.5316504" lon="10.2079831"><ele>137.0</ele><time>2026-04-27T14:17:50.705Z</time></trkpt><trkpt lat="45.531659" lon="10.2078636"><ele>137.0</ele><time>2026-04-27T14:17:52.714Z</time></trkpt><trkpt lat="45.5316788" lon="10.2077472"><ele>137.0</ele><time>2026-04-27T14:17:54.728Z</time></trkpt><trkpt lat="45.5317025" lon="10.2076458"><ele>137.0</ele><time>2026-04-27T14:17:56.712Z</time></trkpt><trkpt lat="45.531736" lon="10.207526"><ele>137.0</ele><time>2026-04-27T14:17:58.713Z</time></trkpt><trkpt lat="45.5317833" lon="10.2073967"><ele>137.0</ele><time>2026-04-27T14:18:00.712Z</time></trkpt><trkpt lat="45.531834" lon="10.2072579"><ele>137.0</ele><time>2026-04-27T14:18:02.718Z</time></trkpt><trkpt lat="45.5318733" lon="10.2071407"><ele>137.0</ele><time>2026-04-27T14:18:04.709Z</time></trkpt><trkpt lat="45.5318971" lon="10.2069875"><ele>136.83333333333331</ele><time>2026-04-27T14:18:06.738Z</time></trkpt><trkpt lat="45.5319301" lon="10.2068952"><ele>136.66666666666666</ele><time>2026-04-27T14:18:07.718Z</time></trkpt><trkpt lat="45.5319728" lon="10.2068021"><ele>136.5</ele><time>2026-04-27T14:18:08.702Z</time></trkpt><trkpt lat="45.5320179" lon="10.2066935"><ele>136.33333333333334</ele><time>2026-04-27T14:18:09.695Z</time></trkpt><trkpt lat="45.5320566" lon="10.2066037"><ele>136.16666666666669</ele><time>2026-04-27T14:18:10.709Z</time></trkpt><trkpt lat="45.5320956" lon="10.2065186"><ele>136.0</ele><time>2026-04-27T14:18:11.707Z</time></trkpt><trkpt lat="45.5321373" lon="10.2064293"><ele>136.0</ele><time>2026-04-27T14:18:12.7Z</time></trkpt><trkpt lat="45.5321698" lon="10.2063266"><ele>136.0</ele><time>2026-04-27T14:18:13.706Z</time></trkpt><trkpt lat="45.5322035" lon="10.2062146"><ele>136.0</ele><time>2026-04-27T14:18:14.721Z</time></trkpt><trkpt lat="45.5322359" lon="10.2061005"><ele>136.0</ele><time>2026-04-27T14:18:15.706Z</time></trkpt><trkpt lat="45.5322731" lon="10.2059772"><ele>136.0</ele><time>2026-04-27T14:18:16.715Z</time></trkpt><trkpt lat="45.5323064" lon="10.205852"><ele>136.0</ele><time>2026-04-27T14:18:17.709Z</time></trkpt><trkpt lat="45.5323339" lon="10.2057013"><ele>136.0</ele><time>2026-04-27T14:18:18.715Z</time></trkpt><trkpt lat="45.5323431" lon="10.2055458"><ele>136.0</ele><time>2026-04-27T14:18:19.697Z</time></trkpt><trkpt lat="45.5323515" lon="10.2054063"><ele>136.0</ele><time>2026-04-27T14:18:20.702Z</time></trkpt><trkpt lat="45.5323704" lon="10.2052708"><ele>136.0</ele><time>2026-04-27T14:18:21.706Z</time></trkpt><trkpt lat="45.5323804" lon="10.2051384"><ele>136.0</ele><time>2026-04-27T14:18:22.704Z</time></trkpt><trkpt lat="45.5323977" lon="10.2049988"><ele>136.0</ele><time>2026-04-27T14:18:23.717Z</time></trkpt><trkpt lat="45.5324232" lon="10.2048543"><ele>136.0</ele><time>2026-04-27T14:18:24.703Z</time></trkpt><trkpt lat="45.5324475" lon="10.2046897"><ele>136.0</ele><time>2026-04-27T14:18:25.713Z</time></trkpt><trkpt lat="45.532477" lon="10.2045166"><ele>136.0</ele><time>2026-04-27T14:18:26.713Z</time></trkpt><trkpt lat="45.5324968" lon="10.2043538"><ele>136.4</ele><time>2026-04-27T14:18:27.709Z</time></trkpt><trkpt lat="45.5325162" lon="10.2041997"><ele>136.8</ele><time>2026-04-27T14:18:28.705Z</time></trkpt><trkpt lat="45.5325356" lon="10.2040539"><ele>137.20000000000002</ele><time>2026-04-27T14:18:29.702Z</time></trkpt><trkpt lat="45.5325548" lon="10.2039139"><ele>137.6</ele><time>2026-04-27T14:18:30.712Z</time></trkpt><trkpt lat="45.5325795" lon="10.2037717"><ele>138.0</ele><time>2026-04-27T14:18:31.701Z</time></trkpt><trkpt lat="45.5326013" lon="10.2036249"><ele>138.0</ele><time>2026-04-27T14:18:32.705Z</time></trkpt><trkpt lat="45.5326159" lon="10.2034878"><ele>138.0</ele><time>2026-04-27T14:18:33.703Z</time></trkpt><trkpt lat="45.5326356" lon="10.2033527"><ele>138.0</ele><time>2026-04-27T14:18:34.715Z</time></trkpt><trkpt lat="45.5326546" lon="10.2032159"><ele>138.0</ele><time>2026-04-27T14:18:35.713Z</time></trkpt><trkpt lat="45.5326731" lon="10.2030822"><ele>138.0</ele><time>2026-04-27T14:18:36.704Z</time></trkpt><trkpt lat="45.532694" lon="10.2029409"><ele>137.8</ele><time>2026-04-27T14:18:37.699Z</time></trkpt><trkpt lat="45.5327151" lon="10.2027993"><ele>137.60000000000002</ele><time>2026-04-27T14:18:38.717Z</time></trkpt><trkpt lat="45.532736" lon="10.2026633"><ele>137.39999999999998</ele><time>2026-04-27T14:18:39.714Z</time></trkpt><trkpt lat="45.5327525" lon="10.2025244"><ele>137.2</ele><time>2026-04-27T14:18:40.698Z</time></trkpt><trkpt lat="45.5327678" lon="10.2023922"><ele>137.0</ele><time>2026-04-27T14:18:41.699Z</time></trkpt><trkpt lat="45.5327788" lon="10.2022558"><ele>136.79999999999998</ele><time>2026-04-27T14:18:42.735Z</time></trkpt><trkpt lat="45.5327793" lon="10.2021109"><ele>136.6</ele><time>2026-04-27T14:18:43.711Z</time></trkpt><trkpt lat="45.5327762" lon="10.2019683"><ele>136.39999999999998</ele><time>2026-04-27T14:18:44.717Z</time></trkpt><trkpt lat="45.532778" lon="10.2018304"><ele>136.2</ele><time>2026-04-27T14:18:45.7Z</time></trkpt><trkpt lat="45.5327764" lon="10.2017026"><ele>136.0</ele><time>2026-04-27T14:18:46.725Z</time></trkpt><trkpt lat="45.5327749" lon="10.2015892"><ele>135.83333333333334</ele><time>2026-04-27T14:18:47.697Z</time></trkpt><trkpt lat="45.5327737" lon="10.201485"><ele>135.66666666666669</ele><time>2026-04-27T14:18:48.708Z</time></trkpt><trkpt lat="45.5327735" lon="10.2013872"><ele>135.5</ele><time>2026-04-27T14:18:49.695Z</time></trkpt><trkpt lat="45.5327762" lon="10.2012958"><ele>135.33333333333334</ele><time>2026-04-27T14:18:50.708Z</time></trkpt><trkpt lat="45.5327746" lon="10.2011531"><ele>135.16666666666666</ele><time>2026-04-27T14:18:52.699Z</time></trkpt><trkpt lat="45.5327607" lon="10.2010344"><ele>135.0</ele><time>2026-04-27T14:18:54.704Z</time></trkpt><trkpt lat="45.5327439" lon="10.2009426"><ele>135.0</ele><time>2026-04-27T14:18:56.701Z</time></trkpt><trkpt lat="45.5327189" lon="10.2008296"><ele>135.0</ele><time>2026-04-27T14:19:20.719Z</time></trkpt><trkpt lat="45.532656" lon="10.2007313"><ele>135.0</ele><time>2026-04-27T14:19:21.73Z</time></trkpt><trkpt lat="45.5325686" lon="10.200664"><ele>135.0</ele><time>2026-04-27T14:19:22.707Z</time></trkpt><trkpt lat="45.532469" lon="10.200615"><ele>135.0</ele><time>2026-04-27T14:19:23.707Z</time></trkpt><trkpt lat="45.532367" lon="10.2005675"><ele>134.75</ele><time>2026-04-27T14:19:24.702Z</time></trkpt><trkpt lat="45.5322625" lon="10.2005209"><ele>134.5</ele><time>2026-04-27T14:19:25.694Z</time></trkpt><trkpt lat="45.5321545" lon="10.2004774"><ele>134.25</ele><time>2026-04-27T14:19:26.697Z</time></trkpt><trkpt lat="45.5320383" lon="10.2004304"><ele>134.0</ele><time>2026-04-27T14:19:27.714Z</time></trkpt><trkpt lat="45.531907" lon="10.2003716"><ele>133.5</ele><time>2026-04-27T14:19:28.696Z</time></trkpt><trkpt lat="45.531773" lon="10.2003168"><ele>133.0</ele><time>2026-04-27T14:19:29.708Z</time></trkpt><trkpt lat="45.5316355" lon="10.2002591"><ele>132.5</ele><time>2026-04-27T14:19:30.698Z</time></trkpt><trkpt lat="45.5314964" lon="10.2001929"><ele>132.0</ele><time>2026-04-27T14:19:31.703Z</time></trkpt><trkpt lat="45.5313637" lon="10.2001393"><ele>132.0</ele><time>2026-04-27T14:19:32.704Z</time></trkpt><trkpt lat="45.5312383" lon="10.2000919"><ele>132.0</ele><time>2026-04-27T14:19:33.709Z</time></trkpt><trkpt lat="45.5311145" lon="10.2000534"><ele>132.0</ele><time>2026-04-27T14:19:34.719Z</time></trkpt><trkpt lat="45.5310025" lon="10.2000239"><ele>132.0</ele><time>2026-04-27T14:19:35.712Z</time></trkpt><trkpt lat="45.5308988" lon="10.2000032"><ele>131.79999999999998</ele><time>2026-04-27T14:19:36.701Z</time></trkpt><trkpt lat="45.5307948" lon="10.1999776"><ele>131.6</ele><time>2026-04-27T14:19:37.682Z</time></trkpt><trkpt lat="45.5306924" lon="10.1999471"><ele>131.39999999999998</ele><time>2026-04-27T14:19:38.753Z</time></trkpt><trkpt lat="45.5305917" lon="10.1999038"><ele>131.2</ele><time>2026-04-27T14:19:39.707Z</time></trkpt><trkpt lat="45.5304934" lon="10.1998603"><ele>131.0</ele><time>2026-04-27T14:19:40.701Z</time></trkpt><trkpt lat="45.5303953" lon="10.1998069"><ele>131.25</ele><time>2026-04-27T14:19:41.701Z</time></trkpt><trkpt lat="45.530294" lon="10.1997426"><ele>131.5</ele><time>2026-04-27T14:19:42.709Z</time></trkpt><trkpt lat="45.5301826" lon="10.1996756"><ele>131.75</ele><time>2026-04-27T14:19:43.698Z</time></trkpt><trkpt lat="45.5300611" lon="10.1996257"><ele>132.0</ele><time>2026-04-27T14:19:44.713Z</time></trkpt><trkpt lat="45.5299451" lon="10.1995805"><ele>132.0</ele><time>2026-04-27T14:19:45.71Z</time></trkpt><trkpt lat="45.5298364" lon="10.1995375"><ele>132.0</ele><time>2026-04-27T14:19:46.723Z</time></trkpt><trkpt lat="45.5297237" lon="10.1994926"><ele>132.0</ele><time>2026-04-27T14:19:47.699Z</time></trkpt><trkpt lat="45.5296204" lon="10.1994489"><ele>132.0</ele><time>2026-04-27T14:19:48.704Z</time></trkpt><trkpt lat="45.5295301" lon="10.1994109"><ele>132.0</ele><time>2026-04-27T14:19:49.708Z</time></trkpt><trkpt lat="45.5294592" lon="10.1993754"><ele>132.0</ele><time>2026-04-27T14:19:50.71Z</time></trkpt><trkpt lat="45.5293721" lon="10.1992979"><ele>132.0</ele><time>2026-04-27T14:19:52.703Z</time></trkpt><trkpt lat="45.5293168" lon="10.1991839"><ele>132.0</ele><time>2026-04-27T14:19:54.697Z</time></trkpt><trkpt lat="45.5292312" lon="10.1991183"><ele>132.0</ele><time>2026-04-27T14:19:56.707Z</time></trkpt><trkpt lat="45.5291609" lon="10.1991049"><ele>132.0</ele><time>2026-04-27T14:19:59.701Z</time></trkpt><trkpt lat="45.5290675" lon="10.1990858"><ele>132.0</ele><time>2026-04-27T14:28:58.695Z</time></trkpt><trkpt lat="45.5289976" lon="10.199092"><ele>132.0</ele><time>2026-04-27T14:29:00.71Z</time></trkpt><trkpt lat="45.5288456" lon="10.1991116"><ele>132.0</ele><time>2026-04-27T14:29:11.703Z</time></trkpt><trkpt lat="45.5287403" lon="10.1990752"><ele>132.0</ele><time>2026-04-27T14:29:12.708Z</time></trkpt><trkpt lat="45.5286156" lon="10.1990322"><ele>131.25</ele><time>2026-04-27T14:29:13.709Z</time></trkpt><trkpt lat="45.5284876" lon="10.198997"><ele>130.5</ele><time>2026-04-27T14:29:14.71Z</time></trkpt><trkpt lat="45.5283591" lon="10.1989618"><ele>129.75</ele><time>2026-04-27T14:29:15.726Z</time></trkpt><trkpt lat="45.5282229" lon="10.1989176"><ele>129.0</ele><time>2026-04-27T14:29:16.698Z</time></trkpt><trkpt lat="45.5280734" lon="10.1988753"><ele>129.0</ele><time>2026-04-27T14:29:17.71Z</time></trkpt><trkpt lat="45.5279259" lon="10.1988192"><ele>129.0</ele><time>2026-04-27T14:29:18.698Z</time></trkpt><trkpt lat="45.5277757" lon="10.1987624"><ele>129.0</ele><time>2026-04-27T14:29:19.715Z</time></trkpt><trkpt lat="45.5276457" lon="10.1986996"><ele>129.0</ele><time>2026-04-27T14:29:20.7Z</time></trkpt><trkpt lat="45.527544" lon="10.1986336"><ele>129.4</ele><time>2026-04-27T14:29:21.716Z</time></trkpt><trkpt lat="45.5274704" lon="10.1985584"><ele>129.8</ele><time>2026-04-27T14:29:22.696Z</time></trkpt><trkpt lat="45.5274166" lon="10.1984755"><ele>130.2</ele><time>2026-04-27T14:29:23.722Z</time></trkpt><trkpt lat="45.5273718" lon="10.1984045"><ele>130.6</ele><time>2026-04-27T14:29:24.718Z</time></trkpt><trkpt lat="45.527289" lon="10.1982725"><ele>131.0</ele><time>2026-04-27T14:29:26.697Z</time></trkpt><trkpt lat="45.5272146" lon="10.1981418"><ele>131.0</ele><time>2026-04-27T14:29:28.718Z</time></trkpt><trkpt lat="45.5271676" lon="10.1979938"><ele>131.0</ele><time>2026-04-27T14:29:30.72Z</time></trkpt><trkpt lat="45.527125" lon="10.1978752"><ele>131.0</ele><time>2026-04-27T14:29:32.702Z</time></trkpt><trkpt lat="45.5270632" lon="10.1978306"><ele>131.0</ele><time>2026-04-27T14:29:34.711Z</time></trkpt><trkpt lat="45.5269801" lon="10.1979082"><ele>131.0</ele><time>2026-04-27T14:29:36.717Z</time></trkpt><trkpt lat="45.5269415" lon="10.1979799"><ele>131.0</ele><time>2026-04-27T14:29:37.703Z</time></trkpt><trkpt lat="45.5268769" lon="10.1980481"><ele>130.83333333333331</ele><time>2026-04-27T14:29:38.731Z</time></trkpt><trkpt lat="45.5268069" lon="10.1981079"><ele>130.66666666666666</ele><time>2026-04-27T14:29:39.709Z</time></trkpt><trkpt lat="45.5267358" lon="10.1981562"><ele>130.5</ele><time>2026-04-27T14:29:40.712Z</time></trkpt><trkpt lat="45.5266589" lon="10.1981901"><ele>130.33333333333334</ele><time>2026-04-27T14:29:41.714Z</time></trkpt><trkpt lat="45.5265876" lon="10.1982113"><ele>130.16666666666669</ele><time>2026-04-27T14:29:42.709Z</time></trkpt><trkpt lat="45.5265162" lon="10.1982185"><ele>130.0</ele><time>2026-04-27T14:29:43.713Z</time></trkpt><trkpt lat="45.5264492" lon="10.1982084"><ele>130.0</ele><time>2026-04-27T14:29:44.712Z</time></trkpt><trkpt lat="45.5263761" lon="10.1981906"><ele>130.0</ele><time>2026-04-27T14:29:45.703Z</time></trkpt><trkpt lat="45.5262941" lon="10.1981653"><ele>130.0</ele><time>2026-04-27T14:29:46.704Z</time></trkpt><trkpt lat="45.5262034" lon="10.1981291"><ele>130.0</ele><time>2026-04-27T14:29:47.708Z</time></trkpt><trkpt lat="45.5261083" lon="10.1980973"><ele>130.0</ele><time>2026-04-27T14:29:48.733Z</time></trkpt><trkpt lat="45.5260089" lon="10.1980571"><ele>130.8</ele><time>2026-04-27T14:29:49.735Z</time></trkpt><trkpt lat="45.5258999" lon="10.1980185"><ele>131.6</ele><time>2026-04-27T14:29:50.698Z</time></trkpt><trkpt lat="45.5257918" lon="10.1979761"><ele>132.4</ele><time>2026-04-27T14:29:51.72Z</time></trkpt><trkpt lat="45.525685" lon="10.1979322"><ele>133.2</ele><time>2026-04-27T14:29:52.695Z</time></trkpt><trkpt lat="45.5255818" lon="10.1978997"><ele>134.0</ele><time>2026-04-27T14:29:53.714Z</time></trkpt><trkpt lat="45.5254929" lon="10.1978685"><ele>134.0</ele><time>2026-04-27T14:29:54.721Z</time></trkpt><trkpt lat="45.5254086" lon="10.197833"><ele>134.0</ele><time>2026-04-27T14:29:55.706Z</time></trkpt><trkpt lat="45.5253297" lon="10.1978242"><ele>134.0</ele><time>2026-04-27T14:29:56.718Z</time></trkpt><trkpt lat="45.5252579" lon="10.1977952"><ele>134.0</ele><time>2026-04-27T14:29:57.729Z</time></trkpt><trkpt lat="45.5251942" lon="10.1977689"><ele>134.0</ele><time>2026-04-27T14:29:58.713Z</time></trkpt><trkpt lat="45.5251292" lon="10.1977413"><ele>134.0</ele><time>2026-04-27T14:29:59.702Z</time></trkpt><trkpt lat="45.5250209" lon="10.1976951"><ele>133.6</ele><time>2026-04-27T14:30:01.717Z</time></trkpt><trkpt lat="45.524942" lon="10.1976307"><ele>133.2</ele><time>2026-04-27T14:30:03.726Z</time></trkpt><trkpt lat="45.524846" lon="10.1975397"><ele>132.79999999999998</ele><time>2026-04-27T14:30:05.709Z</time></trkpt><trkpt lat="45.5247645" lon="10.1975376"><ele>132.4</ele><time>2026-04-27T14:30:06.714Z</time></trkpt><trkpt lat="45.5246672" lon="10.1975397"><ele>132.0</ele><time>2026-04-27T14:30:07.723Z</time></trkpt><trkpt lat="45.5245599" lon="10.1974984"><ele>131.75</ele><time>2026-04-27T14:30:08.705Z</time></trkpt><trkpt lat="45.5244362" lon="10.1974476"><ele>131.5</ele><time>2026-04-27T14:30:09.708Z</time></trkpt><trkpt lat="45.5243002" lon="10.1973918"><ele>131.25</ele><time>2026-04-27T14:30:10.713Z</time></trkpt><trkpt lat="45.5241754" lon="10.1973409"><ele>131.0</ele><time>2026-04-27T14:30:11.708Z</time></trkpt><trkpt lat="45.5240607" lon="10.1972916"><ele>130.66666666666666</ele><time>2026-04-27T14:30:12.7Z</time></trkpt><trkpt lat="45.5239651" lon="10.1972513"><ele>130.33333333333331</ele><time>2026-04-27T14:30:13.711Z</time></trkpt><trkpt lat="45.5238833" lon="10.1972165"><ele>130.0</ele><time>2026-04-27T14:30:14.704Z</time></trkpt><trkpt lat="45.5238127" lon="10.1971859"><ele>129.66666666666666</ele><time>2026-04-27T14:30:15.716Z</time></trkpt><trkpt lat="45.5237476" lon="10.1971633"><ele>129.33333333333334</ele><time>2026-04-27T14:30:16.719Z</time></trkpt><trkpt lat="45.5236803" lon="10.1971467"><ele>129.0</ele><time>2026-04-27T14:30:17.747Z</time></trkpt><trkpt lat="45.5236119" lon="10.197148"><ele>128.66666666666666</ele><time>2026-04-27T14:30:18.737Z</time></trkpt><trkpt lat="45.5235333" lon="10.1971392"><ele>128.33333333333334</ele><time>2026-04-27T14:30:19.696Z</time></trkpt><trkpt lat="45.5234482" lon="10.1970998"><ele>128.0</ele><time>2026-04-27T14:30:20.702Z</time></trkpt><trkpt lat="45.5233725" lon="10.1970355"><ele>127.66666666666667</ele><time>2026-04-27T14:30:21.706Z</time></trkpt><trkpt lat="45.5233082" lon="10.1969736"><ele>127.33333333333334</ele><time>2026-04-27T14:30:22.705Z</time></trkpt><trkpt lat="45.5232561" lon="10.1969185"><ele>127.0</ele><time>2026-04-27T14:30:23.714Z</time></trkpt><trkpt lat="45.523165" lon="10.1967939"><ele>127.0</ele><time>2026-04-27T14:30:25.717Z</time></trkpt><trkpt lat="45.5230474" lon="10.1967851"><ele>126.99999999999999</ele><time>2026-04-27T14:30:27.706Z</time></trkpt><trkpt lat="45.5229621" lon="10.1968079"><ele>126.99999999999999</ele><time>2026-04-27T14:30:28.723Z</time></trkpt><trkpt lat="45.5228663" lon="10.1968"><ele>127.0</ele><time>2026-04-27T14:30:29.707Z</time></trkpt><trkpt lat="45.5227382" lon="10.1967435"><ele>127.0</ele><time>2026-04-27T14:30:30.702Z</time></trkpt><trkpt lat="45.5225869" lon="10.1966802"><ele>127.33333333333334</ele><time>2026-04-27T14:30:31.701Z</time></trkpt><trkpt lat="45.5224254" lon="10.1966081"><ele>127.66666666666666</ele><time>2026-04-27T14:30:32.689Z</time></trkpt><trkpt lat="45.5222703" lon="10.1965416"><ele>128.0</ele><time>2026-04-27T14:30:33.689Z</time></trkpt><trkpt lat="45.5221392" lon="10.1964632"><ele>127.5</ele><time>2026-04-27T14:30:34.694Z</time></trkpt><trkpt lat="45.5220221" lon="10.1963671"><ele>127.0</ele><time>2026-04-27T14:30:35.692Z</time></trkpt><trkpt lat="45.5219013" lon="10.1962549"><ele>126.5</ele><time>2026-04-27T14:30:36.688Z</time></trkpt><trkpt lat="45.5217969" lon="10.1961502"><ele>126.0</ele><time>2026-04-27T14:30:37.701Z</time></trkpt><trkpt lat="45.5217134" lon="10.1960279"><ele>126.0</ele><time>2026-04-27T14:30:38.701Z</time></trkpt><trkpt lat="45.5216548" lon="10.1958869"><ele>126.0</ele><time>2026-04-27T14:30:39.705Z</time></trkpt><trkpt lat="45.5216132" lon="10.1957415"><ele>126.0</ele><time>2026-04-27T14:30:40.705Z</time></trkpt><trkpt lat="45.5215772" lon="10.1955993"><ele>126.0</ele><time>2026-04-27T14:30:41.702Z</time></trkpt><trkpt lat="45.5215423" lon="10.1954642"><ele>126.0</ele><time>2026-04-27T14:30:42.711Z</time></trkpt><trkpt lat="45.5215206" lon="10.1953437"><ele>126.16666666666667</ele><time>2026-04-27T14:30:43.699Z</time></trkpt><trkpt lat="45.5215136" lon="10.1952362"><ele>126.33333333333334</ele><time>2026-04-27T14:30:44.713Z</time></trkpt><trkpt lat="45.5215175" lon="10.1951293"><ele>126.5</ele><time>2026-04-27T14:30:45.694Z</time></trkpt><trkpt lat="45.5215251" lon="10.1950301"><ele>126.66666666666667</ele><time>2026-04-27T14:30:46.702Z</time></trkpt><trkpt lat="45.5215117" lon="10.1948789"><ele>126.83333333333334</ele><time>2026-04-27T14:30:48.7Z</time></trkpt><trkpt lat="45.5214178" lon="10.1947815"><ele>127.0</ele><time>2026-04-27T14:30:50.702Z</time></trkpt><trkpt lat="45.5213482" lon="10.1947888"><ele>127.0</ele><time>2026-04-27T14:30:51.709Z</time></trkpt><trkpt lat="45.5212737" lon="10.1948301"><ele>126.99999999999999</ele><time>2026-04-27T14:30:52.689Z</time></trkpt><trkpt lat="45.5211877" lon="10.1949161"><ele>126.99999999999999</ele><time>2026-04-27T14:30:53.689Z</time></trkpt><trkpt lat="45.5210929" lon="10.194983"><ele>127.0</ele><time>2026-04-27T14:30:54.699Z</time></trkpt><trkpt lat="45.5210032" lon="10.1949991"><ele>127.0</ele><time>2026-04-27T14:30:55.715Z</time></trkpt><trkpt lat="45.5209034" lon="10.1949719"><ele>127.0</ele><time>2026-04-27T14:30:56.699Z</time></trkpt><trkpt lat="45.5207907" lon="10.1949478"><ele>126.99999999999999</ele><time>2026-04-27T14:30:57.692Z</time></trkpt><trkpt lat="45.5206841" lon="10.1949262"><ele>126.99999999999999</ele><time>2026-04-27T14:30:58.699Z</time></trkpt><trkpt lat="45.5205805" lon="10.1949027"><ele>127.0</ele><time>2026-04-27T14:30:59.693Z</time></trkpt><trkpt lat="45.5204798" lon="10.1948589"><ele>127.0</ele><time>2026-04-27T14:31:00.71Z</time></trkpt><trkpt lat="45.5203835" lon="10.1947679"><ele>126.5</ele><time>2026-04-27T14:31:01.684Z</time></trkpt><trkpt lat="45.5203032" lon="10.1946335"><ele>126.0</ele><time>2026-04-27T14:31:02.704Z</time></trkpt><trkpt lat="45.5202534" lon="10.1944694"><ele>125.5</ele><time>2026-04-27T14:31:03.697Z</time></trkpt><trkpt lat="45.5202127" lon="10.1943061"><ele>125.0</ele><time>2026-04-27T14:31:04.699Z</time></trkpt><trkpt lat="45.5202208" lon="10.1941111"><ele>125.33333333333333</ele><time>2026-04-27T14:31:05.721Z</time></trkpt><trkpt lat="45.5202686" lon="10.1939136"><ele>125.66666666666666</ele><time>2026-04-27T14:31:06.718Z</time></trkpt><trkpt lat="45.5203334" lon="10.1936966"><ele>126.0</ele><time>2026-04-27T14:31:07.7Z</time></trkpt><trkpt lat="45.5203997" lon="10.1934544"><ele>125.66666666666666</ele><time>2026-04-27T14:31:08.718Z</time></trkpt><trkpt lat="45.5204591" lon="10.1932287"><ele>125.33333333333333</ele><time>2026-04-27T14:31:09.709Z</time></trkpt><trkpt lat="45.5205211" lon="10.1929792"><ele>125.0</ele><time>2026-04-27T14:31:10.716Z</time></trkpt><trkpt lat="45.5205793" lon="10.1927189"><ele>125.0</ele><time>2026-04-27T14:31:11.707Z</time></trkpt><trkpt lat="45.520638" lon="10.1924794"><ele>125.0</ele><time>2026-04-27T14:31:12.717Z</time></trkpt><trkpt lat="45.5206977" lon="10.1922363"><ele>125.0</ele><time>2026-04-27T14:31:13.704Z</time></trkpt><trkpt lat="45.5207564" lon="10.191997"><ele>125.33333333333333</ele><time>2026-04-27T14:31:14.707Z</time></trkpt><trkpt lat="45.5208062" lon="10.1917679"><ele>125.66666666666666</ele><time>2026-04-27T14:31:15.709Z</time></trkpt><trkpt lat="45.5208604" lon="10.1915242"><ele>126.0</ele><time>2026-04-27T14:31:16.72Z</time></trkpt><trkpt lat="45.5209054" lon="10.1912779"><ele>126.0</ele><time>2026-04-27T14:31:17.745Z</time></trkpt><trkpt lat="45.5209575" lon="10.1910242"><ele>126.0</ele><time>2026-04-27T14:31:18.697Z</time></trkpt><trkpt lat="45.5210205" lon="10.1907599"><ele>126.0</ele><time>2026-04-27T14:31:19.711Z</time></trkpt><trkpt lat="45.5210862" lon="10.1904974"><ele>126.0</ele><time>2026-04-27T14:31:20.71Z</time></trkpt><trkpt lat="45.5211517" lon="10.1902317"><ele>126.0</ele><time>2026-04-27T14:31:21.701Z</time></trkpt><trkpt lat="45.521214" lon="10.1899653"><ele>126.0</ele><time>2026-04-27T14:31:22.698Z</time></trkpt><trkpt lat="45.5212798" lon="10.1897006"><ele>125.0</ele><time>2026-04-27T14:31:23.705Z</time></trkpt><trkpt lat="45.5213434" lon="10.1894313"><ele>124.0</ele><time>2026-04-27T14:31:24.723Z</time></trkpt><trkpt lat="45.5214104" lon="10.1891573"><ele>123.0</ele><time>2026-04-27T14:31:25.7Z</time></trkpt><trkpt lat="45.5214731" lon="10.1888784"><ele>123.0</ele><time>2026-04-27T14:31:26.717Z</time></trkpt><trkpt lat="45.5215415" lon="10.1885947"><ele>123.0</ele><time>2026-04-27T14:31:27.695Z</time></trkpt><trkpt lat="45.5216115" lon="10.1883148"><ele>123.0</ele><time>2026-04-27T14:31:28.714Z</time></trkpt><trkpt lat="45.5216816" lon="10.1880211"><ele>123.0</ele><time>2026-04-27T14:31:29.708Z</time></trkpt><trkpt lat="45.5217409" lon="10.1877233"><ele>123.0</ele><time>2026-04-27T14:31:30.706Z</time></trkpt><trkpt lat="45.5217974" lon="10.1874264"><ele>123.0</ele><time>2026-04-27T14:31:31.729Z</time></trkpt><trkpt lat="45.5218609" lon="10.1871431"><ele>122.66666666666666</ele><time>2026-04-27T14:31:32.728Z</time></trkpt><trkpt lat="45.5219278" lon="10.1868786"><ele>122.33333333333333</ele><time>2026-04-27T14:31:33.733Z</time></trkpt><trkpt lat="45.5219942" lon="10.18663"><ele>122.0</ele><time>2026-04-27T14:31:34.721Z</time></trkpt><trkpt lat="45.5220584" lon="10.1863772"><ele>122.33333333333333</ele><time>2026-04-27T14:31:35.712Z</time></trkpt><trkpt lat="45.5221249" lon="10.1861263"><ele>122.66666666666666</ele><time>2026-04-27T14:31:36.708Z</time></trkpt><trkpt lat="45.5221888" lon="10.1858745"><ele>123.0</ele><time>2026-04-27T14:31:37.71Z</time></trkpt><trkpt lat="45.5222562" lon="10.1856324"><ele>123.0</ele><time>2026-04-27T14:31:38.7Z</time></trkpt><trkpt lat="45.5223174" lon="10.1853836"><ele>123.0</ele><time>2026-04-27T14:31:39.699Z</time></trkpt><trkpt lat="45.5223741" lon="10.1851277"><ele>123.0</ele><time>2026-04-27T14:31:40.716Z</time></trkpt><trkpt lat="45.5224342" lon="10.1848813"><ele>123.0</ele><time>2026-04-27T14:31:41.704Z</time></trkpt><trkpt lat="45.5224931" lon="10.1846207"><ele>123.0</ele><time>2026-04-27T14:31:42.706Z</time></trkpt><trkpt lat="45.5225453" lon="10.1843543"><ele>123.0</ele><time>2026-04-27T14:31:43.704Z</time></trkpt><trkpt lat="45.5226103" lon="10.1840893"><ele>123.0</ele><time>2026-04-27T14:31:44.716Z</time></trkpt><trkpt lat="45.5226715" lon="10.1838291"><ele>123.0</ele><time>2026-04-27T14:31:45.712Z</time></trkpt><trkpt lat="45.522734" lon="10.1835664"><ele>123.0</ele><time>2026-04-27T14:31:46.707Z</time></trkpt><trkpt lat="45.5228001" lon="10.1833123"><ele>123.33333333333334</ele><time>2026-04-27T14:31:47.72Z</time></trkpt><trkpt lat="45.5228695" lon="10.1830426"><ele>123.66666666666667</ele><time>2026-04-27T14:31:48.703Z</time></trkpt><trkpt lat="45.5229406" lon="10.1827805"><ele>124.0</ele><time>2026-04-27T14:31:49.704Z</time></trkpt><trkpt lat="45.5230143" lon="10.1825108"><ele>124.33333333333334</ele><time>2026-04-27T14:31:50.71Z</time></trkpt><trkpt lat="45.5231049" lon="10.182247"><ele>124.66666666666666</ele><time>2026-04-27T14:31:51.718Z</time></trkpt><trkpt lat="45.5231854" lon="10.1819888"><ele>125.0</ele><time>2026-04-27T14:31:52.704Z</time></trkpt><trkpt lat="45.5232698" lon="10.1817346"><ele>125.0</ele><time>2026-04-27T14:31:53.698Z</time></trkpt><trkpt lat="45.5233539" lon="10.1814819"><ele>125.0</ele><time>2026-04-27T14:31:54.704Z</time></trkpt><trkpt lat="45.5234501" lon="10.1812362"><ele>125.0</ele><time>2026-04-27T14:31:55.72Z</time></trkpt><trkpt lat="45.5235451" lon="10.180991"><ele>125.0</ele><time>2026-04-27T14:31:56.696Z</time></trkpt><trkpt lat="45.5236397" lon="10.1807498"><ele>125.0</ele><time>2026-04-27T14:31:57.704Z</time></trkpt><trkpt lat="45.5237339" lon="10.1805135"><ele>125.0</ele><time>2026-04-27T14:31:58.703Z</time></trkpt><trkpt lat="45.5238316" lon="10.1802752"><ele>125.0</ele><time>2026-04-27T14:31:59.699Z</time></trkpt><trkpt lat="45.5239319" lon="10.1800236"><ele>125.0</ele><time>2026-04-27T14:32:00.697Z</time></trkpt><trkpt lat="45.5240321" lon="10.1797726"><ele>125.0</ele><time>2026-04-27T14:32:01.707Z</time></trkpt><trkpt lat="45.5241294" lon="10.1795086"><ele>125.0</ele><time>2026-04-27T14:32:02.708Z</time></trkpt><trkpt lat="45.5242288" lon="10.1792546"><ele>125.0</ele><time>2026-04-27T14:32:03.711Z</time></trkpt><trkpt lat="45.5243368" lon="10.179006"><ele>125.0</ele><time>2026-04-27T14:32:04.712Z</time></trkpt><trkpt lat="45.5244343" lon="10.1787453"><ele>125.0</ele><time>2026-04-27T14:32:05.705Z</time></trkpt><trkpt lat="45.5245334" lon="10.178488"><ele>125.0</ele><time>2026-04-27T14:32:06.7Z</time></trkpt><trkpt lat="45.5246392" lon="10.178235"><ele>125.0</ele><time>2026-04-27T14:32:07.697Z</time></trkpt><trkpt lat="45.5247441" lon="10.1779766"><ele>125.33333333333333</ele><time>2026-04-27T14:32:08.711Z</time></trkpt><trkpt lat="45.5248448" lon="10.177722"><ele>125.66666666666666</ele><time>2026-04-27T14:32:09.715Z</time></trkpt><trkpt lat="45.5249423" lon="10.1774685"><ele>126.0</ele><time>2026-04-27T14:32:10.702Z</time></trkpt><trkpt lat="45.5250415" lon="10.1772173"><ele>126.33333333333334</ele><time>2026-04-27T14:32:11.715Z</time></trkpt><trkpt lat="45.5251364" lon="10.1769723"><ele>126.66666666666667</ele><time>2026-04-27T14:32:12.708Z</time></trkpt><trkpt lat="45.5252391" lon="10.1767266"><ele>127.0</ele><time>2026-04-27T14:32:13.702Z</time></trkpt><trkpt lat="45.5253442" lon="10.1764799"><ele>126.66666666666667</ele><time>2026-04-27T14:32:14.706Z</time></trkpt><trkpt lat="45.5254538" lon="10.1762277"><ele>126.33333333333334</ele><time>2026-04-27T14:32:15.699Z</time></trkpt><trkpt lat="45.5255634" lon="10.1759797"><ele>126.0</ele><time>2026-04-27T14:32:16.711Z</time></trkpt><trkpt lat="45.5256754" lon="10.1757239"><ele>125.66666666666666</ele><time>2026-04-27T14:32:17.701Z</time></trkpt><trkpt lat="45.5257893" lon="10.1754693"><ele>125.33333333333333</ele><time>2026-04-27T14:32:18.705Z</time></trkpt><trkpt lat="45.5259034" lon="10.1752147"><ele>125.0</ele><time>2026-04-27T14:32:19.706Z</time></trkpt><trkpt lat="45.5260197" lon="10.1749653"><ele>125.33333333333333</ele><time>2026-04-27T14:32:20.701Z</time></trkpt><trkpt lat="45.5261385" lon="10.1747127"><ele>125.66666666666666</ele><time>2026-04-27T14:32:21.7Z</time></trkpt><trkpt lat="45.5262551" lon="10.1744608"><ele>126.0</ele><time>2026-04-27T14:32:22.73Z</time></trkpt><trkpt lat="45.5263746" lon="10.1742053"><ele>125.66666666666666</ele><time>2026-04-27T14:32:23.727Z</time></trkpt><trkpt lat="45.5264958" lon="10.173955"><ele>125.33333333333333</ele><time>2026-04-27T14:32:24.737Z</time></trkpt><trkpt lat="45.526615" lon="10.1737074"><ele>125.0</ele><time>2026-04-27T14:32:25.694Z</time></trkpt><trkpt lat="45.5267392" lon="10.173454"><ele>125.0</ele><time>2026-04-27T14:32:26.701Z</time></trkpt><trkpt lat="45.5268638" lon="10.1732068"><ele>125.0</ele><time>2026-04-27T14:32:27.706Z</time></trkpt><trkpt lat="45.526989" lon="10.1729647"><ele>125.0</ele><time>2026-04-27T14:32:28.706Z</time></trkpt><trkpt lat="45.5271187" lon="10.1727277"><ele>125.33333333333333</ele><time>2026-04-27T14:32:29.732Z</time></trkpt><trkpt lat="45.5272409" lon="10.1724911"><ele>125.66666666666666</ele><time>2026-04-27T14:32:30.714Z</time></trkpt><trkpt lat="45.5273622" lon="10.1722473"><ele>126.0</ele><time>2026-04-27T14:32:31.706Z</time></trkpt><trkpt lat="45.5274872" lon="10.1719976"><ele>126.0</ele><time>2026-04-27T14:32:32.734Z</time></trkpt><trkpt lat="45.5276057" lon="10.1717569"><ele>126.0</ele><time>2026-04-27T14:32:33.706Z</time></trkpt><trkpt lat="45.5277334" lon="10.1715096"><ele>126.0</ele><time>2026-04-27T14:32:34.714Z</time></trkpt><trkpt lat="45.5278585" lon="10.171267"><ele>126.33333333333334</ele><time>2026-04-27T14:32:35.728Z</time></trkpt><trkpt lat="45.52798" lon="10.1710201"><ele>126.66666666666667</ele><time>2026-04-27T14:32:36.708Z</time></trkpt><trkpt lat="45.5281059" lon="10.1707709"><ele>127.0</ele><time>2026-04-27T14:32:37.708Z</time></trkpt><trkpt lat="45.5282311" lon="10.1705274"><ele>127.0</ele><time>2026-04-27T14:32:38.722Z</time></trkpt><trkpt lat="45.5283549" lon="10.1702846"><ele>127.0</ele><time>2026-04-27T14:32:39.71Z</time></trkpt><trkpt lat="45.5284775" lon="10.1700459"><ele>127.0</ele><time>2026-04-27T14:32:40.717Z</time></trkpt><trkpt lat="45.5285995" lon="10.1698032"><ele>127.33333333333334</ele><time>2026-04-27T14:32:41.722Z</time></trkpt><trkpt lat="45.5287207" lon="10.169558"><ele>127.66666666666666</ele><time>2026-04-27T14:32:42.706Z</time></trkpt><trkpt lat="45.5288416" lon="10.1693117"><ele>128.0</ele><time>2026-04-27T14:32:43.718Z</time></trkpt><trkpt lat="45.528962" lon="10.1690704"><ele>128.0</ele><time>2026-04-27T14:32:44.708Z</time></trkpt><trkpt lat="45.5290852" lon="10.1688259"><ele>128.0</ele><time>2026-04-27T14:32:45.702Z</time></trkpt><trkpt lat="45.5292083" lon="10.1685849"><ele>128.0</ele><time>2026-04-27T14:32:46.702Z</time></trkpt><trkpt lat="45.5293324" lon="10.168344"><ele>127.33333333333333</ele><time>2026-04-27T14:32:47.711Z</time></trkpt><trkpt lat="45.5294602" lon="10.168097"><ele>126.66666666666666</ele><time>2026-04-27T14:32:48.712Z</time></trkpt><trkpt lat="45.5295797" lon="10.1678547"><ele>126.0</ele><time>2026-04-27T14:32:49.704Z</time></trkpt><trkpt lat="45.5297025" lon="10.1676084"><ele>126.0</ele><time>2026-04-27T14:32:50.702Z</time></trkpt><trkpt lat="45.5298274" lon="10.1673672"><ele>126.0</ele><time>2026-04-27T14:32:51.723Z</time></trkpt><trkpt lat="45.5299525" lon="10.1671313"><ele>126.0</ele><time>2026-04-27T14:32:52.708Z</time></trkpt><trkpt lat="45.5300773" lon="10.1668934"><ele>126.0</ele><time>2026-04-27T14:32:53.718Z</time></trkpt><trkpt lat="45.5301986" lon="10.1666558"><ele>126.0</ele><time>2026-04-27T14:32:54.71Z</time></trkpt><trkpt lat="45.5303242" lon="10.1664156"><ele>126.0</ele><time>2026-04-27T14:32:55.711Z</time></trkpt><trkpt lat="45.5304486" lon="10.1661734"><ele>126.0</ele><time>2026-04-27T14:32:56.708Z</time></trkpt><trkpt lat="45.5305693" lon="10.1659358"><ele>126.0</ele><time>2026-04-27T14:32:57.708Z</time></trkpt><trkpt lat="45.5306996" lon="10.1656895"><ele>126.0</ele><time>2026-04-27T14:32:58.715Z</time></trkpt><trkpt lat="45.5308212" lon="10.1654466"><ele>126.0</ele><time>2026-04-27T14:32:59.71Z</time></trkpt><trkpt lat="45.5309471" lon="10.1652043"><ele>126.0</ele><time>2026-04-27T14:33:00.712Z</time></trkpt><trkpt lat="45.5310654" lon="10.1649618"><ele>126.0</ele><time>2026-04-27T14:33:01.704Z</time></trkpt><trkpt lat="45.5311853" lon="10.1647212"><ele>126.33333333333334</ele><time>2026-04-27T14:33:02.726Z</time></trkpt><trkpt lat="45.5313083" lon="10.1644867"><ele>126.66666666666667</ele><time>2026-04-27T14:33:03.703Z</time></trkpt><trkpt lat="45.531433" lon="10.1642477"><ele>127.0</ele><time>2026-04-27T14:33:04.711Z</time></trkpt><trkpt lat="45.531555" lon="10.1640067"><ele>127.0</ele><time>2026-04-27T14:33:05.705Z</time></trkpt><trkpt lat="45.5316803" lon="10.1637613"><ele>127.0</ele><time>2026-04-27T14:33:06.71Z</time></trkpt><trkpt lat="45.5317987" lon="10.1635211"><ele>127.0</ele><time>2026-04-27T14:33:07.705Z</time></trkpt><trkpt lat="45.5319193" lon="10.1632826"><ele>126.66666666666667</ele><time>2026-04-27T14:33:08.707Z</time></trkpt><trkpt lat="45.5320483" lon="10.1630567"><ele>126.33333333333334</ele><time>2026-04-27T14:33:09.713Z</time></trkpt><trkpt lat="45.5321701" lon="10.1628185"><ele>126.0</ele><time>2026-04-27T14:33:10.707Z</time></trkpt><trkpt lat="45.532291" lon="10.1625746"><ele>125.5</ele><time>2026-04-27T14:33:11.699Z</time></trkpt><trkpt lat="45.5324148" lon="10.1623217"><ele>125.0</ele><time>2026-04-27T14:33:12.7Z</time></trkpt><trkpt lat="45.5325621" lon="10.1620418"><ele>125.0</ele><time>2026-04-27T14:33:13.716Z</time></trkpt><trkpt lat="45.5326949" lon="10.161736"><ele>125.0</ele><time>2026-04-27T14:33:14.713Z</time></trkpt><trkpt lat="45.5328359" lon="10.1614422"><ele>124.5</ele><time>2026-04-27T14:33:15.712Z</time></trkpt><trkpt lat="45.5329748" lon="10.161162"><ele>124.0</ele><time>2026-04-27T14:33:16.707Z</time></trkpt><trkpt lat="45.5331138" lon="10.1608916"><ele>123.0</ele><time>2026-04-27T14:33:17.71Z</time></trkpt><trkpt lat="45.5332488" lon="10.1606262"><ele>122.0</ele><time>2026-04-27T14:33:18.711Z</time></trkpt><trkpt lat="45.5333902" lon="10.1603533"><ele>122.0</ele><time>2026-04-27T14:33:19.712Z</time></trkpt><trkpt lat="45.5335346" lon="10.1600808"><ele>122.0</ele><time>2026-04-27T14:33:20.711Z</time></trkpt><trkpt lat="45.5336842" lon="10.1598075"><ele>123.0</ele><time>2026-04-27T14:33:21.707Z</time></trkpt><trkpt lat="45.5338291" lon="10.1595393"><ele>124.0</ele><time>2026-04-27T14:33:22.706Z</time></trkpt><trkpt lat="45.5339683" lon="10.159278"><ele>124.0</ele><time>2026-04-27T14:33:23.7Z</time></trkpt><trkpt lat="45.5341022" lon="10.1590215"><ele>124.0</ele><time>2026-04-27T14:33:24.703Z</time></trkpt><trkpt lat="45.5342368" lon="10.1587618"><ele>124.0</ele><time>2026-04-27T14:33:25.709Z</time></trkpt><trkpt lat="45.5343672" lon="10.1585273"><ele>124.0</ele><time>2026-04-27T14:33:26.71Z</time></trkpt><trkpt lat="45.5344941" lon="10.158284"><ele>124.0</ele><time>2026-04-27T14:33:27.705Z</time></trkpt><trkpt lat="45.5346179" lon="10.1580372"><ele>123.66666666666667</ele><time>2026-04-27T14:33:28.714Z</time></trkpt><trkpt lat="45.5347401" lon="10.1578001"><ele>123.33333333333334</ele><time>2026-04-27T14:33:29.708Z</time></trkpt><trkpt lat="45.5348543" lon="10.1575627"><ele>123.0</ele><time>2026-04-27T14:33:30.718Z</time></trkpt><trkpt lat="45.5349781" lon="10.1573113"><ele>122.66666666666666</ele><time>2026-04-27T14:33:31.715Z</time></trkpt><trkpt lat="45.5351034" lon="10.1570596"><ele>122.33333333333333</ele><time>2026-04-27T14:33:32.707Z</time></trkpt><trkpt lat="45.5352273" lon="10.1568135"><ele>122.0</ele><time>2026-04-27T14:33:33.699Z</time></trkpt><trkpt lat="45.5353639" lon="10.1565432"><ele>122.0</ele><time>2026-04-27T14:33:34.708Z</time></trkpt><trkpt lat="45.5354964" lon="10.1562929"><ele>122.0</ele><time>2026-04-27T14:33:35.747Z</time></trkpt><trkpt lat="45.5356268" lon="10.1560418"><ele>122.0</ele><time>2026-04-27T14:33:36.717Z</time></trkpt><trkpt lat="45.5357553" lon="10.1557869"><ele>121.33333333333333</ele><time>2026-04-27T14:33:37.7Z</time></trkpt><trkpt lat="45.5358813" lon="10.1555342"><ele>120.66666666666666</ele><time>2026-04-27T14:33:38.713Z</time></trkpt><trkpt lat="45.5360114" lon="10.1552818"><ele>120.0</ele><time>2026-04-27T14:33:39.709Z</time></trkpt><trkpt lat="45.5361398" lon="10.1550318"><ele>121.0</ele><time>2026-04-27T14:33:40.719Z</time></trkpt><trkpt lat="45.5362681" lon="10.1547841"><ele>122.0</ele><time>2026-04-27T14:33:41.74Z</time></trkpt><trkpt lat="45.5363946" lon="10.1545353"><ele>123.0</ele><time>2026-04-27T14:33:42.741Z</time></trkpt><trkpt lat="45.5365191" lon="10.1542841"><ele>122.33333333333334</ele><time>2026-04-27T14:33:43.712Z</time></trkpt><trkpt lat="45.5366485" lon="10.1540335"><ele>121.66666666666667</ele><time>2026-04-27T14:33:44.717Z</time></trkpt><trkpt lat="45.5367788" lon="10.1537817"><ele>121.0</ele><time>2026-04-27T14:33:45.722Z</time></trkpt><trkpt lat="45.5369081" lon="10.1535283"><ele>121.0</ele><time>2026-04-27T14:33:46.7Z</time></trkpt><trkpt lat="45.5370376" lon="10.1532754"><ele>121.0</ele><time>2026-04-27T14:33:47.713Z</time></trkpt><trkpt lat="45.5371662" lon="10.1530209"><ele>121.0</ele><time>2026-04-27T14:33:48.72Z</time></trkpt><trkpt lat="45.5372941" lon="10.1527675"><ele>121.33333333333334</ele><time>2026-04-27T14:33:49.709Z</time></trkpt><trkpt lat="45.5374215" lon="10.1525146"><ele>121.66666666666666</ele><time>2026-04-27T14:33:50.704Z</time></trkpt><trkpt lat="45.5375501" lon="10.1522615"><ele>122.0</ele><time>2026-04-27T14:33:51.711Z</time></trkpt><trkpt lat="45.5376794" lon="10.1520092"><ele>122.0</ele><time>2026-04-27T14:33:52.703Z</time></trkpt><trkpt lat="45.5378102" lon="10.1517622"><ele>122.0</ele><time>2026-04-27T14:33:53.713Z</time></trkpt><trkpt lat="45.5379364" lon="10.151518"><ele>122.0</ele><time>2026-04-27T14:33:54.714Z</time></trkpt><trkpt lat="45.5380621" lon="10.1512681"><ele>121.66666666666666</ele><time>2026-04-27T14:33:55.704Z</time></trkpt><trkpt lat="45.5381905" lon="10.1510207"><ele>121.33333333333334</ele><time>2026-04-27T14:33:56.716Z</time></trkpt><trkpt lat="45.5383211" lon="10.1507723"><ele>121.0</ele><time>2026-04-27T14:33:57.718Z</time></trkpt><trkpt lat="45.5384502" lon="10.1505196"><ele>121.0</ele><time>2026-04-27T14:33:58.711Z</time></trkpt><trkpt lat="45.5385786" lon="10.1502612"><ele>121.0</ele><time>2026-04-27T14:33:59.713Z</time></trkpt><trkpt lat="45.5387114" lon="10.1500111"><ele>121.0</ele><time>2026-04-27T14:34:00.692Z</time></trkpt><trkpt lat="45.5388464" lon="10.1497654"><ele>121.0</ele><time>2026-04-27T14:34:01.71Z</time></trkpt><trkpt lat="45.5389818" lon="10.1495127"><ele>121.0</ele><time>2026-04-27T14:34:02.706Z</time></trkpt><trkpt lat="45.5391156" lon="10.1492652"><ele>121.0</ele><time>2026-04-27T14:34:03.706Z</time></trkpt><trkpt lat="45.5392588" lon="10.1490083"><ele>121.66666666666667</ele><time>2026-04-27T14:34:04.724Z</time></trkpt><trkpt lat="45.5393931" lon="10.1487627"><ele>122.33333333333334</ele><time>2026-04-27T14:34:05.721Z</time></trkpt><trkpt lat="45.5395215" lon="10.1485215"><ele>123.0</ele><time>2026-04-27T14:34:06.707Z</time></trkpt><trkpt lat="45.539623" lon="10.1482913"><ele>123.33333333333334</ele><time>2026-04-27T14:34:07.714Z</time></trkpt><trkpt lat="45.5397525" lon="10.1480662"><ele>123.66666666666667</ele><time>2026-04-27T14:34:08.705Z</time></trkpt><trkpt lat="45.5398905" lon="10.1478245"><ele>124.0</ele><time>2026-04-27T14:34:09.714Z</time></trkpt><trkpt lat="45.5400229" lon="10.147584"><ele>124.0</ele><time>2026-04-27T14:34:10.703Z</time></trkpt><trkpt lat="45.5401608" lon="10.1473385"><ele>124.0</ele><time>2026-04-27T14:34:11.711Z</time></trkpt><trkpt lat="45.5402996" lon="10.1470954"><ele>124.0</ele><time>2026-04-27T14:34:12.705Z</time></trkpt><trkpt lat="45.5404296" lon="10.1468506"><ele>123.33333333333334</ele><time>2026-04-27T14:34:13.704Z</time></trkpt><trkpt lat="45.5405594" lon="10.1466063"><ele>122.66666666666666</ele><time>2026-04-27T14:34:14.725Z</time></trkpt><trkpt lat="45.540704" lon="10.1463482"><ele>122.0</ele><time>2026-04-27T14:34:15.711Z</time></trkpt><trkpt lat="45.5408401" lon="10.1460959"><ele>122.0</ele><time>2026-04-27T14:34:16.704Z</time></trkpt><trkpt lat="45.5409772" lon="10.1458462"><ele>122.0</ele><time>2026-04-27T14:34:17.71Z</time></trkpt><trkpt lat="45.5411142" lon="10.145603"><ele>122.0</ele><time>2026-04-27T14:34:18.71Z</time></trkpt><trkpt lat="45.5412511" lon="10.1453578"><ele>121.33333333333333</ele><time>2026-04-27T14:34:19.723Z</time></trkpt><trkpt lat="45.5413828" lon="10.1451069"><ele>120.66666666666666</ele><time>2026-04-27T14:34:20.726Z</time></trkpt><trkpt lat="45.5415167" lon="10.1448671"><ele>120.0</ele><time>2026-04-27T14:34:21.72Z</time></trkpt><trkpt lat="45.5416543" lon="10.1446222"><ele>120.0</ele><time>2026-04-27T14:34:22.703Z</time></trkpt><trkpt lat="45.5417909" lon="10.1443777"><ele>120.0</ele><time>2026-04-27T14:34:23.713Z</time></trkpt><trkpt lat="45.5419301" lon="10.1441328"><ele>120.0</ele><time>2026-04-27T14:34:24.704Z</time></trkpt><trkpt lat="45.542074" lon="10.1438868"><ele>119.66666666666666</ele><time>2026-04-27T14:34:25.724Z</time></trkpt><trkpt lat="45.5422041" lon="10.1436345"><ele>119.33333333333333</ele><time>2026-04-27T14:34:26.709Z</time></trkpt><trkpt lat="45.5423368" lon="10.1433901"><ele>119.0</ele><time>2026-04-27T14:34:27.709Z</time></trkpt><trkpt lat="45.5424748" lon="10.1431446"><ele>119.0</ele><time>2026-04-27T14:34:28.732Z</time></trkpt><trkpt lat="45.5426086" lon="10.142904"><ele>119.0</ele><time>2026-04-27T14:34:29.716Z</time></trkpt><trkpt lat="45.5427451" lon="10.1426627"><ele>119.0</ele><time>2026-04-27T14:34:30.728Z</time></trkpt><trkpt lat="45.5428801" lon="10.1424167"><ele>120.0</ele><time>2026-04-27T14:34:31.709Z</time></trkpt><trkpt lat="45.5430099" lon="10.1421784"><ele>121.0</ele><time>2026-04-27T14:34:32.717Z</time></trkpt><trkpt lat="45.5431435" lon="10.1419327"><ele>122.0</ele><time>2026-04-27T14:34:33.708Z</time></trkpt><trkpt lat="45.5432732" lon="10.1416853"><ele>122.0</ele><time>2026-04-27T14:34:34.701Z</time></trkpt><trkpt lat="45.5434112" lon="10.14144"><ele>122.0</ele><time>2026-04-27T14:34:35.705Z</time></trkpt><trkpt lat="45.5435463" lon="10.1411941"><ele>122.0</ele><time>2026-04-27T14:34:36.723Z</time></trkpt><trkpt lat="45.5436833" lon="10.1409546"><ele>122.0</ele><time>2026-04-27T14:34:37.715Z</time></trkpt><trkpt lat="45.5438098" lon="10.1407178"><ele>122.0</ele><time>2026-04-27T14:34:38.734Z</time></trkpt><trkpt lat="45.5439394" lon="10.1404701"><ele>122.0</ele><time>2026-04-27T14:34:39.709Z</time></trkpt><trkpt lat="45.5440711" lon="10.1402324"><ele>122.0</ele><time>2026-04-27T14:34:40.721Z</time></trkpt><trkpt lat="45.5441992" lon="10.140004"><ele>122.0</ele><time>2026-04-27T14:34:41.706Z</time></trkpt><trkpt lat="45.5443261" lon="10.139794"><ele>122.0</ele><time>2026-04-27T14:34:42.715Z</time></trkpt><trkpt lat="45.5444436" lon="10.1395902"><ele>122.66666666666666</ele><time>2026-04-27T14:34:43.716Z</time></trkpt><trkpt lat="45.5445578" lon="10.1393947"><ele>123.33333333333334</ele><time>2026-04-27T14:34:44.732Z</time></trkpt><trkpt lat="45.5446634" lon="10.1392051"><ele>124.0</ele><time>2026-04-27T14:34:45.733Z</time></trkpt><trkpt lat="45.5447657" lon="10.1390197"><ele>124.0</ele><time>2026-04-27T14:34:46.711Z</time></trkpt><trkpt lat="45.5448683" lon="10.1388369"><ele>124.0</ele><time>2026-04-27T14:34:47.697Z</time></trkpt><trkpt lat="45.5449685" lon="10.1386568"><ele>124.0</ele><time>2026-04-27T14:34:48.726Z</time></trkpt><trkpt lat="45.5450707" lon="10.1384799"><ele>124.0</ele><time>2026-04-27T14:34:49.754Z</time></trkpt><trkpt lat="45.5451676" lon="10.1382992"><ele>124.0</ele><time>2026-04-27T14:34:50.719Z</time></trkpt><trkpt lat="45.5452705" lon="10.1381237"><ele>124.0</ele><time>2026-04-27T14:34:51.703Z</time></trkpt><trkpt lat="45.5453732" lon="10.1379447"><ele>124.33333333333334</ele><time>2026-04-27T14:34:52.703Z</time></trkpt><trkpt lat="45.5454703" lon="10.1377732"><ele>124.66666666666666</ele><time>2026-04-27T14:34:53.703Z</time></trkpt><trkpt lat="45.5455737" lon="10.1375973"><ele>125.0</ele><time>2026-04-27T14:34:54.704Z</time></trkpt><trkpt lat="45.5456726" lon="10.1374268"><ele>124.5</ele><time>2026-04-27T14:34:55.71Z</time></trkpt><trkpt lat="45.5457698" lon="10.1372681"><ele>124.0</ele><time>2026-04-27T14:34:56.715Z</time></trkpt><trkpt lat="45.5458615" lon="10.1371081"><ele>123.5</ele><time>2026-04-27T14:34:57.714Z</time></trkpt><trkpt lat="45.5459513" lon="10.1369475"><ele>123.0</ele><time>2026-04-27T14:34:58.711Z</time></trkpt><trkpt lat="45.5460308" lon="10.136793"><ele>123.0</ele><time>2026-04-27T14:34:59.728Z</time></trkpt><trkpt lat="45.5461172" lon="10.1366262"><ele>123.0</ele><time>2026-04-27T14:35:00.708Z</time></trkpt><trkpt lat="45.5462056" lon="10.1364606"><ele>123.0</ele><time>2026-04-27T14:35:01.715Z</time></trkpt><trkpt lat="45.5463004" lon="10.1362962"><ele>123.0</ele><time>2026-04-27T14:35:02.718Z</time></trkpt><trkpt lat="45.5464027" lon="10.1361437"><ele>123.33333333333334</ele><time>2026-04-27T14:35:03.712Z</time></trkpt><trkpt lat="45.5465133" lon="10.1360054"><ele>123.66666666666667</ele><time>2026-04-27T14:35:04.718Z</time></trkpt><trkpt lat="45.5466422" lon="10.1358776"><ele>124.0</ele><time>2026-04-27T14:35:05.701Z</time></trkpt><trkpt lat="45.5467768" lon="10.1357687"><ele>124.66666666666667</ele><time>2026-04-27T14:35:06.713Z</time></trkpt><trkpt lat="45.5469185" lon="10.1356431"><ele>125.33333333333334</ele><time>2026-04-27T14:35:07.712Z</time></trkpt><trkpt lat="45.5470508" lon="10.1354944"><ele>126.0</ele><time>2026-04-27T14:35:08.716Z</time></trkpt><trkpt lat="45.54718" lon="10.1353593"><ele>126.0</ele><time>2026-04-27T14:35:09.707Z</time></trkpt><trkpt lat="45.5473094" lon="10.135242"><ele>126.0</ele><time>2026-04-27T14:35:10.714Z</time></trkpt><trkpt lat="45.5474289" lon="10.1351213"><ele>126.0</ele><time>2026-04-27T14:35:11.715Z</time></trkpt><trkpt lat="45.5475245" lon="10.1349562"><ele>126.66666666666666</ele><time>2026-04-27T14:35:12.712Z</time></trkpt><trkpt lat="45.5476158" lon="10.1347717"><ele>127.33333333333333</ele><time>2026-04-27T14:35:13.709Z</time></trkpt><trkpt lat="45.5477029" lon="10.1345833"><ele>128.0</ele><time>2026-04-27T14:35:14.706Z</time></trkpt><trkpt lat="45.5477613" lon="10.1343686"><ele>128.0</ele><time>2026-04-27T14:35:15.715Z</time></trkpt><trkpt lat="45.5478063" lon="10.1341398"><ele>128.0</ele><time>2026-04-27T14:35:16.723Z</time></trkpt><trkpt lat="45.547846" lon="10.1339027"><ele>128.0</ele><time>2026-04-27T14:35:17.711Z</time></trkpt><trkpt lat="45.5478701" lon="10.1336631"><ele>127.66666666666666</ele><time>2026-04-27T14:35:18.702Z</time></trkpt><trkpt lat="45.5478705" lon="10.1334193"><ele>127.33333333333334</ele><time>2026-04-27T14:35:19.752Z</time></trkpt><trkpt lat="45.5478658" lon="10.1331861"><ele>127.0</ele><time>2026-04-27T14:35:20.73Z</time></trkpt><trkpt lat="45.547831" lon="10.1329156"><ele>127.0</ele><time>2026-04-27T14:35:21.703Z</time></trkpt><trkpt lat="45.5478023" lon="10.1326509"><ele>127.0</ele><time>2026-04-27T14:35:22.711Z</time></trkpt><trkpt lat="45.5477835" lon="10.1323793"><ele>127.0</ele><time>2026-04-27T14:35:23.707Z</time></trkpt><trkpt lat="45.5477722" lon="10.1321235"><ele>127.0</ele><time>2026-04-27T14:35:24.702Z</time></trkpt><trkpt lat="45.547778" lon="10.1318526"><ele>127.0</ele><time>2026-04-27T14:35:25.716Z</time></trkpt><trkpt lat="45.5478101" lon="10.1315921"><ele>127.0</ele><time>2026-04-27T14:35:26.716Z</time></trkpt><trkpt lat="45.547849" lon="10.1313248"><ele>127.0</ele><time>2026-04-27T14:35:27.723Z</time></trkpt><trkpt lat="45.5478917" lon="10.131046"><ele>127.0</ele><time>2026-04-27T14:35:28.704Z</time></trkpt><trkpt lat="45.5479309" lon="10.13076"><ele>127.0</ele><time>2026-04-27T14:35:29.7Z</time></trkpt><trkpt lat="45.5479614" lon="10.1304721"><ele>127.0</ele><time>2026-04-27T14:35:30.714Z</time></trkpt><trkpt lat="45.5479938" lon="10.1301911"><ele>127.0</ele><time>2026-04-27T14:35:31.706Z</time></trkpt><trkpt lat="45.5480181" lon="10.1299187"><ele>127.0</ele><time>2026-04-27T14:35:32.711Z</time></trkpt><trkpt lat="45.5480389" lon="10.1296573"><ele>127.33333333333334</ele><time>2026-04-27T14:35:33.71Z</time></trkpt><trkpt lat="45.5480597" lon="10.1294048"><ele>127.66666666666666</ele><time>2026-04-27T14:35:34.708Z</time></trkpt><trkpt lat="45.5480738" lon="10.1291556"><ele>128.0</ele><time>2026-04-27T14:35:35.709Z</time></trkpt><trkpt lat="45.5480899" lon="10.12891"><ele>128.0</ele><time>2026-04-27T14:35:36.712Z</time></trkpt><trkpt lat="45.5481049" lon="10.1286701"><ele>128.0</ele><time>2026-04-27T14:35:37.7Z</time></trkpt><trkpt lat="45.548117" lon="10.1284391"><ele>128.0</ele><time>2026-04-27T14:35:38.702Z</time></trkpt><trkpt lat="45.5481289" lon="10.1282205"><ele>128.33333333333331</ele><time>2026-04-27T14:35:39.712Z</time></trkpt><trkpt lat="45.5481379" lon="10.1280095"><ele>128.66666666666666</ele><time>2026-04-27T14:35:40.714Z</time></trkpt><trkpt lat="45.5481351" lon="10.1277897"><ele>129.0</ele><time>2026-04-27T14:35:41.731Z</time></trkpt><trkpt lat="45.5481302" lon="10.1275551"><ele>129.0</ele><time>2026-04-27T14:35:42.713Z</time></trkpt><trkpt lat="45.5481222" lon="10.1273279"><ele>129.0</ele><time>2026-04-27T14:35:43.714Z</time></trkpt><trkpt lat="45.5481112" lon="10.1270886"><ele>129.0</ele><time>2026-04-27T14:35:44.728Z</time></trkpt><trkpt lat="45.5481044" lon="10.1268376"><ele>129.0</ele><time>2026-04-27T14:35:45.727Z</time></trkpt><trkpt lat="45.5480983" lon="10.1265992"><ele>129.0</ele><time>2026-04-27T14:35:46.704Z</time></trkpt><trkpt lat="45.5480945" lon="10.1263521"><ele>129.0</ele><time>2026-04-27T14:35:47.702Z</time></trkpt><trkpt lat="45.5480866" lon="10.126112"><ele>129.0</ele><time>2026-04-27T14:35:48.716Z</time></trkpt><trkpt lat="45.5480759" lon="10.1258652"><ele>129.0</ele><time>2026-04-27T14:35:49.718Z</time></trkpt><trkpt lat="45.5480631" lon="10.125622"><ele>129.0</ele><time>2026-04-27T14:35:50.708Z</time></trkpt><trkpt lat="45.548056" lon="10.1253819"><ele>129.0</ele><time>2026-04-27T14:35:51.713Z</time></trkpt><trkpt lat="45.5480403" lon="10.1251423"><ele>129.0</ele><time>2026-04-27T14:35:52.71Z</time></trkpt><trkpt lat="45.5480259" lon="10.1249078"><ele>129.0</ele><time>2026-04-27T14:35:53.704Z</time></trkpt><trkpt lat="45.548013" lon="10.124672"><ele>129.0</ele><time>2026-04-27T14:35:54.704Z</time></trkpt><trkpt lat="45.5479968" lon="10.1244412"><ele>129.0</ele><time>2026-04-27T14:35:55.712Z</time></trkpt><trkpt lat="45.5479799" lon="10.1242149"><ele>129.0</ele><time>2026-04-27T14:35:56.725Z</time></trkpt><trkpt lat="45.5479607" lon="10.1239937"><ele>129.0</ele><time>2026-04-27T14:35:57.715Z</time></trkpt><trkpt lat="45.5479403" lon="10.1237807"><ele>129.0</ele><time>2026-04-27T14:35:58.712Z</time></trkpt><trkpt lat="45.5479203" lon="10.1235659"><ele>129.0</ele><time>2026-04-27T14:35:59.712Z</time></trkpt><trkpt lat="45.5478967" lon="10.1233621"><ele>129.0</ele><time>2026-04-27T14:36:00.712Z</time></trkpt><trkpt lat="45.5478738" lon="10.1231443"><ele>129.0</ele><time>2026-04-27T14:36:01.731Z</time></trkpt><trkpt lat="45.5478484" lon="10.122934"><ele>129.0</ele><time>2026-04-27T14:36:02.719Z</time></trkpt><trkpt lat="45.5478242" lon="10.1227118"><ele>129.0</ele><time>2026-04-27T14:36:03.716Z</time></trkpt><trkpt lat="45.5478001" lon="10.1224789"><ele>128.33333333333334</ele><time>2026-04-27T14:36:04.707Z</time></trkpt><trkpt lat="45.5477774" lon="10.1222517"><ele>127.66666666666667</ele><time>2026-04-27T14:36:05.715Z</time></trkpt><trkpt lat="45.5477504" lon="10.1220242"><ele>127.0</ele><time>2026-04-27T14:36:06.712Z</time></trkpt><trkpt lat="45.5477244" lon="10.1217967"><ele>127.0</ele><time>2026-04-27T14:36:07.717Z</time></trkpt><trkpt lat="45.547698" lon="10.1215765"><ele>127.0</ele><time>2026-04-27T14:36:08.708Z</time></trkpt><trkpt lat="45.5476781" lon="10.1213544"><ele>127.0</ele><time>2026-04-27T14:36:09.713Z</time></trkpt><trkpt lat="45.547653" lon="10.1211355"><ele>126.66666666666667</ele><time>2026-04-27T14:36:10.715Z</time></trkpt><trkpt lat="45.5476212" lon="10.1209208"><ele>126.33333333333334</ele><time>2026-04-27T14:36:11.711Z</time></trkpt><trkpt lat="45.5475841" lon="10.1207024"><ele>126.0</ele><time>2026-04-27T14:36:12.716Z</time></trkpt><trkpt lat="45.5475435" lon="10.1204908"><ele>126.66666666666666</ele><time>2026-04-27T14:36:13.708Z</time></trkpt><trkpt lat="45.5475002" lon="10.1202788"><ele>127.33333333333333</ele><time>2026-04-27T14:36:14.727Z</time></trkpt><trkpt lat="45.5474517" lon="10.120063"><ele>128.0</ele><time>2026-04-27T14:36:15.711Z</time></trkpt><trkpt lat="45.5474013" lon="10.1198505"><ele>128.66666666666666</ele><time>2026-04-27T14:36:16.724Z</time></trkpt><trkpt lat="45.5473526" lon="10.1196317"><ele>129.33333333333334</ele><time>2026-04-27T14:36:17.704Z</time></trkpt><trkpt lat="45.5473028" lon="10.1194215"><ele>130.0</ele><time>2026-04-27T14:36:18.714Z</time></trkpt><trkpt lat="45.5472487" lon="10.1192179"><ele>132.0</ele><time>2026-04-27T14:36:19.717Z</time></trkpt><trkpt lat="45.5471955" lon="10.1190108"><ele>134.0</ele><time>2026-04-27T14:36:20.7Z</time></trkpt><trkpt lat="45.5470887" lon="10.1185909"><ele>133.33333333333331</ele><time>2026-04-27T14:36:22.713Z</time></trkpt><trkpt lat="45.5470322" lon="10.1183802"><ele>132.66666666666666</ele><time>2026-04-27T14:36:23.705Z</time></trkpt><trkpt lat="45.5469794" lon="10.1181369"><ele>132.0</ele><time>2026-04-27T14:36:24.699Z</time></trkpt><trkpt lat="45.5469147" lon="10.1178874"><ele>131.0</ele><time>2026-04-27T14:36:25.712Z</time></trkpt><trkpt lat="45.5468466" lon="10.1176203"><ele>130.0</ele><time>2026-04-27T14:36:26.715Z</time></trkpt><trkpt lat="45.5467755" lon="10.1173558"><ele>129.0</ele><time>2026-04-27T14:36:27.711Z</time></trkpt><trkpt lat="45.5467077" lon="10.1170947"><ele>128.33333333333334</ele><time>2026-04-27T14:36:28.725Z</time></trkpt><trkpt lat="45.5466438" lon="10.1168323"><ele>127.66666666666667</ele><time>2026-04-27T14:36:29.7Z</time></trkpt><trkpt lat="45.546578" lon="10.1165673"><ele>127.0</ele><time>2026-04-27T14:36:30.692Z</time></trkpt><trkpt lat="45.5465136" lon="10.1163121"><ele>127.0</ele><time>2026-04-27T14:36:31.705Z</time></trkpt><trkpt lat="45.5464527" lon="10.116068"><ele>127.0</ele><time>2026-04-27T14:36:32.701Z</time></trkpt><trkpt lat="45.5463912" lon="10.1158306"><ele>127.0</ele><time>2026-04-27T14:36:33.709Z</time></trkpt><trkpt lat="45.5463307" lon="10.1155971"><ele>127.0</ele><time>2026-04-27T14:36:34.706Z</time></trkpt><trkpt lat="45.5462714" lon="10.1153636"><ele>127.0</ele><time>2026-04-27T14:36:35.711Z</time></trkpt><trkpt lat="45.5462143" lon="10.1151347"><ele>127.0</ele><time>2026-04-27T14:36:36.717Z</time></trkpt><trkpt lat="45.5461566" lon="10.1149151"><ele>127.0</ele><time>2026-04-27T14:36:37.723Z</time></trkpt><trkpt lat="45.5460984" lon="10.1146986"><ele>127.0</ele><time>2026-04-27T14:36:38.706Z</time></trkpt><trkpt lat="45.5460394" lon="10.1144849"><ele>127.0</ele><time>2026-04-27T14:36:39.712Z</time></trkpt><trkpt lat="45.5459735" lon="10.1142701"><ele>126.66666666666667</ele><time>2026-04-27T14:36:40.703Z</time></trkpt><trkpt lat="45.5458956" lon="10.1140538"><ele>126.33333333333334</ele><time>2026-04-27T14:36:41.716Z</time></trkpt><trkpt lat="45.5457966" lon="10.1138371"><ele>126.0</ele><time>2026-04-27T14:36:42.701Z</time></trkpt><trkpt lat="45.5456821" lon="10.1136136"><ele>126.0</ele><time>2026-04-27T14:36:43.721Z</time></trkpt><trkpt lat="45.5455678" lon="10.1134028"><ele>126.0</ele><time>2026-04-27T14:36:44.717Z</time></trkpt><trkpt lat="45.5454465" lon="10.1131996"><ele>126.0</ele><time>2026-04-27T14:36:45.712Z</time></trkpt><trkpt lat="45.5453142" lon="10.1129941"><ele>126.66666666666666</ele><time>2026-04-27T14:36:46.707Z</time></trkpt><trkpt lat="45.5451718" lon="10.1127959"><ele>127.33333333333333</ele><time>2026-04-27T14:36:47.706Z</time></trkpt><trkpt lat="45.5450219" lon="10.1125973"><ele>128.0</ele><time>2026-04-27T14:36:48.712Z</time></trkpt><trkpt lat="45.5448606" lon="10.1124046"><ele>128.33333333333331</ele><time>2026-04-27T14:36:49.714Z</time></trkpt><trkpt lat="45.5446965" lon="10.1121974"><ele>128.66666666666666</ele><time>2026-04-27T14:36:50.713Z</time></trkpt><trkpt lat="45.5445302" lon="10.111986"><ele>129.0</ele><time>2026-04-27T14:36:51.721Z</time></trkpt><trkpt lat="45.5443651" lon="10.1117358"><ele>129.0</ele><time>2026-04-27T14:36:52.707Z</time></trkpt><trkpt lat="45.5442046" lon="10.1114569"><ele>129.0</ele><time>2026-04-27T14:36:53.718Z</time></trkpt><trkpt lat="45.5440442" lon="10.1111598"><ele>129.0</ele><time>2026-04-27T14:36:54.724Z</time></trkpt><trkpt lat="45.5438967" lon="10.1108262"><ele>129.0</ele><time>2026-04-27T14:36:55.71Z</time></trkpt><trkpt lat="45.5437539" lon="10.1104782"><ele>129.0</ele><time>2026-04-27T14:36:56.706Z</time></trkpt><trkpt lat="45.5435994" lon="10.1101311"><ele>129.0</ele><time>2026-04-27T14:36:57.71Z</time></trkpt><trkpt lat="45.5434462" lon="10.1097812"><ele>128.5</ele><time>2026-04-27T14:36:58.74Z</time></trkpt><trkpt lat="45.5432895" lon="10.1094257"><ele>128.0</ele><time>2026-04-27T14:36:59.697Z</time></trkpt><trkpt lat="45.5431338" lon="10.1090783"><ele>128.0</ele><time>2026-04-27T14:37:00.716Z</time></trkpt><trkpt lat="45.5429863" lon="10.1087268"><ele>128.0</ele><time>2026-04-27T14:37:01.708Z</time></trkpt><trkpt lat="45.5428521" lon="10.1083816"><ele>128.5</ele><time>2026-04-27T14:37:02.713Z</time></trkpt><trkpt lat="45.5427231" lon="10.1080445"><ele>129.0</ele><time>2026-04-27T14:37:03.713Z</time></trkpt><trkpt lat="45.5426055" lon="10.1077158"><ele>130.0</ele><time>2026-04-27T14:37:04.711Z</time></trkpt><trkpt lat="45.5424941" lon="10.1073914"><ele>131.0</ele><time>2026-04-27T14:37:05.717Z</time></trkpt><trkpt lat="45.5423848" lon="10.1070734"><ele>131.0</ele><time>2026-04-27T14:37:06.711Z</time></trkpt><trkpt lat="45.542284" lon="10.1067627"><ele>131.0</ele><time>2026-04-27T14:37:07.715Z</time></trkpt><trkpt lat="45.5421894" lon="10.1064585"><ele>131.0</ele><time>2026-04-27T14:37:08.716Z</time></trkpt><trkpt lat="45.5420945" lon="10.1061637"><ele>131.0</ele><time>2026-04-27T14:37:09.696Z</time></trkpt><trkpt lat="45.5420106" lon="10.1058586"><ele>131.0</ele><time>2026-04-27T14:37:10.722Z</time></trkpt><trkpt lat="45.5419263" lon="10.105556"><ele>131.0</ele><time>2026-04-27T14:37:11.75Z</time></trkpt><trkpt lat="45.5418379" lon="10.1052554"><ele>131.0</ele><time>2026-04-27T14:37:12.722Z</time></trkpt><trkpt lat="45.5417558" lon="10.1049549"><ele>131.0</ele><time>2026-04-27T14:37:13.718Z</time></trkpt><trkpt lat="45.5416792" lon="10.1046532"><ele>131.0</ele><time>2026-04-27T14:37:14.715Z</time></trkpt><trkpt lat="45.5416056" lon="10.1043505"><ele>131.0</ele><time>2026-04-27T14:37:15.724Z</time></trkpt><trkpt lat="45.5415313" lon="10.1040457"><ele>131.33333333333331</ele><time>2026-04-27T14:37:16.706Z</time></trkpt><trkpt lat="45.5414608" lon="10.1037383"><ele>131.66666666666666</ele><time>2026-04-27T14:37:17.722Z</time></trkpt><trkpt lat="45.5413954" lon="10.1034369"><ele>132.0</ele><time>2026-04-27T14:37:18.719Z</time></trkpt><trkpt lat="45.541332" lon="10.1031339"><ele>131.33333333333334</ele><time>2026-04-27T14:37:19.713Z</time></trkpt><trkpt lat="45.5412686" lon="10.1028321"><ele>130.66666666666669</ele><time>2026-04-27T14:37:20.72Z</time></trkpt><trkpt lat="45.5412081" lon="10.1025335"><ele>130.0</ele><time>2026-04-27T14:37:21.709Z</time></trkpt><trkpt lat="45.5411496" lon="10.1022333"><ele>129.66666666666669</ele><time>2026-04-27T14:37:22.707Z</time></trkpt><trkpt lat="45.5410959" lon="10.1019319"><ele>129.33333333333334</ele><time>2026-04-27T14:37:23.718Z</time></trkpt><trkpt lat="45.5410405" lon="10.1016354"><ele>129.0</ele><time>2026-04-27T14:37:24.711Z</time></trkpt><trkpt lat="45.5409913" lon="10.1013386"><ele>129.0</ele><time>2026-04-27T14:37:25.714Z</time></trkpt><trkpt lat="45.5409458" lon="10.1010327"><ele>129.0</ele><time>2026-04-27T14:37:26.707Z</time></trkpt><trkpt lat="45.5408963" lon="10.1007312"><ele>129.0</ele><time>2026-04-27T14:37:27.718Z</time></trkpt><trkpt lat="45.5408546" lon="10.1004061"><ele>130.0</ele><time>2026-04-27T14:37:28.696Z</time></trkpt><trkpt lat="45.5408048" lon="10.1000723"><ele>131.0</ele><time>2026-04-27T14:37:29.71Z</time></trkpt><trkpt lat="45.5407567" lon="10.0997303"><ele>131.5</ele><time>2026-04-27T14:37:30.723Z</time></trkpt><trkpt lat="45.5407113" lon="10.0993839"><ele>132.0</ele><time>2026-04-27T14:37:31.705Z</time></trkpt><trkpt lat="45.5406684" lon="10.0990467"><ele>132.0</ele><time>2026-04-27T14:37:32.711Z</time></trkpt><trkpt lat="45.5406244" lon="10.0987232"><ele>132.0</ele><time>2026-04-27T14:37:33.713Z</time></trkpt><trkpt lat="45.540582" lon="10.0984016"><ele>133.0</ele><time>2026-04-27T14:37:34.712Z</time></trkpt><trkpt lat="45.5405394" lon="10.0980768"><ele>134.0</ele><time>2026-04-27T14:37:35.706Z</time></trkpt><trkpt lat="45.5405054" lon="10.0977567"><ele>134.0</ele><time>2026-04-27T14:37:36.727Z</time></trkpt><trkpt lat="45.5404689" lon="10.0974387"><ele>134.0</ele><time>2026-04-27T14:37:37.717Z</time></trkpt><trkpt lat="45.5404385" lon="10.0971256"><ele>134.0</ele><time>2026-04-27T14:37:38.716Z</time></trkpt><trkpt lat="45.5404006" lon="10.0968176"><ele>133.66666666666666</ele><time>2026-04-27T14:37:39.712Z</time></trkpt><trkpt lat="45.5403591" lon="10.0965038"><ele>133.33333333333334</ele><time>2026-04-27T14:37:40.716Z</time></trkpt><trkpt lat="45.5403181" lon="10.0961946"><ele>133.0</ele><time>2026-04-27T14:37:41.704Z</time></trkpt><trkpt lat="45.5402825" lon="10.0958896"><ele>132.66666666666669</ele><time>2026-04-27T14:37:42.709Z</time></trkpt><trkpt lat="45.5402468" lon="10.0955849"><ele>132.33333333333334</ele><time>2026-04-27T14:37:43.709Z</time></trkpt><trkpt lat="45.5402079" lon="10.0952843"><ele>132.0</ele><time>2026-04-27T14:37:44.712Z</time></trkpt><trkpt lat="45.5401718" lon="10.094983"><ele>132.0</ele><time>2026-04-27T14:37:45.713Z</time></trkpt><trkpt lat="45.5401409" lon="10.0946813"><ele>132.0</ele><time>2026-04-27T14:37:46.716Z</time></trkpt><trkpt lat="45.5400999" lon="10.0943746"><ele>132.0</ele><time>2026-04-27T14:37:47.713Z</time></trkpt><trkpt lat="45.5400653" lon="10.0940674"><ele>132.0</ele><time>2026-04-27T14:37:48.708Z</time></trkpt><trkpt lat="45.5400271" lon="10.0937579"><ele>132.0</ele><time>2026-04-27T14:37:49.697Z</time></trkpt><trkpt lat="45.5399863" lon="10.0934451"><ele>132.0</ele><time>2026-04-27T14:37:50.712Z</time></trkpt><trkpt lat="45.5399545" lon="10.093126"><ele>132.0</ele><time>2026-04-27T14:37:51.73Z</time></trkpt><trkpt lat="45.5399126" lon="10.092795"><ele>132.0</ele><time>2026-04-27T14:37:52.703Z</time></trkpt><trkpt lat="45.5398711" lon="10.0924407"><ele>133.0</ele><time>2026-04-27T14:37:53.696Z</time></trkpt><trkpt lat="45.5398164" lon="10.0920596"><ele>134.0</ele><time>2026-04-27T14:37:54.711Z</time></trkpt><trkpt lat="45.5397542" lon="10.0916533"><ele>135.0</ele><time>2026-04-27T14:37:55.724Z</time></trkpt><trkpt lat="45.5396953" lon="10.0912207"><ele>136.0</ele><time>2026-04-27T14:37:56.715Z</time></trkpt><trkpt lat="45.5396416" lon="10.0907764"><ele>135.5</ele><time>2026-04-27T14:37:57.702Z</time></trkpt><trkpt lat="45.5395917" lon="10.0903459"><ele>135.0</ele><time>2026-04-27T14:37:58.723Z</time></trkpt><trkpt lat="45.5395466" lon="10.0899406"><ele>133.0</ele><time>2026-04-27T14:37:59.722Z</time></trkpt><trkpt lat="45.5394996" lon="10.0895523"><ele>131.0</ele><time>2026-04-27T14:38:00.704Z</time></trkpt><trkpt lat="45.5394524" lon="10.0891754"><ele>132.5</ele><time>2026-04-27T14:38:01.708Z</time></trkpt><trkpt lat="45.5394088" lon="10.088805"><ele>134.0</ele><time>2026-04-27T14:38:02.713Z</time></trkpt><trkpt lat="45.5393632" lon="10.0884451"><ele>134.0</ele><time>2026-04-27T14:38:03.72Z</time></trkpt><trkpt lat="45.5393159" lon="10.0880891"><ele>134.0</ele><time>2026-04-27T14:38:04.71Z</time></trkpt><trkpt lat="45.5392725" lon="10.0877382"><ele>134.0</ele><time>2026-04-27T14:38:05.71Z</time></trkpt><trkpt lat="45.5392326" lon="10.0873899"><ele>134.0</ele><time>2026-04-27T14:38:06.7Z</time></trkpt><trkpt lat="45.5391894" lon="10.0870348"><ele>134.0</ele><time>2026-04-27T14:38:07.709Z</time></trkpt><trkpt lat="45.5391489" lon="10.0866808"><ele>134.0</ele><time>2026-04-27T14:38:08.722Z</time></trkpt><trkpt lat="45.5391091" lon="10.0863274"><ele>134.0</ele><time>2026-04-27T14:38:09.72Z</time></trkpt><trkpt lat="45.5390661" lon="10.0859693"><ele>134.0</ele><time>2026-04-27T14:38:10.708Z</time></trkpt><trkpt lat="45.5390221" lon="10.0856125"><ele>134.5</ele><time>2026-04-27T14:38:11.707Z</time></trkpt><trkpt lat="45.5389794" lon="10.0852558"><ele>135.0</ele><time>2026-04-27T14:38:12.711Z</time></trkpt><trkpt lat="45.5389349" lon="10.0849009"><ele>136.0</ele><time>2026-04-27T14:38:13.715Z</time></trkpt><trkpt lat="45.5388919" lon="10.0845522"><ele>137.0</ele><time>2026-04-27T14:38:14.709Z</time></trkpt><trkpt lat="45.5388504" lon="10.0841983"><ele>136.0</ele><time>2026-04-27T14:38:15.715Z</time></trkpt><trkpt lat="45.5388079" lon="10.0838528"><ele>135.0</ele><time>2026-04-27T14:38:16.712Z</time></trkpt><trkpt lat="45.5387677" lon="10.0835064"><ele>135.5</ele><time>2026-04-27T14:38:17.71Z</time></trkpt><trkpt lat="45.5387331" lon="10.0831537"><ele>136.0</ele><time>2026-04-27T14:38:18.716Z</time></trkpt><trkpt lat="45.5386917" lon="10.0827995"><ele>136.0</ele><time>2026-04-27T14:38:19.712Z</time></trkpt><trkpt lat="45.53865" lon="10.0824447"><ele>136.0</ele><time>2026-04-27T14:38:20.703Z</time></trkpt><trkpt lat="45.5386075" lon="10.0820896"><ele>136.0</ele><time>2026-04-27T14:38:21.693Z</time></trkpt><trkpt lat="45.5385657" lon="10.0817381"><ele>136.0</ele><time>2026-04-27T14:38:22.731Z</time></trkpt><trkpt lat="45.5385255" lon="10.081389"><ele>136.0</ele><time>2026-04-27T14:38:23.703Z</time></trkpt><trkpt lat="45.5384842" lon="10.0810434"><ele>136.0</ele><time>2026-04-27T14:38:24.714Z</time></trkpt><trkpt lat="45.5384445" lon="10.0806918"><ele>136.5</ele><time>2026-04-27T14:38:25.717Z</time></trkpt><trkpt lat="45.5384019" lon="10.0803393"><ele>137.0</ele><time>2026-04-27T14:38:26.713Z</time></trkpt><trkpt lat="45.538359" lon="10.0799876"><ele>137.5</ele><time>2026-04-27T14:38:27.706Z</time></trkpt><trkpt lat="45.5383155" lon="10.0796318"><ele>138.0</ele><time>2026-04-27T14:38:28.724Z</time></trkpt><trkpt lat="45.5382738" lon="10.0792726"><ele>137.5</ele><time>2026-04-27T14:38:29.712Z</time></trkpt><trkpt lat="45.5382321" lon="10.0789204"><ele>137.0</ele><time>2026-04-27T14:38:30.712Z</time></trkpt><trkpt lat="45.538191" lon="10.0785593"><ele>137.5</ele><time>2026-04-27T14:38:31.713Z</time></trkpt><trkpt lat="45.5381458" lon="10.078203"><ele>138.0</ele><time>2026-04-27T14:38:32.708Z</time></trkpt><trkpt lat="45.5381015" lon="10.0778379"><ele>138.0</ele><time>2026-04-27T14:38:33.695Z</time></trkpt><trkpt lat="45.5380595" lon="10.0774701"><ele>138.0</ele><time>2026-04-27T14:38:34.712Z</time></trkpt><trkpt lat="45.5380182" lon="10.0771041"><ele>138.0</ele><time>2026-04-27T14:38:35.703Z</time></trkpt><trkpt lat="45.5379668" lon="10.0767422"><ele>138.0</ele><time>2026-04-27T14:38:36.7Z</time></trkpt><trkpt lat="45.5379211" lon="10.0763709"><ele>137.5</ele><time>2026-04-27T14:38:37.708Z</time></trkpt><trkpt lat="45.5378757" lon="10.0760212"><ele>137.0</ele><time>2026-04-27T14:38:38.711Z</time></trkpt><trkpt lat="45.537838" lon="10.0756605"><ele>137.0</ele><time>2026-04-27T14:38:39.714Z</time></trkpt><trkpt lat="45.5377942" lon="10.0752845"><ele>137.0</ele><time>2026-04-27T14:38:40.712Z</time></trkpt><trkpt lat="45.5377398" lon="10.0748923"><ele>137.0</ele><time>2026-04-27T14:38:41.708Z</time></trkpt><trkpt lat="45.5377059" lon="10.0745085"><ele>137.0</ele><time>2026-04-27T14:38:42.709Z</time></trkpt><trkpt lat="45.5376533" lon="10.0741284"><ele>137.0</ele><time>2026-04-27T14:38:43.7Z</time></trkpt><trkpt lat="45.5375995" lon="10.0737587"><ele>137.0</ele><time>2026-04-27T14:38:44.723Z</time></trkpt><trkpt lat="45.5375435" lon="10.0733892"><ele>137.5</ele><time>2026-04-27T14:38:45.722Z</time></trkpt><trkpt lat="45.5374836" lon="10.073017"><ele>138.0</ele><time>2026-04-27T14:38:46.717Z</time></trkpt><trkpt lat="45.5374243" lon="10.0726438"><ele>137.0</ele><time>2026-04-27T14:38:47.706Z</time></trkpt><trkpt lat="45.5373648" lon="10.0722718"><ele>136.0</ele><time>2026-04-27T14:38:48.705Z</time></trkpt><trkpt lat="45.5373028" lon="10.0719011"><ele>136.5</ele><time>2026-04-27T14:38:49.704Z</time></trkpt><trkpt lat="45.5372353" lon="10.0715351"><ele>137.0</ele><time>2026-04-27T14:38:50.708Z</time></trkpt><trkpt lat="45.5371618" lon="10.0711701"><ele>137.0</ele><time>2026-04-27T14:38:51.711Z</time></trkpt><trkpt lat="45.5370819" lon="10.0708055"><ele>137.0</ele><time>2026-04-27T14:38:52.701Z</time></trkpt><trkpt lat="45.537004" lon="10.0704496"><ele>137.5</ele><time>2026-04-27T14:38:53.701Z</time></trkpt><trkpt lat="45.5369241" lon="10.0700725"><ele>138.0</ele><time>2026-04-27T14:38:54.694Z</time></trkpt><trkpt lat="45.536846" lon="10.0697031"><ele>138.0</ele><time>2026-04-27T14:38:55.713Z</time></trkpt><trkpt lat="45.5367668" lon="10.0693432"><ele>138.0</ele><time>2026-04-27T14:38:56.715Z</time></trkpt><trkpt lat="45.5366889" lon="10.0689878"><ele>138.0</ele><time>2026-04-27T14:38:57.707Z</time></trkpt><trkpt lat="45.5366087" lon="10.0686319"><ele>138.0</ele><time>2026-04-27T14:38:58.717Z</time></trkpt><trkpt lat="45.5365177" lon="10.0682797"><ele>138.0</ele><time>2026-04-27T14:38:59.714Z</time></trkpt><trkpt lat="45.5364198" lon="10.0679281"><ele>138.0</ele><time>2026-04-27T14:39:00.715Z</time></trkpt><trkpt lat="45.5363233" lon="10.0675777"><ele>138.0</ele><time>2026-04-27T14:39:01.707Z</time></trkpt><trkpt lat="45.5362288" lon="10.0672252"><ele>138.0</ele><time>2026-04-27T14:39:02.719Z</time></trkpt><trkpt lat="45.5361278" lon="10.0668767"><ele>138.0</ele><time>2026-04-27T14:39:03.712Z</time></trkpt><trkpt lat="45.5360269" lon="10.0665316"><ele>138.0</ele><time>2026-04-27T14:39:04.707Z</time></trkpt><trkpt lat="45.535917" lon="10.0661866"><ele>138.0</ele><time>2026-04-27T14:39:05.713Z</time></trkpt><trkpt lat="45.5358041" lon="10.0658386"><ele>138.0</ele><time>2026-04-27T14:39:06.71Z</time></trkpt><trkpt lat="45.5356919" lon="10.0654789"><ele>140.0</ele><time>2026-04-27T14:39:07.707Z</time></trkpt><trkpt lat="45.534606" lon="10.0626871"><ele>139.0</ele><time>2026-04-27T14:39:16.715Z</time></trkpt><trkpt lat="45.5345173" lon="10.0624019"><ele>138.0</ele><time>2026-04-27T14:39:17.724Z</time></trkpt><trkpt lat="45.5344045" lon="10.0621219"><ele>137.0</ele><time>2026-04-27T14:39:18.713Z</time></trkpt><trkpt lat="45.534294" lon="10.0618428"><ele>137.66666666666666</ele><time>2026-04-27T14:39:19.71Z</time></trkpt><trkpt lat="45.5341863" lon="10.06156"><ele>138.33333333333334</ele><time>2026-04-27T14:39:20.707Z</time></trkpt><trkpt lat="45.5340741" lon="10.0612843"><ele>139.0</ele><time>2026-04-27T14:39:21.71Z</time></trkpt><trkpt lat="45.5339689" lon="10.0610215"><ele>139.0</ele><time>2026-04-27T14:39:22.706Z</time></trkpt><trkpt lat="45.5338606" lon="10.0607522"><ele>139.0</ele><time>2026-04-27T14:39:23.705Z</time></trkpt><trkpt lat="45.5337487" lon="10.0604806"><ele>139.0</ele><time>2026-04-27T14:39:24.724Z</time></trkpt><trkpt lat="45.5336357" lon="10.0602147"><ele>139.0</ele><time>2026-04-27T14:39:25.713Z</time></trkpt><trkpt lat="45.5335245" lon="10.0599501"><ele>139.0</ele><time>2026-04-27T14:39:26.707Z</time></trkpt><trkpt lat="45.5334178" lon="10.0596829"><ele>139.0</ele><time>2026-04-27T14:39:27.716Z</time></trkpt><trkpt lat="45.5333089" lon="10.0594054"><ele>138.66666666666669</ele><time>2026-04-27T14:39:28.728Z</time></trkpt><trkpt lat="45.5331991" lon="10.0591301"><ele>138.33333333333334</ele><time>2026-04-27T14:39:29.715Z</time></trkpt><trkpt lat="45.5330911" lon="10.0588521"><ele>138.0</ele><time>2026-04-27T14:39:30.702Z</time></trkpt><trkpt lat="45.53298" lon="10.058567"><ele>138.5</ele><time>2026-04-27T14:39:31.72Z</time></trkpt><trkpt lat="45.5328695" lon="10.058285"><ele>139.0</ele><time>2026-04-27T14:39:32.707Z</time></trkpt><trkpt lat="45.5327607" lon="10.0579933"><ele>139.0</ele><time>2026-04-27T14:39:33.722Z</time></trkpt><trkpt lat="45.5326471" lon="10.057697"><ele>139.0</ele><time>2026-04-27T14:39:34.708Z</time></trkpt><trkpt lat="45.532535" lon="10.0574063"><ele>138.5</ele><time>2026-04-27T14:39:35.707Z</time></trkpt><trkpt lat="45.5324248" lon="10.0571043"><ele>138.0</ele><time>2026-04-27T14:39:36.708Z</time></trkpt><trkpt lat="45.5323184" lon="10.0567972"><ele>138.0</ele><time>2026-04-27T14:39:37.714Z</time></trkpt><trkpt lat="45.532217" lon="10.0564768"><ele>138.0</ele><time>2026-04-27T14:39:38.71Z</time></trkpt><trkpt lat="45.5321136" lon="10.0561579"><ele>138.0</ele><time>2026-04-27T14:39:39.713Z</time></trkpt><trkpt lat="45.5320173" lon="10.0558504"><ele>138.0</ele><time>2026-04-27T14:39:40.716Z</time></trkpt><trkpt lat="45.5319163" lon="10.0555358"><ele>137.5</ele><time>2026-04-27T14:39:41.702Z</time></trkpt><trkpt lat="45.5318168" lon="10.0552203"><ele>137.0</ele><time>2026-04-27T14:39:42.716Z</time></trkpt><trkpt lat="45.5317093" lon="10.0548915"><ele>137.0</ele><time>2026-04-27T14:39:43.717Z</time></trkpt><trkpt lat="45.5316237" lon="10.0545546"><ele>137.0</ele><time>2026-04-27T14:39:44.706Z</time></trkpt><trkpt lat="45.5315347" lon="10.0542286"><ele>137.0</ele><time>2026-04-27T14:39:45.709Z</time></trkpt><trkpt lat="45.5314177" lon="10.0539179"><ele>137.0</ele><time>2026-04-27T14:39:46.711Z</time></trkpt><trkpt lat="45.5313268" lon="10.0536093"><ele>137.0</ele><time>2026-04-27T14:39:47.711Z</time></trkpt><trkpt lat="45.5312451" lon="10.0532994"><ele>137.0</ele><time>2026-04-27T14:39:48.705Z</time></trkpt><trkpt lat="45.5311594" lon="10.0529804"><ele>137.0</ele><time>2026-04-27T14:39:49.714Z</time></trkpt><trkpt lat="45.5310915" lon="10.0526766"><ele>137.0</ele><time>2026-04-27T14:39:50.726Z</time></trkpt><trkpt lat="45.5310141" lon="10.0523776"><ele>137.0</ele><time>2026-04-27T14:39:51.707Z</time></trkpt><trkpt lat="45.5309335" lon="10.0520756"><ele>137.0</ele><time>2026-04-27T14:39:52.71Z</time></trkpt><trkpt lat="45.5308545" lon="10.051771"><ele>137.0</ele><time>2026-04-27T14:39:53.709Z</time></trkpt><trkpt lat="45.5307761" lon="10.0514641"><ele>137.0</ele><time>2026-04-27T14:39:54.698Z</time></trkpt><trkpt lat="45.530695" lon="10.0511526"><ele>137.0</ele><time>2026-04-27T14:39:55.706Z</time></trkpt><trkpt lat="45.5306144" lon="10.050843"><ele>137.5</ele><time>2026-04-27T14:39:56.708Z</time></trkpt><trkpt lat="45.5305345" lon="10.0505327"><ele>138.0</ele><time>2026-04-27T14:39:57.704Z</time></trkpt><trkpt lat="45.5304538" lon="10.0502158"><ele>137.0</ele><time>2026-04-27T14:39:58.704Z</time></trkpt><trkpt lat="45.5303729" lon="10.0498964"><ele>136.0</ele><time>2026-04-27T14:39:59.716Z</time></trkpt><trkpt lat="45.5302883" lon="10.0495706"><ele>136.0</ele><time>2026-04-27T14:40:00.714Z</time></trkpt><trkpt lat="45.5302081" lon="10.0492464"><ele>136.0</ele><time>2026-04-27T14:40:01.707Z</time></trkpt><trkpt lat="45.5301273" lon="10.0489284"><ele>136.0</ele><time>2026-04-27T14:40:02.71Z</time></trkpt><trkpt lat="45.5300374" lon="10.0485999"><ele>136.0</ele><time>2026-04-27T14:40:03.701Z</time></trkpt><trkpt lat="45.5299496" lon="10.0482752"><ele>136.5</ele><time>2026-04-27T14:40:04.717Z</time></trkpt><trkpt lat="45.5298651" lon="10.0479433"><ele>137.0</ele><time>2026-04-27T14:40:05.714Z</time></trkpt><trkpt lat="45.529781" lon="10.0475991"><ele>137.0</ele><time>2026-04-27T14:40:06.703Z</time></trkpt><trkpt lat="45.5296864" lon="10.0472649"><ele>137.0</ele><time>2026-04-27T14:40:07.709Z</time></trkpt><trkpt lat="45.5295883" lon="10.0469282"><ele>137.0</ele><time>2026-04-27T14:40:08.7Z</time></trkpt><trkpt lat="45.5294964" lon="10.046602"><ele>137.0</ele><time>2026-04-27T14:40:09.702Z</time></trkpt><trkpt lat="45.5294107" lon="10.0462622"><ele>137.0</ele><time>2026-04-27T14:40:10.713Z</time></trkpt><trkpt lat="45.5293224" lon="10.04592"><ele>137.0</ele><time>2026-04-27T14:40:11.705Z</time></trkpt><trkpt lat="45.5292357" lon="10.0455745"><ele>136.5</ele><time>2026-04-27T14:40:12.707Z</time></trkpt><trkpt lat="45.5291458" lon="10.045222"><ele>136.0</ele><time>2026-04-27T14:40:13.716Z</time></trkpt><trkpt lat="45.529051" lon="10.0448738"><ele>136.0</ele><time>2026-04-27T14:40:14.711Z</time></trkpt><trkpt lat="45.5289566" lon="10.0445267"><ele>136.0</ele><time>2026-04-27T14:40:15.717Z</time></trkpt><trkpt lat="45.5288648" lon="10.0441759"><ele>136.5</ele><time>2026-04-27T14:40:16.709Z</time></trkpt><trkpt lat="45.528774" lon="10.043824"><ele>137.0</ele><time>2026-04-27T14:40:17.702Z</time></trkpt><trkpt lat="45.5286867" lon="10.0434757"><ele>136.0</ele><time>2026-04-27T14:40:18.705Z</time></trkpt><trkpt lat="45.5285987" lon="10.0431295"><ele>135.0</ele><time>2026-04-27T14:40:19.709Z</time></trkpt><trkpt lat="45.5285076" lon="10.0427842"><ele>135.5</ele><time>2026-04-27T14:40:20.712Z</time></trkpt><trkpt lat="45.528417" lon="10.042437"><ele>136.0</ele><time>2026-04-27T14:40:21.711Z</time></trkpt><trkpt lat="45.5283254" lon="10.0420996"><ele>136.0</ele><time>2026-04-27T14:40:22.705Z</time></trkpt><trkpt lat="45.5282339" lon="10.0417521"><ele>136.0</ele><time>2026-04-27T14:40:23.712Z</time></trkpt><trkpt lat="45.5281498" lon="10.0414092"><ele>136.0</ele><time>2026-04-27T14:40:24.72Z</time></trkpt><trkpt lat="45.528066" lon="10.0410713"><ele>136.0</ele><time>2026-04-27T14:40:25.712Z</time></trkpt><trkpt lat="45.5279791" lon="10.0407378"><ele>136.0</ele><time>2026-04-27T14:40:26.7Z</time></trkpt><trkpt lat="45.5278922" lon="10.040401"><ele>136.0</ele><time>2026-04-27T14:40:27.714Z</time></trkpt><trkpt lat="45.527798" lon="10.0400557"><ele>136.0</ele><time>2026-04-27T14:40:28.703Z</time></trkpt><trkpt lat="45.527712" lon="10.0397208"><ele>136.0</ele><time>2026-04-27T14:40:29.703Z</time></trkpt><trkpt lat="45.527625" lon="10.0393812"><ele>136.0</ele><time>2026-04-27T14:40:30.706Z</time></trkpt><trkpt lat="45.5275317" lon="10.0390355"><ele>136.0</ele><time>2026-04-27T14:40:31.707Z</time></trkpt><trkpt lat="45.5274358" lon="10.0386965"><ele>136.0</ele><time>2026-04-27T14:40:32.718Z</time></trkpt><trkpt lat="45.5273482" lon="10.0383526"><ele>136.0</ele><time>2026-04-27T14:40:33.724Z</time></trkpt><trkpt lat="45.5272621" lon="10.0380157"><ele>136.0</ele><time>2026-04-27T14:40:34.696Z</time></trkpt><trkpt lat="45.5271761" lon="10.0376794"><ele>136.0</ele><time>2026-04-27T14:40:35.703Z</time></trkpt><trkpt lat="45.5270906" lon="10.0373467"><ele>136.5</ele><time>2026-04-27T14:40:36.702Z</time></trkpt><trkpt lat="45.5270052" lon="10.0370131"><ele>137.0</ele><time>2026-04-27T14:40:37.709Z</time></trkpt><trkpt lat="45.5269195" lon="10.0366807"><ele>136.5</ele><time>2026-04-27T14:40:38.71Z</time></trkpt><trkpt lat="45.5268306" lon="10.0363566"><ele>136.0</ele><time>2026-04-27T14:40:39.717Z</time></trkpt><trkpt lat="45.5267495" lon="10.036024"><ele>135.5</ele><time>2026-04-27T14:40:40.716Z</time></trkpt><trkpt lat="45.5266638" lon="10.03569"><ele>135.0</ele><time>2026-04-27T14:40:41.713Z</time></trkpt><trkpt lat="45.5265762" lon="10.0353622"><ele>135.0</ele><time>2026-04-27T14:40:42.706Z</time></trkpt><trkpt lat="45.5264873" lon="10.0350329"><ele>135.0</ele><time>2026-04-27T14:40:43.713Z</time></trkpt><trkpt lat="45.5264003" lon="10.0347027"><ele>135.0</ele><time>2026-04-27T14:40:44.717Z</time></trkpt><trkpt lat="45.5263129" lon="10.0343692"><ele>135.0</ele><time>2026-04-27T14:40:45.712Z</time></trkpt><trkpt lat="45.5262245" lon="10.0340344"><ele>135.0</ele><time>2026-04-27T14:40:46.709Z</time></trkpt><trkpt lat="45.5261393" lon="10.0336941"><ele>135.0</ele><time>2026-04-27T14:40:47.707Z</time></trkpt><trkpt lat="45.5260495" lon="10.0333529"><ele>134.5</ele><time>2026-04-27T14:40:48.713Z</time></trkpt><trkpt lat="45.52596" lon="10.0330097"><ele>134.0</ele><time>2026-04-27T14:40:49.709Z</time></trkpt><trkpt lat="45.5258691" lon="10.0326621"><ele>133.5</ele><time>2026-04-27T14:40:50.715Z</time></trkpt><trkpt lat="45.5257783" lon="10.0323118"><ele>133.0</ele><time>2026-04-27T14:40:51.739Z</time></trkpt><trkpt lat="45.5256887" lon="10.031958"><ele>133.0</ele><time>2026-04-27T14:40:52.7Z</time></trkpt><trkpt lat="45.5255972" lon="10.0316022"><ele>133.0</ele><time>2026-04-27T14:40:53.701Z</time></trkpt><trkpt lat="45.5255063" lon="10.0312466"><ele>133.0</ele><time>2026-04-27T14:40:54.708Z</time></trkpt><trkpt lat="45.5254157" lon="10.0308903"><ele>133.0</ele><time>2026-04-27T14:40:55.705Z</time></trkpt><trkpt lat="45.525326" lon="10.0305359"><ele>133.0</ele><time>2026-04-27T14:40:56.719Z</time></trkpt><trkpt lat="45.5252375" lon="10.030188"><ele>133.0</ele><time>2026-04-27T14:40:57.698Z</time></trkpt><trkpt lat="45.5251536" lon="10.0298337"><ele>133.5</ele><time>2026-04-27T14:40:58.711Z</time></trkpt><trkpt lat="45.5250716" lon="10.029482"><ele>134.0</ele><time>2026-04-27T14:40:59.706Z</time></trkpt><trkpt lat="45.5249867" lon="10.0291322"><ele>134.5</ele><time>2026-04-27T14:41:00.712Z</time></trkpt><trkpt lat="45.5249129" lon="10.0287941"><ele>135.0</ele><time>2026-04-27T14:41:01.713Z</time></trkpt><trkpt lat="45.524834" lon="10.0284581"><ele>135.0</ele><time>2026-04-27T14:41:02.703Z</time></trkpt><trkpt lat="45.5247582" lon="10.0281198"><ele>135.0</ele><time>2026-04-27T14:41:03.704Z</time></trkpt><trkpt lat="45.5246903" lon="10.0277805"><ele>135.0</ele><time>2026-04-27T14:41:04.71Z</time></trkpt><trkpt lat="45.5246175" lon="10.0274397"><ele>135.0</ele><time>2026-04-27T14:41:05.717Z</time></trkpt><trkpt lat="45.5245469" lon="10.027095"><ele>134.5</ele><time>2026-04-27T14:41:06.704Z</time></trkpt><trkpt lat="45.5244788" lon="10.0267505"><ele>134.0</ele><time>2026-04-27T14:41:07.738Z</time></trkpt><trkpt lat="45.5244147" lon="10.0264112"><ele>134.0</ele><time>2026-04-27T14:41:08.704Z</time></trkpt><trkpt lat="45.5243572" lon="10.0260651"><ele>134.0</ele><time>2026-04-27T14:41:09.699Z</time></trkpt><trkpt lat="45.5243031" lon="10.0257172"><ele>134.0</ele><time>2026-04-27T14:41:10.709Z</time></trkpt><trkpt lat="45.52425" lon="10.0253678"><ele>134.0</ele><time>2026-04-27T14:41:11.729Z</time></trkpt><trkpt lat="45.5241981" lon="10.0250205"><ele>134.5</ele><time>2026-04-27T14:41:12.716Z</time></trkpt><trkpt lat="45.5241487" lon="10.0246719"><ele>135.0</ele><time>2026-04-27T14:41:13.703Z</time></trkpt><trkpt lat="45.5241019" lon="10.024326"><ele>134.0</ele><time>2026-04-27T14:41:14.723Z</time></trkpt><trkpt lat="45.5240611" lon="10.0239769"><ele>133.0</ele><time>2026-04-27T14:41:15.709Z</time></trkpt><trkpt lat="45.5240257" lon="10.0236288"><ele>133.0</ele><time>2026-04-27T14:41:16.712Z</time></trkpt><trkpt lat="45.5239928" lon="10.0232766"><ele>133.0</ele><time>2026-04-27T14:41:17.723Z</time></trkpt><trkpt lat="45.5239598" lon="10.0229146"><ele>133.0</ele><time>2026-04-27T14:41:18.708Z</time></trkpt><trkpt lat="45.5239247" lon="10.022551"><ele>133.0</ele><time>2026-04-27T14:41:19.711Z</time></trkpt><trkpt lat="45.5238894" lon="10.0221956"><ele>133.0</ele><time>2026-04-27T14:41:20.697Z</time></trkpt><trkpt lat="45.5238516" lon="10.0218385"><ele>133.0</ele><time>2026-04-27T14:41:21.712Z</time></trkpt><trkpt lat="45.5238221" lon="10.0214835"><ele>133.0</ele><time>2026-04-27T14:41:22.715Z</time></trkpt><trkpt lat="45.5237928" lon="10.0211338"><ele>133.0</ele><time>2026-04-27T14:41:23.725Z</time></trkpt><trkpt lat="45.5237671" lon="10.0207903"><ele>133.0</ele><time>2026-04-27T14:41:24.697Z</time></trkpt><trkpt lat="45.5237458" lon="10.0204543"><ele>133.0</ele><time>2026-04-27T14:41:25.708Z</time></trkpt><trkpt lat="45.5237262" lon="10.0201252"><ele>133.0</ele><time>2026-04-27T14:41:26.711Z</time></trkpt><trkpt lat="45.5237106" lon="10.0198057"><ele>133.0</ele><time>2026-04-27T14:41:27.706Z</time></trkpt><trkpt lat="45.5236952" lon="10.0194939"><ele>133.0</ele><time>2026-04-27T14:41:28.723Z</time></trkpt><trkpt lat="45.5236825" lon="10.0191907"><ele>133.0</ele><time>2026-04-27T14:41:29.701Z</time></trkpt><trkpt lat="45.523675" lon="10.0188881"><ele>133.0</ele><time>2026-04-27T14:41:30.71Z</time></trkpt><trkpt lat="45.5236669" lon="10.0185951"><ele>133.0</ele><time>2026-04-27T14:41:31.711Z</time></trkpt><trkpt lat="45.5236667" lon="10.0182984"><ele>133.0</ele><time>2026-04-27T14:41:32.708Z</time></trkpt><trkpt lat="45.5236645" lon="10.0180002"><ele>133.0</ele><time>2026-04-27T14:41:33.709Z</time></trkpt><trkpt lat="45.5236569" lon="10.017699"><ele>133.0</ele><time>2026-04-27T14:41:34.698Z</time></trkpt><trkpt lat="45.523655" lon="10.0173957"><ele>133.33333333333334</ele><time>2026-04-27T14:41:35.724Z</time></trkpt><trkpt lat="45.5236565" lon="10.0170825"><ele>133.66666666666666</ele><time>2026-04-27T14:41:36.725Z</time></trkpt><trkpt lat="45.5236566" lon="10.0167757"><ele>134.0</ele><time>2026-04-27T14:41:37.709Z</time></trkpt><trkpt lat="45.5236561" lon="10.0164702"><ele>134.0</ele><time>2026-04-27T14:41:38.711Z</time></trkpt><trkpt lat="45.5236527" lon="10.0161609"><ele>134.0</ele><time>2026-04-27T14:41:39.717Z</time></trkpt><trkpt lat="45.5236479" lon="10.0158507"><ele>134.0</ele><time>2026-04-27T14:41:40.709Z</time></trkpt><trkpt lat="45.5236419" lon="10.0155439"><ele>134.0</ele><time>2026-04-27T14:41:41.707Z</time></trkpt><trkpt lat="45.5236386" lon="10.0152357"><ele>134.0</ele><time>2026-04-27T14:41:42.71Z</time></trkpt><trkpt lat="45.5236385" lon="10.0149284"><ele>134.0</ele><time>2026-04-27T14:41:43.737Z</time></trkpt><trkpt lat="45.52364" lon="10.0146241"><ele>134.0</ele><time>2026-04-27T14:41:44.713Z</time></trkpt><trkpt lat="45.5236408" lon="10.0143221"><ele>134.0</ele><time>2026-04-27T14:41:45.721Z</time></trkpt><trkpt lat="45.5236429" lon="10.0140227"><ele>134.0</ele><time>2026-04-27T14:41:46.703Z</time></trkpt><trkpt lat="45.5236457" lon="10.0137307"><ele>134.0</ele><time>2026-04-27T14:41:47.705Z</time></trkpt><trkpt lat="45.5236521" lon="10.0134311"><ele>134.0</ele><time>2026-04-27T14:41:48.72Z</time></trkpt><trkpt lat="45.5236559" lon="10.0131403"><ele>134.0</ele><time>2026-04-27T14:41:49.712Z</time></trkpt><trkpt lat="45.5236572" lon="10.0128469"><ele>134.0</ele><time>2026-04-27T14:41:50.709Z</time></trkpt><trkpt lat="45.5236591" lon="10.012561"><ele>134.0</ele><time>2026-04-27T14:41:51.716Z</time></trkpt><trkpt lat="45.5236619" lon="10.0122757"><ele>134.0</ele><time>2026-04-27T14:41:52.711Z</time></trkpt><trkpt lat="45.5236645" lon="10.0119934"><ele>134.0</ele><time>2026-04-27T14:41:53.718Z</time></trkpt><trkpt lat="45.5236636" lon="10.0117087"><ele>134.0</ele><time>2026-04-27T14:41:54.709Z</time></trkpt><trkpt lat="45.5236644" lon="10.0114273"><ele>134.0</ele><time>2026-04-27T14:41:55.705Z</time></trkpt><trkpt lat="45.5236624" lon="10.0111484"><ele>134.33333333333331</ele><time>2026-04-27T14:41:56.708Z</time></trkpt><trkpt lat="45.5236605" lon="10.0108687"><ele>134.66666666666666</ele><time>2026-04-27T14:41:57.722Z</time></trkpt><trkpt lat="45.5236609" lon="10.0105831"><ele>135.0</ele><time>2026-04-27T14:41:58.714Z</time></trkpt><trkpt lat="45.5236589" lon="10.0103053"><ele>135.33333333333334</ele><time>2026-04-27T14:41:59.707Z</time></trkpt><trkpt lat="45.5236586" lon="10.0100232"><ele>135.66666666666669</ele><time>2026-04-27T14:42:00.709Z</time></trkpt><trkpt lat="45.5236581" lon="10.0097176"><ele>136.0</ele><time>2026-04-27T14:42:01.7Z</time></trkpt><trkpt lat="45.5236626" lon="10.0093941"><ele>134.0</ele><time>2026-04-27T14:42:02.695Z</time></trkpt><trkpt lat="45.5236643" lon="10.0090575"><ele>132.0</ele><time>2026-04-27T14:42:03.704Z</time></trkpt><trkpt lat="45.5236663" lon="10.0087058"><ele>132.0</ele><time>2026-04-27T14:42:04.706Z</time></trkpt><trkpt lat="45.5236645" lon="10.0083439"><ele>132.0</ele><time>2026-04-27T14:42:05.707Z</time></trkpt><trkpt lat="45.5236668" lon="10.0079697"><ele>132.0</ele><time>2026-04-27T14:42:06.706Z</time></trkpt><trkpt lat="45.5236656" lon="10.0075899"><ele>132.0</ele><time>2026-04-27T14:42:07.711Z</time></trkpt><trkpt lat="45.5236643" lon="10.0072099"><ele>132.0</ele><time>2026-04-27T14:42:08.712Z</time></trkpt><trkpt lat="45.5236621" lon="10.0068364"><ele>132.0</ele><time>2026-04-27T14:42:09.7Z</time></trkpt><trkpt lat="45.5236669" lon="10.0064617"><ele>133.5</ele><time>2026-04-27T14:42:10.704Z</time></trkpt><trkpt lat="45.5236695" lon="10.0060832"><ele>135.0</ele><time>2026-04-27T14:42:11.71Z</time></trkpt><trkpt lat="45.5236684" lon="10.0057111"><ele>135.0</ele><time>2026-04-27T14:42:12.712Z</time></trkpt><trkpt lat="45.5236696" lon="10.0053364"><ele>135.0</ele><time>2026-04-27T14:42:13.713Z</time></trkpt><trkpt lat="45.5236716" lon="10.0049679"><ele>135.0</ele><time>2026-04-27T14:42:14.715Z</time></trkpt><trkpt lat="45.523668" lon="10.004606"><ele>135.0</ele><time>2026-04-27T14:42:15.725Z</time></trkpt><trkpt lat="45.5236657" lon="10.0042415"><ele>134.0</ele><time>2026-04-27T14:42:16.713Z</time></trkpt><trkpt lat="45.523664" lon="10.0038866"><ele>133.0</ele><time>2026-04-27T14:42:17.698Z</time></trkpt><trkpt lat="45.5236624" lon="10.0035262"><ele>133.0</ele><time>2026-04-27T14:42:18.711Z</time></trkpt><trkpt lat="45.5236645" lon="10.0031648"><ele>133.0</ele><time>2026-04-27T14:42:19.709Z</time></trkpt><trkpt lat="45.5236638" lon="10.0028085"><ele>134.0</ele><time>2026-04-27T14:42:20.708Z</time></trkpt><trkpt lat="45.5236653" lon="10.0024481"><ele>135.0</ele><time>2026-04-27T14:42:21.703Z</time></trkpt><trkpt lat="45.5236704" lon="10.0020879"><ele>135.0</ele><time>2026-04-27T14:42:22.715Z</time></trkpt><trkpt lat="45.5236705" lon="10.001729"><ele>135.0</ele><time>2026-04-27T14:42:23.707Z</time></trkpt><trkpt lat="45.5236727" lon="10.0013708"><ele>134.5</ele><time>2026-04-27T14:42:24.721Z</time></trkpt><trkpt lat="45.5236833" lon="10.0010153"><ele>134.0</ele><time>2026-04-27T14:42:25.708Z</time></trkpt><trkpt lat="45.5236898" lon="10.0006591"><ele>134.0</ele><time>2026-04-27T14:42:26.695Z</time></trkpt><trkpt lat="45.5236914" lon="10.0003091"><ele>134.0</ele><time>2026-04-27T14:42:27.719Z</time></trkpt><trkpt lat="45.5236908" lon="9.9999585"><ele>134.0</ele><time>2026-04-27T14:42:28.723Z</time></trkpt><trkpt lat="45.5236952" lon="9.9996109"><ele>134.0</ele><time>2026-04-27T14:42:29.707Z</time></trkpt><trkpt lat="45.5236987" lon="9.9992599"><ele>134.0</ele><time>2026-04-27T14:42:30.713Z</time></trkpt><trkpt lat="45.5236989" lon="9.998905"><ele>134.0</ele><time>2026-04-27T14:42:31.7Z</time></trkpt><trkpt lat="45.5237023" lon="9.9985513"><ele>133.5</ele><time>2026-04-27T14:42:32.702Z</time></trkpt><trkpt lat="45.5237039" lon="9.9981932"><ele>133.0</ele><time>2026-04-27T14:42:33.736Z</time></trkpt><trkpt lat="45.5237078" lon="9.9978338"><ele>134.0</ele><time>2026-04-27T14:42:34.711Z</time></trkpt><trkpt lat="45.5237127" lon="9.9974794"><ele>135.0</ele><time>2026-04-27T14:42:35.714Z</time></trkpt><trkpt lat="45.5237157" lon="9.9971223"><ele>135.0</ele><time>2026-04-27T14:42:36.712Z</time></trkpt><trkpt lat="45.523723" lon="9.9967768"><ele>135.0</ele><time>2026-04-27T14:42:37.706Z</time></trkpt><trkpt lat="45.5237247" lon="9.9964326"><ele>134.0</ele><time>2026-04-27T14:42:38.71Z</time></trkpt><trkpt lat="45.5237119" lon="9.9960872"><ele>133.0</ele><time>2026-04-27T14:42:39.698Z</time></trkpt><trkpt lat="45.5237117" lon="9.9957488"><ele>133.0</ele><time>2026-04-27T14:42:40.708Z</time></trkpt><trkpt lat="45.5237109" lon="9.9954022"><ele>133.0</ele><time>2026-04-27T14:42:41.716Z</time></trkpt><trkpt lat="45.5237209" lon="9.995064"><ele>133.0</ele><time>2026-04-27T14:42:42.71Z</time></trkpt><trkpt lat="45.5237317" lon="9.9947214"><ele>133.0</ele><time>2026-04-27T14:42:43.714Z</time></trkpt><trkpt lat="45.5237444" lon="9.9943871"><ele>133.0</ele><time>2026-04-27T14:42:44.705Z</time></trkpt><trkpt lat="45.5237547" lon="9.9940473"><ele>133.0</ele><time>2026-04-27T14:42:45.713Z</time></trkpt><trkpt lat="45.523761" lon="9.9936922"><ele>133.5</ele><time>2026-04-27T14:42:46.705Z</time></trkpt><trkpt lat="45.5237681" lon="9.9933272"><ele>134.0</ele><time>2026-04-27T14:42:47.709Z</time></trkpt><trkpt lat="45.5237741" lon="9.9929591"><ele>134.0</ele><time>2026-04-27T14:42:48.71Z</time></trkpt><trkpt lat="45.5237833" lon="9.9925858"><ele>134.0</ele><time>2026-04-27T14:42:49.71Z</time></trkpt><trkpt lat="45.5237847" lon="9.9922085"><ele>134.0</ele><time>2026-04-27T14:42:50.715Z</time></trkpt><trkpt lat="45.523791" lon="9.9918383"><ele>134.0</ele><time>2026-04-27T14:42:51.719Z</time></trkpt><trkpt lat="45.5237979" lon="9.9914707"><ele>134.0</ele><time>2026-04-27T14:42:52.709Z</time></trkpt><trkpt lat="45.5238012" lon="9.9911265"><ele>134.0</ele><time>2026-04-27T14:42:53.716Z</time></trkpt><trkpt lat="45.5238019" lon="9.9907904"><ele>134.0</ele><time>2026-04-27T14:42:54.713Z</time></trkpt><trkpt lat="45.523806" lon="9.9904738"><ele>134.0</ele><time>2026-04-27T14:42:55.713Z</time></trkpt><trkpt lat="45.52381" lon="9.9901673"><ele>134.0</ele><time>2026-04-27T14:42:56.715Z</time></trkpt><trkpt lat="45.5238128" lon="9.9898605"><ele>133.66666666666666</ele><time>2026-04-27T14:42:57.71Z</time></trkpt><trkpt lat="45.5238229" lon="9.9895615"><ele>133.33333333333334</ele><time>2026-04-27T14:42:58.712Z</time></trkpt><trkpt lat="45.5238379" lon="9.9892622"><ele>133.0</ele><time>2026-04-27T14:42:59.697Z</time></trkpt><trkpt lat="45.5238537" lon="9.988973"><ele>133.0</ele><time>2026-04-27T14:43:00.709Z</time></trkpt><trkpt lat="45.5238689" lon="9.9886909"><ele>133.0</ele><time>2026-04-27T14:43:01.724Z</time></trkpt><trkpt lat="45.5238782" lon="9.9884188"><ele>133.0</ele><time>2026-04-27T14:43:02.715Z</time></trkpt><trkpt lat="45.5238826" lon="9.9881598"><ele>133.0</ele><time>2026-04-27T14:43:03.717Z</time></trkpt><trkpt lat="45.5238813" lon="9.9879119"><ele>133.0</ele><time>2026-04-27T14:43:04.709Z</time></trkpt><trkpt lat="45.5238792" lon="9.9876658"><ele>133.0</ele><time>2026-04-27T14:43:05.718Z</time></trkpt><trkpt lat="45.5238816" lon="9.9874297"><ele>133.66666666666669</ele><time>2026-04-27T14:43:06.717Z</time></trkpt><trkpt lat="45.5238891" lon="9.9871986"><ele>134.33333333333334</ele><time>2026-04-27T14:43:07.698Z</time></trkpt><trkpt lat="45.52389" lon="9.986965"><ele>135.0</ele><time>2026-04-27T14:43:08.712Z</time></trkpt><trkpt lat="45.5238919" lon="9.9867365"><ele>134.5</ele><time>2026-04-27T14:43:09.711Z</time></trkpt><trkpt lat="45.5238966" lon="9.9865311"><ele>134.0</ele><time>2026-04-27T14:43:10.696Z</time></trkpt><trkpt lat="45.5239046" lon="9.9863575"><ele>133.5</ele><time>2026-04-27T14:43:11.7Z</time></trkpt><trkpt lat="45.5239122" lon="9.9862071"><ele>133.0</ele><time>2026-04-27T14:43:12.714Z</time></trkpt><trkpt lat="45.5239236" lon="9.986077"><ele>133.0</ele><time>2026-04-27T14:43:13.72Z</time></trkpt><trkpt lat="45.5239267" lon="9.9859658"><ele>133.0</ele><time>2026-04-27T14:43:14.707Z</time></trkpt><trkpt lat="45.5239526" lon="9.9857981"><ele>133.0</ele><time>2026-04-27T14:43:16.717Z</time></trkpt><trkpt lat="45.5239846" lon="9.9857031"><ele>133.0</ele><time>2026-04-27T14:43:17.715Z</time></trkpt><trkpt lat="45.5240186" lon="9.9856101"><ele>133.0</ele><time>2026-04-27T14:43:18.704Z</time></trkpt><trkpt lat="45.5240594" lon="9.9855033"><ele>133.0</ele><time>2026-04-27T14:43:19.708Z</time></trkpt><trkpt lat="45.5240727" lon="9.9853802"><ele>133.0</ele><time>2026-04-27T14:43:20.7Z</time></trkpt><trkpt lat="45.5240597" lon="9.9852216"><ele>133.0</ele><time>2026-04-27T14:43:21.707Z</time></trkpt><trkpt lat="45.5240227" lon="9.9850819"><ele>133.0</ele><time>2026-04-27T14:43:22.698Z</time></trkpt><trkpt lat="45.5239556" lon="9.9849599"><ele>133.0</ele><time>2026-04-27T14:43:23.732Z</time></trkpt><trkpt lat="45.5238933" lon="9.9848526"><ele>133.0</ele><time>2026-04-27T14:43:24.712Z</time></trkpt><trkpt lat="45.5238264" lon="9.9847796"><ele>133.0</ele><time>2026-04-27T14:43:25.698Z</time></trkpt><trkpt lat="45.5237589" lon="9.9847542"><ele>133.0</ele><time>2026-04-27T14:43:26.699Z</time></trkpt><trkpt lat="45.523686" lon="9.9847272"><ele>133.0</ele><time>2026-04-27T14:43:27.714Z</time></trkpt><trkpt lat="45.5235929" lon="9.9847"><ele>133.0</ele><time>2026-04-27T14:43:28.711Z</time></trkpt><trkpt lat="45.5234869" lon="9.9846733"><ele>133.0</ele><time>2026-04-27T14:43:29.703Z</time></trkpt><trkpt lat="45.5233039" lon="9.9847392"><ele>133.0</ele><time>2026-04-27T14:43:30.711Z</time></trkpt><trkpt lat="45.5231983" lon="9.9848605"><ele>133.0</ele><time>2026-04-27T14:43:31.699Z</time></trkpt><trkpt lat="45.5231067" lon="9.9849934"><ele>133.0</ele><time>2026-04-27T14:43:32.698Z</time></trkpt><trkpt lat="45.5230266" lon="9.9850748"><ele>133.0</ele><time>2026-04-27T14:43:33.703Z</time></trkpt><trkpt lat="45.5229363" lon="9.985097"><ele>133.0</ele><time>2026-04-27T14:43:34.706Z</time></trkpt><trkpt lat="45.5228144" lon="9.9850936"><ele>133.0</ele><time>2026-04-27T14:43:35.707Z</time></trkpt><trkpt lat="45.5227049" lon="9.9850875"><ele>133.0</ele><time>2026-04-27T14:43:36.71Z</time></trkpt><trkpt lat="45.5225893" lon="9.9850665"><ele>133.0</ele><time>2026-04-27T14:43:37.703Z</time></trkpt><trkpt lat="45.5224869" lon="9.9850436"><ele>132.83333333333334</ele><time>2026-04-27T14:43:38.735Z</time></trkpt><trkpt lat="45.5224011" lon="9.9850089"><ele>132.66666666666669</ele><time>2026-04-27T14:43:39.704Z</time></trkpt><trkpt lat="45.5223273" lon="9.9849384"><ele>132.5</ele><time>2026-04-27T14:43:40.717Z</time></trkpt><trkpt lat="45.5222775" lon="9.984825"><ele>132.33333333333334</ele><time>2026-04-27T14:43:41.708Z</time></trkpt><trkpt lat="45.5222164" lon="9.9847645"><ele>132.16666666666666</ele><time>2026-04-27T14:43:42.731Z</time></trkpt><trkpt lat="45.5221528" lon="9.984755"><ele>132.0</ele><time>2026-04-27T14:43:43.717Z</time></trkpt><trkpt lat="45.5220449" lon="9.9848042"><ele>131.6</ele><time>2026-04-27T14:43:45.707Z</time></trkpt><trkpt lat="45.5219836" lon="9.984871"><ele>131.2</ele><time>2026-04-27T14:43:46.703Z</time></trkpt><trkpt lat="45.5219132" lon="9.9849238"><ele>130.8</ele><time>2026-04-27T14:43:47.714Z</time></trkpt><trkpt lat="45.5218347" lon="9.9849622"><ele>130.4</ele><time>2026-04-27T14:43:48.715Z</time></trkpt><trkpt lat="45.5217312" lon="9.9849398"><ele>130.0</ele><time>2026-04-27T14:43:49.724Z</time></trkpt><trkpt lat="45.5216094" lon="9.9849088"><ele>130.0</ele><time>2026-04-27T14:43:50.709Z</time></trkpt><trkpt lat="45.5214729" lon="9.9848768"><ele>130.0</ele><time>2026-04-27T14:43:51.71Z</time></trkpt><trkpt lat="45.5213312" lon="9.9848442"><ele>130.0</ele><time>2026-04-27T14:43:52.724Z</time></trkpt><trkpt lat="45.5212055" lon="9.9848241"><ele>130.0</ele><time>2026-04-27T14:43:53.709Z</time></trkpt><trkpt lat="45.5210673" lon="9.9847938"><ele>130.0</ele><time>2026-04-27T14:43:54.715Z</time></trkpt><trkpt lat="45.5209375" lon="9.984764"><ele>130.0</ele><time>2026-04-27T14:43:55.715Z</time></trkpt><trkpt lat="45.5208105" lon="9.9847321"><ele>130.0</ele><time>2026-04-27T14:43:56.714Z</time></trkpt><trkpt lat="45.5206875" lon="9.9847223"><ele>130.0</ele><time>2026-04-27T14:43:57.713Z</time></trkpt><trkpt lat="45.5205651" lon="9.9846952"><ele>130.0</ele><time>2026-04-27T14:43:58.713Z</time></trkpt><trkpt lat="45.5204499" lon="9.9846665"><ele>130.0</ele><time>2026-04-27T14:43:59.706Z</time></trkpt><trkpt lat="45.5203412" lon="9.9846387"><ele>130.0</ele><time>2026-04-27T14:44:00.705Z</time></trkpt><trkpt lat="45.5202391" lon="9.9846193"><ele>130.0</ele><time>2026-04-27T14:44:01.691Z</time></trkpt><trkpt lat="45.5201434" lon="9.9845936"><ele>130.0</ele><time>2026-04-27T14:44:02.717Z</time></trkpt><trkpt lat="45.52005" lon="9.9845716"><ele>130.0</ele><time>2026-04-27T14:44:03.723Z</time></trkpt><trkpt lat="45.5199719" lon="9.9845454"><ele>130.0</ele><time>2026-04-27T14:44:04.718Z</time></trkpt><trkpt lat="45.5198728" lon="9.9845296"><ele>130.0</ele><time>2026-04-27T14:44:05.702Z</time></trkpt><trkpt lat="45.5197663" lon="9.9845143"><ele>130.0</ele><time>2026-04-27T14:44:06.707Z</time></trkpt><trkpt lat="45.5196512" lon="9.9844875"><ele>130.0</ele><time>2026-04-27T14:44:07.716Z</time></trkpt><trkpt lat="45.5195383" lon="9.9844577"><ele>130.0</ele><time>2026-04-27T14:44:08.712Z</time></trkpt><trkpt lat="45.5194233" lon="9.9844144"><ele>130.0</ele><time>2026-04-27T14:44:09.713Z</time></trkpt><trkpt lat="45.5192986" lon="9.9843676"><ele>130.0</ele><time>2026-04-27T14:44:10.721Z</time></trkpt><trkpt lat="45.5191723" lon="9.9843185"><ele>130.0</ele><time>2026-04-27T14:44:11.711Z</time></trkpt><trkpt lat="45.5190573" lon="9.9842276"><ele>130.0</ele><time>2026-04-27T14:44:12.701Z</time></trkpt><trkpt lat="45.5189447" lon="9.9841178"><ele>130.0</ele><time>2026-04-27T14:44:13.71Z</time></trkpt><trkpt lat="45.518839" lon="9.9839766"><ele>130.0</ele><time>2026-04-27T14:44:14.71Z</time></trkpt><trkpt lat="45.5187424" lon="9.9838085"><ele>130.0</ele><time>2026-04-27T14:44:15.705Z</time></trkpt><trkpt lat="45.5186471" lon="9.9836605"><ele>130.0</ele><time>2026-04-27T14:44:16.714Z</time></trkpt><trkpt lat="45.5185622" lon="9.9835216"><ele>130.0</ele><time>2026-04-27T14:44:17.716Z</time></trkpt><trkpt lat="45.518475" lon="9.9833948"><ele>130.0</ele><time>2026-04-27T14:44:18.703Z</time></trkpt><trkpt lat="45.5183754" lon="9.9832849"><ele>130.0</ele><time>2026-04-27T14:44:19.711Z</time></trkpt><trkpt lat="45.5182686" lon="9.9831932"><ele>130.0</ele><time>2026-04-27T14:44:20.743Z</time></trkpt><trkpt lat="45.5181537" lon="9.983106"><ele>130.0</ele><time>2026-04-27T14:44:21.708Z</time></trkpt><trkpt lat="45.5180432" lon="9.9830247"><ele>130.0</ele><time>2026-04-27T14:44:22.704Z</time></trkpt><trkpt lat="45.5179342" lon="9.9829477"><ele>130.0</ele><time>2026-04-27T14:44:23.724Z</time></trkpt><trkpt lat="45.5178248" lon="9.982874"><ele>130.0</ele><time>2026-04-27T14:44:24.702Z</time></trkpt><trkpt lat="45.517726" lon="9.9827943"><ele>130.0</ele><time>2026-04-27T14:44:25.718Z</time></trkpt><trkpt lat="45.5176387" lon="9.9827137"><ele>130.0</ele><time>2026-04-27T14:44:26.716Z</time></trkpt><trkpt lat="45.5175717" lon="9.9826527"><ele>130.0</ele><time>2026-04-27T14:44:27.714Z</time></trkpt><trkpt lat="45.5175092" lon="9.9826196"><ele>130.0</ele><time>2026-04-27T14:44:28.718Z</time></trkpt><trkpt lat="45.5174468" lon="9.9826335"><ele>130.0</ele><time>2026-04-27T14:44:29.713Z</time></trkpt><trkpt lat="45.5173696" lon="9.9826996"><ele>130.0</ele><time>2026-04-27T14:44:30.708Z</time></trkpt><trkpt lat="45.517297" lon="9.9827536"><ele>130.0</ele><time>2026-04-27T14:44:31.727Z</time></trkpt><trkpt lat="45.5172185" lon="9.9827867"><ele>130.0</ele><time>2026-04-27T14:44:32.704Z</time></trkpt><trkpt lat="45.5171075" lon="9.9827888"><ele>130.0</ele><time>2026-04-27T14:44:33.691Z</time></trkpt><trkpt lat="45.5169734" lon="9.9827757"><ele>130.0</ele><time>2026-04-27T14:44:34.704Z</time></trkpt><trkpt lat="45.5168246" lon="9.9827603"><ele>129.75</ele><time>2026-04-27T14:44:35.706Z</time></trkpt><trkpt lat="45.516679" lon="9.9827501"><ele>129.5</ele><time>2026-04-27T14:44:36.707Z</time></trkpt><trkpt lat="45.5165584" lon="9.9827381"><ele>129.25</ele><time>2026-04-27T14:44:37.707Z</time></trkpt><trkpt lat="45.5164512" lon="9.9827339"><ele>129.0</ele><time>2026-04-27T14:44:38.697Z</time></trkpt><trkpt lat="45.5163485" lon="9.9827298"><ele>129.0</ele><time>2026-04-27T14:44:39.705Z</time></trkpt><trkpt lat="45.5162604" lon="9.9827228"><ele>129.0</ele><time>2026-04-27T14:44:40.698Z</time></trkpt><trkpt lat="45.5161877" lon="9.9827232"><ele>129.0</ele><time>2026-04-27T14:44:41.702Z</time></trkpt><trkpt lat="45.5161059" lon="9.9827184"><ele>129.0</ele><time>2026-04-27T14:44:42.712Z</time></trkpt><trkpt lat="45.5160109" lon="9.9826975"><ele>129.0</ele><time>2026-04-27T14:44:43.704Z</time></trkpt><trkpt lat="45.5159058" lon="9.9826805"><ele>129.0</ele><time>2026-04-27T14:44:44.713Z</time></trkpt><trkpt lat="45.5157943" lon="9.9826596"><ele>129.0</ele><time>2026-04-27T14:44:45.716Z</time></trkpt><trkpt lat="45.5156719" lon="9.9826381"><ele>129.0</ele><time>2026-04-27T14:44:46.708Z</time></trkpt><trkpt lat="45.5155415" lon="9.9826165"><ele>129.0</ele><time>2026-04-27T14:44:47.704Z</time></trkpt><trkpt lat="45.5154212" lon="9.98259"><ele>129.0</ele><time>2026-04-27T14:44:48.714Z</time></trkpt><trkpt lat="45.5153032" lon="9.9825753"><ele>129.0</ele><time>2026-04-27T14:44:49.725Z</time></trkpt><trkpt lat="45.51518" lon="9.9825648"><ele>129.0</ele><time>2026-04-27T14:44:50.712Z</time></trkpt><trkpt lat="45.5150657" lon="9.9825638"><ele>129.0</ele><time>2026-04-27T14:44:51.711Z</time></trkpt><trkpt lat="45.514961" lon="9.9825661"><ele>129.0</ele><time>2026-04-27T14:44:52.705Z</time></trkpt><trkpt lat="45.5148703" lon="9.9825722"><ele>129.0</ele><time>2026-04-27T14:44:53.706Z</time></trkpt><trkpt lat="45.5147871" lon="9.9825689"><ele>129.0</ele><time>2026-04-27T14:44:54.722Z</time></trkpt><trkpt lat="45.5147209" lon="9.9825531"><ele>129.0</ele><time>2026-04-27T14:44:55.717Z</time></trkpt><trkpt lat="45.5146528" lon="9.982546"><ele>129.0</ele><time>2026-04-27T14:44:56.712Z</time></trkpt><trkpt lat="45.514559" lon="9.9825264"><ele>129.0</ele><time>2026-04-27T14:44:58.713Z</time></trkpt><trkpt lat="45.5144981" lon="9.9825019"><ele>129.0</ele><time>2026-04-27T14:45:01.708Z</time></trkpt><trkpt lat="45.5145866" lon="9.9825667"><ele>129.0</ele><time>2026-04-27T14:45:07.716Z</time></trkpt><trkpt lat="45.5146537" lon="9.982582"><ele>129.0</ele><time>2026-04-27T14:45:09.72Z</time></trkpt><trkpt lat="45.5147206" lon="9.9825948"><ele>129.0</ele><time>2026-04-27T14:45:11.71Z</time></trkpt><trkpt lat="45.5147946" lon="9.9825967"><ele>129.0</ele><time>2026-04-27T14:45:13.721Z</time></trkpt><trkpt lat="45.5148646" lon="9.9825426"><ele>129.0</ele><time>2026-04-27T14:45:15.716Z</time></trkpt><trkpt lat="45.5148824" lon="9.9824197"><ele>129.0</ele><time>2026-04-27T14:45:17.7Z</time></trkpt><trkpt lat="45.5148933" lon="9.9822524"><ele>129.0</ele><time>2026-04-27T14:45:19.725Z</time></trkpt><trkpt lat="45.5149038" lon="9.9820765"><ele>129.0</ele><time>2026-04-27T14:45:21.709Z</time></trkpt><trkpt lat="45.5149153" lon="9.9819212"><ele>129.0</ele><time>2026-04-27T14:45:23.706Z</time></trkpt><trkpt lat="45.5149235" lon="9.981821"><ele>129.0</ele><time>2026-04-27T14:45:26.731Z</time></trkpt><trkpt lat="45.5149287" lon="9.9817155"><ele>129.0</ele><time>2026-04-27T14:45:32.712Z</time></trkpt><trkpt lat="45.5149427" lon="9.9815781"><ele>129.0</ele><time>2026-04-27T14:45:34.717Z</time></trkpt><trkpt lat="45.5149487" lon="9.9814581"><ele>129.0</ele><time>2026-04-27T14:45:36.715Z</time></trkpt><trkpt lat="45.514959" lon="9.981323"><ele>128.8</ele><time>2026-04-27T14:45:38.71Z</time></trkpt><trkpt lat="45.514971" lon="9.9811613"><ele>128.60000000000002</ele><time>2026-04-27T14:45:40.719Z</time></trkpt><trkpt lat="45.5149816" lon="9.9810048"><ele>128.4</ele><time>2026-04-27T14:45:42.7Z</time></trkpt><trkpt lat="45.5149866" lon="9.9809037"><ele>128.20000000000002</ele><time>2026-04-27T14:45:44.705Z</time></trkpt><trkpt lat="45.5149646" lon="9.9808061"><ele>128.0</ele><time>2026-04-27T14:45:49.711Z</time></trkpt><trkpt lat="45.5148867" lon="9.9807539"><ele>128.0</ele><time>2026-04-27T14:45:52.71Z</time></trkpt><trkpt lat="45.514837" lon="9.9806599"><ele>128.0</ele><time>2026-04-27T14:45:57.718Z</time></trkpt><trkpt lat="45.5147443" lon="9.980616"><ele>128.0</ele><time>2026-04-27T14:45:59.709Z</time></trkpt><trkpt lat="45.5146615" lon="9.9805987"><ele>128.0</ele><time>2026-04-27T14:46:00.721Z</time></trkpt><trkpt lat="45.5145662" lon="9.9805745"><ele>128.0</ele><time>2026-04-27T14:46:01.715Z</time></trkpt><trkpt lat="45.514468" lon="9.9805558"><ele>127.60000000000001</ele><time>2026-04-27T14:46:02.706Z</time></trkpt><trkpt lat="45.5143712" lon="9.980538"><ele>127.20000000000002</ele><time>2026-04-27T14:46:03.713Z</time></trkpt><trkpt lat="45.5142704" lon="9.9805185"><ele>126.8</ele><time>2026-04-27T14:46:04.703Z</time></trkpt><trkpt lat="45.514167" lon="9.980498"><ele>126.4</ele><time>2026-04-27T14:46:05.723Z</time></trkpt><trkpt lat="45.5140579" lon="9.9804713"><ele>126.0</ele><time>2026-04-27T14:46:06.712Z</time></trkpt><trkpt lat="45.5139518" lon="9.9804406"><ele>126.0</ele><time>2026-04-27T14:46:07.708Z</time></trkpt><trkpt lat="45.5138573" lon="9.980414"><ele>126.0</ele><time>2026-04-27T14:46:08.714Z</time></trkpt><trkpt lat="45.5137589" lon="9.9803883"><ele>126.0</ele><time>2026-04-27T14:46:09.705Z</time></trkpt><trkpt lat="45.5136702" lon="9.9803598"><ele>126.0</ele><time>2026-04-27T14:46:10.707Z</time></trkpt><trkpt lat="45.5135746" lon="9.9803357"><ele>126.0</ele><time>2026-04-27T14:46:11.723Z</time></trkpt><trkpt lat="45.5134798" lon="9.9803166"><ele>126.0</ele><time>2026-04-27T14:46:12.716Z</time></trkpt><trkpt lat="45.5133847" lon="9.9803019"><ele>126.0</ele><time>2026-04-27T14:46:13.71Z</time></trkpt><trkpt lat="45.513295" lon="9.9802943"><ele>126.0</ele><time>2026-04-27T14:46:14.714Z</time></trkpt><trkpt lat="45.5132123" lon="9.9802864"><ele>126.0</ele><time>2026-04-27T14:46:15.705Z</time></trkpt><trkpt lat="45.5131325" lon="9.9802757"><ele>126.0</ele><time>2026-04-27T14:46:16.702Z</time></trkpt><trkpt lat="45.5130544" lon="9.9802627"><ele>126.0</ele><time>2026-04-27T14:46:17.704Z</time></trkpt><trkpt lat="45.5129743" lon="9.9802587"><ele>126.0</ele><time>2026-04-27T14:46:18.72Z</time></trkpt><trkpt lat="45.5129067" lon="9.9802555"><ele>126.0</ele><time>2026-04-27T14:46:19.709Z</time></trkpt><trkpt lat="45.5128311" lon="9.9802727"><ele>126.0</ele><time>2026-04-27T14:46:20.697Z</time></trkpt><trkpt lat="45.5127588" lon="9.9802986"><ele>126.0</ele><time>2026-04-27T14:46:21.711Z</time></trkpt><trkpt lat="45.5126976" lon="9.9803211"><ele>126.0</ele><time>2026-04-27T14:46:22.712Z</time></trkpt><trkpt lat="45.5125992" lon="9.9803803"><ele>126.0</ele><time>2026-04-27T14:46:24.703Z</time></trkpt><trkpt lat="45.512528" lon="9.980404"><ele>126.0</ele><time>2026-04-27T14:46:27.715Z</time></trkpt><trkpt lat="45.512505" lon="9.9802658"><ele>126.0</ele><time>2026-04-27T14:46:31.705Z</time></trkpt><trkpt lat="45.512494" lon="9.9800841"><ele>126.0</ele><time>2026-04-27T14:46:33.71Z</time></trkpt><trkpt lat="45.5124847" lon="9.9799627"><ele>126.0</ele><time>2026-04-27T14:46:34.729Z</time></trkpt><trkpt lat="45.5124709" lon="9.979834"><ele>126.0</ele><time>2026-04-27T14:46:35.7Z</time></trkpt><trkpt lat="45.5124691" lon="9.9797024"><ele>126.0</ele><time>2026-04-27T14:46:36.704Z</time></trkpt><trkpt lat="45.5124706" lon="9.9795858"><ele>126.0</ele><time>2026-04-27T14:46:37.719Z</time></trkpt><trkpt lat="45.5124637" lon="9.9794722"><ele>126.0</ele><time>2026-04-27T14:46:38.721Z</time></trkpt><trkpt lat="45.5124589" lon="9.9793578"><ele>126.0</ele><time>2026-04-27T14:46:39.703Z</time></trkpt><trkpt lat="45.5124587" lon="9.9792506"><ele>126.0</ele><time>2026-04-27T14:46:40.724Z</time></trkpt><trkpt lat="45.5124514" lon="9.9791466"><ele>126.0</ele><time>2026-04-27T14:46:41.712Z</time></trkpt><trkpt lat="45.5124556" lon="9.9790379"><ele>126.14285714285714</ele><time>2026-04-27T14:46:42.707Z</time></trkpt><trkpt lat="45.5124646" lon="9.9789352"><ele>126.28571428571428</ele><time>2026-04-27T14:46:43.702Z</time></trkpt><trkpt lat="45.5124763" lon="9.9788355"><ele>126.42857142857143</ele><time>2026-04-27T14:46:44.707Z</time></trkpt><trkpt lat="45.5124894" lon="9.9787402"><ele>126.57142857142857</ele><time>2026-04-27T14:46:45.712Z</time></trkpt><trkpt lat="45.5125007" lon="9.9786336"><ele>126.71428571428571</ele><time>2026-04-27T14:46:46.709Z</time></trkpt><trkpt lat="45.5125129" lon="9.9785272"><ele>126.85714285714286</ele><time>2026-04-27T14:46:47.718Z</time></trkpt><trkpt lat="45.5125306" lon="9.9784252"><ele>127.0</ele><time>2026-04-27T14:46:48.714Z</time></trkpt><trkpt lat="45.5125522" lon="9.9783208"><ele>127.50000000000001</ele><time>2026-04-27T14:46:49.719Z</time></trkpt><trkpt lat="45.5125707" lon="9.9782158"><ele>128.0</ele><time>2026-04-27T14:46:50.707Z</time></trkpt><trkpt lat="45.5125888" lon="9.9781153"><ele>128.5</ele><time>2026-04-27T14:46:51.695Z</time></trkpt><trkpt lat="45.5126078" lon="9.9779714"><ele>129.0</ele><time>2026-04-27T14:46:53.7Z</time></trkpt><trkpt lat="45.5126229" lon="9.9778396"><ele>129.5</ele><time>2026-04-27T14:46:55.709Z</time></trkpt><trkpt lat="45.5126416" lon="9.9776938"><ele>130.0</ele><time>2026-04-27T14:46:57.702Z</time></trkpt><trkpt lat="45.5126524" lon="9.9775367"><ele>130.0</ele><time>2026-04-27T14:46:59.717Z</time></trkpt><trkpt lat="45.5126648" lon="9.9773943"><ele>130.0</ele><time>2026-04-27T14:47:01.703Z</time></trkpt><trkpt lat="45.5126628" lon="9.9772592"><ele>130.0</ele><time>2026-04-27T14:47:03.73Z</time></trkpt><trkpt lat="45.5126441" lon="9.9771481"><ele>130.0</ele><time>2026-04-27T14:47:05.725Z</time></trkpt><trkpt lat="45.5125654" lon="9.9770651"><ele>130.0</ele><time>2026-04-27T14:47:07.708Z</time></trkpt><trkpt lat="45.5124687" lon="9.9770402"><ele>130.0</ele><time>2026-04-27T14:47:09.714Z</time></trkpt><trkpt lat="45.5123459" lon="9.9770263"><ele>130.0</ele><time>2026-04-27T14:47:11.701Z</time></trkpt><trkpt lat="45.5122336" lon="9.9769815"><ele>130.0</ele><time>2026-04-27T14:47:13.718Z</time></trkpt><trkpt lat="45.5121621" lon="9.9768959"><ele>130.0</ele><time>2026-04-27T14:47:15.712Z</time></trkpt><trkpt lat="45.5121762" lon="9.9768072"><ele>130.0</ele><time>2026-04-27T14:47:18.708Z</time></trkpt><trkpt lat="45.5122218" lon="9.9767289"><ele>129.66666666666669</ele><time>2026-04-27T14:47:20.708Z</time></trkpt><trkpt lat="45.5122782" lon="9.9766412"><ele>129.33333333333334</ele><time>2026-04-27T14:47:22.722Z</time></trkpt><trkpt lat="45.5123533" lon="9.9765092"><ele>129.0</ele><time>2026-04-27T14:47:24.713Z</time></trkpt><trkpt lat="45.5123893" lon="9.9764329"><ele>128.66666666666666</ele><time>2026-04-27T14:47:25.72Z</time></trkpt><trkpt lat="45.5124587" lon="9.9762984"><ele>128.33333333333331</ele><time>2026-04-27T14:47:27.705Z</time></trkpt><trkpt lat="45.5124892" lon="9.9762195"><ele>128.0</ele><time>2026-04-27T14:47:28.712Z</time></trkpt><trkpt lat="45.5125342" lon="9.976068"><ele>128.0</ele><time>2026-04-27T14:47:30.698Z</time></trkpt><trkpt lat="45.5125717" lon="9.9759382"><ele>128.0</ele><time>2026-04-27T14:47:32.7Z</time></trkpt><trkpt lat="45.5126128" lon="9.9758156"><ele>128.0</ele><time>2026-04-27T14:47:34.738Z</time></trkpt><trkpt lat="45.5126622" lon="9.9756992"><ele>128.0</ele><time>2026-04-27T14:47:36.707Z</time></trkpt><trkpt lat="45.5127213" lon="9.9755815"><ele>128.0</ele><time>2026-04-27T14:47:38.715Z</time></trkpt><trkpt lat="45.5127822" lon="9.9754537"><ele>128.0</ele><time>2026-04-27T14:47:40.697Z</time></trkpt><trkpt lat="45.5128471" lon="9.9753541"><ele>128.0</ele><time>2026-04-27T14:47:42.696Z</time></trkpt><trkpt lat="45.5129155" lon="9.9752891"><ele>128.0</ele><time>2026-04-27T14:47:44.738Z</time></trkpt><trkpt lat="45.5129123" lon="9.9751828"><ele>128.0</ele><time>2026-04-27T14:47:46.704Z</time></trkpt><trkpt lat="45.5128087" lon="9.9751073"><ele>128.0</ele><time>2026-04-27T14:47:48.727Z</time></trkpt><trkpt lat="45.512714" lon="9.9750757"><ele>128.0</ele><time>2026-04-27T14:47:49.714Z</time></trkpt><trkpt lat="45.5126002" lon="9.9750331"><ele>128.0</ele><time>2026-04-27T14:47:50.702Z</time></trkpt><trkpt lat="45.5124825" lon="9.9749861"><ele>128.0</ele><time>2026-04-27T14:47:51.745Z</time></trkpt><trkpt lat="45.5123581" lon="9.9749391"><ele>128.0</ele><time>2026-04-27T14:47:52.705Z</time></trkpt><trkpt lat="45.5122395" lon="9.974889"><ele>127.5</ele><time>2026-04-27T14:47:53.702Z</time></trkpt><trkpt lat="45.512123" lon="9.9748457"><ele>127.0</ele><time>2026-04-27T14:47:54.713Z</time></trkpt><trkpt lat="45.5120105" lon="9.9747931"><ele>126.5</ele><time>2026-04-27T14:47:55.715Z</time></trkpt><trkpt lat="45.5119031" lon="9.9747436"><ele>126.0</ele><time>2026-04-27T14:47:56.706Z</time></trkpt><trkpt lat="45.5118018" lon="9.9746969"><ele>126.0</ele><time>2026-04-27T14:47:57.713Z</time></trkpt><trkpt lat="45.5116975" lon="9.9746508"><ele>126.0</ele><time>2026-04-27T14:47:58.717Z</time></trkpt><trkpt lat="45.511597" lon="9.9746019"><ele>126.0</ele><time>2026-04-27T14:47:59.707Z</time></trkpt><trkpt lat="45.511505" lon="9.9745599"><ele>126.0</ele><time>2026-04-27T14:48:00.705Z</time></trkpt><trkpt lat="45.5114262" lon="9.9745247"><ele>126.0</ele><time>2026-04-27T14:48:01.708Z</time></trkpt><trkpt lat="45.5113561" lon="9.9744958"><ele>126.0</ele><time>2026-04-27T14:48:02.716Z</time></trkpt><trkpt lat="45.5112538" lon="9.9744486"><ele>126.0</ele><time>2026-04-27T14:48:04.711Z</time></trkpt><trkpt lat="45.5111726" lon="9.9744203"><ele>126.0</ele><time>2026-04-27T14:48:06.709Z</time></trkpt><trkpt lat="45.5111067" lon="9.974477"><ele>126.0</ele><time>2026-04-27T14:48:08.711Z</time></trkpt><trkpt lat="45.5110681" lon="9.9745777"><ele>126.0</ele><time>2026-04-27T14:48:10.711Z</time></trkpt><trkpt lat="45.5110533" lon="9.9746874"><ele>126.0</ele><time>2026-04-27T14:48:12.702Z</time></trkpt><trkpt lat="45.5110258" lon="9.9748256"><ele>125.83333333333333</ele><time>2026-04-27T14:48:14.708Z</time></trkpt><trkpt lat="45.510999" lon="9.9749834"><ele>125.66666666666666</ele><time>2026-04-27T14:48:16.705Z</time></trkpt><trkpt lat="45.5109869" lon="9.9751232"><ele>125.5</ele><time>2026-04-27T14:48:18.717Z</time></trkpt><trkpt lat="45.510986" lon="9.975215"><ele>125.33333333333333</ele><time>2026-04-27T14:48:20.722Z</time></trkpt><trkpt lat="45.5109837" lon="9.9753158"><ele>125.16666666666666</ele><time>2026-04-27T14:48:24.712Z</time></trkpt><trkpt lat="45.5110532" lon="9.9753543"><ele>125.0</ele><time>2026-04-27T14:48:27.73Z</time></trkpt><trkpt lat="45.511104" lon="9.9752357"><ele>124.99999999999999</ele><time>2026-04-27T14:48:30.709Z</time></trkpt><trkpt lat="45.5111338" lon="9.9750706"><ele>125.0</ele><time>2026-04-27T14:48:32.71Z</time></trkpt><trkpt lat="45.5111519" lon="9.9749753"><ele>125.0</ele><time>2026-04-27T14:48:33.713Z</time></trkpt><trkpt lat="45.5111683" lon="9.9748811"><ele>125.0</ele><time>2026-04-27T14:48:34.712Z</time></trkpt><trkpt lat="45.511163" lon="9.9747737"><ele>124.99999999999999</ele><time>2026-04-27T14:48:36.718Z</time></trkpt><trkpt lat="45.5111392" lon="9.9746359"><ele>125.0</ele><time>2026-04-27T14:48:43.718Z</time></trkpt><trkpt lat="45.5111845" lon="9.9745476"><ele>125.2</ele><time>2026-04-27T14:48:45.704Z</time></trkpt><trkpt lat="45.511301" lon="9.9745298"><ele>125.4</ele><time>2026-04-27T14:48:47.723Z</time></trkpt><trkpt lat="45.5114086" lon="9.9745571"><ele>125.6</ele><time>2026-04-27T14:48:49.71Z</time></trkpt><trkpt lat="45.5115253" lon="9.9746173"><ele>125.8</ele><time>2026-04-27T14:48:51.71Z</time></trkpt><trkpt lat="45.5116094" lon="9.9746572"><ele>126.0</ele><time>2026-04-27T14:48:53.715Z</time></trkpt><trkpt lat="45.5116951" lon="9.9744624"><ele>126.0</ele><time>2026-04-27T14:49:01.71Z</time></trkpt><trkpt lat="45.5116989" lon="9.9743393"><ele>126.0</ele><time>2026-04-27T14:49:02.71Z</time></trkpt><trkpt lat="45.5117038" lon="9.9741632"><ele>126.0</ele><time>2026-04-27T14:49:03.713Z</time></trkpt><trkpt lat="45.511726" lon="9.9739402"><ele>126.0</ele><time>2026-04-27T14:49:04.72Z</time></trkpt><trkpt lat="45.511735" lon="9.9737542"><ele>125.5</ele><time>2026-04-27T14:49:05.71Z</time></trkpt><trkpt lat="45.511751" lon="9.9735833"><ele>125.0</ele><time>2026-04-27T14:49:06.708Z</time></trkpt><trkpt lat="45.5117638" lon="9.9734185"><ele>124.5</ele><time>2026-04-27T14:49:07.715Z</time></trkpt><trkpt lat="45.5117752" lon="9.9732536"><ele>124.0</ele><time>2026-04-27T14:49:08.708Z</time></trkpt><trkpt lat="45.5117879" lon="9.9730848"><ele>124.0</ele><time>2026-04-27T14:49:09.721Z</time></trkpt><trkpt lat="45.5118019" lon="9.9729166"><ele>124.0</ele><time>2026-04-27T14:49:10.706Z</time></trkpt><trkpt lat="45.5118134" lon="9.9727575"><ele>124.0</ele><time>2026-04-27T14:49:11.718Z</time></trkpt><trkpt lat="45.5118173" lon="9.972605"><ele>124.0</ele><time>2026-04-27T14:49:12.709Z</time></trkpt><trkpt lat="45.5118175" lon="9.9724616"><ele>124.0</ele><time>2026-04-27T14:49:13.718Z</time></trkpt><trkpt lat="45.5118164" lon="9.9723094"><ele>124.0</ele><time>2026-04-27T14:49:14.703Z</time></trkpt><trkpt lat="45.5118128" lon="9.9721191"><ele>124.0</ele><time>2026-04-27T14:49:15.711Z</time></trkpt><trkpt lat="45.511809" lon="9.9718964"><ele>124.0</ele><time>2026-04-27T14:49:16.71Z</time></trkpt><trkpt lat="45.5117993" lon="9.9716645"><ele>124.33333333333334</ele><time>2026-04-27T14:49:17.712Z</time></trkpt><trkpt lat="45.5117871" lon="9.9714141"><ele>124.66666666666666</ele><time>2026-04-27T14:49:18.72Z</time></trkpt><trkpt lat="45.5117752" lon="9.9711419"><ele>125.0</ele><time>2026-04-27T14:49:19.709Z</time></trkpt><trkpt lat="45.5117583" lon="9.9708592"><ele>124.66666666666666</ele><time>2026-04-27T14:49:20.71Z</time></trkpt><trkpt lat="45.5117441" lon="9.9705695"><ele>124.33333333333334</ele><time>2026-04-27T14:49:21.718Z</time></trkpt><trkpt lat="45.5117319" lon="9.9702886"><ele>124.0</ele><time>2026-04-27T14:49:22.712Z</time></trkpt><trkpt lat="45.5117213" lon="9.970025"><ele>124.0</ele><time>2026-04-27T14:49:23.705Z</time></trkpt><trkpt lat="45.5117153" lon="9.9697872"><ele>124.0</ele><time>2026-04-27T14:49:24.702Z</time></trkpt><trkpt lat="45.5117116" lon="9.9695893"><ele>124.0</ele><time>2026-04-27T14:49:25.716Z</time></trkpt><trkpt lat="45.5117018" lon="9.9693949"><ele>124.0</ele><time>2026-04-27T14:49:26.716Z</time></trkpt><trkpt lat="45.5116958" lon="9.9691888"><ele>123.75</ele><time>2026-04-27T14:49:27.713Z</time></trkpt><trkpt lat="45.5116791" lon="9.9689846"><ele>123.5</ele><time>2026-04-27T14:49:28.702Z</time></trkpt><trkpt lat="45.5116662" lon="9.9687666"><ele>123.25</ele><time>2026-04-27T14:49:29.721Z</time></trkpt><trkpt lat="45.5116601" lon="9.9685541"><ele>123.0</ele><time>2026-04-27T14:49:30.715Z</time></trkpt><trkpt lat="45.5116522" lon="9.9683567"><ele>123.0</ele><time>2026-04-27T14:49:31.695Z</time></trkpt><trkpt lat="45.5116388" lon="9.9681711"><ele>123.0</ele><time>2026-04-27T14:49:32.714Z</time></trkpt><trkpt lat="45.511625" lon="9.9679952"><ele>123.0</ele><time>2026-04-27T14:49:33.716Z</time></trkpt><trkpt lat="45.5116216" lon="9.9678322"><ele>123.0</ele><time>2026-04-27T14:49:34.705Z</time></trkpt><trkpt lat="45.5116174" lon="9.9676695"><ele>123.25</ele><time>2026-04-27T14:49:35.719Z</time></trkpt><trkpt lat="45.5116069" lon="9.9675008"><ele>123.5</ele><time>2026-04-27T14:49:36.723Z</time></trkpt><trkpt lat="45.5115978" lon="9.9673282"><ele>123.75</ele><time>2026-04-27T14:49:37.707Z</time></trkpt><trkpt lat="45.5115866" lon="9.967147"><ele>124.0</ele><time>2026-04-27T14:49:38.721Z</time></trkpt><trkpt lat="45.5115722" lon="9.9669531"><ele>124.0</ele><time>2026-04-27T14:49:39.702Z</time></trkpt><trkpt lat="45.5115577" lon="9.9667456"><ele>124.0</ele><time>2026-04-27T14:49:40.716Z</time></trkpt><trkpt lat="45.5115453" lon="9.9665269"><ele>124.0</ele><time>2026-04-27T14:49:41.706Z</time></trkpt><trkpt lat="45.5115416" lon="9.9662946"><ele>124.33333333333334</ele><time>2026-04-27T14:49:42.731Z</time></trkpt><trkpt lat="45.5115469" lon="9.9660457"><ele>124.66666666666666</ele><time>2026-04-27T14:49:43.714Z</time></trkpt><trkpt lat="45.5115555" lon="9.9657922"><ele>125.0</ele><time>2026-04-27T14:49:44.708Z</time></trkpt><trkpt lat="45.5115681" lon="9.9655253"><ele>124.33333333333333</ele><time>2026-04-27T14:49:45.708Z</time></trkpt><trkpt lat="45.5115761" lon="9.9652599"><ele>123.66666666666666</ele><time>2026-04-27T14:49:46.716Z</time></trkpt><trkpt lat="45.5115803" lon="9.965009"><ele>123.0</ele><time>2026-04-27T14:49:47.715Z</time></trkpt><trkpt lat="45.5115783" lon="9.9647648"><ele>123.0</ele><time>2026-04-27T14:49:48.719Z</time></trkpt><trkpt lat="45.5115766" lon="9.9645293"><ele>123.0</ele><time>2026-04-27T14:49:49.717Z</time></trkpt><trkpt lat="45.5115651" lon="9.9643027"><ele>123.0</ele><time>2026-04-27T14:49:50.708Z</time></trkpt><trkpt lat="45.5115488" lon="9.9640913"><ele>123.75</ele><time>2026-04-27T14:49:51.715Z</time></trkpt><trkpt lat="45.5115316" lon="9.963892"><ele>124.5</ele><time>2026-04-27T14:49:52.718Z</time></trkpt><trkpt lat="45.5115095" lon="9.9637012"><ele>125.25</ele><time>2026-04-27T14:49:53.707Z</time></trkpt><trkpt lat="45.5114899" lon="9.9635085"><ele>126.0</ele><time>2026-04-27T14:49:54.708Z</time></trkpt><trkpt lat="45.5114764" lon="9.9633106"><ele>126.66666666666666</ele><time>2026-04-27T14:49:55.719Z</time></trkpt><trkpt lat="45.511458" lon="9.9631023"><ele>127.33333333333333</ele><time>2026-04-27T14:49:56.709Z</time></trkpt><trkpt lat="45.5114336" lon="9.9628865"><ele>128.0</ele><time>2026-04-27T14:49:57.71Z</time></trkpt><trkpt lat="45.5114089" lon="9.9626682"><ele>127.33333333333333</ele><time>2026-04-27T14:49:58.703Z</time></trkpt><trkpt lat="45.51139" lon="9.9624514"><ele>126.66666666666666</ele><time>2026-04-27T14:49:59.722Z</time></trkpt><trkpt lat="45.5113711" lon="9.96223"><ele>126.0</ele><time>2026-04-27T14:50:00.708Z</time></trkpt><trkpt lat="45.5113652" lon="9.9620028"><ele>126.0</ele><time>2026-04-27T14:50:01.704Z</time></trkpt><trkpt lat="45.511365" lon="9.9617721"><ele>126.0</ele><time>2026-04-27T14:50:02.708Z</time></trkpt><trkpt lat="45.5113754" lon="9.9615346"><ele>126.0</ele><time>2026-04-27T14:50:03.729Z</time></trkpt><trkpt lat="45.5113897" lon="9.9613045"><ele>126.0</ele><time>2026-04-27T14:50:04.713Z</time></trkpt><trkpt lat="45.5114033" lon="9.9610907"><ele>126.0</ele><time>2026-04-27T14:50:05.703Z</time></trkpt><trkpt lat="45.511411" lon="9.9608971"><ele>126.0</ele><time>2026-04-27T14:50:06.713Z</time></trkpt><trkpt lat="45.5114142" lon="9.9607235"><ele>126.0</ele><time>2026-04-27T14:50:07.71Z</time></trkpt><trkpt lat="45.5114202" lon="9.960566"><ele>126.0</ele><time>2026-04-27T14:50:08.715Z</time></trkpt><trkpt lat="45.5114227" lon="9.9604314"><ele>126.0</ele><time>2026-04-27T14:50:09.702Z</time></trkpt><trkpt lat="45.5114268" lon="9.9603206"><ele>126.0</ele><time>2026-04-27T14:50:10.708Z</time></trkpt><trkpt lat="45.511429" lon="9.9602306"><ele>126.0</ele><time>2026-04-27T14:50:11.732Z</time></trkpt><trkpt lat="45.5114213" lon="9.9601049"><ele>126.0</ele><time>2026-04-27T14:50:13.711Z</time></trkpt><trkpt lat="45.5113751" lon="9.9600202"><ele>126.0</ele><time>2026-04-27T14:50:15.707Z</time></trkpt><trkpt lat="45.5112642" lon="9.9599958"><ele>126.25</ele><time>2026-04-27T14:50:17.715Z</time></trkpt><trkpt lat="45.5111858" lon="9.960002"><ele>126.5</ele><time>2026-04-27T14:50:18.717Z</time></trkpt><trkpt lat="45.5110772" lon="9.9600035"><ele>126.75</ele><time>2026-04-27T14:50:19.701Z</time></trkpt><trkpt lat="45.5109501" lon="9.9600007"><ele>127.0</ele><time>2026-04-27T14:50:20.702Z</time></trkpt><trkpt lat="45.5108115" lon="9.9599896"><ele>127.0</ele><time>2026-04-27T14:50:21.701Z</time></trkpt><trkpt lat="45.5106683" lon="9.9599707"><ele>127.0</ele><time>2026-04-27T14:50:22.703Z</time></trkpt><trkpt lat="45.510525" lon="9.9599521"><ele>127.0</ele><time>2026-04-27T14:50:23.725Z</time></trkpt><trkpt lat="45.5103789" lon="9.9599394"><ele>127.0</ele><time>2026-04-27T14:50:24.714Z</time></trkpt><trkpt lat="45.5102356" lon="9.9599287"><ele>126.75</ele><time>2026-04-27T14:50:25.701Z</time></trkpt><trkpt lat="45.5101007" lon="9.9599063"><ele>126.5</ele><time>2026-04-27T14:50:26.699Z</time></trkpt><trkpt lat="45.5099812" lon="9.9598893"><ele>126.25</ele><time>2026-04-27T14:50:27.738Z</time></trkpt><trkpt lat="45.5098606" lon="9.9598762"><ele>126.0</ele><time>2026-04-27T14:50:28.717Z</time></trkpt><trkpt lat="45.509743" lon="9.9598554"><ele>126.0</ele><time>2026-04-27T14:50:29.701Z</time></trkpt><trkpt lat="45.509617" lon="9.9598468"><ele>126.0</ele><time>2026-04-27T14:50:30.722Z</time></trkpt><trkpt lat="45.5094907" lon="9.9598431"><ele>126.0</ele><time>2026-04-27T14:50:31.719Z</time></trkpt><trkpt lat="45.5093657" lon="9.9598473"><ele>126.0</ele><time>2026-04-27T14:50:32.706Z</time></trkpt><trkpt lat="45.5092302" lon="9.9598501"><ele>125.5</ele><time>2026-04-27T14:50:33.719Z</time></trkpt><trkpt lat="45.5091009" lon="9.9598556"><ele>125.0</ele><time>2026-04-27T14:50:34.712Z</time></trkpt><trkpt lat="45.5089708" lon="9.9598567"><ele>124.5</ele><time>2026-04-27T14:50:35.701Z</time></trkpt><trkpt lat="45.5088465" lon="9.9598631"><ele>124.0</ele><time>2026-04-27T14:50:36.711Z</time></trkpt><trkpt lat="45.5087344" lon="9.9598657"><ele>124.00000000000001</ele><time>2026-04-27T14:50:37.712Z</time></trkpt><trkpt lat="45.5086301" lon="9.959863"><ele>124.0</ele><time>2026-04-27T14:50:38.702Z</time></trkpt><trkpt lat="45.5085348" lon="9.959861"><ele>124.0</ele><time>2026-04-27T14:50:39.719Z</time></trkpt><trkpt lat="45.5084559" lon="9.9598685"><ele>124.0</ele><time>2026-04-27T14:50:40.722Z</time></trkpt><trkpt lat="45.508384" lon="9.95988"><ele>124.00000000000001</ele><time>2026-04-27T14:50:41.711Z</time></trkpt><trkpt lat="45.5083207" lon="9.9598775"><ele>124.0</ele><time>2026-04-27T14:50:42.723Z</time></trkpt><trkpt lat="45.508214" lon="9.9598327"><ele>124.0</ele><time>2026-04-27T14:50:44.705Z</time></trkpt><trkpt lat="45.5081148" lon="9.959745"><ele>124.0</ele><time>2026-04-27T14:50:46.724Z</time></trkpt><trkpt lat="45.5080324" lon="9.9596093"><ele>124.0</ele><time>2026-04-27T14:50:48.704Z</time></trkpt><trkpt lat="45.5080052" lon="9.95951"><ele>124.0</ele><time>2026-04-27T14:50:49.715Z</time></trkpt><trkpt lat="45.5079836" lon="9.9593959"><ele>124.0</ele><time>2026-04-27T14:50:50.712Z</time></trkpt><trkpt lat="45.507988" lon="9.9592498"><ele>124.0</ele><time>2026-04-27T14:50:51.717Z</time></trkpt><trkpt lat="45.5079925" lon="9.9590637"><ele>124.0</ele><time>2026-04-27T14:50:52.708Z</time></trkpt><trkpt lat="45.5079922" lon="9.9588554"><ele>124.0</ele><time>2026-04-27T14:50:53.703Z</time></trkpt><trkpt lat="45.5079893" lon="9.9586344"><ele>124.0</ele><time>2026-04-27T14:50:54.705Z</time></trkpt><trkpt lat="45.5079888" lon="9.9584084"><ele>124.0</ele><time>2026-04-27T14:50:55.706Z</time></trkpt><trkpt lat="45.5079839" lon="9.9581619"><ele>124.0</ele><time>2026-04-27T14:50:56.699Z</time></trkpt><trkpt lat="45.5079761" lon="9.9578955"><ele>124.0</ele><time>2026-04-27T14:50:57.708Z</time></trkpt><trkpt lat="45.5079762" lon="9.9576306"><ele>123.66666666666667</ele><time>2026-04-27T14:50:58.712Z</time></trkpt><trkpt lat="45.507977" lon="9.9573892"><ele>123.33333333333334</ele><time>2026-04-27T14:50:59.705Z</time></trkpt><trkpt lat="45.5079828" lon="9.9571667"><ele>123.0</ele><time>2026-04-27T14:51:00.704Z</time></trkpt><trkpt lat="45.5079859" lon="9.9569635"><ele>123.0</ele><time>2026-04-27T14:51:01.706Z</time></trkpt><trkpt lat="45.507989" lon="9.9567755"><ele>123.0</ele><time>2026-04-27T14:51:02.701Z</time></trkpt><trkpt lat="45.5079911" lon="9.9566026"><ele>123.0</ele><time>2026-04-27T14:51:03.741Z</time></trkpt><trkpt lat="45.5079962" lon="9.9564447"><ele>123.0</ele><time>2026-04-27T14:51:04.696Z</time></trkpt><trkpt lat="45.5080022" lon="9.9562998"><ele>123.0</ele><time>2026-04-27T14:51:05.718Z</time></trkpt><trkpt lat="45.5080102" lon="9.9561695"><ele>123.0</ele><time>2026-04-27T14:51:06.715Z</time></trkpt><trkpt lat="45.5080094" lon="9.956049"><ele>123.0</ele><time>2026-04-27T14:51:07.75Z</time></trkpt><trkpt lat="45.50801" lon="9.9559268"><ele>123.0</ele><time>2026-04-27T14:51:08.719Z</time></trkpt><trkpt lat="45.5080145" lon="9.9558097"><ele>123.0</ele><time>2026-04-27T14:51:09.709Z</time></trkpt><trkpt lat="45.5080175" lon="9.9557143"><ele>123.0</ele><time>2026-04-27T14:51:10.706Z</time></trkpt><trkpt lat="45.5080135" lon="9.9555443"><ele>123.0</ele><time>2026-04-27T14:51:12.712Z</time></trkpt><trkpt lat="45.5080185" lon="9.9554069"><ele>123.0</ele><time>2026-04-27T14:51:14.713Z</time></trkpt><trkpt lat="45.5080228" lon="9.9553072"><ele>123.0</ele><time>2026-04-27T14:51:16.714Z</time></trkpt><trkpt lat="45.5079795" lon="9.9554274"><ele>123.0</ele><time>2026-04-27T14:51:56.709Z</time></trkpt><trkpt lat="45.5079729" lon="9.955518"><ele>123.0</ele><time>2026-04-27T14:51:57.714Z</time></trkpt><trkpt lat="45.5079758" lon="9.9556863"><ele>123.0</ele><time>2026-04-27T14:51:58.722Z</time></trkpt><trkpt lat="45.5079734" lon="9.9558545"><ele>122.80000000000001</ele><time>2026-04-27T14:51:59.711Z</time></trkpt><trkpt lat="45.5079765" lon="9.956029"><ele>122.60000000000001</ele><time>2026-04-27T14:52:00.708Z</time></trkpt><trkpt lat="45.5079708" lon="9.9561786"><ele>122.39999999999999</ele><time>2026-04-27T14:52:01.718Z</time></trkpt><trkpt lat="45.5079639" lon="9.9563124"><ele>122.19999999999999</ele><time>2026-04-27T14:52:02.716Z</time></trkpt><trkpt lat="45.5079594" lon="9.9564652"><ele>122.0</ele><time>2026-04-27T14:52:03.715Z</time></trkpt><trkpt lat="45.5079588" lon="9.9566441"><ele>122.25</ele><time>2026-04-27T14:52:04.702Z</time></trkpt><trkpt lat="45.5079543" lon="9.9568062"><ele>122.5</ele><time>2026-04-27T14:52:05.714Z</time></trkpt><trkpt lat="45.507951" lon="9.9569743"><ele>122.75</ele><time>2026-04-27T14:52:06.708Z</time></trkpt><trkpt lat="45.5079487" lon="9.9571351"><ele>123.0</ele><time>2026-04-27T14:52:07.702Z</time></trkpt><trkpt lat="45.5079487" lon="9.9572942"><ele>123.0</ele><time>2026-04-27T14:52:08.715Z</time></trkpt><trkpt lat="45.5079425" lon="9.9574483"><ele>123.0</ele><time>2026-04-27T14:52:09.73Z</time></trkpt><trkpt lat="45.5079324" lon="9.957612"><ele>123.0</ele><time>2026-04-27T14:52:10.713Z</time></trkpt><trkpt lat="45.507938" lon="9.9577886"><ele>123.0</ele><time>2026-04-27T14:52:11.699Z</time></trkpt><trkpt lat="45.5079446" lon="9.9579714"><ele>123.25</ele><time>2026-04-27T14:52:12.715Z</time></trkpt><trkpt lat="45.5079496" lon="9.9581495"><ele>123.5</ele><time>2026-04-27T14:52:13.715Z</time></trkpt><trkpt lat="45.5079518" lon="9.9583279"><ele>123.75</ele><time>2026-04-27T14:52:14.711Z</time></trkpt><trkpt lat="45.5079566" lon="9.9584934"><ele>124.0</ele><time>2026-04-27T14:52:15.712Z</time></trkpt><trkpt lat="45.5079611" lon="9.9586499"><ele>124.0</ele><time>2026-04-27T14:52:16.7Z</time></trkpt><trkpt lat="45.5079642" lon="9.9588099"><ele>124.0</ele><time>2026-04-27T14:52:17.71Z</time></trkpt><trkpt lat="45.507966" lon="9.9589515"><ele>124.0</ele><time>2026-04-27T14:52:18.706Z</time></trkpt><trkpt lat="45.507967" lon="9.9590854"><ele>124.0</ele><time>2026-04-27T14:52:19.716Z</time></trkpt><trkpt lat="45.5079667" lon="9.9592086"><ele>124.0</ele><time>2026-04-27T14:52:20.707Z</time></trkpt><trkpt lat="45.5079671" lon="9.9593227"><ele>124.0</ele><time>2026-04-27T14:52:21.71Z</time></trkpt><trkpt lat="45.5079699" lon="9.9594318"><ele>124.00000000000001</ele><time>2026-04-27T14:52:22.717Z</time></trkpt><trkpt lat="45.5079796" lon="9.9595316"><ele>124.0</ele><time>2026-04-27T14:52:23.709Z</time></trkpt><trkpt lat="45.5080007" lon="9.9596239"><ele>124.0</ele><time>2026-04-27T14:52:24.711Z</time></trkpt><trkpt lat="45.5080202" lon="9.9597154"><ele>124.00000000000001</ele><time>2026-04-27T14:52:25.707Z</time></trkpt><trkpt lat="45.5080715" lon="9.9597729"><ele>124.0</ele><time>2026-04-27T14:52:26.714Z</time></trkpt><trkpt lat="45.5081404" lon="9.9598039"><ele>124.0</ele><time>2026-04-27T14:52:27.736Z</time></trkpt><trkpt lat="45.5082123" lon="9.9598339"><ele>124.00000000000001</ele><time>2026-04-27T14:52:28.703Z</time></trkpt><trkpt lat="45.5082825" lon="9.9598481"><ele>124.0</ele><time>2026-04-27T14:52:29.714Z</time></trkpt><trkpt lat="45.5083461" lon="9.9598633"><ele>124.0</ele><time>2026-04-27T14:52:30.713Z</time></trkpt><trkpt lat="45.5084099" lon="9.9598628"><ele>124.0</ele><time>2026-04-27T14:52:31.707Z</time></trkpt><trkpt lat="45.5084912" lon="9.9598594"><ele>124.00000000000001</ele><time>2026-04-27T14:52:32.706Z</time></trkpt><trkpt lat="45.5085932" lon="9.9598553"><ele>124.0</ele><time>2026-04-27T14:52:33.711Z</time></trkpt><trkpt lat="45.5087054" lon="9.9598548"><ele>124.0</ele><time>2026-04-27T14:52:34.72Z</time></trkpt><trkpt lat="45.5088406" lon="9.9598565"><ele>124.0</ele><time>2026-04-27T14:52:35.701Z</time></trkpt><trkpt lat="45.5089845" lon="9.9598606"><ele>124.0</ele><time>2026-04-27T14:52:36.705Z</time></trkpt><trkpt lat="45.5091384" lon="9.9598608"><ele>124.0</ele><time>2026-04-27T14:52:37.724Z</time></trkpt><trkpt lat="45.5092975" lon="9.9598627"><ele>124.0</ele><time>2026-04-27T14:52:38.731Z</time></trkpt><trkpt lat="45.509462" lon="9.9598636"><ele>124.0</ele><time>2026-04-27T14:52:39.709Z</time></trkpt><trkpt lat="45.5096163" lon="9.9598698"><ele>124.0</ele><time>2026-04-27T14:52:40.711Z</time></trkpt><trkpt lat="45.5097567" lon="9.9598834"><ele>124.5</ele><time>2026-04-27T14:52:41.707Z</time></trkpt><trkpt lat="45.5098894" lon="9.9599014"><ele>125.0</ele><time>2026-04-27T14:52:42.702Z</time></trkpt><trkpt lat="45.5100203" lon="9.9599183"><ele>125.5</ele><time>2026-04-27T14:52:43.705Z</time></trkpt><trkpt lat="45.5101516" lon="9.9599322"><ele>126.0</ele><time>2026-04-27T14:52:44.714Z</time></trkpt><trkpt lat="45.5102863" lon="9.9599489"><ele>126.25</ele><time>2026-04-27T14:52:45.703Z</time></trkpt><trkpt lat="45.5104204" lon="9.9599657"><ele>126.5</ele><time>2026-04-27T14:52:46.698Z</time></trkpt><trkpt lat="45.5105462" lon="9.9599762"><ele>126.75</ele><time>2026-04-27T14:52:47.71Z</time></trkpt><trkpt lat="45.5106684" lon="9.9599854"><ele>127.0</ele><time>2026-04-27T14:52:48.714Z</time></trkpt><trkpt lat="45.5107904" lon="9.9599983"><ele>127.0</ele><time>2026-04-27T14:52:49.714Z</time></trkpt><trkpt lat="45.510914" lon="9.960011"><ele>127.0</ele><time>2026-04-27T14:52:50.717Z</time></trkpt><trkpt lat="45.5110379" lon="9.9600246"><ele>127.0</ele><time>2026-04-27T14:52:51.706Z</time></trkpt><trkpt lat="45.5111606" lon="9.9600387"><ele>127.0</ele><time>2026-04-27T14:52:52.736Z</time></trkpt><trkpt lat="45.511272" lon="9.9600515"><ele>126.8</ele><time>2026-04-27T14:52:53.709Z</time></trkpt><trkpt lat="45.5113722" lon="9.9600638"><ele>126.6</ele><time>2026-04-27T14:52:54.719Z</time></trkpt><trkpt lat="45.5114694" lon="9.9600765"><ele>126.39999999999999</ele><time>2026-04-27T14:52:55.717Z</time></trkpt><trkpt lat="45.5115675" lon="9.9600909"><ele>126.19999999999999</ele><time>2026-04-27T14:52:56.712Z</time></trkpt><trkpt lat="45.5116833" lon="9.9601084"><ele>126.0</ele><time>2026-04-27T14:52:57.706Z</time></trkpt><trkpt lat="45.5118064" lon="9.9601238"><ele>126.0</ele><time>2026-04-27T14:52:58.722Z</time></trkpt><trkpt lat="45.5119347" lon="9.9601388"><ele>126.0</ele><time>2026-04-27T14:52:59.696Z</time></trkpt><trkpt lat="45.5120651" lon="9.9601508"><ele>126.0</ele><time>2026-04-27T14:53:00.729Z</time></trkpt><trkpt lat="45.5121981" lon="9.9601634"><ele>126.0</ele><time>2026-04-27T14:53:01.715Z</time></trkpt><trkpt lat="45.5123402" lon="9.9601707"><ele>126.0</ele><time>2026-04-27T14:53:02.707Z</time></trkpt><trkpt lat="45.5124852" lon="9.9601746"><ele>126.0</ele><time>2026-04-27T14:53:03.708Z</time></trkpt><trkpt lat="45.512632" lon="9.9601844"><ele>126.0</ele><time>2026-04-27T14:53:04.724Z</time></trkpt><trkpt lat="45.5127791" lon="9.9601955"><ele>126.0</ele><time>2026-04-27T14:53:05.718Z</time></trkpt><trkpt lat="45.5129283" lon="9.9602036"><ele>126.0</ele><time>2026-04-27T14:53:06.727Z</time></trkpt><trkpt lat="45.5130771" lon="9.9602052"><ele>126.0</ele><time>2026-04-27T14:53:07.709Z</time></trkpt><trkpt lat="45.5132241" lon="9.9602106"><ele>126.0</ele><time>2026-04-27T14:53:08.731Z</time></trkpt><trkpt lat="45.513369" lon="9.9602186"><ele>126.0</ele><time>2026-04-27T14:53:09.715Z</time></trkpt><trkpt lat="45.5135131" lon="9.9602268"><ele>126.0</ele><time>2026-04-27T14:53:10.705Z</time></trkpt><trkpt lat="45.513659" lon="9.9602341"><ele>126.0</ele><time>2026-04-27T14:53:11.707Z</time></trkpt><trkpt lat="45.5138125" lon="9.960239"><ele>126.0</ele><time>2026-04-27T14:53:12.707Z</time></trkpt><trkpt lat="45.5139716" lon="9.9602414"><ele>125.66666666666666</ele><time>2026-04-27T14:53:13.72Z</time></trkpt><trkpt lat="45.5141283" lon="9.9602429"><ele>125.33333333333333</ele><time>2026-04-27T14:53:14.702Z</time></trkpt><trkpt lat="45.5142852" lon="9.9602408"><ele>125.0</ele><time>2026-04-27T14:53:15.71Z</time></trkpt><trkpt lat="45.5144438" lon="9.9602381"><ele>125.0</ele><time>2026-04-27T14:53:16.722Z</time></trkpt><trkpt lat="45.5145929" lon="9.960233"><ele>125.0</ele><time>2026-04-27T14:53:17.709Z</time></trkpt><trkpt lat="45.5147355" lon="9.9602234"><ele>125.0</ele><time>2026-04-27T14:53:18.727Z</time></trkpt><trkpt lat="45.5148738" lon="9.9602116"><ele>125.0</ele><time>2026-04-27T14:53:19.726Z</time></trkpt><trkpt lat="45.5150152" lon="9.9602005"><ele>125.0</ele><time>2026-04-27T14:53:20.701Z</time></trkpt><trkpt lat="45.5151603" lon="9.9601923"><ele>125.0</ele><time>2026-04-27T14:53:21.7Z</time></trkpt><trkpt lat="45.515309" lon="9.9601872"><ele>125.0</ele><time>2026-04-27T14:53:22.712Z</time></trkpt><trkpt lat="45.5154579" lon="9.9601837"><ele>125.0</ele><time>2026-04-27T14:53:23.702Z</time></trkpt><trkpt lat="45.5156042" lon="9.9601793"><ele>125.25</ele><time>2026-04-27T14:53:24.703Z</time></trkpt><trkpt lat="45.51574" lon="9.9601752"><ele>125.5</ele><time>2026-04-27T14:53:25.729Z</time></trkpt><trkpt lat="45.515861" lon="9.9601719"><ele>125.75</ele><time>2026-04-27T14:53:26.705Z</time></trkpt><trkpt lat="45.515964" lon="9.9601707"><ele>126.0</ele><time>2026-04-27T14:53:27.716Z</time></trkpt><trkpt lat="45.516056" lon="9.9601689"><ele>126.0</ele><time>2026-04-27T14:53:28.708Z</time></trkpt><trkpt lat="45.5161217" lon="9.9601672"><ele>126.0</ele><time>2026-04-27T14:53:29.71Z</time></trkpt><trkpt lat="45.5161874" lon="9.9601696"><ele>126.0</ele><time>2026-04-27T14:53:31.702Z</time></trkpt><trkpt lat="45.516255" lon="9.9601933"><ele>126.0</ele><time>2026-04-27T14:53:34.714Z</time></trkpt><trkpt lat="45.5163095" lon="9.9600893"><ele>126.0</ele><time>2026-04-27T14:53:37.705Z</time></trkpt><trkpt lat="45.5163257" lon="9.9599785"><ele>126.0</ele><time>2026-04-27T14:53:38.721Z</time></trkpt><trkpt lat="45.5163457" lon="9.9598435"><ele>126.5</ele><time>2026-04-27T14:53:39.694Z</time></trkpt><trkpt lat="45.5163772" lon="9.9596802"><ele>127.0</ele><time>2026-04-27T14:53:40.701Z</time></trkpt><trkpt lat="45.5164229" lon="9.9594947"><ele>127.5</ele><time>2026-04-27T14:53:41.712Z</time></trkpt><trkpt lat="45.5164702" lon="9.9592724"><ele>128.0</ele><time>2026-04-27T14:53:42.718Z</time></trkpt><trkpt lat="45.5165223" lon="9.9590333"><ele>128.0</ele><time>2026-04-27T14:53:43.701Z</time></trkpt><trkpt lat="45.5165768" lon="9.9587967"><ele>128.0</ele><time>2026-04-27T14:53:44.71Z</time></trkpt><trkpt lat="45.5166519" lon="9.958557"><ele>128.0</ele><time>2026-04-27T14:53:45.711Z</time></trkpt><trkpt lat="45.5167501" lon="9.9583155"><ele>128.0</ele><time>2026-04-27T14:53:46.697Z</time></trkpt><trkpt lat="45.5168689" lon="9.9580787"><ele>128.0</ele><time>2026-04-27T14:53:47.704Z</time></trkpt><trkpt lat="45.517007" lon="9.9578458"><ele>128.0</ele><time>2026-04-27T14:53:48.719Z</time></trkpt><trkpt lat="45.5171592" lon="9.9576134"><ele>128.0</ele><time>2026-04-27T14:53:49.726Z</time></trkpt><trkpt lat="45.5173184" lon="9.9573762"><ele>128.0</ele><time>2026-04-27T14:53:50.697Z</time></trkpt><trkpt lat="45.5174693" lon="9.9571416"><ele>128.0</ele><time>2026-04-27T14:53:51.725Z</time></trkpt><trkpt lat="45.5176103" lon="9.9569211"><ele>128.0</ele><time>2026-04-27T14:53:52.707Z</time></trkpt><trkpt lat="45.5177455" lon="9.9567098"><ele>128.0</ele><time>2026-04-27T14:53:53.706Z</time></trkpt><trkpt lat="45.5178782" lon="9.956507"><ele>128.66666666666666</ele><time>2026-04-27T14:53:54.708Z</time></trkpt><trkpt lat="45.5180043" lon="9.9563044"><ele>129.33333333333334</ele><time>2026-04-27T14:53:55.724Z</time></trkpt><trkpt lat="45.5181256" lon="9.9561004"><ele>130.0</ele><time>2026-04-27T14:53:56.71Z</time></trkpt><trkpt lat="45.5182409" lon="9.9558931"><ele>130.0</ele><time>2026-04-27T14:53:57.71Z</time></trkpt><trkpt lat="45.5183551" lon="9.9556815"><ele>130.0</ele><time>2026-04-27T14:53:58.702Z</time></trkpt><trkpt lat="45.5184715" lon="9.9554666"><ele>130.0</ele><time>2026-04-27T14:53:59.719Z</time></trkpt><trkpt lat="45.5185918" lon="9.9552459"><ele>129.66666666666669</ele><time>2026-04-27T14:54:00.72Z</time></trkpt><trkpt lat="45.5187147" lon="9.9550268"><ele>129.33333333333334</ele><time>2026-04-27T14:54:01.731Z</time></trkpt><trkpt lat="45.5188429" lon="9.9547915"><ele>129.0</ele><time>2026-04-27T14:54:02.701Z</time></trkpt><trkpt lat="45.5189685" lon="9.9545502"><ele>129.0</ele><time>2026-04-27T14:54:03.707Z</time></trkpt><trkpt lat="45.5190932" lon="9.9543089"><ele>129.0</ele><time>2026-04-27T14:54:04.701Z</time></trkpt><trkpt lat="45.519217" lon="9.9540711"><ele>129.0</ele><time>2026-04-27T14:54:05.705Z</time></trkpt><trkpt lat="45.519343" lon="9.9538296"><ele>129.0</ele><time>2026-04-27T14:54:06.718Z</time></trkpt><trkpt lat="45.5194635" lon="9.9535899"><ele>129.0</ele><time>2026-04-27T14:54:07.715Z</time></trkpt><trkpt lat="45.5195892" lon="9.9533547"><ele>129.0</ele><time>2026-04-27T14:54:08.7Z</time></trkpt><trkpt lat="45.5197101" lon="9.9531087"><ele>129.0</ele><time>2026-04-27T14:54:09.711Z</time></trkpt><trkpt lat="45.5198268" lon="9.9528704"><ele>129.0</ele><time>2026-04-27T14:54:10.721Z</time></trkpt><trkpt lat="45.519946" lon="9.952636"><ele>129.0</ele><time>2026-04-27T14:54:11.716Z</time></trkpt><trkpt lat="45.5200656" lon="9.9524011"><ele>129.33333333333334</ele><time>2026-04-27T14:54:12.703Z</time></trkpt><trkpt lat="45.5201825" lon="9.9521674"><ele>129.66666666666669</ele><time>2026-04-27T14:54:13.699Z</time></trkpt><trkpt lat="45.5203034" lon="9.9519349"><ele>130.0</ele><time>2026-04-27T14:54:14.706Z</time></trkpt><trkpt lat="45.5204309" lon="9.9516956"><ele>130.0</ele><time>2026-04-27T14:54:15.704Z</time></trkpt><trkpt lat="45.5205649" lon="9.9514411"><ele>130.0</ele><time>2026-04-27T14:54:16.699Z</time></trkpt><trkpt lat="45.5206952" lon="9.9511687"><ele>130.0</ele><time>2026-04-27T14:54:17.711Z</time></trkpt><trkpt lat="45.5208359" lon="9.9508918"><ele>130.0</ele><time>2026-04-27T14:54:18.701Z</time></trkpt><trkpt lat="45.5209862" lon="9.9506173"><ele>130.5</ele><time>2026-04-27T14:54:19.692Z</time></trkpt><trkpt lat="45.5211419" lon="9.950313"><ele>131.0</ele><time>2026-04-27T14:54:20.705Z</time></trkpt><trkpt lat="45.521292" lon="9.9500206"><ele>131.5</ele><time>2026-04-27T14:54:21.704Z</time></trkpt><trkpt lat="45.5214384" lon="9.9497122"><ele>132.0</ele><time>2026-04-27T14:54:22.703Z</time></trkpt><trkpt lat="45.5215895" lon="9.9494018"><ele>132.5</ele><time>2026-04-27T14:54:23.703Z</time></trkpt><trkpt lat="45.5217428" lon="9.9490836"><ele>133.0</ele><time>2026-04-27T14:54:24.693Z</time></trkpt><trkpt lat="45.5218943" lon="9.9487733"><ele>133.0</ele><time>2026-04-27T14:54:25.699Z</time></trkpt><trkpt lat="45.5220468" lon="9.9484647"><ele>133.0</ele><time>2026-04-27T14:54:26.703Z</time></trkpt><trkpt lat="45.5222054" lon="9.9481544"><ele>132.5</ele><time>2026-04-27T14:54:27.709Z</time></trkpt><trkpt lat="45.522356" lon="9.9478356"><ele>132.0</ele><time>2026-04-27T14:54:28.711Z</time></trkpt><trkpt lat="45.522514" lon="9.947504"><ele>132.0</ele><time>2026-04-27T14:54:29.713Z</time></trkpt><trkpt lat="45.5226717" lon="9.9471704"><ele>132.0</ele><time>2026-04-27T14:54:30.723Z</time></trkpt><trkpt lat="45.5228347" lon="9.946826"><ele>133.0</ele><time>2026-04-27T14:54:31.71Z</time></trkpt><trkpt lat="45.5230041" lon="9.946478"><ele>134.0</ele><time>2026-04-27T14:54:32.711Z</time></trkpt><trkpt lat="45.5231622" lon="9.9461371"><ele>135.0</ele><time>2026-04-27T14:54:33.708Z</time></trkpt><trkpt lat="45.5233132" lon="9.9458168"><ele>136.0</ele><time>2026-04-27T14:54:34.708Z</time></trkpt><trkpt lat="45.5234511" lon="9.9455197"><ele>136.0</ele><time>2026-04-27T14:54:35.706Z</time></trkpt><trkpt lat="45.5235851" lon="9.9452307"><ele>136.0</ele><time>2026-04-27T14:54:36.7Z</time></trkpt><trkpt lat="45.5237154" lon="9.9449463"><ele>135.0</ele><time>2026-04-27T14:54:37.7Z</time></trkpt><trkpt lat="45.5238444" lon="9.9446623"><ele>134.0</ele><time>2026-04-27T14:54:38.703Z</time></trkpt><trkpt lat="45.5239746" lon="9.9443779"><ele>133.5</ele><time>2026-04-27T14:54:39.7Z</time></trkpt><trkpt lat="45.5240969" lon="9.9441031"><ele>133.0</ele><time>2026-04-27T14:54:40.728Z</time></trkpt><trkpt lat="45.5242219" lon="9.9438332"><ele>133.0</ele><time>2026-04-27T14:54:41.702Z</time></trkpt><trkpt lat="45.524349" lon="9.9435806"><ele>133.0</ele><time>2026-04-27T14:54:42.698Z</time></trkpt><trkpt lat="45.524475" lon="9.9433452"><ele>133.0</ele><time>2026-04-27T14:54:43.724Z</time></trkpt><trkpt lat="45.5246034" lon="9.9431297"><ele>133.33333333333334</ele><time>2026-04-27T14:54:44.712Z</time></trkpt><trkpt lat="45.5247328" lon="9.9429265"><ele>133.66666666666666</ele><time>2026-04-27T14:54:45.717Z</time></trkpt><trkpt lat="45.524858" lon="9.9427301"><ele>134.0</ele><time>2026-04-27T14:54:46.694Z</time></trkpt><trkpt lat="45.5249764" lon="9.9425414"><ele>134.33333333333331</ele><time>2026-04-27T14:54:47.715Z</time></trkpt><trkpt lat="45.5250864" lon="9.9423653"><ele>134.66666666666666</ele><time>2026-04-27T14:54:48.711Z</time></trkpt><trkpt lat="45.5251925" lon="9.9421943"><ele>135.0</ele><time>2026-04-27T14:54:49.722Z</time></trkpt><trkpt lat="45.5252954" lon="9.9420216"><ele>135.66666666666666</ele><time>2026-04-27T14:54:50.703Z</time></trkpt><trkpt lat="45.5253983" lon="9.9418469"><ele>136.33333333333331</ele><time>2026-04-27T14:54:51.714Z</time></trkpt><trkpt lat="45.5254983" lon="9.9416695"><ele>137.0</ele><time>2026-04-27T14:54:52.704Z</time></trkpt><trkpt lat="45.5255976" lon="9.9415017"><ele>137.0</ele><time>2026-04-27T14:54:53.715Z</time></trkpt><trkpt lat="45.525695" lon="9.9413313"><ele>137.0</ele><time>2026-04-27T14:54:54.715Z</time></trkpt><trkpt lat="45.5257908" lon="9.9411797"><ele>137.0</ele><time>2026-04-27T14:54:55.722Z</time></trkpt><trkpt lat="45.5258781" lon="9.9410267"><ele>137.0</ele><time>2026-04-27T14:54:56.711Z</time></trkpt><trkpt lat="45.525955" lon="9.9408958"><ele>136.83333333333331</ele><time>2026-04-27T14:54:57.708Z</time></trkpt><trkpt lat="45.5260216" lon="9.9407801"><ele>136.66666666666666</ele><time>2026-04-27T14:54:58.711Z</time></trkpt><trkpt lat="45.5260737" lon="9.9406937"><ele>136.5</ele><time>2026-04-27T14:54:59.71Z</time></trkpt><trkpt lat="45.5261194" lon="9.9406245"><ele>136.33333333333334</ele><time>2026-04-27T14:55:00.723Z</time></trkpt><trkpt lat="45.5261723" lon="9.940561"><ele>136.16666666666669</ele><time>2026-04-27T14:55:01.72Z</time></trkpt><trkpt lat="45.5262319" lon="9.9405162"><ele>136.0</ele><time>2026-04-27T14:55:02.712Z</time></trkpt><trkpt lat="45.5262914" lon="9.9404711"><ele>135.8</ele><time>2026-04-27T14:55:03.727Z</time></trkpt><trkpt lat="45.5263481" lon="9.9404198"><ele>135.6</ele><time>2026-04-27T14:55:04.705Z</time></trkpt><trkpt lat="45.5264311" lon="9.9402641"><ele>135.4</ele><time>2026-04-27T14:55:06.714Z</time></trkpt><trkpt lat="45.5264696" lon="9.9401366"><ele>135.2</ele><time>2026-04-27T14:55:07.704Z</time></trkpt><trkpt lat="45.5265111" lon="9.9400042"><ele>135.0</ele><time>2026-04-27T14:55:08.709Z</time></trkpt><trkpt lat="45.5265702" lon="9.9398729"><ele>135.75</ele><time>2026-04-27T14:55:09.709Z</time></trkpt><trkpt lat="45.5266434" lon="9.9397388"><ele>136.5</ele><time>2026-04-27T14:55:10.704Z</time></trkpt><trkpt lat="45.5267212" lon="9.9396143"><ele>137.25</ele><time>2026-04-27T14:55:11.712Z</time></trkpt><trkpt lat="45.5267949" lon="9.939492"><ele>138.0</ele><time>2026-04-27T14:55:12.702Z</time></trkpt><trkpt lat="45.5268658" lon="9.9393731"><ele>138.0</ele><time>2026-04-27T14:55:13.71Z</time></trkpt><trkpt lat="45.5269358" lon="9.9392639"><ele>138.0</ele><time>2026-04-27T14:55:14.703Z</time></trkpt><trkpt lat="45.5269958" lon="9.9391764"><ele>138.0</ele><time>2026-04-27T14:55:15.705Z</time></trkpt><trkpt lat="45.5270771" lon="9.939054"><ele>138.0</ele><time>2026-04-27T14:55:17.706Z</time></trkpt><trkpt lat="45.5271685" lon="9.9389274"><ele>138.0</ele><time>2026-04-27T14:55:19.711Z</time></trkpt><trkpt lat="45.5272195" lon="9.9388554"><ele>138.0</ele><time>2026-04-27T14:55:20.723Z</time></trkpt><trkpt lat="45.5272839" lon="9.9387697"><ele>138.0</ele><time>2026-04-27T14:55:21.707Z</time></trkpt><trkpt lat="45.5273556" lon="9.9386912"><ele>138.0</ele><time>2026-04-27T14:55:22.711Z</time></trkpt><trkpt lat="45.5274319" lon="9.9386031"><ele>138.0</ele><time>2026-04-27T14:55:23.709Z</time></trkpt><trkpt lat="45.527497" lon="9.938491"><ele>138.0</ele><time>2026-04-27T14:55:24.716Z</time></trkpt><trkpt lat="45.5275395" lon="9.9383675"><ele>138.0</ele><time>2026-04-27T14:55:25.718Z</time></trkpt><trkpt lat="45.5275768" lon="9.9382329"><ele>138.0</ele><time>2026-04-27T14:55:26.702Z</time></trkpt><trkpt lat="45.5276475" lon="9.9381148"><ele>138.0</ele><time>2026-04-27T14:55:27.717Z</time></trkpt><trkpt lat="45.5277158" lon="9.9379885"><ele>138.0</ele><time>2026-04-27T14:55:28.714Z</time></trkpt><trkpt lat="45.527779" lon="9.9378566"><ele>138.0</ele><time>2026-04-27T14:55:29.703Z</time></trkpt><trkpt lat="45.5278485" lon="9.93771"><ele>138.0</ele><time>2026-04-27T14:55:30.705Z</time></trkpt><trkpt lat="45.5279251" lon="9.9375528"><ele>138.0</ele><time>2026-04-27T14:55:31.709Z</time></trkpt><trkpt lat="45.5280036" lon="9.9373633"><ele>138.0</ele><time>2026-04-27T14:55:32.705Z</time></trkpt><trkpt lat="45.5280867" lon="9.937159"><ele>138.0</ele><time>2026-04-27T14:55:33.709Z</time></trkpt><trkpt lat="45.5281701" lon="9.9369737"><ele>138.0</ele><time>2026-04-27T14:55:34.707Z</time></trkpt><trkpt lat="45.5282542" lon="9.9367584"><ele>138.0</ele><time>2026-04-27T14:55:35.703Z</time></trkpt><trkpt lat="45.5283337" lon="9.9365367"><ele>138.0</ele><time>2026-04-27T14:55:36.709Z</time></trkpt><trkpt lat="45.5284053" lon="9.9363346"><ele>138.0</ele><time>2026-04-27T14:55:37.708Z</time></trkpt><trkpt lat="45.5284757" lon="9.9361426"><ele>138.0</ele><time>2026-04-27T14:55:38.722Z</time></trkpt><trkpt lat="45.5285481" lon="9.9359488"><ele>138.33333333333334</ele><time>2026-04-27T14:55:39.702Z</time></trkpt><trkpt lat="45.5286188" lon="9.9357541"><ele>138.66666666666669</ele><time>2026-04-27T14:55:40.713Z</time></trkpt><trkpt lat="45.5286928" lon="9.9355646"><ele>139.0</ele><time>2026-04-27T14:55:41.713Z</time></trkpt><trkpt lat="45.528768" lon="9.9353852"><ele>139.25</ele><time>2026-04-27T14:55:42.717Z</time></trkpt><trkpt lat="45.5288539" lon="9.9352187"><ele>139.5</ele><time>2026-04-27T14:55:43.701Z</time></trkpt><trkpt lat="45.5289512" lon="9.9350628"><ele>139.75</ele><time>2026-04-27T14:55:44.708Z</time></trkpt><trkpt lat="45.5290493" lon="9.9349141"><ele>140.0</ele><time>2026-04-27T14:55:45.711Z</time></trkpt><trkpt lat="45.5291512" lon="9.9347738"><ele>140.25</ele><time>2026-04-27T14:55:46.703Z</time></trkpt><trkpt lat="45.5292553" lon="9.9346494"><ele>140.5</ele><time>2026-04-27T14:55:47.706Z</time></trkpt><trkpt lat="45.5293605" lon="9.9345312"><ele>140.75</ele><time>2026-04-27T14:55:48.714Z</time></trkpt><trkpt lat="45.5294584" lon="9.9344119"><ele>141.0</ele><time>2026-04-27T14:55:49.714Z</time></trkpt><trkpt lat="45.5295531" lon="9.9342963"><ele>140.8</ele><time>2026-04-27T14:55:50.707Z</time></trkpt><trkpt lat="45.5296401" lon="9.9341856"><ele>140.6</ele><time>2026-04-27T14:55:51.714Z</time></trkpt><trkpt lat="45.5297209" lon="9.9340872"><ele>140.4</ele><time>2026-04-27T14:55:52.716Z</time></trkpt><trkpt lat="45.5297963" lon="9.934"><ele>140.2</ele><time>2026-04-27T14:55:53.705Z</time></trkpt><trkpt lat="45.5298687" lon="9.9339305"><ele>140.0</ele><time>2026-04-27T14:55:54.699Z</time></trkpt><trkpt lat="45.5299406" lon="9.9338873"><ele>140.0</ele><time>2026-04-27T14:55:55.713Z</time></trkpt><trkpt lat="45.5300056" lon="9.9338566"><ele>140.0</ele><time>2026-04-27T14:55:56.699Z</time></trkpt><trkpt lat="45.5301043" lon="9.9337393"><ele>140.0</ele><time>2026-04-27T14:55:58.72Z</time></trkpt><trkpt lat="45.5301269" lon="9.933643"><ele>140.0</ele><time>2026-04-27T14:55:59.701Z</time></trkpt><trkpt lat="45.5301999" lon="9.933479"><ele>140.0</ele><time>2026-04-27T14:56:01.707Z</time></trkpt><trkpt lat="45.5302705" lon="9.9333833"><ele>140.25</ele><time>2026-04-27T14:56:02.707Z</time></trkpt><trkpt lat="45.5303561" lon="9.9332771"><ele>140.5</ele><time>2026-04-27T14:56:03.703Z</time></trkpt><trkpt lat="45.530442" lon="9.9331639"><ele>140.75</ele><time>2026-04-27T14:56:04.7Z</time></trkpt><trkpt lat="45.5305338" lon="9.9330483"><ele>141.0</ele><time>2026-04-27T14:56:05.721Z</time></trkpt><trkpt lat="45.5306212" lon="9.932936"><ele>141.0</ele><time>2026-04-27T14:56:06.698Z</time></trkpt><trkpt lat="45.5307085" lon="9.9328208"><ele>141.0</ele><time>2026-04-27T14:56:07.707Z</time></trkpt><trkpt lat="45.5307949" lon="9.9327081"><ele>141.0</ele><time>2026-04-27T14:56:08.704Z</time></trkpt><trkpt lat="45.5308734" lon="9.9326047"><ele>141.0</ele><time>2026-04-27T14:56:09.7Z</time></trkpt><trkpt lat="45.5309597" lon="9.9324975"><ele>141.0</ele><time>2026-04-27T14:56:10.713Z</time></trkpt><trkpt lat="45.5310383" lon="9.9323962"><ele>141.0</ele><time>2026-04-27T14:56:11.695Z</time></trkpt><trkpt lat="45.5311202" lon="9.9322983"><ele>141.0</ele><time>2026-04-27T14:56:12.71Z</time></trkpt><trkpt lat="45.5312076" lon="9.932203"><ele>141.0</ele><time>2026-04-27T14:56:13.713Z</time></trkpt><trkpt lat="45.5312919" lon="9.9321256"><ele>141.0</ele><time>2026-04-27T14:56:14.712Z</time></trkpt><trkpt lat="45.5313986" lon="9.9320298"><ele>141.2</ele><time>2026-04-27T14:56:15.706Z</time></trkpt><trkpt lat="45.5315072" lon="9.9319548"><ele>141.39999999999998</ele><time>2026-04-27T14:56:16.713Z</time></trkpt><trkpt lat="45.5316202" lon="9.9318963"><ele>141.6</ele><time>2026-04-27T14:56:17.705Z</time></trkpt><trkpt lat="45.5317106" lon="9.9318679"><ele>141.79999999999998</ele><time>2026-04-27T14:56:18.714Z</time></trkpt><trkpt lat="45.5317846" lon="9.9318495"><ele>142.0</ele><time>2026-04-27T14:56:19.709Z</time></trkpt><trkpt lat="45.5318564" lon="9.9318372"><ele>142.0</ele><time>2026-04-27T14:56:20.706Z</time></trkpt><trkpt lat="45.5319754" lon="9.9318508"><ele>142.0</ele><time>2026-04-27T14:56:22.707Z</time></trkpt><trkpt lat="45.5320947" lon="9.9318591"><ele>142.0</ele><time>2026-04-27T14:56:24.719Z</time></trkpt><trkpt lat="45.5321625" lon="9.9318538"><ele>142.0</ele><time>2026-04-27T14:56:25.714Z</time></trkpt><trkpt lat="45.5322847" lon="9.9318614"><ele>142.0</ele><time>2026-04-27T14:56:27.699Z</time></trkpt><trkpt lat="45.5323641" lon="9.9318638"><ele>142.5</ele><time>2026-04-27T14:56:28.701Z</time></trkpt><trkpt lat="45.5324291" lon="9.9318708"><ele>143.0</ele><time>2026-04-27T14:56:29.695Z</time></trkpt><trkpt lat="45.5325579" lon="9.931867"><ele>143.5</ele><time>2026-04-27T14:56:31.705Z</time></trkpt><trkpt lat="45.5326779" lon="9.9318614"><ele>144.0</ele><time>2026-04-27T14:56:33.718Z</time></trkpt><trkpt lat="45.5328224" lon="9.9318559"><ele>144.16666666666666</ele><time>2026-04-27T14:56:35.711Z</time></trkpt><trkpt lat="45.5328928" lon="9.9318563"><ele>144.33333333333334</ele><time>2026-04-27T14:56:36.703Z</time></trkpt><trkpt lat="45.5329674" lon="9.931849"><ele>144.5</ele><time>2026-04-27T14:56:37.712Z</time></trkpt><trkpt lat="45.5330434" lon="9.9318547"><ele>144.66666666666669</ele><time>2026-04-27T14:56:38.703Z</time></trkpt><trkpt lat="45.5331294" lon="9.9318421"><ele>144.83333333333334</ele><time>2026-04-27T14:56:39.707Z</time></trkpt><trkpt lat="45.5332079" lon="9.9318372"><ele>145.0</ele><time>2026-04-27T14:56:40.711Z</time></trkpt><trkpt lat="45.5332813" lon="9.9318299"><ele>145.0</ele><time>2026-04-27T14:56:41.714Z</time></trkpt><trkpt lat="45.5333634" lon="9.9318269"><ele>145.0</ele><time>2026-04-27T14:56:42.705Z</time></trkpt><trkpt lat="45.5334364" lon="9.9318211"><ele>145.0</ele><time>2026-04-27T14:56:43.706Z</time></trkpt><trkpt lat="45.5335114" lon="9.9318097"><ele>145.0</ele><time>2026-04-27T14:56:44.709Z</time></trkpt><trkpt lat="45.5335779" lon="9.9317872"><ele>145.0</ele><time>2026-04-27T14:56:45.7Z</time></trkpt><trkpt lat="45.5336811" lon="9.9317698"><ele>145.0</ele><time>2026-04-27T14:56:47.703Z</time></trkpt><trkpt lat="45.5337865" lon="9.9317943"><ele>145.33333333333334</ele><time>2026-04-27T14:56:49.71Z</time></trkpt><trkpt lat="45.5339044" lon="9.9318221"><ele>145.66666666666669</ele><time>2026-04-27T14:56:51.701Z</time></trkpt><trkpt lat="45.5339688" lon="9.9318322"><ele>146.0</ele><time>2026-04-27T14:56:52.701Z</time></trkpt><trkpt lat="45.5340538" lon="9.9318403"><ele>146.33333333333334</ele><time>2026-04-27T14:56:53.704Z</time></trkpt><trkpt lat="45.5341229" lon="9.931843"><ele>146.66666666666666</ele><time>2026-04-27T14:56:54.719Z</time></trkpt><trkpt lat="45.5341881" lon="9.9318403"><ele>147.0</ele><time>2026-04-27T14:56:55.699Z</time></trkpt><trkpt lat="45.5342576" lon="9.9318327"><ele>147.0</ele><time>2026-04-27T14:56:56.703Z</time></trkpt><trkpt lat="45.5343699" lon="9.9318133"><ele>147.0</ele><time>2026-04-27T14:56:58.708Z</time></trkpt><trkpt lat="45.5344804" lon="9.9317984"><ele>147.0</ele><time>2026-04-27T14:57:00.705Z</time></trkpt><trkpt lat="45.5345769" lon="9.9318108"><ele>147.0</ele><time>2026-04-27T14:57:02.701Z</time></trkpt><trkpt lat="45.5346568" lon="9.9318431"><ele>147.0</ele><time>2026-04-27T14:57:04.711Z</time></trkpt><trkpt lat="45.5347048" lon="9.9319256"><ele>147.2</ele><time>2026-04-27T14:57:08.721Z</time></trkpt><trkpt lat="45.5347455" lon="9.9320225"><ele>147.39999999999998</ele><time>2026-04-27T14:57:10.694Z</time></trkpt><trkpt lat="45.5348537" lon="9.9320994"><ele>147.60000000000002</ele><time>2026-04-27T14:57:12.7Z</time></trkpt><trkpt lat="45.5349644" lon="9.9320953"><ele>147.8</ele><time>2026-04-27T14:57:14.698Z</time></trkpt><trkpt lat="45.5350657" lon="9.9320568"><ele>148.0</ele><time>2026-04-27T14:57:16.706Z</time></trkpt><trkpt lat="45.5351579" lon="9.9320878"><ele>148.0</ele><time>2026-04-27T14:57:18.701Z</time></trkpt><trkpt lat="45.5352248" lon="9.9321115"><ele>148.0</ele><time>2026-04-27T14:57:19.715Z</time></trkpt><trkpt lat="45.5352902" lon="9.9321369"><ele>148.0</ele><time>2026-04-27T14:57:20.705Z</time></trkpt><trkpt lat="45.5353571" lon="9.9321583"><ele>148.0</ele><time>2026-04-27T14:57:21.708Z</time></trkpt><trkpt lat="45.5354328" lon="9.9321808"><ele>148.0</ele><time>2026-04-27T14:57:22.723Z</time></trkpt><trkpt lat="45.5355185" lon="9.9321986"><ele>148.0</ele><time>2026-04-27T14:57:23.714Z</time></trkpt><trkpt lat="45.5356048" lon="9.9322215"><ele>148.0</ele><time>2026-04-27T14:57:24.721Z</time></trkpt><trkpt lat="45.5356966" lon="9.9322576"><ele>148.0</ele><time>2026-04-27T14:57:25.714Z</time></trkpt><trkpt lat="45.5357872" lon="9.9322846"><ele>148.0</ele><time>2026-04-27T14:57:26.701Z</time></trkpt><trkpt lat="45.535885" lon="9.9322989"><ele>148.0</ele><time>2026-04-27T14:57:27.716Z</time></trkpt><trkpt lat="45.5359659" lon="9.9323042"><ele>148.0</ele><time>2026-04-27T14:57:28.71Z</time></trkpt><trkpt lat="45.536044" lon="9.9323029"><ele>148.0</ele><time>2026-04-27T14:57:29.71Z</time></trkpt><trkpt lat="45.5361208" lon="9.9322852"><ele>148.0</ele><time>2026-04-27T14:57:30.693Z</time></trkpt><trkpt lat="45.536193" lon="9.9322671"><ele>148.0</ele><time>2026-04-27T14:57:31.709Z</time></trkpt><trkpt lat="45.5362602" lon="9.9322529"><ele>148.0</ele><time>2026-04-27T14:57:32.705Z</time></trkpt><trkpt lat="45.5363238" lon="9.9322377"><ele>148.0</ele><time>2026-04-27T14:57:33.708Z</time></trkpt><trkpt lat="45.5364339" lon="9.9321992"><ele>148.0</ele><time>2026-04-27T14:57:35.713Z</time></trkpt><trkpt lat="45.5365289" lon="9.9321827"><ele>148.0</ele><time>2026-04-27T14:57:37.7Z</time></trkpt><trkpt lat="45.536622" lon="9.9321767"><ele>148.4</ele><time>2026-04-27T14:57:39.703Z</time></trkpt><trkpt lat="45.5367225" lon="9.9321744"><ele>148.8</ele><time>2026-04-27T14:57:41.705Z</time></trkpt><trkpt lat="45.53682" lon="9.9321551"><ele>149.2</ele><time>2026-04-27T14:57:43.71Z</time></trkpt><trkpt lat="45.5369146" lon="9.9321261"><ele>149.6</ele><time>2026-04-27T14:57:45.718Z</time></trkpt><trkpt lat="45.5370248" lon="9.9321034"><ele>150.0</ele><time>2026-04-27T14:57:47.705Z</time></trkpt><trkpt lat="45.5371494" lon="9.9320839"><ele>151.0</ele><time>2026-04-27T14:57:49.698Z</time></trkpt><trkpt lat="45.5372529" lon="9.9320829"><ele>151.0</ele><time>2026-04-27T14:57:51.709Z</time></trkpt></trkseg><trkseg><trkpt lat="45.8719315" lon="9.2396092"><ele>786.0</ele><time>2026-05-03T09:41:05.903Z</time></trkpt><trkpt lat="45.8720193" lon="9.2396051"><ele>786.0</ele><time>2026-05-03T09:41:10.9Z</time></trkpt><trkpt lat="45.8720967" lon="9.2395848"><ele>786.0</ele><time>2026-05-03T09:41:13.896Z</time></trkpt><trkpt lat="45.8721236" lon="9.2394916"><ele>786.0</ele><time>2026-05-03T09:41:16.91Z</time></trkpt><trkpt lat="45.8720821" lon="9.2393822"><ele>786.0</ele><time>2026-05-03T09:41:18.912Z</time></trkpt><trkpt lat="45.8720244" lon="9.239251"><ele>786.0</ele><time>2026-05-03T09:41:20.907Z</time></trkpt><trkpt lat="45.8719501" lon="9.2391248"><ele>786.0</ele><time>2026-05-03T09:41:22.898Z</time></trkpt><trkpt lat="45.8718462" lon="9.2390375"><ele>786.0</ele><time>2026-05-03T09:41:24.903Z</time></trkpt><trkpt lat="45.8717485" lon="9.2389517"><ele>786.0</ele><time>2026-05-03T09:41:26.906Z</time></trkpt><trkpt lat="45.8716487" lon="9.2388654"><ele>786.0</ele><time>2026-05-03T09:41:28.909Z</time></trkpt><trkpt lat="45.8715459" lon="9.2387832"><ele>786.0</ele><time>2026-05-03T09:41:30.909Z</time></trkpt><trkpt lat="45.8714433" lon="9.2387194"><ele>786.0</ele><time>2026-05-03T09:41:32.905Z</time></trkpt><trkpt lat="45.871368" lon="9.238656"><ele>786.0</ele><time>2026-05-03T09:41:34.902Z</time></trkpt><trkpt lat="45.87135" lon="9.2385679"><ele>786.0</ele><time>2026-05-03T09:41:35.899Z</time></trkpt><trkpt lat="45.8713285" lon="9.2384762"><ele>786.0</ele><time>2026-05-03T09:41:36.898Z</time></trkpt><trkpt lat="45.8712919" lon="9.238316"><ele>786.0</ele><time>2026-05-03T09:41:38.902Z</time></trkpt><trkpt lat="45.8712685" lon="9.2382199"><ele>786.0</ele><time>2026-05-03T09:41:48.898Z</time></trkpt><trkpt lat="45.8712077" lon="9.2383126"><ele>786.0</ele><time>2026-05-03T09:41:52.904Z</time></trkpt><trkpt lat="45.8711491" lon="9.2384448"><ele>786.0</ele><time>2026-05-03T09:41:54.903Z</time></trkpt><trkpt lat="45.8711226" lon="9.2385294"><ele>786.0</ele><time>2026-05-03T09:41:55.905Z</time></trkpt><trkpt lat="45.8711094" lon="9.2386195"><ele>786.0</ele><time>2026-05-03T09:41:56.899Z</time></trkpt><trkpt lat="45.8710981" lon="9.2387681"><ele>786.0</ele><time>2026-05-03T09:41:58.905Z</time></trkpt><trkpt lat="45.8710736" lon="9.2388681"><ele>787.5</ele><time>2026-05-03T09:42:00.905Z</time></trkpt><trkpt lat="45.8708896" lon="9.2389262"><ele>789.0</ele><time>2026-05-03T09:42:03.898Z</time></trkpt><trkpt lat="45.8708054" lon="9.2389418"><ele>790.5</ele><time>2026-05-03T09:42:04.907Z</time></trkpt><trkpt lat="45.8707098" lon="9.2389371"><ele>792.0</ele><time>2026-05-03T09:42:05.913Z</time></trkpt><trkpt lat="45.8706129" lon="9.2389283"><ele>792.0</ele><time>2026-05-03T09:42:06.898Z</time></trkpt><trkpt lat="45.8705179" lon="9.238917"><ele>792.0</ele><time>2026-05-03T09:42:07.901Z</time></trkpt><trkpt lat="45.8704247" lon="9.2389076"><ele>792.0</ele><time>2026-05-03T09:42:08.911Z</time></trkpt><trkpt lat="45.8703327" lon="9.2389"><ele>792.0</ele><time>2026-05-03T09:42:09.913Z</time></trkpt><trkpt lat="45.8702383" lon="9.2388929"><ele>792.0</ele><time>2026-05-03T09:42:10.904Z</time></trkpt><trkpt lat="45.8701377" lon="9.2388863"><ele>792.8</ele><time>2026-05-03T09:42:11.895Z</time></trkpt><trkpt lat="45.8700313" lon="9.2388766"><ele>793.6</ele><time>2026-05-03T09:42:12.9Z</time></trkpt><trkpt lat="45.8699282" lon="9.2388623"><ele>794.4</ele><time>2026-05-03T09:42:13.91Z</time></trkpt><trkpt lat="45.8698319" lon="9.2388373"><ele>795.1999999999999</ele><time>2026-05-03T09:42:14.906Z</time></trkpt><trkpt lat="45.8697466" lon="9.2388089"><ele>796.0</ele><time>2026-05-03T09:42:15.886Z</time></trkpt><trkpt lat="45.8696714" lon="9.2387797"><ele>795.9999999999999</ele><time>2026-05-03T09:42:16.924Z</time></trkpt><trkpt lat="45.8695972" lon="9.2387643"><ele>796.0</ele><time>2026-05-03T09:42:17.896Z</time></trkpt><trkpt lat="45.8695242" lon="9.2387495"><ele>796.0</ele><time>2026-05-03T09:42:18.895Z</time></trkpt><trkpt lat="45.8694536" lon="9.2388092"><ele>796.0</ele><time>2026-05-03T09:42:19.905Z</time></trkpt><trkpt lat="45.8693919" lon="9.2389132"><ele>795.9999999999999</ele><time>2026-05-03T09:42:20.898Z</time></trkpt><trkpt lat="45.8693175" lon="9.2390345"><ele>796.0</ele><time>2026-05-03T09:42:21.908Z</time></trkpt><trkpt lat="45.8692377" lon="9.2391623"><ele>794.1999999999999</ele><time>2026-05-03T09:42:22.906Z</time></trkpt><trkpt lat="45.8691629" lon="9.2392827"><ele>792.4</ele><time>2026-05-03T09:42:23.907Z</time></trkpt><trkpt lat="45.8690943" lon="9.2393879"><ele>790.6</ele><time>2026-05-03T09:42:24.904Z</time></trkpt><trkpt lat="45.8690396" lon="9.2394806"><ele>788.8</ele><time>2026-05-03T09:42:25.898Z</time></trkpt><trkpt lat="45.8690044" lon="9.2395685"><ele>787.0</ele><time>2026-05-03T09:42:26.895Z</time></trkpt><trkpt lat="45.8689944" lon="9.2397433"><ele>787.0</ele><time>2026-05-03T09:42:28.889Z</time></trkpt><trkpt lat="45.8690571" lon="9.2397858"><ele>787.0</ele><time>2026-05-03T09:42:29.905Z</time></trkpt><trkpt lat="45.869145" lon="9.2397849"><ele>787.0</ele><time>2026-05-03T09:42:30.9Z</time></trkpt><trkpt lat="45.8692433" lon="9.2397645"><ele>787.0</ele><time>2026-05-03T09:42:31.903Z</time></trkpt><trkpt lat="45.8693478" lon="9.2397461"><ele>787.0</ele><time>2026-05-03T09:42:32.894Z</time></trkpt><trkpt lat="45.8694522" lon="9.23973"><ele>786.2</ele><time>2026-05-03T09:42:33.908Z</time></trkpt><trkpt lat="45.8695509" lon="9.2397199"><ele>785.4000000000001</ele><time>2026-05-03T09:42:34.905Z</time></trkpt><trkpt lat="45.8696502" lon="9.2397241"><ele>784.5999999999999</ele><time>2026-05-03T09:42:35.891Z</time></trkpt><trkpt lat="45.8697571" lon="9.2397715"><ele>783.8</ele><time>2026-05-03T09:42:36.898Z</time></trkpt><trkpt lat="45.8698687" lon="9.2398593"><ele>783.0</ele><time>2026-05-03T09:42:37.903Z</time></trkpt><trkpt lat="45.8699786" lon="9.2399617"><ele>780.5</ele><time>2026-05-03T09:42:38.896Z</time></trkpt><trkpt lat="45.8700895" lon="9.240068"><ele>778.0</ele><time>2026-05-03T09:42:39.904Z</time></trkpt><trkpt lat="45.8702002" lon="9.24017"><ele>775.5</ele><time>2026-05-03T09:42:40.899Z</time></trkpt><trkpt lat="45.870308" lon="9.2402638"><ele>773.0</ele><time>2026-05-03T09:42:41.905Z</time></trkpt><trkpt lat="45.8704067" lon="9.2403361"><ele>773.0000000000001</ele><time>2026-05-03T09:42:42.906Z</time></trkpt><trkpt lat="45.8704996" lon="9.2403798"><ele>773.0</ele><time>2026-05-03T09:42:43.902Z</time></trkpt><trkpt lat="45.870584" lon="9.2403977"><ele>773.0</ele><time>2026-05-03T09:42:44.904Z</time></trkpt><trkpt lat="45.8706586" lon="9.2404061"><ele>773.0</ele><time>2026-05-03T09:42:45.904Z</time></trkpt><trkpt lat="45.8707206" lon="9.2404219"><ele>773.0000000000001</ele><time>2026-05-03T09:42:46.904Z</time></trkpt><trkpt lat="45.8707906" lon="9.240529"><ele>773.0</ele><time>2026-05-03T09:42:48.891Z</time></trkpt><trkpt lat="45.8707516" lon="9.2406693"><ele>770.4</ele><time>2026-05-03T09:42:50.906Z</time></trkpt><trkpt lat="45.870671" lon="9.2406834"><ele>767.8</ele><time>2026-05-03T09:42:51.893Z</time></trkpt><trkpt lat="45.8705739" lon="9.2406884"><ele>765.2</ele><time>2026-05-03T09:42:52.898Z</time></trkpt><trkpt lat="45.8704604" lon="9.2406902"><ele>762.6</ele><time>2026-05-03T09:42:53.893Z</time></trkpt><trkpt lat="45.870341" lon="9.240692"><ele>760.0</ele><time>2026-05-03T09:42:54.905Z</time></trkpt><trkpt lat="45.8702182" lon="9.2406917"><ele>760.0</ele><time>2026-05-03T09:42:55.895Z</time></trkpt><trkpt lat="45.8700985" lon="9.240692"><ele>760.0</ele><time>2026-05-03T09:42:56.896Z</time></trkpt><trkpt lat="45.8699937" lon="9.2407062"><ele>760.0</ele><time>2026-05-03T09:42:57.908Z</time></trkpt><trkpt lat="45.869893" lon="9.2407211"><ele>760.0</ele><time>2026-05-03T09:42:58.897Z</time></trkpt><trkpt lat="45.8698021" lon="9.2408005"><ele>760.0</ele><time>2026-05-03T09:42:59.904Z</time></trkpt><trkpt lat="45.8697157" lon="9.2408851"><ele>760.0</ele><time>2026-05-03T09:43:00.892Z</time></trkpt><trkpt lat="45.8696467" lon="9.2410066"><ele>760.0</ele><time>2026-05-03T09:43:01.904Z</time></trkpt><trkpt lat="45.8695802" lon="9.2411359"><ele>760.0</ele><time>2026-05-03T09:43:02.9Z</time></trkpt><trkpt lat="45.8695113" lon="9.2412579"><ele>760.0</ele><time>2026-05-03T09:43:03.901Z</time></trkpt><trkpt lat="45.869439" lon="9.2413846"><ele>760.0</ele><time>2026-05-03T09:43:04.907Z</time></trkpt><trkpt lat="45.8693665" lon="9.2415209"><ele>759.5</ele><time>2026-05-03T09:43:05.908Z</time></trkpt><trkpt lat="45.8692911" lon="9.2416806"><ele>759.0</ele><time>2026-05-03T09:43:06.908Z</time></trkpt><trkpt lat="45.8692171" lon="9.2418502"><ele>758.5</ele><time>2026-05-03T09:43:07.915Z</time></trkpt><trkpt lat="45.8691424" lon="9.2420298"><ele>758.0</ele><time>2026-05-03T09:43:08.908Z</time></trkpt><trkpt lat="45.8690703" lon="9.2422124"><ele>753.75</ele><time>2026-05-03T09:43:09.909Z</time></trkpt><trkpt lat="45.8689985" lon="9.2423983"><ele>749.5</ele><time>2026-05-03T09:43:10.901Z</time></trkpt><trkpt lat="45.8689237" lon="9.2425816"><ele>745.25</ele><time>2026-05-03T09:43:11.907Z</time></trkpt><trkpt lat="45.8688527" lon="9.2427602"><ele>741.0</ele><time>2026-05-03T09:43:12.9Z</time></trkpt><trkpt lat="45.8687812" lon="9.2429299"><ele>741.0</ele><time>2026-05-03T09:43:13.912Z</time></trkpt><trkpt lat="45.8686974" lon="9.243092"><ele>741.0</ele><time>2026-05-03T09:43:14.901Z</time></trkpt><trkpt lat="45.8685946" lon="9.2432374"><ele>741.0</ele><time>2026-05-03T09:43:15.9Z</time></trkpt><trkpt lat="45.8684906" lon="9.2433759"><ele>741.0</ele><time>2026-05-03T09:43:16.897Z</time></trkpt><trkpt lat="45.8683471" lon="9.2434628"><ele>741.6666666666666</ele><time>2026-05-03T09:43:17.9Z</time></trkpt><trkpt lat="45.8682065" lon="9.2435508"><ele>742.3333333333333</ele><time>2026-05-03T09:43:18.901Z</time></trkpt><trkpt lat="45.8680624" lon="9.243641"><ele>743.0</ele><time>2026-05-03T09:43:19.903Z</time></trkpt><trkpt lat="45.8679186" lon="9.2437442"><ele>743.0</ele><time>2026-05-03T09:43:20.893Z</time></trkpt><trkpt lat="45.8677748" lon="9.2438547"><ele>743.0</ele><time>2026-05-03T09:43:21.888Z</time></trkpt><trkpt lat="45.867647" lon="9.2439791"><ele>743.0</ele><time>2026-05-03T09:43:22.908Z</time></trkpt><trkpt lat="45.8675224" lon="9.2441105"><ele>738.6666666666666</ele><time>2026-05-03T09:43:23.901Z</time></trkpt><trkpt lat="45.8674006" lon="9.244245"><ele>734.3333333333334</ele><time>2026-05-03T09:43:24.892Z</time></trkpt><trkpt lat="45.867275" lon="9.2443737"><ele>730.0</ele><time>2026-05-03T09:43:25.901Z</time></trkpt><trkpt lat="45.8671579" lon="9.2444942"><ele>730.0</ele><time>2026-05-03T09:43:26.908Z</time></trkpt><trkpt lat="45.8670494" lon="9.2446094"><ele>730.0</ele><time>2026-05-03T09:43:27.901Z</time></trkpt><trkpt lat="45.8669547" lon="9.2446994"><ele>730.0</ele><time>2026-05-03T09:43:28.929Z</time></trkpt><trkpt lat="45.8668529" lon="9.2447549"><ele>730.0</ele><time>2026-05-03T09:43:29.891Z</time></trkpt><trkpt lat="45.8667427" lon="9.2447892"><ele>729.5</ele><time>2026-05-03T09:43:30.9Z</time></trkpt><trkpt lat="45.8666178" lon="9.2447391"><ele>729.0</ele><time>2026-05-03T09:43:31.902Z</time></trkpt><trkpt lat="45.8664921" lon="9.2446616"><ele>728.5</ele><time>2026-05-03T09:43:32.911Z</time></trkpt><trkpt lat="45.8663537" lon="9.2446106"><ele>728.0</ele><time>2026-05-03T09:43:33.904Z</time></trkpt><trkpt lat="45.866213" lon="9.2445647"><ele>728.0</ele><time>2026-05-03T09:43:34.889Z</time></trkpt><trkpt lat="45.8660835" lon="9.244536"><ele>728.0</ele><time>2026-05-03T09:43:35.905Z</time></trkpt><trkpt lat="45.8659595" lon="9.2445158"><ele>728.0</ele><time>2026-05-03T09:43:36.895Z</time></trkpt><trkpt lat="45.8658463" lon="9.2445005"><ele>728.0</ele><time>2026-05-03T09:43:37.897Z</time></trkpt><trkpt lat="45.8657514" lon="9.2444832"><ele>726.5</ele><time>2026-05-03T09:43:38.902Z</time></trkpt><trkpt lat="45.8656738" lon="9.2444697"><ele>725.0</ele><time>2026-05-03T09:43:39.906Z</time></trkpt><trkpt lat="45.865603" lon="9.2444612"><ele>723.5</ele><time>2026-05-03T09:43:40.906Z</time></trkpt><trkpt lat="45.8655059" lon="9.2445675"><ele>722.0</ele><time>2026-05-03T09:43:42.901Z</time></trkpt><trkpt lat="45.865522" lon="9.2446815"><ele>720.5</ele><time>2026-05-03T09:43:43.887Z</time></trkpt><trkpt lat="45.8655849" lon="9.2447831"><ele>719.0</ele><time>2026-05-03T09:43:44.9Z</time></trkpt><trkpt lat="45.8656552" lon="9.2449029"><ele>719.0</ele><time>2026-05-03T09:43:45.911Z</time></trkpt><trkpt lat="45.8657637" lon="9.2450336"><ele>719.0</ele><time>2026-05-03T09:43:46.902Z</time></trkpt><trkpt lat="45.865875" lon="9.2451813"><ele>719.0</ele><time>2026-05-03T09:43:47.892Z</time></trkpt><trkpt lat="45.8659947" lon="9.2453432"><ele>719.0</ele><time>2026-05-03T09:43:48.902Z</time></trkpt><trkpt lat="45.866112" lon="9.2455417"><ele>719.0</ele><time>2026-05-03T09:43:49.901Z</time></trkpt><trkpt lat="45.8662273" lon="9.2457643"><ele>719.0</ele><time>2026-05-03T09:43:50.894Z</time></trkpt><trkpt lat="45.8663386" lon="9.2459884"><ele>716.0</ele><time>2026-05-03T09:43:51.899Z</time></trkpt><trkpt lat="45.866448" lon="9.2462145"><ele>713.0</ele><time>2026-05-03T09:43:52.902Z</time></trkpt><trkpt lat="45.8665568" lon="9.2464223"><ele>710.0</ele><time>2026-05-03T09:43:53.887Z</time></trkpt><trkpt lat="45.8666571" lon="9.2466053"><ele>706.75</ele><time>2026-05-03T09:43:54.918Z</time></trkpt><trkpt lat="45.8667459" lon="9.2467614"><ele>703.5</ele><time>2026-05-03T09:43:55.885Z</time></trkpt><trkpt lat="45.8668284" lon="9.2468883"><ele>700.25</ele><time>2026-05-03T09:43:56.9Z</time></trkpt><trkpt lat="45.8669241" lon="9.2469938"><ele>697.0</ele><time>2026-05-03T09:43:57.901Z</time></trkpt><trkpt lat="45.8670354" lon="9.2470613"><ele>696.75</ele><time>2026-05-03T09:43:58.917Z</time></trkpt><trkpt lat="45.8671564" lon="9.2470918"><ele>696.5</ele><time>2026-05-03T09:43:59.908Z</time></trkpt><trkpt lat="45.8672839" lon="9.2470791"><ele>696.25</ele><time>2026-05-03T09:44:00.902Z</time></trkpt><trkpt lat="45.8674126" lon="9.2470197"><ele>696.0</ele><time>2026-05-03T09:44:01.909Z</time></trkpt><trkpt lat="45.8675447" lon="9.2469467"><ele>691.6666666666666</ele><time>2026-05-03T09:44:02.905Z</time></trkpt><trkpt lat="45.8676758" lon="9.2468244"><ele>687.3333333333333</ele><time>2026-05-03T09:44:03.937Z</time></trkpt><trkpt lat="45.8678203" lon="9.2467258"><ele>683.0</ele><time>2026-05-03T09:44:04.882Z</time></trkpt><trkpt lat="45.8679496" lon="9.2466342"><ele>683.0</ele><time>2026-05-03T09:44:05.916Z</time></trkpt><trkpt lat="45.8680707" lon="9.2465583"><ele>683.0</ele><time>2026-05-03T09:44:06.909Z</time></trkpt><trkpt lat="45.8681959" lon="9.2465167"><ele>683.0</ele><time>2026-05-03T09:44:07.896Z</time></trkpt><trkpt lat="45.8683245" lon="9.2465107"><ele>683.0</ele><time>2026-05-03T09:44:08.888Z</time></trkpt><trkpt lat="45.8684505" lon="9.2465155"><ele>682.5</ele><time>2026-05-03T09:44:09.89Z</time></trkpt><trkpt lat="45.8685869" lon="9.2465699"><ele>682.0</ele><time>2026-05-03T09:44:10.903Z</time></trkpt><trkpt lat="45.8687167" lon="9.24663"><ele>681.5</ele><time>2026-05-03T09:44:11.89Z</time></trkpt><trkpt lat="45.8688452" lon="9.2466827"><ele>681.0</ele><time>2026-05-03T09:44:12.902Z</time></trkpt><trkpt lat="45.8689686" lon="9.2467211"><ele>681.0</ele><time>2026-05-03T09:44:13.898Z</time></trkpt><trkpt lat="45.8690866" lon="9.246765"><ele>681.0</ele><time>2026-05-03T09:44:14.909Z</time></trkpt><trkpt lat="45.8692028" lon="9.2468064"><ele>681.0</ele><time>2026-05-03T09:44:15.899Z</time></trkpt><trkpt lat="45.8693139" lon="9.2468421"><ele>681.0</ele><time>2026-05-03T09:44:16.899Z</time></trkpt><trkpt lat="45.8694151" lon="9.2468657"><ele>680.1999999999999</ele><time>2026-05-03T09:44:17.905Z</time></trkpt><trkpt lat="45.869511" lon="9.2468789"><ele>679.4</ele><time>2026-05-03T09:44:18.904Z</time></trkpt><trkpt lat="45.8695923" lon="9.2468739"><ele>678.6</ele><time>2026-05-03T09:44:19.902Z</time></trkpt><trkpt lat="45.8696684" lon="9.2468757"><ele>677.8</ele><time>2026-05-03T09:44:20.903Z</time></trkpt><trkpt lat="45.8697668" lon="9.2469493"><ele>677.0</ele><time>2026-05-03T09:44:22.907Z</time></trkpt><trkpt lat="45.869766" lon="9.2470823"><ele>677.0</ele><time>2026-05-03T09:44:24.904Z</time></trkpt><trkpt lat="45.8696298" lon="9.247068"><ele>677.0</ele><time>2026-05-03T09:44:26.89Z</time></trkpt><trkpt lat="45.8695367" lon="9.2470502"><ele>677.0</ele><time>2026-05-03T09:44:27.904Z</time></trkpt><trkpt lat="45.8694339" lon="9.2470479"><ele>677.0</ele><time>2026-05-03T09:44:28.887Z</time></trkpt><trkpt lat="45.8693284" lon="9.2470573"><ele>677.0</ele><time>2026-05-03T09:44:29.9Z</time></trkpt><trkpt lat="45.8692246" lon="9.2470806"><ele>677.8</ele><time>2026-05-03T09:44:30.904Z</time></trkpt><trkpt lat="45.8691205" lon="9.2471112"><ele>678.6</ele><time>2026-05-03T09:44:31.904Z</time></trkpt><trkpt lat="45.8690171" lon="9.2471425"><ele>679.4</ele><time>2026-05-03T09:44:32.899Z</time></trkpt><trkpt lat="45.86891" lon="9.2471758"><ele>680.1999999999999</ele><time>2026-05-03T09:44:33.898Z</time></trkpt><trkpt lat="45.8688073" lon="9.2472407"><ele>681.0</ele><time>2026-05-03T09:44:34.895Z</time></trkpt><trkpt lat="45.8687073" lon="9.2473322"><ele>678.5</ele><time>2026-05-03T09:44:35.907Z</time></trkpt><trkpt lat="45.8686083" lon="9.2474537"><ele>676.0</ele><time>2026-05-03T09:44:36.907Z</time></trkpt><trkpt lat="45.86851" lon="9.2475823"><ele>673.5</ele><time>2026-05-03T09:44:37.907Z</time></trkpt><trkpt lat="45.868415" lon="9.2477128"><ele>671.0</ele><time>2026-05-03T09:44:38.9Z</time></trkpt><trkpt lat="45.8683266" lon="9.2478423"><ele>671.0</ele><time>2026-05-03T09:44:39.895Z</time></trkpt><trkpt lat="45.8682473" lon="9.2479783"><ele>671.0</ele><time>2026-05-03T09:44:40.902Z</time></trkpt><trkpt lat="45.8681768" lon="9.2481154"><ele>671.0</ele><time>2026-05-03T09:44:41.902Z</time></trkpt><trkpt lat="45.8681084" lon="9.248253"><ele>671.0</ele><time>2026-05-03T09:44:42.901Z</time></trkpt><trkpt lat="45.8680421" lon="9.2483863"><ele>668.5</ele><time>2026-05-03T09:44:43.915Z</time></trkpt><trkpt lat="45.8679688" lon="9.2485072"><ele>666.0</ele><time>2026-05-03T09:44:44.902Z</time></trkpt><trkpt lat="45.8678743" lon="9.2486052"><ele>663.5</ele><time>2026-05-03T09:44:45.903Z</time></trkpt><trkpt lat="45.8677629" lon="9.2486863"><ele>661.0</ele><time>2026-05-03T09:44:46.912Z</time></trkpt><trkpt lat="45.8676479" lon="9.2487508"><ele>662.1999999999999</ele><time>2026-05-03T09:44:47.904Z</time></trkpt><trkpt lat="45.8675485" lon="9.248817"><ele>663.4</ele><time>2026-05-03T09:44:48.9Z</time></trkpt><trkpt lat="45.8674582" lon="9.2488765"><ele>664.6</ele><time>2026-05-03T09:44:49.906Z</time></trkpt><trkpt lat="45.8673799" lon="9.2489224"><ele>665.8</ele><time>2026-05-03T09:44:50.901Z</time></trkpt><trkpt lat="45.8672706" lon="9.2489869"><ele>667.0</ele><time>2026-05-03T09:44:52.905Z</time></trkpt><trkpt lat="45.86722" lon="9.2491022"><ele>663.8</ele><time>2026-05-03T09:44:54.899Z</time></trkpt><trkpt lat="45.8673061" lon="9.2492101"><ele>660.6</ele><time>2026-05-03T09:44:56.888Z</time></trkpt><trkpt lat="45.8673954" lon="9.2492167"><ele>657.4</ele><time>2026-05-03T09:44:57.901Z</time></trkpt><trkpt lat="45.867494" lon="9.2492108"><ele>654.1999999999999</ele><time>2026-05-03T09:44:58.904Z</time></trkpt><trkpt lat="45.867607" lon="9.2491995"><ele>651.0</ele><time>2026-05-03T09:44:59.898Z</time></trkpt><trkpt lat="45.8677187" lon="9.2491874"><ele>650.8</ele><time>2026-05-03T09:45:00.902Z</time></trkpt><trkpt lat="45.8678182" lon="9.2491765"><ele>650.5999999999999</ele><time>2026-05-03T09:45:01.889Z</time></trkpt><trkpt lat="45.867898" lon="9.2491673"><ele>650.4</ele><time>2026-05-03T09:45:02.895Z</time></trkpt><trkpt lat="45.8679624" lon="9.2491636"><ele>650.2</ele><time>2026-05-03T09:45:03.894Z</time></trkpt><trkpt lat="45.8680633" lon="9.249218"><ele>650.0</ele><time>2026-05-03T09:45:05.906Z</time></trkpt><trkpt lat="45.8680628" lon="9.2493895"><ele>650.0</ele><time>2026-05-03T09:45:07.91Z</time></trkpt><trkpt lat="45.8680024" lon="9.2494722"><ele>650.0</ele><time>2026-05-03T09:45:08.898Z</time></trkpt><trkpt lat="45.8679134" lon="9.2495482"><ele>650.0</ele><time>2026-05-03T09:45:09.894Z</time></trkpt><trkpt lat="45.8678013" lon="9.2496298"><ele>650.0</ele><time>2026-05-03T09:45:10.891Z</time></trkpt><trkpt lat="45.8676851" lon="9.2497274"><ele>650.0</ele><time>2026-05-03T09:45:11.901Z</time></trkpt><trkpt lat="45.8675699" lon="9.2498222"><ele>647.0</ele><time>2026-05-03T09:45:12.895Z</time></trkpt><trkpt lat="45.8674551" lon="9.249914"><ele>644.0</ele><time>2026-05-03T09:45:13.901Z</time></trkpt><trkpt lat="45.8673439" lon="9.2500075"><ele>641.0</ele><time>2026-05-03T09:45:14.899Z</time></trkpt><trkpt lat="45.8672314" lon="9.2500997"><ele>638.0</ele><time>2026-05-03T09:45:15.905Z</time></trkpt><trkpt lat="45.8671229" lon="9.2501882"><ele>638.0</ele><time>2026-05-03T09:45:16.905Z</time></trkpt><trkpt lat="45.8670213" lon="9.2502736"><ele>638.0</ele><time>2026-05-03T09:45:17.889Z</time></trkpt><trkpt lat="45.8669206" lon="9.2503498"><ele>638.0</ele><time>2026-05-03T09:45:18.907Z</time></trkpt><trkpt lat="45.8668205" lon="9.250417"><ele>638.0</ele><time>2026-05-03T09:45:19.885Z</time></trkpt><trkpt lat="45.8667154" lon="9.2504642"><ele>638.8</ele><time>2026-05-03T09:45:20.902Z</time></trkpt><trkpt lat="45.8666115" lon="9.2504937"><ele>639.5999999999999</ele><time>2026-05-03T09:45:21.885Z</time></trkpt><trkpt lat="45.8665121" lon="9.2505195"><ele>640.4000000000001</ele><time>2026-05-03T09:45:22.885Z</time></trkpt><trkpt lat="45.8664141" lon="9.2505253"><ele>641.2</ele><time>2026-05-03T09:45:23.892Z</time></trkpt><trkpt lat="45.86633" lon="9.2505127"><ele>642.0</ele><time>2026-05-03T09:45:24.901Z</time></trkpt><trkpt lat="45.8662604" lon="9.2505032"><ele>642.0</ele><time>2026-05-03T09:45:25.9Z</time></trkpt><trkpt lat="45.8661579" lon="9.2504688"><ele>642.0</ele><time>2026-05-03T09:45:27.9Z</time></trkpt><trkpt lat="45.8660936" lon="9.2505574"><ele>642.0</ele><time>2026-05-03T09:45:29.898Z</time></trkpt><trkpt lat="45.8661385" lon="9.2507013"><ele>642.0</ele><time>2026-05-03T09:45:31.898Z</time></trkpt><trkpt lat="45.8662092" lon="9.2507766"><ele>642.0</ele><time>2026-05-03T09:45:32.898Z</time></trkpt><trkpt lat="45.8663058" lon="9.2508614"><ele>639.0</ele><time>2026-05-03T09:45:33.9Z</time></trkpt><trkpt lat="45.8664201" lon="9.2509599"><ele>636.0</ele><time>2026-05-03T09:45:34.89Z</time></trkpt><trkpt lat="45.8665428" lon="9.251069"><ele>633.0</ele><time>2026-05-03T09:45:35.899Z</time></trkpt><trkpt lat="45.8666794" lon="9.2511794"><ele>630.0</ele><time>2026-05-03T09:45:36.903Z</time></trkpt><trkpt lat="45.8668289" lon="9.251272"><ele>629.3333333333334</ele><time>2026-05-03T09:45:37.899Z</time></trkpt><trkpt lat="45.8669896" lon="9.2513513"><ele>628.6666666666667</ele><time>2026-05-03T09:45:38.902Z</time></trkpt><trkpt lat="45.8671507" lon="9.2514203"><ele>628.0</ele><time>2026-05-03T09:45:39.904Z</time></trkpt><trkpt lat="45.8673062" lon="9.251483"><ele>624.75</ele><time>2026-05-03T09:45:40.91Z</time></trkpt><trkpt lat="45.8674554" lon="9.2515469"><ele>621.5</ele><time>2026-05-03T09:45:41.906Z</time></trkpt><trkpt lat="45.867597" lon="9.2516094"><ele>618.25</ele><time>2026-05-03T09:45:42.901Z</time></trkpt><trkpt lat="45.8677255" lon="9.2516645"><ele>615.0</ele><time>2026-05-03T09:45:43.905Z</time></trkpt><trkpt lat="45.8678367" lon="9.2517169"><ele>614.4</ele><time>2026-05-03T09:45:44.91Z</time></trkpt><trkpt lat="45.8679359" lon="9.2517407"><ele>613.8</ele><time>2026-05-03T09:45:45.897Z</time></trkpt><trkpt lat="45.86802" lon="9.2517268"><ele>613.2</ele><time>2026-05-03T09:45:46.898Z</time></trkpt><trkpt lat="45.8680963" lon="9.2516743"><ele>612.6</ele><time>2026-05-03T09:45:47.897Z</time></trkpt><trkpt lat="45.8681587" lon="9.2515849"><ele>612.0</ele><time>2026-05-03T09:45:48.91Z</time></trkpt><trkpt lat="45.8682024" lon="9.2514664"><ele>613.3333333333334</ele><time>2026-05-03T09:45:49.903Z</time></trkpt><trkpt lat="45.8682429" lon="9.2513452"><ele>614.6666666666666</ele><time>2026-05-03T09:45:50.906Z</time></trkpt><trkpt lat="45.8682866" lon="9.2512387"><ele>616.0</ele><time>2026-05-03T09:45:51.899Z</time></trkpt><trkpt lat="45.8683431" lon="9.2511539"><ele>617.3333333333333</ele><time>2026-05-03T09:45:52.899Z</time></trkpt><trkpt lat="45.8684148" lon="9.2511037"><ele>618.6666666666666</ele><time>2026-05-03T09:45:53.9Z</time></trkpt><trkpt lat="45.8684878" lon="9.2510597"><ele>620.0</ele><time>2026-05-03T09:45:54.898Z</time></trkpt><trkpt lat="45.8685645" lon="9.2511002"><ele>620.0</ele><time>2026-05-03T09:45:55.9Z</time></trkpt><trkpt lat="45.8686192" lon="9.2512077"><ele>620.0</ele><time>2026-05-03T09:45:56.894Z</time></trkpt><trkpt lat="45.8686436" lon="9.2513401"><ele>620.0</ele><time>2026-05-03T09:45:57.891Z</time></trkpt><trkpt lat="45.8686435" lon="9.251498"><ele>620.0</ele><time>2026-05-03T09:45:58.904Z</time></trkpt><trkpt lat="45.8686327" lon="9.2516686"><ele>620.0</ele><time>2026-05-03T09:45:59.906Z</time></trkpt><trkpt lat="45.8686234" lon="9.2518459"><ele>617.0</ele><time>2026-05-03T09:46:00.906Z</time></trkpt><trkpt lat="45.8686188" lon="9.2520253"><ele>614.0</ele><time>2026-05-03T09:46:01.907Z</time></trkpt><trkpt lat="45.8686198" lon="9.2522072"><ele>611.0</ele><time>2026-05-03T09:46:02.894Z</time></trkpt><trkpt lat="45.8686442" lon="9.2523837"><ele>608.0</ele><time>2026-05-03T09:46:03.904Z</time></trkpt><trkpt lat="45.8686756" lon="9.2525465"><ele>606.5</ele><time>2026-05-03T09:46:04.903Z</time></trkpt><trkpt lat="45.8686998" lon="9.2526758"><ele>605.0</ele><time>2026-05-03T09:46:05.902Z</time></trkpt><trkpt lat="45.8687256" lon="9.2527782"><ele>603.5</ele><time>2026-05-03T09:46:06.897Z</time></trkpt><trkpt lat="45.8687612" lon="9.2528538"><ele>602.0</ele><time>2026-05-03T09:46:07.896Z</time></trkpt><trkpt lat="45.868865" lon="9.2529288"><ele>600.5</ele><time>2026-05-03T09:46:09.899Z</time></trkpt><trkpt lat="45.8689307" lon="9.2528999"><ele>599.0</ele><time>2026-05-03T09:46:10.905Z</time></trkpt><trkpt lat="45.8689887" lon="9.2528132"><ele>599.0</ele><time>2026-05-03T09:46:11.891Z</time></trkpt><trkpt lat="45.8690346" lon="9.2526859"><ele>599.0</ele><time>2026-05-03T09:46:12.909Z</time></trkpt><trkpt lat="45.8690933" lon="9.2525569"><ele>599.0</ele><time>2026-05-03T09:46:13.902Z</time></trkpt><trkpt lat="45.8691727" lon="9.2524332"><ele>599.0</ele><time>2026-05-03T09:46:14.893Z</time></trkpt><trkpt lat="45.8692684" lon="9.2523457"><ele>599.0</ele><time>2026-05-03T09:46:15.895Z</time></trkpt><trkpt lat="45.8693862" lon="9.2522804"><ele>598.2</ele><time>2026-05-03T09:46:16.898Z</time></trkpt><trkpt lat="45.8694968" lon="9.2522202"><ele>597.4</ele><time>2026-05-03T09:46:17.901Z</time></trkpt><trkpt lat="45.8695887" lon="9.252167"><ele>596.6</ele><time>2026-05-03T09:46:18.892Z</time></trkpt><trkpt lat="45.8696648" lon="9.2520713"><ele>595.8</ele><time>2026-05-03T09:46:19.898Z</time></trkpt><trkpt lat="45.8697413" lon="9.251936"><ele>595.0</ele><time>2026-05-03T09:46:20.893Z</time></trkpt><trkpt lat="45.8698098" lon="9.2517523"><ele>595.0</ele><time>2026-05-03T09:46:21.891Z</time></trkpt><trkpt lat="45.8698693" lon="9.2515488"><ele>595.0</ele><time>2026-05-03T09:46:22.898Z</time></trkpt><trkpt lat="45.8699503" lon="9.2513785"><ele>595.0</ele><time>2026-05-03T09:46:23.901Z</time></trkpt><trkpt lat="45.8700406" lon="9.2512507"><ele>595.0</ele><time>2026-05-03T09:46:24.901Z</time></trkpt><trkpt lat="45.8701116" lon="9.2511497"><ele>598.5</ele><time>2026-05-03T09:46:25.904Z</time></trkpt><trkpt lat="45.8701776" lon="9.2510728"><ele>602.0</ele><time>2026-05-03T09:46:26.895Z</time></trkpt><trkpt lat="45.8702447" lon="9.2510205"><ele>605.5</ele><time>2026-05-03T09:46:27.894Z</time></trkpt><trkpt lat="45.8703333" lon="9.2510168"><ele>609.0</ele><time>2026-05-03T09:46:28.901Z</time></trkpt><trkpt lat="45.8704169" lon="9.2510781"><ele>612.5</ele><time>2026-05-03T09:46:29.899Z</time></trkpt><trkpt lat="45.8704917" lon="9.2511368"><ele>616.0</ele><time>2026-05-03T09:46:30.9Z</time></trkpt><trkpt lat="45.8705344" lon="9.2512686"><ele>616.0</ele><time>2026-05-03T09:46:31.906Z</time></trkpt><trkpt lat="45.8705672" lon="9.2514176"><ele>616.0</ele><time>2026-05-03T09:46:32.897Z</time></trkpt><trkpt lat="45.8706096" lon="9.2515658"><ele>616.0</ele><time>2026-05-03T09:46:33.907Z</time></trkpt><trkpt lat="45.8706582" lon="9.2517096"><ele>616.0</ele><time>2026-05-03T09:46:34.893Z</time></trkpt><trkpt lat="45.8706894" lon="9.2518526"><ele>616.0</ele><time>2026-05-03T09:46:35.895Z</time></trkpt><trkpt lat="45.8706984" lon="9.2520041"><ele>613.75</ele><time>2026-05-03T09:46:36.903Z</time></trkpt><trkpt lat="45.8706753" lon="9.2521622"><ele>611.5</ele><time>2026-05-03T09:46:37.91Z</time></trkpt><trkpt lat="45.8706425" lon="9.2523332"><ele>609.25</ele><time>2026-05-03T09:46:38.899Z</time></trkpt><trkpt lat="45.870579" lon="9.2525081"><ele>607.0</ele><time>2026-05-03T09:46:39.898Z</time></trkpt><trkpt lat="45.8705283" lon="9.252707"><ele>605.3333333333334</ele><time>2026-05-03T09:46:40.892Z</time></trkpt><trkpt lat="45.8705098" lon="9.2529362"><ele>603.6666666666666</ele><time>2026-05-03T09:46:41.894Z</time></trkpt><trkpt lat="45.8705029" lon="9.2531771"><ele>602.0</ele><time>2026-05-03T09:46:42.892Z</time></trkpt><trkpt lat="45.8704786" lon="9.2534163"><ele>602.0</ele><time>2026-05-03T09:46:43.904Z</time></trkpt><trkpt lat="45.8704474" lon="9.2536594"><ele>602.0</ele><time>2026-05-03T09:46:44.897Z</time></trkpt><trkpt lat="45.870419" lon="9.253882"><ele>602.0</ele><time>2026-05-03T09:46:45.894Z</time></trkpt><trkpt lat="45.870388" lon="9.2540894"><ele>602.0</ele><time>2026-05-03T09:46:46.908Z</time></trkpt><trkpt lat="45.8703408" lon="9.2542767"><ele>602.0</ele><time>2026-05-03T09:46:47.9Z</time></trkpt><trkpt lat="45.8702626" lon="9.2544423"><ele>602.0</ele><time>2026-05-03T09:46:48.896Z</time></trkpt><trkpt lat="45.8701869" lon="9.254603"><ele>602.0</ele><time>2026-05-03T09:46:49.899Z</time></trkpt><trkpt lat="45.8700998" lon="9.2547292"><ele>593.0</ele><time>2026-05-03T09:46:50.891Z</time></trkpt><trkpt lat="45.8700099" lon="9.2548243"><ele>584.0</ele><time>2026-05-03T09:46:51.891Z</time></trkpt><trkpt lat="45.8699263" lon="9.254921"><ele>575.0</ele><time>2026-05-03T09:46:52.909Z</time></trkpt><trkpt lat="45.8698792" lon="9.2550845"><ele>566.0</ele><time>2026-05-03T09:46:53.894Z</time></trkpt><trkpt lat="45.8698331" lon="9.2552458"><ele>566.0</ele><time>2026-05-03T09:46:54.905Z</time></trkpt><trkpt lat="45.8698067" lon="9.2554427"><ele>566.0</ele><time>2026-05-03T09:46:55.893Z</time></trkpt><trkpt lat="45.8697736" lon="9.255645"><ele>566.0</ele><time>2026-05-03T09:46:56.895Z</time></trkpt><trkpt lat="45.8697543" lon="9.2558593"><ele>566.0</ele><time>2026-05-03T09:46:57.887Z</time></trkpt><trkpt lat="45.8697422" lon="9.2560798"><ele>566.25</ele><time>2026-05-03T09:46:58.896Z</time></trkpt><trkpt lat="45.8697282" lon="9.2562966"><ele>566.5</ele><time>2026-05-03T09:46:59.886Z</time></trkpt><trkpt lat="45.8697181" lon="9.2565089"><ele>566.75</ele><time>2026-05-03T09:47:00.905Z</time></trkpt><trkpt lat="45.8696966" lon="9.2567095"><ele>567.0</ele><time>2026-05-03T09:47:01.901Z</time></trkpt><trkpt lat="45.8696706" lon="9.2569169"><ele>567.0</ele><time>2026-05-03T09:47:02.89Z</time></trkpt><trkpt lat="45.8696147" lon="9.2570842"><ele>567.0</ele><time>2026-05-03T09:47:03.901Z</time></trkpt><trkpt lat="45.8695304" lon="9.2572403"><ele>567.0</ele><time>2026-05-03T09:47:04.891Z</time></trkpt><trkpt lat="45.8694612" lon="9.2574031"><ele>567.0</ele><time>2026-05-03T09:47:05.889Z</time></trkpt><trkpt lat="45.8694276" lon="9.2576002"><ele>566.5</ele><time>2026-05-03T09:47:06.9Z</time></trkpt><trkpt lat="45.8693808" lon="9.2578118"><ele>566.0</ele><time>2026-05-03T09:47:07.907Z</time></trkpt><trkpt lat="45.8693244" lon="9.2579925"><ele>565.5</ele><time>2026-05-03T09:47:08.895Z</time></trkpt><trkpt lat="45.8692356" lon="9.2581536"><ele>565.0</ele><time>2026-05-03T09:47:09.89Z</time></trkpt><trkpt lat="45.869146" lon="9.2583085"><ele>559.0</ele><time>2026-05-03T09:47:10.905Z</time></trkpt><trkpt lat="45.8690541" lon="9.2584539"><ele>553.0</ele><time>2026-05-03T09:47:11.9Z</time></trkpt><trkpt lat="45.8689688" lon="9.2585873"><ele>547.0</ele><time>2026-05-03T09:47:12.894Z</time></trkpt><trkpt lat="45.8688923" lon="9.2587171"><ele>541.0</ele><time>2026-05-03T09:47:13.899Z</time></trkpt><trkpt lat="45.8688362" lon="9.2588551"><ele>541.6</ele><time>2026-05-03T09:47:14.887Z</time></trkpt><trkpt lat="45.8687976" lon="9.2590025"><ele>542.2</ele><time>2026-05-03T09:47:15.897Z</time></trkpt><trkpt lat="45.8687825" lon="9.2591573"><ele>542.8</ele><time>2026-05-03T09:47:16.895Z</time></trkpt><trkpt lat="45.868791" lon="9.2593111"><ele>543.4</ele><time>2026-05-03T09:47:17.906Z</time></trkpt><trkpt lat="45.8688197" lon="9.2594643"><ele>544.0</ele><time>2026-05-03T09:47:18.903Z</time></trkpt><trkpt lat="45.8688731" lon="9.2596159"><ele>544.0</ele><time>2026-05-03T09:47:19.897Z</time></trkpt><trkpt lat="45.8689424" lon="9.2597392"><ele>544.0</ele><time>2026-05-03T09:47:20.897Z</time></trkpt><trkpt lat="45.8690323" lon="9.2598555"><ele>544.0</ele><time>2026-05-03T09:47:21.918Z</time></trkpt><trkpt lat="45.869132" lon="9.2599781"><ele>544.0</ele><time>2026-05-03T09:47:22.903Z</time></trkpt><trkpt lat="45.8692337" lon="9.2601086"><ele>545.0</ele><time>2026-05-03T09:47:23.898Z</time></trkpt><trkpt lat="45.8693412" lon="9.2602472"><ele>546.0</ele><time>2026-05-03T09:47:24.898Z</time></trkpt><trkpt lat="45.869446" lon="9.2603829"><ele>547.0</ele><time>2026-05-03T09:47:25.905Z</time></trkpt><trkpt lat="45.8695458" lon="9.2605175"><ele>548.0</ele><time>2026-05-03T09:47:26.899Z</time></trkpt><trkpt lat="45.8696445" lon="9.26065"><ele>542.75</ele><time>2026-05-03T09:47:27.9Z</time></trkpt><trkpt lat="45.8697463" lon="9.260763"><ele>537.5</ele><time>2026-05-03T09:47:28.894Z</time></trkpt><trkpt lat="45.869863" lon="9.2608471"><ele>532.25</ele><time>2026-05-03T09:47:29.896Z</time></trkpt><trkpt lat="45.8699863" lon="9.2609244"><ele>527.0</ele><time>2026-05-03T09:47:30.885Z</time></trkpt><trkpt lat="45.8701244" lon="9.2609553"><ele>527.0</ele><time>2026-05-03T09:47:31.898Z</time></trkpt><trkpt lat="45.8702601" lon="9.260984"><ele>527.0</ele><time>2026-05-03T09:47:32.896Z</time></trkpt><trkpt lat="45.8703991" lon="9.2610264"><ele>527.0</ele><time>2026-05-03T09:47:33.896Z</time></trkpt><trkpt lat="45.8705243" lon="9.2610778"><ele>527.0</ele><time>2026-05-03T09:47:34.894Z</time></trkpt><trkpt lat="45.8706362" lon="9.2611047"><ele>527.0</ele><time>2026-05-03T09:47:35.898Z</time></trkpt><trkpt lat="45.8707444" lon="9.2611193"><ele>527.0</ele><time>2026-05-03T09:47:36.902Z</time></trkpt><trkpt lat="45.8708453" lon="9.2610745"><ele>527.0</ele><time>2026-05-03T09:47:37.884Z</time></trkpt><trkpt lat="45.8709434" lon="9.260987"><ele>527.0</ele><time>2026-05-03T09:47:38.883Z</time></trkpt><trkpt lat="45.8710391" lon="9.2608648"><ele>527.25</ele><time>2026-05-03T09:47:39.9Z</time></trkpt><trkpt lat="45.8711246" lon="9.2607203"><ele>527.5</ele><time>2026-05-03T09:47:40.896Z</time></trkpt><trkpt lat="45.8712247" lon="9.2605704"><ele>527.75</ele><time>2026-05-03T09:47:41.898Z</time></trkpt><trkpt lat="45.8713473" lon="9.2604343"><ele>528.0</ele><time>2026-05-03T09:47:42.893Z</time></trkpt><trkpt lat="45.871484" lon="9.2603225"><ele>528.0</ele><time>2026-05-03T09:47:43.895Z</time></trkpt><trkpt lat="45.8716273" lon="9.2602126"><ele>528.0</ele><time>2026-05-03T09:47:44.894Z</time></trkpt><trkpt lat="45.871761" lon="9.2601078"><ele>528.0</ele><time>2026-05-03T09:47:45.903Z</time></trkpt><trkpt lat="45.871891" lon="9.2600222"><ele>530.25</ele><time>2026-05-03T09:47:46.895Z</time></trkpt><trkpt lat="45.8720135" lon="9.2599301"><ele>532.5</ele><time>2026-05-03T09:47:47.906Z</time></trkpt><trkpt lat="45.872134" lon="9.2598626"><ele>534.75</ele><time>2026-05-03T09:47:48.888Z</time></trkpt><trkpt lat="45.8722409" lon="9.2597996"><ele>537.0</ele><time>2026-05-03T09:47:49.904Z</time></trkpt><trkpt lat="45.8723462" lon="9.2597785"><ele>531.75</ele><time>2026-05-03T09:47:50.896Z</time></trkpt><trkpt lat="45.8724613" lon="9.2598128"><ele>526.5</ele><time>2026-05-03T09:47:51.899Z</time></trkpt><trkpt lat="45.8725976" lon="9.2598573"><ele>521.25</ele><time>2026-05-03T09:47:52.898Z</time></trkpt><trkpt lat="45.8727194" lon="9.2598963"><ele>516.0</ele><time>2026-05-03T09:47:53.897Z</time></trkpt><trkpt lat="45.8728218" lon="9.259938"><ele>516.0</ele><time>2026-05-03T09:47:54.898Z</time></trkpt><trkpt lat="45.8729002" lon="9.2600086"><ele>516.0</ele><time>2026-05-03T09:47:55.893Z</time></trkpt><trkpt lat="45.8729736" lon="9.260089"><ele>516.0</ele><time>2026-05-03T09:47:56.911Z</time></trkpt><trkpt lat="45.8730219" lon="9.2602186"><ele>516.0</ele><time>2026-05-03T09:47:57.899Z</time></trkpt><trkpt lat="45.8730402" lon="9.2603429"><ele>516.0</ele><time>2026-05-03T09:47:58.895Z</time></trkpt><trkpt lat="45.8730322" lon="9.2604652"><ele>516.0</ele><time>2026-05-03T09:47:59.893Z</time></trkpt><trkpt lat="45.8729986" lon="9.2605681"><ele>516.0</ele><time>2026-05-03T09:48:00.896Z</time></trkpt><trkpt lat="45.8729498" lon="9.2606514"><ele>516.0</ele><time>2026-05-03T09:48:01.893Z</time></trkpt><trkpt lat="45.8728971" lon="9.2607343"><ele>516.0</ele><time>2026-05-03T09:48:02.89Z</time></trkpt><trkpt lat="45.8728565" lon="9.2608653"><ele>516.0</ele><time>2026-05-03T09:48:04.911Z</time></trkpt><trkpt lat="45.8728721" lon="9.2609567"><ele>516.0</ele><time>2026-05-03T09:48:07.889Z</time></trkpt><trkpt lat="45.872948" lon="9.261014"><ele>515.6</ele><time>2026-05-03T09:48:09.899Z</time></trkpt><trkpt lat="45.8730171" lon="9.2609939"><ele>515.2</ele><time>2026-05-03T09:48:10.9Z</time></trkpt><trkpt lat="45.8731071" lon="9.2609779"><ele>514.8</ele><time>2026-05-03T09:48:11.906Z</time></trkpt><trkpt lat="45.8732129" lon="9.260984"><ele>514.4</ele><time>2026-05-03T09:48:12.908Z</time></trkpt><trkpt lat="45.8733267" lon="9.2610274"><ele>514.0</ele><time>2026-05-03T09:48:13.904Z</time></trkpt><trkpt lat="45.8734463" lon="9.2610953"><ele>514.0</ele><time>2026-05-03T09:48:14.876Z</time></trkpt><trkpt lat="45.8735723" lon="9.2611723"><ele>514.0</ele><time>2026-05-03T09:48:15.903Z</time></trkpt><trkpt lat="45.8736981" lon="9.2612458"><ele>514.0</ele><time>2026-05-03T09:48:16.888Z</time></trkpt><trkpt lat="45.8738256" lon="9.2612875"><ele>514.0</ele><time>2026-05-03T09:48:17.886Z</time></trkpt><trkpt lat="45.8739507" lon="9.2613271"><ele>514.0</ele><time>2026-05-03T09:48:18.881Z</time></trkpt><trkpt lat="45.8740868" lon="9.2612951"><ele>514.0</ele><time>2026-05-03T09:48:19.897Z</time></trkpt><trkpt lat="45.8742246" lon="9.2612241"><ele>514.0</ele><time>2026-05-03T09:48:20.888Z</time></trkpt><trkpt lat="45.8743566" lon="9.2611675"><ele>514.0</ele><time>2026-05-03T09:48:21.874Z</time></trkpt><trkpt lat="45.874477" lon="9.2610802"><ele>513.5</ele><time>2026-05-03T09:48:22.884Z</time></trkpt><trkpt lat="45.8746025" lon="9.2609866"><ele>513.0</ele><time>2026-05-03T09:48:23.884Z</time></trkpt><trkpt lat="45.8747111" lon="9.2609034"><ele>512.5</ele><time>2026-05-03T09:48:24.904Z</time></trkpt><trkpt lat="45.8748198" lon="9.2608373"><ele>512.0</ele><time>2026-05-03T09:48:25.885Z</time></trkpt><trkpt lat="45.8749338" lon="9.260819"><ele>512.0</ele><time>2026-05-03T09:48:26.885Z</time></trkpt><trkpt lat="45.8750538" lon="9.2608766"><ele>512.0</ele><time>2026-05-03T09:48:27.912Z</time></trkpt><trkpt lat="45.8751805" lon="9.2609599"><ele>512.0</ele><time>2026-05-03T09:48:28.903Z</time></trkpt><trkpt lat="45.8753371" lon="9.2610644"><ele>512.0</ele><time>2026-05-03T09:48:29.884Z</time></trkpt><trkpt lat="45.8755142" lon="9.261175"><ele>514.6666666666666</ele><time>2026-05-03T09:48:30.92Z</time></trkpt><trkpt lat="45.8757013" lon="9.2612882"><ele>517.3333333333334</ele><time>2026-05-03T09:48:31.906Z</time></trkpt><trkpt lat="45.875891" lon="9.2614092"><ele>520.0</ele><time>2026-05-03T09:48:32.888Z</time></trkpt><trkpt lat="45.8760794" lon="9.2615267"><ele>520.0</ele><time>2026-05-03T09:48:33.897Z</time></trkpt><trkpt lat="45.8762684" lon="9.2616449"><ele>520.0</ele><time>2026-05-03T09:48:34.896Z</time></trkpt><trkpt lat="45.8764503" lon="9.2617593"><ele>520.0</ele><time>2026-05-03T09:48:35.899Z</time></trkpt><trkpt lat="45.876627" lon="9.2618703"><ele>525.0</ele><time>2026-05-03T09:48:36.901Z</time></trkpt><trkpt lat="45.8767983" lon="9.2619609"><ele>530.0</ele><time>2026-05-03T09:48:37.899Z</time></trkpt><trkpt lat="45.8769739" lon="9.2620516"><ele>535.0</ele><time>2026-05-03T09:48:38.893Z</time></trkpt><trkpt lat="45.8771638" lon="9.2620955"><ele>535.0</ele><time>2026-05-03T09:48:39.888Z</time></trkpt><trkpt lat="45.8773602" lon="9.2621135"><ele>535.0</ele><time>2026-05-03T09:48:40.892Z</time></trkpt><trkpt lat="45.8775617" lon="9.2621434"><ele>535.0</ele><time>2026-05-03T09:48:41.894Z</time></trkpt><trkpt lat="45.8777598" lon="9.2621704"><ele>538.3333333333334</ele><time>2026-05-03T09:48:42.895Z</time></trkpt><trkpt lat="45.8779555" lon="9.2621976"><ele>541.6666666666666</ele><time>2026-05-03T09:48:43.887Z</time></trkpt><trkpt lat="45.8781549" lon="9.2622231"><ele>545.0</ele><time>2026-05-03T09:48:44.893Z</time></trkpt><trkpt lat="45.8783534" lon="9.2622515"><ele>539.0</ele><time>2026-05-03T09:48:45.892Z</time></trkpt><trkpt lat="45.8785506" lon="9.2622884"><ele>533.0</ele><time>2026-05-03T09:48:46.894Z</time></trkpt><trkpt lat="45.8787449" lon="9.2623491"><ele>527.0</ele><time>2026-05-03T09:48:47.898Z</time></trkpt><trkpt lat="45.8789338" lon="9.2624291"><ele>527.0</ele><time>2026-05-03T09:48:48.898Z</time></trkpt><trkpt lat="45.8791116" lon="9.2625111"><ele>527.0</ele><time>2026-05-03T09:48:49.899Z</time></trkpt><trkpt lat="45.8792842" lon="9.2625784"><ele>527.0</ele><time>2026-05-03T09:48:50.894Z</time></trkpt><trkpt lat="45.8794546" lon="9.2626261"><ele>532.6666666666666</ele><time>2026-05-03T09:48:51.892Z</time></trkpt><trkpt lat="45.879621" lon="9.2626722"><ele>538.3333333333334</ele><time>2026-05-03T09:48:52.898Z</time></trkpt><trkpt lat="45.8797803" lon="9.2626974"><ele>544.0</ele><time>2026-05-03T09:48:53.892Z</time></trkpt><trkpt lat="45.8799393" lon="9.2627242"><ele>544.0</ele><time>2026-05-03T09:48:54.894Z</time></trkpt><trkpt lat="45.8800983" lon="9.2627544"><ele>544.0</ele><time>2026-05-03T09:48:55.888Z</time></trkpt><trkpt lat="45.8802558" lon="9.2627834"><ele>544.0</ele><time>2026-05-03T09:48:56.896Z</time></trkpt><trkpt lat="45.8804084" lon="9.2628092"><ele>544.75</ele><time>2026-05-03T09:48:57.899Z</time></trkpt><trkpt lat="45.880555" lon="9.2628434"><ele>545.5</ele><time>2026-05-03T09:48:58.891Z</time></trkpt><trkpt lat="45.8806974" lon="9.2628831"><ele>546.25</ele><time>2026-05-03T09:48:59.908Z</time></trkpt><trkpt lat="45.8808366" lon="9.2629222"><ele>547.0</ele><time>2026-05-03T09:49:00.888Z</time></trkpt><trkpt lat="45.880975" lon="9.2629593"><ele>547.0</ele><time>2026-05-03T09:49:01.9Z</time></trkpt><trkpt lat="45.8811152" lon="9.2629995"><ele>547.0</ele><time>2026-05-03T09:49:02.893Z</time></trkpt><trkpt lat="45.8812474" lon="9.2630372"><ele>547.0</ele><time>2026-05-03T09:49:03.897Z</time></trkpt><trkpt lat="45.8813706" lon="9.2630686"><ele>547.0</ele><time>2026-05-03T09:49:04.893Z</time></trkpt><trkpt lat="45.8814891" lon="9.2631029"><ele>543.0</ele><time>2026-05-03T09:49:05.896Z</time></trkpt><trkpt lat="45.8816069" lon="9.2631386"><ele>539.0</ele><time>2026-05-03T09:49:06.893Z</time></trkpt><trkpt lat="45.8817241" lon="9.2631722"><ele>535.0</ele><time>2026-05-03T09:49:07.892Z</time></trkpt><trkpt lat="45.881844" lon="9.2632058"><ele>531.0</ele><time>2026-05-03T09:49:08.884Z</time></trkpt><trkpt lat="45.8819629" lon="9.2632366"><ele>531.0</ele><time>2026-05-03T09:49:09.891Z</time></trkpt><trkpt lat="45.8820878" lon="9.2632709"><ele>531.0</ele><time>2026-05-03T09:49:10.887Z</time></trkpt><trkpt lat="45.8822206" lon="9.2633096"><ele>531.0</ele><time>2026-05-03T09:49:11.895Z</time></trkpt><trkpt lat="45.8823646" lon="9.263351"><ele>531.0</ele><time>2026-05-03T09:49:12.888Z</time></trkpt><trkpt lat="45.8825555" lon="9.2633844"><ele>533.3333333333334</ele><time>2026-05-03T09:49:13.904Z</time></trkpt><trkpt lat="45.8827701" lon="9.2634504"><ele>535.6666666666667</ele><time>2026-05-03T09:49:14.904Z</time></trkpt><trkpt lat="45.8829638" lon="9.2635218"><ele>538.0</ele><time>2026-05-03T09:49:15.896Z</time></trkpt><trkpt lat="45.8831428" lon="9.2635835"><ele>538.0</ele><time>2026-05-03T09:49:16.895Z</time></trkpt><trkpt lat="45.8833076" lon="9.2636341"><ele>538.0</ele><time>2026-05-03T09:49:17.894Z</time></trkpt><trkpt lat="45.883455" lon="9.2636852"><ele>538.0</ele><time>2026-05-03T09:49:18.885Z</time></trkpt><trkpt lat="45.8835937" lon="9.263731"><ele>539.5</ele><time>2026-05-03T09:49:19.894Z</time></trkpt><trkpt lat="45.8837289" lon="9.263771"><ele>541.0</ele><time>2026-05-03T09:49:20.893Z</time></trkpt><trkpt lat="45.8838662" lon="9.2638002"><ele>542.5</ele><time>2026-05-03T09:49:21.9Z</time></trkpt><trkpt lat="45.8840006" lon="9.2638264"><ele>544.0</ele><time>2026-05-03T09:49:22.903Z</time></trkpt><trkpt lat="45.8841295" lon="9.2638558"><ele>544.0</ele><time>2026-05-03T09:49:23.902Z</time></trkpt><trkpt lat="45.8842545" lon="9.2638853"><ele>544.0</ele><time>2026-05-03T09:49:24.898Z</time></trkpt><trkpt lat="45.8843763" lon="9.2639179"><ele>544.0</ele><time>2026-05-03T09:49:25.905Z</time></trkpt><trkpt lat="45.8844966" lon="9.2639327"><ele>544.0</ele><time>2026-05-03T09:49:26.892Z</time></trkpt><trkpt lat="45.8846093" lon="9.2639229"><ele>544.2</ele><time>2026-05-03T09:49:27.895Z</time></trkpt><trkpt lat="45.8847096" lon="9.2638771"><ele>544.4</ele><time>2026-05-03T09:49:28.892Z</time></trkpt><trkpt lat="45.8847952" lon="9.2637918"><ele>544.6</ele><time>2026-05-03T09:49:29.895Z</time></trkpt><trkpt lat="45.8848747" lon="9.263703"><ele>544.8</ele><time>2026-05-03T09:49:30.898Z</time></trkpt><trkpt lat="45.8849323" lon="9.2635589"><ele>545.0</ele><time>2026-05-03T09:49:31.895Z</time></trkpt><trkpt lat="45.8849942" lon="9.2634112"><ele>545.0</ele><time>2026-05-03T09:49:32.904Z</time></trkpt><trkpt lat="45.88506" lon="9.2632626"><ele>545.0</ele><time>2026-05-03T09:49:33.901Z</time></trkpt><trkpt lat="45.8851295" lon="9.2631096"><ele>545.0</ele><time>2026-05-03T09:49:34.893Z</time></trkpt><trkpt lat="45.8852083" lon="9.262959"><ele>545.0</ele><time>2026-05-03T09:49:35.896Z</time></trkpt><trkpt lat="45.8852986" lon="9.2628204"><ele>545.6666666666666</ele><time>2026-05-03T09:49:36.894Z</time></trkpt><trkpt lat="45.8854095" lon="9.2626932"><ele>546.3333333333334</ele><time>2026-05-03T09:49:37.903Z</time></trkpt><trkpt lat="45.8855379" lon="9.2625807"><ele>547.0</ele><time>2026-05-03T09:49:38.888Z</time></trkpt><trkpt lat="45.8856875" lon="9.262475"><ele>547.0</ele><time>2026-05-03T09:49:39.896Z</time></trkpt><trkpt lat="45.8858666" lon="9.2623542"><ele>547.0</ele><time>2026-05-03T09:49:40.891Z</time></trkpt><trkpt lat="45.8860739" lon="9.2622317"><ele>547.0</ele><time>2026-05-03T09:49:41.901Z</time></trkpt><trkpt lat="45.8862909" lon="9.2621027"><ele>546.5</ele><time>2026-05-03T09:49:42.893Z</time></trkpt><trkpt lat="45.8865346" lon="9.2619828"><ele>546.0</ele><time>2026-05-03T09:49:43.899Z</time></trkpt><trkpt lat="45.8867862" lon="9.2618517"><ele>549.5</ele><time>2026-05-03T09:49:44.9Z</time></trkpt><trkpt lat="45.8870323" lon="9.2617127"><ele>553.0</ele><time>2026-05-03T09:49:45.899Z</time></trkpt><trkpt lat="45.8872683" lon="9.261579"><ele>553.0</ele><time>2026-05-03T09:49:46.901Z</time></trkpt><trkpt lat="45.8874923" lon="9.2614507"><ele>553.0</ele><time>2026-05-03T09:49:47.896Z</time></trkpt><trkpt lat="45.8877061" lon="9.2613316"><ele>554.6666666666667</ele><time>2026-05-03T09:49:48.901Z</time></trkpt><trkpt lat="45.8879117" lon="9.2612203"><ele>556.3333333333334</ele><time>2026-05-03T09:49:49.905Z</time></trkpt><trkpt lat="45.8881117" lon="9.2611138"><ele>558.0</ele><time>2026-05-03T09:49:50.889Z</time></trkpt><trkpt lat="45.8883058" lon="9.2610099"><ele>558.3333333333334</ele><time>2026-05-03T09:49:51.892Z</time></trkpt><trkpt lat="45.8885002" lon="9.260907"><ele>558.6666666666667</ele><time>2026-05-03T09:49:52.893Z</time></trkpt><trkpt lat="45.8887032" lon="9.2608254"><ele>559.0</ele><time>2026-05-03T09:49:53.9Z</time></trkpt><trkpt lat="45.8889088" lon="9.2607778"><ele>559.0</ele><time>2026-05-03T09:49:54.892Z</time></trkpt><trkpt lat="45.8891272" lon="9.2607225"><ele>559.0</ele><time>2026-05-03T09:49:55.901Z</time></trkpt><trkpt lat="45.8893417" lon="9.2606571"><ele>559.0</ele><time>2026-05-03T09:49:56.903Z</time></trkpt><trkpt lat="45.8895549" lon="9.260604"><ele>561.3333333333334</ele><time>2026-05-03T09:49:57.894Z</time></trkpt><trkpt lat="45.8897668" lon="9.260581"><ele>563.6666666666666</ele><time>2026-05-03T09:49:58.897Z</time></trkpt><trkpt lat="45.8899768" lon="9.2605869"><ele>566.0</ele><time>2026-05-03T09:49:59.896Z</time></trkpt><trkpt lat="45.8901856" lon="9.2605975"><ele>567.3333333333333</ele><time>2026-05-03T09:50:00.891Z</time></trkpt><trkpt lat="45.8903906" lon="9.2606077"><ele>568.6666666666666</ele><time>2026-05-03T09:50:01.888Z</time></trkpt><trkpt lat="45.8905869" lon="9.2605988"><ele>570.0</ele><time>2026-05-03T09:50:02.901Z</time></trkpt><trkpt lat="45.8907684" lon="9.2606009"><ele>572.3333333333334</ele><time>2026-05-03T09:50:03.893Z</time></trkpt><trkpt lat="45.8909426" lon="9.2606075"><ele>574.6666666666667</ele><time>2026-05-03T09:50:04.889Z</time></trkpt><trkpt lat="45.8911069" lon="9.2606145"><ele>577.0</ele><time>2026-05-03T09:50:05.903Z</time></trkpt><trkpt lat="45.891266" lon="9.2606283"><ele>576.3333333333334</ele><time>2026-05-03T09:50:06.898Z</time></trkpt><trkpt lat="45.8914359" lon="9.2606451"><ele>575.6666666666666</ele><time>2026-05-03T09:50:07.9Z</time></trkpt><trkpt lat="45.8916059" lon="9.2607055"><ele>575.0</ele><time>2026-05-03T09:50:08.908Z</time></trkpt><trkpt lat="45.8917733" lon="9.2607851"><ele>575.0</ele><time>2026-05-03T09:50:09.899Z</time></trkpt><trkpt lat="45.8919467" lon="9.2608555"><ele>575.0</ele><time>2026-05-03T09:50:10.898Z</time></trkpt><trkpt lat="45.89211" lon="9.2609244"><ele>575.0</ele><time>2026-05-03T09:50:11.898Z</time></trkpt><trkpt lat="45.8922698" lon="9.2609988"><ele>575.0</ele><time>2026-05-03T09:50:12.898Z</time></trkpt><trkpt lat="45.8924165" lon="9.2610589"><ele>575.0</ele><time>2026-05-03T09:50:13.892Z</time></trkpt><trkpt lat="45.8925513" lon="9.2611186"><ele>575.0</ele><time>2026-05-03T09:50:14.892Z</time></trkpt><trkpt lat="45.8926827" lon="9.2611743"><ele>575.0</ele><time>2026-05-03T09:50:15.896Z</time></trkpt><trkpt lat="45.8928007" lon="9.2612251"><ele>577.5</ele><time>2026-05-03T09:50:16.898Z</time></trkpt><trkpt lat="45.89292" lon="9.2612712"><ele>580.0</ele><time>2026-05-03T09:50:17.893Z</time></trkpt><trkpt lat="45.8930405" lon="9.2613199"><ele>582.5</ele><time>2026-05-03T09:50:18.895Z</time></trkpt><trkpt lat="45.893165" lon="9.2613679"><ele>585.0</ele><time>2026-05-03T09:50:19.893Z</time></trkpt><trkpt lat="45.893287" lon="9.2614102"><ele>583.0</ele><time>2026-05-03T09:50:20.897Z</time></trkpt><trkpt lat="45.8934236" lon="9.2614401"><ele>581.0</ele><time>2026-05-03T09:50:21.899Z</time></trkpt><trkpt lat="45.893575" lon="9.2614526"><ele>579.0</ele><time>2026-05-03T09:50:22.909Z</time></trkpt><trkpt lat="45.8937328" lon="9.2614573"><ele>577.0</ele><time>2026-05-03T09:50:23.902Z</time></trkpt><trkpt lat="45.8938921" lon="9.2614651"><ele>577.0</ele><time>2026-05-03T09:50:24.901Z</time></trkpt><trkpt lat="45.8940505" lon="9.2614796"><ele>577.0</ele><time>2026-05-03T09:50:25.906Z</time></trkpt><trkpt lat="45.8942089" lon="9.261495"><ele>577.0</ele><time>2026-05-03T09:50:26.908Z</time></trkpt><trkpt lat="45.8943696" lon="9.2615046"><ele>580.6666666666667</ele><time>2026-05-03T09:50:27.895Z</time></trkpt><trkpt lat="45.8945351" lon="9.261518"><ele>584.3333333333334</ele><time>2026-05-03T09:50:28.895Z</time></trkpt><trkpt lat="45.8947028" lon="9.2615535"><ele>588.0</ele><time>2026-05-03T09:50:29.902Z</time></trkpt><trkpt lat="45.8948651" lon="9.2615933"><ele>588.0</ele><time>2026-05-03T09:50:30.902Z</time></trkpt><trkpt lat="45.8950283" lon="9.261661"><ele>588.0</ele><time>2026-05-03T09:50:31.897Z</time></trkpt><trkpt lat="45.8951838" lon="9.2617334"><ele>588.0</ele><time>2026-05-03T09:50:32.903Z</time></trkpt><trkpt lat="45.8953361" lon="9.2617929"><ele>592.0</ele><time>2026-05-03T09:50:33.898Z</time></trkpt><trkpt lat="45.8954745" lon="9.2618475"><ele>596.0</ele><time>2026-05-03T09:50:34.905Z</time></trkpt><trkpt lat="45.8955984" lon="9.2618957"><ele>600.0</ele><time>2026-05-03T09:50:35.908Z</time></trkpt><trkpt lat="45.895712" lon="9.261951"><ele>604.0</ele><time>2026-05-03T09:50:36.918Z</time></trkpt><trkpt lat="45.895816" lon="9.2620182"><ele>604.0</ele><time>2026-05-03T09:50:37.9Z</time></trkpt><trkpt lat="45.8959118" lon="9.2620994"><ele>604.0</ele><time>2026-05-03T09:50:38.903Z</time></trkpt><trkpt lat="45.8960016" lon="9.2622021"><ele>604.0</ele><time>2026-05-03T09:50:39.899Z</time></trkpt><trkpt lat="45.8960912" lon="9.2623074"><ele>604.0</ele><time>2026-05-03T09:50:40.896Z</time></trkpt><trkpt lat="45.8961875" lon="9.262407"><ele>603.25</ele><time>2026-05-03T09:50:41.892Z</time></trkpt><trkpt lat="45.8962881" lon="9.2624993"><ele>602.5</ele><time>2026-05-03T09:50:42.902Z</time></trkpt><trkpt lat="45.896418" lon="9.2625771"><ele>601.75</ele><time>2026-05-03T09:50:43.915Z</time></trkpt><trkpt lat="45.8965648" lon="9.2626324"><ele>601.0</ele><time>2026-05-03T09:50:44.903Z</time></trkpt><trkpt lat="45.8967153" lon="9.2626901"><ele>607.3333333333334</ele><time>2026-05-03T09:50:45.899Z</time></trkpt><trkpt lat="45.8968736" lon="9.2627699"><ele>613.6666666666666</ele><time>2026-05-03T09:50:46.912Z</time></trkpt><trkpt lat="45.8970275" lon="9.26286"><ele>620.0</ele><time>2026-05-03T09:50:47.912Z</time></trkpt><trkpt lat="45.8971711" lon="9.2629473"><ele>620.0</ele><time>2026-05-03T09:50:48.894Z</time></trkpt><trkpt lat="45.8973112" lon="9.2630249"><ele>620.0</ele><time>2026-05-03T09:50:49.904Z</time></trkpt><trkpt lat="45.8974454" lon="9.2630963"><ele>620.0</ele><time>2026-05-03T09:50:50.905Z</time></trkpt><trkpt lat="45.8975845" lon="9.26316"><ele>620.0</ele><time>2026-05-03T09:50:51.914Z</time></trkpt><trkpt lat="45.8977237" lon="9.2632116"><ele>616.0</ele><time>2026-05-03T09:50:52.913Z</time></trkpt><trkpt lat="45.8978611" lon="9.2632609"><ele>612.0</ele><time>2026-05-03T09:50:53.899Z</time></trkpt><trkpt lat="45.8979927" lon="9.2633098"><ele>608.0</ele><time>2026-05-03T09:50:54.908Z</time></trkpt><trkpt lat="45.8981204" lon="9.2634067"><ele>604.0</ele><time>2026-05-03T09:50:55.894Z</time></trkpt><trkpt lat="45.8982391" lon="9.2635162"><ele>604.0</ele><time>2026-05-03T09:50:56.895Z</time></trkpt><trkpt lat="45.898347" lon="9.2636176"><ele>604.0</ele><time>2026-05-03T09:50:57.903Z</time></trkpt><trkpt lat="45.8984487" lon="9.2637125"><ele>604.0</ele><time>2026-05-03T09:50:58.904Z</time></trkpt><trkpt lat="45.8985467" lon="9.2638059"><ele>604.0</ele><time>2026-05-03T09:50:59.904Z</time></trkpt><trkpt lat="45.8986464" lon="9.2639004"><ele>603.0</ele><time>2026-05-03T09:51:00.907Z</time></trkpt><trkpt lat="45.8987397" lon="9.2639877"><ele>602.0</ele><time>2026-05-03T09:51:01.902Z</time></trkpt><trkpt lat="45.8988373" lon="9.2640643"><ele>601.0</ele><time>2026-05-03T09:51:02.905Z</time></trkpt><trkpt lat="45.8989354" lon="9.2641241"><ele>600.0</ele><time>2026-05-03T09:51:03.901Z</time></trkpt><trkpt lat="45.8990347" lon="9.2641694"><ele>599.0</ele><time>2026-05-03T09:51:04.909Z</time></trkpt><trkpt lat="45.8991349" lon="9.2642026"><ele>599.0</ele><time>2026-05-03T09:51:05.902Z</time></trkpt><trkpt lat="45.8992346" lon="9.2642247"><ele>599.0</ele><time>2026-05-03T09:51:06.903Z</time></trkpt><trkpt lat="45.8993455" lon="9.2642133"><ele>599.0</ele><time>2026-05-03T09:51:07.897Z</time></trkpt><trkpt lat="45.8994615" lon="9.2642007"><ele>599.0</ele><time>2026-05-03T09:51:08.899Z</time></trkpt><trkpt lat="45.8995807" lon="9.2641896"><ele>599.0</ele><time>2026-05-03T09:51:09.901Z</time></trkpt><trkpt lat="45.8997029" lon="9.2641783"><ele>600.5</ele><time>2026-05-03T09:51:10.906Z</time></trkpt><trkpt lat="45.8998238" lon="9.2641638"><ele>602.0</ele><time>2026-05-03T09:51:11.906Z</time></trkpt><trkpt lat="45.8999456" lon="9.2641456"><ele>603.5</ele><time>2026-05-03T09:51:12.906Z</time></trkpt><trkpt lat="45.9000807" lon="9.2641342"><ele>605.0</ele><time>2026-05-03T09:51:13.896Z</time></trkpt><trkpt lat="45.9002106" lon="9.2641173"><ele>605.0</ele><time>2026-05-03T09:51:14.886Z</time></trkpt><trkpt lat="45.9003427" lon="9.2641097"><ele>605.0</ele><time>2026-05-03T09:51:15.894Z</time></trkpt><trkpt lat="45.9004753" lon="9.2640977"><ele>605.0</ele><time>2026-05-03T09:51:16.895Z</time></trkpt><trkpt lat="45.9006011" lon="9.2640876"><ele>605.0</ele><time>2026-05-03T09:51:17.899Z</time></trkpt><trkpt lat="45.9007242" lon="9.2640784"><ele>605.0</ele><time>2026-05-03T09:51:18.897Z</time></trkpt><trkpt lat="45.9008461" lon="9.2640723"><ele>605.0</ele><time>2026-05-03T09:51:19.896Z</time></trkpt><trkpt lat="45.9009697" lon="9.2640812"><ele>605.0</ele><time>2026-05-03T09:51:20.9Z</time></trkpt><trkpt lat="45.9010942" lon="9.2641143"><ele>605.0</ele><time>2026-05-03T09:51:21.896Z</time></trkpt><trkpt lat="45.9012175" lon="9.2642043"><ele>607.75</ele><time>2026-05-03T09:51:22.9Z</time></trkpt><trkpt lat="45.9013371" lon="9.2643093"><ele>610.5</ele><time>2026-05-03T09:51:23.909Z</time></trkpt><trkpt lat="45.9014565" lon="9.2644004"><ele>613.25</ele><time>2026-05-03T09:51:24.895Z</time></trkpt><trkpt lat="45.9015816" lon="9.2644919"><ele>616.0</ele><time>2026-05-03T09:51:25.899Z</time></trkpt><trkpt lat="45.9017051" lon="9.2646065"><ele>616.25</ele><time>2026-05-03T09:51:26.896Z</time></trkpt><trkpt lat="45.9018173" lon="9.2647372"><ele>616.5</ele><time>2026-05-03T09:51:27.912Z</time></trkpt><trkpt lat="45.9019232" lon="9.2648879"><ele>616.75</ele><time>2026-05-03T09:51:28.893Z</time></trkpt><trkpt lat="45.9020289" lon="9.2650395"><ele>617.0</ele><time>2026-05-03T09:51:29.904Z</time></trkpt><trkpt lat="45.9021385" lon="9.2651824"><ele>617.0</ele><time>2026-05-03T09:51:30.906Z</time></trkpt><trkpt lat="45.902253" lon="9.2653035"><ele>617.0</ele><time>2026-05-03T09:51:31.898Z</time></trkpt><trkpt lat="45.9023738" lon="9.2654196"><ele>617.0</ele><time>2026-05-03T09:51:32.896Z</time></trkpt><trkpt lat="45.9025166" lon="9.2654851"><ele>617.0</ele><time>2026-05-03T09:51:33.898Z</time></trkpt><trkpt lat="45.9026623" lon="9.2655224"><ele>616.75</ele><time>2026-05-03T09:51:34.887Z</time></trkpt><trkpt lat="45.9028023" lon="9.2655508"><ele>616.5</ele><time>2026-05-03T09:51:35.896Z</time></trkpt><trkpt lat="45.9029345" lon="9.2655851"><ele>616.25</ele><time>2026-05-03T09:51:36.912Z</time></trkpt><trkpt lat="45.9030652" lon="9.2656567"><ele>616.0</ele><time>2026-05-03T09:51:37.912Z</time></trkpt><trkpt lat="45.9031942" lon="9.265741"><ele>616.0</ele><time>2026-05-03T09:51:38.899Z</time></trkpt><trkpt lat="45.9033004" lon="9.2658336"><ele>616.0</ele><time>2026-05-03T09:51:39.905Z</time></trkpt><trkpt lat="45.9034249" lon="9.2658788"><ele>616.0</ele><time>2026-05-03T09:51:40.896Z</time></trkpt><trkpt lat="45.9035349" lon="9.265938"><ele>616.0</ele><time>2026-05-03T09:51:41.894Z</time></trkpt><trkpt lat="45.9036365" lon="9.2660083"><ele>616.25</ele><time>2026-05-03T09:51:42.887Z</time></trkpt><trkpt lat="45.9037345" lon="9.2660913"><ele>616.5</ele><time>2026-05-03T09:51:43.922Z</time></trkpt><trkpt lat="45.9038257" lon="9.266189"><ele>616.75</ele><time>2026-05-03T09:51:44.898Z</time></trkpt><trkpt lat="45.9039161" lon="9.2662873"><ele>617.0</ele><time>2026-05-03T09:51:45.898Z</time></trkpt><trkpt lat="45.9040071" lon="9.2663839"><ele>616.25</ele><time>2026-05-03T09:51:46.903Z</time></trkpt><trkpt lat="45.9040958" lon="9.2664725"><ele>615.5</ele><time>2026-05-03T09:51:47.9Z</time></trkpt><trkpt lat="45.9041915" lon="9.2665461"><ele>614.75</ele><time>2026-05-03T09:51:48.902Z</time></trkpt><trkpt lat="45.9043028" lon="9.266601"><ele>614.0</ele><time>2026-05-03T09:51:49.896Z</time></trkpt><trkpt lat="45.9044181" lon="9.2666416"><ele>613.25</ele><time>2026-05-03T09:51:50.901Z</time></trkpt><trkpt lat="45.9045377" lon="9.266624"><ele>612.5</ele><time>2026-05-03T09:51:51.908Z</time></trkpt><trkpt lat="45.9046594" lon="9.2665627"><ele>611.75</ele><time>2026-05-03T09:51:52.905Z</time></trkpt><trkpt lat="45.904779" lon="9.2664786"><ele>611.0</ele><time>2026-05-03T09:51:53.908Z</time></trkpt><trkpt lat="45.9048989" lon="9.2663894"><ele>611.0</ele><time>2026-05-03T09:51:54.907Z</time></trkpt><trkpt lat="45.905022" lon="9.2663046"><ele>611.0</ele><time>2026-05-03T09:51:55.906Z</time></trkpt><trkpt lat="45.9051415" lon="9.2662231"><ele>611.0</ele><time>2026-05-03T09:51:56.898Z</time></trkpt><trkpt lat="45.905262" lon="9.2661387"><ele>611.0</ele><time>2026-05-03T09:51:57.898Z</time></trkpt><trkpt lat="45.9053818" lon="9.2660537"><ele>611.6</ele><time>2026-05-03T09:51:58.904Z</time></trkpt><trkpt lat="45.905494" lon="9.2659739"><ele>612.2</ele><time>2026-05-03T09:51:59.905Z</time></trkpt><trkpt lat="45.9055961" lon="9.2659021"><ele>612.8</ele><time>2026-05-03T09:52:00.903Z</time></trkpt><trkpt lat="45.9056884" lon="9.265836"><ele>613.4</ele><time>2026-05-03T09:52:01.902Z</time></trkpt><trkpt lat="45.9057838" lon="9.2657653"><ele>614.0</ele><time>2026-05-03T09:52:02.898Z</time></trkpt><trkpt lat="45.9058826" lon="9.2656822"><ele>615.25</ele><time>2026-05-03T09:52:03.901Z</time></trkpt><trkpt lat="45.9059863" lon="9.2655895"><ele>616.5</ele><time>2026-05-03T09:52:04.902Z</time></trkpt><trkpt lat="45.9060942" lon="9.2654896"><ele>617.75</ele><time>2026-05-03T09:52:05.886Z</time></trkpt><trkpt lat="45.9062071" lon="9.2653806"><ele>619.0</ele><time>2026-05-03T09:52:06.892Z</time></trkpt><trkpt lat="45.9063248" lon="9.2652629"><ele>619.0</ele><time>2026-05-03T09:52:07.901Z</time></trkpt><trkpt lat="45.9064491" lon="9.2651316"><ele>619.0</ele><time>2026-05-03T09:52:08.904Z</time></trkpt><trkpt lat="45.9065762" lon="9.2649913"><ele>619.0</ele><time>2026-05-03T09:52:09.899Z</time></trkpt><trkpt lat="45.9067048" lon="9.2648467"><ele>622.0</ele><time>2026-05-03T09:52:10.906Z</time></trkpt><trkpt lat="45.9068372" lon="9.2647056"><ele>625.0</ele><time>2026-05-03T09:52:11.898Z</time></trkpt><trkpt lat="45.9069803" lon="9.2645421"><ele>628.0</ele><time>2026-05-03T09:52:12.892Z</time></trkpt><trkpt lat="45.9071366" lon="9.264368"><ele>628.0</ele><time>2026-05-03T09:52:13.895Z</time></trkpt><trkpt lat="45.9072855" lon="9.2642047"><ele>628.0</ele><time>2026-05-03T09:52:14.896Z</time></trkpt><trkpt lat="45.9074275" lon="9.2640676"><ele>628.0</ele><time>2026-05-03T09:52:15.902Z</time></trkpt><trkpt lat="45.9075798" lon="9.2639226"><ele>637.6666666666667</ele><time>2026-05-03T09:52:16.886Z</time></trkpt><trkpt lat="45.9077477" lon="9.2637726"><ele>647.3333333333334</ele><time>2026-05-03T09:52:17.908Z</time></trkpt><trkpt lat="45.9079679" lon="9.2636389"><ele>657.0</ele><time>2026-05-03T09:52:18.896Z</time></trkpt><trkpt lat="45.9082058" lon="9.2635058"><ele>648.0</ele><time>2026-05-03T09:52:19.893Z</time></trkpt><trkpt lat="45.9084725" lon="9.2633821"><ele>639.0</ele><time>2026-05-03T09:52:20.889Z</time></trkpt><trkpt lat="45.908742" lon="9.2632417"><ele>657.0</ele><time>2026-05-03T09:52:21.897Z</time></trkpt><trkpt lat="45.9090276" lon="9.2631113"><ele>675.0</ele><time>2026-05-03T09:52:22.902Z</time></trkpt><trkpt lat="45.9092871" lon="9.2629978"><ele>675.0</ele><time>2026-05-03T09:52:23.905Z</time></trkpt><trkpt lat="45.9095159" lon="9.2628644"><ele>675.0</ele><time>2026-05-03T09:52:24.897Z</time></trkpt><trkpt lat="45.9097386" lon="9.2627547"><ele>675.0</ele><time>2026-05-03T09:52:25.893Z</time></trkpt><trkpt lat="45.9099363" lon="9.2626485"><ele>675.0</ele><time>2026-05-03T09:52:26.893Z</time></trkpt><trkpt lat="45.910148" lon="9.2625756"><ele>675.0</ele><time>2026-05-03T09:52:27.89Z</time></trkpt><trkpt lat="45.9103442" lon="9.2625277"><ele>676.3333333333334</ele><time>2026-05-03T09:52:28.89Z</time></trkpt><trkpt lat="45.9105389" lon="9.2625533"><ele>677.6666666666667</ele><time>2026-05-03T09:52:29.936Z</time></trkpt><trkpt lat="45.9107292" lon="9.2625865"><ele>679.0</ele><time>2026-05-03T09:52:30.903Z</time></trkpt><trkpt lat="45.9109074" lon="9.2626131"><ele>678.6666666666667</ele><time>2026-05-03T09:52:31.902Z</time></trkpt><trkpt lat="45.9110896" lon="9.2626486"><ele>678.3333333333334</ele><time>2026-05-03T09:52:32.894Z</time></trkpt><trkpt lat="45.911271" lon="9.2626463"><ele>678.0</ele><time>2026-05-03T09:52:33.896Z</time></trkpt><trkpt lat="45.911444" lon="9.2626274"><ele>678.0</ele><time>2026-05-03T09:52:34.903Z</time></trkpt><trkpt lat="45.9116039" lon="9.2625292"><ele>678.0</ele><time>2026-05-03T09:52:35.897Z</time></trkpt><trkpt lat="45.9117516" lon="9.2624254"><ele>678.0</ele><time>2026-05-03T09:52:36.901Z</time></trkpt><trkpt lat="45.91187" lon="9.2622527"><ele>679.6666666666666</ele><time>2026-05-03T09:52:37.903Z</time></trkpt><trkpt lat="45.9119714" lon="9.2620184"><ele>681.3333333333333</ele><time>2026-05-03T09:52:38.9Z</time></trkpt><trkpt lat="45.9120581" lon="9.2617445"><ele>683.0</ele><time>2026-05-03T09:52:39.901Z</time></trkpt><trkpt lat="45.9121502" lon="9.2614763"><ele>688.6666666666666</ele><time>2026-05-03T09:52:40.906Z</time></trkpt><trkpt lat="45.9122469" lon="9.2612374"><ele>694.3333333333334</ele><time>2026-05-03T09:52:41.907Z</time></trkpt><trkpt lat="45.9123453" lon="9.2610124"><ele>700.0</ele><time>2026-05-03T09:52:42.906Z</time></trkpt><trkpt lat="45.9124678" lon="9.2608206"><ele>698.6666666666667</ele><time>2026-05-03T09:52:43.91Z</time></trkpt><trkpt lat="45.9126326" lon="9.2606589"><ele>697.3333333333334</ele><time>2026-05-03T09:52:44.899Z</time></trkpt><trkpt lat="45.9127926" lon="9.2604826"><ele>696.0</ele><time>2026-05-03T09:52:45.9Z</time></trkpt><trkpt lat="45.912952" lon="9.2603106"><ele>696.0</ele><time>2026-05-03T09:52:46.902Z</time></trkpt><trkpt lat="45.9131008" lon="9.2601429"><ele>696.0</ele><time>2026-05-03T09:52:47.901Z</time></trkpt><trkpt lat="45.9132428" lon="9.2599941"><ele>696.0</ele><time>2026-05-03T09:52:48.905Z</time></trkpt><trkpt lat="45.9133892" lon="9.2598847"><ele>698.6666666666666</ele><time>2026-05-03T09:52:49.896Z</time></trkpt><trkpt lat="45.9135405" lon="9.2598357"><ele>701.3333333333333</ele><time>2026-05-03T09:52:50.902Z</time></trkpt><trkpt lat="45.9137008" lon="9.2598169"><ele>704.0</ele><time>2026-05-03T09:52:51.896Z</time></trkpt><trkpt lat="45.9138458" lon="9.2598314"><ele>704.0</ele><time>2026-05-03T09:52:52.884Z</time></trkpt><trkpt lat="45.9139847" lon="9.2599151"><ele>704.0</ele><time>2026-05-03T09:52:53.897Z</time></trkpt><trkpt lat="45.9141313" lon="9.2600296"><ele>704.0</ele><time>2026-05-03T09:52:54.906Z</time></trkpt><trkpt lat="45.9142862" lon="9.2601694"><ele>709.0</ele><time>2026-05-03T09:52:55.886Z</time></trkpt><trkpt lat="45.914469" lon="9.2602413"><ele>714.0</ele><time>2026-05-03T09:52:56.908Z</time></trkpt><trkpt lat="45.9146542" lon="9.2603173"><ele>719.0</ele><time>2026-05-03T09:52:57.887Z</time></trkpt><trkpt lat="45.914857" lon="9.2603596"><ele>725.0</ele><time>2026-05-03T09:52:58.894Z</time></trkpt><trkpt lat="45.9150719" lon="9.26038"><ele>731.0</ele><time>2026-05-03T09:52:59.905Z</time></trkpt><trkpt lat="45.9153066" lon="9.2603985"><ele>731.0</ele><time>2026-05-03T09:53:00.893Z</time></trkpt><trkpt lat="45.9155346" lon="9.2604084"><ele>731.0</ele><time>2026-05-03T09:53:01.9Z</time></trkpt><trkpt lat="45.9157512" lon="9.260434"><ele>731.0</ele><time>2026-05-03T09:53:02.895Z</time></trkpt><trkpt lat="45.9159608" lon="9.2604629"><ele>730.6666666666666</ele><time>2026-05-03T09:53:03.901Z</time></trkpt><trkpt lat="45.9161592" lon="9.2605105"><ele>730.3333333333334</ele><time>2026-05-03T09:53:04.904Z</time></trkpt><trkpt lat="45.9163415" lon="9.2605981"><ele>730.0</ele><time>2026-05-03T09:53:05.898Z</time></trkpt><trkpt lat="45.9165048" lon="9.2607283"><ele>730.0</ele><time>2026-05-03T09:53:06.916Z</time></trkpt><trkpt lat="45.9166748" lon="9.2608674"><ele>730.0</ele><time>2026-05-03T09:53:07.903Z</time></trkpt><trkpt lat="45.9168484" lon="9.2609942"><ele>730.0</ele><time>2026-05-03T09:53:08.903Z</time></trkpt><trkpt lat="45.9170118" lon="9.2610966"><ele>734.0</ele><time>2026-05-03T09:53:09.892Z</time></trkpt><trkpt lat="45.9171947" lon="9.2611848"><ele>738.0</ele><time>2026-05-03T09:53:10.895Z</time></trkpt><trkpt lat="45.9173869" lon="9.2612281"><ele>742.0</ele><time>2026-05-03T09:53:11.906Z</time></trkpt><trkpt lat="45.9175853" lon="9.2612697"><ele>744.0</ele><time>2026-05-03T09:53:12.906Z</time></trkpt><trkpt lat="45.9177797" lon="9.2613198"><ele>746.0</ele><time>2026-05-03T09:53:13.909Z</time></trkpt><trkpt lat="45.9179572" lon="9.2613607"><ele>748.0</ele><time>2026-05-03T09:53:14.898Z</time></trkpt><trkpt lat="45.9181222" lon="9.2613939"><ele>748.0</ele><time>2026-05-03T09:53:15.907Z</time></trkpt><trkpt lat="45.9182775" lon="9.2614214"><ele>748.0</ele><time>2026-05-03T09:53:16.904Z</time></trkpt><trkpt lat="45.9184324" lon="9.2614464"><ele>748.0</ele><time>2026-05-03T09:53:17.896Z</time></trkpt><trkpt lat="45.9185801" lon="9.2614752"><ele>746.25</ele><time>2026-05-03T09:53:18.898Z</time></trkpt><trkpt lat="45.9187272" lon="9.2615063"><ele>744.5</ele><time>2026-05-03T09:53:19.904Z</time></trkpt><trkpt lat="45.9188693" lon="9.2615336"><ele>742.75</ele><time>2026-05-03T09:53:20.897Z</time></trkpt><trkpt lat="45.919004" lon="9.2615573"><ele>741.0</ele><time>2026-05-03T09:53:21.899Z</time></trkpt><trkpt lat="45.919133" lon="9.2615843"><ele>741.75</ele><time>2026-05-03T09:53:22.908Z</time></trkpt><trkpt lat="45.9192564" lon="9.2616044"><ele>742.5</ele><time>2026-05-03T09:53:23.922Z</time></trkpt><trkpt lat="45.9193872" lon="9.2616353"><ele>743.25</ele><time>2026-05-03T09:53:24.901Z</time></trkpt><trkpt lat="45.9195107" lon="9.2616574"><ele>744.0</ele><time>2026-05-03T09:53:25.897Z</time></trkpt><trkpt lat="45.9196349" lon="9.2616626"><ele>744.0</ele><time>2026-05-03T09:53:26.9Z</time></trkpt><trkpt lat="45.9197629" lon="9.2616563"><ele>744.0</ele><time>2026-05-03T09:53:27.906Z</time></trkpt><trkpt lat="45.9198894" lon="9.2616432"><ele>744.0</ele><time>2026-05-03T09:53:28.902Z</time></trkpt><trkpt lat="45.9200075" lon="9.2616293"><ele>744.0</ele><time>2026-05-03T09:53:29.909Z</time></trkpt><trkpt lat="45.9201117" lon="9.2616161"><ele>745.8000000000001</ele><time>2026-05-03T09:53:30.896Z</time></trkpt><trkpt lat="45.9202079" lon="9.2615911"><ele>747.6</ele><time>2026-05-03T09:53:31.9Z</time></trkpt><trkpt lat="45.9203016" lon="9.2615879"><ele>749.4</ele><time>2026-05-03T09:53:32.902Z</time></trkpt><trkpt lat="45.9203869" lon="9.2615943"><ele>751.2</ele><time>2026-05-03T09:53:33.895Z</time></trkpt><trkpt lat="45.920479" lon="9.2616444"><ele>753.0</ele><time>2026-05-03T09:53:34.903Z</time></trkpt><trkpt lat="45.9205642" lon="9.2617153"><ele>753.0</ele><time>2026-05-03T09:53:35.894Z</time></trkpt><trkpt lat="45.9206495" lon="9.2617768"><ele>753.0</ele><time>2026-05-03T09:53:36.896Z</time></trkpt><trkpt lat="45.9207243" lon="9.2618308"><ele>753.0</ele><time>2026-05-03T09:53:37.905Z</time></trkpt><trkpt lat="45.9207933" lon="9.2618864"><ele>753.0</ele><time>2026-05-03T09:53:38.908Z</time></trkpt><trkpt lat="45.9208949" lon="9.2619601"><ele>753.0</ele><time>2026-05-03T09:53:40.897Z</time></trkpt><trkpt lat="45.9209769" lon="9.2620213"><ele>754.1666666666666</ele><time>2026-05-03T09:53:42.912Z</time></trkpt><trkpt lat="45.9210519" lon="9.2620773"><ele>755.3333333333334</ele><time>2026-05-03T09:53:45.902Z</time></trkpt><trkpt lat="45.9211518" lon="9.26214"><ele>756.5</ele><time>2026-05-03T09:53:48.902Z</time></trkpt><trkpt lat="45.9212143" lon="9.2621693"><ele>757.6666666666667</ele><time>2026-05-03T09:53:49.887Z</time></trkpt><trkpt lat="45.9212833" lon="9.2621972"><ele>758.8333333333334</ele><time>2026-05-03T09:53:50.898Z</time></trkpt><trkpt lat="45.9213666" lon="9.2622153"><ele>760.0</ele><time>2026-05-03T09:53:51.907Z</time></trkpt><trkpt lat="45.9214534" lon="9.2622374"><ele>760.0</ele><time>2026-05-03T09:53:52.899Z</time></trkpt><trkpt lat="45.9215427" lon="9.2622671"><ele>760.0</ele><time>2026-05-03T09:53:53.915Z</time></trkpt><trkpt lat="45.9216306" lon="9.2623023"><ele>760.0</ele><time>2026-05-03T09:53:54.908Z</time></trkpt><trkpt lat="45.9217204" lon="9.2623287"><ele>760.0</ele><time>2026-05-03T09:53:55.904Z</time></trkpt><trkpt lat="45.9218134" lon="9.2623712"><ele>760.0</ele><time>2026-05-03T09:53:56.902Z</time></trkpt><trkpt lat="45.9219025" lon="9.2624123"><ele>759.2</ele><time>2026-05-03T09:53:57.909Z</time></trkpt><trkpt lat="45.9219896" lon="9.2624651"><ele>758.4</ele><time>2026-05-03T09:53:58.902Z</time></trkpt><trkpt lat="45.9220762" lon="9.2625024"><ele>757.5999999999999</ele><time>2026-05-03T09:53:59.9Z</time></trkpt><trkpt lat="45.9221682" lon="9.262563"><ele>756.8</ele><time>2026-05-03T09:54:00.91Z</time></trkpt><trkpt lat="45.9222696" lon="9.2626366"><ele>756.0</ele><time>2026-05-03T09:54:01.907Z</time></trkpt><trkpt lat="45.9223699" lon="9.2627241"><ele>756.0</ele><time>2026-05-03T09:54:02.909Z</time></trkpt><trkpt lat="45.9224679" lon="9.2628372"><ele>756.0</ele><time>2026-05-03T09:54:03.903Z</time></trkpt><trkpt lat="45.9225637" lon="9.2629654"><ele>756.0</ele><time>2026-05-03T09:54:04.893Z</time></trkpt><trkpt lat="45.922642" lon="9.2631244"><ele>756.0</ele><time>2026-05-03T09:54:05.902Z</time></trkpt><trkpt lat="45.9227066" lon="9.2632724"><ele>758.5</ele><time>2026-05-03T09:54:06.89Z</time></trkpt><trkpt lat="45.9227627" lon="9.2634118"><ele>761.0</ele><time>2026-05-03T09:54:07.903Z</time></trkpt><trkpt lat="45.9228144" lon="9.2635607"><ele>763.5</ele><time>2026-05-03T09:54:08.909Z</time></trkpt><trkpt lat="45.9228487" lon="9.2637299"><ele>766.0</ele><time>2026-05-03T09:54:09.888Z</time></trkpt><trkpt lat="45.9228732" lon="9.2639086"><ele>764.75</ele><time>2026-05-03T09:54:10.914Z</time></trkpt><trkpt lat="45.9229004" lon="9.2640848"><ele>763.5</ele><time>2026-05-03T09:54:11.9Z</time></trkpt><trkpt lat="45.9229264" lon="9.2642609"><ele>762.25</ele><time>2026-05-03T09:54:12.9Z</time></trkpt><trkpt lat="45.9229512" lon="9.2644311"><ele>761.0</ele><time>2026-05-03T09:54:13.88Z</time></trkpt><trkpt lat="45.9229747" lon="9.2646047"><ele>762.25</ele><time>2026-05-03T09:54:14.885Z</time></trkpt><trkpt lat="45.9229953" lon="9.2647796"><ele>763.5</ele><time>2026-05-03T09:54:15.907Z</time></trkpt><trkpt lat="45.9230115" lon="9.264945"><ele>764.75</ele><time>2026-05-03T09:54:16.903Z</time></trkpt><trkpt lat="45.9230216" lon="9.2651047"><ele>766.0</ele><time>2026-05-03T09:54:17.895Z</time></trkpt><trkpt lat="45.9230337" lon="9.2652598"><ele>766.0</ele><time>2026-05-03T09:54:18.909Z</time></trkpt><trkpt lat="45.9230473" lon="9.2654153"><ele>766.0</ele><time>2026-05-03T09:54:19.897Z</time></trkpt><trkpt lat="45.9230617" lon="9.2655724"><ele>766.0</ele><time>2026-05-03T09:54:20.901Z</time></trkpt><trkpt lat="45.9230729" lon="9.2657346"><ele>766.0</ele><time>2026-05-03T09:54:21.9Z</time></trkpt><trkpt lat="45.9230852" lon="9.2659"><ele>766.0</ele><time>2026-05-03T09:54:22.903Z</time></trkpt><trkpt lat="45.9230955" lon="9.2660591"><ele>766.0</ele><time>2026-05-03T09:54:23.9Z</time></trkpt><trkpt lat="45.9231067" lon="9.2662036"><ele>766.0</ele><time>2026-05-03T09:54:24.893Z</time></trkpt><trkpt lat="45.9231174" lon="9.2663358"><ele>766.0</ele><time>2026-05-03T09:54:25.906Z</time></trkpt><trkpt lat="45.9231406" lon="9.266456"><ele>766.0</ele><time>2026-05-03T09:54:26.894Z</time></trkpt><trkpt lat="45.923178" lon="9.2665754"><ele>766.0</ele><time>2026-05-03T09:54:27.901Z</time></trkpt><trkpt lat="45.9232304" lon="9.266695"><ele>766.0</ele><time>2026-05-03T09:54:28.893Z</time></trkpt><trkpt lat="45.9232936" lon="9.2668002"><ele>766.0</ele><time>2026-05-03T09:54:29.888Z</time></trkpt><trkpt lat="45.9233662" lon="9.2668899"><ele>766.0</ele><time>2026-05-03T09:54:30.903Z</time></trkpt><trkpt lat="45.9234415" lon="9.266966"><ele>766.0</ele><time>2026-05-03T09:54:31.896Z</time></trkpt><trkpt lat="45.9235161" lon="9.2670372"><ele>766.0</ele><time>2026-05-03T09:54:32.901Z</time></trkpt><trkpt lat="45.9235931" lon="9.2671055"><ele>766.0</ele><time>2026-05-03T09:54:33.905Z</time></trkpt><trkpt lat="45.9236679" lon="9.2671716"><ele>766.0</ele><time>2026-05-03T09:54:34.898Z</time></trkpt><trkpt lat="45.9237338" lon="9.267232"><ele>766.0</ele><time>2026-05-03T09:54:35.902Z</time></trkpt><trkpt lat="45.9237992" lon="9.2672861"><ele>766.0</ele><time>2026-05-03T09:54:36.901Z</time></trkpt><trkpt lat="45.9238615" lon="9.2673391"><ele>766.0</ele><time>2026-05-03T09:54:37.906Z</time></trkpt><trkpt lat="45.9239229" lon="9.2673837"><ele>766.0</ele><time>2026-05-03T09:54:38.897Z</time></trkpt><trkpt lat="45.9239909" lon="9.2674386"><ele>765.6666666666667</ele><time>2026-05-03T09:54:39.904Z</time></trkpt><trkpt lat="45.9240609" lon="9.2674919"><ele>765.3333333333334</ele><time>2026-05-03T09:54:40.903Z</time></trkpt><trkpt lat="45.9241301" lon="9.2675433"><ele>765.0</ele><time>2026-05-03T09:54:41.888Z</time></trkpt><trkpt lat="45.9241992" lon="9.2675836"><ele>764.6666666666666</ele><time>2026-05-03T09:54:42.899Z</time></trkpt><trkpt lat="45.924277" lon="9.2676169"><ele>764.3333333333333</ele><time>2026-05-03T09:54:43.914Z</time></trkpt><trkpt lat="45.9243643" lon="9.2676481"><ele>764.0</ele><time>2026-05-03T09:54:44.907Z</time></trkpt><trkpt lat="45.9244562" lon="9.2676838"><ele>764.0</ele><time>2026-05-03T09:54:45.898Z</time></trkpt><trkpt lat="45.9245528" lon="9.2677256"><ele>764.0</ele><time>2026-05-03T09:54:46.896Z</time></trkpt><trkpt lat="45.9246494" lon="9.2677656"><ele>764.0</ele><time>2026-05-03T09:54:47.907Z</time></trkpt><trkpt lat="45.9247458" lon="9.2678051"><ele>764.0</ele><time>2026-05-03T09:54:48.907Z</time></trkpt><trkpt lat="45.9248421" lon="9.2678465"><ele>764.0</ele><time>2026-05-03T09:54:49.904Z</time></trkpt><trkpt lat="45.9249385" lon="9.2678868"><ele>764.0</ele><time>2026-05-03T09:54:50.898Z</time></trkpt><trkpt lat="45.9250363" lon="9.2679293"><ele>764.0</ele><time>2026-05-03T09:54:51.903Z</time></trkpt><trkpt lat="45.9251323" lon="9.2679703"><ele>764.0</ele><time>2026-05-03T09:54:52.892Z</time></trkpt><trkpt lat="45.9252283" lon="9.2680037"><ele>764.0</ele><time>2026-05-03T09:54:53.898Z</time></trkpt><trkpt lat="45.9253271" lon="9.2680251"><ele>764.0</ele><time>2026-05-03T09:54:54.906Z</time></trkpt><trkpt lat="45.9254367" lon="9.2680306"><ele>760.5</ele><time>2026-05-03T09:54:55.906Z</time></trkpt><trkpt lat="45.9255595" lon="9.2680156"><ele>757.0</ele><time>2026-05-03T09:54:56.896Z</time></trkpt><trkpt lat="45.9256896" lon="9.2679835"><ele>753.5</ele><time>2026-05-03T09:54:57.933Z</time></trkpt><trkpt lat="45.9258219" lon="9.2679459"><ele>750.0</ele><time>2026-05-03T09:54:58.905Z</time></trkpt><trkpt lat="45.925954" lon="9.2679094"><ele>748.0</ele><time>2026-05-03T09:54:59.902Z</time></trkpt><trkpt lat="45.9260833" lon="9.2678717"><ele>746.0</ele><time>2026-05-03T09:55:00.9Z</time></trkpt><trkpt lat="45.9262076" lon="9.2678343"><ele>744.0</ele><time>2026-05-03T09:55:01.896Z</time></trkpt><trkpt lat="45.9263318" lon="9.2677987"><ele>742.0</ele><time>2026-05-03T09:55:02.896Z</time></trkpt><trkpt lat="45.9264592" lon="9.2677626"><ele>742.0</ele><time>2026-05-03T09:55:03.903Z</time></trkpt><trkpt lat="45.92659" lon="9.2677257"><ele>742.0</ele><time>2026-05-03T09:55:04.884Z</time></trkpt><trkpt lat="45.9267225" lon="9.2676881"><ele>742.0</ele><time>2026-05-03T09:55:05.897Z</time></trkpt><trkpt lat="45.9268505" lon="9.2676471"><ele>742.0</ele><time>2026-05-03T09:55:06.907Z</time></trkpt><trkpt lat="45.9269805" lon="9.2676253"><ele>739.0</ele><time>2026-05-03T09:55:07.908Z</time></trkpt><trkpt lat="45.9271033" lon="9.2676031"><ele>736.0</ele><time>2026-05-03T09:55:08.908Z</time></trkpt><trkpt lat="45.9272197" lon="9.2676042"><ele>733.0</ele><time>2026-05-03T09:55:09.92Z</time></trkpt><trkpt lat="45.9273251" lon="9.2676133"><ele>730.0</ele><time>2026-05-03T09:55:10.91Z</time></trkpt><trkpt lat="45.9274175" lon="9.2676214"><ele>727.0</ele><time>2026-05-03T09:55:11.886Z</time></trkpt><trkpt lat="45.927509" lon="9.2676299"><ele>724.5</ele><time>2026-05-03T09:55:12.906Z</time></trkpt><trkpt lat="45.9275923" lon="9.2676594"><ele>722.0</ele><time>2026-05-03T09:55:13.894Z</time></trkpt><trkpt lat="45.9276662" lon="9.2676971"><ele>719.5</ele><time>2026-05-03T09:55:14.906Z</time></trkpt><trkpt lat="45.9277342" lon="9.2677331"><ele>717.0</ele><time>2026-05-03T09:55:15.901Z</time></trkpt><trkpt lat="45.9277968" lon="9.267764"><ele>714.5</ele><time>2026-05-03T09:55:16.905Z</time></trkpt><trkpt lat="45.9278773" lon="9.2678369"><ele>712.0</ele><time>2026-05-03T09:55:18.901Z</time></trkpt><trkpt lat="45.9278767" lon="9.267945"><ele>712.0</ele><time>2026-05-03T09:55:20.907Z</time></trkpt><trkpt lat="45.9277908" lon="9.2680409"><ele>712.0</ele><time>2026-05-03T09:55:22.9Z</time></trkpt><trkpt lat="45.9277212" lon="9.2680752"><ele>712.0</ele><time>2026-05-03T09:55:23.905Z</time></trkpt><trkpt lat="45.9276511" lon="9.2681126"><ele>712.0</ele><time>2026-05-03T09:55:24.908Z</time></trkpt><trkpt lat="45.9275871" lon="9.2681499"><ele>712.0</ele><time>2026-05-03T09:55:25.902Z</time></trkpt><trkpt lat="45.9275262" lon="9.2681864"><ele>712.0</ele><time>2026-05-03T09:55:26.89Z</time></trkpt><trkpt lat="45.9274664" lon="9.2682194"><ele>711.3333333333334</ele><time>2026-05-03T09:55:27.904Z</time></trkpt><trkpt lat="45.927403" lon="9.2682516"><ele>710.6666666666667</ele><time>2026-05-03T09:55:28.907Z</time></trkpt><trkpt lat="45.92734" lon="9.2682827"><ele>710.0</ele><time>2026-05-03T09:55:29.905Z</time></trkpt><trkpt lat="45.9272805" lon="9.2683131"><ele>709.3333333333334</ele><time>2026-05-03T09:55:30.896Z</time></trkpt><trkpt lat="45.9271957" lon="9.2684228"><ele>708.6666666666666</ele><time>2026-05-03T09:55:32.9Z</time></trkpt><trkpt lat="45.9271864" lon="9.2685566"><ele>708.0</ele><time>2026-05-03T09:55:34.895Z</time></trkpt><trkpt lat="45.9272519" lon="9.2685899"><ele>708.0</ele><time>2026-05-03T09:55:35.909Z</time></trkpt><trkpt lat="45.9273303" lon="9.2685854"><ele>708.0</ele><time>2026-05-03T09:55:36.905Z</time></trkpt><trkpt lat="45.9274082" lon="9.268554"><ele>708.0</ele><time>2026-05-03T09:55:37.9Z</time></trkpt><trkpt lat="45.9274902" lon="9.2685213"><ele>708.0</ele><time>2026-05-03T09:55:38.906Z</time></trkpt><trkpt lat="45.9275654" lon="9.2684857"><ele>708.0</ele><time>2026-05-03T09:55:39.901Z</time></trkpt><trkpt lat="45.9276331" lon="9.2684557"><ele>708.0</ele><time>2026-05-03T09:55:40.903Z</time></trkpt><trkpt lat="45.9277523" lon="9.2684044"><ele>704.6666666666666</ele><time>2026-05-03T09:55:42.905Z</time></trkpt><trkpt lat="45.9278649" lon="9.2684408"><ele>701.3333333333334</ele><time>2026-05-03T09:55:44.893Z</time></trkpt><trkpt lat="45.9278866" lon="9.2685288"><ele>698.0</ele><time>2026-05-03T09:55:45.907Z</time></trkpt><trkpt lat="45.9278493" lon="9.2686131"><ele>694.6666666666667</ele><time>2026-05-03T09:55:46.892Z</time></trkpt><trkpt lat="45.927771" lon="9.2686658"><ele>691.3333333333334</ele><time>2026-05-03T09:55:47.905Z</time></trkpt><trkpt lat="45.927686" lon="9.2687269"><ele>688.0</ele><time>2026-05-03T09:55:48.908Z</time></trkpt><trkpt lat="45.9276109" lon="9.2687896"><ele>688.4</ele><time>2026-05-03T09:55:49.896Z</time></trkpt><trkpt lat="45.9275391" lon="9.268847"><ele>688.8</ele><time>2026-05-03T09:55:50.904Z</time></trkpt><trkpt lat="45.9274894" lon="9.2689844"><ele>689.2</ele><time>2026-05-03T09:55:52.902Z</time></trkpt><trkpt lat="45.9275322" lon="9.2691"><ele>689.6</ele><time>2026-05-03T09:55:54.912Z</time></trkpt><trkpt lat="45.9276431" lon="9.2691175"><ele>690.0</ele><time>2026-05-03T09:55:56.908Z</time></trkpt><trkpt lat="45.9277144" lon="9.2690258"><ele>689.5</ele><time>2026-05-03T09:55:57.887Z</time></trkpt><trkpt lat="45.9278137" lon="9.2689071"><ele>689.0</ele><time>2026-05-03T09:55:58.895Z</time></trkpt><trkpt lat="45.9279095" lon="9.2687881"><ele>688.5</ele><time>2026-05-03T09:55:59.898Z</time></trkpt><trkpt lat="45.9279998" lon="9.268682"><ele>688.0</ele><time>2026-05-03T09:56:00.905Z</time></trkpt><trkpt lat="45.9280903" lon="9.2685781"><ele>688.0</ele><time>2026-05-03T09:56:01.896Z</time></trkpt><trkpt lat="45.9281843" lon="9.2684844"><ele>688.0</ele><time>2026-05-03T09:56:02.895Z</time></trkpt><trkpt lat="45.9282782" lon="9.2684122"><ele>688.0</ele><time>2026-05-03T09:56:03.887Z</time></trkpt><trkpt lat="45.9283699" lon="9.2683414"><ele>688.0</ele><time>2026-05-03T09:56:04.897Z</time></trkpt><trkpt lat="45.9284473" lon="9.2683146"><ele>688.0</ele><time>2026-05-03T09:56:05.913Z</time></trkpt><trkpt lat="45.9285138" lon="9.2682844"><ele>686.4</ele><time>2026-05-03T09:56:06.902Z</time></trkpt><trkpt lat="45.928575" lon="9.2682544"><ele>684.8</ele><time>2026-05-03T09:56:07.902Z</time></trkpt><trkpt lat="45.9286825" lon="9.2682146"><ele>683.2</ele><time>2026-05-03T09:56:09.908Z</time></trkpt><trkpt lat="45.9287588" lon="9.2682975"><ele>681.6</ele><time>2026-05-03T09:56:11.903Z</time></trkpt><trkpt lat="45.9286896" lon="9.2684208"><ele>680.0</ele><time>2026-05-03T09:56:13.902Z</time></trkpt><trkpt lat="45.9286162" lon="9.2684637"><ele>680.0</ele><time>2026-05-03T09:56:14.891Z</time></trkpt><trkpt lat="45.9285318" lon="9.268502"><ele>680.0</ele><time>2026-05-03T09:56:15.901Z</time></trkpt><trkpt lat="45.9284514" lon="9.2685437"><ele>680.0</ele><time>2026-05-03T09:56:16.902Z</time></trkpt><trkpt lat="45.9283825" lon="9.2685905"><ele>680.0</ele><time>2026-05-03T09:56:17.899Z</time></trkpt><trkpt lat="45.9283234" lon="9.2686371"><ele>680.0</ele><time>2026-05-03T09:56:18.903Z</time></trkpt><trkpt lat="45.92824" lon="9.2687617"><ele>680.0</ele><time>2026-05-03T09:56:20.902Z</time></trkpt><trkpt lat="45.9282883" lon="9.2689193"><ele>677.6666666666666</ele><time>2026-05-03T09:56:22.892Z</time></trkpt><trkpt lat="45.9283534" lon="9.2689909"><ele>675.3333333333333</ele><time>2026-05-03T09:56:23.898Z</time></trkpt><trkpt lat="45.9284429" lon="9.2690326"><ele>673.0</ele><time>2026-05-03T09:56:24.896Z</time></trkpt><trkpt lat="45.92853" lon="9.269072"><ele>670.6666666666666</ele><time>2026-05-03T09:56:25.915Z</time></trkpt><trkpt lat="45.9286139" lon="9.2691191"><ele>668.3333333333334</ele><time>2026-05-03T09:56:26.902Z</time></trkpt><trkpt lat="45.9286946" lon="9.2691632"><ele>666.0</ele><time>2026-05-03T09:56:27.895Z</time></trkpt><trkpt lat="45.9287659" lon="9.269214"><ele>664.5999999999999</ele><time>2026-05-03T09:56:28.907Z</time></trkpt><trkpt lat="45.9288323" lon="9.2692647"><ele>663.2</ele><time>2026-05-03T09:56:29.886Z</time></trkpt><trkpt lat="45.9289436" lon="9.2693162"><ele>661.8</ele><time>2026-05-03T09:56:31.893Z</time></trkpt><trkpt lat="45.9290396" lon="9.2692303"><ele>660.4000000000001</ele><time>2026-05-03T09:56:33.904Z</time></trkpt><trkpt lat="45.9290654" lon="9.2691283"><ele>659.0</ele><time>2026-05-03T09:56:34.887Z</time></trkpt><trkpt lat="45.9290664" lon="9.2690135"><ele>663.2</ele><time>2026-05-03T09:56:35.901Z</time></trkpt><trkpt lat="45.9290508" lon="9.2689004"><ele>667.4000000000001</ele><time>2026-05-03T09:56:36.901Z</time></trkpt><trkpt lat="45.9290412" lon="9.2687965"><ele>671.6</ele><time>2026-05-03T09:56:37.899Z</time></trkpt><trkpt lat="45.9290534" lon="9.2687061"><ele>675.8</ele><time>2026-05-03T09:56:38.901Z</time></trkpt><trkpt lat="45.9291656" lon="9.2687036"><ele>680.0</ele><time>2026-05-03T09:56:40.899Z</time></trkpt><trkpt lat="45.9292546" lon="9.2688441"><ele>676.5</ele><time>2026-05-03T09:56:42.884Z</time></trkpt><trkpt lat="45.9293096" lon="9.2689511"><ele>673.0</ele><time>2026-05-03T09:56:43.901Z</time></trkpt><trkpt lat="45.9293593" lon="9.2690468"><ele>669.5</ele><time>2026-05-03T09:56:44.898Z</time></trkpt><trkpt lat="45.929407" lon="9.2691357"><ele>666.0</ele><time>2026-05-03T09:56:45.905Z</time></trkpt><trkpt lat="45.9294665" lon="9.2692217"><ele>662.5</ele><time>2026-05-03T09:56:46.892Z</time></trkpt><trkpt lat="45.9295456" lon="9.2692871"><ele>659.0</ele><time>2026-05-03T09:56:47.894Z</time></trkpt><trkpt lat="45.9296502" lon="9.2693323"><ele>659.0</ele><time>2026-05-03T09:56:48.894Z</time></trkpt><trkpt lat="45.929766" lon="9.2693464"><ele>659.0</ele><time>2026-05-03T09:56:49.898Z</time></trkpt><trkpt lat="45.9298792" lon="9.2693602"><ele>659.0</ele><time>2026-05-03T09:56:50.882Z</time></trkpt><trkpt lat="45.9299933" lon="9.2693697"><ele>659.0</ele><time>2026-05-03T09:56:51.894Z</time></trkpt><trkpt lat="45.9301027" lon="9.2693715"><ele>656.75</ele><time>2026-05-03T09:56:52.891Z</time></trkpt><trkpt lat="45.9302111" lon="9.269378"><ele>654.5</ele><time>2026-05-03T09:56:53.909Z</time></trkpt><trkpt lat="45.9303272" lon="9.269387"><ele>652.25</ele><time>2026-05-03T09:56:54.907Z</time></trkpt><trkpt lat="45.9304479" lon="9.26942"><ele>650.0</ele><time>2026-05-03T09:56:55.895Z</time></trkpt><trkpt lat="45.9305651" lon="9.2694749"><ele>650.0</ele><time>2026-05-03T09:56:56.896Z</time></trkpt><trkpt lat="45.9306673" lon="9.2695573"><ele>650.0</ele><time>2026-05-03T09:56:57.907Z</time></trkpt><trkpt lat="45.9307585" lon="9.2696505"><ele>650.0</ele><time>2026-05-03T09:56:58.898Z</time></trkpt><trkpt lat="45.9308563" lon="9.2697361"><ele>650.0</ele><time>2026-05-03T09:56:59.905Z</time></trkpt><trkpt lat="45.9309685" lon="9.2697969"><ele>644.8</ele><time>2026-05-03T09:57:00.904Z</time></trkpt><trkpt lat="45.9310794" lon="9.269831"><ele>639.6</ele><time>2026-05-03T09:57:01.9Z</time></trkpt><trkpt lat="45.9311852" lon="9.2698567"><ele>634.4</ele><time>2026-05-03T09:57:02.899Z</time></trkpt><trkpt lat="45.9312795" lon="9.2698811"><ele>629.2</ele><time>2026-05-03T09:57:03.894Z</time></trkpt><trkpt lat="45.9313716" lon="9.2699008"><ele>624.0</ele><time>2026-05-03T09:57:04.889Z</time></trkpt><trkpt lat="45.9314627" lon="9.2699119"><ele>624.0</ele><time>2026-05-03T09:57:05.9Z</time></trkpt><trkpt lat="45.9315536" lon="9.2699189"><ele>624.0</ele><time>2026-05-03T09:57:06.9Z</time></trkpt><trkpt lat="45.9316401" lon="9.2698744"><ele>624.0</ele><time>2026-05-03T09:57:07.893Z</time></trkpt><trkpt lat="45.9317227" lon="9.2698016"><ele>624.0</ele><time>2026-05-03T09:57:08.892Z</time></trkpt><trkpt lat="45.9318076" lon="9.269722"><ele>624.0</ele><time>2026-05-03T09:57:09.927Z</time></trkpt><trkpt lat="45.9318814" lon="9.2696156"><ele>625.2</ele><time>2026-05-03T09:57:10.897Z</time></trkpt><trkpt lat="45.9319618" lon="9.269526"><ele>626.4</ele><time>2026-05-03T09:57:11.892Z</time></trkpt><trkpt lat="45.932042" lon="9.2694234"><ele>627.6</ele><time>2026-05-03T09:57:12.904Z</time></trkpt><trkpt lat="45.9321365" lon="9.2693511"><ele>628.8</ele><time>2026-05-03T09:57:13.899Z</time></trkpt><trkpt lat="45.9322415" lon="9.2693129"><ele>630.0</ele><time>2026-05-03T09:57:14.894Z</time></trkpt><trkpt lat="45.9323519" lon="9.2693016"><ele>630.0</ele><time>2026-05-03T09:57:15.9Z</time></trkpt><trkpt lat="45.9324585" lon="9.2693089"><ele>630.0</ele><time>2026-05-03T09:57:16.895Z</time></trkpt><trkpt lat="45.9325582" lon="9.2693555"><ele>630.0</ele><time>2026-05-03T09:57:17.895Z</time></trkpt><trkpt lat="45.9326546" lon="9.2694042"><ele>630.0</ele><time>2026-05-03T09:57:18.899Z</time></trkpt><trkpt lat="45.9327363" lon="9.2694425"><ele>630.0</ele><time>2026-05-03T09:57:19.902Z</time></trkpt><trkpt lat="45.9328242" lon="9.2694415"><ele>626.2</ele><time>2026-05-03T09:57:20.896Z</time></trkpt><trkpt lat="45.9329092" lon="9.2694031"><ele>622.4</ele><time>2026-05-03T09:57:21.896Z</time></trkpt><trkpt lat="45.9329879" lon="9.2693352"><ele>618.6</ele><time>2026-05-03T09:57:22.9Z</time></trkpt><trkpt lat="45.9330541" lon="9.2692327"><ele>614.8</ele><time>2026-05-03T09:57:23.896Z</time></trkpt><trkpt lat="45.9331139" lon="9.269096"><ele>611.0</ele><time>2026-05-03T09:57:24.903Z</time></trkpt><trkpt lat="45.9331836" lon="9.268968"><ele>617.0</ele><time>2026-05-03T09:57:25.905Z</time></trkpt><trkpt lat="45.9332595" lon="9.2688429"><ele>623.0</ele><time>2026-05-03T09:57:26.901Z</time></trkpt><trkpt lat="45.9333665" lon="9.2687496"><ele>629.0</ele><time>2026-05-03T09:57:27.905Z</time></trkpt><trkpt lat="45.93349" lon="9.2686821"><ele>635.0</ele><time>2026-05-03T09:57:28.901Z</time></trkpt><trkpt lat="45.9336206" lon="9.2686329"><ele>635.0</ele><time>2026-05-03T09:57:29.905Z</time></trkpt><trkpt lat="45.9337492" lon="9.2685895"><ele>635.0</ele><time>2026-05-03T09:57:30.905Z</time></trkpt><trkpt lat="45.9338751" lon="9.2685644"><ele>635.0</ele><time>2026-05-03T09:57:31.902Z</time></trkpt><trkpt lat="45.933996" lon="9.2685738"><ele>635.0</ele><time>2026-05-03T09:57:32.901Z</time></trkpt><trkpt lat="45.9341145" lon="9.2685865"><ele>635.0</ele><time>2026-05-03T09:57:33.905Z</time></trkpt><trkpt lat="45.9342186" lon="9.2686583"><ele>635.0</ele><time>2026-05-03T09:57:34.898Z</time></trkpt><trkpt lat="45.9343204" lon="9.2687316"><ele>635.0</ele><time>2026-05-03T09:57:35.901Z</time></trkpt><trkpt lat="45.9344001" lon="9.2688441"><ele>635.0</ele><time>2026-05-03T09:57:36.902Z</time></trkpt><trkpt lat="45.9344611" lon="9.268996"><ele>635.5</ele><time>2026-05-03T09:57:37.919Z</time></trkpt><trkpt lat="45.9345221" lon="9.2691527"><ele>636.0</ele><time>2026-05-03T09:57:38.9Z</time></trkpt><trkpt lat="45.9345394" lon="9.2693344"><ele>636.5</ele><time>2026-05-03T09:57:39.898Z</time></trkpt><trkpt lat="45.9345279" lon="9.2695127"><ele>637.0</ele><time>2026-05-03T09:57:40.902Z</time></trkpt><trkpt lat="45.9345136" lon="9.2696758"><ele>635.4</ele><time>2026-05-03T09:57:41.904Z</time></trkpt><trkpt lat="45.9345019" lon="9.2698395"><ele>633.8000000000001</ele><time>2026-05-03T09:57:42.899Z</time></trkpt><trkpt lat="45.9345145" lon="9.2699796"><ele>632.2</ele><time>2026-05-03T09:57:43.905Z</time></trkpt><trkpt lat="45.9345548" lon="9.2701036"><ele>630.6</ele><time>2026-05-03T09:57:44.898Z</time></trkpt><trkpt lat="45.934615" lon="9.2702057"><ele>629.0</ele><time>2026-05-03T09:57:45.908Z</time></trkpt><trkpt lat="45.9346955" lon="9.2702894"><ele>629.0</ele><time>2026-05-03T09:57:46.9Z</time></trkpt><trkpt lat="45.9347945" lon="9.2703548"><ele>629.0</ele><time>2026-05-03T09:57:47.902Z</time></trkpt><trkpt lat="45.9349075" lon="9.2704125"><ele>629.0</ele><time>2026-05-03T09:57:48.907Z</time></trkpt><trkpt lat="45.9350243" lon="9.2704667"><ele>629.0</ele><time>2026-05-03T09:57:49.91Z</time></trkpt><trkpt lat="45.935138" lon="9.2705193"><ele>629.5</ele><time>2026-05-03T09:57:50.887Z</time></trkpt><trkpt lat="45.9352399" lon="9.2705733"><ele>630.0</ele><time>2026-05-03T09:57:51.906Z</time></trkpt><trkpt lat="45.9353285" lon="9.2706287"><ele>630.5</ele><time>2026-05-03T09:57:52.898Z</time></trkpt><trkpt lat="45.9354038" lon="9.2706907"><ele>631.0</ele><time>2026-05-03T09:57:53.904Z</time></trkpt><trkpt lat="45.9354674" lon="9.2707551"><ele>631.5</ele><time>2026-05-03T09:57:54.898Z</time></trkpt><trkpt lat="45.9355285" lon="9.2708209"><ele>632.0</ele><time>2026-05-03T09:57:55.906Z</time></trkpt><trkpt lat="45.9355891" lon="9.2708839"><ele>632.0</ele><time>2026-05-03T09:57:56.904Z</time></trkpt><trkpt lat="45.9356547" lon="9.2709458"><ele>632.0</ele><time>2026-05-03T09:57:57.911Z</time></trkpt><trkpt lat="45.9357241" lon="9.2710036"><ele>632.0</ele><time>2026-05-03T09:57:58.908Z</time></trkpt><trkpt lat="45.9357925" lon="9.2710436"><ele>632.0</ele><time>2026-05-03T09:57:59.902Z</time></trkpt><trkpt lat="45.935863" lon="9.2710659"><ele>632.0</ele><time>2026-05-03T09:58:00.904Z</time></trkpt><trkpt lat="45.93598" lon="9.271102"><ele>632.0</ele><time>2026-05-03T09:58:02.899Z</time></trkpt><trkpt lat="45.9360998" lon="9.2711072"><ele>633.0</ele><time>2026-05-03T09:58:04.902Z</time></trkpt><trkpt lat="45.9362198" lon="9.2711308"><ele>634.0</ele><time>2026-05-03T09:58:06.908Z</time></trkpt><trkpt lat="45.936352" lon="9.2711667"><ele>635.0</ele><time>2026-05-03T09:58:08.905Z</time></trkpt><trkpt lat="45.9364226" lon="9.2711638"><ele>636.0</ele><time>2026-05-03T09:58:09.897Z</time></trkpt><trkpt lat="45.9365279" lon="9.2711595"><ele>637.0</ele><time>2026-05-03T09:58:11.91Z</time></trkpt><trkpt lat="45.9366288" lon="9.2711604"><ele>638.4000000000001</ele><time>2026-05-03T09:58:13.897Z</time></trkpt><trkpt lat="45.936765" lon="9.2711884"><ele>639.8000000000001</ele><time>2026-05-03T09:58:15.901Z</time></trkpt><trkpt lat="45.9368427" lon="9.2712107"><ele>641.2</ele><time>2026-05-03T09:58:16.908Z</time></trkpt><trkpt lat="45.9369339" lon="9.2712404"><ele>642.6</ele><time>2026-05-03T09:58:17.898Z</time></trkpt><trkpt lat="45.9370359" lon="9.2712794"><ele>644.0</ele><time>2026-05-03T09:58:18.907Z</time></trkpt><trkpt lat="45.9371433" lon="9.2713285"><ele>644.0</ele><time>2026-05-03T09:58:19.906Z</time></trkpt><trkpt lat="45.9372537" lon="9.2713848"><ele>644.0</ele><time>2026-05-03T09:58:20.893Z</time></trkpt><trkpt lat="45.9373703" lon="9.271448"><ele>644.0</ele><time>2026-05-03T09:58:21.899Z</time></trkpt><trkpt lat="45.9374845" lon="9.271534"><ele>644.0</ele><time>2026-05-03T09:58:22.897Z</time></trkpt><trkpt lat="45.9376014" lon="9.2716226"><ele>643.25</ele><time>2026-05-03T09:58:23.902Z</time></trkpt><trkpt lat="45.9377156" lon="9.2717135"><ele>642.5</ele><time>2026-05-03T09:58:24.906Z</time></trkpt><trkpt lat="45.937831" lon="9.2717871"><ele>641.75</ele><time>2026-05-03T09:58:25.905Z</time></trkpt><trkpt lat="45.9379504" lon="9.2718337"><ele>641.0</ele><time>2026-05-03T09:58:26.906Z</time></trkpt><trkpt lat="45.9380658" lon="9.2718796"><ele>641.0</ele><time>2026-05-03T09:58:27.903Z</time></trkpt><trkpt lat="45.9381682" lon="9.2719187"><ele>641.0</ele><time>2026-05-03T09:58:28.906Z</time></trkpt><trkpt lat="45.9382527" lon="9.2719931"><ele>641.0</ele><time>2026-05-03T09:58:29.892Z</time></trkpt><trkpt lat="45.9383285" lon="9.2721081"><ele>641.0</ele><time>2026-05-03T09:58:30.901Z</time></trkpt><trkpt lat="45.9383996" lon="9.2722489"><ele>641.0</ele><time>2026-05-03T09:58:31.896Z</time></trkpt><trkpt lat="45.938461" lon="9.2723833"><ele>641.0</ele><time>2026-05-03T09:58:32.895Z</time></trkpt><trkpt lat="45.9385111" lon="9.2725064"><ele>641.0</ele><time>2026-05-03T09:58:33.892Z</time></trkpt><trkpt lat="45.9385578" lon="9.2726252"><ele>641.0</ele><time>2026-05-03T09:58:34.895Z</time></trkpt><trkpt lat="45.9386185" lon="9.2727202"><ele>641.0</ele><time>2026-05-03T09:58:35.901Z</time></trkpt><trkpt lat="45.9386887" lon="9.2728037"><ele>641.0</ele><time>2026-05-03T09:58:36.9Z</time></trkpt><trkpt lat="45.9387689" lon="9.2728655"><ele>641.0</ele><time>2026-05-03T09:58:37.912Z</time></trkpt><trkpt lat="45.9388585" lon="9.2728967"><ele>641.0</ele><time>2026-05-03T09:58:38.901Z</time></trkpt><trkpt lat="45.9389503" lon="9.2729036"><ele>641.0</ele><time>2026-05-03T09:58:39.897Z</time></trkpt><trkpt lat="45.9390362" lon="9.2729023"><ele>641.0</ele><time>2026-05-03T09:58:40.891Z</time></trkpt><trkpt lat="45.9391196" lon="9.2729006"><ele>641.0</ele><time>2026-05-03T09:58:41.89Z</time></trkpt><trkpt lat="45.9391949" lon="9.2728959"><ele>641.0</ele><time>2026-05-03T09:58:42.895Z</time></trkpt><trkpt lat="45.9392773" lon="9.2728849"><ele>642.0</ele><time>2026-05-03T09:58:43.904Z</time></trkpt><trkpt lat="45.9393705" lon="9.2728639"><ele>643.0</ele><time>2026-05-03T09:58:44.908Z</time></trkpt><trkpt lat="45.9394693" lon="9.2728229"><ele>644.0</ele><time>2026-05-03T09:58:45.898Z</time></trkpt><trkpt lat="45.9395749" lon="9.2727652"><ele>645.0</ele><time>2026-05-03T09:58:46.902Z</time></trkpt><trkpt lat="45.9396854" lon="9.2727021"><ele>646.0</ele><time>2026-05-03T09:58:47.906Z</time></trkpt><trkpt lat="45.9398038" lon="9.2726417"><ele>646.0</ele><time>2026-05-03T09:58:48.909Z</time></trkpt><trkpt lat="45.9399305" lon="9.2725875"><ele>646.0</ele><time>2026-05-03T09:58:49.898Z</time></trkpt><trkpt lat="45.9400614" lon="9.2725414"><ele>646.0</ele><time>2026-05-03T09:58:50.893Z</time></trkpt><trkpt lat="45.940196" lon="9.2725018"><ele>646.0</ele><time>2026-05-03T09:58:51.896Z</time></trkpt><trkpt lat="45.9403274" lon="9.2724618"><ele>645.5</ele><time>2026-05-03T09:58:52.895Z</time></trkpt><trkpt lat="45.9404487" lon="9.2724251"><ele>645.0</ele><time>2026-05-03T09:58:53.896Z</time></trkpt><trkpt lat="45.9405557" lon="9.2723857"><ele>644.5</ele><time>2026-05-03T09:58:54.902Z</time></trkpt><trkpt lat="45.9406599" lon="9.2723531"><ele>644.0</ele><time>2026-05-03T09:58:55.911Z</time></trkpt><trkpt lat="45.940783" lon="9.2723127"><ele>649.0</ele><time>2026-05-03T09:58:56.896Z</time></trkpt><trkpt lat="45.9409391" lon="9.2722662"><ele>654.0</ele><time>2026-05-03T09:58:57.901Z</time></trkpt><trkpt lat="45.9411255" lon="9.2722347"><ele>659.0</ele><time>2026-05-03T09:58:58.898Z</time></trkpt><trkpt lat="45.9413331" lon="9.2722002"><ele>659.0</ele><time>2026-05-03T09:58:59.889Z</time></trkpt><trkpt lat="45.9415453" lon="9.2721581"><ele>659.0</ele><time>2026-05-03T09:59:00.901Z</time></trkpt><trkpt lat="45.941754" lon="9.2720913"><ele>659.0</ele><time>2026-05-03T09:59:01.897Z</time></trkpt><trkpt lat="45.9419482" lon="9.2720273"><ele>655.0</ele><time>2026-05-03T09:59:02.893Z</time></trkpt><trkpt lat="45.9421181" lon="9.2719398"><ele>651.0</ele><time>2026-05-03T09:59:03.887Z</time></trkpt><trkpt lat="45.9422795" lon="9.2718442"><ele>647.0</ele><time>2026-05-03T09:59:04.9Z</time></trkpt><trkpt lat="45.9424276" lon="9.2716968"><ele>650.3333333333333</ele><time>2026-05-03T09:59:05.892Z</time></trkpt><trkpt lat="45.9425803" lon="9.2715044"><ele>653.6666666666666</ele><time>2026-05-03T09:59:06.904Z</time></trkpt><trkpt lat="45.9427264" lon="9.2713003"><ele>657.0</ele><time>2026-05-03T09:59:07.895Z</time></trkpt><trkpt lat="45.9428545" lon="9.2711271"><ele>657.0</ele><time>2026-05-03T09:59:08.907Z</time></trkpt><trkpt lat="45.9429641" lon="9.270994"><ele>657.0</ele><time>2026-05-03T09:59:09.896Z</time></trkpt><trkpt lat="45.9430913" lon="9.2708947"><ele>657.0</ele><time>2026-05-03T09:59:10.902Z</time></trkpt><trkpt lat="45.9432414" lon="9.2708825"><ele>657.0</ele><time>2026-05-03T09:59:11.898Z</time></trkpt><trkpt lat="45.9434012" lon="9.2708936"><ele>654.6666666666666</ele><time>2026-05-03T09:59:12.903Z</time></trkpt><trkpt lat="45.9435605" lon="9.2709184"><ele>652.3333333333333</ele><time>2026-05-03T09:59:13.899Z</time></trkpt><trkpt lat="45.9437187" lon="9.2709323"><ele>650.0</ele><time>2026-05-03T09:59:14.904Z</time></trkpt><trkpt lat="45.9438823" lon="9.2708626"><ele>650.0</ele><time>2026-05-03T09:59:15.896Z</time></trkpt><trkpt lat="45.9440438" lon="9.2707395"><ele>650.0</ele><time>2026-05-03T09:59:16.906Z</time></trkpt><trkpt lat="45.9441997" lon="9.2705665"><ele>650.0</ele><time>2026-05-03T09:59:17.898Z</time></trkpt><trkpt lat="45.9443577" lon="9.2703557"><ele>650.3333333333333</ele><time>2026-05-03T09:59:18.894Z</time></trkpt><trkpt lat="45.9445205" lon="9.2701409"><ele>650.6666666666666</ele><time>2026-05-03T09:59:19.9Z</time></trkpt><trkpt lat="45.9446759" lon="9.2699386"><ele>651.0</ele><time>2026-05-03T09:59:20.901Z</time></trkpt><trkpt lat="45.9448186" lon="9.2697622"><ele>654.3333333333334</ele><time>2026-05-03T09:59:21.894Z</time></trkpt><trkpt lat="45.9449581" lon="9.2695863"><ele>657.6666666666667</ele><time>2026-05-03T09:59:22.9Z</time></trkpt><trkpt lat="45.9450846" lon="9.2693909"><ele>661.0</ele><time>2026-05-03T09:59:23.897Z</time></trkpt><trkpt lat="45.9451922" lon="9.2691681"><ele>655.0</ele><time>2026-05-03T09:59:24.905Z</time></trkpt><trkpt lat="45.9452833" lon="9.2689173"><ele>649.0</ele><time>2026-05-03T09:59:25.91Z</time></trkpt><trkpt lat="45.9453813" lon="9.2686712"><ele>643.0</ele><time>2026-05-03T09:59:26.909Z</time></trkpt><trkpt lat="45.9454716" lon="9.2684103"><ele>643.0</ele><time>2026-05-03T09:59:27.902Z</time></trkpt><trkpt lat="45.9455611" lon="9.268153"><ele>643.0</ele><time>2026-05-03T09:59:28.885Z</time></trkpt><trkpt lat="45.945656" lon="9.2678983"><ele>643.0</ele><time>2026-05-03T09:59:29.906Z</time></trkpt><trkpt lat="45.9457525" lon="9.2676637"><ele>646.0</ele><time>2026-05-03T09:59:30.895Z</time></trkpt><trkpt lat="45.945846" lon="9.2674442"><ele>649.0</ele><time>2026-05-03T09:59:31.903Z</time></trkpt><trkpt lat="45.9459467" lon="9.267253"><ele>652.0</ele><time>2026-05-03T09:59:32.908Z</time></trkpt><trkpt lat="45.9460719" lon="9.2670881"><ele>652.0</ele><time>2026-05-03T09:59:33.902Z</time></trkpt><trkpt lat="45.9462171" lon="9.2669602"><ele>652.0</ele><time>2026-05-03T09:59:34.902Z</time></trkpt><trkpt lat="45.9463645" lon="9.2668444"><ele>652.0</ele><time>2026-05-03T09:59:35.908Z</time></trkpt><trkpt lat="45.9465128" lon="9.2667264"><ele>652.0</ele><time>2026-05-03T09:59:36.909Z</time></trkpt><trkpt lat="45.9466589" lon="9.2665777"><ele>652.0</ele><time>2026-05-03T09:59:37.9Z</time></trkpt><trkpt lat="45.9467879" lon="9.2663845"><ele>652.0</ele><time>2026-05-03T09:59:38.916Z</time></trkpt><trkpt lat="45.9469032" lon="9.266155"><ele>649.3333333333334</ele><time>2026-05-03T09:59:39.903Z</time></trkpt><trkpt lat="45.9470181" lon="9.265934"><ele>646.6666666666666</ele><time>2026-05-03T09:59:40.889Z</time></trkpt><trkpt lat="45.9471295" lon="9.2657415"><ele>644.0</ele><time>2026-05-03T09:59:41.902Z</time></trkpt><trkpt lat="45.9472402" lon="9.2655427"><ele>644.0</ele><time>2026-05-03T09:59:42.901Z</time></trkpt><trkpt lat="45.9473324" lon="9.2653224"><ele>644.0</ele><time>2026-05-03T09:59:43.893Z</time></trkpt><trkpt lat="45.9474022" lon="9.2650781"><ele>644.0</ele><time>2026-05-03T09:59:44.9Z</time></trkpt><trkpt lat="45.9474454" lon="9.2648364"><ele>646.3333333333333</ele><time>2026-05-03T09:59:45.892Z</time></trkpt><trkpt lat="45.9474938" lon="9.2646066"><ele>648.6666666666666</ele><time>2026-05-03T09:59:46.91Z</time></trkpt><trkpt lat="45.94755" lon="9.2643906"><ele>651.0</ele><time>2026-05-03T09:59:47.911Z</time></trkpt><trkpt lat="45.9476576" lon="9.2641817"><ele>644.6666666666666</ele><time>2026-05-03T09:59:48.898Z</time></trkpt><trkpt lat="45.9477863" lon="9.2639711"><ele>638.3333333333333</ele><time>2026-05-03T09:59:49.917Z</time></trkpt><trkpt lat="45.9479063" lon="9.2637744"><ele>632.0</ele><time>2026-05-03T09:59:50.902Z</time></trkpt><trkpt lat="45.9480142" lon="9.2635779"><ele>632.0</ele><time>2026-05-03T09:59:51.902Z</time></trkpt><trkpt lat="45.9481149" lon="9.2633842"><ele>632.0</ele><time>2026-05-03T09:59:52.909Z</time></trkpt><trkpt lat="45.9481727" lon="9.263158"><ele>632.0</ele><time>2026-05-03T09:59:53.902Z</time></trkpt><trkpt lat="45.9482254" lon="9.2629113"><ele>632.3333333333333</ele><time>2026-05-03T09:59:54.895Z</time></trkpt><trkpt lat="45.9482621" lon="9.262637"><ele>632.6666666666666</ele><time>2026-05-03T09:59:55.903Z</time></trkpt><trkpt lat="45.9483175" lon="9.2623852"><ele>633.0</ele><time>2026-05-03T09:59:56.911Z</time></trkpt><trkpt lat="45.9483846" lon="9.2621458"><ele>633.0</ele><time>2026-05-03T09:59:57.9Z</time></trkpt><trkpt lat="45.9484518" lon="9.2619172"><ele>633.0</ele><time>2026-05-03T09:59:58.9Z</time></trkpt><trkpt lat="45.9485233" lon="9.2617164"><ele>633.0</ele><time>2026-05-03T09:59:59.901Z</time></trkpt><trkpt lat="45.9485915" lon="9.2615246"><ele>634.5</ele><time>2026-05-03T10:00:00.906Z</time></trkpt><trkpt lat="45.9486535" lon="9.2613312"><ele>636.0</ele><time>2026-05-03T10:00:01.896Z</time></trkpt><trkpt lat="45.9487035" lon="9.2611407"><ele>637.5</ele><time>2026-05-03T10:00:02.895Z</time></trkpt><trkpt lat="45.9487281" lon="9.26096"><ele>639.0</ele><time>2026-05-03T10:00:03.907Z</time></trkpt><trkpt lat="45.94874" lon="9.260789"><ele>639.0</ele><time>2026-05-03T10:00:04.909Z</time></trkpt><trkpt lat="45.9487462" lon="9.2606227"><ele>639.0</ele><time>2026-05-03T10:00:05.903Z</time></trkpt><trkpt lat="45.9487706" lon="9.2604719"><ele>639.0</ele><time>2026-05-03T10:00:06.904Z</time></trkpt><trkpt lat="45.9488198" lon="9.2603378"><ele>639.0</ele><time>2026-05-03T10:00:07.903Z</time></trkpt><trkpt lat="45.9488797" lon="9.2602157"><ele>639.0</ele><time>2026-05-03T10:00:08.897Z</time></trkpt><trkpt lat="45.948943" lon="9.2600951"><ele>640.2</ele><time>2026-05-03T10:00:09.896Z</time></trkpt><trkpt lat="45.9490369" lon="9.2600133"><ele>641.4</ele><time>2026-05-03T10:00:10.899Z</time></trkpt><trkpt lat="45.9491365" lon="9.2599584"><ele>642.6</ele><time>2026-05-03T10:00:11.896Z</time></trkpt><trkpt lat="45.949249" lon="9.2599439"><ele>643.8</ele><time>2026-05-03T10:00:12.901Z</time></trkpt><trkpt lat="45.9493594" lon="9.2599344"><ele>645.0</ele><time>2026-05-03T10:00:13.902Z</time></trkpt><trkpt lat="45.9494616" lon="9.2599323"><ele>645.0</ele><time>2026-05-03T10:00:14.9Z</time></trkpt><trkpt lat="45.949563" lon="9.2599257"><ele>645.0</ele><time>2026-05-03T10:00:15.904Z</time></trkpt><trkpt lat="45.9496608" lon="9.259907"><ele>645.0</ele><time>2026-05-03T10:00:16.906Z</time></trkpt><trkpt lat="45.9497581" lon="9.2598659"><ele>645.0</ele><time>2026-05-03T10:00:17.894Z</time></trkpt><trkpt lat="45.9498561" lon="9.2598059"><ele>645.0</ele><time>2026-05-03T10:00:18.9Z</time></trkpt><trkpt lat="45.9499525" lon="9.2597183"><ele>644.6</ele><time>2026-05-03T10:00:19.909Z</time></trkpt><trkpt lat="45.9500476" lon="9.2596305"><ele>644.2</ele><time>2026-05-03T10:00:20.898Z</time></trkpt><trkpt lat="45.9501374" lon="9.2595424"><ele>643.8</ele><time>2026-05-03T10:00:21.917Z</time></trkpt><trkpt lat="45.9502256" lon="9.2594523"><ele>643.4</ele><time>2026-05-03T10:00:22.898Z</time></trkpt><trkpt lat="45.9503156" lon="9.2593604"><ele>643.0</ele><time>2026-05-03T10:00:23.904Z</time></trkpt><trkpt lat="45.950403" lon="9.2592627"><ele>643.0</ele><time>2026-05-03T10:00:24.893Z</time></trkpt><trkpt lat="45.950489" lon="9.2591524"><ele>643.0</ele><time>2026-05-03T10:00:25.889Z</time></trkpt><trkpt lat="45.9505711" lon="9.2590375"><ele>643.0</ele><time>2026-05-03T10:00:26.899Z</time></trkpt><trkpt lat="45.9506439" lon="9.2589201"><ele>643.0</ele><time>2026-05-03T10:00:27.898Z</time></trkpt><trkpt lat="45.9507131" lon="9.2588077"><ele>643.0</ele><time>2026-05-03T10:00:28.911Z</time></trkpt><trkpt lat="45.9507776" lon="9.2587023"><ele>643.0</ele><time>2026-05-03T10:00:29.9Z</time></trkpt><trkpt lat="45.9508382" lon="9.2586001"><ele>643.0</ele><time>2026-05-03T10:00:30.9Z</time></trkpt><trkpt lat="45.9508989" lon="9.2585014"><ele>643.0</ele><time>2026-05-03T10:00:31.902Z</time></trkpt><trkpt lat="45.9509559" lon="9.2584061"><ele>643.0</ele><time>2026-05-03T10:00:32.885Z</time></trkpt><trkpt lat="45.9509931" lon="9.2583033"><ele>643.0</ele><time>2026-05-03T10:00:33.892Z</time></trkpt><trkpt lat="45.9510172" lon="9.2582071"><ele>643.0</ele><time>2026-05-03T10:00:34.901Z</time></trkpt><trkpt lat="45.9510369" lon="9.2581122"><ele>643.0</ele><time>2026-05-03T10:00:35.904Z</time></trkpt><trkpt lat="45.9510602" lon="9.2580081"><ele>643.0</ele><time>2026-05-03T10:00:36.901Z</time></trkpt><trkpt lat="45.951081" lon="9.2579042"><ele>643.0</ele><time>2026-05-03T10:00:37.9Z</time></trkpt><trkpt lat="45.9511073" lon="9.2578038"><ele>643.0</ele><time>2026-05-03T10:00:38.894Z</time></trkpt><trkpt lat="45.9511617" lon="9.2576612"><ele>643.0</ele><time>2026-05-03T10:00:40.908Z</time></trkpt><trkpt lat="45.9512564" lon="9.2574912"><ele>643.0</ele><time>2026-05-03T10:00:42.887Z</time></trkpt><trkpt lat="45.9513699" lon="9.2574443"><ele>643.0</ele><time>2026-05-03T10:00:43.901Z</time></trkpt><trkpt lat="45.9515049" lon="9.2574207"><ele>643.0</ele><time>2026-05-03T10:00:44.894Z</time></trkpt><trkpt lat="45.9516571" lon="9.2574132"><ele>643.0</ele><time>2026-05-03T10:00:45.894Z</time></trkpt><trkpt lat="45.9518132" lon="9.2573968"><ele>642.6666666666667</ele><time>2026-05-03T10:00:46.908Z</time></trkpt><trkpt lat="45.9519703" lon="9.257372"><ele>642.3333333333334</ele><time>2026-05-03T10:00:47.909Z</time></trkpt><trkpt lat="45.9521311" lon="9.2573441"><ele>642.0</ele><time>2026-05-03T10:00:48.907Z</time></trkpt><trkpt lat="45.9522857" lon="9.2573206"><ele>642.0</ele><time>2026-05-03T10:00:49.899Z</time></trkpt><trkpt lat="45.9524412" lon="9.2572961"><ele>642.0</ele><time>2026-05-03T10:00:50.911Z</time></trkpt><trkpt lat="45.9525869" lon="9.2572759"><ele>642.0</ele><time>2026-05-03T10:00:51.898Z</time></trkpt><trkpt lat="45.9527272" lon="9.2572609"><ele>642.0</ele><time>2026-05-03T10:00:52.89Z</time></trkpt><trkpt lat="45.952859" lon="9.2572486"><ele>642.8</ele><time>2026-05-03T10:00:53.883Z</time></trkpt><trkpt lat="45.9529865" lon="9.2572371"><ele>643.6</ele><time>2026-05-03T10:00:54.885Z</time></trkpt><trkpt lat="45.9531017" lon="9.2572294"><ele>644.4</ele><time>2026-05-03T10:00:55.899Z</time></trkpt><trkpt lat="45.953205" lon="9.257224"><ele>645.1999999999999</ele><time>2026-05-03T10:00:56.906Z</time></trkpt><trkpt lat="45.953296" lon="9.2572235"><ele>646.0</ele><time>2026-05-03T10:00:57.89Z</time></trkpt><trkpt lat="45.9533705" lon="9.2572233"><ele>644.0</ele><time>2026-05-03T10:00:58.888Z</time></trkpt><trkpt lat="45.9534459" lon="9.2572287"><ele>642.0</ele><time>2026-05-03T10:01:00.901Z</time></trkpt><trkpt lat="45.95354" lon="9.2572304"><ele>640.0</ele><time>2026-05-03T10:01:03.897Z</time></trkpt><trkpt lat="45.953652" lon="9.2572345"><ele>638.0</ele><time>2026-05-03T10:01:05.887Z</time></trkpt><trkpt lat="45.9537254" lon="9.2572353"><ele>636.0</ele><time>2026-05-03T10:01:06.881Z</time></trkpt><trkpt lat="45.9537959" lon="9.2572319"><ele>634.0</ele><time>2026-05-03T10:01:07.893Z</time></trkpt><trkpt lat="45.9538701" lon="9.2572131"><ele>634.0</ele><time>2026-05-03T10:01:08.899Z</time></trkpt><trkpt lat="45.9539533" lon="9.2571749"><ele>634.0</ele><time>2026-05-03T10:01:09.9Z</time></trkpt><trkpt lat="45.9540381" lon="9.2570943"><ele>634.0</ele><time>2026-05-03T10:01:10.898Z</time></trkpt><trkpt lat="45.9541146" lon="9.257002"><ele>634.0</ele><time>2026-05-03T10:01:11.903Z</time></trkpt><trkpt lat="45.9541807" lon="9.2569043"><ele>634.0</ele><time>2026-05-03T10:01:12.9Z</time></trkpt><trkpt lat="45.9542457" lon="9.2568016"><ele>633.6</ele><time>2026-05-03T10:01:13.907Z</time></trkpt><trkpt lat="45.9543211" lon="9.2567057"><ele>633.2</ele><time>2026-05-03T10:01:14.907Z</time></trkpt><trkpt lat="45.9543963" lon="9.2566145"><ele>632.8000000000001</ele><time>2026-05-03T10:01:15.9Z</time></trkpt><trkpt lat="45.9544718" lon="9.2565189"><ele>632.4</ele><time>2026-05-03T10:01:16.903Z</time></trkpt><trkpt lat="45.9545447" lon="9.2564244"><ele>632.0</ele><time>2026-05-03T10:01:17.908Z</time></trkpt><trkpt lat="45.9546176" lon="9.2563334"><ele>632.0</ele><time>2026-05-03T10:01:18.905Z</time></trkpt><trkpt lat="45.9546849" lon="9.2562396"><ele>632.0</ele><time>2026-05-03T10:01:19.904Z</time></trkpt><trkpt lat="45.9547533" lon="9.2561472"><ele>632.0</ele><time>2026-05-03T10:01:20.91Z</time></trkpt><trkpt lat="45.9548171" lon="9.2560554"><ele>632.0</ele><time>2026-05-03T10:01:21.901Z</time></trkpt><trkpt lat="45.9548808" lon="9.2559588"><ele>632.0</ele><time>2026-05-03T10:01:22.897Z</time></trkpt><trkpt lat="45.9549373" lon="9.2558366"><ele>632.0</ele><time>2026-05-03T10:01:23.886Z</time></trkpt><trkpt lat="45.9549993" lon="9.2557037"><ele>632.0</ele><time>2026-05-03T10:01:24.888Z</time></trkpt><trkpt lat="45.9550472" lon="9.2555578"><ele>632.0</ele><time>2026-05-03T10:01:25.892Z</time></trkpt><trkpt lat="45.955097" lon="9.2554064"><ele>632.0</ele><time>2026-05-03T10:01:26.904Z</time></trkpt><trkpt lat="45.9551444" lon="9.2552631"><ele>626.5</ele><time>2026-05-03T10:01:27.905Z</time></trkpt><trkpt lat="45.9551969" lon="9.2551131"><ele>621.0</ele><time>2026-05-03T10:01:28.904Z</time></trkpt><trkpt lat="45.9552542" lon="9.2549676"><ele>615.5</ele><time>2026-05-03T10:01:29.912Z</time></trkpt><trkpt lat="45.9553072" lon="9.2548199"><ele>610.0</ele><time>2026-05-03T10:01:30.903Z</time></trkpt><trkpt lat="45.9553859" lon="9.2546708"><ele>610.0</ele><time>2026-05-03T10:01:31.904Z</time></trkpt><trkpt lat="45.9554606" lon="9.2545298"><ele>610.0</ele><time>2026-05-03T10:01:32.891Z</time></trkpt><trkpt lat="45.9555505" lon="9.2543856"><ele>610.0</ele><time>2026-05-03T10:01:33.908Z</time></trkpt><trkpt lat="45.9556394" lon="9.2542498"><ele>610.0</ele><time>2026-05-03T10:01:34.904Z</time></trkpt><trkpt lat="45.9557373" lon="9.2541398"><ele>610.0</ele><time>2026-05-03T10:01:35.902Z</time></trkpt><trkpt lat="45.9558214" lon="9.2540372"><ele>610.0</ele><time>2026-05-03T10:01:36.895Z</time></trkpt><trkpt lat="45.9558852" lon="9.2539237"><ele>610.0</ele><time>2026-05-03T10:01:37.892Z</time></trkpt><trkpt lat="45.9559209" lon="9.2537904"><ele>610.0</ele><time>2026-05-03T10:01:38.908Z</time></trkpt><trkpt lat="45.9559497" lon="9.2536592"><ele>610.0</ele><time>2026-05-03T10:01:39.889Z</time></trkpt><trkpt lat="45.9559679" lon="9.2535289"><ele>606.8</ele><time>2026-05-03T10:01:40.913Z</time></trkpt><trkpt lat="45.9559978" lon="9.2533921"><ele>603.6</ele><time>2026-05-03T10:01:41.906Z</time></trkpt><trkpt lat="45.9560473" lon="9.2532591"><ele>600.4</ele><time>2026-05-03T10:01:42.897Z</time></trkpt><trkpt lat="45.9561177" lon="9.253127"><ele>597.2</ele><time>2026-05-03T10:01:43.905Z</time></trkpt><trkpt lat="45.956211" lon="9.2530078"><ele>594.0</ele><time>2026-05-03T10:01:44.899Z</time></trkpt><trkpt lat="45.9563119" lon="9.2529011"><ele>594.0</ele><time>2026-05-03T10:01:45.903Z</time></trkpt><trkpt lat="45.9564044" lon="9.2527966"><ele>594.0</ele><time>2026-05-03T10:01:46.89Z</time></trkpt><trkpt lat="45.9564841" lon="9.2526833"><ele>594.0</ele><time>2026-05-03T10:01:47.891Z</time></trkpt><trkpt lat="45.9565504" lon="9.2525594"><ele>594.0</ele><time>2026-05-03T10:01:48.912Z</time></trkpt><trkpt lat="45.9566092" lon="9.2524353"><ele>594.0</ele><time>2026-05-03T10:01:49.91Z</time></trkpt><trkpt lat="45.9566799" lon="9.252308"><ele>591.0</ele><time>2026-05-03T10:01:50.891Z</time></trkpt><trkpt lat="45.9567556" lon="9.2521934"><ele>588.0</ele><time>2026-05-03T10:01:51.899Z</time></trkpt><trkpt lat="45.9568278" lon="9.252085"><ele>585.0</ele><time>2026-05-03T10:01:52.897Z</time></trkpt><trkpt lat="45.9568885" lon="9.2519665"><ele>582.0</ele><time>2026-05-03T10:01:53.904Z</time></trkpt><trkpt lat="45.9569405" lon="9.2518361"><ele>579.0</ele><time>2026-05-03T10:01:54.9Z</time></trkpt><trkpt lat="45.9569561" lon="9.2516801"><ele>579.0</ele><time>2026-05-03T10:01:55.9Z</time></trkpt><trkpt lat="45.9569757" lon="9.2515294"><ele>579.0</ele><time>2026-05-03T10:01:56.897Z</time></trkpt><trkpt lat="45.9570029" lon="9.251387"><ele>579.0</ele><time>2026-05-03T10:01:57.905Z</time></trkpt><trkpt lat="45.957033" lon="9.251242"><ele>579.0</ele><time>2026-05-03T10:01:58.898Z</time></trkpt><trkpt lat="45.9570615" lon="9.2511041"><ele>579.0</ele><time>2026-05-03T10:01:59.886Z</time></trkpt><trkpt lat="45.9570882" lon="9.2509739"><ele>578.8333333333334</ele><time>2026-05-03T10:02:00.902Z</time></trkpt><trkpt lat="45.9571137" lon="9.2508535"><ele>578.6666666666666</ele><time>2026-05-03T10:02:01.902Z</time></trkpt><trkpt lat="45.9571358" lon="9.2507643"><ele>578.5</ele><time>2026-05-03T10:02:02.9Z</time></trkpt><trkpt lat="45.9571703" lon="9.2506307"><ele>578.3333333333333</ele><time>2026-05-03T10:02:04.899Z</time></trkpt><trkpt lat="45.9572462" lon="9.25059"><ele>578.1666666666666</ele><time>2026-05-03T10:02:06.902Z</time></trkpt><trkpt lat="45.9572969" lon="9.2506555"><ele>578.0</ele><time>2026-05-03T10:02:08.901Z</time></trkpt><trkpt lat="45.957314" lon="9.2507447"><ele>578.0</ele><time>2026-05-03T10:02:09.909Z</time></trkpt><trkpt lat="45.9573179" lon="9.2508713"><ele>578.0</ele><time>2026-05-03T10:02:10.896Z</time></trkpt><trkpt lat="45.9573153" lon="9.2510147"><ele>578.0</ele><time>2026-05-03T10:02:11.899Z</time></trkpt><trkpt lat="45.9573161" lon="9.2511812"><ele>578.0</ele><time>2026-05-03T10:02:12.9Z</time></trkpt><trkpt lat="45.9573267" lon="9.2513345"><ele>578.0</ele><time>2026-05-03T10:02:13.886Z</time></trkpt><trkpt lat="45.9573564" lon="9.2514783"><ele>578.1666666666666</ele><time>2026-05-03T10:02:14.898Z</time></trkpt><trkpt lat="45.9573926" lon="9.2515921"><ele>578.3333333333333</ele><time>2026-05-03T10:02:15.903Z</time></trkpt><trkpt lat="45.9574289" lon="9.2517008"><ele>578.5</ele><time>2026-05-03T10:02:16.892Z</time></trkpt><trkpt lat="45.957462" lon="9.251804"><ele>578.6666666666666</ele><time>2026-05-03T10:02:17.894Z</time></trkpt><trkpt lat="45.9574727" lon="9.2519117"><ele>578.8333333333334</ele><time>2026-05-03T10:02:18.894Z</time></trkpt><trkpt lat="45.9574542" lon="9.2520126"><ele>579.0</ele><time>2026-05-03T10:02:19.892Z</time></trkpt><trkpt lat="45.9574385" lon="9.2521242"><ele>579.0</ele><time>2026-05-03T10:02:20.897Z</time></trkpt><trkpt lat="45.9574467" lon="9.2522381"><ele>579.0</ele><time>2026-05-03T10:02:21.884Z</time></trkpt><trkpt lat="45.9574853" lon="9.2523347"><ele>579.0</ele><time>2026-05-03T10:02:22.893Z</time></trkpt><trkpt lat="45.9575524" lon="9.2523912"><ele>579.0</ele><time>2026-05-03T10:02:23.898Z</time></trkpt><trkpt lat="45.9576356" lon="9.2524164"><ele>579.0</ele><time>2026-05-03T10:02:24.897Z</time></trkpt><trkpt lat="45.9577134" lon="9.2524293"><ele>579.0</ele><time>2026-05-03T10:02:25.893Z</time></trkpt><trkpt lat="45.957796" lon="9.2523604"><ele>576.6</ele><time>2026-05-03T10:02:26.905Z</time></trkpt><trkpt lat="45.9578777" lon="9.2522689"><ele>574.2</ele><time>2026-05-03T10:02:27.89Z</time></trkpt><trkpt lat="45.9579683" lon="9.2521875"><ele>571.8000000000001</ele><time>2026-05-03T10:02:28.89Z</time></trkpt><trkpt lat="45.9580655" lon="9.2521159"><ele>569.4</ele><time>2026-05-03T10:02:29.924Z</time></trkpt><trkpt lat="45.9581707" lon="9.2520424"><ele>567.0</ele><time>2026-05-03T10:02:30.897Z</time></trkpt><trkpt lat="45.9582815" lon="9.2519834"><ele>570.0</ele><time>2026-05-03T10:02:31.898Z</time></trkpt><trkpt lat="45.9583872" lon="9.2519279"><ele>573.0</ele><time>2026-05-03T10:02:32.892Z</time></trkpt><trkpt lat="45.9584862" lon="9.2518754"><ele>576.0</ele><time>2026-05-03T10:02:33.906Z</time></trkpt><trkpt lat="45.9585744" lon="9.251805"><ele>579.0</ele><time>2026-05-03T10:02:34.904Z</time></trkpt><trkpt lat="45.9586642" lon="9.2517315"><ele>582.0</ele><time>2026-05-03T10:02:35.897Z</time></trkpt><trkpt lat="45.9587447" lon="9.25161"><ele>582.0</ele><time>2026-05-03T10:02:36.879Z</time></trkpt><trkpt lat="45.9588217" lon="9.2514766"><ele>582.0</ele><time>2026-05-03T10:02:37.893Z</time></trkpt><trkpt lat="45.9589069" lon="9.2513374"><ele>582.0</ele><time>2026-05-03T10:02:38.89Z</time></trkpt><trkpt lat="45.9590113" lon="9.2511665"><ele>582.0</ele><time>2026-05-03T10:02:39.896Z</time></trkpt><trkpt lat="45.959136" lon="9.2509598"><ele>576.3333333333334</ele><time>2026-05-03T10:02:40.899Z</time></trkpt><trkpt lat="45.9592553" lon="9.2507407"><ele>570.6666666666667</ele><time>2026-05-03T10:02:41.899Z</time></trkpt><trkpt lat="45.9593794" lon="9.250541"><ele>565.0</ele><time>2026-05-03T10:02:42.884Z</time></trkpt><trkpt lat="45.9595184" lon="9.2503766"><ele>556.6666666666667</ele><time>2026-05-03T10:02:43.903Z</time></trkpt><trkpt lat="45.9596659" lon="9.2502406"><ele>548.3333333333334</ele><time>2026-05-03T10:02:44.895Z</time></trkpt><trkpt lat="45.9598052" lon="9.2501188"><ele>540.0</ele><time>2026-05-03T10:02:45.886Z</time></trkpt><trkpt lat="45.9599461" lon="9.250003"><ele>539.0</ele><time>2026-05-03T10:02:46.898Z</time></trkpt><trkpt lat="45.9600929" lon="9.2499109"><ele>538.0</ele><time>2026-05-03T10:02:47.896Z</time></trkpt><trkpt lat="45.9602597" lon="9.2498603"><ele>537.0</ele><time>2026-05-03T10:02:48.905Z</time></trkpt><trkpt lat="45.9604236" lon="9.2498208"><ele>537.0</ele><time>2026-05-03T10:02:49.889Z</time></trkpt><trkpt lat="45.9605837" lon="9.2497924"><ele>537.0</ele><time>2026-05-03T10:02:50.894Z</time></trkpt><trkpt lat="45.9607416" lon="9.2497836"><ele>537.0</ele><time>2026-05-03T10:02:51.894Z</time></trkpt><trkpt lat="45.960901" lon="9.2497986"><ele>530.6666666666666</ele><time>2026-05-03T10:02:52.892Z</time></trkpt><trkpt lat="45.9610662" lon="9.2498332"><ele>524.3333333333333</ele><time>2026-05-03T10:02:53.894Z</time></trkpt><trkpt lat="45.9612336" lon="9.2498813"><ele>518.0</ele><time>2026-05-03T10:02:54.894Z</time></trkpt><trkpt lat="45.9614113" lon="9.2499552"><ele>518.0</ele><time>2026-05-03T10:02:55.901Z</time></trkpt><trkpt lat="45.9615774" lon="9.2500322"><ele>518.0</ele><time>2026-05-03T10:02:56.885Z</time></trkpt><trkpt lat="45.9617241" lon="9.2501099"><ele>518.0</ele><time>2026-05-03T10:02:57.905Z</time></trkpt><trkpt lat="45.9618514" lon="9.2501891"><ele>514.5</ele><time>2026-05-03T10:02:58.881Z</time></trkpt><trkpt lat="45.9619665" lon="9.2502799"><ele>511.0</ele><time>2026-05-03T10:02:59.885Z</time></trkpt><trkpt lat="45.9620866" lon="9.2503656"><ele>507.5</ele><time>2026-05-03T10:03:00.894Z</time></trkpt><trkpt lat="45.9621768" lon="9.2505445"><ele>504.0</ele><time>2026-05-03T10:03:01.898Z</time></trkpt><trkpt lat="45.9622452" lon="9.2507124"><ele>504.0</ele><time>2026-05-03T10:03:02.89Z</time></trkpt><trkpt lat="45.9623193" lon="9.2508322"><ele>504.0</ele><time>2026-05-03T10:03:03.905Z</time></trkpt><trkpt lat="45.9623709" lon="9.2509737"><ele>504.0</ele><time>2026-05-03T10:03:04.895Z</time></trkpt><trkpt lat="45.9623896" lon="9.2511217"><ele>504.0</ele><time>2026-05-03T10:03:05.899Z</time></trkpt><trkpt lat="45.962365" lon="9.2512648"><ele>504.0</ele><time>2026-05-03T10:03:06.894Z</time></trkpt><trkpt lat="45.9623296" lon="9.2514102"><ele>503.5</ele><time>2026-05-03T10:03:07.902Z</time></trkpt><trkpt lat="45.9623176" lon="9.2515649"><ele>503.0</ele><time>2026-05-03T10:03:08.911Z</time></trkpt><trkpt lat="45.9623206" lon="9.2517248"><ele>502.5</ele><time>2026-05-03T10:03:09.898Z</time></trkpt><trkpt lat="45.9623759" lon="9.251875"><ele>502.0</ele><time>2026-05-03T10:03:10.898Z</time></trkpt><trkpt lat="45.9624474" lon="9.2520387"><ele>502.0</ele><time>2026-05-03T10:03:11.895Z</time></trkpt><trkpt lat="45.9624778" lon="9.2522034"><ele>502.0</ele><time>2026-05-03T10:03:12.886Z</time></trkpt><trkpt lat="45.9625253" lon="9.2523585"><ele>502.0</ele><time>2026-05-03T10:03:13.888Z</time></trkpt><trkpt lat="45.9625766" lon="9.2525166"><ele>502.0</ele><time>2026-05-03T10:03:14.912Z</time></trkpt><trkpt lat="45.9626703" lon="9.2526478"><ele>496.40000000000003</ele><time>2026-05-03T10:03:15.9Z</time></trkpt><trkpt lat="45.962725" lon="9.2527692"><ele>490.80000000000007</ele><time>2026-05-03T10:03:16.894Z</time></trkpt><trkpt lat="45.9627581" lon="9.2528731"><ele>485.2</ele><time>2026-05-03T10:03:17.902Z</time></trkpt><trkpt lat="45.9628099" lon="9.2529648"><ele>479.6</ele><time>2026-05-03T10:03:19.891Z</time></trkpt><trkpt lat="45.9628613" lon="9.2528335"><ele>474.0</ele><time>2026-05-03T10:03:22.894Z</time></trkpt><trkpt lat="45.9628385" lon="9.252694"><ele>474.0</ele><time>2026-05-03T10:03:23.892Z</time></trkpt><trkpt lat="45.9627765" lon="9.2525329"><ele>474.0</ele><time>2026-05-03T10:03:24.895Z</time></trkpt><trkpt lat="45.9627146" lon="9.2523495"><ele>474.0</ele><time>2026-05-03T10:03:25.886Z</time></trkpt><trkpt lat="45.9626819" lon="9.2521775"><ele>474.0</ele><time>2026-05-03T10:03:26.89Z</time></trkpt><trkpt lat="45.9626873" lon="9.2519992"><ele>474.0</ele><time>2026-05-03T10:03:27.905Z</time></trkpt><trkpt lat="45.9627352" lon="9.2518425"><ele>474.0</ele><time>2026-05-03T10:03:28.899Z</time></trkpt><trkpt lat="45.9627723" lon="9.2516939"><ele>474.0</ele><time>2026-05-03T10:03:29.886Z</time></trkpt><trkpt lat="45.9627661" lon="9.2515449"><ele>474.0</ele><time>2026-05-03T10:03:30.894Z</time></trkpt><trkpt lat="45.9627595" lon="9.2514036"><ele>474.0</ele><time>2026-05-03T10:03:31.892Z</time></trkpt><trkpt lat="45.9627068" lon="9.251307"><ele>474.0</ele><time>2026-05-03T10:03:32.89Z</time></trkpt><trkpt lat="45.9627131" lon="9.2511692"><ele>474.0</ele><time>2026-05-03T10:03:34.898Z</time></trkpt><trkpt lat="45.962806" lon="9.2511899"><ele>474.0</ele><time>2026-05-03T10:03:36.884Z</time></trkpt><trkpt lat="45.9628217" lon="9.2513165"><ele>474.0</ele><time>2026-05-03T10:03:37.893Z</time></trkpt><trkpt lat="45.9628372" lon="9.2514761"><ele>474.0</ele><time>2026-05-03T10:03:38.893Z</time></trkpt><trkpt lat="45.9628714" lon="9.2516653"><ele>474.0</ele><time>2026-05-03T10:03:39.894Z</time></trkpt><trkpt lat="45.9629205" lon="9.2518697"><ele>474.0</ele><time>2026-05-03T10:03:40.89Z</time></trkpt><trkpt lat="45.9629792" lon="9.2520579"><ele>474.0</ele><time>2026-05-03T10:03:41.896Z</time></trkpt><trkpt lat="45.9630403" lon="9.2522217"><ele>474.0</ele><time>2026-05-03T10:03:42.893Z</time></trkpt><trkpt lat="45.9630973" lon="9.2523768"><ele>474.0</ele><time>2026-05-03T10:03:43.889Z</time></trkpt><trkpt lat="45.9631602" lon="9.2525003"><ele>474.0</ele><time>2026-05-03T10:03:44.897Z</time></trkpt><trkpt lat="45.9632366" lon="9.2525714"><ele>474.0</ele><time>2026-05-03T10:03:45.892Z</time></trkpt><trkpt lat="45.9633281" lon="9.2525859"><ele>474.0</ele><time>2026-05-03T10:03:46.9Z</time></trkpt><trkpt lat="45.9634358" lon="9.252539"><ele>474.0</ele><time>2026-05-03T10:03:47.899Z</time></trkpt><trkpt lat="45.9635022" lon="9.2525221"><ele>471.0</ele><time>2026-05-03T10:03:48.909Z</time></trkpt><trkpt lat="45.9635851" lon="9.2526063"><ele>468.0</ele><time>2026-05-03T10:03:50.895Z</time></trkpt><trkpt lat="45.9635739" lon="9.2527147"><ele>465.0</ele><time>2026-05-03T10:03:51.898Z</time></trkpt><trkpt lat="45.9635244" lon="9.2528166"><ele>462.0</ele><time>2026-05-03T10:03:52.889Z</time></trkpt><trkpt lat="45.9634666" lon="9.2529206"><ele>459.0</ele><time>2026-05-03T10:03:53.882Z</time></trkpt><trkpt lat="45.9634362" lon="9.2530447"><ele>456.0</ele><time>2026-05-03T10:03:54.878Z</time></trkpt><trkpt lat="45.9634372" lon="9.2531738"><ele>456.0</ele><time>2026-05-03T10:03:55.896Z</time></trkpt><trkpt lat="45.963499" lon="9.2532751"><ele>456.0</ele><time>2026-05-03T10:03:56.895Z</time></trkpt><trkpt lat="45.9636044" lon="9.2533333"><ele>456.0</ele><time>2026-05-03T10:03:57.899Z</time></trkpt><trkpt lat="45.9637238" lon="9.253324"><ele>456.0</ele><time>2026-05-03T10:03:58.9Z</time></trkpt><trkpt lat="45.9638445" lon="9.2533234"><ele>456.0</ele><time>2026-05-03T10:03:59.897Z</time></trkpt><trkpt lat="45.9639547" lon="9.2533373"><ele>456.0</ele><time>2026-05-03T10:04:00.897Z</time></trkpt><trkpt lat="45.9640524" lon="9.2533874"><ele>456.0</ele><time>2026-05-03T10:04:01.902Z</time></trkpt><trkpt lat="45.9641004" lon="9.2535118"><ele>456.0</ele><time>2026-05-03T10:04:02.895Z</time></trkpt><trkpt lat="45.9641405" lon="9.2536612"><ele>456.0</ele><time>2026-05-03T10:04:03.909Z</time></trkpt><trkpt lat="45.964178" lon="9.2538104"><ele>456.0</ele><time>2026-05-03T10:04:04.896Z</time></trkpt><trkpt lat="45.9642195" lon="9.2539662"><ele>451.25</ele><time>2026-05-03T10:04:05.888Z</time></trkpt><trkpt lat="45.9643218" lon="9.2540883"><ele>446.5</ele><time>2026-05-03T10:04:06.897Z</time></trkpt><trkpt lat="45.9644635" lon="9.2541705"><ele>441.75</ele><time>2026-05-03T10:04:07.902Z</time></trkpt><trkpt lat="45.9646194" lon="9.2542265"><ele>437.0</ele><time>2026-05-03T10:04:08.898Z</time></trkpt><trkpt lat="45.9647745" lon="9.2542702"><ele>437.0</ele><time>2026-05-03T10:04:09.895Z</time></trkpt><trkpt lat="45.9649177" lon="9.2543265"><ele>437.0</ele><time>2026-05-03T10:04:10.896Z</time></trkpt><trkpt lat="45.9650435" lon="9.254367"><ele>437.0</ele><time>2026-05-03T10:04:11.895Z</time></trkpt><trkpt lat="45.9651396" lon="9.2544193"><ele>437.0</ele><time>2026-05-03T10:04:12.893Z</time></trkpt><trkpt lat="45.96522" lon="9.2544921"><ele>433.0</ele><time>2026-05-03T10:04:13.895Z</time></trkpt><trkpt lat="45.9652798" lon="9.2546419"><ele>429.0</ele><time>2026-05-03T10:04:14.897Z</time></trkpt><trkpt lat="45.9653092" lon="9.2548347"><ele>425.0</ele><time>2026-05-03T10:04:15.889Z</time></trkpt><trkpt lat="45.9653671" lon="9.254992"><ele>421.0</ele><time>2026-05-03T10:04:16.899Z</time></trkpt><trkpt lat="45.9654591" lon="9.2551092"><ele>421.0</ele><time>2026-05-03T10:04:17.897Z</time></trkpt><trkpt lat="45.9655529" lon="9.2552197"><ele>421.0</ele><time>2026-05-03T10:04:18.889Z</time></trkpt><trkpt lat="45.9656472" lon="9.255337"><ele>421.0</ele><time>2026-05-03T10:04:19.901Z</time></trkpt><trkpt lat="45.9657069" lon="9.2554256"><ele>421.0</ele><time>2026-05-03T10:04:20.905Z</time></trkpt><trkpt lat="45.9658301" lon="9.2554578"><ele>421.0</ele><time>2026-05-03T10:04:22.903Z</time></trkpt><trkpt lat="45.9658744" lon="9.2553928"><ele>421.0</ele><time>2026-05-03T10:04:23.903Z</time></trkpt><trkpt lat="45.9658302" lon="9.2552007"><ele>421.0</ele><time>2026-05-03T10:04:25.89Z</time></trkpt><trkpt lat="45.965748" lon="9.2550546"><ele>421.0</ele><time>2026-05-03T10:04:26.893Z</time></trkpt><trkpt lat="45.9656518" lon="9.254881"><ele>419.0</ele><time>2026-05-03T10:04:27.897Z</time></trkpt><trkpt lat="45.9655792" lon="9.2546722"><ele>417.0</ele><time>2026-05-03T10:04:28.892Z</time></trkpt><trkpt lat="45.9655529" lon="9.2545074"><ele>415.0</ele><time>2026-05-03T10:04:29.902Z</time></trkpt><trkpt lat="45.9655311" lon="9.2543863"><ele>413.0</ele><time>2026-05-03T10:04:30.895Z</time></trkpt><trkpt lat="45.9655179" lon="9.2542595"><ele>413.0</ele><time>2026-05-03T10:04:32.901Z</time></trkpt><trkpt lat="45.9656724" lon="9.2542665"><ele>413.0</ele><time>2026-05-03T10:04:35.89Z</time></trkpt><trkpt lat="45.9657618" lon="9.254333"><ele>413.0</ele><time>2026-05-03T10:04:36.89Z</time></trkpt><trkpt lat="45.9658365" lon="9.2544194"><ele>413.0</ele><time>2026-05-03T10:04:37.886Z</time></trkpt><trkpt lat="45.9658444" lon="9.2545568"><ele>413.0</ele><time>2026-05-03T10:04:38.899Z</time></trkpt><trkpt lat="45.9658047" lon="9.2546712"><ele>414.59999999999997</ele><time>2026-05-03T10:04:39.891Z</time></trkpt><trkpt lat="45.9657924" lon="9.2548158"><ele>416.2</ele><time>2026-05-03T10:04:40.899Z</time></trkpt><trkpt lat="45.9658282" lon="9.2549429"><ele>417.8</ele><time>2026-05-03T10:04:41.892Z</time></trkpt><trkpt lat="45.9658985" lon="9.2550186"><ele>419.4</ele><time>2026-05-03T10:04:42.895Z</time></trkpt><trkpt lat="45.9659812" lon="9.2550843"><ele>421.0</ele><time>2026-05-03T10:04:43.895Z</time></trkpt><trkpt lat="45.9660378" lon="9.255161"><ele>418.0</ele><time>2026-05-03T10:04:44.887Z</time></trkpt><trkpt lat="45.9660931" lon="9.2552057"><ele>415.0</ele><time>2026-05-03T10:04:45.904Z</time></trkpt><trkpt lat="45.96617" lon="9.2551606"><ele>412.0</ele><time>2026-05-03T10:04:47.891Z</time></trkpt><trkpt lat="45.9661218" lon="9.2549694"><ele>409.0</ele><time>2026-05-03T10:04:49.897Z</time></trkpt><trkpt lat="45.9660617" lon="9.2548654"><ele>406.0</ele><time>2026-05-03T10:04:50.892Z</time></trkpt><trkpt lat="45.9660178" lon="9.2547418"><ele>406.00000000000006</ele><time>2026-05-03T10:04:51.896Z</time></trkpt><trkpt lat="45.9660047" lon="9.2546226"><ele>406.0</ele><time>2026-05-03T10:04:52.892Z</time></trkpt><trkpt lat="45.9660185" lon="9.254525"><ele>406.0</ele><time>2026-05-03T10:04:53.901Z</time></trkpt><trkpt lat="45.966064" lon="9.2544422"><ele>406.0</ele><time>2026-05-03T10:04:54.896Z</time></trkpt><trkpt lat="45.966131" lon="9.2543647"><ele>406.00000000000006</ele><time>2026-05-03T10:04:55.9Z</time></trkpt><trkpt lat="45.9662012" lon="9.2542682"><ele>406.0</ele><time>2026-05-03T10:04:56.895Z</time></trkpt><trkpt lat="45.9662551" lon="9.2541596"><ele>406.0</ele><time>2026-05-03T10:04:57.894Z</time></trkpt><trkpt lat="45.9662954" lon="9.2540541"><ele>406.0</ele><time>2026-05-03T10:04:58.888Z</time></trkpt><trkpt lat="45.9663184" lon="9.2539126"><ele>406.0</ele><time>2026-05-03T10:04:59.898Z</time></trkpt><trkpt lat="45.9663039" lon="9.2537153"><ele>406.0</ele><time>2026-05-03T10:05:00.9Z</time></trkpt><trkpt lat="45.9662676" lon="9.2535442"><ele>406.0</ele><time>2026-05-03T10:05:01.899Z</time></trkpt><trkpt lat="45.9662592" lon="9.2533798"><ele>403.1666666666667</ele><time>2026-05-03T10:05:02.902Z</time></trkpt><trkpt lat="45.9662486" lon="9.2532347"><ele>400.33333333333337</ele><time>2026-05-03T10:05:03.894Z</time></trkpt><trkpt lat="45.9662128" lon="9.2531469"><ele>397.5</ele><time>2026-05-03T10:05:04.9Z</time></trkpt><trkpt lat="45.9661605" lon="9.2530761"><ele>394.66666666666663</ele><time>2026-05-03T10:05:05.892Z</time></trkpt><trkpt lat="45.9660566" lon="9.2530585"><ele>391.8333333333333</ele><time>2026-05-03T10:05:06.892Z</time></trkpt><trkpt lat="45.9659631" lon="9.2530855"><ele>389.0</ele><time>2026-05-03T10:05:07.9Z</time></trkpt><trkpt lat="45.9658699" lon="9.2530699"><ele>386.79999999999995</ele><time>2026-05-03T10:05:09.901Z</time></trkpt><trkpt lat="45.9659344" lon="9.2529669"><ele>384.59999999999997</ele><time>2026-05-03T10:05:11.89Z</time></trkpt><trkpt lat="45.9660455" lon="9.2529556"><ele>382.4</ele><time>2026-05-03T10:05:13.901Z</time></trkpt><trkpt lat="45.9661279" lon="9.2529742"><ele>380.2</ele><time>2026-05-03T10:05:14.889Z</time></trkpt><trkpt lat="45.966225" lon="9.2529756"><ele>378.0</ele><time>2026-05-03T10:05:15.894Z</time></trkpt><trkpt lat="45.9663417" lon="9.2529679"><ele>378.0</ele><time>2026-05-03T10:05:16.885Z</time></trkpt><trkpt lat="45.966471" lon="9.2529501"><ele>378.0</ele><time>2026-05-03T10:05:17.901Z</time></trkpt><trkpt lat="45.9666161" lon="9.252916"><ele>378.0</ele><time>2026-05-03T10:05:18.886Z</time></trkpt><trkpt lat="45.9667619" lon="9.2528643"><ele>378.0</ele><time>2026-05-03T10:05:19.883Z</time></trkpt><trkpt lat="45.9669081" lon="9.2528025"><ele>376.25</ele><time>2026-05-03T10:05:20.898Z</time></trkpt><trkpt lat="45.9670497" lon="9.2527483"><ele>374.5</ele><time>2026-05-03T10:05:21.895Z</time></trkpt><trkpt lat="45.9671819" lon="9.2527087"><ele>372.75</ele><time>2026-05-03T10:05:22.897Z</time></trkpt><trkpt lat="45.9673" lon="9.2526729"><ele>371.0</ele><time>2026-05-03T10:05:23.897Z</time></trkpt><trkpt lat="45.9673914" lon="9.2526743"><ele>371.0</ele><time>2026-05-03T10:05:24.898Z</time></trkpt><trkpt lat="45.9674724" lon="9.2527082"><ele>371.0</ele><time>2026-05-03T10:05:25.895Z</time></trkpt><trkpt lat="45.9675511" lon="9.2527708"><ele>371.0</ele><time>2026-05-03T10:05:26.898Z</time></trkpt><trkpt lat="45.9676335" lon="9.2529089"><ele>371.0</ele><time>2026-05-03T10:05:27.888Z</time></trkpt><trkpt lat="45.9677174" lon="9.2530365"><ele>371.0</ele><time>2026-05-03T10:05:28.886Z</time></trkpt><trkpt lat="45.9678242" lon="9.2531182"><ele>367.6</ele><time>2026-05-03T10:05:29.904Z</time></trkpt><trkpt lat="45.9679163" lon="9.2532043"><ele>364.20000000000005</ele><time>2026-05-03T10:05:30.887Z</time></trkpt><trkpt lat="45.9680035" lon="9.2532836"><ele>360.79999999999995</ele><time>2026-05-03T10:05:31.901Z</time></trkpt><trkpt lat="45.9680866" lon="9.2533509"><ele>357.4</ele><time>2026-05-03T10:05:32.901Z</time></trkpt><trkpt lat="45.9681709" lon="9.2534213"><ele>354.0</ele><time>2026-05-03T10:05:33.904Z</time></trkpt><trkpt lat="45.968243" lon="9.2534994"><ele>354.0</ele><time>2026-05-03T10:05:34.885Z</time></trkpt><trkpt lat="45.968311" lon="9.2535888"><ele>354.0</ele><time>2026-05-03T10:05:35.901Z</time></trkpt><trkpt lat="45.9683835" lon="9.25368"><ele>354.0</ele><time>2026-05-03T10:05:36.898Z</time></trkpt><trkpt lat="45.9684549" lon="9.2537514"><ele>354.0</ele><time>2026-05-03T10:05:37.883Z</time></trkpt><trkpt lat="45.9685429" lon="9.2537892"><ele>354.0</ele><time>2026-05-03T10:05:38.897Z</time></trkpt><trkpt lat="45.9686627" lon="9.2538053"><ele>349.75</ele><time>2026-05-03T10:05:39.896Z</time></trkpt><trkpt lat="45.9687728" lon="9.2538573"><ele>345.5</ele><time>2026-05-03T10:05:40.893Z</time></trkpt><trkpt lat="45.9688708" lon="9.2539762"><ele>341.25</ele><time>2026-05-03T10:05:41.899Z</time></trkpt><trkpt lat="45.968955" lon="9.2541256"><ele>337.0</ele><time>2026-05-03T10:05:42.903Z</time></trkpt><trkpt lat="45.9690051" lon="9.2542897"><ele>337.0</ele><time>2026-05-03T10:05:43.904Z</time></trkpt><trkpt lat="45.9690263" lon="9.2544528"><ele>337.0</ele><time>2026-05-03T10:05:44.9Z</time></trkpt><trkpt lat="45.9690214" lon="9.2546099"><ele>337.0</ele><time>2026-05-03T10:05:45.886Z</time></trkpt><trkpt lat="45.9690178" lon="9.2547489"><ele>337.0</ele><time>2026-05-03T10:05:46.894Z</time></trkpt><trkpt lat="45.9689992" lon="9.2548649"><ele>337.0</ele><time>2026-05-03T10:05:47.892Z</time></trkpt><trkpt lat="45.9690117" lon="9.2549771"><ele>336.6</ele><time>2026-05-03T10:05:48.898Z</time></trkpt><trkpt lat="45.9690598" lon="9.2550559"><ele>336.20000000000005</ele><time>2026-05-03T10:05:49.881Z</time></trkpt><trkpt lat="45.969137" lon="9.2550808"><ele>335.8</ele><time>2026-05-03T10:05:50.901Z</time></trkpt><trkpt lat="45.9692316" lon="9.255094"><ele>335.4</ele><time>2026-05-03T10:05:51.899Z</time></trkpt><trkpt lat="45.9693425" lon="9.2550585"><ele>335.0</ele><time>2026-05-03T10:05:52.897Z</time></trkpt><trkpt lat="45.9694694" lon="9.2550668"><ele>333.0</ele><time>2026-05-03T10:05:53.894Z</time></trkpt><trkpt lat="45.9695917" lon="9.255096"><ele>331.0</ele><time>2026-05-03T10:05:54.909Z</time></trkpt><trkpt lat="45.9697025" lon="9.2551378"><ele>329.0</ele><time>2026-05-03T10:05:55.89Z</time></trkpt><trkpt lat="45.9698059" lon="9.2552641"><ele>327.0</ele><time>2026-05-03T10:05:56.899Z</time></trkpt><trkpt lat="45.9699226" lon="9.2553857"><ele>325.0</ele><time>2026-05-03T10:05:57.898Z</time></trkpt><trkpt lat="45.9700331" lon="9.2555053"><ele>323.0</ele><time>2026-05-03T10:05:58.898Z</time></trkpt><trkpt lat="45.9701275" lon="9.2556342"><ele>321.0</ele><time>2026-05-03T10:05:59.894Z</time></trkpt><trkpt lat="45.9702039" lon="9.255777"><ele>319.0</ele><time>2026-05-03T10:06:00.883Z</time></trkpt><trkpt lat="45.9702619" lon="9.2559252"><ele>317.75</ele><time>2026-05-03T10:06:01.901Z</time></trkpt><trkpt lat="45.9703094" lon="9.2560784"><ele>316.5</ele><time>2026-05-03T10:06:02.884Z</time></trkpt><trkpt lat="45.970316" lon="9.2562396"><ele>315.25</ele><time>2026-05-03T10:06:03.894Z</time></trkpt><trkpt lat="45.9703102" lon="9.2564055"><ele>314.0</ele><time>2026-05-03T10:06:04.903Z</time></trkpt><trkpt lat="45.9702893" lon="9.2565957"><ele>312.33333333333337</ele><time>2026-05-03T10:06:05.893Z</time></trkpt><trkpt lat="45.9702466" lon="9.2568438"><ele>310.6666666666667</ele><time>2026-05-03T10:06:06.89Z</time></trkpt><trkpt lat="45.9702013" lon="9.2570964"><ele>309.0</ele><time>2026-05-03T10:06:07.899Z</time></trkpt><trkpt lat="45.9701662" lon="9.2573346"><ele>308.75</ele><time>2026-05-03T10:06:08.899Z</time></trkpt><trkpt lat="45.9701397" lon="9.257546"><ele>308.5</ele><time>2026-05-03T10:06:09.904Z</time></trkpt><trkpt lat="45.9701216" lon="9.2577357"><ele>308.25</ele><time>2026-05-03T10:06:10.9Z</time></trkpt><trkpt lat="45.9701137" lon="9.2579176"><ele>308.0</ele><time>2026-05-03T10:06:11.891Z</time></trkpt><trkpt lat="45.9701367" lon="9.2580684"><ele>307.6</ele><time>2026-05-03T10:06:12.893Z</time></trkpt><trkpt lat="45.9701636" lon="9.2582186"><ele>307.20000000000005</ele><time>2026-05-03T10:06:13.894Z</time></trkpt><trkpt lat="45.9702171" lon="9.2583689"><ele>306.8</ele><time>2026-05-03T10:06:14.895Z</time></trkpt><trkpt lat="45.9702838" lon="9.2584914"><ele>306.40000000000003</ele><time>2026-05-03T10:06:15.891Z</time></trkpt><trkpt lat="45.9703713" lon="9.2585794"><ele>306.0</ele><time>2026-05-03T10:06:16.902Z</time></trkpt><trkpt lat="45.9704808" lon="9.2586192"><ele>306.0</ele><time>2026-05-03T10:06:17.89Z</time></trkpt><trkpt lat="45.9706294" lon="9.2586171"><ele>306.0</ele><time>2026-05-03T10:06:18.89Z</time></trkpt><trkpt lat="45.9707821" lon="9.2586031"><ele>306.0</ele><time>2026-05-03T10:06:19.9Z</time></trkpt><trkpt lat="45.9709447" lon="9.2585865"><ele>303.75</ele><time>2026-05-03T10:06:20.88Z</time></trkpt><trkpt lat="45.9710849" lon="9.2585758"><ele>301.5</ele><time>2026-05-03T10:06:21.898Z</time></trkpt><trkpt lat="45.9712179" lon="9.2585819"><ele>299.25</ele><time>2026-05-03T10:06:22.898Z</time></trkpt><trkpt lat="45.971347" lon="9.2586374"><ele>297.0</ele><time>2026-05-03T10:06:23.892Z</time></trkpt><trkpt lat="45.9714685" lon="9.2587654"><ele>297.0</ele><time>2026-05-03T10:06:24.885Z</time></trkpt><trkpt lat="45.9715961" lon="9.2589045"><ele>297.0</ele><time>2026-05-03T10:06:25.897Z</time></trkpt><trkpt lat="45.9717231" lon="9.259062"><ele>297.0</ele><time>2026-05-03T10:06:26.901Z</time></trkpt><trkpt lat="45.9718528" lon="9.2592172"><ele>293.6666666666667</ele><time>2026-05-03T10:06:27.903Z</time></trkpt><trkpt lat="45.9719673" lon="9.2593704"><ele>290.33333333333337</ele><time>2026-05-03T10:06:28.9Z</time></trkpt><trkpt lat="45.9720645" lon="9.2595452"><ele>287.0</ele><time>2026-05-03T10:06:29.883Z</time></trkpt><trkpt lat="45.9721397" lon="9.2597255"><ele>286.6</ele><time>2026-05-03T10:06:30.908Z</time></trkpt><trkpt lat="45.972208" lon="9.2598964"><ele>286.2</ele><time>2026-05-03T10:06:31.906Z</time></trkpt><trkpt lat="45.9722697" lon="9.2600369"><ele>285.8</ele><time>2026-05-03T10:06:32.876Z</time></trkpt><trkpt lat="45.9723192" lon="9.2601515"><ele>285.4</ele><time>2026-05-03T10:06:33.9Z</time></trkpt><trkpt lat="45.9723531" lon="9.2602474"><ele>285.0</ele><time>2026-05-03T10:06:34.896Z</time></trkpt><trkpt lat="45.9723823" lon="9.2603464"><ele>285.0</ele><time>2026-05-03T10:06:35.903Z</time></trkpt><trkpt lat="45.9724083" lon="9.2604406"><ele>285.0</ele><time>2026-05-03T10:06:36.898Z</time></trkpt><trkpt lat="45.9724554" lon="9.2605053"><ele>285.0</ele><time>2026-05-03T10:06:37.892Z</time></trkpt><trkpt lat="45.9725796" lon="9.2605128"><ele>285.0</ele><time>2026-05-03T10:06:39.895Z</time></trkpt><trkpt lat="45.9726436" lon="9.2605075"><ele>285.0</ele><time>2026-05-03T10:06:40.898Z</time></trkpt><trkpt lat="45.9727155" lon="9.26056"><ele>285.0</ele><time>2026-05-03T10:06:41.899Z</time></trkpt><trkpt lat="45.9727887" lon="9.2606203"><ele>281.25</ele><time>2026-05-03T10:06:42.896Z</time></trkpt><trkpt lat="45.9728797" lon="9.2607315"><ele>277.5</ele><time>2026-05-03T10:06:43.906Z</time></trkpt><trkpt lat="45.9729688" lon="9.2608625"><ele>273.75</ele><time>2026-05-03T10:06:44.892Z</time></trkpt><trkpt lat="45.9730397" lon="9.2609765"><ele>270.0</ele><time>2026-05-03T10:06:45.895Z</time></trkpt><trkpt lat="45.9731259" lon="9.2610669"><ele>270.0</ele><time>2026-05-03T10:06:46.897Z</time></trkpt><trkpt lat="45.9732265" lon="9.2611243"><ele>270.0</ele><time>2026-05-03T10:06:47.883Z</time></trkpt><trkpt lat="45.9733228" lon="9.2611494"><ele>270.0</ele><time>2026-05-03T10:06:48.9Z</time></trkpt><trkpt lat="45.9734265" lon="9.2611463"><ele>270.0</ele><time>2026-05-03T10:06:49.899Z</time></trkpt><trkpt lat="45.9735238" lon="9.261109"><ele>270.0</ele><time>2026-05-03T10:06:50.893Z</time></trkpt><trkpt lat="45.9736221" lon="9.2610314"><ele>268.5</ele><time>2026-05-03T10:06:51.9Z</time></trkpt><trkpt lat="45.9737211" lon="9.2609411"><ele>267.0</ele><time>2026-05-03T10:06:52.906Z</time></trkpt><trkpt lat="45.9737891" lon="9.2607938"><ele>265.5</ele><time>2026-05-03T10:06:53.896Z</time></trkpt><trkpt lat="45.9738475" lon="9.2606225"><ele>264.0</ele><time>2026-05-03T10:06:54.895Z</time></trkpt><trkpt lat="45.9739015" lon="9.2604588"><ele>264.0</ele><time>2026-05-03T10:06:55.89Z</time></trkpt><trkpt lat="45.9739438" lon="9.260323"><ele>264.0</ele><time>2026-05-03T10:06:56.891Z</time></trkpt><trkpt lat="45.9739737" lon="9.26022"><ele>264.0</ele><time>2026-05-03T10:06:57.891Z</time></trkpt><trkpt lat="45.9740337" lon="9.2600746"><ele>264.0</ele><time>2026-05-03T10:06:59.898Z</time></trkpt><trkpt lat="45.9741354" lon="9.2600368"><ele>264.0</ele><time>2026-05-03T10:07:01.896Z</time></trkpt><trkpt lat="45.9741891" lon="9.2601104"><ele>264.0</ele><time>2026-05-03T10:07:02.877Z</time></trkpt><trkpt lat="45.9741827" lon="9.2602234"><ele>264.0</ele><time>2026-05-03T10:07:03.886Z</time></trkpt><trkpt lat="45.9741347" lon="9.2603527"><ele>264.0</ele><time>2026-05-03T10:07:04.89Z</time></trkpt><trkpt lat="45.9740823" lon="9.2604838"><ele>264.0</ele><time>2026-05-03T10:07:05.895Z</time></trkpt><trkpt lat="45.9740388" lon="9.2606066"><ele>264.0</ele><time>2026-05-03T10:07:06.896Z</time></trkpt><trkpt lat="45.9739998" lon="9.2607183"><ele>262.1666666666667</ele><time>2026-05-03T10:07:07.898Z</time></trkpt><trkpt lat="45.9739619" lon="9.2608258"><ele>260.3333333333333</ele><time>2026-05-03T10:07:08.889Z</time></trkpt><trkpt lat="45.9739282" lon="9.2609267"><ele>258.5</ele><time>2026-05-03T10:07:09.884Z</time></trkpt><trkpt lat="45.9739321" lon="9.2610289"><ele>256.66666666666663</ele><time>2026-05-03T10:07:10.899Z</time></trkpt><trkpt lat="45.9739659" lon="9.2611325"><ele>254.83333333333331</ele><time>2026-05-03T10:07:11.899Z</time></trkpt><trkpt lat="45.9740003" lon="9.2612259"><ele>253.0</ele><time>2026-05-03T10:07:12.898Z</time></trkpt><trkpt lat="45.9740703" lon="9.2612911"><ele>252.99999999999997</ele><time>2026-05-03T10:07:13.892Z</time></trkpt><trkpt lat="45.9741482" lon="9.2613277"><ele>253.0</ele><time>2026-05-03T10:07:14.883Z</time></trkpt><trkpt lat="45.9742336" lon="9.2613414"><ele>253.0</ele><time>2026-05-03T10:07:15.901Z</time></trkpt><trkpt lat="45.9743216" lon="9.2613415"><ele>253.0</ele><time>2026-05-03T10:07:16.899Z</time></trkpt><trkpt lat="45.9744067" lon="9.2613387"><ele>252.99999999999997</ele><time>2026-05-03T10:07:17.901Z</time></trkpt><trkpt lat="45.9744971" lon="9.261348"><ele>253.0</ele><time>2026-05-03T10:07:18.886Z</time></trkpt><trkpt lat="45.9745657" lon="9.2613794"><ele>251.49999999999997</ele><time>2026-05-03T10:07:19.899Z</time></trkpt><trkpt lat="45.9746371" lon="9.2614259"><ele>250.0</ele><time>2026-05-03T10:07:20.892Z</time></trkpt><trkpt lat="45.9747084" lon="9.2614861"><ele>248.5</ele><time>2026-05-03T10:07:21.898Z</time></trkpt><trkpt lat="45.9747847" lon="9.2615535"><ele>247.0</ele><time>2026-05-03T10:07:22.894Z</time></trkpt><trkpt lat="45.9748518" lon="9.2616271"><ele>245.49999999999997</ele><time>2026-05-03T10:07:23.895Z</time></trkpt><trkpt lat="45.9749175" lon="9.2617143"><ele>244.0</ele><time>2026-05-03T10:07:24.886Z</time></trkpt><trkpt lat="45.9749832" lon="9.261802"><ele>242.16666666666666</ele><time>2026-05-03T10:07:25.886Z</time></trkpt><trkpt lat="45.97505" lon="9.261887"><ele>240.33333333333331</ele><time>2026-05-03T10:07:26.897Z</time></trkpt><trkpt lat="45.975117" lon="9.2619582"><ele>238.5</ele><time>2026-05-03T10:07:27.896Z</time></trkpt><trkpt lat="45.9751838" lon="9.2620268"><ele>236.66666666666669</ele><time>2026-05-03T10:07:28.897Z</time></trkpt><trkpt lat="45.9752526" lon="9.2620853"><ele>234.83333333333334</ele><time>2026-05-03T10:07:29.899Z</time></trkpt><trkpt lat="45.9753262" lon="9.2621355"><ele>233.0</ele><time>2026-05-03T10:07:30.895Z</time></trkpt><trkpt lat="45.9754093" lon="9.2621748"><ele>233.0</ele><time>2026-05-03T10:07:31.885Z</time></trkpt><trkpt lat="45.9755013" lon="9.2622011"><ele>233.0</ele><time>2026-05-03T10:07:32.9Z</time></trkpt><trkpt lat="45.9756003" lon="9.2622201"><ele>233.0</ele><time>2026-05-03T10:07:33.903Z</time></trkpt><trkpt lat="45.9756984" lon="9.2622382"><ele>233.0</ele><time>2026-05-03T10:07:34.902Z</time></trkpt><trkpt lat="45.9757957" lon="9.2622568"><ele>233.0</ele><time>2026-05-03T10:07:35.899Z</time></trkpt><trkpt lat="45.9758929" lon="9.2622747"><ele>233.2</ele><time>2026-05-03T10:07:36.894Z</time></trkpt><trkpt lat="45.9759885" lon="9.2622935"><ele>233.4</ele><time>2026-05-03T10:07:37.898Z</time></trkpt><trkpt lat="45.9760799" lon="9.2623118"><ele>233.59999999999997</ele><time>2026-05-03T10:07:38.891Z</time></trkpt><trkpt lat="45.9761688" lon="9.26233"><ele>233.79999999999998</ele><time>2026-05-03T10:07:39.898Z</time></trkpt><trkpt lat="45.9762536" lon="9.2623465"><ele>234.0</ele><time>2026-05-03T10:07:40.895Z</time></trkpt><trkpt lat="45.9763437" lon="9.2623589"><ele>234.0</ele><time>2026-05-03T10:07:41.901Z</time></trkpt><trkpt lat="45.9764317" lon="9.2623816"><ele>234.0</ele><time>2026-05-03T10:07:42.893Z</time></trkpt><trkpt lat="45.9765138" lon="9.262403"><ele>234.0</ele><time>2026-05-03T10:07:43.903Z</time></trkpt><trkpt lat="45.9765945" lon="9.2624256"><ele>234.0</ele><time>2026-05-03T10:07:44.897Z</time></trkpt><trkpt lat="45.976679" lon="9.2624454"><ele>234.0</ele><time>2026-05-03T10:07:45.898Z</time></trkpt><trkpt lat="45.9767623" lon="9.2624652"><ele>234.0</ele><time>2026-05-03T10:07:46.893Z</time></trkpt><trkpt lat="45.9768455" lon="9.2624836"><ele>234.14285714285717</ele><time>2026-05-03T10:07:47.896Z</time></trkpt><trkpt lat="45.9769255" lon="9.262501"><ele>234.2857142857143</ele><time>2026-05-03T10:07:48.901Z</time></trkpt><trkpt lat="45.9770019" lon="9.2625145"><ele>234.42857142857144</ele><time>2026-05-03T10:07:49.906Z</time></trkpt><trkpt lat="45.977079" lon="9.2625298"><ele>234.57142857142856</ele><time>2026-05-03T10:07:50.902Z</time></trkpt><trkpt lat="45.9771527" lon="9.262545"><ele>234.7142857142857</ele><time>2026-05-03T10:07:51.898Z</time></trkpt><trkpt lat="45.9772207" lon="9.2625488"><ele>234.85714285714283</ele><time>2026-05-03T10:07:52.901Z</time></trkpt><trkpt lat="45.9772831" lon="9.2625356"><ele>235.0</ele><time>2026-05-03T10:07:53.898Z</time></trkpt><trkpt lat="45.9773519" lon="9.2624194"><ele>234.99999999999997</ele><time>2026-05-03T10:07:55.893Z</time></trkpt><trkpt lat="45.9773535" lon="9.2623277"><ele>235.0</ele><time>2026-05-03T10:07:56.902Z</time></trkpt><trkpt lat="45.9773471" lon="9.2622243"><ele>235.0</ele><time>2026-05-03T10:07:57.901Z</time></trkpt><trkpt lat="45.977341" lon="9.2621124"><ele>235.0</ele><time>2026-05-03T10:07:58.884Z</time></trkpt><trkpt lat="45.9773372" lon="9.2619927"><ele>234.99999999999997</ele><time>2026-05-03T10:07:59.908Z</time></trkpt><trkpt lat="45.9773334" lon="9.2618671"><ele>235.0</ele><time>2026-05-03T10:08:00.904Z</time></trkpt><trkpt lat="45.977328" lon="9.2617375"><ele>235.49999999999997</ele><time>2026-05-03T10:08:01.903Z</time></trkpt><trkpt lat="45.9773234" lon="9.2616056"><ele>236.0</ele><time>2026-05-03T10:08:02.902Z</time></trkpt><trkpt lat="45.9773253" lon="9.2614729"><ele>236.5</ele><time>2026-05-03T10:08:03.89Z</time></trkpt><trkpt lat="45.9773367" lon="9.2613436"><ele>237.0</ele><time>2026-05-03T10:08:04.895Z</time></trkpt><trkpt lat="45.9773562" lon="9.2612216"><ele>237.49999999999997</ele><time>2026-05-03T10:08:05.893Z</time></trkpt><trkpt lat="45.9773781" lon="9.2611043"><ele>238.0</ele><time>2026-05-03T10:08:06.896Z</time></trkpt><trkpt lat="45.9773976" lon="9.2609929"><ele>238.42857142857144</ele><time>2026-05-03T10:08:07.902Z</time></trkpt><trkpt lat="45.9774167" lon="9.2608849"><ele>238.85714285714286</ele><time>2026-05-03T10:08:08.9Z</time></trkpt><trkpt lat="45.9774369" lon="9.2607818"><ele>239.28571428571428</ele><time>2026-05-03T10:08:09.898Z</time></trkpt><trkpt lat="45.9774619" lon="9.2606902"><ele>239.71428571428572</ele><time>2026-05-03T10:08:10.899Z</time></trkpt><trkpt lat="45.9774933" lon="9.260605"><ele>240.14285714285717</ele><time>2026-05-03T10:08:11.888Z</time></trkpt><trkpt lat="45.9775316" lon="9.2605222"><ele>240.57142857142858</ele><time>2026-05-03T10:08:12.895Z</time></trkpt><trkpt lat="45.9775789" lon="9.2604454"><ele>241.0</ele><time>2026-05-03T10:08:13.896Z</time></trkpt><trkpt lat="45.9776332" lon="9.2603699"><ele>242.66666666666666</ele><time>2026-05-03T10:08:14.896Z</time></trkpt><trkpt lat="45.9776934" lon="9.2602939"><ele>244.33333333333331</ele><time>2026-05-03T10:08:15.897Z</time></trkpt><trkpt lat="45.977757" lon="9.2602137"><ele>246.0</ele><time>2026-05-03T10:08:16.899Z</time></trkpt><trkpt lat="45.9778211" lon="9.2601253"><ele>247.66666666666669</ele><time>2026-05-03T10:08:17.902Z</time></trkpt><trkpt lat="45.9778832" lon="9.2600267"><ele>249.33333333333334</ele><time>2026-05-03T10:08:18.903Z</time></trkpt><trkpt lat="45.9779436" lon="9.259918"><ele>251.0</ele><time>2026-05-03T10:08:19.902Z</time></trkpt><trkpt lat="45.9779954" lon="9.2597948"><ele>250.60000000000002</ele><time>2026-05-03T10:08:20.895Z</time></trkpt><trkpt lat="45.9780364" lon="9.2596542"><ele>250.20000000000002</ele><time>2026-05-03T10:08:21.887Z</time></trkpt><trkpt lat="45.9780754" lon="9.2595117"><ele>249.79999999999998</ele><time>2026-05-03T10:08:22.903Z</time></trkpt><trkpt lat="45.9781145" lon="9.259368"><ele>249.39999999999998</ele><time>2026-05-03T10:08:23.887Z</time></trkpt><trkpt lat="45.9781501" lon="9.259222"><ele>249.0</ele><time>2026-05-03T10:08:24.899Z</time></trkpt><trkpt lat="45.9781879" lon="9.2590728"><ele>248.39999999999998</ele><time>2026-05-03T10:08:25.897Z</time></trkpt><trkpt lat="45.9782308" lon="9.2589288"><ele>247.79999999999998</ele><time>2026-05-03T10:08:26.889Z</time></trkpt><trkpt lat="45.9782689" lon="9.2587847"><ele>247.20000000000002</ele><time>2026-05-03T10:08:27.898Z</time></trkpt><trkpt lat="45.9783026" lon="9.258647"><ele>246.60000000000002</ele><time>2026-05-03T10:08:28.894Z</time></trkpt><trkpt lat="45.9783379" lon="9.2585149"><ele>246.0</ele><time>2026-05-03T10:08:29.896Z</time></trkpt><trkpt lat="45.9783721" lon="9.2583827"><ele>247.8</ele><time>2026-05-03T10:08:30.898Z</time></trkpt><trkpt lat="45.9784069" lon="9.2582436"><ele>249.60000000000002</ele><time>2026-05-03T10:08:31.903Z</time></trkpt><trkpt lat="45.9784405" lon="9.2581028"><ele>251.4</ele><time>2026-05-03T10:08:32.9Z</time></trkpt><trkpt lat="45.9784691" lon="9.2579641"><ele>253.2</ele><time>2026-05-03T10:08:33.9Z</time></trkpt><trkpt lat="45.9784928" lon="9.2578196"><ele>255.0</ele><time>2026-05-03T10:08:34.905Z</time></trkpt><trkpt lat="45.9785176" lon="9.2576789"><ele>255.0</ele><time>2026-05-03T10:08:35.892Z</time></trkpt><trkpt lat="45.9785425" lon="9.2575412"><ele>255.0</ele><time>2026-05-03T10:08:36.901Z</time></trkpt><trkpt lat="45.9785657" lon="9.2574078"><ele>255.0</ele><time>2026-05-03T10:08:37.902Z</time></trkpt><trkpt lat="45.9785872" lon="9.2572807"><ele>255.0</ele><time>2026-05-03T10:08:38.923Z</time></trkpt><trkpt lat="45.9786076" lon="9.2571576"><ele>255.0</ele><time>2026-05-03T10:08:39.892Z</time></trkpt><trkpt lat="45.9786293" lon="9.2570323"><ele>254.6</ele><time>2026-05-03T10:08:40.879Z</time></trkpt><trkpt lat="45.9786505" lon="9.2569028"><ele>254.2</ele><time>2026-05-03T10:08:41.903Z</time></trkpt><trkpt lat="45.9786695" lon="9.2567694"><ele>253.8</ele><time>2026-05-03T10:08:42.892Z</time></trkpt><trkpt lat="45.9786859" lon="9.2566336"><ele>253.4</ele><time>2026-05-03T10:08:43.903Z</time></trkpt><trkpt lat="45.978698" lon="9.2564958"><ele>253.0</ele><time>2026-05-03T10:08:44.893Z</time></trkpt><trkpt lat="45.9787102" lon="9.2563612"><ele>252.2</ele><time>2026-05-03T10:08:45.898Z</time></trkpt><trkpt lat="45.9787198" lon="9.2562212"><ele>251.4</ele><time>2026-05-03T10:08:46.902Z</time></trkpt><trkpt lat="45.9787304" lon="9.2560815"><ele>250.59999999999997</ele><time>2026-05-03T10:08:47.906Z</time></trkpt><trkpt lat="45.978746" lon="9.2559464"><ele>249.79999999999998</ele><time>2026-05-03T10:08:48.898Z</time></trkpt><trkpt lat="45.9787624" lon="9.2558116"><ele>249.0</ele><time>2026-05-03T10:08:49.885Z</time></trkpt><trkpt lat="45.9787828" lon="9.2556706"><ele>247.2</ele><time>2026-05-03T10:08:50.899Z</time></trkpt><trkpt lat="45.9788038" lon="9.2555322"><ele>245.39999999999998</ele><time>2026-05-03T10:08:51.9Z</time></trkpt><trkpt lat="45.9788239" lon="9.2553884"><ele>243.6</ele><time>2026-05-03T10:08:52.905Z</time></trkpt><trkpt lat="45.9788468" lon="9.2552475"><ele>241.8</ele><time>2026-05-03T10:08:53.89Z</time></trkpt><trkpt lat="45.9788729" lon="9.2551056"><ele>240.0</ele><time>2026-05-03T10:08:54.9Z</time></trkpt><trkpt lat="45.9789112" lon="9.2549736"><ele>240.0</ele><time>2026-05-03T10:08:55.897Z</time></trkpt><trkpt lat="45.9789639" lon="9.2548547"><ele>240.0</ele><time>2026-05-03T10:08:56.883Z</time></trkpt><trkpt lat="45.9790296" lon="9.2547527"><ele>240.0</ele><time>2026-05-03T10:08:57.902Z</time></trkpt><trkpt lat="45.9791039" lon="9.2546707"><ele>240.0</ele><time>2026-05-03T10:08:58.888Z</time></trkpt><trkpt lat="45.9791791" lon="9.2546038"><ele>240.0</ele><time>2026-05-03T10:08:59.898Z</time></trkpt><trkpt lat="45.9792517" lon="9.254539"><ele>236.16666666666666</ele><time>2026-05-03T10:09:00.902Z</time></trkpt><trkpt lat="45.9793154" lon="9.2545038"><ele>232.33333333333331</ele><time>2026-05-03T10:09:01.901Z</time></trkpt><trkpt lat="45.979379" lon="9.2544699"><ele>228.5</ele><time>2026-05-03T10:09:02.897Z</time></trkpt><trkpt lat="45.9794417" lon="9.2544435"><ele>224.66666666666666</ele><time>2026-05-03T10:09:03.901Z</time></trkpt><trkpt lat="45.9795573" lon="9.2544323"><ele>220.83333333333331</ele><time>2026-05-03T10:09:05.902Z</time></trkpt><trkpt lat="45.9796818" lon="9.2544756"><ele>217.0</ele><time>2026-05-03T10:09:07.902Z</time></trkpt><trkpt lat="45.9797511" lon="9.2545093"><ele>216.99999999999997</ele><time>2026-05-03T10:09:08.894Z</time></trkpt><trkpt lat="45.9798207" lon="9.2545478"><ele>217.0</ele><time>2026-05-03T10:09:09.906Z</time></trkpt><trkpt lat="45.979894" lon="9.2545826"><ele>217.0</ele><time>2026-05-03T10:09:10.908Z</time></trkpt><trkpt lat="45.9799675" lon="9.2546195"><ele>217.0</ele><time>2026-05-03T10:09:11.893Z</time></trkpt><trkpt lat="45.9800432" lon="9.2546614"><ele>216.99999999999997</ele><time>2026-05-03T10:09:12.893Z</time></trkpt><trkpt lat="45.9801245" lon="9.2547119"><ele>217.0</ele><time>2026-05-03T10:09:13.894Z</time></trkpt><trkpt lat="45.9802044" lon="9.254767"><ele>219.6</ele><time>2026-05-03T10:09:14.887Z</time></trkpt><trkpt lat="45.9802872" lon="9.2548222"><ele>222.2</ele><time>2026-05-03T10:09:15.891Z</time></trkpt><trkpt lat="45.980374" lon="9.2548852"><ele>224.8</ele><time>2026-05-03T10:09:16.904Z</time></trkpt><trkpt lat="45.9804654" lon="9.2549424"><ele>227.4</ele><time>2026-05-03T10:09:17.895Z</time></trkpt><trkpt lat="45.9805511" lon="9.2550015"><ele>230.0</ele><time>2026-05-03T10:09:18.907Z</time></trkpt><trkpt lat="45.9806337" lon="9.2550599"><ele>230.0</ele><time>2026-05-03T10:09:19.897Z</time></trkpt><trkpt lat="45.9807132" lon="9.2551175"><ele>230.0</ele><time>2026-05-03T10:09:20.907Z</time></trkpt><trkpt lat="45.9807941" lon="9.2551762"><ele>230.0</ele><time>2026-05-03T10:09:21.9Z</time></trkpt><trkpt lat="45.9808739" lon="9.2552349"><ele>230.0</ele><time>2026-05-03T10:09:22.904Z</time></trkpt><trkpt lat="45.9809541" lon="9.2552923"><ele>230.0</ele><time>2026-05-03T10:09:23.896Z</time></trkpt><trkpt lat="45.9810377" lon="9.2553503"><ele>230.0</ele><time>2026-05-03T10:09:24.912Z</time></trkpt><trkpt lat="45.9811178" lon="9.255408"><ele>230.0</ele><time>2026-05-03T10:09:25.896Z</time></trkpt><trkpt lat="45.9811985" lon="9.2554705"><ele>230.0</ele><time>2026-05-03T10:09:26.9Z</time></trkpt><trkpt lat="45.9812809" lon="9.255532"><ele>230.0</ele><time>2026-05-03T10:09:27.887Z</time></trkpt><trkpt lat="45.9813653" lon="9.2555934"><ele>230.0</ele><time>2026-05-03T10:09:28.876Z</time></trkpt><trkpt lat="45.9814451" lon="9.2556661"><ele>230.0</ele><time>2026-05-03T10:09:29.893Z</time></trkpt><trkpt lat="45.9815236" lon="9.255737"><ele>230.0</ele><time>2026-05-03T10:09:30.896Z</time></trkpt><trkpt lat="45.9816016" lon="9.2558311"><ele>230.0</ele><time>2026-05-03T10:09:31.897Z</time></trkpt><trkpt lat="45.9816837" lon="9.2559247"><ele>230.0</ele><time>2026-05-03T10:09:32.922Z</time></trkpt><trkpt lat="45.9817708" lon="9.2560212"><ele>230.0</ele><time>2026-05-03T10:09:33.9Z</time></trkpt><trkpt lat="45.981852" lon="9.256116"><ele>224.4</ele><time>2026-05-03T10:09:34.889Z</time></trkpt><trkpt lat="45.9819355" lon="9.256202"><ele>218.8</ele><time>2026-05-03T10:09:35.895Z</time></trkpt><trkpt lat="45.9820315" lon="9.2562733"><ele>213.2</ele><time>2026-05-03T10:09:36.903Z</time></trkpt><trkpt lat="45.9821324" lon="9.2563281"><ele>207.6</ele><time>2026-05-03T10:09:37.888Z</time></trkpt><trkpt lat="45.9822389" lon="9.2563751"><ele>202.0</ele><time>2026-05-03T10:09:38.905Z</time></trkpt><trkpt lat="45.9823369" lon="9.2564001"><ele>201.99999999999997</ele><time>2026-05-03T10:09:39.906Z</time></trkpt><trkpt lat="45.9824173" lon="9.2564113"><ele>202.0</ele><time>2026-05-03T10:09:40.902Z</time></trkpt><trkpt lat="45.9824885" lon="9.2564222"><ele>202.0</ele><time>2026-05-03T10:09:42.884Z</time></trkpt><trkpt lat="45.9825509" lon="9.2564652"><ele>202.0</ele><time>2026-05-03T10:09:45.914Z</time></trkpt><trkpt lat="45.9826229" lon="9.2565267"><ele>201.99999999999997</ele><time>2026-05-03T10:09:48.897Z</time></trkpt><trkpt lat="45.982698" lon="9.2566041"><ele>202.0</ele><time>2026-05-03T10:09:51.917Z</time></trkpt><trkpt lat="45.9827533" lon="9.2566742"><ele>201.66666666666666</ele><time>2026-05-03T10:09:53.895Z</time></trkpt><trkpt lat="45.982817" lon="9.2567374"><ele>201.33333333333331</ele><time>2026-05-03T10:09:55.911Z</time></trkpt><trkpt lat="45.982878" lon="9.2567957"><ele>201.0</ele><time>2026-05-03T10:09:57.901Z</time></trkpt><trkpt lat="45.9829283" lon="9.256853"><ele>200.66666666666669</ele><time>2026-05-03T10:09:59.908Z</time></trkpt><trkpt lat="45.9829943" lon="9.2569322"><ele>200.33333333333334</ele><time>2026-05-03T10:10:02.881Z</time></trkpt><trkpt lat="45.9830629" lon="9.2570074"><ele>200.0</ele><time>2026-05-03T10:10:05.9Z</time></trkpt><trkpt lat="45.983119" lon="9.257068"><ele>200.00000000000003</ele><time>2026-05-03T10:10:08.897Z</time></trkpt><trkpt lat="45.9831869" lon="9.257138"><ele>200.0</ele><time>2026-05-03T10:10:11.885Z</time></trkpt><trkpt lat="45.9832424" lon="9.257181"><ele>200.0</ele><time>2026-05-03T10:10:14.899Z</time></trkpt><trkpt lat="45.9832721" lon="9.2572612"><ele>200.0</ele><time>2026-05-03T10:10:34.905Z</time></trkpt><trkpt lat="45.9833265" lon="9.2573376"><ele>200.0</ele><time>2026-05-03T10:10:37.899Z</time></trkpt><trkpt lat="45.9833793" lon="9.257434"><ele>200.00000000000003</ele><time>2026-05-03T10:11:16.891Z</time></trkpt><trkpt lat="45.983441" lon="9.2574795"><ele>200.0</ele><time>2026-05-03T10:11:20.895Z</time></trkpt><trkpt lat="45.9835119" lon="9.2575367"><ele>200.14285714285717</ele><time>2026-05-03T10:11:23.898Z</time></trkpt><trkpt lat="45.9835601" lon="9.2576021"><ele>200.28571428571428</ele><time>2026-05-03T10:11:25.905Z</time></trkpt><trkpt lat="45.9836062" lon="9.2576779"><ele>200.42857142857144</ele><time>2026-05-03T10:11:27.899Z</time></trkpt><trkpt lat="45.9836546" lon="9.2577444"><ele>200.57142857142858</ele><time>2026-05-03T10:11:29.899Z</time></trkpt><trkpt lat="45.9837005" lon="9.2578181"><ele>200.71428571428572</ele><time>2026-05-03T10:11:32.896Z</time></trkpt><trkpt lat="45.983752" lon="9.257894"><ele>200.85714285714286</ele><time>2026-05-03T10:11:35.912Z</time></trkpt><trkpt lat="45.9838049" lon="9.2579882"><ele>201.0</ele><time>2026-05-03T10:11:38.91Z</time></trkpt><trkpt lat="45.9838502" lon="9.2580818"><ele>200.83333333333334</ele><time>2026-05-03T10:11:45.9Z</time></trkpt><trkpt lat="45.9839045" lon="9.2581484"><ele>200.66666666666669</ele><time>2026-05-03T10:11:50.895Z</time></trkpt><trkpt lat="45.9839813" lon="9.2581864"><ele>200.5</ele><time>2026-05-03T10:11:53.89Z</time></trkpt><trkpt lat="45.9840614" lon="9.2582288"><ele>200.33333333333334</ele><time>2026-05-03T10:11:56.897Z</time></trkpt><trkpt lat="45.9841247" lon="9.2582762"><ele>200.16666666666669</ele><time>2026-05-03T10:12:00.898Z</time></trkpt><trkpt lat="45.9841857" lon="9.2583122"><ele>200.0</ele><time>2026-05-03T10:12:06.893Z</time></trkpt><trkpt lat="45.9842702" lon="9.2583567"><ele>200.00000000000003</ele><time>2026-05-03T10:12:11.903Z</time></trkpt><trkpt lat="45.9843467" lon="9.25841"><ele>200.0</ele><time>2026-05-03T10:12:14.898Z</time></trkpt><trkpt lat="45.9844092" lon="9.2584607"><ele>200.0</ele><time>2026-05-03T10:12:18.903Z</time></trkpt><trkpt lat="45.984476" lon="9.2585195"><ele>200.0</ele><time>2026-05-03T10:12:23.902Z</time></trkpt><trkpt lat="45.9845401" lon="9.2585908"><ele>200.00000000000003</ele><time>2026-05-03T10:12:28.899Z</time></trkpt><trkpt lat="45.9846018" lon="9.2586611"><ele>200.0</ele><time>2026-05-03T10:12:31.907Z</time></trkpt><trkpt lat="45.9846515" lon="9.2587366"><ele>200.00000000000003</ele><time>2026-05-03T10:12:34.906Z</time></trkpt><trkpt lat="45.9847069" lon="9.2588134"><ele>200.0</ele><time>2026-05-03T10:12:38.909Z</time></trkpt><trkpt lat="45.9847599" lon="9.2588999"><ele>200.0</ele><time>2026-05-03T10:14:10.921Z</time></trkpt><trkpt lat="45.984807" lon="9.2589777"><ele>200.0</ele><time>2026-05-03T10:14:15.904Z</time></trkpt><trkpt lat="45.984885" lon="9.2590998"><ele>200.00000000000003</ele><time>2026-05-03T10:14:17.914Z</time></trkpt><trkpt lat="45.9849381" lon="9.2591732"><ele>200.0</ele><time>2026-05-03T10:14:18.911Z</time></trkpt><trkpt lat="45.9849861" lon="9.2592424"><ele>199.83333333333334</ele><time>2026-05-03T10:14:19.908Z</time></trkpt><trkpt lat="45.9850333" lon="9.2593099"><ele>199.66666666666669</ele><time>2026-05-03T10:14:20.894Z</time></trkpt><trkpt lat="45.9851087" lon="9.2594223"><ele>199.5</ele><time>2026-05-03T10:14:22.906Z</time></trkpt><trkpt lat="45.985172" lon="9.2595142"><ele>199.33333333333331</ele><time>2026-05-03T10:14:24.9Z</time></trkpt><trkpt lat="45.985227" lon="9.2595949"><ele>199.16666666666666</ele><time>2026-05-03T10:14:26.908Z</time></trkpt><trkpt lat="45.9852846" lon="9.2596696"><ele>199.0</ele><time>2026-05-03T10:14:28.903Z</time></trkpt><trkpt lat="45.9853378" lon="9.259759"><ele>199.16666666666666</ele><time>2026-05-03T10:14:30.905Z</time></trkpt><trkpt lat="45.9853648" lon="9.2598691"><ele>199.33333333333331</ele><time>2026-05-03T10:14:32.912Z</time></trkpt><trkpt lat="45.9853662" lon="9.25998"><ele>199.5</ele><time>2026-05-03T10:14:34.912Z</time></trkpt><trkpt lat="45.9853354" lon="9.2600791"><ele>199.66666666666669</ele><time>2026-05-03T10:14:36.908Z</time></trkpt><trkpt lat="45.9852709" lon="9.26018"><ele>199.83333333333334</ele><time>2026-05-03T10:14:38.914Z</time></trkpt><trkpt lat="45.9852389" lon="9.2603349"><ele>200.0</ele><time>2026-05-03T10:14:40.899Z</time></trkpt><trkpt lat="45.9852756" lon="9.2604771"><ele>200.0</ele><time>2026-05-03T10:14:42.896Z</time></trkpt><trkpt lat="45.9853122" lon="9.2606202"><ele>200.0</ele><time>2026-05-03T10:14:44.896Z</time></trkpt><trkpt lat="45.9852498" lon="9.2607189"><ele>200.0</ele><time>2026-05-03T10:14:46.893Z</time></trkpt><trkpt lat="45.9851536" lon="9.2606396"><ele>200.0</ele><time>2026-05-03T10:14:48.905Z</time></trkpt><trkpt lat="45.9850796" lon="9.2605802"><ele>200.0</ele><time>2026-05-03T10:14:49.897Z</time></trkpt><trkpt lat="45.9849873" lon="9.2605007"><ele>202.4</ele><time>2026-05-03T10:14:50.907Z</time></trkpt><trkpt lat="45.9848927" lon="9.2604019"><ele>204.8</ele><time>2026-05-03T10:14:51.899Z</time></trkpt><trkpt lat="45.9848022" lon="9.2603053"><ele>207.2</ele><time>2026-05-03T10:14:52.907Z</time></trkpt><trkpt lat="45.9847239" lon="9.2602123"><ele>209.6</ele><time>2026-05-03T10:14:53.903Z</time></trkpt><trkpt lat="45.9846545" lon="9.2601164"><ele>212.0</ele><time>2026-05-03T10:14:54.906Z</time></trkpt><trkpt lat="45.98459" lon="9.2600292"><ele>212.0</ele><time>2026-05-03T10:14:55.902Z</time></trkpt><trkpt lat="45.984527" lon="9.2599654"><ele>212.0</ele><time>2026-05-03T10:14:56.902Z</time></trkpt><trkpt lat="45.9844383" lon="9.259883"><ele>212.0</ele><time>2026-05-03T10:14:58.901Z</time></trkpt><trkpt lat="45.984388" lon="9.2600539"><ele>212.0</ele><time>2026-05-03T10:15:00.899Z</time></trkpt><trkpt lat="45.9843709" lon="9.2601983"><ele>212.0</ele><time>2026-05-03T10:15:01.9Z</time></trkpt><trkpt lat="45.9843636" lon="9.260372"><ele>212.0</ele><time>2026-05-03T10:15:02.905Z</time></trkpt><trkpt lat="45.9843751" lon="9.2605345"><ele>212.0</ele><time>2026-05-03T10:15:03.903Z</time></trkpt><trkpt lat="45.9844015" lon="9.2606962"><ele>212.0</ele><time>2026-05-03T10:15:04.91Z</time></trkpt><trkpt lat="45.9844437" lon="9.2608467"><ele>212.0</ele><time>2026-05-03T10:15:05.886Z</time></trkpt><trkpt lat="45.9844857" lon="9.260996"><ele>213.39999999999998</ele><time>2026-05-03T10:15:06.901Z</time></trkpt><trkpt lat="45.9845272" lon="9.2611384"><ele>214.79999999999998</ele><time>2026-05-03T10:15:07.9Z</time></trkpt><trkpt lat="45.9845822" lon="9.2612873"><ele>216.2</ele><time>2026-05-03T10:15:08.898Z</time></trkpt><trkpt lat="45.9846318" lon="9.2614229"><ele>217.6</ele><time>2026-05-03T10:15:09.897Z</time></trkpt><trkpt lat="45.9846807" lon="9.2615333"><ele>219.0</ele><time>2026-05-03T10:15:10.902Z</time></trkpt><trkpt lat="45.9847462" lon="9.2616229"><ele>219.5</ele><time>2026-05-03T10:15:11.914Z</time></trkpt><trkpt lat="45.9848245" lon="9.2616955"><ele>220.0</ele><time>2026-05-03T10:15:12.909Z</time></trkpt><trkpt lat="45.9849122" lon="9.2617484"><ele>220.5</ele><time>2026-05-03T10:15:13.899Z</time></trkpt><trkpt lat="45.9849942" lon="9.2617969"><ele>221.0</ele><time>2026-05-03T10:15:14.901Z</time></trkpt><trkpt lat="45.9850733" lon="9.2618487"><ele>221.5</ele><time>2026-05-03T10:15:15.905Z</time></trkpt><trkpt lat="45.9851373" lon="9.2619031"><ele>222.0</ele><time>2026-05-03T10:15:16.898Z</time></trkpt><trkpt lat="45.9852134" lon="9.2620378"><ele>222.0</ele><time>2026-05-03T10:15:18.896Z</time></trkpt><trkpt lat="45.9852195" lon="9.2621865"><ele>222.0</ele><time>2026-05-03T10:15:20.904Z</time></trkpt><trkpt lat="45.9851266" lon="9.2622229"><ele>222.0</ele><time>2026-05-03T10:15:22.902Z</time></trkpt><trkpt lat="45.9850536" lon="9.2621931"><ele>222.0</ele><time>2026-05-03T10:15:23.883Z</time></trkpt><trkpt lat="45.9849575" lon="9.2621431"><ele>222.0</ele><time>2026-05-03T10:15:24.9Z</time></trkpt><trkpt lat="45.9848658" lon="9.2620905"><ele>223.33333333333334</ele><time>2026-05-03T10:15:25.902Z</time></trkpt><trkpt lat="45.9847756" lon="9.262041"><ele>224.66666666666669</ele><time>2026-05-03T10:15:26.902Z</time></trkpt><trkpt lat="45.9846869" lon="9.2619955"><ele>226.0</ele><time>2026-05-03T10:15:27.892Z</time></trkpt><trkpt lat="45.9846012" lon="9.2619491"><ele>227.33333333333334</ele><time>2026-05-03T10:15:28.907Z</time></trkpt><trkpt lat="45.9845227" lon="9.261898"><ele>228.66666666666669</ele><time>2026-05-03T10:15:29.903Z</time></trkpt><trkpt lat="45.9844538" lon="9.2618392"><ele>230.0</ele><time>2026-05-03T10:15:30.91Z</time></trkpt><trkpt lat="45.9843892" lon="9.2617691"><ele>230.00000000000003</ele><time>2026-05-03T10:15:31.901Z</time></trkpt><trkpt lat="45.9843221" lon="9.2617019"><ele>230.0</ele><time>2026-05-03T10:15:32.898Z</time></trkpt><trkpt lat="45.9842496" lon="9.2616533"><ele>230.0</ele><time>2026-05-03T10:15:33.908Z</time></trkpt><trkpt lat="45.9841697" lon="9.2616256"><ele>230.0</ele><time>2026-05-03T10:15:34.896Z</time></trkpt><trkpt lat="45.9840905" lon="9.2615981"><ele>230.00000000000003</ele><time>2026-05-03T10:15:35.901Z</time></trkpt><trkpt lat="45.9840098" lon="9.2615927"><ele>230.0</ele><time>2026-05-03T10:15:36.901Z</time></trkpt><trkpt lat="45.983934" lon="9.2616135"><ele>231.83333333333334</ele><time>2026-05-03T10:15:37.908Z</time></trkpt><trkpt lat="45.9838567" lon="9.2616462"><ele>233.66666666666669</ele><time>2026-05-03T10:15:38.897Z</time></trkpt><trkpt lat="45.9837805" lon="9.2616942"><ele>235.5</ele><time>2026-05-03T10:15:39.907Z</time></trkpt><trkpt lat="45.9836978" lon="9.2617349"><ele>237.33333333333331</ele><time>2026-05-03T10:15:40.895Z</time></trkpt><trkpt lat="45.9836113" lon="9.2617672"><ele>239.16666666666666</ele><time>2026-05-03T10:15:41.896Z</time></trkpt><trkpt lat="45.9835213" lon="9.2617795"><ele>241.0</ele><time>2026-05-03T10:15:42.9Z</time></trkpt><trkpt lat="45.9834422" lon="9.2617789"><ele>240.99999999999997</ele><time>2026-05-03T10:15:43.903Z</time></trkpt><trkpt lat="45.983372" lon="9.2617633"><ele>241.0</ele><time>2026-05-03T10:15:44.904Z</time></trkpt><trkpt lat="45.9833101" lon="9.261737"><ele>241.0</ele><time>2026-05-03T10:15:45.904Z</time></trkpt><trkpt lat="45.9832394" lon="9.2617114"><ele>241.0</ele><time>2026-05-03T10:15:46.894Z</time></trkpt><trkpt lat="45.9831746" lon="9.2616798"><ele>240.99999999999997</ele><time>2026-05-03T10:15:47.898Z</time></trkpt><trkpt lat="45.9830601" lon="9.2616199"><ele>241.0</ele><time>2026-05-03T10:15:49.909Z</time></trkpt><trkpt lat="45.9829508" lon="9.2615675"><ele>241.16666666666666</ele><time>2026-05-03T10:15:51.9Z</time></trkpt><trkpt lat="45.9828479" lon="9.261544"><ele>241.33333333333331</ele><time>2026-05-03T10:15:53.895Z</time></trkpt><trkpt lat="45.9827806" lon="9.2615445"><ele>241.5</ele><time>2026-05-03T10:15:54.908Z</time></trkpt><trkpt lat="45.9827023" lon="9.2615542"><ele>241.66666666666669</ele><time>2026-05-03T10:15:55.897Z</time></trkpt><trkpt lat="45.9826171" lon="9.2615424"><ele>241.83333333333334</ele><time>2026-05-03T10:15:56.899Z</time></trkpt><trkpt lat="45.9825499" lon="9.2615288"><ele>242.0</ele><time>2026-05-03T10:15:57.912Z</time></trkpt><trkpt lat="45.9824452" lon="9.2615228"><ele>242.0</ele><time>2026-05-03T10:15:59.897Z</time></trkpt><trkpt lat="45.9823459" lon="9.2615211"><ele>242.0</ele><time>2026-05-03T10:16:01.901Z</time></trkpt><trkpt lat="45.9822295" lon="9.2615238"><ele>242.0</ele><time>2026-05-03T10:16:03.893Z</time></trkpt><trkpt lat="45.9820978" lon="9.2615229"><ele>242.0</ele><time>2026-05-03T10:16:05.898Z</time></trkpt><trkpt lat="45.9820271" lon="9.2615136"><ele>242.0</ele><time>2026-05-03T10:16:06.891Z</time></trkpt><trkpt lat="45.981964" lon="9.2614977"><ele>242.0</ele><time>2026-05-03T10:16:07.917Z</time></trkpt><trkpt lat="45.9818578" lon="9.2614526"><ele>242.0</ele><time>2026-05-03T10:16:09.907Z</time></trkpt><trkpt lat="45.9817654" lon="9.2613869"><ele>242.0</ele><time>2026-05-03T10:16:11.907Z</time></trkpt><trkpt lat="45.9816603" lon="9.2613126"><ele>242.0</ele><time>2026-05-03T10:16:13.896Z</time></trkpt><trkpt lat="45.9815347" lon="9.2612779"><ele>241.33333333333334</ele><time>2026-05-03T10:16:15.9Z</time></trkpt><trkpt lat="45.9814617" lon="9.2612922"><ele>240.66666666666669</ele><time>2026-05-03T10:16:16.895Z</time></trkpt><trkpt lat="45.9813884" lon="9.2613238"><ele>240.0</ele><time>2026-05-03T10:16:17.91Z</time></trkpt><trkpt lat="45.9813181" lon="9.2613679"><ele>239.33333333333331</ele><time>2026-05-03T10:16:18.908Z</time></trkpt><trkpt lat="45.981249" lon="9.2614145"><ele>238.66666666666666</ele><time>2026-05-03T10:16:19.907Z</time></trkpt><trkpt lat="45.9811785" lon="9.2614572"><ele>238.0</ele><time>2026-05-03T10:16:20.904Z</time></trkpt><trkpt lat="45.9811075" lon="9.2614991"><ele>237.99999999999997</ele><time>2026-05-03T10:16:21.902Z</time></trkpt><trkpt lat="45.9810341" lon="9.2615361"><ele>238.0</ele><time>2026-05-03T10:16:22.9Z</time></trkpt><trkpt lat="45.9809619" lon="9.2615751"><ele>238.0</ele><time>2026-05-03T10:16:23.905Z</time></trkpt><trkpt lat="45.9808887" lon="9.2616115"><ele>238.0</ele><time>2026-05-03T10:16:24.895Z</time></trkpt><trkpt lat="45.9808165" lon="9.2616481"><ele>237.99999999999997</ele><time>2026-05-03T10:16:25.907Z</time></trkpt><trkpt lat="45.980747" lon="9.2616824"><ele>238.0</ele><time>2026-05-03T10:16:26.899Z</time></trkpt><trkpt lat="45.9806799" lon="9.2617136"><ele>238.83333333333331</ele><time>2026-05-03T10:16:27.902Z</time></trkpt><trkpt lat="45.9806152" lon="9.2617447"><ele>239.66666666666666</ele><time>2026-05-03T10:16:28.895Z</time></trkpt><trkpt lat="45.9805232" lon="9.2617908"><ele>240.5</ele><time>2026-05-03T10:16:30.911Z</time></trkpt><trkpt lat="45.9804533" lon="9.2618222"><ele>241.33333333333331</ele><time>2026-05-03T10:16:32.904Z</time></trkpt><trkpt lat="45.9803699" lon="9.2618687"><ele>242.16666666666666</ele><time>2026-05-03T10:16:34.9Z</time></trkpt><trkpt lat="45.980283" lon="9.2619262"><ele>243.0</ele><time>2026-05-03T10:16:36.901Z</time></trkpt><trkpt lat="45.9801924" lon="9.2619878"><ele>243.0</ele><time>2026-05-03T10:16:38.892Z</time></trkpt><trkpt lat="45.9801116" lon="9.2620569"><ele>243.0</ele><time>2026-05-03T10:16:40.908Z</time></trkpt><trkpt lat="45.9800084" lon="9.262147"><ele>243.0</ele><time>2026-05-03T10:16:42.898Z</time></trkpt><trkpt lat="45.9799477" lon="9.2621993"><ele>243.0</ele><time>2026-05-03T10:16:43.91Z</time></trkpt><trkpt lat="45.9798874" lon="9.2622528"><ele>243.0</ele><time>2026-05-03T10:16:44.907Z</time></trkpt><trkpt lat="45.979824" lon="9.2623076"><ele>243.0</ele><time>2026-05-03T10:16:45.899Z</time></trkpt><trkpt lat="45.9797614" lon="9.2623616"><ele>242.16666666666666</ele><time>2026-05-03T10:16:46.9Z</time></trkpt><trkpt lat="45.9797017" lon="9.2624146"><ele>241.33333333333331</ele><time>2026-05-03T10:16:47.92Z</time></trkpt><trkpt lat="45.9796429" lon="9.2624603"><ele>240.5</ele><time>2026-05-03T10:16:48.896Z</time></trkpt><trkpt lat="45.9795784" lon="9.2625088"><ele>239.66666666666666</ele><time>2026-05-03T10:16:49.905Z</time></trkpt><trkpt lat="45.9794731" lon="9.2625817"><ele>238.83333333333331</ele><time>2026-05-03T10:16:51.892Z</time></trkpt><trkpt lat="45.9794174" lon="9.2626245"><ele>238.0</ele><time>2026-05-03T10:16:52.911Z</time></trkpt><trkpt lat="45.9793106" lon="9.2627009"><ele>237.99999999999997</ele><time>2026-05-03T10:16:54.904Z</time></trkpt><trkpt lat="45.9792503" lon="9.2627384"><ele>238.0</ele><time>2026-05-03T10:16:55.913Z</time></trkpt><trkpt lat="45.9791855" lon="9.2627748"><ele>238.0</ele><time>2026-05-03T10:16:56.902Z</time></trkpt><trkpt lat="45.979113" lon="9.2628046"><ele>238.0</ele><time>2026-05-03T10:16:57.915Z</time></trkpt><trkpt lat="45.9790333" lon="9.262835"><ele>237.99999999999997</ele><time>2026-05-03T10:16:58.906Z</time></trkpt><trkpt lat="45.9789435" lon="9.2628409"><ele>238.0</ele><time>2026-05-03T10:16:59.904Z</time></trkpt><trkpt lat="45.9788487" lon="9.2628395"><ele>238.4</ele><time>2026-05-03T10:17:00.897Z</time></trkpt><trkpt lat="45.9787499" lon="9.2628284"><ele>238.8</ele><time>2026-05-03T10:17:01.907Z</time></trkpt><trkpt lat="45.9786507" lon="9.2628144"><ele>239.2</ele><time>2026-05-03T10:17:02.916Z</time></trkpt><trkpt lat="45.9785517" lon="9.262799"><ele>239.6</ele><time>2026-05-03T10:17:03.908Z</time></trkpt><trkpt lat="45.978451" lon="9.2627809"><ele>240.0</ele><time>2026-05-03T10:17:04.915Z</time></trkpt><trkpt lat="45.9783289" lon="9.2627573"><ele>240.0</ele><time>2026-05-03T10:17:05.911Z</time></trkpt><trkpt lat="45.9781787" lon="9.2627305"><ele>240.0</ele><time>2026-05-03T10:17:06.899Z</time></trkpt><trkpt lat="45.9780337" lon="9.2626905"><ele>240.0</ele><time>2026-05-03T10:17:07.929Z</time></trkpt><trkpt lat="45.9779023" lon="9.2626529"><ele>240.0</ele><time>2026-05-03T10:17:08.907Z</time></trkpt><trkpt lat="45.977776" lon="9.2626178"><ele>240.0</ele><time>2026-05-03T10:17:09.908Z</time></trkpt><trkpt lat="45.9776671" lon="9.2625905"><ele>240.0</ele><time>2026-05-03T10:17:10.908Z</time></trkpt><trkpt lat="45.9775778" lon="9.262569"><ele>240.0</ele><time>2026-05-03T10:17:11.901Z</time></trkpt><trkpt lat="45.9775104" lon="9.2625502"><ele>240.0</ele><time>2026-05-03T10:17:12.904Z</time></trkpt><trkpt lat="45.9774046" lon="9.262521"><ele>240.0</ele><time>2026-05-03T10:17:14.913Z</time></trkpt><trkpt lat="45.9773059" lon="9.2624996"><ele>239.0</ele><time>2026-05-03T10:17:16.908Z</time></trkpt><trkpt lat="45.9772325" lon="9.2624916"><ele>238.0</ele><time>2026-05-03T10:17:17.917Z</time></trkpt><trkpt lat="45.9771533" lon="9.2624812"><ele>237.0</ele><time>2026-05-03T10:17:18.89Z</time></trkpt><trkpt lat="45.9770503" lon="9.2624633"><ele>236.0</ele><time>2026-05-03T10:17:19.913Z</time></trkpt><trkpt lat="45.9769443" lon="9.2624399"><ele>235.0</ele><time>2026-05-03T10:17:20.894Z</time></trkpt><trkpt lat="45.9768377" lon="9.2624157"><ele>235.0</ele><time>2026-05-03T10:17:21.902Z</time></trkpt><trkpt lat="45.97673" lon="9.2623947"><ele>235.0</ele><time>2026-05-03T10:17:22.915Z</time></trkpt><trkpt lat="45.9766269" lon="9.2623734"><ele>235.0</ele><time>2026-05-03T10:17:23.904Z</time></trkpt><trkpt lat="45.976528" lon="9.2623528"><ele>235.0</ele><time>2026-05-03T10:17:24.891Z</time></trkpt><trkpt lat="45.9764293" lon="9.2623316"><ele>235.0</ele><time>2026-05-03T10:17:25.893Z</time></trkpt><trkpt lat="45.9763355" lon="9.2623089"><ele>234.8</ele><time>2026-05-03T10:17:26.901Z</time></trkpt><trkpt lat="45.9762422" lon="9.2622886"><ele>234.6</ele><time>2026-05-03T10:17:27.907Z</time></trkpt><trkpt lat="45.9761477" lon="9.2622688"><ele>234.39999999999998</ele><time>2026-05-03T10:17:28.904Z</time></trkpt><trkpt lat="45.9760522" lon="9.2622508"><ele>234.2</ele><time>2026-05-03T10:17:29.906Z</time></trkpt><trkpt lat="45.9759601" lon="9.262235"><ele>234.0</ele><time>2026-05-03T10:17:30.906Z</time></trkpt><trkpt lat="45.975869" lon="9.2622195"><ele>233.83333333333334</ele><time>2026-05-03T10:17:31.905Z</time></trkpt><trkpt lat="45.9757783" lon="9.2622049"><ele>233.66666666666669</ele><time>2026-05-03T10:17:32.905Z</time></trkpt><trkpt lat="45.9756928" lon="9.262189"><ele>233.5</ele><time>2026-05-03T10:17:33.9Z</time></trkpt><trkpt lat="45.9756088" lon="9.2621695"><ele>233.33333333333334</ele><time>2026-05-03T10:17:34.894Z</time></trkpt><trkpt lat="45.9755286" lon="9.2621496"><ele>233.16666666666669</ele><time>2026-05-03T10:17:35.899Z</time></trkpt><trkpt lat="45.9754504" lon="9.2621268"><ele>233.0</ele><time>2026-05-03T10:17:36.908Z</time></trkpt><trkpt lat="45.975373" lon="9.2620944"><ele>233.00000000000003</ele><time>2026-05-03T10:17:37.89Z</time></trkpt><trkpt lat="45.9752987" lon="9.2620644"><ele>233.0</ele><time>2026-05-03T10:17:38.899Z</time></trkpt><trkpt lat="45.9752309" lon="9.262005"><ele>233.0</ele><time>2026-05-03T10:17:39.903Z</time></trkpt><trkpt lat="45.9751634" lon="9.2619395"><ele>233.0</ele><time>2026-05-03T10:17:40.894Z</time></trkpt><trkpt lat="45.975099" lon="9.2618659"><ele>233.00000000000003</ele><time>2026-05-03T10:17:41.906Z</time></trkpt><trkpt lat="45.9750352" lon="9.261785"><ele>233.0</ele><time>2026-05-03T10:17:42.893Z</time></trkpt><trkpt lat="45.9749723" lon="9.2617028"><ele>234.33333333333334</ele><time>2026-05-03T10:17:43.916Z</time></trkpt><trkpt lat="45.9749068" lon="9.2616237"><ele>235.66666666666669</ele><time>2026-05-03T10:17:44.91Z</time></trkpt><trkpt lat="45.9748374" lon="9.2615487"><ele>237.0</ele><time>2026-05-03T10:17:45.91Z</time></trkpt><trkpt lat="45.9747668" lon="9.2614783"><ele>238.33333333333331</ele><time>2026-05-03T10:17:46.901Z</time></trkpt><trkpt lat="45.9747031" lon="9.2614089"><ele>239.66666666666666</ele><time>2026-05-03T10:17:47.907Z</time></trkpt><trkpt lat="45.9746333" lon="9.2613633"><ele>241.0</ele><time>2026-05-03T10:17:48.907Z</time></trkpt><trkpt lat="45.9745719" lon="9.2613359"><ele>241.0</ele><time>2026-05-03T10:17:49.912Z</time></trkpt><trkpt lat="45.9744936" lon="9.2613175"><ele>241.00000000000003</ele><time>2026-05-03T10:17:51.903Z</time></trkpt><trkpt lat="45.9744213" lon="9.2613074"><ele>241.0</ele><time>2026-05-03T10:17:56.905Z</time></trkpt><trkpt lat="45.9743557" lon="9.261303"><ele>241.0</ele><time>2026-05-03T10:17:58.9Z</time></trkpt><trkpt lat="45.9742795" lon="9.261298"><ele>241.00000000000003</ele><time>2026-05-03T10:18:00.909Z</time></trkpt><trkpt lat="45.9742098" lon="9.2612912"><ele>241.0</ele><time>2026-05-03T10:18:02.906Z</time></trkpt><trkpt lat="45.9741379" lon="9.2612752"><ele>241.0</ele><time>2026-05-03T10:18:04.896Z</time></trkpt><trkpt lat="45.9740682" lon="9.2612323"><ele>243.4</ele><time>2026-05-03T10:18:06.901Z</time></trkpt><trkpt lat="45.9740105" lon="9.2611299"><ele>245.8</ele><time>2026-05-03T10:18:08.9Z</time></trkpt><trkpt lat="45.9739855" lon="9.2610079"><ele>248.20000000000002</ele><time>2026-05-03T10:18:10.901Z</time></trkpt><trkpt lat="45.9739886" lon="9.2608808"><ele>250.60000000000002</ele><time>2026-05-03T10:18:12.906Z</time></trkpt><trkpt lat="45.974015" lon="9.2607482"><ele>253.0</ele><time>2026-05-03T10:18:14.902Z</time></trkpt><trkpt lat="45.9740602" lon="9.2606136"><ele>255.2</ele><time>2026-05-03T10:18:16.898Z</time></trkpt><trkpt lat="45.9741076" lon="9.2604815"><ele>257.4</ele><time>2026-05-03T10:18:18.893Z</time></trkpt><trkpt lat="45.9741568" lon="9.2603436"><ele>259.59999999999997</ele><time>2026-05-03T10:18:20.902Z</time></trkpt><trkpt lat="45.9741968" lon="9.2602052"><ele>261.8</ele><time>2026-05-03T10:18:22.885Z</time></trkpt><trkpt lat="45.9741939" lon="9.260062"><ele>264.0</ele><time>2026-05-03T10:18:24.891Z</time></trkpt><trkpt lat="45.9741271" lon="9.2599823"><ele>264.0</ele><time>2026-05-03T10:18:26.9Z</time></trkpt><trkpt lat="45.9740565" lon="9.260014"><ele>264.0</ele><time>2026-05-03T10:18:29.896Z</time></trkpt><trkpt lat="45.9739919" lon="9.2601093"><ele>264.0</ele><time>2026-05-03T10:18:32.893Z</time></trkpt><trkpt lat="45.9739498" lon="9.260304"><ele>264.0</ele><time>2026-05-03T10:18:34.902Z</time></trkpt><trkpt lat="45.9739101" lon="9.2604588"><ele>264.0</ele><time>2026-05-03T10:18:35.909Z</time></trkpt><trkpt lat="45.973854" lon="9.2606247"><ele>261.8</ele><time>2026-05-03T10:18:36.909Z</time></trkpt><trkpt lat="45.9737912" lon="9.260773"><ele>259.59999999999997</ele><time>2026-05-03T10:18:37.903Z</time></trkpt><trkpt lat="45.9737266" lon="9.2608942"><ele>257.4</ele><time>2026-05-03T10:18:38.908Z</time></trkpt><trkpt lat="45.9736519" lon="9.2609989"><ele>255.2</ele><time>2026-05-03T10:18:39.906Z</time></trkpt><trkpt lat="45.973578" lon="9.2610995"><ele>253.0</ele><time>2026-05-03T10:18:40.907Z</time></trkpt><trkpt lat="45.9734764" lon="9.2611343"><ele>253.0</ele><time>2026-05-03T10:18:41.902Z</time></trkpt><trkpt lat="45.9733767" lon="9.2611317"><ele>253.0</ele><time>2026-05-03T10:18:42.909Z</time></trkpt><trkpt lat="45.973282" lon="9.2610959"><ele>253.0</ele><time>2026-05-03T10:18:43.897Z</time></trkpt><trkpt lat="45.9731843" lon="9.2610611"><ele>253.0</ele><time>2026-05-03T10:18:44.897Z</time></trkpt><trkpt lat="45.9730976" lon="9.2609785"><ele>253.0</ele><time>2026-05-03T10:18:45.898Z</time></trkpt><trkpt lat="45.9730197" lon="9.2608777"><ele>255.83333333333331</ele><time>2026-05-03T10:18:46.9Z</time></trkpt><trkpt lat="45.9729331" lon="9.2607883"><ele>258.66666666666663</ele><time>2026-05-03T10:18:47.91Z</time></trkpt><trkpt lat="45.9728557" lon="9.260688"><ele>261.5</ele><time>2026-05-03T10:18:48.908Z</time></trkpt><trkpt lat="45.9727835" lon="9.2606174"><ele>264.3333333333333</ele><time>2026-05-03T10:18:49.882Z</time></trkpt><trkpt lat="45.9727137" lon="9.2605516"><ele>267.1666666666667</ele><time>2026-05-03T10:18:50.9Z</time></trkpt><trkpt lat="45.9726583" lon="9.2605057"><ele>270.0</ele><time>2026-05-03T10:18:51.907Z</time></trkpt><trkpt lat="45.9725764" lon="9.2604262"><ele>270.0</ele><time>2026-05-03T10:18:53.902Z</time></trkpt><trkpt lat="45.9724752" lon="9.260373"><ele>270.0</ele><time>2026-05-03T10:18:55.898Z</time></trkpt><trkpt lat="45.9724071" lon="9.2604709"><ele>270.0</ele><time>2026-05-03T10:18:57.898Z</time></trkpt><trkpt lat="45.9724697" lon="9.2606143"><ele>270.0</ele><time>2026-05-03T10:18:59.895Z</time></trkpt><trkpt lat="45.9725185" lon="9.2606772"><ele>270.0</ele><time>2026-05-03T10:19:00.893Z</time></trkpt><trkpt lat="45.9725918" lon="9.2607227"><ele>270.0</ele><time>2026-05-03T10:19:01.891Z</time></trkpt><trkpt lat="45.9726595" lon="9.2607653"><ele>270.0</ele><time>2026-05-03T10:19:02.902Z</time></trkpt><trkpt lat="45.9727096" lon="9.260842"><ele>270.0</ele><time>2026-05-03T10:19:03.902Z</time></trkpt><trkpt lat="45.9727306" lon="9.260941"><ele>270.0</ele><time>2026-05-03T10:19:04.91Z</time></trkpt><trkpt lat="45.9727264" lon="9.2610491"><ele>270.0</ele><time>2026-05-03T10:19:05.898Z</time></trkpt><trkpt lat="45.9727094" lon="9.2611645"><ele>270.0</ele><time>2026-05-03T10:19:06.896Z</time></trkpt><trkpt lat="45.9726783" lon="9.2612882"><ele>270.0</ele><time>2026-05-03T10:19:07.902Z</time></trkpt><trkpt lat="45.9726311" lon="9.2614094"><ele>270.0</ele><time>2026-05-03T10:19:08.905Z</time></trkpt><trkpt lat="45.9725848" lon="9.2615258"><ele>270.0</ele><time>2026-05-03T10:19:09.897Z</time></trkpt><trkpt lat="45.9725699" lon="9.2616635"><ele>270.0</ele><time>2026-05-03T10:19:10.902Z</time></trkpt><trkpt lat="45.9725691" lon="9.2618191"><ele>270.0</ele><time>2026-05-03T10:19:11.891Z</time></trkpt><trkpt lat="45.9725712" lon="9.2619861"><ele>271.0</ele><time>2026-05-03T10:19:12.914Z</time></trkpt><trkpt lat="45.9725768" lon="9.2621421"><ele>272.0</ele><time>2026-05-03T10:19:13.888Z</time></trkpt><trkpt lat="45.9725777" lon="9.2622981"><ele>273.0</ele><time>2026-05-03T10:19:14.917Z</time></trkpt><trkpt lat="45.9725754" lon="9.2624469"><ele>274.0</ele><time>2026-05-03T10:19:15.889Z</time></trkpt><trkpt lat="45.9725646" lon="9.2625818"><ele>275.0</ele><time>2026-05-03T10:19:16.894Z</time></trkpt><trkpt lat="45.97253" lon="9.2627158"><ele>277.75</ele><time>2026-05-03T10:19:17.898Z</time></trkpt><trkpt lat="45.9724764" lon="9.2628468"><ele>280.5</ele><time>2026-05-03T10:19:18.918Z</time></trkpt><trkpt lat="45.9724091" lon="9.2629803"><ele>283.25</ele><time>2026-05-03T10:19:19.906Z</time></trkpt><trkpt lat="45.9723342" lon="9.2631175"><ele>286.0</ele><time>2026-05-03T10:19:20.91Z</time></trkpt><trkpt lat="45.9722576" lon="9.2632601"><ele>286.25</ele><time>2026-05-03T10:19:21.906Z</time></trkpt><trkpt lat="45.9721789" lon="9.2634059"><ele>286.5</ele><time>2026-05-03T10:19:22.896Z</time></trkpt><trkpt lat="45.9720992" lon="9.26355"><ele>286.75</ele><time>2026-05-03T10:19:23.906Z</time></trkpt><trkpt lat="45.9720157" lon="9.2636904"><ele>287.0</ele><time>2026-05-03T10:19:24.912Z</time></trkpt><trkpt lat="45.9719262" lon="9.2638221"><ele>286.75</ele><time>2026-05-03T10:19:25.887Z</time></trkpt><trkpt lat="45.971835" lon="9.2639507"><ele>286.5</ele><time>2026-05-03T10:19:26.904Z</time></trkpt><trkpt lat="45.9717457" lon="9.2640793"><ele>286.25</ele><time>2026-05-03T10:19:27.911Z</time></trkpt><trkpt lat="45.9716738" lon="9.2642302"><ele>286.0</ele><time>2026-05-03T10:19:28.901Z</time></trkpt><trkpt lat="45.9716167" lon="9.2644063"><ele>286.0</ele><time>2026-05-03T10:19:29.904Z</time></trkpt><trkpt lat="45.9715599" lon="9.2645812"><ele>286.0</ele><time>2026-05-03T10:19:30.906Z</time></trkpt><trkpt lat="45.9715086" lon="9.264755"><ele>286.0</ele><time>2026-05-03T10:19:31.909Z</time></trkpt><trkpt lat="45.9714518" lon="9.2649094"><ele>286.0</ele><time>2026-05-03T10:19:32.9Z</time></trkpt><trkpt lat="45.9713817" lon="9.265041"><ele>285.75</ele><time>2026-05-03T10:19:33.913Z</time></trkpt><trkpt lat="45.9713106" lon="9.2651739"><ele>285.5</ele><time>2026-05-03T10:19:34.908Z</time></trkpt><trkpt lat="45.9712146" lon="9.2652466"><ele>285.25</ele><time>2026-05-03T10:19:35.899Z</time></trkpt><trkpt lat="45.9711024" lon="9.265269"><ele>285.0</ele><time>2026-05-03T10:19:36.895Z</time></trkpt><trkpt lat="45.9709822" lon="9.2652518"><ele>285.0</ele><time>2026-05-03T10:19:37.897Z</time></trkpt><trkpt lat="45.9708651" lon="9.2652567"><ele>285.0</ele><time>2026-05-03T10:19:38.904Z</time></trkpt><trkpt lat="45.970761" lon="9.2652923"><ele>285.0</ele><time>2026-05-03T10:19:39.905Z</time></trkpt><trkpt lat="45.9706767" lon="9.2653589"><ele>285.0</ele><time>2026-05-03T10:19:40.906Z</time></trkpt><trkpt lat="45.97063" lon="9.2654706"><ele>285.0</ele><time>2026-05-03T10:19:41.906Z</time></trkpt><trkpt lat="45.9705923" lon="9.2655935"><ele>281.2</ele><time>2026-05-03T10:19:42.899Z</time></trkpt><trkpt lat="45.9705607" lon="9.2657102"><ele>277.4</ele><time>2026-05-03T10:19:43.906Z</time></trkpt><trkpt lat="45.9705217" lon="9.2658195"><ele>273.6</ele><time>2026-05-03T10:19:44.897Z</time></trkpt><trkpt lat="45.9704569" lon="9.2659096"><ele>269.8</ele><time>2026-05-03T10:19:45.902Z</time></trkpt><trkpt lat="45.9703737" lon="9.2659729"><ele>266.0</ele><time>2026-05-03T10:19:46.897Z</time></trkpt><trkpt lat="45.9702869" lon="9.266032"><ele>266.0</ele><time>2026-05-03T10:19:47.894Z</time></trkpt><trkpt lat="45.9701801" lon="9.2660497"><ele>266.0</ele><time>2026-05-03T10:19:48.906Z</time></trkpt><trkpt lat="45.9700714" lon="9.2660475"><ele>266.0</ele><time>2026-05-03T10:19:49.912Z</time></trkpt><trkpt lat="45.96996" lon="9.2660321"><ele>266.0</ele><time>2026-05-03T10:19:50.893Z</time></trkpt><trkpt lat="45.9698384" lon="9.2660133"><ele>266.2</ele><time>2026-05-03T10:19:51.906Z</time></trkpt><trkpt lat="45.9697201" lon="9.2659988"><ele>266.40000000000003</ele><time>2026-05-03T10:19:52.894Z</time></trkpt><trkpt lat="45.9696108" lon="9.2659986"><ele>266.6</ele><time>2026-05-03T10:19:53.903Z</time></trkpt><trkpt lat="45.9695051" lon="9.2660366"><ele>266.8</ele><time>2026-05-03T10:19:54.901Z</time></trkpt><trkpt lat="45.9694188" lon="9.2661213"><ele>267.0</ele><time>2026-05-03T10:19:55.898Z</time></trkpt><trkpt lat="45.9693337" lon="9.2662077"><ele>267.0</ele><time>2026-05-03T10:19:56.901Z</time></trkpt><trkpt lat="45.9692602" lon="9.266319"><ele>267.0</ele><time>2026-05-03T10:19:57.898Z</time></trkpt><trkpt lat="45.969177" lon="9.2664019"><ele>267.0</ele><time>2026-05-03T10:19:58.908Z</time></trkpt><trkpt lat="45.9690599" lon="9.2664103"><ele>267.0</ele><time>2026-05-03T10:19:59.915Z</time></trkpt><trkpt lat="45.9689379" lon="9.2664122"><ele>267.0</ele><time>2026-05-03T10:20:00.895Z</time></trkpt><trkpt lat="45.968824" lon="9.2663376"><ele>267.4</ele><time>2026-05-03T10:20:01.906Z</time></trkpt><trkpt lat="45.9687168" lon="9.2662743"><ele>267.79999999999995</ele><time>2026-05-03T10:20:02.895Z</time></trkpt><trkpt lat="45.9686127" lon="9.2662364"><ele>268.2</ele><time>2026-05-03T10:20:03.896Z</time></trkpt><trkpt lat="45.9685059" lon="9.2662405"><ele>268.59999999999997</ele><time>2026-05-03T10:20:04.911Z</time></trkpt><trkpt lat="45.9684096" lon="9.2662903"><ele>269.0</ele><time>2026-05-03T10:20:05.913Z</time></trkpt><trkpt lat="45.9683316" lon="9.2663877"><ele>266.2</ele><time>2026-05-03T10:20:06.898Z</time></trkpt><trkpt lat="45.968255" lon="9.2664892"><ele>263.4</ele><time>2026-05-03T10:20:07.908Z</time></trkpt><trkpt lat="45.9682415" lon="9.2666421"><ele>260.6</ele><time>2026-05-03T10:20:08.898Z</time></trkpt><trkpt lat="45.9682297" lon="9.2667894"><ele>257.8</ele><time>2026-05-03T10:20:09.892Z</time></trkpt><trkpt lat="45.9682063" lon="9.2669146"><ele>255.0</ele><time>2026-05-03T10:20:10.906Z</time></trkpt><trkpt lat="45.9681518" lon="9.2670169"><ele>255.0</ele><time>2026-05-03T10:20:11.905Z</time></trkpt><trkpt lat="45.9680968" lon="9.2671165"><ele>255.0</ele><time>2026-05-03T10:20:12.911Z</time></trkpt><trkpt lat="45.9679906" lon="9.2671688"><ele>255.0</ele><time>2026-05-03T10:20:13.913Z</time></trkpt><trkpt lat="45.9678655" lon="9.2672191"><ele>255.0</ele><time>2026-05-03T10:20:14.902Z</time></trkpt><trkpt lat="45.9677299" lon="9.2672855"><ele>253.0</ele><time>2026-05-03T10:20:15.905Z</time></trkpt><trkpt lat="45.9675991" lon="9.2673531"><ele>251.0</ele><time>2026-05-03T10:20:16.91Z</time></trkpt><trkpt lat="45.9674716" lon="9.2674209"><ele>249.0</ele><time>2026-05-03T10:20:17.898Z</time></trkpt><trkpt lat="45.9673584" lon="9.2674808"><ele>247.0</ele><time>2026-05-03T10:20:18.9Z</time></trkpt><trkpt lat="45.9672603" lon="9.2675179"><ele>247.0</ele><time>2026-05-03T10:20:19.886Z</time></trkpt><trkpt lat="45.9671491" lon="9.2674921"><ele>247.0</ele><time>2026-05-03T10:20:20.892Z</time></trkpt><trkpt lat="45.9670461" lon="9.2674611"><ele>247.0</ele><time>2026-05-03T10:20:21.898Z</time></trkpt><trkpt lat="45.9669513" lon="9.2674073"><ele>247.0</ele><time>2026-05-03T10:20:22.903Z</time></trkpt><trkpt lat="45.9668714" lon="9.267385"><ele>247.0</ele><time>2026-05-03T10:20:23.905Z</time></trkpt><trkpt lat="45.9667909" lon="9.2674045"><ele>247.0</ele><time>2026-05-03T10:20:24.893Z</time></trkpt><trkpt lat="45.966707" lon="9.2674113"><ele>247.0</ele><time>2026-05-03T10:20:25.905Z</time></trkpt><trkpt lat="45.9666195" lon="9.267377"><ele>247.0</ele><time>2026-05-03T10:20:26.903Z</time></trkpt><trkpt lat="45.9665199" lon="9.2673007"><ele>247.0</ele><time>2026-05-03T10:20:27.906Z</time></trkpt><trkpt lat="45.9664198" lon="9.2672167"><ele>247.0</ele><time>2026-05-03T10:20:28.905Z</time></trkpt><trkpt lat="45.9662832" lon="9.2671251"><ele>249.25</ele><time>2026-05-03T10:20:29.901Z</time></trkpt><trkpt lat="45.9661429" lon="9.267041"><ele>251.5</ele><time>2026-05-03T10:20:30.906Z</time></trkpt><trkpt lat="45.9660047" lon="9.2669612"><ele>253.75</ele><time>2026-05-03T10:20:31.896Z</time></trkpt><trkpt lat="45.965883" lon="9.2668941"><ele>256.0</ele><time>2026-05-03T10:20:32.892Z</time></trkpt><trkpt lat="45.9657628" lon="9.2668361"><ele>256.0</ele><time>2026-05-03T10:20:33.901Z</time></trkpt><trkpt lat="45.9656654" lon="9.2668068"><ele>256.0</ele><time>2026-05-03T10:20:34.885Z</time></trkpt><trkpt lat="45.9655701" lon="9.2668202"><ele>256.0</ele><time>2026-05-03T10:20:35.906Z</time></trkpt><trkpt lat="45.9654715" lon="9.2668445"><ele>256.0</ele><time>2026-05-03T10:20:36.902Z</time></trkpt><trkpt lat="45.9653774" lon="9.2668459"><ele>256.0</ele><time>2026-05-03T10:20:37.887Z</time></trkpt><trkpt lat="45.9652872" lon="9.2668047"><ele>256.0</ele><time>2026-05-03T10:20:38.903Z</time></trkpt><trkpt lat="45.9652077" lon="9.2667289"><ele>256.0</ele><time>2026-05-03T10:20:39.904Z</time></trkpt><trkpt lat="45.9651503" lon="9.2666343"><ele>256.0</ele><time>2026-05-03T10:20:40.912Z</time></trkpt><trkpt lat="45.9650971" lon="9.266538"><ele>256.0</ele><time>2026-05-03T10:20:41.896Z</time></trkpt><trkpt lat="45.9650538" lon="9.2664315"><ele>256.0</ele><time>2026-05-03T10:20:42.908Z</time></trkpt><trkpt lat="45.9649756" lon="9.2663476"><ele>259.25</ele><time>2026-05-03T10:20:43.897Z</time></trkpt><trkpt lat="45.964896" lon="9.2662645"><ele>262.5</ele><time>2026-05-03T10:20:44.9Z</time></trkpt><trkpt lat="45.9647791" lon="9.2662136"><ele>265.75</ele><time>2026-05-03T10:20:45.903Z</time></trkpt><trkpt lat="45.9646378" lon="9.2661574"><ele>269.0</ele><time>2026-05-03T10:20:46.91Z</time></trkpt><trkpt lat="45.9644801" lon="9.266097"><ele>269.0</ele><time>2026-05-03T10:20:47.905Z</time></trkpt><trkpt lat="45.9643278" lon="9.2660289"><ele>269.0</ele><time>2026-05-03T10:20:48.9Z</time></trkpt><trkpt lat="45.9641684" lon="9.2659584"><ele>269.0</ele><time>2026-05-03T10:20:49.905Z</time></trkpt><trkpt lat="45.9640118" lon="9.2658934"><ele>260.6666666666667</ele><time>2026-05-03T10:20:50.9Z</time></trkpt><trkpt lat="45.9638582" lon="9.2658452"><ele>252.33333333333331</ele><time>2026-05-03T10:20:51.89Z</time></trkpt><trkpt lat="45.9637019" lon="9.2658013"><ele>244.0</ele><time>2026-05-03T10:20:52.902Z</time></trkpt><trkpt lat="45.9635433" lon="9.2657741"><ele>244.0</ele><time>2026-05-03T10:20:53.902Z</time></trkpt><trkpt lat="45.9633879" lon="9.2657472"><ele>244.0</ele><time>2026-05-03T10:20:54.901Z</time></trkpt><trkpt lat="45.9632329" lon="9.265716"><ele>244.0</ele><time>2026-05-03T10:20:55.886Z</time></trkpt><trkpt lat="45.9630601" lon="9.2656807"><ele>238.33333333333331</ele><time>2026-05-03T10:20:56.907Z</time></trkpt><trkpt lat="45.9628913" lon="9.2656516"><ele>232.66666666666669</ele><time>2026-05-03T10:20:57.898Z</time></trkpt><trkpt lat="45.9627332" lon="9.2656339"><ele>227.0</ele><time>2026-05-03T10:20:58.903Z</time></trkpt><trkpt lat="45.9625873" lon="9.265621"><ele>226.5</ele><time>2026-05-03T10:20:59.9Z</time></trkpt><trkpt lat="45.9624632" lon="9.2656197"><ele>226.0</ele><time>2026-05-03T10:21:00.903Z</time></trkpt><trkpt lat="45.9623471" lon="9.2656432"><ele>225.5</ele><time>2026-05-03T10:21:01.916Z</time></trkpt><trkpt lat="45.962237" lon="9.2656936"><ele>225.0</ele><time>2026-05-03T10:21:02.902Z</time></trkpt><trkpt lat="45.9621298" lon="9.2657561"><ele>225.0</ele><time>2026-05-03T10:21:03.901Z</time></trkpt><trkpt lat="45.9620445" lon="9.2658306"><ele>225.0</ele><time>2026-05-03T10:21:04.904Z</time></trkpt><trkpt lat="45.9619518" lon="9.2658614"><ele>225.0</ele><time>2026-05-03T10:21:05.9Z</time></trkpt><trkpt lat="45.961863" lon="9.2658419"><ele>225.0</ele><time>2026-05-03T10:21:06.901Z</time></trkpt><trkpt lat="45.961737" lon="9.265787"><ele>225.0</ele><time>2026-05-03T10:21:07.903Z</time></trkpt><trkpt lat="45.9616156" lon="9.265761"><ele>223.5</ele><time>2026-05-03T10:21:08.908Z</time></trkpt><trkpt lat="45.9614992" lon="9.2657504"><ele>222.0</ele><time>2026-05-03T10:21:09.905Z</time></trkpt><trkpt lat="45.9613794" lon="9.2657826"><ele>220.5</ele><time>2026-05-03T10:21:10.912Z</time></trkpt><trkpt lat="45.9612636" lon="9.2658179"><ele>219.0</ele><time>2026-05-03T10:21:11.901Z</time></trkpt><trkpt lat="45.9611559" lon="9.26587"><ele>219.0</ele><time>2026-05-03T10:21:12.894Z</time></trkpt><trkpt lat="45.9610461" lon="9.2659284"><ele>219.0</ele><time>2026-05-03T10:21:13.901Z</time></trkpt><trkpt lat="45.9609347" lon="9.2659828"><ele>219.0</ele><time>2026-05-03T10:21:14.898Z</time></trkpt><trkpt lat="45.9608243" lon="9.2660315"><ele>219.0</ele><time>2026-05-03T10:21:15.901Z</time></trkpt><trkpt lat="45.9607029" lon="9.2660904"><ele>220.6</ele><time>2026-05-03T10:21:16.899Z</time></trkpt><trkpt lat="45.9605847" lon="9.2661377"><ele>222.2</ele><time>2026-05-03T10:21:17.904Z</time></trkpt><trkpt lat="45.9604674" lon="9.2661679"><ele>223.79999999999998</ele><time>2026-05-03T10:21:18.899Z</time></trkpt><trkpt lat="45.9603575" lon="9.2661714"><ele>225.39999999999998</ele><time>2026-05-03T10:21:19.9Z</time></trkpt><trkpt lat="45.9602614" lon="9.2661597"><ele>227.0</ele><time>2026-05-03T10:21:20.9Z</time></trkpt><trkpt lat="45.9601815" lon="9.2661547"><ele>227.00000000000003</ele><time>2026-05-03T10:21:21.911Z</time></trkpt><trkpt lat="45.9601084" lon="9.2661589"><ele>227.0</ele><time>2026-05-03T10:21:22.895Z</time></trkpt><trkpt lat="45.9600454" lon="9.2661838"><ele>227.0</ele><time>2026-05-03T10:21:23.898Z</time></trkpt><trkpt lat="45.9599799" lon="9.2662428"><ele>227.0</ele><time>2026-05-03T10:21:24.906Z</time></trkpt><trkpt lat="45.9599166" lon="9.2663153"><ele>227.00000000000003</ele><time>2026-05-03T10:21:25.9Z</time></trkpt><trkpt lat="45.9598925" lon="9.2664456"><ele>227.0</ele><time>2026-05-03T10:21:26.903Z</time></trkpt><trkpt lat="45.9598914" lon="9.2665973"><ele>227.0</ele><time>2026-05-03T10:21:27.906Z</time></trkpt><trkpt lat="45.9598936" lon="9.2667617"><ele>227.0</ele><time>2026-05-03T10:21:28.899Z</time></trkpt><trkpt lat="45.9598958" lon="9.2669295"><ele>227.0</ele><time>2026-05-03T10:21:29.899Z</time></trkpt><trkpt lat="45.9598794" lon="9.2670876"><ele>227.0</ele><time>2026-05-03T10:21:30.912Z</time></trkpt><trkpt lat="45.9598464" lon="9.2672379"><ele>225.39999999999998</ele><time>2026-05-03T10:21:31.909Z</time></trkpt><trkpt lat="45.9598132" lon="9.2673831"><ele>223.79999999999998</ele><time>2026-05-03T10:21:32.901Z</time></trkpt><trkpt lat="45.9597617" lon="9.2675089"><ele>222.2</ele><time>2026-05-03T10:21:33.903Z</time></trkpt><trkpt lat="45.9596991" lon="9.2676345"><ele>220.6</ele><time>2026-05-03T10:21:34.898Z</time></trkpt><trkpt lat="45.9596244" lon="9.2677512"><ele>219.0</ele><time>2026-05-03T10:21:35.909Z</time></trkpt><trkpt lat="45.9595372" lon="9.2678523"><ele>219.0</ele><time>2026-05-03T10:21:36.902Z</time></trkpt><trkpt lat="45.9594517" lon="9.2679503"><ele>218.99999999999997</ele><time>2026-05-03T10:21:37.898Z</time></trkpt><trkpt lat="45.9593719" lon="9.2680487"><ele>218.99999999999997</ele><time>2026-05-03T10:21:38.909Z</time></trkpt><trkpt lat="45.9593293" lon="9.2681918"><ele>219.0</ele><time>2026-05-03T10:21:39.896Z</time></trkpt><trkpt lat="45.9593088" lon="9.2683526"><ele>219.0</ele><time>2026-05-03T10:21:40.905Z</time></trkpt><trkpt lat="45.9592696" lon="9.268508"><ele>217.0</ele><time>2026-05-03T10:21:41.912Z</time></trkpt><trkpt lat="45.9592061" lon="9.2686363"><ele>214.99999999999997</ele><time>2026-05-03T10:21:42.904Z</time></trkpt><trkpt lat="45.9591507" lon="9.2687349"><ele>213.0</ele><time>2026-05-03T10:21:43.901Z</time></trkpt><trkpt lat="45.9590921" lon="9.2688254"><ele>211.0</ele><time>2026-05-03T10:21:44.904Z</time></trkpt><trkpt lat="45.9590054" lon="9.2689118"><ele>209.0</ele><time>2026-05-03T10:21:45.905Z</time></trkpt><trkpt lat="45.9588945" lon="9.2690071"><ele>214.0</ele><time>2026-05-03T10:21:46.894Z</time></trkpt><trkpt lat="45.9587718" lon="9.2691207"><ele>219.0</ele><time>2026-05-03T10:21:47.9Z</time></trkpt><trkpt lat="45.9586554" lon="9.2692495"><ele>224.0</ele><time>2026-05-03T10:21:48.911Z</time></trkpt><trkpt lat="45.9585479" lon="9.2693609"><ele>229.0</ele><time>2026-05-03T10:21:49.901Z</time></trkpt><trkpt lat="45.9584531" lon="9.2694646"><ele>232.75</ele><time>2026-05-03T10:21:50.902Z</time></trkpt><trkpt lat="45.9583464" lon="9.2695546"><ele>236.5</ele><time>2026-05-03T10:21:51.902Z</time></trkpt><trkpt lat="45.9582283" lon="9.2696245"><ele>240.25</ele><time>2026-05-03T10:21:52.9Z</time></trkpt><trkpt lat="45.9581051" lon="9.2696873"><ele>244.0</ele><time>2026-05-03T10:21:53.917Z</time></trkpt><trkpt lat="45.9579744" lon="9.2697105"><ele>244.0</ele><time>2026-05-03T10:21:54.89Z</time></trkpt><trkpt lat="45.9578206" lon="9.2697227"><ele>244.0</ele><time>2026-05-03T10:21:55.913Z</time></trkpt><trkpt lat="45.9576774" lon="9.2697468"><ele>244.0</ele><time>2026-05-03T10:21:56.909Z</time></trkpt><trkpt lat="45.9575351" lon="9.2697639"><ele>244.0</ele><time>2026-05-03T10:21:57.902Z</time></trkpt><trkpt lat="45.9574043" lon="9.2697886"><ele>240.75</ele><time>2026-05-03T10:21:58.908Z</time></trkpt><trkpt lat="45.9572828" lon="9.269816"><ele>237.5</ele><time>2026-05-03T10:21:59.906Z</time></trkpt><trkpt lat="45.9571503" lon="9.2698429"><ele>234.25</ele><time>2026-05-03T10:22:00.903Z</time></trkpt><trkpt lat="45.9570207" lon="9.2698471"><ele>231.0</ele><time>2026-05-03T10:22:01.909Z</time></trkpt><trkpt lat="45.9569055" lon="9.2698464"><ele>231.0</ele><time>2026-05-03T10:22:02.904Z</time></trkpt><trkpt lat="45.9567946" lon="9.2698574"><ele>231.00000000000003</ele><time>2026-05-03T10:22:03.905Z</time></trkpt><trkpt lat="45.9566876" lon="9.2698953"><ele>231.00000000000003</ele><time>2026-05-03T10:22:04.905Z</time></trkpt><trkpt lat="45.956594" lon="9.2699598"><ele>231.0</ele><time>2026-05-03T10:22:05.904Z</time></trkpt><trkpt lat="45.9565116" lon="9.2700244"><ele>231.0</ele><time>2026-05-03T10:22:06.9Z</time></trkpt><trkpt lat="45.9564614" lon="9.270172"><ele>229.25</ele><time>2026-05-03T10:22:07.905Z</time></trkpt><trkpt lat="45.9564049" lon="9.2703325"><ele>227.5</ele><time>2026-05-03T10:22:08.893Z</time></trkpt><trkpt lat="45.9563436" lon="9.2705263"><ele>225.75</ele><time>2026-05-03T10:22:09.898Z</time></trkpt><trkpt lat="45.9562514" lon="9.2706959"><ele>224.0</ele><time>2026-05-03T10:22:10.905Z</time></trkpt><trkpt lat="45.9561499" lon="9.2708457"><ele>224.0</ele><time>2026-05-03T10:22:11.918Z</time></trkpt><trkpt lat="45.9560545" lon="9.2709762"><ele>224.0</ele><time>2026-05-03T10:22:12.928Z</time></trkpt><trkpt lat="45.9559605" lon="9.2711056"><ele>224.0</ele><time>2026-05-03T10:22:13.89Z</time></trkpt><trkpt lat="45.9558547" lon="9.2712209"><ele>224.0</ele><time>2026-05-03T10:22:14.931Z</time></trkpt><trkpt lat="45.9557679" lon="9.2713491"><ele>223.39999999999998</ele><time>2026-05-03T10:22:15.897Z</time></trkpt><trkpt lat="45.9557037" lon="9.2714759"><ele>222.79999999999998</ele><time>2026-05-03T10:22:16.905Z</time></trkpt><trkpt lat="45.9556559" lon="9.2716029"><ele>222.20000000000002</ele><time>2026-05-03T10:22:17.922Z</time></trkpt><trkpt lat="45.9556333" lon="9.2717257"><ele>221.60000000000002</ele><time>2026-05-03T10:22:18.904Z</time></trkpt><trkpt lat="45.955622" lon="9.2718445"><ele>221.0</ele><time>2026-05-03T10:22:19.901Z</time></trkpt><trkpt lat="45.9556161" lon="9.2719605"><ele>221.0</ele><time>2026-05-03T10:22:20.897Z</time></trkpt><trkpt lat="45.9556093" lon="9.2720716"><ele>221.00000000000003</ele><time>2026-05-03T10:22:21.896Z</time></trkpt><trkpt lat="45.9555959" lon="9.2721923"><ele>221.00000000000003</ele><time>2026-05-03T10:22:22.885Z</time></trkpt><trkpt lat="45.955568" lon="9.272324"><ele>221.0</ele><time>2026-05-03T10:22:23.903Z</time></trkpt><trkpt lat="45.9555205" lon="9.2724596"><ele>221.0</ele><time>2026-05-03T10:22:24.916Z</time></trkpt><trkpt lat="45.9554679" lon="9.2726077"><ele>219.0</ele><time>2026-05-03T10:22:25.905Z</time></trkpt><trkpt lat="45.9553985" lon="9.2727568"><ele>217.0</ele><time>2026-05-03T10:22:26.9Z</time></trkpt><trkpt lat="45.9553351" lon="9.2728949"><ele>215.0</ele><time>2026-05-03T10:22:27.909Z</time></trkpt><trkpt lat="45.9552693" lon="9.2730398"><ele>213.0</ele><time>2026-05-03T10:22:28.904Z</time></trkpt><trkpt lat="45.955203" lon="9.2731966"><ele>211.60000000000002</ele><time>2026-05-03T10:22:29.915Z</time></trkpt><trkpt lat="45.9551412" lon="9.2733412"><ele>210.20000000000002</ele><time>2026-05-03T10:22:30.912Z</time></trkpt><trkpt lat="45.9550807" lon="9.2734626"><ele>208.8</ele><time>2026-05-03T10:22:31.897Z</time></trkpt><trkpt lat="45.9550259" lon="9.2735789"><ele>207.4</ele><time>2026-05-03T10:22:32.905Z</time></trkpt><trkpt lat="45.9549722" lon="9.2736888"><ele>206.0</ele><time>2026-05-03T10:22:33.906Z</time></trkpt><trkpt lat="45.9549186" lon="9.2737961"><ele>208.0</ele><time>2026-05-03T10:22:34.894Z</time></trkpt><trkpt lat="45.9548663" lon="9.273908"><ele>210.0</ele><time>2026-05-03T10:22:35.908Z</time></trkpt><trkpt lat="45.9548066" lon="9.274037"><ele>212.0</ele><time>2026-05-03T10:22:36.905Z</time></trkpt><trkpt lat="45.9547165" lon="9.2741992"><ele>214.0</ele><time>2026-05-03T10:22:37.897Z</time></trkpt><trkpt lat="45.9546263" lon="9.2743568"><ele>214.0</ele><time>2026-05-03T10:22:38.903Z</time></trkpt><trkpt lat="45.9545165" lon="9.2745005"><ele>214.0</ele><time>2026-05-03T10:22:39.901Z</time></trkpt><trkpt lat="45.9544048" lon="9.2746365"><ele>214.0</ele><time>2026-05-03T10:22:40.91Z</time></trkpt><trkpt lat="45.9542964" lon="9.2747585"><ele>214.0</ele><time>2026-05-03T10:22:41.913Z</time></trkpt><trkpt lat="45.9541864" lon="9.2748539"><ele>214.5</ele><time>2026-05-03T10:22:42.907Z</time></trkpt><trkpt lat="45.9540796" lon="9.2749277"><ele>215.0</ele><time>2026-05-03T10:22:43.905Z</time></trkpt><trkpt lat="45.9539736" lon="9.2749992"><ele>215.5</ele><time>2026-05-03T10:22:44.908Z</time></trkpt><trkpt lat="45.9538557" lon="9.2750479"><ele>216.0</ele><time>2026-05-03T10:22:45.914Z</time></trkpt><trkpt lat="45.9537402" lon="9.275102"><ele>216.0</ele><time>2026-05-03T10:22:46.899Z</time></trkpt><trkpt lat="45.9536223" lon="9.2751647"><ele>216.0</ele><time>2026-05-03T10:22:47.9Z</time></trkpt><trkpt lat="45.9535053" lon="9.2752239"><ele>216.0</ele><time>2026-05-03T10:22:48.892Z</time></trkpt><trkpt lat="45.9533907" lon="9.2752795"><ele>216.0</ele><time>2026-05-03T10:22:49.907Z</time></trkpt><trkpt lat="45.9532748" lon="9.275337"><ele>217.25</ele><time>2026-05-03T10:22:50.907Z</time></trkpt><trkpt lat="45.9531578" lon="9.2753983"><ele>218.5</ele><time>2026-05-03T10:22:51.908Z</time></trkpt><trkpt lat="45.9530373" lon="9.2754548"><ele>219.75</ele><time>2026-05-03T10:22:52.905Z</time></trkpt><trkpt lat="45.9529142" lon="9.2755019"><ele>221.0</ele><time>2026-05-03T10:22:53.897Z</time></trkpt><trkpt lat="45.9527928" lon="9.2755492"><ele>221.0</ele><time>2026-05-03T10:22:54.892Z</time></trkpt><trkpt lat="45.9526743" lon="9.2755812"><ele>221.0</ele><time>2026-05-03T10:22:55.905Z</time></trkpt><trkpt lat="45.9525555" lon="9.2756238"><ele>221.0</ele><time>2026-05-03T10:22:56.897Z</time></trkpt><trkpt lat="45.9524295" lon="9.275715"><ele>221.0</ele><time>2026-05-03T10:22:57.895Z</time></trkpt><trkpt lat="45.952299" lon="9.2758132"><ele>217.33333333333334</ele><time>2026-05-03T10:22:58.908Z</time></trkpt><trkpt lat="45.9521696" lon="9.2759061"><ele>213.66666666666669</ele><time>2026-05-03T10:22:59.9Z</time></trkpt><trkpt lat="45.9520186" lon="9.2759939"><ele>210.0</ele><time>2026-05-03T10:23:00.9Z</time></trkpt><trkpt lat="45.9518684" lon="9.276087"><ele>210.0</ele><time>2026-05-03T10:23:01.914Z</time></trkpt><trkpt lat="45.9517189" lon="9.2761785"><ele>210.0</ele><time>2026-05-03T10:23:02.916Z</time></trkpt><trkpt lat="45.9515669" lon="9.2762624"><ele>210.0</ele><time>2026-05-03T10:23:03.89Z</time></trkpt><trkpt lat="45.9514167" lon="9.2763436"><ele>210.25</ele><time>2026-05-03T10:23:04.892Z</time></trkpt><trkpt lat="45.9512697" lon="9.2763978"><ele>210.5</ele><time>2026-05-03T10:23:05.895Z</time></trkpt><trkpt lat="45.9511328" lon="9.2764595"><ele>210.75</ele><time>2026-05-03T10:23:06.906Z</time></trkpt><trkpt lat="45.9510184" lon="9.2765398"><ele>211.0</ele><time>2026-05-03T10:23:07.901Z</time></trkpt><trkpt lat="45.950913" lon="9.2766621"><ele>214.66666666666666</ele><time>2026-05-03T10:23:08.901Z</time></trkpt><trkpt lat="45.9507922" lon="9.2767877"><ele>218.33333333333331</ele><time>2026-05-03T10:23:09.894Z</time></trkpt><trkpt lat="45.9506494" lon="9.2768842"><ele>222.0</ele><time>2026-05-03T10:23:10.898Z</time></trkpt><trkpt lat="45.9505047" lon="9.2769609"><ele>222.0</ele><time>2026-05-03T10:23:11.912Z</time></trkpt><trkpt lat="45.9503585" lon="9.2770231"><ele>222.0</ele><time>2026-05-03T10:23:12.947Z</time></trkpt><trkpt lat="45.9502073" lon="9.2770642"><ele>222.0</ele><time>2026-05-03T10:23:13.897Z</time></trkpt><trkpt lat="45.950059" lon="9.277086"><ele>227.25</ele><time>2026-05-03T10:23:14.897Z</time></trkpt><trkpt lat="45.9499034" lon="9.2771182"><ele>232.5</ele><time>2026-05-03T10:23:15.897Z</time></trkpt><trkpt lat="45.9497639" lon="9.2771533"><ele>237.75</ele><time>2026-05-03T10:23:16.893Z</time></trkpt><trkpt lat="45.9496348" lon="9.2771904"><ele>243.0</ele><time>2026-05-03T10:23:17.897Z</time></trkpt><trkpt lat="45.9495141" lon="9.2772559"><ele>237.25</ele><time>2026-05-03T10:23:18.924Z</time></trkpt><trkpt lat="45.9494006" lon="9.2773375"><ele>231.5</ele><time>2026-05-03T10:23:19.893Z</time></trkpt><trkpt lat="45.9492888" lon="9.2774202"><ele>225.75</ele><time>2026-05-03T10:23:20.927Z</time></trkpt><trkpt lat="45.9491747" lon="9.277491"><ele>220.0</ele><time>2026-05-03T10:23:21.902Z</time></trkpt><trkpt lat="45.9490603" lon="9.2775623"><ele>220.0</ele><time>2026-05-03T10:23:22.92Z</time></trkpt><trkpt lat="45.9489423" lon="9.277627"><ele>220.0</ele><time>2026-05-03T10:23:23.891Z</time></trkpt><trkpt lat="45.9488171" lon="9.2776616"><ele>220.0</ele><time>2026-05-03T10:23:24.894Z</time></trkpt><trkpt lat="45.9486849" lon="9.2776733"><ele>220.0</ele><time>2026-05-03T10:23:25.894Z</time></trkpt><trkpt lat="45.9485585" lon="9.2776607"><ele>220.0</ele><time>2026-05-03T10:23:26.897Z</time></trkpt><trkpt lat="45.9484462" lon="9.2776414"><ele>220.0</ele><time>2026-05-03T10:23:27.903Z</time></trkpt><trkpt lat="45.9483423" lon="9.2776276"><ele>220.0</ele><time>2026-05-03T10:23:28.905Z</time></trkpt><trkpt lat="45.948249" lon="9.2776306"><ele>220.0</ele><time>2026-05-03T10:23:29.901Z</time></trkpt><trkpt lat="45.9481598" lon="9.2776378"><ele>220.0</ele><time>2026-05-03T10:23:30.896Z</time></trkpt><trkpt lat="45.9480825" lon="9.2776973"><ele>222.4</ele><time>2026-05-03T10:23:31.899Z</time></trkpt><trkpt lat="45.9479968" lon="9.2777817"><ele>224.8</ele><time>2026-05-03T10:23:32.919Z</time></trkpt><trkpt lat="45.9479039" lon="9.2778434"><ele>227.2</ele><time>2026-05-03T10:23:33.895Z</time></trkpt><trkpt lat="45.9478123" lon="9.2778787"><ele>229.6</ele><time>2026-05-03T10:23:34.912Z</time></trkpt><trkpt lat="45.947718" lon="9.2779158"><ele>232.0</ele><time>2026-05-03T10:23:35.895Z</time></trkpt><trkpt lat="45.9476289" lon="9.2779456"><ele>235.42857142857144</ele><time>2026-05-03T10:23:36.891Z</time></trkpt><trkpt lat="45.947535" lon="9.2779495"><ele>238.85714285714286</ele><time>2026-05-03T10:23:37.905Z</time></trkpt><trkpt lat="45.9474526" lon="9.2779368"><ele>242.28571428571428</ele><time>2026-05-03T10:23:38.895Z</time></trkpt><trkpt lat="45.947383" lon="9.2779343"><ele>245.71428571428572</ele><time>2026-05-03T10:23:39.905Z</time></trkpt><trkpt lat="45.947317" lon="9.2779379"><ele>249.1428571428571</ele><time>2026-05-03T10:23:40.891Z</time></trkpt><trkpt lat="45.947252" lon="9.2779327"><ele>252.57142857142856</ele><time>2026-05-03T10:23:41.895Z</time></trkpt><trkpt lat="45.9471806" lon="9.2779294"><ele>256.0</ele><time>2026-05-03T10:23:42.897Z</time></trkpt><trkpt lat="45.9471145" lon="9.2779421"><ele>255.99999999999997</ele><time>2026-05-03T10:23:43.898Z</time></trkpt><trkpt lat="45.9470525" lon="9.2779591"><ele>256.0</ele><time>2026-05-03T10:23:44.899Z</time></trkpt><trkpt lat="45.9469888" lon="9.2779832"><ele>256.0</ele><time>2026-05-03T10:23:45.907Z</time></trkpt><trkpt lat="45.946928" lon="9.2780236"><ele>256.0</ele><time>2026-05-03T10:23:46.908Z</time></trkpt><trkpt lat="45.9468729" lon="9.2780739"><ele>255.99999999999997</ele><time>2026-05-03T10:23:47.904Z</time></trkpt><trkpt lat="45.9467843" lon="9.2781965"><ele>256.0</ele><time>2026-05-03T10:23:49.904Z</time></trkpt><trkpt lat="45.9467078" lon="9.2783076"><ele>251.4</ele><time>2026-05-03T10:23:51.895Z</time></trkpt><trkpt lat="45.9466188" lon="9.2784108"><ele>246.8</ele><time>2026-05-03T10:23:53.901Z</time></trkpt><trkpt lat="45.9465481" lon="9.2784369"><ele>242.20000000000002</ele><time>2026-05-03T10:23:54.901Z</time></trkpt><trkpt lat="45.9464719" lon="9.2784603"><ele>237.60000000000002</ele><time>2026-05-03T10:23:55.892Z</time></trkpt><trkpt lat="45.9463823" lon="9.2784835"><ele>233.0</ele><time>2026-05-03T10:23:56.902Z</time></trkpt><trkpt lat="45.9462897" lon="9.2785127"><ele>233.0</ele><time>2026-05-03T10:23:57.902Z</time></trkpt><trkpt lat="45.9461955" lon="9.2785471"><ele>233.0</ele><time>2026-05-03T10:23:58.903Z</time></trkpt><trkpt lat="45.9460977" lon="9.278585"><ele>233.0</ele><time>2026-05-03T10:23:59.905Z</time></trkpt><trkpt lat="45.945993" lon="9.2786242"><ele>233.0</ele><time>2026-05-03T10:24:00.9Z</time></trkpt><trkpt lat="45.9458834" lon="9.2786473"><ele>233.0</ele><time>2026-05-03T10:24:01.905Z</time></trkpt><trkpt lat="45.9457706" lon="9.2786671"><ele>233.60000000000002</ele><time>2026-05-03T10:24:02.899Z</time></trkpt><trkpt lat="45.9456654" lon="9.2786967"><ele>234.20000000000002</ele><time>2026-05-03T10:24:03.902Z</time></trkpt><trkpt lat="45.9455618" lon="9.2787416"><ele>234.8</ele><time>2026-05-03T10:24:04.896Z</time></trkpt><trkpt lat="45.9454596" lon="9.2787843"><ele>235.4</ele><time>2026-05-03T10:24:05.894Z</time></trkpt><trkpt lat="45.9453655" lon="9.2788368"><ele>236.0</ele><time>2026-05-03T10:24:06.9Z</time></trkpt><trkpt lat="45.945274" lon="9.2788828"><ele>236.00000000000003</ele><time>2026-05-03T10:24:07.904Z</time></trkpt><trkpt lat="45.9451854" lon="9.2789217"><ele>236.0</ele><time>2026-05-03T10:24:08.899Z</time></trkpt><trkpt lat="45.9450989" lon="9.2789451"><ele>236.0</ele><time>2026-05-03T10:24:09.899Z</time></trkpt><trkpt lat="45.9450216" lon="9.2789599"><ele>236.0</ele><time>2026-05-03T10:24:10.899Z</time></trkpt><trkpt lat="45.9449505" lon="9.2789705"><ele>236.00000000000003</ele><time>2026-05-03T10:24:11.906Z</time></trkpt><trkpt lat="45.9448379" lon="9.2789899"><ele>236.0</ele><time>2026-05-03T10:24:13.907Z</time></trkpt><trkpt lat="45.944756" lon="9.2789908"><ele>236.0</ele><time>2026-05-03T10:24:15.902Z</time></trkpt><trkpt lat="45.9446854" lon="9.2789991"><ele>236.0</ele><time>2026-05-03T10:24:17.911Z</time></trkpt><trkpt lat="45.944598" lon="9.2790143"><ele>236.0</ele><time>2026-05-03T10:24:20.903Z</time></trkpt><trkpt lat="45.9445292" lon="9.279026"><ele>236.0</ele><time>2026-05-03T10:24:22.893Z</time></trkpt><trkpt lat="45.9444626" lon="9.2790317"><ele>236.0</ele><time>2026-05-03T10:24:24.904Z</time></trkpt><trkpt lat="45.9443895" lon="9.2790389"><ele>236.0</ele><time>2026-05-03T10:24:27.904Z</time></trkpt><trkpt lat="45.94432" lon="9.279045"><ele>236.0</ele><time>2026-05-03T10:24:45.906Z</time></trkpt><trkpt lat="45.9442344" lon="9.2790879"><ele>236.00000000000003</ele><time>2026-05-03T10:24:47.899Z</time></trkpt><trkpt lat="45.9441547" lon="9.2790881"><ele>236.0</ele><time>2026-05-03T10:24:48.917Z</time></trkpt><trkpt lat="45.9440571" lon="9.2790913"><ele>236.0</ele><time>2026-05-03T10:24:49.895Z</time></trkpt><trkpt lat="45.9439758" lon="9.2791056"><ele>236.0</ele><time>2026-05-03T10:24:50.908Z</time></trkpt><trkpt lat="45.9438937" lon="9.2791203"><ele>236.00000000000003</ele><time>2026-05-03T10:24:51.902Z</time></trkpt><trkpt lat="45.9438317" lon="9.279136"><ele>236.0</ele><time>2026-05-03T10:24:52.91Z</time></trkpt><trkpt lat="45.9437386" lon="9.2791872"><ele>236.00000000000003</ele><time>2026-05-03T10:24:54.907Z</time></trkpt><trkpt lat="45.9436706" lon="9.2792312"><ele>236.0</ele><time>2026-05-03T10:24:57.912Z</time></trkpt><trkpt lat="45.9436229" lon="9.2793149"><ele>236.0</ele><time>2026-05-03T10:25:11.893Z</time></trkpt><trkpt lat="45.9435542" lon="9.2793708"><ele>236.0</ele><time>2026-05-03T10:25:15.91Z</time></trkpt><trkpt lat="45.9434975" lon="9.2794435"><ele>236.00000000000003</ele><time>2026-05-03T10:25:19.905Z</time></trkpt><trkpt lat="45.9434473" lon="9.2795009"><ele>236.0</ele><time>2026-05-03T10:25:22.888Z</time></trkpt><trkpt lat="45.9433908" lon="9.2795907"><ele>236.66666666666669</ele><time>2026-05-03T10:25:24.907Z</time></trkpt><trkpt lat="45.9433124" lon="9.2797264"><ele>237.33333333333334</ele><time>2026-05-03T10:25:26.894Z</time></trkpt><trkpt lat="45.9432535" lon="9.2798535"><ele>238.0</ele><time>2026-05-03T10:25:28.892Z</time></trkpt><trkpt lat="45.9432119" lon="9.2799266"><ele>238.66666666666669</ele><time>2026-05-03T10:25:29.905Z</time></trkpt><trkpt lat="45.9431633" lon="9.280009"><ele>239.33333333333334</ele><time>2026-05-03T10:25:30.907Z</time></trkpt><trkpt lat="45.9431081" lon="9.280088"><ele>240.0</ele><time>2026-05-03T10:25:31.888Z</time></trkpt><trkpt lat="45.9430416" lon="9.2801582"><ele>234.8</ele><time>2026-05-03T10:25:32.891Z</time></trkpt><trkpt lat="45.9429561" lon="9.2802164"><ele>229.6</ele><time>2026-05-03T10:25:33.896Z</time></trkpt><trkpt lat="45.9428601" lon="9.2802685"><ele>224.39999999999998</ele><time>2026-05-03T10:25:34.893Z</time></trkpt><trkpt lat="45.942771" lon="9.2803092"><ele>219.2</ele><time>2026-05-03T10:25:35.911Z</time></trkpt><trkpt lat="45.9426777" lon="9.280334"><ele>214.0</ele><time>2026-05-03T10:25:36.894Z</time></trkpt><trkpt lat="45.9425821" lon="9.2803634"><ele>213.39999999999998</ele><time>2026-05-03T10:25:37.905Z</time></trkpt><trkpt lat="45.9424899" lon="9.2803969"><ele>212.79999999999998</ele><time>2026-05-03T10:25:38.899Z</time></trkpt><trkpt lat="45.9424156" lon="9.2804514"><ele>212.2</ele><time>2026-05-03T10:25:39.896Z</time></trkpt><trkpt lat="45.942331" lon="9.2805341"><ele>211.60000000000002</ele><time>2026-05-03T10:25:40.901Z</time></trkpt><trkpt lat="45.9422428" lon="9.2806236"><ele>211.0</ele><time>2026-05-03T10:25:41.912Z</time></trkpt><trkpt lat="45.9421363" lon="9.2807312"><ele>211.0</ele><time>2026-05-03T10:25:42.898Z</time></trkpt><trkpt lat="45.9419983" lon="9.2808709"><ele>211.0</ele><time>2026-05-03T10:25:43.898Z</time></trkpt><trkpt lat="45.9418587" lon="9.2810028"><ele>211.0</ele><time>2026-05-03T10:25:44.9Z</time></trkpt><trkpt lat="45.9417236" lon="9.2811225"><ele>209.0</ele><time>2026-05-03T10:25:45.89Z</time></trkpt><trkpt lat="45.9415951" lon="9.2812227"><ele>207.0</ele><time>2026-05-03T10:25:46.909Z</time></trkpt><trkpt lat="45.9414823" lon="9.2813123"><ele>205.0</ele><time>2026-05-03T10:25:47.908Z</time></trkpt><trkpt lat="45.9413758" lon="9.2813935"><ele>203.0</ele><time>2026-05-03T10:25:48.888Z</time></trkpt><trkpt lat="45.9412856" lon="9.2814653"><ele>203.00000000000003</ele><time>2026-05-03T10:25:49.906Z</time></trkpt><trkpt lat="45.9412081" lon="9.281532"><ele>203.0</ele><time>2026-05-03T10:25:50.909Z</time></trkpt><trkpt lat="45.9411402" lon="9.2815977"><ele>203.0</ele><time>2026-05-03T10:25:51.897Z</time></trkpt><trkpt lat="45.9410762" lon="9.2816633"><ele>203.0</ele><time>2026-05-03T10:25:52.897Z</time></trkpt><trkpt lat="45.9410039" lon="9.2817244"><ele>203.00000000000003</ele><time>2026-05-03T10:25:53.892Z</time></trkpt><trkpt lat="45.940935" lon="9.281788"><ele>203.0</ele><time>2026-05-03T10:25:54.9Z</time></trkpt><trkpt lat="45.9408581" lon="9.2818462"><ele>208.00000000000003</ele><time>2026-05-03T10:25:55.902Z</time></trkpt><trkpt lat="45.9407822" lon="9.2818925"><ele>213.0</ele><time>2026-05-03T10:25:56.902Z</time></trkpt><trkpt lat="45.9407062" lon="9.2819349"><ele>218.0</ele><time>2026-05-03T10:25:57.891Z</time></trkpt><trkpt lat="45.9406363" lon="9.2819737"><ele>223.0</ele><time>2026-05-03T10:25:58.902Z</time></trkpt><trkpt lat="45.9405777" lon="9.2820112"><ele>228.00000000000003</ele><time>2026-05-03T10:25:59.932Z</time></trkpt><trkpt lat="45.9404645" lon="9.2820795"><ele>233.0</ele><time>2026-05-03T10:26:01.901Z</time></trkpt><trkpt lat="45.9403424" lon="9.282141"><ele>233.00000000000003</ele><time>2026-05-03T10:26:03.908Z</time></trkpt><trkpt lat="45.9402762" lon="9.2821612"><ele>233.0</ele><time>2026-05-03T10:26:04.89Z</time></trkpt><trkpt lat="45.940209" lon="9.2821806"><ele>233.0</ele><time>2026-05-03T10:26:05.901Z</time></trkpt><trkpt lat="45.9401329" lon="9.2821989"><ele>233.0</ele><time>2026-05-03T10:26:06.901Z</time></trkpt><trkpt lat="45.9400474" lon="9.2822046"><ele>233.00000000000003</ele><time>2026-05-03T10:26:07.897Z</time></trkpt><trkpt lat="45.9399459" lon="9.282209"><ele>233.0</ele><time>2026-05-03T10:26:08.903Z</time></trkpt><trkpt lat="45.9398494" lon="9.2822121"><ele>234.00000000000003</ele><time>2026-05-03T10:26:09.883Z</time></trkpt><trkpt lat="45.9397656" lon="9.2822121"><ele>235.0</ele><time>2026-05-03T10:26:10.903Z</time></trkpt><trkpt lat="45.9396932" lon="9.282212"><ele>236.0</ele><time>2026-05-03T10:26:11.889Z</time></trkpt><trkpt lat="45.9396274" lon="9.2822135"><ele>237.0</ele><time>2026-05-03T10:26:12.898Z</time></trkpt><trkpt lat="45.9395274" lon="9.2822239"><ele>238.00000000000003</ele><time>2026-05-03T10:26:14.892Z</time></trkpt><trkpt lat="45.9394434" lon="9.2822281"><ele>239.0</ele><time>2026-05-03T10:26:16.906Z</time></trkpt><trkpt lat="45.9393555" lon="9.2822273"><ele>239.0</ele><time>2026-05-03T10:26:18.898Z</time></trkpt><trkpt lat="45.9392599" lon="9.2822368"><ele>238.99999999999997</ele><time>2026-05-03T10:26:20.897Z</time></trkpt><trkpt lat="45.9391428" lon="9.2822507"><ele>238.99999999999997</ele><time>2026-05-03T10:26:22.902Z</time></trkpt><trkpt lat="45.9390649" lon="9.282252"><ele>239.0</ele><time>2026-05-03T10:26:23.903Z</time></trkpt><trkpt lat="45.9389988" lon="9.2822557"><ele>239.0</ele><time>2026-05-03T10:26:24.892Z</time></trkpt><trkpt lat="45.9388766" lon="9.2822566"><ele>235.83333333333334</ele><time>2026-05-03T10:26:26.896Z</time></trkpt><trkpt lat="45.9387556" lon="9.2822316"><ele>232.66666666666669</ele><time>2026-05-03T10:26:28.903Z</time></trkpt><trkpt lat="45.93869" lon="9.2822206"><ele>229.5</ele><time>2026-05-03T10:26:29.895Z</time></trkpt><trkpt lat="45.938625" lon="9.2822326"><ele>226.33333333333331</ele><time>2026-05-03T10:26:30.895Z</time></trkpt><trkpt lat="45.9385114" lon="9.2822883"><ele>223.16666666666666</ele><time>2026-05-03T10:26:32.888Z</time></trkpt><trkpt lat="45.9384514" lon="9.2823244"><ele>220.0</ele><time>2026-05-03T10:26:34.889Z</time></trkpt><trkpt lat="45.9383785" lon="9.2823804"><ele>219.99999999999997</ele><time>2026-05-03T10:27:10.9Z</time></trkpt><trkpt lat="45.9383257" lon="9.2824298"><ele>220.0</ele><time>2026-05-03T10:27:12.901Z</time></trkpt><trkpt lat="45.9382497" lon="9.282478"><ele>220.0</ele><time>2026-05-03T10:27:32.889Z</time></trkpt><trkpt lat="45.938159" lon="9.282488"><ele>220.0</ele><time>2026-05-03T10:27:35.901Z</time></trkpt><trkpt lat="45.9380929" lon="9.2824858"><ele>219.99999999999997</ele><time>2026-05-03T10:27:38.898Z</time></trkpt><trkpt lat="45.9380068" lon="9.2824663"><ele>220.0</ele><time>2026-05-03T10:28:02.901Z</time></trkpt><trkpt lat="45.9379212" lon="9.2824354"><ele>220.0</ele><time>2026-05-03T10:28:05.897Z</time></trkpt><trkpt lat="45.9378118" lon="9.2824195"><ele>220.0</ele><time>2026-05-03T10:28:08.896Z</time></trkpt><trkpt lat="45.9377458" lon="9.2824145"><ele>220.0</ele><time>2026-05-03T10:28:09.887Z</time></trkpt><trkpt lat="45.9376604" lon="9.2824107"><ele>220.0</ele><time>2026-05-03T10:28:10.905Z</time></trkpt><trkpt lat="45.9375442" lon="9.2823752"><ele>220.0</ele><time>2026-05-03T10:28:11.894Z</time></trkpt><trkpt lat="45.937424" lon="9.2823601"><ele>221.5</ele><time>2026-05-03T10:28:12.895Z</time></trkpt><trkpt lat="45.9372987" lon="9.2823575"><ele>223.0</ele><time>2026-05-03T10:28:13.893Z</time></trkpt><trkpt lat="45.9371675" lon="9.2823531"><ele>224.5</ele><time>2026-05-03T10:28:14.905Z</time></trkpt><trkpt lat="45.9370184" lon="9.2823509"><ele>226.0</ele><time>2026-05-03T10:28:15.898Z</time></trkpt><trkpt lat="45.9368576" lon="9.2823537"><ele>223.0</ele><time>2026-05-03T10:28:16.904Z</time></trkpt><trkpt lat="45.9367166" lon="9.2823584"><ele>220.0</ele><time>2026-05-03T10:28:17.905Z</time></trkpt><trkpt lat="45.9365858" lon="9.2823683"><ele>217.0</ele><time>2026-05-03T10:28:18.897Z</time></trkpt><trkpt lat="45.936455" lon="9.2824045"><ele>214.0</ele><time>2026-05-03T10:28:19.895Z</time></trkpt><trkpt lat="45.936321" lon="9.2824549"><ele>214.0</ele><time>2026-05-03T10:28:20.894Z</time></trkpt><trkpt lat="45.9361886" lon="9.2824975"><ele>214.0</ele><time>2026-05-03T10:28:21.89Z</time></trkpt><trkpt lat="45.9360487" lon="9.2825306"><ele>214.0</ele><time>2026-05-03T10:28:22.899Z</time></trkpt><trkpt lat="45.9358764" lon="9.2824997"><ele>212.0</ele><time>2026-05-03T10:28:23.909Z</time></trkpt><trkpt lat="45.9357022" lon="9.2824642"><ele>210.0</ele><time>2026-05-03T10:28:24.907Z</time></trkpt><trkpt lat="45.9355262" lon="9.2824615"><ele>208.0</ele><time>2026-05-03T10:28:25.894Z</time></trkpt><trkpt lat="45.9353457" lon="9.2824921"><ele>208.0</ele><time>2026-05-03T10:28:26.902Z</time></trkpt><trkpt lat="45.9351652" lon="9.2825339"><ele>208.0</ele><time>2026-05-03T10:28:27.9Z</time></trkpt><trkpt lat="45.934989" lon="9.28258"><ele>208.0</ele><time>2026-05-03T10:28:28.909Z</time></trkpt><trkpt lat="45.9348249" lon="9.2826264"><ele>209.33333333333331</ele><time>2026-05-03T10:28:29.909Z</time></trkpt><trkpt lat="45.9346641" lon="9.2826717"><ele>210.66666666666669</ele><time>2026-05-03T10:28:30.894Z</time></trkpt><trkpt lat="45.934522" lon="9.2827532"><ele>212.0</ele><time>2026-05-03T10:28:31.905Z</time></trkpt><trkpt lat="45.934391" lon="9.2828618"><ele>212.0</ele><time>2026-05-03T10:28:32.904Z</time></trkpt><trkpt lat="45.9342581" lon="9.2829738"><ele>212.0</ele><time>2026-05-03T10:28:33.892Z</time></trkpt><trkpt lat="45.9341429" lon="9.2830977"><ele>212.0</ele><time>2026-05-03T10:28:34.917Z</time></trkpt><trkpt lat="45.9340373" lon="9.2832159"><ele>212.0</ele><time>2026-05-03T10:28:35.893Z</time></trkpt><trkpt lat="45.9339379" lon="9.2833324"><ele>210.0</ele><time>2026-05-03T10:28:36.896Z</time></trkpt><trkpt lat="45.9338428" lon="9.2834471"><ele>208.0</ele><time>2026-05-03T10:28:37.892Z</time></trkpt><trkpt lat="45.9337415" lon="9.2835463"><ele>206.0</ele><time>2026-05-03T10:28:38.912Z</time></trkpt><trkpt lat="45.9336263" lon="9.2836229"><ele>204.0</ele><time>2026-05-03T10:28:39.91Z</time></trkpt><trkpt lat="45.9335029" lon="9.2836848"><ele>206.66666666666669</ele><time>2026-05-03T10:28:40.892Z</time></trkpt><trkpt lat="45.9333474" lon="9.2837119"><ele>209.33333333333334</ele><time>2026-05-03T10:28:41.903Z</time></trkpt><trkpt lat="45.933163" lon="9.283743"><ele>212.0</ele><time>2026-05-03T10:28:42.904Z</time></trkpt><trkpt lat="45.9329615" lon="9.2837784"><ele>212.0</ele><time>2026-05-03T10:28:43.907Z</time></trkpt><trkpt lat="45.9327804" lon="9.2838018"><ele>212.0</ele><time>2026-05-03T10:28:44.905Z</time></trkpt><trkpt lat="45.9326107" lon="9.2838212"><ele>212.0</ele><time>2026-05-03T10:28:45.906Z</time></trkpt><trkpt lat="45.9324434" lon="9.2838379"><ele>214.0</ele><time>2026-05-03T10:28:46.907Z</time></trkpt><trkpt lat="45.9322718" lon="9.2838269"><ele>216.0</ele><time>2026-05-03T10:28:47.904Z</time></trkpt><trkpt lat="45.9320975" lon="9.2837843"><ele>218.0</ele><time>2026-05-03T10:28:48.904Z</time></trkpt><trkpt lat="45.9319333" lon="9.2837436"><ele>218.0</ele><time>2026-05-03T10:28:49.91Z</time></trkpt><trkpt lat="45.9317812" lon="9.2837171"><ele>218.0</ele><time>2026-05-03T10:28:50.892Z</time></trkpt><trkpt lat="45.9316336" lon="9.2837044"><ele>218.0</ele><time>2026-05-03T10:28:51.893Z</time></trkpt><trkpt lat="45.931476" lon="9.2837194"><ele>219.0</ele><time>2026-05-03T10:28:52.899Z</time></trkpt><trkpt lat="45.9313242" lon="9.2837555"><ele>220.0</ele><time>2026-05-03T10:28:53.906Z</time></trkpt><trkpt lat="45.9311673" lon="9.2838113"><ele>221.0</ele><time>2026-05-03T10:28:54.908Z</time></trkpt><trkpt lat="45.9310077" lon="9.2838771"><ele>218.0</ele><time>2026-05-03T10:28:55.906Z</time></trkpt><trkpt lat="45.9308458" lon="9.2839385"><ele>215.0</ele><time>2026-05-03T10:28:56.893Z</time></trkpt><trkpt lat="45.9306912" lon="9.2840088"><ele>212.0</ele><time>2026-05-03T10:28:57.91Z</time></trkpt><trkpt lat="45.9305539" lon="9.2841213"><ele>212.0</ele><time>2026-05-03T10:28:58.89Z</time></trkpt><trkpt lat="45.9304106" lon="9.2842479"><ele>212.0</ele><time>2026-05-03T10:28:59.92Z</time></trkpt><trkpt lat="45.9302649" lon="9.2843586"><ele>212.0</ele><time>2026-05-03T10:29:00.902Z</time></trkpt><trkpt lat="45.9301217" lon="9.2844451"><ele>212.33333333333334</ele><time>2026-05-03T10:29:01.891Z</time></trkpt><trkpt lat="45.9299875" lon="9.2845271"><ele>212.66666666666669</ele><time>2026-05-03T10:29:02.893Z</time></trkpt><trkpt lat="45.9298345" lon="9.2845471"><ele>213.0</ele><time>2026-05-03T10:29:03.901Z</time></trkpt><trkpt lat="45.9296657" lon="9.2845577"><ele>213.0</ele><time>2026-05-03T10:29:04.895Z</time></trkpt><trkpt lat="45.9294967" lon="9.2845687"><ele>213.0</ele><time>2026-05-03T10:29:05.902Z</time></trkpt><trkpt lat="45.9293368" lon="9.2845777"><ele>213.0</ele><time>2026-05-03T10:29:06.909Z</time></trkpt><trkpt lat="45.929174" lon="9.2845922"><ele>213.66666666666669</ele><time>2026-05-03T10:29:07.905Z</time></trkpt><trkpt lat="45.9290167" lon="9.2846104"><ele>214.33333333333334</ele><time>2026-05-03T10:29:08.885Z</time></trkpt><trkpt lat="45.928861" lon="9.2846412"><ele>215.0</ele><time>2026-05-03T10:29:09.888Z</time></trkpt><trkpt lat="45.928714" lon="9.2847056"><ele>213.66666666666669</ele><time>2026-05-03T10:29:10.903Z</time></trkpt><trkpt lat="45.9285672" lon="9.2847814"><ele>212.33333333333331</ele><time>2026-05-03T10:29:11.898Z</time></trkpt><trkpt lat="45.9284108" lon="9.2849282"><ele>211.0</ele><time>2026-05-03T10:29:12.882Z</time></trkpt><trkpt lat="45.9282539" lon="9.285088"><ele>211.0</ele><time>2026-05-03T10:29:13.896Z</time></trkpt><trkpt lat="45.9280879" lon="9.2852285"><ele>211.0</ele><time>2026-05-03T10:29:14.893Z</time></trkpt><trkpt lat="45.9279262" lon="9.2853476"><ele>211.0</ele><time>2026-05-03T10:29:15.896Z</time></trkpt><trkpt lat="45.9277725" lon="9.285436"><ele>211.0</ele><time>2026-05-03T10:29:16.876Z</time></trkpt><trkpt lat="45.9276133" lon="9.2854698"><ele>211.0</ele><time>2026-05-03T10:29:17.894Z</time></trkpt><trkpt lat="45.9274493" lon="9.2854882"><ele>211.0</ele><time>2026-05-03T10:29:18.894Z</time></trkpt><trkpt lat="45.9272657" lon="9.2854653"><ele>211.0</ele><time>2026-05-03T10:29:19.897Z</time></trkpt><trkpt lat="45.9270688" lon="9.2854154"><ele>211.0</ele><time>2026-05-03T10:29:20.894Z</time></trkpt><trkpt lat="45.9268658" lon="9.2853686"><ele>211.0</ele><time>2026-05-03T10:29:21.894Z</time></trkpt><trkpt lat="45.9266596" lon="9.2853299"><ele>211.0</ele><time>2026-05-03T10:29:22.905Z</time></trkpt><trkpt lat="45.9264574" lon="9.2852936"><ele>211.0</ele><time>2026-05-03T10:29:23.895Z</time></trkpt><trkpt lat="45.9262662" lon="9.2852514"><ele>211.0</ele><time>2026-05-03T10:29:24.9Z</time></trkpt><trkpt lat="45.9260912" lon="9.2852106"><ele>211.0</ele><time>2026-05-03T10:29:25.899Z</time></trkpt><trkpt lat="45.9259201" lon="9.2851734"><ele>211.0</ele><time>2026-05-03T10:29:26.895Z</time></trkpt><trkpt lat="45.925772" lon="9.2851645"><ele>211.0</ele><time>2026-05-03T10:29:27.905Z</time></trkpt><trkpt lat="45.9256202" lon="9.2852215"><ele>212.66666666666666</ele><time>2026-05-03T10:29:28.896Z</time></trkpt><trkpt lat="45.9254634" lon="9.2853118"><ele>214.33333333333331</ele><time>2026-05-03T10:29:29.893Z</time></trkpt><trkpt lat="45.9253195" lon="9.2854235"><ele>216.0</ele><time>2026-05-03T10:29:30.906Z</time></trkpt><trkpt lat="45.9251796" lon="9.2855892"><ele>214.33333333333331</ele><time>2026-05-03T10:29:31.889Z</time></trkpt><trkpt lat="45.9250469" lon="9.2857485"><ele>212.66666666666666</ele><time>2026-05-03T10:29:32.894Z</time></trkpt><trkpt lat="45.9249188" lon="9.2859101"><ele>211.0</ele><time>2026-05-03T10:29:33.892Z</time></trkpt><trkpt lat="45.9247606" lon="9.28604"><ele>211.0</ele><time>2026-05-03T10:29:34.899Z</time></trkpt><trkpt lat="45.9245761" lon="9.2861501"><ele>211.0</ele><time>2026-05-03T10:29:35.886Z</time></trkpt><trkpt lat="45.9243726" lon="9.2862872"><ele>211.0</ele><time>2026-05-03T10:29:36.9Z</time></trkpt><trkpt lat="45.9241695" lon="9.2864208"><ele>209.66666666666666</ele><time>2026-05-03T10:29:37.9Z</time></trkpt><trkpt lat="45.9239856" lon="9.28654"><ele>208.33333333333331</ele><time>2026-05-03T10:29:38.895Z</time></trkpt><trkpt lat="45.9238042" lon="9.2866693"><ele>207.0</ele><time>2026-05-03T10:29:39.896Z</time></trkpt><trkpt lat="45.9236444" lon="9.2868275"><ele>207.0</ele><time>2026-05-03T10:29:40.889Z</time></trkpt><trkpt lat="45.9234925" lon="9.2870096"><ele>207.0</ele><time>2026-05-03T10:29:41.893Z</time></trkpt><trkpt lat="45.9233402" lon="9.2871695"><ele>207.0</ele><time>2026-05-03T10:29:42.893Z</time></trkpt><trkpt lat="45.923194" lon="9.2873091"><ele>208.0</ele><time>2026-05-03T10:29:43.891Z</time></trkpt><trkpt lat="45.9230486" lon="9.2874306"><ele>209.0</ele><time>2026-05-03T10:29:44.899Z</time></trkpt><trkpt lat="45.9229116" lon="9.2875393"><ele>210.0</ele><time>2026-05-03T10:29:45.902Z</time></trkpt><trkpt lat="45.9227787" lon="9.2876063"><ele>210.0</ele><time>2026-05-03T10:29:46.89Z</time></trkpt><trkpt lat="45.9226462" lon="9.2876417"><ele>210.0</ele><time>2026-05-03T10:29:47.886Z</time></trkpt><trkpt lat="45.9225014" lon="9.2876445"><ele>210.0</ele><time>2026-05-03T10:29:48.897Z</time></trkpt><trkpt lat="45.9223452" lon="9.2876343"><ele>210.0</ele><time>2026-05-03T10:29:49.894Z</time></trkpt><trkpt lat="45.9221846" lon="9.2876468"><ele>213.75</ele><time>2026-05-03T10:29:50.891Z</time></trkpt><trkpt lat="45.922034" lon="9.2876624"><ele>217.5</ele><time>2026-05-03T10:29:51.884Z</time></trkpt><trkpt lat="45.9218834" lon="9.287714"><ele>221.25</ele><time>2026-05-03T10:29:52.89Z</time></trkpt><trkpt lat="45.9217472" lon="9.2877766"><ele>225.0</ele><time>2026-05-03T10:29:53.889Z</time></trkpt><trkpt lat="45.9216106" lon="9.2878456"><ele>227.25</ele><time>2026-05-03T10:29:54.902Z</time></trkpt><trkpt lat="45.9214769" lon="9.2879056"><ele>229.5</ele><time>2026-05-03T10:29:55.886Z</time></trkpt><trkpt lat="45.9213482" lon="9.2879731"><ele>231.75</ele><time>2026-05-03T10:29:56.889Z</time></trkpt><trkpt lat="45.9212298" lon="9.2880589"><ele>234.0</ele><time>2026-05-03T10:29:57.897Z</time></trkpt><trkpt lat="45.9211105" lon="9.2881618"><ele>228.33333333333331</ele><time>2026-05-03T10:29:58.891Z</time></trkpt><trkpt lat="45.9209879" lon="9.2882678"><ele>222.66666666666666</ele><time>2026-05-03T10:29:59.889Z</time></trkpt><trkpt lat="45.9208604" lon="9.2883922"><ele>217.0</ele><time>2026-05-03T10:30:00.891Z</time></trkpt><trkpt lat="45.9207187" lon="9.288514"><ele>217.0</ele><time>2026-05-03T10:30:01.893Z</time></trkpt><trkpt lat="45.9205835" lon="9.2886346"><ele>217.0</ele><time>2026-05-03T10:30:02.891Z</time></trkpt><trkpt lat="45.9204519" lon="9.2887555"><ele>217.0</ele><time>2026-05-03T10:30:03.892Z</time></trkpt><trkpt lat="45.9203297" lon="9.2888775"><ele>215.25</ele><time>2026-05-03T10:30:04.893Z</time></trkpt><trkpt lat="45.9202183" lon="9.2889891"><ele>213.5</ele><time>2026-05-03T10:30:05.875Z</time></trkpt><trkpt lat="45.9201191" lon="9.2890684"><ele>211.75</ele><time>2026-05-03T10:30:06.896Z</time></trkpt><trkpt lat="45.92001" lon="9.2891223"><ele>210.0</ele><time>2026-05-03T10:30:07.894Z</time></trkpt><trkpt lat="45.9198765" lon="9.2891518"><ele>210.0</ele><time>2026-05-03T10:30:08.899Z</time></trkpt><trkpt lat="45.9197196" lon="9.2891812"><ele>210.0</ele><time>2026-05-03T10:30:09.895Z</time></trkpt><trkpt lat="45.9195468" lon="9.2892291"><ele>210.0</ele><time>2026-05-03T10:30:10.886Z</time></trkpt><trkpt lat="45.9193791" lon="9.2892787"><ele>210.66666666666669</ele><time>2026-05-03T10:30:11.901Z</time></trkpt><trkpt lat="45.9192086" lon="9.2893131"><ele>211.33333333333334</ele><time>2026-05-03T10:30:12.887Z</time></trkpt><trkpt lat="45.9190578" lon="9.2893307"><ele>212.0</ele><time>2026-05-03T10:30:13.894Z</time></trkpt><trkpt lat="45.9189114" lon="9.2893672"><ele>212.0</ele><time>2026-05-03T10:30:14.895Z</time></trkpt><trkpt lat="45.9187714" lon="9.2894156"><ele>212.0</ele><time>2026-05-03T10:30:15.897Z</time></trkpt><trkpt lat="45.9186448" lon="9.2894924"><ele>212.0</ele><time>2026-05-03T10:30:16.897Z</time></trkpt><trkpt lat="45.9185293" lon="9.28959"><ele>212.0</ele><time>2026-05-03T10:30:17.894Z</time></trkpt><trkpt lat="45.9184245" lon="9.2897424"><ele>209.33333333333334</ele><time>2026-05-03T10:30:18.903Z</time></trkpt><trkpt lat="45.9182889" lon="9.2899152"><ele>206.66666666666669</ele><time>2026-05-03T10:30:19.901Z</time></trkpt><trkpt lat="45.9181389" lon="9.290041"><ele>204.0</ele><time>2026-05-03T10:30:20.892Z</time></trkpt><trkpt lat="45.9179889" lon="9.2901048"><ele>204.0</ele><time>2026-05-03T10:30:21.898Z</time></trkpt><trkpt lat="45.9178584" lon="9.2901981"><ele>204.0</ele><time>2026-05-03T10:30:22.896Z</time></trkpt><trkpt lat="45.917744" lon="9.2903385"><ele>204.0</ele><time>2026-05-03T10:30:23.884Z</time></trkpt><trkpt lat="45.9176226" lon="9.2904918"><ele>205.0</ele><time>2026-05-03T10:30:24.89Z</time></trkpt><trkpt lat="45.9175106" lon="9.290633"><ele>206.0</ele><time>2026-05-03T10:30:25.896Z</time></trkpt><trkpt lat="45.9174069" lon="9.2908074"><ele>207.0</ele><time>2026-05-03T10:30:26.887Z</time></trkpt><trkpt lat="45.9173121" lon="9.290982"><ele>207.0</ele><time>2026-05-03T10:30:27.896Z</time></trkpt><trkpt lat="45.9172191" lon="9.2911493"><ele>207.0</ele><time>2026-05-03T10:30:28.898Z</time></trkpt><trkpt lat="45.917107" lon="9.2913111"><ele>207.0</ele><time>2026-05-03T10:30:29.889Z</time></trkpt><trkpt lat="45.9169737" lon="9.2914713"><ele>206.66666666666669</ele><time>2026-05-03T10:30:30.895Z</time></trkpt><trkpt lat="45.9168346" lon="9.2916392"><ele>206.33333333333334</ele><time>2026-05-03T10:30:31.898Z</time></trkpt><trkpt lat="45.9166561" lon="9.291793"><ele>206.0</ele><time>2026-05-03T10:30:32.895Z</time></trkpt><trkpt lat="45.9164666" lon="9.2919446"><ele>206.0</ele><time>2026-05-03T10:30:33.894Z</time></trkpt><trkpt lat="45.9162738" lon="9.2920976"><ele>206.0</ele><time>2026-05-03T10:30:34.902Z</time></trkpt><trkpt lat="45.9160918" lon="9.2922502"><ele>206.0</ele><time>2026-05-03T10:30:35.896Z</time></trkpt><trkpt lat="45.9159322" lon="9.2923816"><ele>204.66666666666669</ele><time>2026-05-03T10:30:36.898Z</time></trkpt><trkpt lat="45.9157687" lon="9.2925065"><ele>203.33333333333331</ele><time>2026-05-03T10:30:37.894Z</time></trkpt><trkpt lat="45.9156044" lon="9.2926201"><ele>202.0</ele><time>2026-05-03T10:30:38.898Z</time></trkpt><trkpt lat="45.915433" lon="9.2927183"><ele>202.0</ele><time>2026-05-03T10:30:39.903Z</time></trkpt><trkpt lat="45.9152672" lon="9.2928094"><ele>202.0</ele><time>2026-05-03T10:30:40.896Z</time></trkpt><trkpt lat="45.9151228" lon="9.292893"><ele>202.0</ele><time>2026-05-03T10:30:41.897Z</time></trkpt><trkpt lat="45.9149898" lon="9.2929622"><ele>202.75</ele><time>2026-05-03T10:30:42.885Z</time></trkpt><trkpt lat="45.9148609" lon="9.293006"><ele>203.5</ele><time>2026-05-03T10:30:43.902Z</time></trkpt><trkpt lat="45.9147254" lon="9.2930126"><ele>204.25</ele><time>2026-05-03T10:30:44.902Z</time></trkpt><trkpt lat="45.9145682" lon="9.292991"><ele>205.0</ele><time>2026-05-03T10:30:45.905Z</time></trkpt><trkpt lat="45.9143988" lon="9.2929612"><ele>205.33333333333331</ele><time>2026-05-03T10:30:46.899Z</time></trkpt><trkpt lat="45.91423" lon="9.2929322"><ele>205.66666666666669</ele><time>2026-05-03T10:30:47.898Z</time></trkpt><trkpt lat="45.9140712" lon="9.2929128"><ele>206.0</ele><time>2026-05-03T10:30:48.901Z</time></trkpt><trkpt lat="45.9139212" lon="9.2929131"><ele>206.0</ele><time>2026-05-03T10:30:49.902Z</time></trkpt><trkpt lat="45.9137795" lon="9.2929331"><ele>206.0</ele><time>2026-05-03T10:30:50.883Z</time></trkpt><trkpt lat="45.9136412" lon="9.2929648"><ele>206.0</ele><time>2026-05-03T10:30:51.895Z</time></trkpt><trkpt lat="45.9135101" lon="9.2929939"><ele>206.0</ele><time>2026-05-03T10:30:52.913Z</time></trkpt><trkpt lat="45.9133911" lon="9.2930353"><ele>205.0</ele><time>2026-05-03T10:30:53.902Z</time></trkpt><trkpt lat="45.9132645" lon="9.2930694"><ele>204.0</ele><time>2026-05-03T10:30:54.896Z</time></trkpt><trkpt lat="45.9131391" lon="9.2931297"><ele>203.0</ele><time>2026-05-03T10:30:55.893Z</time></trkpt><trkpt lat="45.9130104" lon="9.293196"><ele>202.0</ele><time>2026-05-03T10:30:56.897Z</time></trkpt><trkpt lat="45.9128847" lon="9.2932653"><ele>202.0</ele><time>2026-05-03T10:30:57.891Z</time></trkpt><trkpt lat="45.9127653" lon="9.2933403"><ele>202.0</ele><time>2026-05-03T10:30:58.893Z</time></trkpt><trkpt lat="45.912645" lon="9.2934133"><ele>202.0</ele><time>2026-05-03T10:30:59.901Z</time></trkpt><trkpt lat="45.9125314" lon="9.2934839"><ele>202.0</ele><time>2026-05-03T10:31:00.897Z</time></trkpt><trkpt lat="45.9124216" lon="9.2935543"><ele>202.99999999999997</ele><time>2026-05-03T10:31:01.884Z</time></trkpt><trkpt lat="45.9123243" lon="9.2936189"><ele>204.0</ele><time>2026-05-03T10:31:02.902Z</time></trkpt><trkpt lat="45.9122349" lon="9.2936802"><ele>205.0</ele><time>2026-05-03T10:31:03.892Z</time></trkpt><trkpt lat="45.9121592" lon="9.293733"><ele>206.0</ele><time>2026-05-03T10:31:04.884Z</time></trkpt><trkpt lat="45.9120896" lon="9.2937809"><ele>206.99999999999997</ele><time>2026-05-03T10:31:05.886Z</time></trkpt><trkpt lat="45.9120273" lon="9.2938221"><ele>208.0</ele><time>2026-05-03T10:31:06.906Z</time></trkpt><trkpt lat="45.9119204" lon="9.2938719"><ele>207.99999999999997</ele><time>2026-05-03T10:31:08.906Z</time></trkpt><trkpt lat="45.9118191" lon="9.2938968"><ele>208.0</ele><time>2026-05-03T10:31:10.897Z</time></trkpt><trkpt lat="45.9116952" lon="9.2939155"><ele>208.0</ele><time>2026-05-03T10:31:12.9Z</time></trkpt><trkpt lat="45.9116264" lon="9.2939335"><ele>208.0</ele><time>2026-05-03T10:31:13.892Z</time></trkpt><trkpt lat="45.9115601" lon="9.2939533"><ele>207.99999999999997</ele><time>2026-05-03T10:31:14.898Z</time></trkpt><trkpt lat="45.9114895" lon="9.2939623"><ele>208.0</ele><time>2026-05-03T10:31:15.897Z</time></trkpt><trkpt lat="45.9114126" lon="9.293973"><ele>207.49999999999997</ele><time>2026-05-03T10:31:16.886Z</time></trkpt><trkpt lat="45.9113333" lon="9.2939786"><ele>207.0</ele><time>2026-05-03T10:31:17.901Z</time></trkpt><trkpt lat="45.9112496" lon="9.2939867"><ele>206.5</ele><time>2026-05-03T10:31:18.893Z</time></trkpt><trkpt lat="45.9111682" lon="9.2940062"><ele>206.0</ele><time>2026-05-03T10:31:19.895Z</time></trkpt><trkpt lat="45.9110766" lon="9.2940448"><ele>205.49999999999997</ele><time>2026-05-03T10:31:20.89Z</time></trkpt><trkpt lat="45.9109832" lon="9.2940795"><ele>205.0</ele><time>2026-05-03T10:31:21.896Z</time></trkpt><trkpt lat="45.9108839" lon="9.2941062"><ele>205.0</ele><time>2026-05-03T10:31:22.892Z</time></trkpt><trkpt lat="45.9107817" lon="9.2941394"><ele>205.0</ele><time>2026-05-03T10:31:23.901Z</time></trkpt><trkpt lat="45.9106777" lon="9.294188"><ele>205.0</ele><time>2026-05-03T10:31:24.896Z</time></trkpt><trkpt lat="45.9105734" lon="9.2942497"><ele>205.0</ele><time>2026-05-03T10:31:25.9Z</time></trkpt><trkpt lat="45.9104727" lon="9.2943159"><ele>205.0</ele><time>2026-05-03T10:31:26.887Z</time></trkpt><trkpt lat="45.9103685" lon="9.2943815"><ele>205.0</ele><time>2026-05-03T10:31:27.896Z</time></trkpt><trkpt lat="45.910263" lon="9.2944514"><ele>205.0</ele><time>2026-05-03T10:31:28.885Z</time></trkpt><trkpt lat="45.9101597" lon="9.2945234"><ele>205.0</ele><time>2026-05-03T10:31:29.895Z</time></trkpt><trkpt lat="45.9100648" lon="9.2946048"><ele>205.0</ele><time>2026-05-03T10:31:30.903Z</time></trkpt><trkpt lat="45.9099734" lon="9.2946995"><ele>204.5</ele><time>2026-05-03T10:31:31.897Z</time></trkpt><trkpt lat="45.9098868" lon="9.2948106"><ele>204.0</ele><time>2026-05-03T10:31:32.897Z</time></trkpt><trkpt lat="45.9098057" lon="9.2949372"><ele>203.5</ele><time>2026-05-03T10:31:33.899Z</time></trkpt><trkpt lat="45.9097312" lon="9.2950769"><ele>203.0</ele><time>2026-05-03T10:31:34.896Z</time></trkpt><trkpt lat="45.909661" lon="9.2952227"><ele>203.0</ele><time>2026-05-03T10:31:35.899Z</time></trkpt><trkpt lat="45.9095947" lon="9.2953718"><ele>203.0</ele><time>2026-05-03T10:31:36.905Z</time></trkpt><trkpt lat="45.9095365" lon="9.2955204"><ele>203.0</ele><time>2026-05-03T10:31:37.891Z</time></trkpt><trkpt lat="45.909483" lon="9.2956644"><ele>203.0</ele><time>2026-05-03T10:31:38.894Z</time></trkpt><trkpt lat="45.9094246" lon="9.2958044"><ele>202.0</ele><time>2026-05-03T10:31:39.905Z</time></trkpt><trkpt lat="45.9093578" lon="9.29594"><ele>201.0</ele><time>2026-05-03T10:31:40.898Z</time></trkpt><trkpt lat="45.9092896" lon="9.2960758"><ele>200.0</ele><time>2026-05-03T10:31:41.89Z</time></trkpt><trkpt lat="45.9092195" lon="9.2962103"><ele>199.0</ele><time>2026-05-03T10:31:42.896Z</time></trkpt><trkpt lat="45.9091397" lon="9.2963399"><ele>199.5</ele><time>2026-05-03T10:31:43.896Z</time></trkpt><trkpt lat="45.9090478" lon="9.2964565"><ele>200.0</ele><time>2026-05-03T10:31:44.894Z</time></trkpt><trkpt lat="45.9089429" lon="9.2965549"><ele>200.5</ele><time>2026-05-03T10:31:45.904Z</time></trkpt><trkpt lat="45.9088283" lon="9.2966577"><ele>201.0</ele><time>2026-05-03T10:31:46.894Z</time></trkpt><trkpt lat="45.9087172" lon="9.2967654"><ele>201.0</ele><time>2026-05-03T10:31:47.895Z</time></trkpt><trkpt lat="45.9085947" lon="9.2968836"><ele>201.0</ele><time>2026-05-03T10:31:48.893Z</time></trkpt><trkpt lat="45.908473" lon="9.296988"><ele>201.0</ele><time>2026-05-03T10:31:49.894Z</time></trkpt><trkpt lat="45.9083573" lon="9.2970852"><ele>201.0</ele><time>2026-05-03T10:31:50.891Z</time></trkpt><trkpt lat="45.9082502" lon="9.2971782"><ele>201.0</ele><time>2026-05-03T10:31:51.901Z</time></trkpt><trkpt lat="45.9081457" lon="9.2972709"><ele>201.0</ele><time>2026-05-03T10:31:52.893Z</time></trkpt><trkpt lat="45.90805" lon="9.2973584"><ele>201.0</ele><time>2026-05-03T10:31:53.906Z</time></trkpt><trkpt lat="45.9079445" lon="9.2974572"><ele>201.0</ele><time>2026-05-03T10:31:54.895Z</time></trkpt><trkpt lat="45.9078299" lon="9.2975614"><ele>201.0</ele><time>2026-05-03T10:31:55.884Z</time></trkpt><trkpt lat="45.9077058" lon="9.297685"><ele>201.0</ele><time>2026-05-03T10:31:56.898Z</time></trkpt><trkpt lat="45.9075502" lon="9.2978376"><ele>201.0</ele><time>2026-05-03T10:31:57.896Z</time></trkpt><trkpt lat="45.9073671" lon="9.2979988"><ele>200.5</ele><time>2026-05-03T10:31:58.893Z</time></trkpt><trkpt lat="45.907166" lon="9.2981671"><ele>200.0</ele><time>2026-05-03T10:31:59.891Z</time></trkpt><trkpt lat="45.9069694" lon="9.2983377"><ele>200.0</ele><time>2026-05-03T10:32:00.892Z</time></trkpt><trkpt lat="45.9067802" lon="9.2985052"><ele>200.0</ele><time>2026-05-03T10:32:01.885Z</time></trkpt><trkpt lat="45.9066072" lon="9.2986598"><ele>200.0</ele><time>2026-05-03T10:32:02.892Z</time></trkpt><trkpt lat="45.9064446" lon="9.2988072"><ele>200.0</ele><time>2026-05-03T10:32:03.894Z</time></trkpt><trkpt lat="45.9062867" lon="9.2989477"><ele>200.0</ele><time>2026-05-03T10:32:04.892Z</time></trkpt><trkpt lat="45.9061293" lon="9.2990934"><ele>200.0</ele><time>2026-05-03T10:32:05.903Z</time></trkpt><trkpt lat="45.905974" lon="9.299244"><ele>201.33333333333334</ele><time>2026-05-03T10:32:06.895Z</time></trkpt><trkpt lat="45.9058176" lon="9.2993861"><ele>202.66666666666669</ele><time>2026-05-03T10:32:07.895Z</time></trkpt><trkpt lat="45.9056655" lon="9.2995147"><ele>204.0</ele><time>2026-05-03T10:32:08.902Z</time></trkpt><trkpt lat="45.9055158" lon="9.2996257"><ele>204.0</ele><time>2026-05-03T10:32:09.896Z</time></trkpt><trkpt lat="45.9053636" lon="9.2996962"><ele>204.0</ele><time>2026-05-03T10:32:10.885Z</time></trkpt><trkpt lat="45.9051865" lon="9.2997508"><ele>204.0</ele><time>2026-05-03T10:32:11.897Z</time></trkpt><trkpt lat="45.9050151" lon="9.2998129"><ele>203.0</ele><time>2026-05-03T10:32:12.897Z</time></trkpt><trkpt lat="45.9048561" lon="9.299902"><ele>202.0</ele><time>2026-05-03T10:32:13.881Z</time></trkpt><trkpt lat="45.9047001" lon="9.3000427"><ele>201.0</ele><time>2026-05-03T10:32:14.901Z</time></trkpt><trkpt lat="45.9045261" lon="9.3002078"><ele>201.0</ele><time>2026-05-03T10:32:15.899Z</time></trkpt><trkpt lat="45.9043628" lon="9.300418"><ele>201.0</ele><time>2026-05-03T10:32:16.901Z</time></trkpt><trkpt lat="45.9041969" lon="9.3006043"><ele>201.0</ele><time>2026-05-03T10:32:17.888Z</time></trkpt><trkpt lat="45.9040397" lon="9.3007683"><ele>200.66666666666669</ele><time>2026-05-03T10:32:18.894Z</time></trkpt><trkpt lat="45.9038812" lon="9.3009053"><ele>200.33333333333334</ele><time>2026-05-03T10:32:19.899Z</time></trkpt><trkpt lat="45.9037172" lon="9.3010295"><ele>200.0</ele><time>2026-05-03T10:32:20.891Z</time></trkpt><trkpt lat="45.9035097" lon="9.3011059"><ele>202.0</ele><time>2026-05-03T10:32:21.89Z</time></trkpt><trkpt lat="45.9032929" lon="9.3011728"><ele>204.0</ele><time>2026-05-03T10:32:22.896Z</time></trkpt><trkpt lat="45.9030939" lon="9.3012422"><ele>206.0</ele><time>2026-05-03T10:32:23.895Z</time></trkpt><trkpt lat="45.9029198" lon="9.3013078"><ele>206.0</ele><time>2026-05-03T10:32:24.894Z</time></trkpt><trkpt lat="45.9027812" lon="9.3013783"><ele>206.0</ele><time>2026-05-03T10:32:25.901Z</time></trkpt><trkpt lat="45.9026865" lon="9.3014749"><ele>206.0</ele><time>2026-05-03T10:32:26.897Z</time></trkpt><trkpt lat="45.9025861" lon="9.3016414"><ele>206.0</ele><time>2026-05-03T10:32:27.897Z</time></trkpt><trkpt lat="45.9024806" lon="9.301864"><ele>205.33333333333334</ele><time>2026-05-03T10:32:28.897Z</time></trkpt><trkpt lat="45.9023542" lon="9.3021091"><ele>204.66666666666669</ele><time>2026-05-03T10:32:29.898Z</time></trkpt><trkpt lat="45.9022283" lon="9.3023669"><ele>204.0</ele><time>2026-05-03T10:32:30.907Z</time></trkpt><trkpt lat="45.9021006" lon="9.3026196"><ele>204.0</ele><time>2026-05-03T10:32:31.909Z</time></trkpt><trkpt lat="45.9019805" lon="9.3028837"><ele>204.0</ele><time>2026-05-03T10:32:32.897Z</time></trkpt><trkpt lat="45.9018731" lon="9.3031511"><ele>204.0</ele><time>2026-05-03T10:32:33.897Z</time></trkpt><trkpt lat="45.901757" lon="9.3033993"><ele>203.66666666666669</ele><time>2026-05-03T10:32:34.899Z</time></trkpt><trkpt lat="45.9016447" lon="9.3036262"><ele>203.33333333333334</ele><time>2026-05-03T10:32:35.897Z</time></trkpt><trkpt lat="45.9015309" lon="9.3038412"><ele>203.0</ele><time>2026-05-03T10:32:36.894Z</time></trkpt><trkpt lat="45.9013999" lon="9.3040583"><ele>203.0</ele><time>2026-05-03T10:32:37.895Z</time></trkpt><trkpt lat="45.9012714" lon="9.3042733"><ele>203.0</ele><time>2026-05-03T10:32:38.901Z</time></trkpt><trkpt lat="45.9011422" lon="9.3044824"><ele>203.0</ele><time>2026-05-03T10:32:39.898Z</time></trkpt><trkpt lat="45.9010295" lon="9.3046717"><ele>201.66666666666669</ele><time>2026-05-03T10:32:40.895Z</time></trkpt><trkpt lat="45.9009334" lon="9.3048588"><ele>200.33333333333331</ele><time>2026-05-03T10:32:41.89Z</time></trkpt><trkpt lat="45.9008422" lon="9.3050507"><ele>199.0</ele><time>2026-05-03T10:32:42.916Z</time></trkpt><trkpt lat="45.900775" lon="9.3052256"><ele>200.5</ele><time>2026-05-03T10:32:43.911Z</time></trkpt><trkpt lat="45.9007086" lon="9.3053813"><ele>202.0</ele><time>2026-05-03T10:32:44.897Z</time></trkpt><trkpt lat="45.9006226" lon="9.3055447"><ele>203.5</ele><time>2026-05-03T10:32:45.893Z</time></trkpt><trkpt lat="45.9005451" lon="9.3056909"><ele>205.0</ele><time>2026-05-03T10:32:46.889Z</time></trkpt><trkpt lat="45.9004691" lon="9.3058273"><ele>205.0</ele><time>2026-05-03T10:32:47.902Z</time></trkpt><trkpt lat="45.9003705" lon="9.3059576"><ele>205.0</ele><time>2026-05-03T10:32:48.891Z</time></trkpt><trkpt lat="45.9002553" lon="9.3060856"><ele>205.0</ele><time>2026-05-03T10:32:49.904Z</time></trkpt><trkpt lat="45.9001429" lon="9.3062131"><ele>205.0</ele><time>2026-05-03T10:32:50.905Z</time></trkpt><trkpt lat="45.9000347" lon="9.3063456"><ele>206.66666666666666</ele><time>2026-05-03T10:32:51.891Z</time></trkpt><trkpt lat="45.8999264" lon="9.3064982"><ele>208.33333333333331</ele><time>2026-05-03T10:32:52.894Z</time></trkpt><trkpt lat="45.8998113" lon="9.306666"><ele>210.0</ele><time>2026-05-03T10:32:53.891Z</time></trkpt><trkpt lat="45.8996962" lon="9.3068771"><ele>210.0</ele><time>2026-05-03T10:32:54.894Z</time></trkpt><trkpt lat="45.8995772" lon="9.3070914"><ele>210.0</ele><time>2026-05-03T10:32:55.903Z</time></trkpt><trkpt lat="45.89946" lon="9.3073028"><ele>210.0</ele><time>2026-05-03T10:32:56.902Z</time></trkpt><trkpt lat="45.8993488" lon="9.3075102"><ele>209.0</ele><time>2026-05-03T10:32:57.895Z</time></trkpt><trkpt lat="45.899235" lon="9.3077095"><ele>208.0</ele><time>2026-05-03T10:32:58.89Z</time></trkpt><trkpt lat="45.8991385" lon="9.3079331"><ele>207.0</ele><time>2026-05-03T10:32:59.904Z</time></trkpt><trkpt lat="45.8990524" lon="9.3081717"><ele>207.0</ele><time>2026-05-03T10:33:00.889Z</time></trkpt><trkpt lat="45.8989768" lon="9.3084043"><ele>207.0</ele><time>2026-05-03T10:33:01.898Z</time></trkpt><trkpt lat="45.8989047" lon="9.3086217"><ele>207.0</ele><time>2026-05-03T10:33:02.903Z</time></trkpt><trkpt lat="45.8988391" lon="9.3088292"><ele>205.0</ele><time>2026-05-03T10:33:03.892Z</time></trkpt><trkpt lat="45.8987874" lon="9.3090322"><ele>203.0</ele><time>2026-05-03T10:33:04.89Z</time></trkpt><trkpt lat="45.8987537" lon="9.3092217"><ele>201.0</ele><time>2026-05-03T10:33:05.902Z</time></trkpt><trkpt lat="45.8987293" lon="9.3094085"><ele>199.0</ele><time>2026-05-03T10:33:06.891Z</time></trkpt><trkpt lat="45.8987065" lon="9.309585"><ele>198.79999999999998</ele><time>2026-05-03T10:33:07.897Z</time></trkpt><trkpt lat="45.8986842" lon="9.3097462"><ele>198.6</ele><time>2026-05-03T10:33:08.893Z</time></trkpt><trkpt lat="45.8986662" lon="9.3098951"><ele>198.4</ele><time>2026-05-03T10:33:09.903Z</time></trkpt><trkpt lat="45.898657" lon="9.3100334"><ele>198.2</ele><time>2026-05-03T10:33:10.9Z</time></trkpt><trkpt lat="45.8986382" lon="9.3101692"><ele>198.0</ele><time>2026-05-03T10:33:11.886Z</time></trkpt><trkpt lat="45.8986138" lon="9.3102924"><ele>198.0</ele><time>2026-05-03T10:33:12.893Z</time></trkpt><trkpt lat="45.8985808" lon="9.3104014"><ele>198.0</ele><time>2026-05-03T10:33:13.889Z</time></trkpt><trkpt lat="45.8985198" lon="9.3105061"><ele>198.0</ele><time>2026-05-03T10:33:14.895Z</time></trkpt><trkpt lat="45.8984395" lon="9.3105999"><ele>198.0</ele><time>2026-05-03T10:33:15.892Z</time></trkpt><trkpt lat="45.898345" lon="9.3106947"><ele>198.0</ele><time>2026-05-03T10:33:16.89Z</time></trkpt><trkpt lat="45.8982422" lon="9.3107621"><ele>199.4</ele><time>2026-05-03T10:33:17.887Z</time></trkpt><trkpt lat="45.8981373" lon="9.3108233"><ele>200.8</ele><time>2026-05-03T10:33:18.882Z</time></trkpt><trkpt lat="45.8980337" lon="9.310881"><ele>202.2</ele><time>2026-05-03T10:33:19.9Z</time></trkpt><trkpt lat="45.8979383" lon="9.3109037"><ele>203.6</ele><time>2026-05-03T10:33:20.896Z</time></trkpt><trkpt lat="45.8978137" lon="9.3109227"><ele>205.0</ele><time>2026-05-03T10:33:21.902Z</time></trkpt><trkpt lat="45.8976879" lon="9.3109171"><ele>207.75</ele><time>2026-05-03T10:33:22.898Z</time></trkpt><trkpt lat="45.897559" lon="9.3108993"><ele>210.5</ele><time>2026-05-03T10:33:23.898Z</time></trkpt><trkpt lat="45.8974428" lon="9.3108814"><ele>213.25</ele><time>2026-05-03T10:33:24.898Z</time></trkpt><trkpt lat="45.8973408" lon="9.3108865"><ele>216.0</ele><time>2026-05-03T10:33:25.883Z</time></trkpt><trkpt lat="45.8972317" lon="9.3109411"><ele>216.0</ele><time>2026-05-03T10:33:26.889Z</time></trkpt><trkpt lat="45.8971158" lon="9.311024"><ele>216.0</ele><time>2026-05-03T10:33:27.892Z</time></trkpt><trkpt lat="45.8969795" lon="9.3111445"><ele>216.0</ele><time>2026-05-03T10:33:28.897Z</time></trkpt><trkpt lat="45.8968304" lon="9.3112711"><ele>219.66666666666669</ele><time>2026-05-03T10:33:29.905Z</time></trkpt><trkpt lat="45.8966802" lon="9.3113972"><ele>223.33333333333334</ele><time>2026-05-03T10:33:30.889Z</time></trkpt><trkpt lat="45.8965427" lon="9.3115149"><ele>227.0</ele><time>2026-05-03T10:33:31.891Z</time></trkpt><trkpt lat="45.8964043" lon="9.3116344"><ele>221.25</ele><time>2026-05-03T10:33:32.891Z</time></trkpt><trkpt lat="45.8962848" lon="9.3117379"><ele>215.5</ele><time>2026-05-03T10:33:33.889Z</time></trkpt><trkpt lat="45.8961732" lon="9.3118385"><ele>209.75</ele><time>2026-05-03T10:33:34.894Z</time></trkpt><trkpt lat="45.8960621" lon="9.3119302"><ele>204.0</ele><time>2026-05-03T10:33:35.89Z</time></trkpt><trkpt lat="45.8959483" lon="9.312028"><ele>204.5</ele><time>2026-05-03T10:33:36.891Z</time></trkpt><trkpt lat="45.895837" lon="9.3121229"><ele>205.0</ele><time>2026-05-03T10:33:37.89Z</time></trkpt><trkpt lat="45.8957216" lon="9.3122211"><ele>205.5</ele><time>2026-05-03T10:33:38.892Z</time></trkpt><trkpt lat="45.8956147" lon="9.3123181"><ele>206.0</ele><time>2026-05-03T10:33:39.886Z</time></trkpt><trkpt lat="45.8955219" lon="9.3124186"><ele>206.0</ele><time>2026-05-03T10:33:40.896Z</time></trkpt><trkpt lat="45.8954296" lon="9.3125117"><ele>206.0</ele><time>2026-05-03T10:33:41.895Z</time></trkpt><trkpt lat="45.8953375" lon="9.3125901"><ele>206.0</ele><time>2026-05-03T10:33:42.879Z</time></trkpt><trkpt lat="45.8952579" lon="9.3126656"><ele>206.0</ele><time>2026-05-03T10:33:43.89Z</time></trkpt><trkpt lat="45.8951836" lon="9.3127279"><ele>206.0</ele><time>2026-05-03T10:33:44.88Z</time></trkpt><trkpt lat="45.8951061" lon="9.3127906"><ele>206.20000000000002</ele><time>2026-05-03T10:33:45.894Z</time></trkpt><trkpt lat="45.8950212" lon="9.312866"><ele>206.4</ele><time>2026-05-03T10:33:46.887Z</time></trkpt><trkpt lat="45.89494" lon="9.3129457"><ele>206.6</ele><time>2026-05-03T10:33:47.874Z</time></trkpt><trkpt lat="45.894858" lon="9.3130203"><ele>206.8</ele><time>2026-05-03T10:33:48.885Z</time></trkpt><trkpt lat="45.8947768" lon="9.3130876"><ele>207.0</ele><time>2026-05-03T10:33:49.893Z</time></trkpt><trkpt lat="45.8946828" lon="9.3131353"><ele>207.0</ele><time>2026-05-03T10:33:50.895Z</time></trkpt><trkpt lat="45.8945638" lon="9.3131534"><ele>207.0</ele><time>2026-05-03T10:33:51.893Z</time></trkpt><trkpt lat="45.8944384" lon="9.313142"><ele>207.0</ele><time>2026-05-03T10:33:52.89Z</time></trkpt><trkpt lat="45.8943011" lon="9.3131654"><ele>207.0</ele><time>2026-05-03T10:33:53.887Z</time></trkpt><trkpt lat="45.8941581" lon="9.3132154"><ele>213.75</ele><time>2026-05-03T10:33:54.879Z</time></trkpt><trkpt lat="45.894014" lon="9.3132751"><ele>220.5</ele><time>2026-05-03T10:33:55.879Z</time></trkpt><trkpt lat="45.8938941" lon="9.3133382"><ele>227.25</ele><time>2026-05-03T10:33:56.878Z</time></trkpt><trkpt lat="45.8937806" lon="9.3134257"><ele>234.0</ele><time>2026-05-03T10:33:57.895Z</time></trkpt><trkpt lat="45.893685" lon="9.3135276"><ele>234.0</ele><time>2026-05-03T10:33:58.884Z</time></trkpt><trkpt lat="45.8936" lon="9.3136391"><ele>234.0</ele><time>2026-05-03T10:33:59.879Z</time></trkpt><trkpt lat="45.8935111" lon="9.3137498"><ele>234.0</ele><time>2026-05-03T10:34:00.891Z</time></trkpt><trkpt lat="45.8934236" lon="9.313863"><ele>234.0</ele><time>2026-05-03T10:34:01.897Z</time></trkpt><trkpt lat="45.8933417" lon="9.3139759"><ele>231.83333333333334</ele><time>2026-05-03T10:34:02.894Z</time></trkpt><trkpt lat="45.8932639" lon="9.3140755"><ele>229.66666666666669</ele><time>2026-05-03T10:34:03.887Z</time></trkpt><trkpt lat="45.8932034" lon="9.3141712"><ele>227.5</ele><time>2026-05-03T10:34:04.885Z</time></trkpt><trkpt lat="45.8931545" lon="9.3142732"><ele>225.33333333333334</ele><time>2026-05-03T10:34:05.884Z</time></trkpt><trkpt lat="45.8931142" lon="9.3143757"><ele>223.16666666666669</ele><time>2026-05-03T10:34:06.899Z</time></trkpt><trkpt lat="45.8930773" lon="9.3144646"><ele>221.0</ele><time>2026-05-03T10:34:07.887Z</time></trkpt><trkpt lat="45.8930319" lon="9.3145441"><ele>221.0</ele><time>2026-05-03T10:34:08.885Z</time></trkpt><trkpt lat="45.8929633" lon="9.3146155"><ele>221.00000000000003</ele><time>2026-05-03T10:34:09.882Z</time></trkpt><trkpt lat="45.8928857" lon="9.3146833"><ele>221.00000000000003</ele><time>2026-05-03T10:34:10.884Z</time></trkpt><trkpt lat="45.892802" lon="9.3147482"><ele>221.0</ele><time>2026-05-03T10:34:11.889Z</time></trkpt><trkpt lat="45.8927122" lon="9.3148166"><ele>221.0</ele><time>2026-05-03T10:34:12.89Z</time></trkpt><trkpt lat="45.8926132" lon="9.3148942"><ele>218.75</ele><time>2026-05-03T10:34:13.889Z</time></trkpt><trkpt lat="45.8925139" lon="9.3149652"><ele>216.5</ele><time>2026-05-03T10:34:14.891Z</time></trkpt><trkpt lat="45.892416" lon="9.315036"><ele>214.25</ele><time>2026-05-03T10:34:15.89Z</time></trkpt><trkpt lat="45.8923035" lon="9.3151059"><ele>212.0</ele><time>2026-05-03T10:34:16.885Z</time></trkpt><trkpt lat="45.8921859" lon="9.3151584"><ele>212.0</ele><time>2026-05-03T10:34:17.884Z</time></trkpt><trkpt lat="45.8920701" lon="9.3151956"><ele>212.0</ele><time>2026-05-03T10:34:18.882Z</time></trkpt><trkpt lat="45.8919614" lon="9.3152171"><ele>212.0</ele><time>2026-05-03T10:34:19.889Z</time></trkpt><trkpt lat="45.8918571" lon="9.3152257"><ele>212.0</ele><time>2026-05-03T10:34:20.893Z</time></trkpt><trkpt lat="45.8917536" lon="9.3152253"><ele>212.0</ele><time>2026-05-03T10:34:21.889Z</time></trkpt><trkpt lat="45.8916585" lon="9.3152223"><ele>217.2</ele><time>2026-05-03T10:34:22.885Z</time></trkpt><trkpt lat="45.8915625" lon="9.3152263"><ele>222.39999999999998</ele><time>2026-05-03T10:34:23.885Z</time></trkpt><trkpt lat="45.8914698" lon="9.3152479"><ele>227.60000000000002</ele><time>2026-05-03T10:34:24.881Z</time></trkpt><trkpt lat="45.8913846" lon="9.3152784"><ele>232.8</ele><time>2026-05-03T10:34:25.893Z</time></trkpt><trkpt lat="45.8913154" lon="9.3153491"><ele>238.0</ele><time>2026-05-03T10:34:26.887Z</time></trkpt><trkpt lat="45.8912518" lon="9.3154427"><ele>238.0</ele><time>2026-05-03T10:34:27.892Z</time></trkpt><trkpt lat="45.8912158" lon="9.3155677"><ele>238.0</ele><time>2026-05-03T10:34:28.883Z</time></trkpt><trkpt lat="45.8911854" lon="9.3156983"><ele>238.0</ele><time>2026-05-03T10:34:29.88Z</time></trkpt><trkpt lat="45.8911844" lon="9.3158456"><ele>238.0</ele><time>2026-05-03T10:34:30.897Z</time></trkpt><trkpt lat="45.8911922" lon="9.3159896"><ele>238.0</ele><time>2026-05-03T10:34:31.894Z</time></trkpt><trkpt lat="45.8912018" lon="9.3161274"><ele>231.0</ele><time>2026-05-03T10:34:32.889Z</time></trkpt><trkpt lat="45.8912023" lon="9.3162779"><ele>224.0</ele><time>2026-05-03T10:34:33.885Z</time></trkpt><trkpt lat="45.8911992" lon="9.316426"><ele>217.0</ele><time>2026-05-03T10:34:34.891Z</time></trkpt><trkpt lat="45.8911951" lon="9.3165684"><ele>210.0</ele><time>2026-05-03T10:34:35.893Z</time></trkpt><trkpt lat="45.8911748" lon="9.3167278"><ele>203.0</ele><time>2026-05-03T10:34:36.898Z</time></trkpt><trkpt lat="45.8911137" lon="9.3168894"><ele>201.75</ele><time>2026-05-03T10:34:37.893Z</time></trkpt><trkpt lat="45.8910515" lon="9.3170431"><ele>200.5</ele><time>2026-05-03T10:34:38.888Z</time></trkpt><trkpt lat="45.8909919" lon="9.3171782"><ele>199.25</ele><time>2026-05-03T10:34:39.883Z</time></trkpt><trkpt lat="45.8909287" lon="9.3173084"><ele>198.0</ele><time>2026-05-03T10:34:40.895Z</time></trkpt><trkpt lat="45.8908634" lon="9.3174297"><ele>203.25</ele><time>2026-05-03T10:34:41.891Z</time></trkpt><trkpt lat="45.8907887" lon="9.3175412"><ele>208.5</ele><time>2026-05-03T10:34:42.901Z</time></trkpt><trkpt lat="45.8907032" lon="9.3176526"><ele>213.75</ele><time>2026-05-03T10:34:43.89Z</time></trkpt><trkpt lat="45.8905854" lon="9.3177453"><ele>219.0</ele><time>2026-05-03T10:34:44.894Z</time></trkpt><trkpt lat="45.8904648" lon="9.3178351"><ele>219.0</ele><time>2026-05-03T10:34:45.887Z</time></trkpt><trkpt lat="45.8903529" lon="9.3179223"><ele>219.0</ele><time>2026-05-03T10:34:46.899Z</time></trkpt><trkpt lat="45.8902374" lon="9.3179958"><ele>219.0</ele><time>2026-05-03T10:34:47.882Z</time></trkpt><trkpt lat="45.8901229" lon="9.318054"><ele>219.0</ele><time>2026-05-03T10:34:48.895Z</time></trkpt><trkpt lat="45.8900091" lon="9.3181265"><ele>218.25</ele><time>2026-05-03T10:34:49.892Z</time></trkpt><trkpt lat="45.8898994" lon="9.3182107"><ele>217.5</ele><time>2026-05-03T10:34:50.89Z</time></trkpt><trkpt lat="45.8898008" lon="9.3183037"><ele>216.75</ele><time>2026-05-03T10:34:51.886Z</time></trkpt><trkpt lat="45.8897211" lon="9.3184532"><ele>216.0</ele><time>2026-05-03T10:34:52.889Z</time></trkpt><trkpt lat="45.8896606" lon="9.3186167"><ele>216.0</ele><time>2026-05-03T10:34:53.888Z</time></trkpt><trkpt lat="45.8896131" lon="9.3187613"><ele>216.00000000000003</ele><time>2026-05-03T10:34:54.893Z</time></trkpt><trkpt lat="45.8895698" lon="9.3188952"><ele>216.00000000000003</ele><time>2026-05-03T10:34:55.893Z</time></trkpt><trkpt lat="45.8895052" lon="9.3190278"><ele>216.0</ele><time>2026-05-03T10:34:56.889Z</time></trkpt><trkpt lat="45.8894349" lon="9.3191439"><ele>216.0</ele><time>2026-05-03T10:34:57.884Z</time></trkpt><trkpt lat="45.8893617" lon="9.3192414"><ele>217.66666666666666</ele><time>2026-05-03T10:34:58.882Z</time></trkpt><trkpt lat="45.8892796" lon="9.3193227"><ele>219.33333333333331</ele><time>2026-05-03T10:34:59.892Z</time></trkpt><trkpt lat="45.8892054" lon="9.3193979"><ele>221.0</ele><time>2026-05-03T10:35:00.873Z</time></trkpt><trkpt lat="45.8891308" lon="9.3195173"><ele>222.66666666666666</ele><time>2026-05-03T10:35:02.88Z</time></trkpt><trkpt lat="45.8890801" lon="9.3195718"><ele>224.33333333333331</ele><time>2026-05-03T10:35:03.876Z</time></trkpt><trkpt lat="45.8890267" lon="9.3196299"><ele>226.0</ele><time>2026-05-03T10:35:04.889Z</time></trkpt><trkpt lat="45.8889694" lon="9.319674"><ele>226.0</ele><time>2026-05-03T10:35:05.89Z</time></trkpt><trkpt lat="45.8888888" lon="9.3197229"><ele>226.0</ele><time>2026-05-03T10:35:06.888Z</time></trkpt><trkpt lat="45.8887805" lon="9.3197656"><ele>226.0</ele><time>2026-05-03T10:35:07.893Z</time></trkpt><trkpt lat="45.8886589" lon="9.3198126"><ele>226.0</ele><time>2026-05-03T10:35:08.883Z</time></trkpt><trkpt lat="45.8885353" lon="9.3198877"><ele>226.5</ele><time>2026-05-03T10:35:09.897Z</time></trkpt><trkpt lat="45.8884138" lon="9.3199765"><ele>227.0</ele><time>2026-05-03T10:35:10.889Z</time></trkpt><trkpt lat="45.8882971" lon="9.3200564"><ele>227.5</ele><time>2026-05-03T10:35:11.894Z</time></trkpt><trkpt lat="45.8881882" lon="9.3201355"><ele>228.0</ele><time>2026-05-03T10:35:12.899Z</time></trkpt><trkpt lat="45.8880928" lon="9.3202378"><ele>228.0</ele><time>2026-05-03T10:35:13.897Z</time></trkpt><trkpt lat="45.8880035" lon="9.3203652"><ele>228.0</ele><time>2026-05-03T10:35:14.886Z</time></trkpt><trkpt lat="45.8879171" lon="9.3205008"><ele>228.0</ele><time>2026-05-03T10:35:15.886Z</time></trkpt><trkpt lat="45.8878223" lon="9.3206366"><ele>228.0</ele><time>2026-05-03T10:35:16.901Z</time></trkpt><trkpt lat="45.8877237" lon="9.320769"><ele>230.0</ele><time>2026-05-03T10:35:17.9Z</time></trkpt><trkpt lat="45.8876343" lon="9.3209031"><ele>232.0</ele><time>2026-05-03T10:35:18.884Z</time></trkpt><trkpt lat="45.8875788" lon="9.3210538"><ele>234.0</ele><time>2026-05-03T10:35:19.9Z</time></trkpt><trkpt lat="45.887526" lon="9.3212021"><ele>236.0</ele><time>2026-05-03T10:35:20.888Z</time></trkpt><trkpt lat="45.8874696" lon="9.3213442"><ele>229.25</ele><time>2026-05-03T10:35:21.886Z</time></trkpt><trkpt lat="45.8874053" lon="9.3214792"><ele>222.5</ele><time>2026-05-03T10:35:22.89Z</time></trkpt><trkpt lat="45.8873176" lon="9.3216085"><ele>215.75</ele><time>2026-05-03T10:35:23.886Z</time></trkpt><trkpt lat="45.8872279" lon="9.3217388"><ele>209.0</ele><time>2026-05-03T10:35:24.889Z</time></trkpt><trkpt lat="45.8871237" lon="9.3218614"><ele>209.0</ele><time>2026-05-03T10:35:25.887Z</time></trkpt><trkpt lat="45.8870248" lon="9.3219897"><ele>209.0</ele><time>2026-05-03T10:35:26.893Z</time></trkpt><trkpt lat="45.8869348" lon="9.3221246"><ele>209.0</ele><time>2026-05-03T10:35:27.885Z</time></trkpt><trkpt lat="45.8868506" lon="9.3222484"><ele>209.0</ele><time>2026-05-03T10:35:28.899Z</time></trkpt><trkpt lat="45.886754" lon="9.3223522"><ele>212.79999999999998</ele><time>2026-05-03T10:35:29.896Z</time></trkpt><trkpt lat="45.8866623" lon="9.3224452"><ele>216.6</ele><time>2026-05-03T10:35:30.878Z</time></trkpt><trkpt lat="45.8865755" lon="9.3225326"><ele>220.4</ele><time>2026-05-03T10:35:31.888Z</time></trkpt><trkpt lat="45.8865027" lon="9.3226492"><ele>224.2</ele><time>2026-05-03T10:35:32.891Z</time></trkpt><trkpt lat="45.8864441" lon="9.3227902"><ele>228.0</ele><time>2026-05-03T10:35:33.886Z</time></trkpt><trkpt lat="45.8863952" lon="9.3229548"><ele>221.5</ele><time>2026-05-03T10:35:34.89Z</time></trkpt><trkpt lat="45.8863336" lon="9.3231037"><ele>215.0</ele><time>2026-05-03T10:35:35.897Z</time></trkpt><trkpt lat="45.8862721" lon="9.3232438"><ele>208.5</ele><time>2026-05-03T10:35:36.884Z</time></trkpt><trkpt lat="45.8862" lon="9.3233794"><ele>202.0</ele><time>2026-05-03T10:35:37.894Z</time></trkpt><trkpt lat="45.88608" lon="9.323485"><ele>202.0</ele><time>2026-05-03T10:35:38.894Z</time></trkpt><trkpt lat="45.8859562" lon="9.3235857"><ele>202.0</ele><time>2026-05-03T10:35:39.891Z</time></trkpt><trkpt lat="45.8858312" lon="9.3236833"><ele>202.0</ele><time>2026-05-03T10:35:40.889Z</time></trkpt><trkpt lat="45.8857091" lon="9.3237704"><ele>202.0</ele><time>2026-05-03T10:35:41.889Z</time></trkpt><trkpt lat="45.8855897" lon="9.323852"><ele>202.25</ele><time>2026-05-03T10:35:42.899Z</time></trkpt><trkpt lat="45.8854713" lon="9.3239437"><ele>202.5</ele><time>2026-05-03T10:35:43.887Z</time></trkpt><trkpt lat="45.8853595" lon="9.3240441"><ele>202.75</ele><time>2026-05-03T10:35:44.888Z</time></trkpt><trkpt lat="45.8852595" lon="9.3241623"><ele>203.0</ele><time>2026-05-03T10:35:45.882Z</time></trkpt><trkpt lat="45.8851661" lon="9.324295"><ele>204.5</ele><time>2026-05-03T10:35:46.891Z</time></trkpt><trkpt lat="45.8850824" lon="9.3244279"><ele>206.0</ele><time>2026-05-03T10:35:47.89Z</time></trkpt><trkpt lat="45.8850003" lon="9.3245653"><ele>207.5</ele><time>2026-05-03T10:35:48.891Z</time></trkpt><trkpt lat="45.8849359" lon="9.3247488"><ele>209.0</ele><time>2026-05-03T10:35:49.891Z</time></trkpt><trkpt lat="45.8848882" lon="9.3249532"><ele>209.0</ele><time>2026-05-03T10:35:50.889Z</time></trkpt><trkpt lat="45.8848506" lon="9.3251454"><ele>209.0</ele><time>2026-05-03T10:35:51.897Z</time></trkpt><trkpt lat="45.8848092" lon="9.3253367"><ele>209.0</ele><time>2026-05-03T10:35:52.886Z</time></trkpt><trkpt lat="45.8847686" lon="9.3255213"><ele>209.0</ele><time>2026-05-03T10:35:53.894Z</time></trkpt><trkpt lat="45.8847349" lon="9.3257113"><ele>206.33333333333334</ele><time>2026-05-03T10:35:54.896Z</time></trkpt><trkpt lat="45.8847125" lon="9.3259161"><ele>203.66666666666669</ele><time>2026-05-03T10:35:55.895Z</time></trkpt><trkpt lat="45.8846873" lon="9.3261346"><ele>201.0</ele><time>2026-05-03T10:35:56.883Z</time></trkpt><trkpt lat="45.8846516" lon="9.3264231"><ele>201.0</ele><time>2026-05-03T10:35:57.89Z</time></trkpt><trkpt lat="45.8845952" lon="9.3267477"><ele>201.0</ele><time>2026-05-03T10:35:58.883Z</time></trkpt><trkpt lat="45.8845422" lon="9.327095"><ele>200.0</ele><time>2026-05-03T10:35:59.883Z</time></trkpt><trkpt lat="45.8844981" lon="9.3274659"><ele>199.0</ele><time>2026-05-03T10:36:00.885Z</time></trkpt><trkpt lat="45.8844636" lon="9.327863"><ele>198.5</ele><time>2026-05-03T10:36:01.886Z</time></trkpt><trkpt lat="45.8844294" lon="9.328247"><ele>198.0</ele><time>2026-05-03T10:36:02.886Z</time></trkpt><trkpt lat="45.8843982" lon="9.3285803"><ele>198.0</ele><time>2026-05-03T10:36:03.894Z</time></trkpt><trkpt lat="45.884372" lon="9.328902"><ele>198.0</ele><time>2026-05-03T10:36:04.896Z</time></trkpt><trkpt lat="45.884347" lon="9.3292117"><ele>198.0</ele><time>2026-05-03T10:36:05.895Z</time></trkpt><trkpt lat="45.8843229" lon="9.3295145"><ele>198.66666666666669</ele><time>2026-05-03T10:36:06.883Z</time></trkpt><trkpt lat="45.8843072" lon="9.3297988"><ele>199.33333333333334</ele><time>2026-05-03T10:36:07.899Z</time></trkpt><trkpt lat="45.8843029" lon="9.3300686"><ele>200.0</ele><time>2026-05-03T10:36:08.899Z</time></trkpt><trkpt lat="45.8843005" lon="9.3303252"><ele>199.66666666666669</ele><time>2026-05-03T10:36:09.892Z</time></trkpt><trkpt lat="45.8842971" lon="9.3305758"><ele>199.33333333333331</ele><time>2026-05-03T10:36:10.897Z</time></trkpt><trkpt lat="45.8842763" lon="9.3308075"><ele>199.0</ele><time>2026-05-03T10:36:11.889Z</time></trkpt><trkpt lat="45.8842537" lon="9.331025"><ele>202.0</ele><time>2026-05-03T10:36:12.888Z</time></trkpt><trkpt lat="45.8841859" lon="9.3312414"><ele>205.0</ele><time>2026-05-03T10:36:13.897Z</time></trkpt><trkpt lat="45.8840951" lon="9.3314641"><ele>208.0</ele><time>2026-05-03T10:36:14.9Z</time></trkpt><trkpt lat="45.8839795" lon="9.331712"><ele>208.0</ele><time>2026-05-03T10:36:15.885Z</time></trkpt><trkpt lat="45.8838681" lon="9.3319905"><ele>208.0</ele><time>2026-05-03T10:36:16.893Z</time></trkpt><trkpt lat="45.883743" lon="9.3322893"><ele>206.5</ele><time>2026-05-03T10:36:17.893Z</time></trkpt><trkpt lat="45.8836112" lon="9.3325927"><ele>205.0</ele><time>2026-05-03T10:36:18.888Z</time></trkpt><trkpt lat="45.8834848" lon="9.3329012"><ele>206.5</ele><time>2026-05-03T10:36:19.886Z</time></trkpt><trkpt lat="45.8833591" lon="9.333229"><ele>208.0</ele><time>2026-05-03T10:36:20.882Z</time></trkpt><trkpt lat="45.8733824" lon="9.3564434"><ele>206.25</ele><time>2026-05-03T10:37:55.858Z</time></trkpt><trkpt lat="45.8733016" lon="9.3566159"><ele>204.5</ele><time>2026-05-03T10:37:56.844Z</time></trkpt><trkpt lat="45.8732254" lon="9.356808"><ele>202.75</ele><time>2026-05-03T10:37:57.874Z</time></trkpt><trkpt lat="45.8731446" lon="9.3569789"><ele>201.0</ele><time>2026-05-03T10:37:58.888Z</time></trkpt><trkpt lat="45.8730498" lon="9.3571223"><ele>202.0</ele><time>2026-05-03T10:37:59.889Z</time></trkpt><trkpt lat="45.8729374" lon="9.357261"><ele>203.0</ele><time>2026-05-03T10:38:00.895Z</time></trkpt><trkpt lat="45.872812" lon="9.3573944"><ele>204.0</ele><time>2026-05-03T10:38:01.894Z</time></trkpt><trkpt lat="45.8726637" lon="9.3575244"><ele>205.66666666666669</ele><time>2026-05-03T10:38:02.888Z</time></trkpt><trkpt lat="45.8724947" lon="9.357636"><ele>207.33333333333334</ele><time>2026-05-03T10:38:03.901Z</time></trkpt><trkpt lat="45.8723108" lon="9.3577231"><ele>209.0</ele><time>2026-05-03T10:38:04.896Z</time></trkpt><trkpt lat="45.8721244" lon="9.3578112"><ele>200.0</ele><time>2026-05-03T10:38:05.897Z</time></trkpt><trkpt lat="45.8589688" lon="9.3657822"><ele>200.0</ele><time>2026-05-03T10:38:51.585Z</time></trkpt><trkpt lat="45.8587273" lon="9.365754"><ele>200.0</ele><time>2026-05-03T10:39:09.875Z</time></trkpt><trkpt lat="45.8586275" lon="9.3657763"><ele>200.0</ele><time>2026-05-03T10:39:10.897Z</time></trkpt><trkpt lat="45.8585526" lon="9.3657989"><ele>200.0</ele><time>2026-05-03T10:39:11.897Z</time></trkpt><trkpt lat="45.8584825" lon="9.3658389"><ele>200.2857142857143</ele><time>2026-05-03T10:39:12.904Z</time></trkpt><trkpt lat="45.8584176" lon="9.3658725"><ele>200.57142857142858</ele><time>2026-05-03T10:39:13.896Z</time></trkpt><trkpt lat="45.8583368" lon="9.365895"><ele>200.85714285714286</ele><time>2026-05-03T10:39:14.897Z</time></trkpt><trkpt lat="45.8582556" lon="9.3658946"><ele>201.14285714285717</ele><time>2026-05-03T10:39:15.898Z</time></trkpt><trkpt lat="45.8581867" lon="9.3658745"><ele>201.42857142857142</ele><time>2026-05-03T10:39:16.919Z</time></trkpt><trkpt lat="45.8581197" lon="9.3658454"><ele>201.71428571428572</ele><time>2026-05-03T10:39:17.896Z</time></trkpt><trkpt lat="45.8580522" lon="9.3658257"><ele>202.0</ele><time>2026-05-03T10:39:18.903Z</time></trkpt><trkpt lat="45.8579885" lon="9.3658099"><ele>202.0</ele><time>2026-05-03T10:39:19.906Z</time></trkpt><trkpt lat="45.8579186" lon="9.3658126"><ele>202.0</ele><time>2026-05-03T10:39:20.904Z</time></trkpt><trkpt lat="45.8578504" lon="9.3658205"><ele>202.0</ele><time>2026-05-03T10:39:21.902Z</time></trkpt><trkpt lat="45.8577821" lon="9.3658259"><ele>202.0</ele><time>2026-05-03T10:39:22.9Z</time></trkpt><trkpt lat="45.8577148" lon="9.3658299"><ele>202.0</ele><time>2026-05-03T10:39:23.905Z</time></trkpt><trkpt lat="45.8576441" lon="9.3658328"><ele>202.0</ele><time>2026-05-03T10:39:24.887Z</time></trkpt><trkpt lat="45.8575775" lon="9.3658371"><ele>202.0</ele><time>2026-05-03T10:39:25.9Z</time></trkpt><trkpt lat="45.8575132" lon="9.3658393"><ele>202.66666666666666</ele><time>2026-05-03T10:39:26.897Z</time></trkpt><trkpt lat="45.8574445" lon="9.365846"><ele>203.33333333333331</ele><time>2026-05-03T10:39:27.903Z</time></trkpt><trkpt lat="45.8573673" lon="9.3658523"><ele>204.0</ele><time>2026-05-03T10:39:28.898Z</time></trkpt><trkpt lat="45.8572854" lon="9.3658613"><ele>204.66666666666669</ele><time>2026-05-03T10:39:29.903Z</time></trkpt><trkpt lat="45.8571855" lon="9.3658677"><ele>205.33333333333334</ele><time>2026-05-03T10:39:30.886Z</time></trkpt><trkpt lat="45.8570865" lon="9.365882"><ele>206.0</ele><time>2026-05-03T10:39:31.898Z</time></trkpt><trkpt lat="45.8569769" lon="9.3658851"><ele>206.0</ele><time>2026-05-03T10:39:32.901Z</time></trkpt><trkpt lat="45.856871" lon="9.3658819"><ele>206.0</ele><time>2026-05-03T10:39:33.898Z</time></trkpt><trkpt lat="45.856755" lon="9.3658967"><ele>206.0</ele><time>2026-05-03T10:39:34.906Z</time></trkpt><trkpt lat="45.8566359" lon="9.3659085"><ele>206.0</ele><time>2026-05-03T10:39:35.904Z</time></trkpt><trkpt lat="45.8565158" lon="9.3659253"><ele>206.20000000000002</ele><time>2026-05-03T10:39:36.902Z</time></trkpt><trkpt lat="45.8564013" lon="9.3659303"><ele>206.4</ele><time>2026-05-03T10:39:37.895Z</time></trkpt><trkpt lat="45.8562844" lon="9.3659322"><ele>206.6</ele><time>2026-05-03T10:39:38.893Z</time></trkpt><trkpt lat="45.8561779" lon="9.3659259"><ele>206.8</ele><time>2026-05-03T10:39:39.903Z</time></trkpt><trkpt lat="45.8560727" lon="9.365919"><ele>207.0</ele><time>2026-05-03T10:39:40.902Z</time></trkpt><trkpt lat="45.8559672" lon="9.3658886"><ele>207.2</ele><time>2026-05-03T10:39:41.913Z</time></trkpt><trkpt lat="45.8558536" lon="9.3658468"><ele>207.39999999999998</ele><time>2026-05-03T10:39:42.902Z</time></trkpt><trkpt lat="45.8557528" lon="9.3658025"><ele>207.60000000000002</ele><time>2026-05-03T10:39:43.89Z</time></trkpt><trkpt lat="45.8556565" lon="9.3657654"><ele>207.8</ele><time>2026-05-03T10:39:44.895Z</time></trkpt><trkpt lat="45.855559" lon="9.3657245"><ele>208.0</ele><time>2026-05-03T10:39:45.893Z</time></trkpt><trkpt lat="45.8554675" lon="9.3656794"><ele>208.0</ele><time>2026-05-03T10:39:46.899Z</time></trkpt><trkpt lat="45.8553749" lon="9.3656381"><ele>208.0</ele><time>2026-05-03T10:39:47.901Z</time></trkpt><trkpt lat="45.8552762" lon="9.3656011"><ele>208.0</ele><time>2026-05-03T10:39:48.902Z</time></trkpt><trkpt lat="45.8551816" lon="9.3655631"><ele>208.0</ele><time>2026-05-03T10:39:49.899Z</time></trkpt><trkpt lat="45.8550905" lon="9.3655275"><ele>208.0</ele><time>2026-05-03T10:39:50.899Z</time></trkpt><trkpt lat="45.855003" lon="9.3654905"><ele>208.83333333333331</ele><time>2026-05-03T10:39:51.901Z</time></trkpt><trkpt lat="45.8549185" lon="9.3654545"><ele>209.66666666666666</ele><time>2026-05-03T10:39:52.909Z</time></trkpt><trkpt lat="45.8548389" lon="9.3654214"><ele>210.5</ele><time>2026-05-03T10:39:53.908Z</time></trkpt><trkpt lat="45.8547599" lon="9.3653873"><ele>211.33333333333331</ele><time>2026-05-03T10:39:54.889Z</time></trkpt><trkpt lat="45.8546741" lon="9.3653507"><ele>212.16666666666666</ele><time>2026-05-03T10:39:55.894Z</time></trkpt><trkpt lat="45.8545831" lon="9.3653127"><ele>213.0</ele><time>2026-05-03T10:39:56.893Z</time></trkpt><trkpt lat="45.8544904" lon="9.3652719"><ele>213.0</ele><time>2026-05-03T10:39:57.897Z</time></trkpt><trkpt lat="45.8543931" lon="9.3652251"><ele>213.0</ele><time>2026-05-03T10:39:58.903Z</time></trkpt><trkpt lat="45.854295" lon="9.3651903"><ele>213.0</ele><time>2026-05-03T10:39:59.905Z</time></trkpt><trkpt lat="45.8541997" lon="9.3651475"><ele>213.0</ele><time>2026-05-03T10:40:00.898Z</time></trkpt><trkpt lat="45.8541068" lon="9.3651049"><ele>213.0</ele><time>2026-05-03T10:40:01.896Z</time></trkpt><trkpt lat="45.854013" lon="9.365078"><ele>213.2</ele><time>2026-05-03T10:40:02.895Z</time></trkpt><trkpt lat="45.85392" lon="9.3650392"><ele>213.4</ele><time>2026-05-03T10:40:03.897Z</time></trkpt><trkpt lat="45.8538201" lon="9.3649924"><ele>213.59999999999997</ele><time>2026-05-03T10:40:04.899Z</time></trkpt><trkpt lat="45.8537033" lon="9.3649576"><ele>213.79999999999998</ele><time>2026-05-03T10:40:05.901Z</time></trkpt><trkpt lat="45.8535895" lon="9.3649255"><ele>214.0</ele><time>2026-05-03T10:40:06.886Z</time></trkpt><trkpt lat="45.8534713" lon="9.3648862"><ele>214.39999999999998</ele><time>2026-05-03T10:40:07.904Z</time></trkpt><trkpt lat="45.8533612" lon="9.3648431"><ele>214.79999999999998</ele><time>2026-05-03T10:40:08.898Z</time></trkpt><trkpt lat="45.853252" lon="9.3648004"><ele>215.20000000000002</ele><time>2026-05-03T10:40:09.902Z</time></trkpt><trkpt lat="45.8531476" lon="9.3647587"><ele>215.60000000000002</ele><time>2026-05-03T10:40:10.896Z</time></trkpt><trkpt lat="45.8530479" lon="9.3647213"><ele>216.0</ele><time>2026-05-03T10:40:11.901Z</time></trkpt><trkpt lat="45.852947" lon="9.3646765"><ele>216.60000000000002</ele><time>2026-05-03T10:40:12.905Z</time></trkpt><trkpt lat="45.8528438" lon="9.3646441"><ele>217.20000000000002</ele><time>2026-05-03T10:40:13.891Z</time></trkpt><trkpt lat="45.8527454" lon="9.3646084"><ele>217.79999999999998</ele><time>2026-05-03T10:40:14.899Z</time></trkpt><trkpt lat="45.8526452" lon="9.3645674"><ele>218.39999999999998</ele><time>2026-05-03T10:40:15.891Z</time></trkpt><trkpt lat="45.8525445" lon="9.3645278"><ele>219.0</ele><time>2026-05-03T10:40:16.903Z</time></trkpt><trkpt lat="45.8524433" lon="9.3644884"><ele>219.5</ele><time>2026-05-03T10:40:17.897Z</time></trkpt><trkpt lat="45.8523364" lon="9.3644545"><ele>220.0</ele><time>2026-05-03T10:40:18.902Z</time></trkpt><trkpt lat="45.852225" lon="9.3644316"><ele>220.5</ele><time>2026-05-03T10:40:19.902Z</time></trkpt><trkpt lat="45.8521028" lon="9.364396"><ele>221.0</ele><time>2026-05-03T10:40:20.901Z</time></trkpt><trkpt lat="45.8519908" lon="9.364358"><ele>221.0</ele><time>2026-05-03T10:40:21.888Z</time></trkpt><trkpt lat="45.8518791" lon="9.3643106"><ele>221.0</ele><time>2026-05-03T10:40:22.9Z</time></trkpt><trkpt lat="45.8517612" lon="9.3642614"><ele>221.0</ele><time>2026-05-03T10:40:23.903Z</time></trkpt><trkpt lat="45.8516434" lon="9.3641995"><ele>221.0</ele><time>2026-05-03T10:40:24.893Z</time></trkpt><trkpt lat="45.8515318" lon="9.3641415"><ele>221.5</ele><time>2026-05-03T10:40:25.899Z</time></trkpt><trkpt lat="45.8514056" lon="9.3640998"><ele>222.0</ele><time>2026-05-03T10:40:26.897Z</time></trkpt><trkpt lat="45.8512765" lon="9.3640566"><ele>222.5</ele><time>2026-05-03T10:40:27.899Z</time></trkpt><trkpt lat="45.8511507" lon="9.3639948"><ele>223.0</ele><time>2026-05-03T10:40:28.894Z</time></trkpt><trkpt lat="45.8510282" lon="9.3639261"><ele>224.0</ele><time>2026-05-03T10:40:29.895Z</time></trkpt><trkpt lat="45.8509074" lon="9.3638429"><ele>225.0</ele><time>2026-05-03T10:40:30.901Z</time></trkpt><trkpt lat="45.8507854" lon="9.3637628"><ele>226.0</ele><time>2026-05-03T10:40:31.894Z</time></trkpt><trkpt lat="45.85067" lon="9.3636769"><ele>227.0</ele><time>2026-05-03T10:40:32.897Z</time></trkpt><trkpt lat="45.8505497" lon="9.3636047"><ele>227.0</ele><time>2026-05-03T10:40:33.897Z</time></trkpt><trkpt lat="45.8504321" lon="9.3635338"><ele>227.0</ele><time>2026-05-03T10:40:34.902Z</time></trkpt><trkpt lat="45.8503247" lon="9.3634676"><ele>227.0</ele><time>2026-05-03T10:40:35.903Z</time></trkpt><trkpt lat="45.8502218" lon="9.3633969"><ele>227.0</ele><time>2026-05-03T10:40:36.9Z</time></trkpt><trkpt lat="45.850122" lon="9.3633263"><ele>227.0</ele><time>2026-05-03T10:40:37.894Z</time></trkpt><trkpt lat="45.8500238" lon="9.3632537"><ele>227.0</ele><time>2026-05-03T10:40:38.895Z</time></trkpt><trkpt lat="45.8499271" lon="9.3631856"><ele>227.0</ele><time>2026-05-03T10:40:39.892Z</time></trkpt><trkpt lat="45.8498325" lon="9.3631191"><ele>227.0</ele><time>2026-05-03T10:40:40.895Z</time></trkpt><trkpt lat="45.8497417" lon="9.3630539"><ele>227.0</ele><time>2026-05-03T10:40:41.898Z</time></trkpt><trkpt lat="45.8496566" lon="9.3629827"><ele>227.0</ele><time>2026-05-03T10:40:42.898Z</time></trkpt><trkpt lat="45.8495708" lon="9.3629163"><ele>227.0</ele><time>2026-05-03T10:40:43.896Z</time></trkpt><trkpt lat="45.8494913" lon="9.3628474"><ele>227.0</ele><time>2026-05-03T10:40:44.889Z</time></trkpt><trkpt lat="45.849417" lon="9.3627764"><ele>227.0</ele><time>2026-05-03T10:40:45.893Z</time></trkpt><trkpt lat="45.8493356" lon="9.3627074"><ele>227.0</ele><time>2026-05-03T10:40:46.894Z</time></trkpt><trkpt lat="45.8492549" lon="9.3626387"><ele>227.0</ele><time>2026-05-03T10:40:47.891Z</time></trkpt><trkpt lat="45.8491691" lon="9.362568"><ele>227.0</ele><time>2026-05-03T10:40:48.889Z</time></trkpt><trkpt lat="45.8490826" lon="9.3624962"><ele>227.0</ele><time>2026-05-03T10:40:49.898Z</time></trkpt><trkpt lat="45.8489966" lon="9.3624267"><ele>227.0</ele><time>2026-05-03T10:40:50.896Z</time></trkpt><trkpt lat="45.8489163" lon="9.3623604"><ele>227.0</ele><time>2026-05-03T10:40:51.898Z</time></trkpt><trkpt lat="45.8488321" lon="9.3622852"><ele>227.0</ele><time>2026-05-03T10:40:52.896Z</time></trkpt><trkpt lat="45.8487484" lon="9.3622259"><ele>227.0</ele><time>2026-05-03T10:40:53.898Z</time></trkpt><trkpt lat="45.8486619" lon="9.3621663"><ele>227.0</ele><time>2026-05-03T10:40:54.897Z</time></trkpt><trkpt lat="45.8485693" lon="9.3621111"><ele>227.0</ele><time>2026-05-03T10:40:55.886Z</time></trkpt><trkpt lat="45.8484744" lon="9.362051"><ele>227.0</ele><time>2026-05-03T10:40:56.896Z</time></trkpt><trkpt lat="45.8483789" lon="9.3619967"><ele>227.0</ele><time>2026-05-03T10:40:57.898Z</time></trkpt><trkpt lat="45.8482915" lon="9.3619485"><ele>227.0</ele><time>2026-05-03T10:40:58.898Z</time></trkpt><trkpt lat="45.8482039" lon="9.3618999"><ele>227.0</ele><time>2026-05-03T10:40:59.899Z</time></trkpt><trkpt lat="45.8481198" lon="9.3618611"><ele>227.0</ele><time>2026-05-03T10:41:00.897Z</time></trkpt><trkpt lat="45.8480383" lon="9.3618159"><ele>227.0</ele><time>2026-05-03T10:41:01.892Z</time></trkpt><trkpt lat="45.8479513" lon="9.3617792"><ele>227.0</ele><time>2026-05-03T10:41:02.894Z</time></trkpt><trkpt lat="45.847863" lon="9.3617403"><ele>227.0</ele><time>2026-05-03T10:41:03.889Z</time></trkpt><trkpt lat="45.8477743" lon="9.3616876"><ele>227.0</ele><time>2026-05-03T10:41:04.901Z</time></trkpt><trkpt lat="45.8476814" lon="9.3616319"><ele>227.0</ele><time>2026-05-03T10:41:05.892Z</time></trkpt><trkpt lat="45.8475868" lon="9.3615624"><ele>227.0</ele><time>2026-05-03T10:41:06.899Z</time></trkpt><trkpt lat="45.8474947" lon="9.3614979"><ele>226.39999999999998</ele><time>2026-05-03T10:41:07.895Z</time></trkpt><trkpt lat="45.8473987" lon="9.361443"><ele>225.79999999999998</ele><time>2026-05-03T10:41:08.898Z</time></trkpt><trkpt lat="45.847301" lon="9.3613921"><ele>225.2</ele><time>2026-05-03T10:41:09.906Z</time></trkpt><trkpt lat="45.8472051" lon="9.3613423"><ele>224.6</ele><time>2026-05-03T10:41:10.889Z</time></trkpt><trkpt lat="45.8471055" lon="9.3613109"><ele>224.0</ele><time>2026-05-03T10:41:11.888Z</time></trkpt><trkpt lat="45.8470079" lon="9.3612961"><ele>224.0</ele><time>2026-05-03T10:41:12.892Z</time></trkpt><trkpt lat="45.8469067" lon="9.3612919"><ele>223.99999999999997</ele><time>2026-05-03T10:41:13.906Z</time></trkpt><trkpt lat="45.8468037" lon="9.3612944"><ele>223.99999999999997</ele><time>2026-05-03T10:41:14.899Z</time></trkpt><trkpt lat="45.8467012" lon="9.361298"><ele>224.0</ele><time>2026-05-03T10:41:15.897Z</time></trkpt><trkpt lat="45.8465954" lon="9.3613038"><ele>224.0</ele><time>2026-05-03T10:41:16.899Z</time></trkpt><trkpt lat="45.8464875" lon="9.3613099"><ele>224.2</ele><time>2026-05-03T10:41:17.894Z</time></trkpt><trkpt lat="45.8463833" lon="9.3613041"><ele>224.39999999999998</ele><time>2026-05-03T10:41:18.896Z</time></trkpt><trkpt lat="45.8462766" lon="9.3613037"><ele>224.6</ele><time>2026-05-03T10:41:19.886Z</time></trkpt><trkpt lat="45.8461717" lon="9.3612892"><ele>224.8</ele><time>2026-05-03T10:41:20.893Z</time></trkpt><trkpt lat="45.8460682" lon="9.3612775"><ele>225.0</ele><time>2026-05-03T10:41:21.891Z</time></trkpt><trkpt lat="45.8459771" lon="9.3612736"><ele>224.66666666666666</ele><time>2026-05-03T10:41:22.895Z</time></trkpt><trkpt lat="45.8458977" lon="9.3612681"><ele>224.33333333333331</ele><time>2026-05-03T10:41:23.897Z</time></trkpt><trkpt lat="45.8458091" lon="9.3612583"><ele>224.0</ele><time>2026-05-03T10:41:24.895Z</time></trkpt><trkpt lat="45.8457229" lon="9.3612455"><ele>223.66666666666666</ele><time>2026-05-03T10:41:25.898Z</time></trkpt><trkpt lat="45.8456453" lon="9.3612356"><ele>223.33333333333331</ele><time>2026-05-03T10:41:26.888Z</time></trkpt><trkpt lat="45.8455725" lon="9.3612261"><ele>223.0</ele><time>2026-05-03T10:41:27.905Z</time></trkpt><trkpt lat="45.8455087" lon="9.3612161"><ele>223.0</ele><time>2026-05-03T10:41:28.907Z</time></trkpt><trkpt lat="45.8453963" lon="9.3611953"><ele>223.0</ele><time>2026-05-03T10:41:30.896Z</time></trkpt><trkpt lat="45.8453066" lon="9.3611797"><ele>223.0</ele><time>2026-05-03T10:41:32.895Z</time></trkpt><trkpt lat="45.8452313" lon="9.3611683"><ele>223.0</ele><time>2026-05-03T10:41:34.898Z</time></trkpt><trkpt lat="45.8451329" lon="9.3611007"><ele>223.0</ele><time>2026-05-03T10:42:01.884Z</time></trkpt><trkpt lat="45.8450113" lon="9.361041"><ele>222.33333333333331</ele><time>2026-05-03T10:42:02.91Z</time></trkpt><trkpt lat="45.8448258" lon="9.3608843"><ele>221.66666666666669</ele><time>2026-05-03T10:42:03.894Z</time></trkpt><trkpt lat="45.8446273" lon="9.3607123"><ele>221.0</ele><time>2026-05-03T10:42:04.908Z</time></trkpt><trkpt lat="45.8444427" lon="9.3605665"><ele>221.66666666666669</ele><time>2026-05-03T10:42:05.89Z</time></trkpt><trkpt lat="45.8442757" lon="9.3604318"><ele>222.33333333333331</ele><time>2026-05-03T10:42:06.884Z</time></trkpt><trkpt lat="45.844113" lon="9.3603063"><ele>223.0</ele><time>2026-05-03T10:42:07.897Z</time></trkpt><trkpt lat="45.8439543" lon="9.36018"><ele>223.0</ele><time>2026-05-03T10:42:08.898Z</time></trkpt><trkpt lat="45.8438031" lon="9.36006"><ele>223.0</ele><time>2026-05-03T10:42:09.901Z</time></trkpt><trkpt lat="45.8436592" lon="9.3599433"><ele>223.0</ele><time>2026-05-03T10:42:10.882Z</time></trkpt><trkpt lat="45.843521" lon="9.3598332"><ele>223.0</ele><time>2026-05-03T10:42:11.893Z</time></trkpt><trkpt lat="45.8433885" lon="9.3597406"><ele>223.0</ele><time>2026-05-03T10:42:12.894Z</time></trkpt><trkpt lat="45.8432853" lon="9.3596789"><ele>223.0</ele><time>2026-05-03T10:42:13.898Z</time></trkpt><trkpt lat="45.8432062" lon="9.3596251"><ele>223.0</ele><time>2026-05-03T10:42:14.889Z</time></trkpt><trkpt lat="45.8431466" lon="9.3595332"><ele>223.0</ele><time>2026-05-03T10:42:25.896Z</time></trkpt><trkpt lat="45.8430526" lon="9.3594596"><ele>223.0</ele><time>2026-05-03T10:42:26.889Z</time></trkpt><trkpt lat="45.8429355" lon="9.3593633"><ele>223.0</ele><time>2026-05-03T10:42:27.897Z</time></trkpt><trkpt lat="45.842832" lon="9.3592811"><ele>223.0</ele><time>2026-05-03T10:42:28.9Z</time></trkpt><trkpt lat="45.8427262" lon="9.3591983"><ele>223.0</ele><time>2026-05-03T10:42:29.901Z</time></trkpt><trkpt lat="45.8425997" lon="9.3590918"><ele>223.0</ele><time>2026-05-03T10:42:30.904Z</time></trkpt><trkpt lat="45.8424638" lon="9.3589754"><ele>223.0</ele><time>2026-05-03T10:42:31.902Z</time></trkpt><trkpt lat="45.842325" lon="9.3588522"><ele>223.0</ele><time>2026-05-03T10:42:32.9Z</time></trkpt><trkpt lat="45.8421765" lon="9.3587264"><ele>223.0</ele><time>2026-05-03T10:42:33.889Z</time></trkpt><trkpt lat="45.8420261" lon="9.3585985"><ele>223.0</ele><time>2026-05-03T10:42:34.898Z</time></trkpt><trkpt lat="45.8418737" lon="9.3584708"><ele>223.0</ele><time>2026-05-03T10:42:35.904Z</time></trkpt><trkpt lat="45.8417232" lon="9.3583452"><ele>223.0</ele><time>2026-05-03T10:42:36.901Z</time></trkpt><trkpt lat="45.8415746" lon="9.3582223"><ele>223.0</ele><time>2026-05-03T10:42:37.903Z</time></trkpt><trkpt lat="45.8414354" lon="9.3581094"><ele>223.0</ele><time>2026-05-03T10:42:38.903Z</time></trkpt><trkpt lat="45.8412999" lon="9.358002"><ele>223.0</ele><time>2026-05-03T10:42:39.903Z</time></trkpt><trkpt lat="45.841179" lon="9.3578912"><ele>223.0</ele><time>2026-05-03T10:42:40.906Z</time></trkpt><trkpt lat="45.841062" lon="9.3577975"><ele>223.0</ele><time>2026-05-03T10:42:41.904Z</time></trkpt><trkpt lat="45.8409554" lon="9.3577094"><ele>223.0</ele><time>2026-05-03T10:42:42.9Z</time></trkpt><trkpt lat="45.840857" lon="9.3576431"><ele>222.66666666666666</ele><time>2026-05-03T10:42:43.9Z</time></trkpt><trkpt lat="45.8407592" lon="9.3576059"><ele>222.33333333333331</ele><time>2026-05-03T10:42:44.891Z</time></trkpt><trkpt lat="45.8406804" lon="9.3575716"><ele>222.0</ele><time>2026-05-03T10:42:45.895Z</time></trkpt><trkpt lat="45.84062" lon="9.357534"><ele>221.66666666666669</ele><time>2026-05-03T10:42:46.9Z</time></trkpt><trkpt lat="45.8405586" lon="9.3574916"><ele>221.33333333333334</ele><time>2026-05-03T10:42:47.906Z</time></trkpt><trkpt lat="45.840462" lon="9.3574958"><ele>221.0</ele><time>2026-05-03T10:42:49.894Z</time></trkpt><trkpt lat="45.8404178" lon="9.3575861"><ele>221.0</ele><time>2026-05-03T10:42:50.902Z</time></trkpt><trkpt lat="45.8404033" lon="9.3577241"><ele>221.00000000000003</ele><time>2026-05-03T10:42:51.903Z</time></trkpt><trkpt lat="45.8403836" lon="9.3578585"><ele>221.00000000000003</ele><time>2026-05-03T10:42:52.896Z</time></trkpt><trkpt lat="45.8403392" lon="9.3579801"><ele>221.0</ele><time>2026-05-03T10:42:53.906Z</time></trkpt><trkpt lat="45.8402908" lon="9.3580896"><ele>221.0</ele><time>2026-05-03T10:42:54.896Z</time></trkpt><trkpt lat="45.8402482" lon="9.3581835"><ele>221.5</ele><time>2026-05-03T10:42:55.903Z</time></trkpt><trkpt lat="45.8401269" lon="9.3582553"><ele>222.0</ele><time>2026-05-03T10:42:57.904Z</time></trkpt><trkpt lat="45.8400324" lon="9.3582035"><ele>222.5</ele><time>2026-05-03T10:42:58.898Z</time></trkpt><trkpt lat="45.8399292" lon="9.3581597"><ele>223.0</ele><time>2026-05-03T10:42:59.89Z</time></trkpt><trkpt lat="45.8398109" lon="9.3581118"><ele>223.0</ele><time>2026-05-03T10:43:00.896Z</time></trkpt><trkpt lat="45.8396766" lon="9.3580573"><ele>223.0</ele><time>2026-05-03T10:43:01.901Z</time></trkpt><trkpt lat="45.8395328" lon="9.3579919"><ele>223.0</ele><time>2026-05-03T10:43:02.901Z</time></trkpt><trkpt lat="45.8393887" lon="9.3579017"><ele>223.0</ele><time>2026-05-03T10:43:03.9Z</time></trkpt><trkpt lat="45.8392407" lon="9.3577994"><ele>223.0</ele><time>2026-05-03T10:43:04.906Z</time></trkpt><trkpt lat="45.8390823" lon="9.3576877"><ele>223.0</ele><time>2026-05-03T10:43:05.906Z</time></trkpt><trkpt lat="45.8389195" lon="9.3575702"><ele>223.0</ele><time>2026-05-03T10:43:06.886Z</time></trkpt><trkpt lat="45.8387499" lon="9.3574326"><ele>223.0</ele><time>2026-05-03T10:43:07.9Z</time></trkpt><trkpt lat="45.8385589" lon="9.3572703"><ele>223.0</ele><time>2026-05-03T10:43:08.895Z</time></trkpt><trkpt lat="45.8383679" lon="9.3570843"><ele>223.0</ele><time>2026-05-03T10:43:09.898Z</time></trkpt><trkpt lat="45.8381793" lon="9.3568876"><ele>223.0</ele><time>2026-05-03T10:43:10.889Z</time></trkpt><trkpt lat="45.8379727" lon="9.3566854"><ele>223.0</ele><time>2026-05-03T10:43:11.895Z</time></trkpt><trkpt lat="45.8377571" lon="9.3564734"><ele>223.0</ele><time>2026-05-03T10:43:12.91Z</time></trkpt><trkpt lat="45.8375429" lon="9.3562562"><ele>224.0</ele><time>2026-05-03T10:43:13.897Z</time></trkpt><trkpt lat="45.8373286" lon="9.3560321"><ele>225.0</ele><time>2026-05-03T10:43:14.899Z</time></trkpt><trkpt lat="45.8371116" lon="9.3558028"><ele>225.0</ele><time>2026-05-03T10:43:15.905Z</time></trkpt><trkpt lat="45.8368888" lon="9.3555642"><ele>225.0</ele><time>2026-05-03T10:43:16.902Z</time></trkpt><trkpt lat="45.8366639" lon="9.3553186"><ele>223.0</ele><time>2026-05-03T10:43:17.901Z</time></trkpt><trkpt lat="45.8364366" lon="9.3550753"><ele>221.0</ele><time>2026-05-03T10:43:18.904Z</time></trkpt><trkpt lat="45.8362078" lon="9.354834"><ele>221.5</ele><time>2026-05-03T10:43:19.899Z</time></trkpt><trkpt lat="45.8359757" lon="9.3545901"><ele>222.0</ele><time>2026-05-03T10:43:20.904Z</time></trkpt><trkpt lat="45.8357406" lon="9.3543453"><ele>221.5</ele><time>2026-05-03T10:43:21.896Z</time></trkpt><trkpt lat="45.8355054" lon="9.3541049"><ele>221.0</ele><time>2026-05-03T10:43:22.897Z</time></trkpt><trkpt lat="45.8352734" lon="9.3538693"><ele>221.0</ele><time>2026-05-03T10:43:23.909Z</time></trkpt><trkpt lat="45.8350464" lon="9.3536374"><ele>221.0</ele><time>2026-05-03T10:43:24.877Z</time></trkpt><trkpt lat="45.8348225" lon="9.3534104"><ele>221.0</ele><time>2026-05-03T10:43:25.904Z</time></trkpt><trkpt lat="45.834608" lon="9.353182"><ele>221.0</ele><time>2026-05-03T10:43:26.903Z</time></trkpt><trkpt lat="45.8344011" lon="9.3529726"><ele>221.0</ele><time>2026-05-03T10:43:27.897Z</time></trkpt><trkpt lat="45.8341996" lon="9.3527818"><ele>221.0</ele><time>2026-05-03T10:43:28.897Z</time></trkpt><trkpt lat="45.8340058" lon="9.3526078"><ele>221.0</ele><time>2026-05-03T10:43:29.886Z</time></trkpt><trkpt lat="45.8337992" lon="9.3524656"><ele>221.0</ele><time>2026-05-03T10:43:30.891Z</time></trkpt><trkpt lat="45.8335855" lon="9.3523684"><ele>222.33333333333334</ele><time>2026-05-03T10:43:31.9Z</time></trkpt><trkpt lat="45.8333688" lon="9.3523124"><ele>223.66666666666669</ele><time>2026-05-03T10:43:32.898Z</time></trkpt><trkpt lat="45.8331593" lon="9.3522881"><ele>225.0</ele><time>2026-05-03T10:43:33.886Z</time></trkpt><trkpt lat="45.83296" lon="9.3522823"><ele>225.0</ele><time>2026-05-03T10:43:34.89Z</time></trkpt><trkpt lat="45.832761" lon="9.3523085"><ele>225.0</ele><time>2026-05-03T10:43:35.896Z</time></trkpt><trkpt lat="45.8325682" lon="9.3523455"><ele>225.0</ele><time>2026-05-03T10:43:36.904Z</time></trkpt><trkpt lat="45.8323719" lon="9.3523806"><ele>226.66666666666669</ele><time>2026-05-03T10:43:37.896Z</time></trkpt><trkpt lat="45.8321989" lon="9.3524148"><ele>228.33333333333334</ele><time>2026-05-03T10:43:38.897Z</time></trkpt><trkpt lat="45.832041" lon="9.3524473"><ele>230.0</ele><time>2026-05-03T10:43:39.897Z</time></trkpt><trkpt lat="45.8318898" lon="9.3524696"><ele>230.25</ele><time>2026-05-03T10:43:40.902Z</time></trkpt><trkpt lat="45.8317431" lon="9.3524762"><ele>230.5</ele><time>2026-05-03T10:43:41.901Z</time></trkpt><trkpt lat="45.8315976" lon="9.3524655"><ele>230.75</ele><time>2026-05-03T10:43:42.893Z</time></trkpt><trkpt lat="45.8314569" lon="9.3524562"><ele>231.0</ele><time>2026-05-03T10:43:43.88Z</time></trkpt><trkpt lat="45.8313145" lon="9.3524233"><ele>231.0</ele><time>2026-05-03T10:43:44.898Z</time></trkpt><trkpt lat="45.8311649" lon="9.3523736"><ele>231.0</ele><time>2026-05-03T10:43:45.897Z</time></trkpt><trkpt lat="45.8310139" lon="9.352329"><ele>231.0</ele><time>2026-05-03T10:43:46.9Z</time></trkpt><trkpt lat="45.8308463" lon="9.3522902"><ele>230.0</ele><time>2026-05-03T10:43:47.9Z</time></trkpt><trkpt lat="45.830665" lon="9.3522472"><ele>229.0</ele><time>2026-05-03T10:43:48.903Z</time></trkpt><trkpt lat="45.8304636" lon="9.3521881"><ele>228.0</ele><time>2026-05-03T10:43:49.891Z</time></trkpt><trkpt lat="45.8302511" lon="9.3521233"><ele>228.0</ele><time>2026-05-03T10:43:50.898Z</time></trkpt><trkpt lat="45.8300361" lon="9.3520635"><ele>228.0</ele><time>2026-05-03T10:43:51.88Z</time></trkpt><trkpt lat="45.8298201" lon="9.3520151"><ele>228.0</ele><time>2026-05-03T10:43:52.896Z</time></trkpt><trkpt lat="45.829599" lon="9.3519489"><ele>228.0</ele><time>2026-05-03T10:43:53.894Z</time></trkpt><trkpt lat="45.8293884" lon="9.3518859"><ele>228.0</ele><time>2026-05-03T10:43:54.887Z</time></trkpt><trkpt lat="45.8291897" lon="9.3518148"><ele>228.0</ele><time>2026-05-03T10:43:55.897Z</time></trkpt><trkpt lat="45.8289936" lon="9.3517416"><ele>228.33333333333331</ele><time>2026-05-03T10:43:56.889Z</time></trkpt><trkpt lat="45.8288125" lon="9.3516655"><ele>228.66666666666666</ele><time>2026-05-03T10:43:57.888Z</time></trkpt><trkpt lat="45.82864" lon="9.3515824"><ele>229.0</ele><time>2026-05-03T10:43:58.902Z</time></trkpt><trkpt lat="45.8284735" lon="9.3514881"><ele>229.33333333333331</ele><time>2026-05-03T10:43:59.901Z</time></trkpt><trkpt lat="45.8283067" lon="9.3513849"><ele>229.66666666666669</ele><time>2026-05-03T10:44:00.891Z</time></trkpt><trkpt lat="45.8281418" lon="9.3512762"><ele>230.0</ele><time>2026-05-03T10:44:01.903Z</time></trkpt><trkpt lat="45.8279781" lon="9.3511573"><ele>229.33333333333334</ele><time>2026-05-03T10:44:02.894Z</time></trkpt><trkpt lat="45.827824" lon="9.3510414"><ele>228.66666666666669</ele><time>2026-05-03T10:44:03.893Z</time></trkpt><trkpt lat="45.827678" lon="9.3509279"><ele>228.0</ele><time>2026-05-03T10:44:04.9Z</time></trkpt><trkpt lat="45.8275449" lon="9.3508247"><ele>228.4</ele><time>2026-05-03T10:44:05.899Z</time></trkpt><trkpt lat="45.8274324" lon="9.3507345"><ele>228.8</ele><time>2026-05-03T10:44:06.897Z</time></trkpt><trkpt lat="45.8273386" lon="9.3506561"><ele>229.2</ele><time>2026-05-03T10:44:07.901Z</time></trkpt><trkpt lat="45.827274" lon="9.3505793"><ele>229.6</ele><time>2026-05-03T10:44:09.886Z</time></trkpt><trkpt lat="45.8272148" lon="9.3504546"><ele>230.0</ele><time>2026-05-03T10:44:15.898Z</time></trkpt><trkpt lat="45.8271203" lon="9.3503565"><ele>230.00000000000003</ele><time>2026-05-03T10:44:17.907Z</time></trkpt><trkpt lat="45.827057" lon="9.3503743"><ele>230.0</ele><time>2026-05-03T10:44:18.882Z</time></trkpt><trkpt lat="45.8269738" lon="9.3504847"><ele>230.0</ele><time>2026-05-03T10:44:20.902Z</time></trkpt><trkpt lat="45.826977" lon="9.3505833"><ele>230.0</ele><time>2026-05-03T10:44:21.897Z</time></trkpt><trkpt lat="45.8270203" lon="9.3506503"><ele>230.00000000000003</ele><time>2026-05-03T10:44:22.904Z</time></trkpt><trkpt lat="45.827077" lon="9.3507067"><ele>230.0</ele><time>2026-05-03T10:44:23.897Z</time></trkpt><trkpt lat="45.8271515" lon="9.3507544"><ele>230.75</ele><time>2026-05-03T10:44:24.893Z</time></trkpt><trkpt lat="45.8272554" lon="9.3507817"><ele>231.5</ele><time>2026-05-03T10:44:25.898Z</time></trkpt><trkpt lat="45.8273688" lon="9.350833"><ele>232.25</ele><time>2026-05-03T10:44:26.895Z</time></trkpt><trkpt lat="45.8274853" lon="9.3509206"><ele>233.0</ele><time>2026-05-03T10:44:27.897Z</time></trkpt><trkpt lat="45.8275948" lon="9.3510071"><ele>232.25</ele><time>2026-05-03T10:44:28.893Z</time></trkpt><trkpt lat="45.8277148" lon="9.3511109"><ele>231.5</ele><time>2026-05-03T10:44:29.898Z</time></trkpt><trkpt lat="45.8278314" lon="9.3512048"><ele>230.75</ele><time>2026-05-03T10:44:30.897Z</time></trkpt><trkpt lat="45.8279412" lon="9.351295"><ele>230.0</ele><time>2026-05-03T10:44:31.899Z</time></trkpt><trkpt lat="45.828045" lon="9.3513792"><ele>230.0</ele><time>2026-05-03T10:44:32.891Z</time></trkpt><trkpt lat="45.8281289" lon="9.3514731"><ele>230.0</ele><time>2026-05-03T10:44:33.902Z</time></trkpt><trkpt lat="45.8281999" lon="9.3515847"><ele>230.0</ele><time>2026-05-03T10:44:34.903Z</time></trkpt><trkpt lat="45.8282677" lon="9.3516962"><ele>230.0</ele><time>2026-05-03T10:44:35.888Z</time></trkpt><trkpt lat="45.8282924" lon="9.3518418"><ele>230.0</ele><time>2026-05-03T10:44:36.895Z</time></trkpt><trkpt lat="45.8283206" lon="9.3519899"><ele>230.0</ele><time>2026-05-03T10:44:37.896Z</time></trkpt><trkpt lat="45.8283132" lon="9.3521718"><ele>230.0</ele><time>2026-05-03T10:44:38.904Z</time></trkpt><trkpt lat="45.8283191" lon="9.3523441"><ele>230.0</ele><time>2026-05-03T10:44:39.881Z</time></trkpt><trkpt lat="45.8282898" lon="9.3525445"><ele>230.0</ele><time>2026-05-03T10:44:40.891Z</time></trkpt><trkpt lat="45.8282884" lon="9.3527716"><ele>230.75</ele><time>2026-05-03T10:44:41.895Z</time></trkpt><trkpt lat="45.8282786" lon="9.3529713"><ele>231.5</ele><time>2026-05-03T10:44:42.904Z</time></trkpt><trkpt lat="45.8282629" lon="9.3531397"><ele>232.25</ele><time>2026-05-03T10:44:43.887Z</time></trkpt><trkpt lat="45.8282426" lon="9.3532919"><ele>233.0</ele><time>2026-05-03T10:44:44.905Z</time></trkpt><trkpt lat="45.8282037" lon="9.3534251"><ele>233.75</ele><time>2026-05-03T10:44:45.891Z</time></trkpt><trkpt lat="45.8281341" lon="9.3535498"><ele>234.5</ele><time>2026-05-03T10:44:46.894Z</time></trkpt><trkpt lat="45.8280344" lon="9.3536782"><ele>235.25</ele><time>2026-05-03T10:44:47.901Z</time></trkpt><trkpt lat="45.8279317" lon="9.3538246"><ele>236.0</ele><time>2026-05-03T10:44:48.898Z</time></trkpt><trkpt lat="45.8278129" lon="9.3539851"><ele>234.33333333333334</ele><time>2026-05-03T10:44:49.884Z</time></trkpt><trkpt lat="45.8276902" lon="9.3541327"><ele>232.66666666666669</ele><time>2026-05-03T10:44:50.902Z</time></trkpt><trkpt lat="45.82755" lon="9.3542919"><ele>231.0</ele><time>2026-05-03T10:44:51.888Z</time></trkpt><trkpt lat="45.8274263" lon="9.3544418"><ele>231.0</ele><time>2026-05-03T10:44:52.897Z</time></trkpt><trkpt lat="45.8273195" lon="9.3545846"><ele>231.0</ele><time>2026-05-03T10:44:53.894Z</time></trkpt><trkpt lat="45.827226" lon="9.35471"><ele>231.0</ele><time>2026-05-03T10:44:54.891Z</time></trkpt><trkpt lat="45.8271435" lon="9.3548175"><ele>231.0</ele><time>2026-05-03T10:44:55.901Z</time></trkpt><trkpt lat="45.82707" lon="9.3548712"><ele>230.16666666666666</ele><time>2026-05-03T10:44:56.896Z</time></trkpt><trkpt lat="45.8269687" lon="9.3548667"><ele>229.33333333333331</ele><time>2026-05-03T10:44:57.897Z</time></trkpt><trkpt lat="45.8268767" lon="9.3548731"><ele>228.5</ele><time>2026-05-03T10:44:58.888Z</time></trkpt><trkpt lat="45.8268008" lon="9.3549149"><ele>227.66666666666666</ele><time>2026-05-03T10:44:59.903Z</time></trkpt><trkpt lat="45.8267342" lon="9.3549619"><ele>226.83333333333331</ele><time>2026-05-03T10:45:00.887Z</time></trkpt><trkpt lat="45.8266941" lon="9.3550916"><ele>226.0</ele><time>2026-05-03T10:45:01.892Z</time></trkpt><trkpt lat="45.8266722" lon="9.3552654"><ele>226.0</ele><time>2026-05-03T10:45:02.896Z</time></trkpt><trkpt lat="45.8266329" lon="9.3554527"><ele>226.0</ele><time>2026-05-03T10:45:03.9Z</time></trkpt><trkpt lat="45.8265607" lon="9.3556346"><ele>226.0</ele><time>2026-05-03T10:45:04.902Z</time></trkpt><trkpt lat="45.826453" lon="9.3558036"><ele>226.0</ele><time>2026-05-03T10:45:05.889Z</time></trkpt><trkpt lat="45.8263146" lon="9.3559413"><ele>226.33333333333331</ele><time>2026-05-03T10:45:06.899Z</time></trkpt><trkpt lat="45.8261491" lon="9.3560652"><ele>226.66666666666669</ele><time>2026-05-03T10:45:07.899Z</time></trkpt><trkpt lat="45.8259639" lon="9.3561631"><ele>227.0</ele><time>2026-05-03T10:45:08.9Z</time></trkpt><trkpt lat="45.8257669" lon="9.3562354"><ele>227.0</ele><time>2026-05-03T10:45:09.891Z</time></trkpt><trkpt lat="45.8255627" lon="9.356284"><ele>227.0</ele><time>2026-05-03T10:45:10.894Z</time></trkpt><trkpt lat="45.8253709" lon="9.3563304"><ele>227.0</ele><time>2026-05-03T10:45:11.892Z</time></trkpt><trkpt lat="45.8251841" lon="9.3563813"><ele>230.33333333333334</ele><time>2026-05-03T10:45:12.899Z</time></trkpt><trkpt lat="45.8249979" lon="9.356436"><ele>233.66666666666669</ele><time>2026-05-03T10:45:13.897Z</time></trkpt><trkpt lat="45.8248138" lon="9.3564873"><ele>237.0</ele><time>2026-05-03T10:45:14.894Z</time></trkpt><trkpt lat="45.8246385" lon="9.3565322"><ele>237.0</ele><time>2026-05-03T10:45:15.893Z</time></trkpt><trkpt lat="45.8244687" lon="9.3565847"><ele>237.0</ele><time>2026-05-03T10:45:16.896Z</time></trkpt><trkpt lat="45.8242984" lon="9.3566377"><ele>237.0</ele><time>2026-05-03T10:45:17.9Z</time></trkpt><trkpt lat="45.8241282" lon="9.3566876"><ele>234.33333333333331</ele><time>2026-05-03T10:45:18.902Z</time></trkpt><trkpt lat="45.8239557" lon="9.3567336"><ele>231.66666666666666</ele><time>2026-05-03T10:45:19.899Z</time></trkpt><trkpt lat="45.8237812" lon="9.356793"><ele>229.0</ele><time>2026-05-03T10:45:20.896Z</time></trkpt><trkpt lat="45.8236084" lon="9.3568472"><ele>228.66666666666666</ele><time>2026-05-03T10:45:21.894Z</time></trkpt><trkpt lat="45.8234405" lon="9.3569151"><ele>228.33333333333331</ele><time>2026-05-03T10:45:22.905Z</time></trkpt><trkpt lat="45.8232777" lon="9.3570017"><ele>228.0</ele><time>2026-05-03T10:45:23.902Z</time></trkpt><trkpt lat="45.8231151" lon="9.3571124"><ele>228.0</ele><time>2026-05-03T10:45:24.907Z</time></trkpt><trkpt lat="45.8229544" lon="9.3572396"><ele>228.0</ele><time>2026-05-03T10:45:25.892Z</time></trkpt><trkpt lat="45.8227954" lon="9.3573816"><ele>228.0</ele><time>2026-05-03T10:45:26.901Z</time></trkpt><trkpt lat="45.8226302" lon="9.3575251"><ele>228.0</ele><time>2026-05-03T10:45:27.891Z</time></trkpt><trkpt lat="45.8224605" lon="9.3576693"><ele>228.0</ele><time>2026-05-03T10:45:28.893Z</time></trkpt><trkpt lat="45.8222873" lon="9.3578079"><ele>228.0</ele><time>2026-05-03T10:45:29.904Z</time></trkpt><trkpt lat="45.8221142" lon="9.3579504"><ele>227.66666666666669</ele><time>2026-05-03T10:45:30.889Z</time></trkpt><trkpt lat="45.8219404" lon="9.3580917"><ele>227.33333333333334</ele><time>2026-05-03T10:45:31.893Z</time></trkpt><trkpt lat="45.82177" lon="9.3582315"><ele>227.0</ele><time>2026-05-03T10:45:32.911Z</time></trkpt><trkpt lat="45.8216007" lon="9.3583701"><ele>227.0</ele><time>2026-05-03T10:45:33.906Z</time></trkpt><trkpt lat="45.821433" lon="9.3585024"><ele>227.0</ele><time>2026-05-03T10:45:34.911Z</time></trkpt><trkpt lat="45.8212718" lon="9.3586271"><ele>227.0</ele><time>2026-05-03T10:45:35.902Z</time></trkpt><trkpt lat="45.8211217" lon="9.3587498"><ele>227.0</ele><time>2026-05-03T10:45:36.895Z</time></trkpt><trkpt lat="45.8209797" lon="9.3588698"><ele>227.0</ele><time>2026-05-03T10:45:37.9Z</time></trkpt><trkpt lat="45.8208432" lon="9.3589869"><ele>227.0</ele><time>2026-05-03T10:45:38.881Z</time></trkpt><trkpt lat="45.8207136" lon="9.3590941"><ele>227.0</ele><time>2026-05-03T10:45:39.898Z</time></trkpt><trkpt lat="45.8205898" lon="9.359198"><ele>227.0</ele><time>2026-05-03T10:45:40.895Z</time></trkpt><trkpt lat="45.8204699" lon="9.3592969"><ele>227.0</ele><time>2026-05-03T10:45:41.899Z</time></trkpt><trkpt lat="45.8203563" lon="9.3593914"><ele>227.0</ele><time>2026-05-03T10:45:42.893Z</time></trkpt><trkpt lat="45.8202458" lon="9.359485"><ele>226.75</ele><time>2026-05-03T10:45:43.895Z</time></trkpt><trkpt lat="45.8201392" lon="9.359579"><ele>226.5</ele><time>2026-05-03T10:45:44.896Z</time></trkpt><trkpt lat="45.8200324" lon="9.3596725"><ele>226.25</ele><time>2026-05-03T10:45:45.885Z</time></trkpt><trkpt lat="45.819929" lon="9.3597628"><ele>226.0</ele><time>2026-05-03T10:45:46.896Z</time></trkpt><trkpt lat="45.8198273" lon="9.3598533"><ele>227.0</ele><time>2026-05-03T10:45:47.895Z</time></trkpt><trkpt lat="45.8197277" lon="9.3599443"><ele>228.0</ele><time>2026-05-03T10:45:48.89Z</time></trkpt><trkpt lat="45.8196254" lon="9.3600312"><ele>229.0</ele><time>2026-05-03T10:45:49.895Z</time></trkpt><trkpt lat="45.8195196" lon="9.3601182"><ele>230.0</ele><time>2026-05-03T10:45:50.898Z</time></trkpt><trkpt lat="45.8194124" lon="9.3602057"><ele>230.0</ele><time>2026-05-03T10:45:51.899Z</time></trkpt><trkpt lat="45.8193052" lon="9.3602958"><ele>230.0</ele><time>2026-05-03T10:45:52.903Z</time></trkpt><trkpt lat="45.819201" lon="9.3603872"><ele>230.0</ele><time>2026-05-03T10:45:53.896Z</time></trkpt><trkpt lat="45.8190952" lon="9.3604761"><ele>230.0</ele><time>2026-05-03T10:45:54.888Z</time></trkpt><trkpt lat="45.8189824" lon="9.3605575"><ele>230.0</ele><time>2026-05-03T10:45:55.882Z</time></trkpt><trkpt lat="45.8188599" lon="9.36063"><ele>230.0</ele><time>2026-05-03T10:45:56.896Z</time></trkpt><trkpt lat="45.8187321" lon="9.3606873"><ele>230.0</ele><time>2026-05-03T10:45:57.897Z</time></trkpt><trkpt lat="45.8186006" lon="9.360732"><ele>230.0</ele><time>2026-05-03T10:45:58.893Z</time></trkpt><trkpt lat="45.8184644" lon="9.3607602"><ele>229.5</ele><time>2026-05-03T10:45:59.901Z</time></trkpt><trkpt lat="45.8183248" lon="9.3607733"><ele>229.0</ele><time>2026-05-03T10:46:00.894Z</time></trkpt><trkpt lat="45.8181805" lon="9.3607709"><ele>228.5</ele><time>2026-05-03T10:46:01.884Z</time></trkpt><trkpt lat="45.818036" lon="9.3607549"><ele>228.0</ele><time>2026-05-03T10:46:02.896Z</time></trkpt><trkpt lat="45.8178919" lon="9.3607235"><ele>228.0</ele><time>2026-05-03T10:46:03.895Z</time></trkpt><trkpt lat="45.8177475" lon="9.3606837"><ele>228.0</ele><time>2026-05-03T10:46:04.886Z</time></trkpt><trkpt lat="45.8175964" lon="9.360622"><ele>228.0</ele><time>2026-05-03T10:46:05.905Z</time></trkpt><trkpt lat="45.8174448" lon="9.3605582"><ele>227.0</ele><time>2026-05-03T10:46:06.904Z</time></trkpt><trkpt lat="45.8172906" lon="9.360491"><ele>226.0</ele><time>2026-05-03T10:46:07.897Z</time></trkpt><trkpt lat="45.817138" lon="9.3604244"><ele>225.0</ele><time>2026-05-03T10:46:08.899Z</time></trkpt><trkpt lat="45.8169909" lon="9.3603626"><ele>225.0</ele><time>2026-05-03T10:46:09.903Z</time></trkpt><trkpt lat="45.8168564" lon="9.3603028"><ele>225.0</ele><time>2026-05-03T10:46:10.897Z</time></trkpt><trkpt lat="45.816727" lon="9.3602491"><ele>225.0</ele><time>2026-05-03T10:46:11.899Z</time></trkpt><trkpt lat="45.8165951" lon="9.3601913"><ele>225.0</ele><time>2026-05-03T10:46:12.895Z</time></trkpt><trkpt lat="45.8164663" lon="9.3601315"><ele>225.0</ele><time>2026-05-03T10:46:13.897Z</time></trkpt><trkpt lat="45.8163381" lon="9.3600704"><ele>225.0</ele><time>2026-05-03T10:46:14.899Z</time></trkpt><trkpt lat="45.8162134" lon="9.3600119"><ele>225.0</ele><time>2026-05-03T10:46:15.897Z</time></trkpt><trkpt lat="45.8160882" lon="9.3599547"><ele>225.0</ele><time>2026-05-03T10:46:16.901Z</time></trkpt><trkpt lat="45.8159625" lon="9.3598967"><ele>225.75</ele><time>2026-05-03T10:46:17.893Z</time></trkpt><trkpt lat="45.8158393" lon="9.3598426"><ele>226.5</ele><time>2026-05-03T10:46:18.893Z</time></trkpt><trkpt lat="45.8157148" lon="9.3597942"><ele>227.25</ele><time>2026-05-03T10:46:19.897Z</time></trkpt><trkpt lat="45.8155851" lon="9.3597623"><ele>228.0</ele><time>2026-05-03T10:46:20.896Z</time></trkpt><trkpt lat="45.8154523" lon="9.3597467"><ele>228.0</ele><time>2026-05-03T10:46:21.901Z</time></trkpt><trkpt lat="45.81532" lon="9.3597392"><ele>228.0</ele><time>2026-05-03T10:46:22.893Z</time></trkpt><trkpt lat="45.8151868" lon="9.3597369"><ele>228.0</ele><time>2026-05-03T10:46:23.899Z</time></trkpt><trkpt lat="45.8150523" lon="9.3597391"><ele>228.0</ele><time>2026-05-03T10:46:24.901Z</time></trkpt><trkpt lat="45.8149187" lon="9.3597462"><ele>228.0</ele><time>2026-05-03T10:46:25.905Z</time></trkpt><trkpt lat="45.8147834" lon="9.3597567"><ele>228.0</ele><time>2026-05-03T10:46:26.903Z</time></trkpt><trkpt lat="45.8146439" lon="9.3597669"><ele>228.0</ele><time>2026-05-03T10:46:27.893Z</time></trkpt><trkpt lat="45.8145022" lon="9.3597767"><ele>228.0</ele><time>2026-05-03T10:46:28.885Z</time></trkpt><trkpt lat="45.814357" lon="9.3597858"><ele>228.5</ele><time>2026-05-03T10:46:29.897Z</time></trkpt><trkpt lat="45.8142115" lon="9.3597943"><ele>229.0</ele><time>2026-05-03T10:46:30.898Z</time></trkpt><trkpt lat="45.8140647" lon="9.3598033"><ele>229.5</ele><time>2026-05-03T10:46:31.886Z</time></trkpt><trkpt lat="45.8139169" lon="9.3598122"><ele>230.0</ele><time>2026-05-03T10:46:32.888Z</time></trkpt><trkpt lat="45.8137655" lon="9.3598248"><ele>230.0</ele><time>2026-05-03T10:46:33.898Z</time></trkpt><trkpt lat="45.8135828" lon="9.3598444"><ele>230.0</ele><time>2026-05-03T10:46:34.894Z</time></trkpt><trkpt lat="45.8133754" lon="9.3598888"><ele>230.0</ele><time>2026-05-03T10:46:35.9Z</time></trkpt><trkpt lat="45.8131223" lon="9.3599271"><ele>232.0</ele><time>2026-05-03T10:46:36.882Z</time></trkpt><trkpt lat="45.8128227" lon="9.359947"><ele>234.0</ele><time>2026-05-03T10:46:37.891Z</time></trkpt><trkpt lat="45.8124903" lon="9.359949"><ele>230.0</ele><time>2026-05-03T10:46:38.887Z</time></trkpt><trkpt lat="45.8121403" lon="9.3599648"><ele>226.0</ele><time>2026-05-03T10:46:39.892Z</time></trkpt><trkpt lat="45.8117875" lon="9.3599524"><ele>225.5</ele><time>2026-05-03T10:46:40.891Z</time></trkpt><trkpt lat="45.8114598" lon="9.359962"><ele>225.0</ele><time>2026-05-03T10:46:41.903Z</time></trkpt><trkpt lat="45.8111449" lon="9.359974"><ele>225.5</ele><time>2026-05-03T10:46:42.899Z</time></trkpt><trkpt lat="45.8108533" lon="9.3599705"><ele>226.0</ele><time>2026-05-03T10:46:43.889Z</time></trkpt><trkpt lat="45.8105798" lon="9.3599318"><ele>226.0</ele><time>2026-05-03T10:46:44.894Z</time></trkpt><trkpt lat="45.8102968" lon="9.3598759"><ele>226.0</ele><time>2026-05-03T10:46:45.88Z</time></trkpt><trkpt lat="45.8100174" lon="9.3598119"><ele>226.0</ele><time>2026-05-03T10:46:46.896Z</time></trkpt><trkpt lat="45.8097412" lon="9.3597527"><ele>226.0</ele><time>2026-05-03T10:46:47.881Z</time></trkpt><trkpt lat="45.8094671" lon="9.3596954"><ele>227.0</ele><time>2026-05-03T10:46:48.887Z</time></trkpt><trkpt lat="45.8091963" lon="9.3596387"><ele>228.0</ele><time>2026-05-03T10:46:49.884Z</time></trkpt><trkpt lat="45.8089295" lon="9.3595831"><ele>228.0</ele><time>2026-05-03T10:46:50.9Z</time></trkpt><trkpt lat="45.8086667" lon="9.3595297"><ele>228.0</ele><time>2026-05-03T10:46:51.893Z</time></trkpt><trkpt lat="45.8084067" lon="9.3594764"><ele>228.0</ele><time>2026-05-03T10:46:52.899Z</time></trkpt><trkpt lat="45.808152" lon="9.3594235"><ele>228.0</ele><time>2026-05-03T10:46:53.912Z</time></trkpt><trkpt lat="45.8079011" lon="9.3593705"><ele>227.0</ele><time>2026-05-03T10:46:54.889Z</time></trkpt><trkpt lat="45.8076542" lon="9.3593191"><ele>226.0</ele><time>2026-05-03T10:46:55.897Z</time></trkpt><trkpt lat="45.8074091" lon="9.3592699"><ele>226.0</ele><time>2026-05-03T10:46:56.899Z</time></trkpt><trkpt lat="45.8071648" lon="9.359219"><ele>226.0</ele><time>2026-05-03T10:46:57.89Z</time></trkpt><trkpt lat="45.8069224" lon="9.3591644"><ele>227.0</ele><time>2026-05-03T10:46:58.902Z</time></trkpt><trkpt lat="45.8066816" lon="9.3591116"><ele>228.0</ele><time>2026-05-03T10:46:59.895Z</time></trkpt><trkpt lat="45.8064414" lon="9.3590638"><ele>228.0</ele><time>2026-05-03T10:47:00.893Z</time></trkpt><trkpt lat="45.8062032" lon="9.3590169"><ele>228.0</ele><time>2026-05-03T10:47:01.906Z</time></trkpt><trkpt lat="45.8059668" lon="9.3589667"><ele>228.0</ele><time>2026-05-03T10:47:02.897Z</time></trkpt><trkpt lat="45.8057334" lon="9.3589142"><ele>228.0</ele><time>2026-05-03T10:47:03.896Z</time></trkpt><trkpt lat="45.8055032" lon="9.3588674"><ele>228.0</ele><time>2026-05-03T10:47:04.896Z</time></trkpt><trkpt lat="45.805283" lon="9.3588221"><ele>228.0</ele><time>2026-05-03T10:47:05.898Z</time></trkpt><trkpt lat="45.8050806" lon="9.358775"><ele>228.0</ele><time>2026-05-03T10:47:06.896Z</time></trkpt><trkpt lat="45.8048938" lon="9.3587317"><ele>229.0</ele><time>2026-05-03T10:47:07.894Z</time></trkpt><trkpt lat="45.804723" lon="9.3586942"><ele>230.0</ele><time>2026-05-03T10:47:08.894Z</time></trkpt><trkpt lat="45.8045629" lon="9.3586676"><ele>231.0</ele><time>2026-05-03T10:47:09.894Z</time></trkpt><trkpt lat="45.8044146" lon="9.3586626"><ele>231.0</ele><time>2026-05-03T10:47:10.885Z</time></trkpt><trkpt lat="45.8042704" lon="9.3586718"><ele>231.0</ele><time>2026-05-03T10:47:11.891Z</time></trkpt><trkpt lat="45.8041315" lon="9.3587052"><ele>231.0</ele><time>2026-05-03T10:47:12.888Z</time></trkpt><trkpt lat="45.8039729" lon="9.3587695"><ele>231.0</ele><time>2026-05-03T10:47:13.909Z</time></trkpt><trkpt lat="45.8038166" lon="9.3588403"><ele>231.0</ele><time>2026-05-03T10:47:14.901Z</time></trkpt><trkpt lat="45.8036645" lon="9.3589006"><ele>231.0</ele><time>2026-05-03T10:47:15.892Z</time></trkpt><trkpt lat="45.8035356" lon="9.3589464"><ele>233.8</ele><time>2026-05-03T10:47:16.878Z</time></trkpt><trkpt lat="45.8034199" lon="9.358976"><ele>236.60000000000002</ele><time>2026-05-03T10:47:17.892Z</time></trkpt><trkpt lat="45.8033193" lon="9.3589803"><ele>239.4</ele><time>2026-05-03T10:47:18.901Z</time></trkpt><trkpt lat="45.8032256" lon="9.358952"><ele>242.2</ele><time>2026-05-03T10:47:19.892Z</time></trkpt><trkpt lat="45.8031323" lon="9.3589213"><ele>245.0</ele><time>2026-05-03T10:47:20.89Z</time></trkpt><trkpt lat="45.8030427" lon="9.3589054"><ele>245.0</ele><time>2026-05-03T10:47:21.89Z</time></trkpt><trkpt lat="45.8029301" lon="9.3589694"><ele>245.0</ele><time>2026-05-03T10:47:22.896Z</time></trkpt><trkpt lat="45.8028011" lon="9.3590059"><ele>245.0</ele><time>2026-05-03T10:47:23.893Z</time></trkpt><trkpt lat="45.8026575" lon="9.3589529"><ele>245.0</ele><time>2026-05-03T10:47:24.893Z</time></trkpt><trkpt lat="45.8025149" lon="9.3588962"><ele>242.33333333333334</ele><time>2026-05-03T10:47:25.894Z</time></trkpt><trkpt lat="45.8023648" lon="9.358832"><ele>239.66666666666669</ele><time>2026-05-03T10:47:26.895Z</time></trkpt><trkpt lat="45.8022037" lon="9.3587669"><ele>237.0</ele><time>2026-05-03T10:47:27.9Z</time></trkpt><trkpt lat="45.8020302" lon="9.3586987"><ele>237.0</ele><time>2026-05-03T10:47:28.896Z</time></trkpt><trkpt lat="45.8018539" lon="9.3586238"><ele>237.0</ele><time>2026-05-03T10:47:29.898Z</time></trkpt><trkpt lat="45.8016683" lon="9.3585485"><ele>237.0</ele><time>2026-05-03T10:47:30.891Z</time></trkpt><trkpt lat="45.8014655" lon="9.3584543"><ele>239.0</ele><time>2026-05-03T10:47:31.897Z</time></trkpt><trkpt lat="45.8012287" lon="9.3583598"><ele>241.0</ele><time>2026-05-03T10:47:32.888Z</time></trkpt><trkpt lat="45.8009951" lon="9.358266"><ele>246.0</ele><time>2026-05-03T10:47:33.894Z</time></trkpt><trkpt lat="45.800751" lon="9.3581666"><ele>251.0</ele><time>2026-05-03T10:47:34.885Z</time></trkpt><trkpt lat="45.8004854" lon="9.358073"><ele>250.5</ele><time>2026-05-03T10:47:35.887Z</time></trkpt><trkpt lat="45.8002165" lon="9.3579761"><ele>250.0</ele><time>2026-05-03T10:47:36.894Z</time></trkpt><trkpt lat="45.7999472" lon="9.3578737"><ele>250.0</ele><time>2026-05-03T10:47:37.886Z</time></trkpt><trkpt lat="45.7996653" lon="9.3577521"><ele>250.0</ele><time>2026-05-03T10:47:38.903Z</time></trkpt><trkpt lat="45.7993797" lon="9.3576339"><ele>254.0</ele><time>2026-05-03T10:47:39.9Z</time></trkpt><trkpt lat="45.7990977" lon="9.3575078"><ele>258.0</ele><time>2026-05-03T10:47:40.905Z</time></trkpt><trkpt lat="45.7988072" lon="9.3573874"><ele>258.0</ele><time>2026-05-03T10:47:41.902Z</time></trkpt><trkpt lat="45.7985022" lon="9.3572629"><ele>258.0</ele><time>2026-05-03T10:47:42.902Z</time></trkpt><trkpt lat="45.7981944" lon="9.3571386"><ele>256.0</ele><time>2026-05-03T10:47:43.901Z</time></trkpt><trkpt lat="45.7978749" lon="9.3570148"><ele>254.0</ele><time>2026-05-03T10:47:44.894Z</time></trkpt><trkpt lat="45.7975564" lon="9.3568863"><ele>260.0</ele><time>2026-05-03T10:47:45.9Z</time></trkpt><trkpt lat="45.7972283" lon="9.356757"><ele>266.0</ele><time>2026-05-03T10:47:46.9Z</time></trkpt><trkpt lat="45.7968947" lon="9.3566323"><ele>273.0</ele><time>2026-05-03T10:47:47.903Z</time></trkpt><trkpt lat="45.7965814" lon="9.3565129"><ele>280.0</ele><time>2026-05-03T10:47:48.899Z</time></trkpt><trkpt lat="45.7962958" lon="9.3563927"><ele>273.0</ele><time>2026-05-03T10:47:49.884Z</time></trkpt><trkpt lat="45.7960476" lon="9.3562984"><ele>266.0</ele><time>2026-05-03T10:47:50.901Z</time></trkpt><trkpt lat="45.7958377" lon="9.3562181"><ele>266.0</ele><time>2026-05-03T10:47:51.895Z</time></trkpt><trkpt lat="45.7956521" lon="9.3561445"><ele>266.0</ele><time>2026-05-03T10:47:52.894Z</time></trkpt><trkpt lat="45.7954786" lon="9.3560658"><ele>266.0</ele><time>2026-05-03T10:47:53.894Z</time></trkpt><trkpt lat="45.7953063" lon="9.3559569"><ele>270.0</ele><time>2026-05-03T10:47:54.886Z</time></trkpt><trkpt lat="45.7951543" lon="9.3558512"><ele>274.0</ele><time>2026-05-03T10:47:55.898Z</time></trkpt><trkpt lat="45.7950348" lon="9.355685"><ele>278.0</ele><time>2026-05-03T10:47:56.901Z</time></trkpt><trkpt lat="45.7949475" lon="9.3554729"><ele>278.33333333333337</ele><time>2026-05-03T10:47:57.905Z</time></trkpt><trkpt lat="45.7948896" lon="9.355243"><ele>278.6666666666667</ele><time>2026-05-03T10:47:58.9Z</time></trkpt><trkpt lat="45.794838" lon="9.3550108"><ele>279.0</ele><time>2026-05-03T10:47:59.897Z</time></trkpt><trkpt lat="45.7948312" lon="9.3547383"><ele>278.3333333333333</ele><time>2026-05-03T10:48:00.897Z</time></trkpt><trkpt lat="45.7948212" lon="9.3544776"><ele>277.66666666666663</ele><time>2026-05-03T10:48:01.903Z</time></trkpt><trkpt lat="45.7947914" lon="9.3542308"><ele>277.0</ele><time>2026-05-03T10:48:02.89Z</time></trkpt><trkpt lat="45.7947574" lon="9.3539908"><ele>273.0</ele><time>2026-05-03T10:48:03.886Z</time></trkpt><trkpt lat="45.7946855" lon="9.3537844"><ele>269.0</ele><time>2026-05-03T10:48:04.897Z</time></trkpt><trkpt lat="45.7945886" lon="9.3536045"><ele>265.0</ele><time>2026-05-03T10:48:05.904Z</time></trkpt><trkpt lat="45.7944612" lon="9.3534631"><ele>271.66666666666663</ele><time>2026-05-03T10:48:06.902Z</time></trkpt><trkpt lat="45.7943223" lon="9.3533296"><ele>278.3333333333333</ele><time>2026-05-03T10:48:07.897Z</time></trkpt><trkpt lat="45.7941583" lon="9.3532615"><ele>285.0</ele><time>2026-05-03T10:48:08.899Z</time></trkpt><trkpt lat="45.7940065" lon="9.3532027"><ele>285.0</ele><time>2026-05-03T10:48:09.9Z</time></trkpt><trkpt lat="45.7938616" lon="9.3531953"><ele>285.0</ele><time>2026-05-03T10:48:10.895Z</time></trkpt><trkpt lat="45.7937343" lon="9.3531981"><ele>285.0</ele><time>2026-05-03T10:48:11.889Z</time></trkpt><trkpt lat="45.7936291" lon="9.3531958"><ele>285.0</ele><time>2026-05-03T10:48:12.892Z</time></trkpt><trkpt lat="45.7935363" lon="9.3531847"><ele>285.0</ele><time>2026-05-03T10:48:13.889Z</time></trkpt><trkpt lat="45.7934383" lon="9.35315"><ele>285.0</ele><time>2026-05-03T10:48:14.891Z</time></trkpt><trkpt lat="45.7933323" lon="9.3530977"><ele>285.0</ele><time>2026-05-03T10:48:15.894Z</time></trkpt><trkpt lat="45.7932259" lon="9.3530396"><ele>285.0</ele><time>2026-05-03T10:48:16.897Z</time></trkpt><trkpt lat="45.7931062" lon="9.3529679"><ele>285.0</ele><time>2026-05-03T10:48:17.896Z</time></trkpt><trkpt lat="45.7929784" lon="9.3528999"><ele>285.0</ele><time>2026-05-03T10:48:18.9Z</time></trkpt><trkpt lat="45.7928549" lon="9.3528349"><ele>285.0</ele><time>2026-05-03T10:48:19.901Z</time></trkpt><trkpt lat="45.7927342" lon="9.3527723"><ele>285.0</ele><time>2026-05-03T10:48:20.888Z</time></trkpt><trkpt lat="45.7926221" lon="9.3527171"><ele>284.8</ele><time>2026-05-03T10:48:21.913Z</time></trkpt><trkpt lat="45.7925144" lon="9.3526545"><ele>284.6</ele><time>2026-05-03T10:48:22.896Z</time></trkpt><trkpt lat="45.7924334" lon="9.3525884"><ele>284.4</ele><time>2026-05-03T10:48:23.903Z</time></trkpt><trkpt lat="45.7923645" lon="9.3525093"><ele>284.2</ele><time>2026-05-03T10:48:24.894Z</time></trkpt><trkpt lat="45.7923098" lon="9.3524234"><ele>284.0</ele><time>2026-05-03T10:48:25.899Z</time></trkpt><trkpt lat="45.7922495" lon="9.3523648"><ele>284.0</ele><time>2026-05-03T10:48:26.9Z</time></trkpt><trkpt lat="45.7921293" lon="9.3523883"><ele>284.0</ele><time>2026-05-03T10:48:28.893Z</time></trkpt><trkpt lat="45.7920605" lon="9.3524196"><ele>284.0</ele><time>2026-05-03T10:48:29.901Z</time></trkpt><trkpt lat="45.7919187" lon="9.3523753"><ele>284.0</ele><time>2026-05-03T10:48:31.891Z</time></trkpt><trkpt lat="45.7918174" lon="9.3523049"><ele>284.0</ele><time>2026-05-03T10:48:32.898Z</time></trkpt><trkpt lat="45.7916936" lon="9.3522485"><ele>284.0</ele><time>2026-05-03T10:48:33.892Z</time></trkpt><trkpt lat="45.7915766" lon="9.3521886"><ele>284.0</ele><time>2026-05-03T10:48:34.9Z</time></trkpt><trkpt lat="45.7914522" lon="9.3521296"><ele>284.0</ele><time>2026-05-03T10:48:35.9Z</time></trkpt><trkpt lat="45.7913217" lon="9.3520629"><ele>282.75</ele><time>2026-05-03T10:48:36.9Z</time></trkpt><trkpt lat="45.7911792" lon="9.3519994"><ele>281.5</ele><time>2026-05-03T10:48:37.892Z</time></trkpt><trkpt lat="45.7910475" lon="9.3519422"><ele>280.25</ele><time>2026-05-03T10:48:38.894Z</time></trkpt><trkpt lat="45.7909221" lon="9.3518822"><ele>279.0</ele><time>2026-05-03T10:48:39.893Z</time></trkpt><trkpt lat="45.7908127" lon="9.3518146"><ele>279.0</ele><time>2026-05-03T10:48:40.892Z</time></trkpt><trkpt lat="45.7907023" lon="9.3517289"><ele>279.0</ele><time>2026-05-03T10:48:41.892Z</time></trkpt><trkpt lat="45.7905859" lon="9.3516505"><ele>279.0</ele><time>2026-05-03T10:48:42.896Z</time></trkpt><trkpt lat="45.7904738" lon="9.3515576"><ele>279.0</ele><time>2026-05-03T10:48:43.889Z</time></trkpt><trkpt lat="45.7903682" lon="9.3514566"><ele>278.5</ele><time>2026-05-03T10:48:44.893Z</time></trkpt><trkpt lat="45.790281" lon="9.3513456"><ele>278.0</ele><time>2026-05-03T10:48:45.892Z</time></trkpt><trkpt lat="45.7901922" lon="9.3512344"><ele>277.5</ele><time>2026-05-03T10:48:46.903Z</time></trkpt><trkpt lat="45.7900988" lon="9.351117"><ele>277.0</ele><time>2026-05-03T10:48:47.898Z</time></trkpt><trkpt lat="45.7900158" lon="9.3510021"><ele>277.0</ele><time>2026-05-03T10:48:48.898Z</time></trkpt><trkpt lat="45.7899403" lon="9.3508826"><ele>277.0</ele><time>2026-05-03T10:48:49.89Z</time></trkpt><trkpt lat="45.7898777" lon="9.3507829"><ele>277.0</ele><time>2026-05-03T10:48:50.9Z</time></trkpt><trkpt lat="45.7898187" lon="9.3506875"><ele>277.0</ele><time>2026-05-03T10:48:51.906Z</time></trkpt><trkpt lat="45.7897524" lon="9.3505844"><ele>277.0</ele><time>2026-05-03T10:48:52.894Z</time></trkpt><trkpt lat="45.7896904" lon="9.350478"><ele>276.6</ele><time>2026-05-03T10:48:53.903Z</time></trkpt><trkpt lat="45.7896316" lon="9.3503677"><ele>276.2</ele><time>2026-05-03T10:48:54.895Z</time></trkpt><trkpt lat="45.7895756" lon="9.3502621"><ele>275.8</ele><time>2026-05-03T10:48:55.901Z</time></trkpt><trkpt lat="45.7895126" lon="9.350156"><ele>275.4</ele><time>2026-05-03T10:48:56.886Z</time></trkpt><trkpt lat="45.7894614" lon="9.3500559"><ele>275.0</ele><time>2026-05-03T10:48:57.902Z</time></trkpt><trkpt lat="45.7893936" lon="9.3499572"><ele>274.75</ele><time>2026-05-03T10:48:58.898Z</time></trkpt><trkpt lat="45.7893078" lon="9.3498331"><ele>274.5</ele><time>2026-05-03T10:48:59.904Z</time></trkpt><trkpt lat="45.7892221" lon="9.349709"><ele>274.25</ele><time>2026-05-03T10:49:00.902Z</time></trkpt><trkpt lat="45.7891381" lon="9.349585"><ele>274.0</ele><time>2026-05-03T10:49:01.894Z</time></trkpt><trkpt lat="45.7890555" lon="9.3494627"><ele>274.0</ele><time>2026-05-03T10:49:02.903Z</time></trkpt><trkpt lat="45.7889829" lon="9.3493435"><ele>274.0</ele><time>2026-05-03T10:49:03.897Z</time></trkpt><trkpt lat="45.7889172" lon="9.3492332"><ele>274.0</ele><time>2026-05-03T10:49:04.899Z</time></trkpt><trkpt lat="45.7888551" lon="9.3491286"><ele>274.0</ele><time>2026-05-03T10:49:05.903Z</time></trkpt><trkpt lat="45.7887923" lon="9.3490282"><ele>274.0</ele><time>2026-05-03T10:49:06.896Z</time></trkpt><trkpt lat="45.7887426" lon="9.3489252"><ele>274.0</ele><time>2026-05-03T10:49:07.899Z</time></trkpt><trkpt lat="45.7886797" lon="9.3488015"><ele>274.0</ele><time>2026-05-03T10:49:09.895Z</time></trkpt><trkpt lat="45.7886095" lon="9.3486781"><ele>274.0</ele><time>2026-05-03T10:49:11.893Z</time></trkpt><trkpt lat="45.7885585" lon="9.3485411"><ele>274.0</ele><time>2026-05-03T10:49:13.898Z</time></trkpt><trkpt lat="45.7884948" lon="9.3484034"><ele>274.0</ele><time>2026-05-03T10:49:15.897Z</time></trkpt><trkpt lat="45.7883717" lon="9.3483147"><ele>274.0</ele><time>2026-05-03T10:49:17.889Z</time></trkpt><trkpt lat="45.7883005" lon="9.3482553"><ele>274.0</ele><time>2026-05-03T10:49:18.894Z</time></trkpt><trkpt lat="45.7882354" lon="9.3481761"><ele>274.0</ele><time>2026-05-03T10:49:19.899Z</time></trkpt><trkpt lat="45.7881713" lon="9.3480793"><ele>274.0</ele><time>2026-05-03T10:49:20.899Z</time></trkpt><trkpt lat="45.7881061" lon="9.3479672"><ele>274.0</ele><time>2026-05-03T10:49:21.902Z</time></trkpt><trkpt lat="45.7880316" lon="9.3478501"><ele>274.0</ele><time>2026-05-03T10:49:22.896Z</time></trkpt><trkpt lat="45.7879607" lon="9.3477118"><ele>274.0</ele><time>2026-05-03T10:49:23.907Z</time></trkpt><trkpt lat="45.7878873" lon="9.3475843"><ele>274.0</ele><time>2026-05-03T10:49:24.901Z</time></trkpt><trkpt lat="45.7878159" lon="9.3474619"><ele>274.0</ele><time>2026-05-03T10:49:25.9Z</time></trkpt><trkpt lat="45.7877464" lon="9.3473443"><ele>273.4</ele><time>2026-05-03T10:49:26.904Z</time></trkpt><trkpt lat="45.7876729" lon="9.347229"><ele>272.79999999999995</ele><time>2026-05-03T10:49:27.906Z</time></trkpt><trkpt lat="45.7876001" lon="9.3471036"><ele>272.20000000000005</ele><time>2026-05-03T10:49:28.907Z</time></trkpt><trkpt lat="45.78753" lon="9.3469797"><ele>271.6</ele><time>2026-05-03T10:49:29.893Z</time></trkpt><trkpt lat="45.7874676" lon="9.3468637"><ele>271.0</ele><time>2026-05-03T10:49:30.9Z</time></trkpt><trkpt lat="45.7874097" lon="9.3467523"><ele>271.0</ele><time>2026-05-03T10:49:31.885Z</time></trkpt><trkpt lat="45.7873505" lon="9.3466468"><ele>271.0</ele><time>2026-05-03T10:49:32.892Z</time></trkpt><trkpt lat="45.7872887" lon="9.3465521"><ele>271.0</ele><time>2026-05-03T10:49:33.892Z</time></trkpt><trkpt lat="45.7872342" lon="9.3464509"><ele>271.0</ele><time>2026-05-03T10:49:34.903Z</time></trkpt><trkpt lat="45.7871773" lon="9.3463334"><ele>271.0</ele><time>2026-05-03T10:49:35.894Z</time></trkpt><trkpt lat="45.7871084" lon="9.3462389"><ele>271.0</ele><time>2026-05-03T10:49:36.903Z</time></trkpt><trkpt lat="45.7870206" lon="9.3461542"><ele>271.0</ele><time>2026-05-03T10:49:37.896Z</time></trkpt><trkpt lat="45.7869301" lon="9.3460672"><ele>271.0</ele><time>2026-05-03T10:49:38.907Z</time></trkpt><trkpt lat="45.7868562" lon="9.3459459"><ele>271.0</ele><time>2026-05-03T10:49:39.903Z</time></trkpt><trkpt lat="45.786779" lon="9.3458043"><ele>271.0</ele><time>2026-05-03T10:49:40.899Z</time></trkpt><trkpt lat="45.7867045" lon="9.3456676"><ele>271.0</ele><time>2026-05-03T10:49:41.9Z</time></trkpt><trkpt lat="45.7866258" lon="9.3455395"><ele>271.0</ele><time>2026-05-03T10:49:42.9Z</time></trkpt><trkpt lat="45.7865478" lon="9.3454079"><ele>271.0</ele><time>2026-05-03T10:49:43.901Z</time></trkpt><trkpt lat="45.7864676" lon="9.3452764"><ele>270.5</ele><time>2026-05-03T10:49:44.906Z</time></trkpt><trkpt lat="45.7863867" lon="9.3451281"><ele>270.0</ele><time>2026-05-03T10:49:45.898Z</time></trkpt><trkpt lat="45.7863034" lon="9.3449843"><ele>269.5</ele><time>2026-05-03T10:49:46.903Z</time></trkpt><trkpt lat="45.7862196" lon="9.344849"><ele>269.0</ele><time>2026-05-03T10:49:47.894Z</time></trkpt><trkpt lat="45.7861367" lon="9.3447097"><ele>269.0</ele><time>2026-05-03T10:49:48.898Z</time></trkpt><trkpt lat="45.7860512" lon="9.3445706"><ele>269.0</ele><time>2026-05-03T10:49:49.886Z</time></trkpt><trkpt lat="45.7859619" lon="9.3444237"><ele>269.0</ele><time>2026-05-03T10:49:50.902Z</time></trkpt><trkpt lat="45.7858726" lon="9.3442909"><ele>269.0</ele><time>2026-05-03T10:49:51.901Z</time></trkpt><trkpt lat="45.7857923" lon="9.3441675"><ele>269.0</ele><time>2026-05-03T10:49:52.889Z</time></trkpt><trkpt lat="45.7857191" lon="9.3440519"><ele>269.0</ele><time>2026-05-03T10:49:53.912Z</time></trkpt><trkpt lat="45.7856561" lon="9.3439491"><ele>269.0</ele><time>2026-05-03T10:49:54.898Z</time></trkpt><trkpt lat="45.785599" lon="9.3438545"><ele>269.0</ele><time>2026-05-03T10:49:55.9Z</time></trkpt><trkpt lat="45.7855444" lon="9.3437593"><ele>269.0</ele><time>2026-05-03T10:49:56.901Z</time></trkpt><trkpt lat="45.7854917" lon="9.3436636"><ele>268.59999999999997</ele><time>2026-05-03T10:49:57.902Z</time></trkpt><trkpt lat="45.7854357" lon="9.3435731"><ele>268.2</ele><time>2026-05-03T10:49:58.887Z</time></trkpt><trkpt lat="45.7853738" lon="9.3434817"><ele>267.79999999999995</ele><time>2026-05-03T10:49:59.902Z</time></trkpt><trkpt lat="45.7853076" lon="9.3433824"><ele>267.4</ele><time>2026-05-03T10:50:00.899Z</time></trkpt><trkpt lat="45.7852373" lon="9.3432767"><ele>267.0</ele><time>2026-05-03T10:50:01.899Z</time></trkpt><trkpt lat="45.7851681" lon="9.34317"><ele>268.25</ele><time>2026-05-03T10:50:02.899Z</time></trkpt><trkpt lat="45.7850943" lon="9.3430596"><ele>269.5</ele><time>2026-05-03T10:50:03.895Z</time></trkpt><trkpt lat="45.7850161" lon="9.3429421"><ele>270.75</ele><time>2026-05-03T10:50:04.906Z</time></trkpt><trkpt lat="45.7849388" lon="9.3428217"><ele>272.0</ele><time>2026-05-03T10:50:05.9Z</time></trkpt><trkpt lat="45.7848588" lon="9.3426984"><ele>272.0</ele><time>2026-05-03T10:50:06.895Z</time></trkpt><trkpt lat="45.7847794" lon="9.342577"><ele>272.0</ele><time>2026-05-03T10:50:07.894Z</time></trkpt><trkpt lat="45.7846986" lon="9.3424554"><ele>272.0</ele><time>2026-05-03T10:50:08.884Z</time></trkpt><trkpt lat="45.784624" lon="9.3423321"><ele>272.0</ele><time>2026-05-03T10:50:09.904Z</time></trkpt><trkpt lat="45.7845586" lon="9.3422216"><ele>272.0</ele><time>2026-05-03T10:50:10.89Z</time></trkpt><trkpt lat="45.7845008" lon="9.3421213"><ele>271.83333333333337</ele><time>2026-05-03T10:50:11.914Z</time></trkpt><trkpt lat="45.7844474" lon="9.3420271"><ele>271.6666666666667</ele><time>2026-05-03T10:50:12.898Z</time></trkpt><trkpt lat="45.784417" lon="9.3419407"><ele>271.5</ele><time>2026-05-03T10:50:13.898Z</time></trkpt><trkpt lat="45.7844322" lon="9.3417842"><ele>271.3333333333333</ele><time>2026-05-03T10:50:15.897Z</time></trkpt><trkpt lat="45.7844575" lon="9.3416925"><ele>271.16666666666663</ele><time>2026-05-03T10:50:16.905Z</time></trkpt><trkpt lat="45.7844476" lon="9.3415279"><ele>271.0</ele><time>2026-05-03T10:50:18.904Z</time></trkpt><trkpt lat="45.7843394" lon="9.3414621"><ele>271.6</ele><time>2026-05-03T10:50:20.912Z</time></trkpt><trkpt lat="45.7842569" lon="9.3414801"><ele>272.20000000000005</ele><time>2026-05-03T10:50:21.903Z</time></trkpt><trkpt lat="45.7841745" lon="9.3414917"><ele>272.79999999999995</ele><time>2026-05-03T10:50:22.898Z</time></trkpt><trkpt lat="45.7840961" lon="9.3414283"><ele>273.4</ele><time>2026-05-03T10:50:23.908Z</time></trkpt><trkpt lat="45.7840145" lon="9.341356"><ele>274.0</ele><time>2026-05-03T10:50:24.898Z</time></trkpt><trkpt lat="45.783939" lon="9.3412347"><ele>274.25</ele><time>2026-05-03T10:50:25.897Z</time></trkpt><trkpt lat="45.78386" lon="9.3410929"><ele>274.5</ele><time>2026-05-03T10:50:26.897Z</time></trkpt><trkpt lat="45.7837745" lon="9.3409471"><ele>274.75</ele><time>2026-05-03T10:50:27.901Z</time></trkpt><trkpt lat="45.7836885" lon="9.340804"><ele>275.0</ele><time>2026-05-03T10:50:28.887Z</time></trkpt><trkpt lat="45.7835992" lon="9.3406589"><ele>274.75</ele><time>2026-05-03T10:50:29.897Z</time></trkpt><trkpt lat="45.7835057" lon="9.3405111"><ele>274.5</ele><time>2026-05-03T10:50:30.895Z</time></trkpt><trkpt lat="45.7834107" lon="9.3403586"><ele>274.25</ele><time>2026-05-03T10:50:31.901Z</time></trkpt><trkpt lat="45.7833157" lon="9.3402015"><ele>274.0</ele><time>2026-05-03T10:50:32.899Z</time></trkpt><trkpt lat="45.7832133" lon="9.3400407"><ele>274.0</ele><time>2026-05-03T10:50:33.895Z</time></trkpt><trkpt lat="45.7831088" lon="9.339874"><ele>274.0</ele><time>2026-05-03T10:50:34.906Z</time></trkpt><trkpt lat="45.7830018" lon="9.3397036"><ele>274.0</ele><time>2026-05-03T10:50:35.905Z</time></trkpt><trkpt lat="45.7828961" lon="9.3395326"><ele>274.3333333333333</ele><time>2026-05-03T10:50:36.9Z</time></trkpt><trkpt lat="45.782792" lon="9.3393615"><ele>274.6666666666667</ele><time>2026-05-03T10:50:37.902Z</time></trkpt><trkpt lat="45.7826845" lon="9.3391867"><ele>275.0</ele><time>2026-05-03T10:50:38.894Z</time></trkpt><trkpt lat="45.7825752" lon="9.3390079"><ele>275.0</ele><time>2026-05-03T10:50:39.895Z</time></trkpt><trkpt lat="45.7824656" lon="9.3388267"><ele>275.0</ele><time>2026-05-03T10:50:40.899Z</time></trkpt><trkpt lat="45.7823571" lon="9.338645"><ele>275.0</ele><time>2026-05-03T10:50:41.899Z</time></trkpt><trkpt lat="45.782248" lon="9.338464"><ele>275.0</ele><time>2026-05-03T10:50:42.906Z</time></trkpt><trkpt lat="45.7821361" lon="9.3382873"><ele>275.0</ele><time>2026-05-03T10:50:43.901Z</time></trkpt><trkpt lat="45.7820234" lon="9.3381203"><ele>275.0</ele><time>2026-05-03T10:50:44.904Z</time></trkpt><trkpt lat="45.7818893" lon="9.3379697"><ele>274.0</ele><time>2026-05-03T10:50:45.896Z</time></trkpt><trkpt lat="45.7817404" lon="9.3378318"><ele>273.0</ele><time>2026-05-03T10:50:46.901Z</time></trkpt><trkpt lat="45.7815758" lon="9.3377199"><ele>272.0</ele><time>2026-05-03T10:50:47.89Z</time></trkpt><trkpt lat="45.7813963" lon="9.3376275"><ele>272.0</ele><time>2026-05-03T10:50:48.9Z</time></trkpt><trkpt lat="45.7812146" lon="9.3375541"><ele>272.0</ele><time>2026-05-03T10:50:49.895Z</time></trkpt><trkpt lat="45.7810178" lon="9.3375334"><ele>272.0</ele><time>2026-05-03T10:50:50.893Z</time></trkpt><trkpt lat="45.780822" lon="9.3375578"><ele>272.0</ele><time>2026-05-03T10:50:51.903Z</time></trkpt><trkpt lat="45.7806311" lon="9.3376132"><ele>272.0</ele><time>2026-05-03T10:50:52.902Z</time></trkpt><trkpt lat="45.7804309" lon="9.3376881"><ele>272.0</ele><time>2026-05-03T10:50:53.891Z</time></trkpt><trkpt lat="45.7802217" lon="9.3377868"><ele>272.0</ele><time>2026-05-03T10:50:54.892Z</time></trkpt><trkpt lat="45.779981" lon="9.3379308"><ele>272.0</ele><time>2026-05-03T10:50:55.895Z</time></trkpt><trkpt lat="45.7797081" lon="9.3380737"><ele>272.0</ele><time>2026-05-03T10:50:56.899Z</time></trkpt><trkpt lat="45.7794104" lon="9.3382098"><ele>272.0</ele><time>2026-05-03T10:50:57.899Z</time></trkpt><trkpt lat="45.7790978" lon="9.3383518"><ele>271.5</ele><time>2026-05-03T10:50:58.903Z</time></trkpt><trkpt lat="45.7787769" lon="9.3385109"><ele>271.0</ele><time>2026-05-03T10:50:59.889Z</time></trkpt><trkpt lat="45.7784593" lon="9.3386699"><ele>271.0</ele><time>2026-05-03T10:51:00.89Z</time></trkpt><trkpt lat="45.7781672" lon="9.3388221"><ele>271.0</ele><time>2026-05-03T10:51:01.898Z</time></trkpt><trkpt lat="45.7778871" lon="9.3389679"><ele>271.5</ele><time>2026-05-03T10:51:02.895Z</time></trkpt><trkpt lat="45.7776198" lon="9.3391071"><ele>272.0</ele><time>2026-05-03T10:51:03.903Z</time></trkpt><trkpt lat="45.7773608" lon="9.3392417"><ele>272.0</ele><time>2026-05-03T10:51:04.897Z</time></trkpt><trkpt lat="45.7771121" lon="9.3393717"><ele>272.0</ele><time>2026-05-03T10:51:05.901Z</time></trkpt><trkpt lat="45.7768726" lon="9.3394996"><ele>271.5</ele><time>2026-05-03T10:51:06.887Z</time></trkpt><trkpt lat="45.7766433" lon="9.3396196"><ele>271.0</ele><time>2026-05-03T10:51:07.884Z</time></trkpt><trkpt lat="45.7764247" lon="9.3397315"><ele>271.0</ele><time>2026-05-03T10:51:08.906Z</time></trkpt><trkpt lat="45.7762181" lon="9.3398307"><ele>271.0</ele><time>2026-05-03T10:51:09.899Z</time></trkpt><trkpt lat="45.7760105" lon="9.3398978"><ele>271.0</ele><time>2026-05-03T10:51:10.896Z</time></trkpt><trkpt lat="45.775805" lon="9.3399471"><ele>272.66666666666663</ele><time>2026-05-03T10:51:11.902Z</time></trkpt><trkpt lat="45.7755923" lon="9.339922"><ele>274.3333333333333</ele><time>2026-05-03T10:51:12.887Z</time></trkpt><trkpt lat="45.7753805" lon="9.3398644"><ele>276.0</ele><time>2026-05-03T10:51:13.896Z</time></trkpt><trkpt lat="45.7751827" lon="9.3397795"><ele>277.0</ele><time>2026-05-03T10:51:14.905Z</time></trkpt><trkpt lat="45.7749879" lon="9.3396875"><ele>278.0</ele><time>2026-05-03T10:51:15.892Z</time></trkpt><trkpt lat="45.7747937" lon="9.3395906"><ele>279.0</ele><time>2026-05-03T10:51:16.903Z</time></trkpt><trkpt lat="45.7746052" lon="9.3395102"><ele>279.0</ele><time>2026-05-03T10:51:17.903Z</time></trkpt><trkpt lat="45.7744228" lon="9.3394335"><ele>279.0</ele><time>2026-05-03T10:51:18.901Z</time></trkpt><trkpt lat="45.7742483" lon="9.3393651"><ele>279.0</ele><time>2026-05-03T10:51:19.9Z</time></trkpt><trkpt lat="45.7740737" lon="9.3392984"><ele>280.0</ele><time>2026-05-03T10:51:20.903Z</time></trkpt><trkpt lat="45.7739058" lon="9.3392291"><ele>281.0</ele><time>2026-05-03T10:51:21.901Z</time></trkpt><trkpt lat="45.7737428" lon="9.3391589"><ele>282.0</ele><time>2026-05-03T10:51:22.893Z</time></trkpt><trkpt lat="45.7735853" lon="9.3390917"><ele>282.0</ele><time>2026-05-03T10:51:23.902Z</time></trkpt><trkpt lat="45.773429" lon="9.3390207"><ele>282.0</ele><time>2026-05-03T10:51:24.908Z</time></trkpt><trkpt lat="45.7732817" lon="9.3389505"><ele>282.0</ele><time>2026-05-03T10:51:25.898Z</time></trkpt><trkpt lat="45.7731354" lon="9.3388834"><ele>282.0</ele><time>2026-05-03T10:51:26.893Z</time></trkpt><trkpt lat="45.7729957" lon="9.3388154"><ele>282.0</ele><time>2026-05-03T10:51:27.904Z</time></trkpt><trkpt lat="45.7728628" lon="9.3387479"><ele>282.0</ele><time>2026-05-03T10:51:28.892Z</time></trkpt><trkpt lat="45.7727276" lon="9.3386892"><ele>282.0</ele><time>2026-05-03T10:51:29.901Z</time></trkpt><trkpt lat="45.7725913" lon="9.338636"><ele>282.5</ele><time>2026-05-03T10:51:30.899Z</time></trkpt><trkpt lat="45.7724584" lon="9.3385947"><ele>283.0</ele><time>2026-05-03T10:51:31.908Z</time></trkpt><trkpt lat="45.7723174" lon="9.3385706"><ele>283.5</ele><time>2026-05-03T10:51:32.908Z</time></trkpt><trkpt lat="45.7721834" lon="9.3385646"><ele>284.0</ele><time>2026-05-03T10:51:33.899Z</time></trkpt><trkpt lat="45.7720562" lon="9.3385729"><ele>284.0</ele><time>2026-05-03T10:51:34.908Z</time></trkpt><trkpt lat="45.7719338" lon="9.3385863"><ele>284.0</ele><time>2026-05-03T10:51:35.9Z</time></trkpt><trkpt lat="45.771822" lon="9.338594"><ele>284.0</ele><time>2026-05-03T10:51:36.888Z</time></trkpt><trkpt lat="45.7717122" lon="9.3385985"><ele>284.0</ele><time>2026-05-03T10:51:37.898Z</time></trkpt><trkpt lat="45.7716077" lon="9.3385971"><ele>284.0</ele><time>2026-05-03T10:51:38.905Z</time></trkpt><trkpt lat="45.7715071" lon="9.338588"><ele>284.1666666666667</ele><time>2026-05-03T10:51:39.895Z</time></trkpt><trkpt lat="45.7714098" lon="9.3385783"><ele>284.33333333333337</ele><time>2026-05-03T10:51:40.898Z</time></trkpt><trkpt lat="45.7713221" lon="9.3385895"><ele>284.5</ele><time>2026-05-03T10:51:41.905Z</time></trkpt><trkpt lat="45.7712435" lon="9.3386263"><ele>284.6666666666667</ele><time>2026-05-03T10:51:42.888Z</time></trkpt><trkpt lat="45.7711626" lon="9.3386744"><ele>284.8333333333333</ele><time>2026-05-03T10:51:43.902Z</time></trkpt><trkpt lat="45.771084" lon="9.3387129"><ele>285.0</ele><time>2026-05-03T10:51:44.917Z</time></trkpt><trkpt lat="45.7709977" lon="9.3387358"><ele>285.4</ele><time>2026-05-03T10:51:45.903Z</time></trkpt><trkpt lat="45.7709028" lon="9.3387564"><ele>285.8</ele><time>2026-05-03T10:51:46.893Z</time></trkpt><trkpt lat="45.7707953" lon="9.3387649"><ele>286.2</ele><time>2026-05-03T10:51:47.896Z</time></trkpt><trkpt lat="45.7706801" lon="9.3387783"><ele>286.6</ele><time>2026-05-03T10:51:48.906Z</time></trkpt><trkpt lat="45.7705609" lon="9.3387999"><ele>287.0</ele><time>2026-05-03T10:51:49.899Z</time></trkpt><trkpt lat="45.7704371" lon="9.3388185"><ele>287.0</ele><time>2026-05-03T10:51:50.912Z</time></trkpt><trkpt lat="45.7703112" lon="9.3388454"><ele>287.0</ele><time>2026-05-03T10:51:51.907Z</time></trkpt><trkpt lat="45.7701797" lon="9.3388627"><ele>287.0</ele><time>2026-05-03T10:51:52.902Z</time></trkpt><trkpt lat="45.7700385" lon="9.3388888"><ele>287.0</ele><time>2026-05-03T10:51:53.89Z</time></trkpt><trkpt lat="45.7698923" lon="9.3389047"><ele>288.0</ele><time>2026-05-03T10:51:54.905Z</time></trkpt><trkpt lat="45.7697305" lon="9.3389231"><ele>289.0</ele><time>2026-05-03T10:51:55.894Z</time></trkpt><trkpt lat="45.769563" lon="9.3389356"><ele>290.0</ele><time>2026-05-03T10:51:56.905Z</time></trkpt><trkpt lat="45.7693962" lon="9.3389534"><ele>289.0</ele><time>2026-05-03T10:51:57.907Z</time></trkpt><trkpt lat="45.7692304" lon="9.3389699"><ele>288.0</ele><time>2026-05-03T10:51:58.899Z</time></trkpt><trkpt lat="45.7690588" lon="9.3389786"><ele>287.0</ele><time>2026-05-03T10:51:59.886Z</time></trkpt><trkpt lat="45.7688857" lon="9.3389757"><ele>287.0</ele><time>2026-05-03T10:52:00.905Z</time></trkpt><trkpt lat="45.7687133" lon="9.3389668"><ele>287.0</ele><time>2026-05-03T10:52:01.905Z</time></trkpt><trkpt lat="45.7685394" lon="9.3389572"><ele>287.0</ele><time>2026-05-03T10:52:02.908Z</time></trkpt><trkpt lat="45.7683576" lon="9.3389581"><ele>287.33333333333337</ele><time>2026-05-03T10:52:03.896Z</time></trkpt><trkpt lat="45.7681893" lon="9.3389171"><ele>287.6666666666667</ele><time>2026-05-03T10:52:04.882Z</time></trkpt><trkpt lat="45.7680181" lon="9.3388847"><ele>288.0</ele><time>2026-05-03T10:52:05.895Z</time></trkpt><trkpt lat="45.767847" lon="9.3388572"><ele>286.6666666666667</ele><time>2026-05-03T10:52:06.901Z</time></trkpt><trkpt lat="45.7676816" lon="9.3388207"><ele>285.33333333333337</ele><time>2026-05-03T10:52:07.896Z</time></trkpt><trkpt lat="45.7675196" lon="9.3387866"><ele>284.0</ele><time>2026-05-03T10:52:08.903Z</time></trkpt><trkpt lat="45.7673665" lon="9.3387533"><ele>284.0</ele><time>2026-05-03T10:52:09.893Z</time></trkpt><trkpt lat="45.7672123" lon="9.3387175"><ele>284.0</ele><time>2026-05-03T10:52:10.894Z</time></trkpt><trkpt lat="45.7670694" lon="9.3386827"><ele>284.0</ele><time>2026-05-03T10:52:11.885Z</time></trkpt><trkpt lat="45.7669326" lon="9.3386511"><ele>284.0</ele><time>2026-05-03T10:52:12.911Z</time></trkpt><trkpt lat="45.7668118" lon="9.3386259"><ele>284.0</ele><time>2026-05-03T10:52:13.896Z</time></trkpt><trkpt lat="45.7667221" lon="9.3386048"><ele>284.0</ele><time>2026-05-03T10:52:14.886Z</time></trkpt><trkpt lat="45.7666499" lon="9.3385899"><ele>284.0</ele><time>2026-05-03T10:52:16.886Z</time></trkpt><trkpt lat="45.7665848" lon="9.3385624"><ele>284.0</ele><time>2026-05-03T10:52:20.903Z</time></trkpt><trkpt lat="45.7665143" lon="9.3385367"><ele>284.0</ele><time>2026-05-03T10:52:21.905Z</time></trkpt><trkpt lat="45.7664359" lon="9.3385087"><ele>284.0</ele><time>2026-05-03T10:52:22.9Z</time></trkpt><trkpt lat="45.7663444" lon="9.3385124"><ele>284.0</ele><time>2026-05-03T10:52:23.903Z</time></trkpt><trkpt lat="45.7662415" lon="9.3385357"><ele>284.0</ele><time>2026-05-03T10:52:24.908Z</time></trkpt><trkpt lat="45.7661353" lon="9.3385373"><ele>284.0</ele><time>2026-05-03T10:52:25.91Z</time></trkpt><trkpt lat="45.766032" lon="9.3385245"><ele>284.0</ele><time>2026-05-03T10:52:26.907Z</time></trkpt><trkpt lat="45.7659229" lon="9.3385154"><ele>284.0</ele><time>2026-05-03T10:52:27.902Z</time></trkpt><trkpt lat="45.7658063" lon="9.3385099"><ele>284.0</ele><time>2026-05-03T10:52:28.905Z</time></trkpt><trkpt lat="45.7656851" lon="9.3385011"><ele>284.0</ele><time>2026-05-03T10:52:29.903Z</time></trkpt><trkpt lat="45.7655575" lon="9.3384907"><ele>284.0</ele><time>2026-05-03T10:52:30.911Z</time></trkpt><trkpt lat="45.7654232" lon="9.3384802"><ele>284.0</ele><time>2026-05-03T10:52:31.904Z</time></trkpt><trkpt lat="45.7652913" lon="9.3384707"><ele>283.75</ele><time>2026-05-03T10:52:32.899Z</time></trkpt><trkpt lat="45.765156" lon="9.3384571"><ele>283.5</ele><time>2026-05-03T10:52:33.887Z</time></trkpt><trkpt lat="45.7650136" lon="9.3384435"><ele>283.25</ele><time>2026-05-03T10:52:34.902Z</time></trkpt><trkpt lat="45.7648676" lon="9.3384284"><ele>283.0</ele><time>2026-05-03T10:52:35.898Z</time></trkpt><trkpt lat="45.7647177" lon="9.3384092"><ele>283.0</ele><time>2026-05-03T10:52:36.892Z</time></trkpt><trkpt lat="45.7645687" lon="9.3383883"><ele>283.0</ele><time>2026-05-03T10:52:37.91Z</time></trkpt><trkpt lat="45.7644195" lon="9.3383659"><ele>283.0</ele><time>2026-05-03T10:52:38.899Z</time></trkpt><trkpt lat="45.764276" lon="9.3383436"><ele>283.0</ele><time>2026-05-03T10:52:39.909Z</time></trkpt><trkpt lat="45.7641348" lon="9.3383218"><ele>282.66666666666663</ele><time>2026-05-03T10:52:40.901Z</time></trkpt><trkpt lat="45.7639898" lon="9.3382943"><ele>282.3333333333333</ele><time>2026-05-03T10:52:41.896Z</time></trkpt><trkpt lat="45.7638411" lon="9.3382593"><ele>282.0</ele><time>2026-05-03T10:52:42.903Z</time></trkpt><trkpt lat="45.7636904" lon="9.3382167"><ele>282.0</ele><time>2026-05-03T10:52:43.899Z</time></trkpt><trkpt lat="45.7635468" lon="9.3381704"><ele>282.0</ele><time>2026-05-03T10:52:44.924Z</time></trkpt><trkpt lat="45.7634088" lon="9.3381345"><ele>282.0</ele><time>2026-05-03T10:52:45.887Z</time></trkpt><trkpt lat="45.7632842" lon="9.3380888"><ele>282.0</ele><time>2026-05-03T10:52:46.9Z</time></trkpt><trkpt lat="45.7631792" lon="9.3380493"><ele>282.0</ele><time>2026-05-03T10:52:47.897Z</time></trkpt><trkpt lat="45.763094" lon="9.3380148"><ele>282.0</ele><time>2026-05-03T10:52:48.904Z</time></trkpt><trkpt lat="45.7630223" lon="9.3379727"><ele>282.0</ele><time>2026-05-03T10:52:49.906Z</time></trkpt><trkpt lat="45.7629652" lon="9.3379223"><ele>282.0</ele><time>2026-05-03T10:52:50.896Z</time></trkpt><trkpt lat="45.7629096" lon="9.3378727"><ele>282.0</ele><time>2026-05-03T10:52:51.908Z</time></trkpt><trkpt lat="45.7627848" lon="9.3378576"><ele>282.0</ele><time>2026-05-03T10:52:53.901Z</time></trkpt><trkpt lat="45.7627007" lon="9.3378954"><ele>281.5</ele><time>2026-05-03T10:52:54.897Z</time></trkpt><trkpt lat="45.7626057" lon="9.3379247"><ele>281.0</ele><time>2026-05-03T10:52:55.903Z</time></trkpt><trkpt lat="45.762481" lon="9.3379303"><ele>280.5</ele><time>2026-05-03T10:52:56.893Z</time></trkpt><trkpt lat="45.7623604" lon="9.3379276"><ele>280.0</ele><time>2026-05-03T10:52:57.902Z</time></trkpt><trkpt lat="45.7622307" lon="9.3379356"><ele>280.0</ele><time>2026-05-03T10:52:58.902Z</time></trkpt><trkpt lat="45.7620978" lon="9.337943"><ele>280.0</ele><time>2026-05-03T10:52:59.889Z</time></trkpt><trkpt lat="45.7619576" lon="9.3379469"><ele>280.0</ele><time>2026-05-03T10:53:00.892Z</time></trkpt><trkpt lat="45.761819" lon="9.3379464"><ele>280.0</ele><time>2026-05-03T10:53:01.899Z</time></trkpt><trkpt lat="45.7616758" lon="9.3379416"><ele>279.3333333333333</ele><time>2026-05-03T10:53:02.907Z</time></trkpt><trkpt lat="45.7615294" lon="9.3379377"><ele>278.6666666666667</ele><time>2026-05-03T10:53:03.905Z</time></trkpt><trkpt lat="45.7613795" lon="9.3379272"><ele>278.0</ele><time>2026-05-03T10:53:04.897Z</time></trkpt><trkpt lat="45.7612243" lon="9.3379086"><ele>278.0</ele><time>2026-05-03T10:53:05.907Z</time></trkpt><trkpt lat="45.7610645" lon="9.3378853"><ele>278.0</ele><time>2026-05-03T10:53:06.908Z</time></trkpt><trkpt lat="45.7609014" lon="9.3378624"><ele>278.0</ele><time>2026-05-03T10:53:07.904Z</time></trkpt><trkpt lat="45.7607343" lon="9.3378411"><ele>277.6666666666667</ele><time>2026-05-03T10:53:08.899Z</time></trkpt><trkpt lat="45.7605623" lon="9.3378188"><ele>277.3333333333333</ele><time>2026-05-03T10:53:09.898Z</time></trkpt><trkpt lat="45.7603874" lon="9.3377923"><ele>277.0</ele><time>2026-05-03T10:53:10.887Z</time></trkpt><trkpt lat="45.7602105" lon="9.337764"><ele>279.3333333333333</ele><time>2026-05-03T10:53:11.906Z</time></trkpt><trkpt lat="45.7600236" lon="9.3377406"><ele>281.6666666666667</ele><time>2026-05-03T10:53:12.898Z</time></trkpt><trkpt lat="45.7598075" lon="9.3377202"><ele>284.0</ele><time>2026-05-03T10:53:13.908Z</time></trkpt><trkpt lat="45.7595666" lon="9.3376888"><ele>285.5</ele><time>2026-05-03T10:53:14.9Z</time></trkpt><trkpt lat="45.7593184" lon="9.3376491"><ele>287.0</ele><time>2026-05-03T10:53:15.899Z</time></trkpt><trkpt lat="45.7590806" lon="9.337603"><ele>287.0</ele><time>2026-05-03T10:53:16.89Z</time></trkpt><trkpt lat="45.7588713" lon="9.3375706"><ele>287.0</ele><time>2026-05-03T10:53:17.907Z</time></trkpt><trkpt lat="45.7586888" lon="9.337548"><ele>287.0</ele><time>2026-05-03T10:53:18.899Z</time></trkpt><trkpt lat="45.7585121" lon="9.3375216"><ele>287.6666666666667</ele><time>2026-05-03T10:53:19.904Z</time></trkpt><trkpt lat="45.758329" lon="9.3374849"><ele>288.3333333333333</ele><time>2026-05-03T10:53:20.902Z</time></trkpt><trkpt lat="45.7581438" lon="9.3374605"><ele>289.0</ele><time>2026-05-03T10:53:21.903Z</time></trkpt><trkpt lat="45.7579685" lon="9.33743"><ele>289.0</ele><time>2026-05-03T10:53:22.897Z</time></trkpt><trkpt lat="45.7577925" lon="9.3373853"><ele>289.0</ele><time>2026-05-03T10:53:23.895Z</time></trkpt><trkpt lat="45.7576214" lon="9.3373266"><ele>289.0</ele><time>2026-05-03T10:53:24.914Z</time></trkpt><trkpt lat="45.7574502" lon="9.3372611"><ele>288.66666666666663</ele><time>2026-05-03T10:53:25.905Z</time></trkpt><trkpt lat="45.7572895" lon="9.3371939"><ele>288.3333333333333</ele><time>2026-05-03T10:53:26.897Z</time></trkpt><trkpt lat="45.7571313" lon="9.3371273"><ele>288.0</ele><time>2026-05-03T10:53:27.901Z</time></trkpt><trkpt lat="45.7569748" lon="9.3370706"><ele>290.0</ele><time>2026-05-03T10:53:28.913Z</time></trkpt><trkpt lat="45.7568311" lon="9.3370163"><ele>292.0</ele><time>2026-05-03T10:53:29.886Z</time></trkpt><trkpt lat="45.7566823" lon="9.3369516"><ele>294.0</ele><time>2026-05-03T10:53:30.89Z</time></trkpt><trkpt lat="45.7565467" lon="9.3368585"><ele>294.0</ele><time>2026-05-03T10:53:31.892Z</time></trkpt><trkpt lat="45.75641" lon="9.3367887"><ele>294.0</ele><time>2026-05-03T10:53:32.9Z</time></trkpt><trkpt lat="45.7562727" lon="9.3367391"><ele>294.0</ele><time>2026-05-03T10:53:33.911Z</time></trkpt><trkpt lat="45.7561328" lon="9.3366852"><ele>294.0</ele><time>2026-05-03T10:53:34.908Z</time></trkpt><trkpt lat="45.7559879" lon="9.3366142"><ele>294.5</ele><time>2026-05-03T10:53:35.895Z</time></trkpt><trkpt lat="45.7558471" lon="9.3365536"><ele>295.0</ele><time>2026-05-03T10:53:36.899Z</time></trkpt><trkpt lat="45.7557053" lon="9.3364841"><ele>295.5</ele><time>2026-05-03T10:53:37.892Z</time></trkpt><trkpt lat="45.7555662" lon="9.3364019"><ele>296.0</ele><time>2026-05-03T10:53:38.91Z</time></trkpt><trkpt lat="45.7554201" lon="9.3363209"><ele>296.0</ele><time>2026-05-03T10:53:39.899Z</time></trkpt><trkpt lat="45.7552783" lon="9.3362291"><ele>296.0</ele><time>2026-05-03T10:53:40.899Z</time></trkpt><trkpt lat="45.7551475" lon="9.3361216"><ele>296.0</ele><time>2026-05-03T10:53:41.899Z</time></trkpt><trkpt lat="45.7550186" lon="9.3360082"><ele>300.6666666666667</ele><time>2026-05-03T10:53:42.901Z</time></trkpt><trkpt lat="45.7549051" lon="9.3358638"><ele>305.3333333333333</ele><time>2026-05-03T10:53:43.904Z</time></trkpt><trkpt lat="45.7547974" lon="9.3357062"><ele>310.0</ele><time>2026-05-03T10:53:44.888Z</time></trkpt><trkpt lat="45.7546934" lon="9.3355303"><ele>310.0</ele><time>2026-05-03T10:53:45.902Z</time></trkpt><trkpt lat="45.7545888" lon="9.3353406"><ele>310.0</ele><time>2026-05-03T10:53:46.905Z</time></trkpt><trkpt lat="45.7544857" lon="9.3351504"><ele>310.0</ele><time>2026-05-03T10:53:47.902Z</time></trkpt><trkpt lat="45.7543833" lon="9.3349619"><ele>313.66666666666663</ele><time>2026-05-03T10:53:48.89Z</time></trkpt><trkpt lat="45.7542833" lon="9.3347731"><ele>317.3333333333333</ele><time>2026-05-03T10:53:49.901Z</time></trkpt><trkpt lat="45.7541907" lon="9.3345866"><ele>321.0</ele><time>2026-05-03T10:53:50.904Z</time></trkpt><trkpt lat="45.754101" lon="9.334399"><ele>321.0</ele><time>2026-05-03T10:53:51.904Z</time></trkpt><trkpt lat="45.7540096" lon="9.3342128"><ele>321.0</ele><time>2026-05-03T10:53:52.899Z</time></trkpt><trkpt lat="45.7539172" lon="9.3340307"><ele>321.0</ele><time>2026-05-03T10:53:53.903Z</time></trkpt><trkpt lat="45.7538258" lon="9.3338533"><ele>320.5</ele><time>2026-05-03T10:53:54.895Z</time></trkpt><trkpt lat="45.7537234" lon="9.3336842"><ele>320.0</ele><time>2026-05-03T10:53:55.901Z</time></trkpt><trkpt lat="45.7536295" lon="9.3335309"><ele>319.5</ele><time>2026-05-03T10:53:56.905Z</time></trkpt><trkpt lat="45.7535326" lon="9.3334087"><ele>319.0</ele><time>2026-05-03T10:53:57.897Z</time></trkpt><trkpt lat="45.7534364" lon="9.3333105"><ele>322.0</ele><time>2026-05-03T10:53:58.899Z</time></trkpt><trkpt lat="45.7533511" lon="9.3332253"><ele>325.0</ele><time>2026-05-03T10:53:59.899Z</time></trkpt><trkpt lat="45.7532618" lon="9.3331328"><ele>328.0</ele><time>2026-05-03T10:54:00.9Z</time></trkpt><trkpt lat="45.7531525" lon="9.3330393"><ele>331.0</ele><time>2026-05-03T10:54:01.893Z</time></trkpt><trkpt lat="45.7530216" lon="9.3329441"><ele>331.0</ele><time>2026-05-03T10:54:02.901Z</time></trkpt><trkpt lat="45.7528912" lon="9.3328338"><ele>331.0</ele><time>2026-05-03T10:54:03.904Z</time></trkpt><trkpt lat="45.7527666" lon="9.3327248"><ele>331.0</ele><time>2026-05-03T10:54:04.897Z</time></trkpt><trkpt lat="45.7526479" lon="9.3326221"><ele>331.0</ele><time>2026-05-03T10:54:05.911Z</time></trkpt><trkpt lat="45.7525392" lon="9.3325234"><ele>331.0</ele><time>2026-05-03T10:54:06.901Z</time></trkpt><trkpt lat="45.7524358" lon="9.3324166"><ele>331.0</ele><time>2026-05-03T10:54:07.902Z</time></trkpt><trkpt lat="45.7523318" lon="9.3322968"><ele>331.0</ele><time>2026-05-03T10:54:08.892Z</time></trkpt><trkpt lat="45.7522291" lon="9.3321685"><ele>331.0</ele><time>2026-05-03T10:54:09.907Z</time></trkpt><trkpt lat="45.7521396" lon="9.3320131"><ele>331.0</ele><time>2026-05-03T10:54:10.91Z</time></trkpt><trkpt lat="45.7520575" lon="9.3318458"><ele>331.0</ele><time>2026-05-03T10:54:11.908Z</time></trkpt><trkpt lat="45.751994" lon="9.3316648"><ele>331.0</ele><time>2026-05-03T10:54:12.912Z</time></trkpt><trkpt lat="45.7519456" lon="9.3314713"><ele>331.0</ele><time>2026-05-03T10:54:13.902Z</time></trkpt><trkpt lat="45.7519074" lon="9.3312744"><ele>330.75</ele><time>2026-05-03T10:54:14.89Z</time></trkpt><trkpt lat="45.7518744" lon="9.331086"><ele>330.5</ele><time>2026-05-03T10:54:15.897Z</time></trkpt><trkpt lat="45.7518554" lon="9.3309048"><ele>330.25</ele><time>2026-05-03T10:54:16.901Z</time></trkpt><trkpt lat="45.7518428" lon="9.3307313"><ele>330.0</ele><time>2026-05-03T10:54:17.914Z</time></trkpt><trkpt lat="45.7518272" lon="9.3305669"><ele>332.8333333333333</ele><time>2026-05-03T10:54:18.907Z</time></trkpt><trkpt lat="45.7518287" lon="9.3304297"><ele>335.6666666666667</ele><time>2026-05-03T10:54:19.891Z</time></trkpt><trkpt lat="45.7518399" lon="9.3302998"><ele>338.5</ele><time>2026-05-03T10:54:20.914Z</time></trkpt><trkpt lat="45.7518508" lon="9.330184"><ele>341.33333333333337</ele><time>2026-05-03T10:54:21.899Z</time></trkpt><trkpt lat="45.7518579" lon="9.3300803"><ele>344.1666666666667</ele><time>2026-05-03T10:54:22.902Z</time></trkpt><trkpt lat="45.7518308" lon="9.3299658"><ele>347.0</ele><time>2026-05-03T10:54:23.887Z</time></trkpt><trkpt lat="45.7517697" lon="9.3298364"><ele>347.5</ele><time>2026-05-03T10:54:24.907Z</time></trkpt><trkpt lat="45.7517086" lon="9.3296808"><ele>348.0</ele><time>2026-05-03T10:54:25.895Z</time></trkpt><trkpt lat="45.7516586" lon="9.3295059"><ele>348.5</ele><time>2026-05-03T10:54:26.9Z</time></trkpt><trkpt lat="45.7516336" lon="9.3293082"><ele>349.0</ele><time>2026-05-03T10:54:27.895Z</time></trkpt><trkpt lat="45.7515993" lon="9.3291069"><ele>349.0</ele><time>2026-05-03T10:54:28.906Z</time></trkpt><trkpt lat="45.7515622" lon="9.3289134"><ele>349.0</ele><time>2026-05-03T10:54:29.899Z</time></trkpt><trkpt lat="45.7515135" lon="9.3287256"><ele>349.0</ele><time>2026-05-03T10:54:30.901Z</time></trkpt><trkpt lat="45.7514727" lon="9.3285492"><ele>349.0</ele><time>2026-05-03T10:54:31.894Z</time></trkpt><trkpt lat="45.751422" lon="9.328388"><ele>350.25</ele><time>2026-05-03T10:54:32.897Z</time></trkpt><trkpt lat="45.7513523" lon="9.3282437"><ele>351.5</ele><time>2026-05-03T10:54:33.889Z</time></trkpt><trkpt lat="45.7512692" lon="9.3280989"><ele>352.75</ele><time>2026-05-03T10:54:34.92Z</time></trkpt><trkpt lat="45.7511709" lon="9.3279591"><ele>354.0</ele><time>2026-05-03T10:54:35.898Z</time></trkpt><trkpt lat="45.7510689" lon="9.3278272"><ele>353.3333333333333</ele><time>2026-05-03T10:54:36.913Z</time></trkpt><trkpt lat="45.7509528" lon="9.3277211"><ele>352.66666666666663</ele><time>2026-05-03T10:54:37.892Z</time></trkpt><trkpt lat="45.7508204" lon="9.327631"><ele>352.0</ele><time>2026-05-03T10:54:38.902Z</time></trkpt><trkpt lat="45.7506453" lon="9.3275628"><ele>352.0</ele><time>2026-05-03T10:54:39.894Z</time></trkpt><trkpt lat="45.7504526" lon="9.3275003"><ele>352.0</ele><time>2026-05-03T10:54:40.903Z</time></trkpt><trkpt lat="45.7502579" lon="9.3274379"><ele>352.0</ele><time>2026-05-03T10:54:41.904Z</time></trkpt><trkpt lat="45.7500763" lon="9.3273779"><ele>353.0</ele><time>2026-05-03T10:54:42.902Z</time></trkpt><trkpt lat="45.7499049" lon="9.3273158"><ele>354.0</ele><time>2026-05-03T10:54:43.905Z</time></trkpt><trkpt lat="45.7497279" lon="9.3272481"><ele>355.0</ele><time>2026-05-03T10:54:44.897Z</time></trkpt><trkpt lat="45.7495562" lon="9.3271889"><ele>355.0</ele><time>2026-05-03T10:54:45.899Z</time></trkpt><trkpt lat="45.7493816" lon="9.3271342"><ele>355.0</ele><time>2026-05-03T10:54:46.902Z</time></trkpt><trkpt lat="45.7492162" lon="9.3270666"><ele>355.0</ele><time>2026-05-03T10:54:47.903Z</time></trkpt><trkpt lat="45.749055" lon="9.3270011"><ele>358.0</ele><time>2026-05-03T10:54:48.897Z</time></trkpt><trkpt lat="45.7488974" lon="9.3269482"><ele>361.0</ele><time>2026-05-03T10:54:49.903Z</time></trkpt><trkpt lat="45.7487422" lon="9.3268962"><ele>364.0</ele><time>2026-05-03T10:54:50.908Z</time></trkpt><trkpt lat="45.7485922" lon="9.3268424"><ele>365.66666666666663</ele><time>2026-05-03T10:54:51.899Z</time></trkpt><trkpt lat="45.748444" lon="9.3267879"><ele>367.3333333333333</ele><time>2026-05-03T10:54:52.901Z</time></trkpt><trkpt lat="45.7482968" lon="9.3267313"><ele>369.0</ele><time>2026-05-03T10:54:53.899Z</time></trkpt><trkpt lat="45.7481531" lon="9.3266674"><ele>369.0</ele><time>2026-05-03T10:54:54.897Z</time></trkpt><trkpt lat="45.7480079" lon="9.3265968"><ele>369.0</ele><time>2026-05-03T10:54:55.9Z</time></trkpt><trkpt lat="45.7478553" lon="9.3265113"><ele>369.0</ele><time>2026-05-03T10:54:56.904Z</time></trkpt><trkpt lat="45.7477193" lon="9.3263977"><ele>371.25</ele><time>2026-05-03T10:54:57.902Z</time></trkpt><trkpt lat="45.7475962" lon="9.3262787"><ele>373.5</ele><time>2026-05-03T10:54:58.905Z</time></trkpt><trkpt lat="45.7474785" lon="9.3261635"><ele>375.75</ele><time>2026-05-03T10:54:59.905Z</time></trkpt><trkpt lat="45.7473644" lon="9.3260346"><ele>378.0</ele><time>2026-05-03T10:55:00.916Z</time></trkpt><trkpt lat="45.7472574" lon="9.3258996"><ele>378.0</ele><time>2026-05-03T10:55:01.901Z</time></trkpt><trkpt lat="45.7471472" lon="9.3257649"><ele>378.0</ele><time>2026-05-03T10:55:02.909Z</time></trkpt><trkpt lat="45.7470418" lon="9.3256294"><ele>378.0</ele><time>2026-05-03T10:55:03.909Z</time></trkpt><trkpt lat="45.7469356" lon="9.3254983"><ele>378.0</ele><time>2026-05-03T10:55:04.893Z</time></trkpt><trkpt lat="45.7468233" lon="9.3253678"><ele>377.25</ele><time>2026-05-03T10:55:05.906Z</time></trkpt><trkpt lat="45.7467217" lon="9.3252506"><ele>376.5</ele><time>2026-05-03T10:55:06.898Z</time></trkpt><trkpt lat="45.7466259" lon="9.3251508"><ele>375.75</ele><time>2026-05-03T10:55:07.903Z</time></trkpt><trkpt lat="45.7465313" lon="9.3250564"><ele>375.0</ele><time>2026-05-03T10:55:08.9Z</time></trkpt><trkpt lat="45.746438" lon="9.3249633"><ele>375.0</ele><time>2026-05-03T10:55:09.902Z</time></trkpt><trkpt lat="45.7463482" lon="9.3248641"><ele>375.0</ele><time>2026-05-03T10:55:10.916Z</time></trkpt><trkpt lat="45.746257" lon="9.3247241"><ele>375.0</ele><time>2026-05-03T10:55:11.901Z</time></trkpt><trkpt lat="45.7461768" lon="9.3245979"><ele>375.0</ele><time>2026-05-03T10:55:12.906Z</time></trkpt><trkpt lat="45.7460795" lon="9.3244776"><ele>373.75</ele><time>2026-05-03T10:55:13.889Z</time></trkpt><trkpt lat="45.7459741" lon="9.3243489"><ele>372.5</ele><time>2026-05-03T10:55:14.904Z</time></trkpt><trkpt lat="45.74586" lon="9.3242192"><ele>371.25</ele><time>2026-05-03T10:55:15.905Z</time></trkpt><trkpt lat="45.7457341" lon="9.324079"><ele>370.0</ele><time>2026-05-03T10:55:16.903Z</time></trkpt><trkpt lat="45.7455951" lon="9.3239277"><ele>370.0</ele><time>2026-05-03T10:55:17.898Z</time></trkpt><trkpt lat="45.7454593" lon="9.3237797"><ele>370.0</ele><time>2026-05-03T10:55:18.901Z</time></trkpt><trkpt lat="45.7453271" lon="9.3236312"><ele>370.0</ele><time>2026-05-03T10:55:19.9Z</time></trkpt><trkpt lat="45.7451993" lon="9.3234813"><ele>374.3333333333333</ele><time>2026-05-03T10:55:20.905Z</time></trkpt><trkpt lat="45.7450706" lon="9.3233412"><ele>378.6666666666667</ele><time>2026-05-03T10:55:21.9Z</time></trkpt><trkpt lat="45.7449469" lon="9.3232084"><ele>383.0</ele><time>2026-05-03T10:55:22.9Z</time></trkpt><trkpt lat="45.7448213" lon="9.3230775"><ele>381.6666666666667</ele><time>2026-05-03T10:55:23.911Z</time></trkpt><trkpt lat="45.7446949" lon="9.322964"><ele>380.3333333333333</ele><time>2026-05-03T10:55:24.891Z</time></trkpt><trkpt lat="45.7445632" lon="9.3228413"><ele>379.0</ele><time>2026-05-03T10:55:25.897Z</time></trkpt><trkpt lat="45.7444304" lon="9.322721"><ele>379.0</ele><time>2026-05-03T10:55:26.909Z</time></trkpt><trkpt lat="45.7442981" lon="9.3226023"><ele>379.0</ele><time>2026-05-03T10:55:27.912Z</time></trkpt><trkpt lat="45.7441666" lon="9.3224817"><ele>379.0</ele><time>2026-05-03T10:55:28.904Z</time></trkpt><trkpt lat="45.7440375" lon="9.3223606"><ele>379.0</ele><time>2026-05-03T10:55:29.898Z</time></trkpt><trkpt lat="45.743917" lon="9.3222451"><ele>379.0</ele><time>2026-05-03T10:55:30.9Z</time></trkpt><trkpt lat="45.7438102" lon="9.3221088"><ele>379.0</ele><time>2026-05-03T10:55:31.898Z</time></trkpt><trkpt lat="45.743717" lon="9.3219629"><ele>379.0</ele><time>2026-05-03T10:55:32.907Z</time></trkpt><trkpt lat="45.7436314" lon="9.3218069"><ele>377.5</ele><time>2026-05-03T10:55:33.901Z</time></trkpt><trkpt lat="45.743549" lon="9.3216503"><ele>376.0</ele><time>2026-05-03T10:55:34.907Z</time></trkpt><trkpt lat="45.743465" lon="9.3215115"><ele>374.5</ele><time>2026-05-03T10:55:35.904Z</time></trkpt><trkpt lat="45.7433859" lon="9.321384"><ele>373.0</ele><time>2026-05-03T10:55:36.904Z</time></trkpt><trkpt lat="45.7433104" lon="9.321262"><ele>372.2</ele><time>2026-05-03T10:55:37.901Z</time></trkpt><trkpt lat="45.7432343" lon="9.3211535"><ele>371.4</ele><time>2026-05-03T10:55:38.908Z</time></trkpt><trkpt lat="45.7431636" lon="9.3210594"><ele>370.59999999999997</ele><time>2026-05-03T10:55:39.904Z</time></trkpt><trkpt lat="45.7431116" lon="9.3209877"><ele>369.79999999999995</ele><time>2026-05-03T10:55:40.899Z</time></trkpt><trkpt lat="45.7430434" lon="9.3208936"><ele>369.0</ele><time>2026-05-03T10:55:42.894Z</time></trkpt><trkpt lat="45.7429815" lon="9.3207893"><ele>369.0</ele><time>2026-05-03T10:55:44.894Z</time></trkpt><trkpt lat="45.7429062" lon="9.3207148"><ele>369.0</ele><time>2026-05-03T10:55:46.892Z</time></trkpt><trkpt lat="45.7428052" lon="9.3207213"><ele>369.0</ele><time>2026-05-03T10:55:48.9Z</time></trkpt><trkpt lat="45.7426757" lon="9.3207258"><ele>369.0</ele><time>2026-05-03T10:55:50.9Z</time></trkpt><trkpt lat="45.7426017" lon="9.3207276"><ele>369.0</ele><time>2026-05-03T10:55:51.905Z</time></trkpt><trkpt lat="45.7425173" lon="9.3207071"><ele>369.1666666666667</ele><time>2026-05-03T10:55:52.905Z</time></trkpt><trkpt lat="45.7424305" lon="9.3206898"><ele>369.3333333333333</ele><time>2026-05-03T10:55:53.895Z</time></trkpt><trkpt lat="45.7423476" lon="9.320672"><ele>369.5</ele><time>2026-05-03T10:55:54.913Z</time></trkpt><trkpt lat="45.7422706" lon="9.3206585"><ele>369.66666666666663</ele><time>2026-05-03T10:55:55.9Z</time></trkpt><trkpt lat="45.7421932" lon="9.3206487"><ele>369.8333333333333</ele><time>2026-05-03T10:55:56.905Z</time></trkpt><trkpt lat="45.7421186" lon="9.3206429"><ele>370.0</ele><time>2026-05-03T10:55:57.895Z</time></trkpt><trkpt lat="45.7420394" lon="9.3206437"><ele>370.0</ele><time>2026-05-03T10:55:58.917Z</time></trkpt><trkpt lat="45.7419612" lon="9.3206303"><ele>370.0</ele><time>2026-05-03T10:55:59.894Z</time></trkpt><trkpt lat="45.7418746" lon="9.3206241"><ele>370.0</ele><time>2026-05-03T10:56:00.904Z</time></trkpt><trkpt lat="45.741785" lon="9.3206071"><ele>370.0</ele><time>2026-05-03T10:56:01.904Z</time></trkpt><trkpt lat="45.7416979" lon="9.3205919"><ele>370.0</ele><time>2026-05-03T10:56:02.895Z</time></trkpt><trkpt lat="45.7416063" lon="9.3205861"><ele>370.0</ele><time>2026-05-03T10:56:03.895Z</time></trkpt><trkpt lat="45.7415235" lon="9.3205786"><ele>369.8333333333333</ele><time>2026-05-03T10:56:04.901Z</time></trkpt><trkpt lat="45.7414401" lon="9.3205761"><ele>369.66666666666663</ele><time>2026-05-03T10:56:05.905Z</time></trkpt><trkpt lat="45.7413479" lon="9.3205712"><ele>369.5</ele><time>2026-05-03T10:56:06.898Z</time></trkpt><trkpt lat="45.7412619" lon="9.3205633"><ele>369.3333333333333</ele><time>2026-05-03T10:56:07.903Z</time></trkpt><trkpt lat="45.7411796" lon="9.320549"><ele>369.1666666666667</ele><time>2026-05-03T10:56:08.889Z</time></trkpt><trkpt lat="45.7410928" lon="9.3205327"><ele>369.0</ele><time>2026-05-03T10:56:09.908Z</time></trkpt><trkpt lat="45.741" lon="9.3205205"><ele>368.8333333333333</ele><time>2026-05-03T10:56:10.9Z</time></trkpt><trkpt lat="45.7409109" lon="9.320516"><ele>368.6666666666667</ele><time>2026-05-03T10:56:11.912Z</time></trkpt><trkpt lat="45.7408281" lon="9.3205081"><ele>368.5</ele><time>2026-05-03T10:56:12.897Z</time></trkpt><trkpt lat="45.7407388" lon="9.3205064"><ele>368.33333333333337</ele><time>2026-05-03T10:56:13.895Z</time></trkpt><trkpt lat="45.7406496" lon="9.3204911"><ele>368.1666666666667</ele><time>2026-05-03T10:56:14.895Z</time></trkpt><trkpt lat="45.7405627" lon="9.3204812"><ele>368.0</ele><time>2026-05-03T10:56:15.901Z</time></trkpt><trkpt lat="45.7404804" lon="9.320464"><ele>368.0</ele><time>2026-05-03T10:56:16.9Z</time></trkpt><trkpt lat="45.7404102" lon="9.3204563"><ele>368.0</ele><time>2026-05-03T10:56:17.903Z</time></trkpt><trkpt lat="45.7402934" lon="9.320386"><ele>368.0</ele><time>2026-05-03T10:56:19.914Z</time></trkpt><trkpt lat="45.7401752" lon="9.3203484"><ele>368.0</ele><time>2026-05-03T10:56:21.905Z</time></trkpt><trkpt lat="45.7401014" lon="9.3203749"><ele>368.0</ele><time>2026-05-03T10:56:22.904Z</time></trkpt><trkpt lat="45.7400271" lon="9.3204267"><ele>368.59999999999997</ele><time>2026-05-03T10:56:23.908Z</time></trkpt><trkpt lat="45.7399449" lon="9.3204527"><ele>369.2</ele><time>2026-05-03T10:56:24.895Z</time></trkpt><trkpt lat="45.7398481" lon="9.320478"><ele>369.8</ele><time>2026-05-03T10:56:25.897Z</time></trkpt><trkpt lat="45.7397522" lon="9.3205005"><ele>370.4</ele><time>2026-05-03T10:56:26.9Z</time></trkpt><trkpt lat="45.739653" lon="9.3205241"><ele>371.0</ele><time>2026-05-03T10:56:27.91Z</time></trkpt><trkpt lat="45.7395578" lon="9.3205432"><ele>371.4</ele><time>2026-05-03T10:56:28.905Z</time></trkpt><trkpt lat="45.7394548" lon="9.3205723"><ele>371.8</ele><time>2026-05-03T10:56:29.888Z</time></trkpt><trkpt lat="45.7393567" lon="9.3205966"><ele>372.2</ele><time>2026-05-03T10:56:30.911Z</time></trkpt><trkpt lat="45.7392533" lon="9.3206235"><ele>372.59999999999997</ele><time>2026-05-03T10:56:31.908Z</time></trkpt><trkpt lat="45.73915" lon="9.3206523"><ele>373.0</ele><time>2026-05-03T10:56:32.902Z</time></trkpt><trkpt lat="45.7390288" lon="9.3206648"><ele>373.5</ele><time>2026-05-03T10:56:33.9Z</time></trkpt><trkpt lat="45.7389121" lon="9.3206836"><ele>374.0</ele><time>2026-05-03T10:56:34.906Z</time></trkpt><trkpt lat="45.7387975" lon="9.3207022"><ele>374.5</ele><time>2026-05-03T10:56:35.906Z</time></trkpt><trkpt lat="45.7386768" lon="9.3207018"><ele>375.0</ele><time>2026-05-03T10:56:36.902Z</time></trkpt><trkpt lat="45.7385574" lon="9.3206836"><ele>374.25</ele><time>2026-05-03T10:56:37.903Z</time></trkpt><trkpt lat="45.7384396" lon="9.3206482"><ele>373.5</ele><time>2026-05-03T10:56:38.905Z</time></trkpt><trkpt lat="45.7383239" lon="9.3205933"><ele>372.75</ele><time>2026-05-03T10:56:39.906Z</time></trkpt><trkpt lat="45.7382079" lon="9.3205373"><ele>372.0</ele><time>2026-05-03T10:56:40.89Z</time></trkpt><trkpt lat="45.7380987" lon="9.320474"><ele>372.0</ele><time>2026-05-03T10:56:41.914Z</time></trkpt><trkpt lat="45.7379863" lon="9.3203975"><ele>372.0</ele><time>2026-05-03T10:56:42.901Z</time></trkpt><trkpt lat="45.7378744" lon="9.3203174"><ele>372.0</ele><time>2026-05-03T10:56:43.901Z</time></trkpt><trkpt lat="45.737764" lon="9.320243"><ele>372.0</ele><time>2026-05-03T10:56:44.895Z</time></trkpt><trkpt lat="45.7376457" lon="9.3201652"><ele>375.3333333333333</ele><time>2026-05-03T10:56:45.893Z</time></trkpt><trkpt lat="45.7375147" lon="9.3200723"><ele>378.66666666666663</ele><time>2026-05-03T10:56:46.895Z</time></trkpt><trkpt lat="45.7373589" lon="9.3199674"><ele>382.0</ele><time>2026-05-03T10:56:47.899Z</time></trkpt><trkpt lat="45.7372011" lon="9.3198143"><ele>379.66666666666663</ele><time>2026-05-03T10:56:48.903Z</time></trkpt><trkpt lat="45.7370437" lon="9.3196861"><ele>377.3333333333333</ele><time>2026-05-03T10:56:49.901Z</time></trkpt><trkpt lat="45.7368915" lon="9.3195703"><ele>375.0</ele><time>2026-05-03T10:56:50.905Z</time></trkpt><trkpt lat="45.7367395" lon="9.3194661"><ele>375.0</ele><time>2026-05-03T10:56:51.899Z</time></trkpt><trkpt lat="45.7365981" lon="9.3193673"><ele>375.0</ele><time>2026-05-03T10:56:52.907Z</time></trkpt><trkpt lat="45.7364677" lon="9.3192726"><ele>375.0</ele><time>2026-05-03T10:56:53.899Z</time></trkpt><trkpt lat="45.7363424" lon="9.3191804"><ele>375.0</ele><time>2026-05-03T10:56:54.898Z</time></trkpt><trkpt lat="45.7362138" lon="9.3191125"><ele>375.0</ele><time>2026-05-03T10:56:55.914Z</time></trkpt><trkpt lat="45.7360757" lon="9.3190849"><ele>375.0</ele><time>2026-05-03T10:56:56.901Z</time></trkpt><trkpt lat="45.735945" lon="9.3190382"><ele>375.0</ele><time>2026-05-03T10:56:57.894Z</time></trkpt><trkpt lat="45.7358215" lon="9.3190018"><ele>375.0</ele><time>2026-05-03T10:56:58.905Z</time></trkpt><trkpt lat="45.7357021" lon="9.3189607"><ele>375.8</ele><time>2026-05-03T10:56:59.895Z</time></trkpt><trkpt lat="45.7355802" lon="9.3189159"><ele>376.6</ele><time>2026-05-03T10:57:00.899Z</time></trkpt><trkpt lat="45.7354686" lon="9.3188773"><ele>377.4</ele><time>2026-05-03T10:57:01.906Z</time></trkpt><trkpt lat="45.735371" lon="9.3188415"><ele>378.2</ele><time>2026-05-03T10:57:02.899Z</time></trkpt><trkpt lat="45.7352867" lon="9.3187996"><ele>379.0</ele><time>2026-05-03T10:57:03.898Z</time></trkpt><trkpt lat="45.7352013" lon="9.3187451"><ele>379.6</ele><time>2026-05-03T10:57:04.9Z</time></trkpt><trkpt lat="45.7351061" lon="9.3186726"><ele>380.2</ele><time>2026-05-03T10:57:05.883Z</time></trkpt><trkpt lat="45.7350112" lon="9.3185956"><ele>380.8</ele><time>2026-05-03T10:57:06.9Z</time></trkpt><trkpt lat="45.7349301" lon="9.318513"><ele>381.40000000000003</ele><time>2026-05-03T10:57:07.896Z</time></trkpt><trkpt lat="45.7348368" lon="9.318426"><ele>382.0</ele><time>2026-05-03T10:57:08.907Z</time></trkpt><trkpt lat="45.7347352" lon="9.3183211"><ele>382.0</ele><time>2026-05-03T10:57:09.892Z</time></trkpt><trkpt lat="45.7346462" lon="9.3181955"><ele>382.0</ele><time>2026-05-03T10:57:10.898Z</time></trkpt><trkpt lat="45.7345688" lon="9.3180505"><ele>382.0</ele><time>2026-05-03T10:57:11.898Z</time></trkpt><trkpt lat="45.7344919" lon="9.3178937"><ele>382.0</ele><time>2026-05-03T10:57:12.904Z</time></trkpt><trkpt lat="45.7344179" lon="9.3177191"><ele>382.66666666666663</ele><time>2026-05-03T10:57:13.896Z</time></trkpt><trkpt lat="45.7343385" lon="9.3175492"><ele>383.3333333333333</ele><time>2026-05-03T10:57:14.9Z</time></trkpt><trkpt lat="45.7342532" lon="9.3173666"><ele>384.0</ele><time>2026-05-03T10:57:15.903Z</time></trkpt><trkpt lat="45.7341582" lon="9.3171847"><ele>384.0</ele><time>2026-05-03T10:57:16.896Z</time></trkpt><trkpt lat="45.7340324" lon="9.3170169"><ele>384.0</ele><time>2026-05-03T10:57:17.899Z</time></trkpt><trkpt lat="45.7339072" lon="9.316861"><ele>384.0</ele><time>2026-05-03T10:57:18.906Z</time></trkpt><trkpt lat="45.7337662" lon="9.3167259"><ele>384.0</ele><time>2026-05-03T10:57:19.897Z</time></trkpt><trkpt lat="45.7336275" lon="9.3165861"><ele>384.0</ele><time>2026-05-03T10:57:20.9Z</time></trkpt><trkpt lat="45.733494" lon="9.3164311"><ele>384.0</ele><time>2026-05-03T10:57:21.908Z</time></trkpt><trkpt lat="45.733357" lon="9.3162875"><ele>383.3333333333333</ele><time>2026-05-03T10:57:22.891Z</time></trkpt><trkpt lat="45.7332134" lon="9.3161358"><ele>382.66666666666663</ele><time>2026-05-03T10:57:23.913Z</time></trkpt><trkpt lat="45.7330614" lon="9.3160065"><ele>382.0</ele><time>2026-05-03T10:57:24.896Z</time></trkpt><trkpt lat="45.7329162" lon="9.3158919"><ele>382.0</ele><time>2026-05-03T10:57:25.894Z</time></trkpt><trkpt lat="45.7327592" lon="9.315836"><ele>382.0</ele><time>2026-05-03T10:57:26.897Z</time></trkpt><trkpt lat="45.7325972" lon="9.3158473"><ele>382.0</ele><time>2026-05-03T10:57:27.903Z</time></trkpt><trkpt lat="45.7324375" lon="9.3158901"><ele>382.66666666666663</ele><time>2026-05-03T10:57:28.898Z</time></trkpt><trkpt lat="45.7322904" lon="9.3159788"><ele>383.3333333333333</ele><time>2026-05-03T10:57:29.909Z</time></trkpt><trkpt lat="45.7321382" lon="9.3160861"><ele>384.0</ele><time>2026-05-03T10:57:30.887Z</time></trkpt><trkpt lat="45.7320017" lon="9.3162433"><ele>384.66666666666663</ele><time>2026-05-03T10:57:31.901Z</time></trkpt><trkpt lat="45.7318639" lon="9.3164034"><ele>385.3333333333333</ele><time>2026-05-03T10:57:32.9Z</time></trkpt><trkpt lat="45.7317284" lon="9.3165508"><ele>386.0</ele><time>2026-05-03T10:57:33.91Z</time></trkpt><trkpt lat="45.7315994" lon="9.3166782"><ele>386.0</ele><time>2026-05-03T10:57:34.914Z</time></trkpt><trkpt lat="45.7314826" lon="9.3168095"><ele>386.0</ele><time>2026-05-03T10:57:35.898Z</time></trkpt><trkpt lat="45.7313743" lon="9.3169344"><ele>386.0</ele><time>2026-05-03T10:57:36.899Z</time></trkpt><trkpt lat="45.7312784" lon="9.3170504"><ele>386.0</ele><time>2026-05-03T10:57:37.911Z</time></trkpt><trkpt lat="45.7311859" lon="9.3171678"><ele>385.75</ele><time>2026-05-03T10:57:38.904Z</time></trkpt><trkpt lat="45.7310888" lon="9.3173013"><ele>385.5</ele><time>2026-05-03T10:57:39.896Z</time></trkpt><trkpt lat="45.7309988" lon="9.3174413"><ele>385.25</ele><time>2026-05-03T10:57:40.902Z</time></trkpt><trkpt lat="45.7309215" lon="9.3175764"><ele>385.0</ele><time>2026-05-03T10:57:41.899Z</time></trkpt><trkpt lat="45.7308411" lon="9.3177081"><ele>385.0</ele><time>2026-05-03T10:57:42.902Z</time></trkpt><trkpt lat="45.7307369" lon="9.3178233"><ele>385.0</ele><time>2026-05-03T10:57:43.905Z</time></trkpt><trkpt lat="45.7306377" lon="9.3179308"><ele>385.0</ele><time>2026-05-03T10:57:44.898Z</time></trkpt><trkpt lat="45.7305141" lon="9.317993"><ele>385.0</ele><time>2026-05-03T10:57:45.909Z</time></trkpt><trkpt lat="45.7303796" lon="9.3180331"><ele>385.0</ele><time>2026-05-03T10:57:46.9Z</time></trkpt><trkpt lat="45.7302359" lon="9.3180047"><ele>385.0</ele><time>2026-05-03T10:57:47.892Z</time></trkpt><trkpt lat="45.7300997" lon="9.317954"><ele>385.0</ele><time>2026-05-03T10:57:48.9Z</time></trkpt><trkpt lat="45.7299599" lon="9.3178669"><ele>385.0</ele><time>2026-05-03T10:57:49.901Z</time></trkpt><trkpt lat="45.7298328" lon="9.3177679"><ele>385.5</ele><time>2026-05-03T10:57:50.899Z</time></trkpt><trkpt lat="45.7297085" lon="9.3176805"><ele>386.0</ele><time>2026-05-03T10:57:51.9Z</time></trkpt><trkpt lat="45.7295884" lon="9.3176007"><ele>386.5</ele><time>2026-05-03T10:57:52.904Z</time></trkpt><trkpt lat="45.7294712" lon="9.3175131"><ele>387.0</ele><time>2026-05-03T10:57:53.893Z</time></trkpt><trkpt lat="45.729361" lon="9.3174442"><ele>387.0</ele><time>2026-05-03T10:57:54.898Z</time></trkpt><trkpt lat="45.7292523" lon="9.3173754"><ele>387.0</ele><time>2026-05-03T10:57:55.905Z</time></trkpt><trkpt lat="45.7291349" lon="9.3173027"><ele>387.0</ele><time>2026-05-03T10:57:56.904Z</time></trkpt><trkpt lat="45.7290044" lon="9.3172188"><ele>387.0</ele><time>2026-05-03T10:57:57.917Z</time></trkpt><trkpt lat="45.7288697" lon="9.3171305"><ele>384.3333333333333</ele><time>2026-05-03T10:57:58.902Z</time></trkpt><trkpt lat="45.7287316" lon="9.3170316"><ele>381.66666666666663</ele><time>2026-05-03T10:57:59.903Z</time></trkpt><trkpt lat="45.7285956" lon="9.3169302"><ele>379.0</ele><time>2026-05-03T10:58:00.907Z</time></trkpt><trkpt lat="45.7284574" lon="9.316825"><ele>379.0</ele><time>2026-05-03T10:58:01.901Z</time></trkpt><trkpt lat="45.7283146" lon="9.3167251"><ele>379.0</ele><time>2026-05-03T10:58:02.902Z</time></trkpt><trkpt lat="45.7281699" lon="9.3166235"><ele>379.0</ele><time>2026-05-03T10:58:03.902Z</time></trkpt><trkpt lat="45.7280248" lon="9.3165292"><ele>379.0</ele><time>2026-05-03T10:58:04.895Z</time></trkpt><trkpt lat="45.727851" lon="9.3164428"><ele>379.0</ele><time>2026-05-03T10:58:05.904Z</time></trkpt><trkpt lat="45.7276631" lon="9.3163682"><ele>379.0</ele><time>2026-05-03T10:58:06.902Z</time></trkpt><trkpt lat="45.7275006" lon="9.3163106"><ele>376.0</ele><time>2026-05-03T10:58:07.904Z</time></trkpt><trkpt lat="45.7273267" lon="9.3162872"><ele>373.0</ele><time>2026-05-03T10:58:08.901Z</time></trkpt><trkpt lat="45.727159" lon="9.3162712"><ele>370.0</ele><time>2026-05-03T10:58:09.893Z</time></trkpt><trkpt lat="45.7269929" lon="9.3162808"><ele>369.5</ele><time>2026-05-03T10:58:10.895Z</time></trkpt><trkpt lat="45.7268412" lon="9.3162967"><ele>369.0</ele><time>2026-05-03T10:58:11.901Z</time></trkpt><trkpt lat="45.7266978" lon="9.3163224"><ele>368.5</ele><time>2026-05-03T10:58:12.888Z</time></trkpt><trkpt lat="45.7265514" lon="9.3163499"><ele>368.0</ele><time>2026-05-03T10:58:13.896Z</time></trkpt><trkpt lat="45.7264087" lon="9.3163924"><ele>369.6666666666667</ele><time>2026-05-03T10:58:14.899Z</time></trkpt><trkpt lat="45.72626" lon="9.3164506"><ele>371.3333333333333</ele><time>2026-05-03T10:58:15.904Z</time></trkpt><trkpt lat="45.7261118" lon="9.3165121"><ele>373.0</ele><time>2026-05-03T10:58:16.89Z</time></trkpt><trkpt lat="45.7259591" lon="9.3165675"><ele>373.0</ele><time>2026-05-03T10:58:17.903Z</time></trkpt><trkpt lat="45.7258079" lon="9.3166299"><ele>373.0</ele><time>2026-05-03T10:58:18.914Z</time></trkpt><trkpt lat="45.7256569" lon="9.3166963"><ele>373.0</ele><time>2026-05-03T10:58:19.892Z</time></trkpt><trkpt lat="45.7255018" lon="9.3167641"><ele>373.0</ele><time>2026-05-03T10:58:20.907Z</time></trkpt><trkpt lat="45.725338" lon="9.3168354"><ele>373.0</ele><time>2026-05-03T10:58:21.893Z</time></trkpt><trkpt lat="45.7251679" lon="9.3169046"><ele>373.0</ele><time>2026-05-03T10:58:22.905Z</time></trkpt><trkpt lat="45.7250003" lon="9.3169653"><ele>371.3333333333333</ele><time>2026-05-03T10:58:23.899Z</time></trkpt><trkpt lat="45.7248327" lon="9.3170051"><ele>369.6666666666667</ele><time>2026-05-03T10:58:24.896Z</time></trkpt><trkpt lat="45.7246679" lon="9.3170176"><ele>368.0</ele><time>2026-05-03T10:58:25.903Z</time></trkpt><trkpt lat="45.7245027" lon="9.3170293"><ele>366.33333333333337</ele><time>2026-05-03T10:58:26.901Z</time></trkpt><trkpt lat="45.7243487" lon="9.3170018"><ele>364.6666666666667</ele><time>2026-05-03T10:58:27.898Z</time></trkpt><trkpt lat="45.7241956" lon="9.3169784"><ele>363.0</ele><time>2026-05-03T10:58:28.894Z</time></trkpt><trkpt lat="45.7240368" lon="9.3169514"><ele>363.0</ele><time>2026-05-03T10:58:29.901Z</time></trkpt><trkpt lat="45.7238722" lon="9.31692"><ele>363.0</ele><time>2026-05-03T10:58:30.892Z</time></trkpt><trkpt lat="45.7237216" lon="9.3169034"><ele>363.0</ele><time>2026-05-03T10:58:31.902Z</time></trkpt><trkpt lat="45.7235693" lon="9.3168898"><ele>364.3333333333333</ele><time>2026-05-03T10:58:32.901Z</time></trkpt><trkpt lat="45.7234144" lon="9.3168716"><ele>365.66666666666663</ele><time>2026-05-03T10:58:33.901Z</time></trkpt><trkpt lat="45.7232587" lon="9.3168442"><ele>367.0</ele><time>2026-05-03T10:58:34.905Z</time></trkpt><trkpt lat="45.7231003" lon="9.3168194"><ele>367.0</ele><time>2026-05-03T10:58:35.905Z</time></trkpt><trkpt lat="45.7229399" lon="9.3167958"><ele>367.0</ele><time>2026-05-03T10:58:36.894Z</time></trkpt><trkpt lat="45.7227797" lon="9.3167789"><ele>367.0</ele><time>2026-05-03T10:58:37.917Z</time></trkpt><trkpt lat="45.7226294" lon="9.3167612"><ele>366.25</ele><time>2026-05-03T10:58:38.903Z</time></trkpt><trkpt lat="45.7224784" lon="9.3167472"><ele>365.5</ele><time>2026-05-03T10:58:39.903Z</time></trkpt><trkpt lat="45.7223329" lon="9.3167421"><ele>364.75</ele><time>2026-05-03T10:58:40.891Z</time></trkpt><trkpt lat="45.7221921" lon="9.316746"><ele>364.0</ele><time>2026-05-03T10:58:41.885Z</time></trkpt><trkpt lat="45.7220586" lon="9.3167613"><ele>364.0</ele><time>2026-05-03T10:58:42.905Z</time></trkpt><trkpt lat="45.7219222" lon="9.3167784"><ele>364.0</ele><time>2026-05-03T10:58:43.897Z</time></trkpt><trkpt lat="45.7217853" lon="9.3167949"><ele>364.0</ele><time>2026-05-03T10:58:44.902Z</time></trkpt><trkpt lat="45.7216583" lon="9.3168134"><ele>364.0</ele><time>2026-05-03T10:58:45.892Z</time></trkpt><trkpt lat="45.721541" lon="9.316834"><ele>363.79999999999995</ele><time>2026-05-03T10:58:46.9Z</time></trkpt><trkpt lat="45.7214371" lon="9.3168556"><ele>363.59999999999997</ele><time>2026-05-03T10:58:47.907Z</time></trkpt><trkpt lat="45.7213517" lon="9.3168777"><ele>363.4</ele><time>2026-05-03T10:58:48.91Z</time></trkpt><trkpt lat="45.7212724" lon="9.3168963"><ele>363.2</ele><time>2026-05-03T10:58:50.899Z</time></trkpt><trkpt lat="45.7211506" lon="9.3169296"><ele>363.0</ele><time>2026-05-03T10:59:03.907Z</time></trkpt><trkpt lat="45.7210277" lon="9.3169736"><ele>363.3333333333333</ele><time>2026-05-03T10:59:05.9Z</time></trkpt><trkpt lat="45.7208993" lon="9.3170269"><ele>363.6666666666667</ele><time>2026-05-03T10:59:07.896Z</time></trkpt><trkpt lat="45.7208286" lon="9.3170498"><ele>364.0</ele><time>2026-05-03T10:59:08.906Z</time></trkpt><trkpt lat="45.7207554" lon="9.3170703"><ele>364.33333333333337</ele><time>2026-05-03T10:59:09.904Z</time></trkpt><trkpt lat="45.7206762" lon="9.3170876"><ele>364.6666666666667</ele><time>2026-05-03T10:59:10.904Z</time></trkpt><trkpt lat="45.7206005" lon="9.3171097"><ele>365.0</ele><time>2026-05-03T10:59:11.904Z</time></trkpt><trkpt lat="45.7205231" lon="9.3171345"><ele>365.0</ele><time>2026-05-03T10:59:12.905Z</time></trkpt><trkpt lat="45.7204467" lon="9.3171603"><ele>365.0</ele><time>2026-05-03T10:59:13.893Z</time></trkpt><trkpt lat="45.7203665" lon="9.3171904"><ele>365.0</ele><time>2026-05-03T10:59:14.892Z</time></trkpt><trkpt lat="45.7202839" lon="9.3172186"><ele>365.0</ele><time>2026-05-03T10:59:15.892Z</time></trkpt><trkpt lat="45.7201995" lon="9.3172473"><ele>365.0</ele><time>2026-05-03T10:59:16.89Z</time></trkpt><trkpt lat="45.7201149" lon="9.317275"><ele>365.0</ele><time>2026-05-03T10:59:17.896Z</time></trkpt><trkpt lat="45.7200324" lon="9.3173035"><ele>367.33333333333337</ele><time>2026-05-03T10:59:18.897Z</time></trkpt><trkpt lat="45.719949" lon="9.317324"><ele>369.6666666666667</ele><time>2026-05-03T10:59:19.898Z</time></trkpt><trkpt lat="45.7198701" lon="9.3173522"><ele>372.0</ele><time>2026-05-03T10:59:20.9Z</time></trkpt><trkpt lat="45.7197878" lon="9.3173761"><ele>374.3333333333333</ele><time>2026-05-03T10:59:21.907Z</time></trkpt><trkpt lat="45.7197137" lon="9.3173836"><ele>376.66666666666663</ele><time>2026-05-03T10:59:22.904Z</time></trkpt><trkpt lat="45.7196395" lon="9.3173666"><ele>379.0</ele><time>2026-05-03T10:59:23.912Z</time></trkpt><trkpt lat="45.7195673" lon="9.3173318"><ele>379.0</ele><time>2026-05-03T10:59:24.897Z</time></trkpt><trkpt lat="45.7194971" lon="9.3172934"><ele>379.0</ele><time>2026-05-03T10:59:25.905Z</time></trkpt><trkpt lat="45.7194254" lon="9.3172875"><ele>379.0</ele><time>2026-05-03T10:59:26.909Z</time></trkpt><trkpt lat="45.719358" lon="9.3173289"><ele>379.0</ele><time>2026-05-03T10:59:27.903Z</time></trkpt><trkpt lat="45.7192929" lon="9.3174007"><ele>379.0</ele><time>2026-05-03T10:59:28.9Z</time></trkpt><trkpt lat="45.7192205" lon="9.3174641"><ele>379.0</ele><time>2026-05-03T10:59:29.912Z</time></trkpt><trkpt lat="45.7191341" lon="9.3174954"><ele>379.0</ele><time>2026-05-03T10:59:30.894Z</time></trkpt><trkpt lat="45.7190399" lon="9.3175058"><ele>379.0</ele><time>2026-05-03T10:59:31.933Z</time></trkpt><trkpt lat="45.7189407" lon="9.3175147"><ele>379.0</ele><time>2026-05-03T10:59:32.92Z</time></trkpt><trkpt lat="45.7188438" lon="9.3175163"><ele>379.0</ele><time>2026-05-03T10:59:33.894Z</time></trkpt><trkpt lat="45.7187389" lon="9.3175167"><ele>379.0</ele><time>2026-05-03T10:59:34.899Z</time></trkpt><trkpt lat="45.718639" lon="9.3175199"><ele>378.79999999999995</ele><time>2026-05-03T10:59:35.896Z</time></trkpt><trkpt lat="45.7185419" lon="9.3175355"><ele>378.59999999999997</ele><time>2026-05-03T10:59:36.895Z</time></trkpt><trkpt lat="45.7184422" lon="9.31756"><ele>378.4</ele><time>2026-05-03T10:59:37.883Z</time></trkpt><trkpt lat="45.7183466" lon="9.3175902"><ele>378.2</ele><time>2026-05-03T10:59:38.905Z</time></trkpt><trkpt lat="45.7182557" lon="9.3176169"><ele>378.0</ele><time>2026-05-03T10:59:39.9Z</time></trkpt><trkpt lat="45.7181706" lon="9.3176681"><ele>378.0</ele><time>2026-05-03T10:59:40.902Z</time></trkpt><trkpt lat="45.7180864" lon="9.317735"><ele>378.0</ele><time>2026-05-03T10:59:41.904Z</time></trkpt><trkpt lat="45.7180023" lon="9.3178053"><ele>378.0</ele><time>2026-05-03T10:59:42.907Z</time></trkpt><trkpt lat="45.7179153" lon="9.3178834"><ele>378.0</ele><time>2026-05-03T10:59:43.899Z</time></trkpt><trkpt lat="45.7178294" lon="9.3179611"><ele>378.0</ele><time>2026-05-03T10:59:44.909Z</time></trkpt><trkpt lat="45.7177507" lon="9.3180436"><ele>377.0</ele><time>2026-05-03T10:59:45.885Z</time></trkpt><trkpt lat="45.7176722" lon="9.318128"><ele>376.0</ele><time>2026-05-03T10:59:46.904Z</time></trkpt><trkpt lat="45.7175825" lon="9.3181976"><ele>375.0</ele><time>2026-05-03T10:59:47.899Z</time></trkpt><trkpt lat="45.7174988" lon="9.3182601"><ele>374.0</ele><time>2026-05-03T10:59:48.907Z</time></trkpt><trkpt lat="45.7174079" lon="9.3182989"><ele>373.0</ele><time>2026-05-03T10:59:49.909Z</time></trkpt><trkpt lat="45.7173168" lon="9.3183223"><ele>373.0</ele><time>2026-05-03T10:59:50.904Z</time></trkpt><trkpt lat="45.717225" lon="9.3183404"><ele>373.0</ele><time>2026-05-03T10:59:51.892Z</time></trkpt><trkpt lat="45.717135" lon="9.3183539"><ele>373.0</ele><time>2026-05-03T10:59:52.903Z</time></trkpt><trkpt lat="45.7170487" lon="9.3183591"><ele>373.0</ele><time>2026-05-03T10:59:53.9Z</time></trkpt><trkpt lat="45.7169657" lon="9.3183619"><ele>373.0</ele><time>2026-05-03T10:59:54.908Z</time></trkpt><trkpt lat="45.7168849" lon="9.318364"><ele>373.0</ele><time>2026-05-03T10:59:55.901Z</time></trkpt><trkpt lat="45.7168082" lon="9.3183681"><ele>373.3333333333333</ele><time>2026-05-03T10:59:56.893Z</time></trkpt><trkpt lat="45.7167268" lon="9.3183756"><ele>373.66666666666663</ele><time>2026-05-03T10:59:57.903Z</time></trkpt><trkpt lat="45.7166425" lon="9.3183794"><ele>374.0</ele><time>2026-05-03T10:59:58.904Z</time></trkpt><trkpt lat="45.7165634" lon="9.318382"><ele>374.3333333333333</ele><time>2026-05-03T10:59:59.91Z</time></trkpt><trkpt lat="45.7164803" lon="9.3183837"><ele>374.6666666666667</ele><time>2026-05-03T11:00:00.895Z</time></trkpt><trkpt lat="45.7163975" lon="9.318384"><ele>375.0</ele><time>2026-05-03T11:00:01.908Z</time></trkpt><trkpt lat="45.7163041" lon="9.3183986"><ele>375.0</ele><time>2026-05-03T11:00:02.905Z</time></trkpt><trkpt lat="45.7162125" lon="9.3184047"><ele>375.0</ele><time>2026-05-03T11:00:03.905Z</time></trkpt><trkpt lat="45.7161219" lon="9.3184083"><ele>375.0</ele><time>2026-05-03T11:00:04.907Z</time></trkpt><trkpt lat="45.7160318" lon="9.3184136"><ele>375.0</ele><time>2026-05-03T11:00:05.909Z</time></trkpt><trkpt lat="45.7159414" lon="9.3184152"><ele>375.0</ele><time>2026-05-03T11:00:06.907Z</time></trkpt><trkpt lat="45.7158509" lon="9.3184116"><ele>375.1666666666667</ele><time>2026-05-03T11:00:07.905Z</time></trkpt><trkpt lat="45.7157692" lon="9.3184114"><ele>375.3333333333333</ele><time>2026-05-03T11:00:08.901Z</time></trkpt><trkpt lat="45.7156879" lon="9.318418"><ele>375.5</ele><time>2026-05-03T11:00:09.91Z</time></trkpt><trkpt lat="45.7156073" lon="9.3184281"><ele>375.66666666666663</ele><time>2026-05-03T11:00:10.909Z</time></trkpt><trkpt lat="45.7155266" lon="9.3184342"><ele>375.8333333333333</ele><time>2026-05-03T11:00:11.902Z</time></trkpt><trkpt lat="45.7154439" lon="9.3184382"><ele>376.0</ele><time>2026-05-03T11:00:12.897Z</time></trkpt><trkpt lat="45.7153582" lon="9.3184404"><ele>376.0</ele><time>2026-05-03T11:00:13.902Z</time></trkpt><trkpt lat="45.7152696" lon="9.3184424"><ele>376.0</ele><time>2026-05-03T11:00:14.906Z</time></trkpt><trkpt lat="45.7151789" lon="9.318446"><ele>376.0</ele><time>2026-05-03T11:00:15.911Z</time></trkpt><trkpt lat="45.7150866" lon="9.3184492"><ele>376.0</ele><time>2026-05-03T11:00:16.906Z</time></trkpt><trkpt lat="45.714995" lon="9.3184558"><ele>376.0</ele><time>2026-05-03T11:00:17.884Z</time></trkpt><trkpt lat="45.7149025" lon="9.3184644"><ele>376.4</ele><time>2026-05-03T11:00:18.907Z</time></trkpt><trkpt lat="45.7148098" lon="9.3184721"><ele>376.8</ele><time>2026-05-03T11:00:19.893Z</time></trkpt><trkpt lat="45.7147159" lon="9.318473"><ele>377.2</ele><time>2026-05-03T11:00:20.902Z</time></trkpt><trkpt lat="45.7146191" lon="9.3184761"><ele>377.59999999999997</ele><time>2026-05-03T11:00:21.902Z</time></trkpt><trkpt lat="45.7145239" lon="9.3184815"><ele>378.0</ele><time>2026-05-03T11:00:22.907Z</time></trkpt><trkpt lat="45.7144311" lon="9.3184891"><ele>378.5</ele><time>2026-05-03T11:00:23.914Z</time></trkpt><trkpt lat="45.7143413" lon="9.3184888"><ele>379.0</ele><time>2026-05-03T11:00:24.904Z</time></trkpt><trkpt lat="45.7142603" lon="9.3184733"><ele>379.5</ele><time>2026-05-03T11:00:25.9Z</time></trkpt><trkpt lat="45.7141905" lon="9.3184385"><ele>380.0</ele><time>2026-05-03T11:00:26.897Z</time></trkpt><trkpt lat="45.7141236" lon="9.3184051"><ele>380.5</ele><time>2026-05-03T11:00:27.907Z</time></trkpt><trkpt lat="45.714008" lon="9.3183887"><ele>381.0</ele><time>2026-05-03T11:00:29.9Z</time></trkpt><trkpt lat="45.7139406" lon="9.3184477"><ele>381.0</ele><time>2026-05-03T11:00:30.902Z</time></trkpt><trkpt lat="45.713856" lon="9.3184849"><ele>381.0</ele><time>2026-05-03T11:00:31.902Z</time></trkpt><trkpt lat="45.7137534" lon="9.3185048"><ele>381.0</ele><time>2026-05-03T11:00:32.894Z</time></trkpt><trkpt lat="45.7136495" lon="9.3185262"><ele>381.0</ele><time>2026-05-03T11:00:33.9Z</time></trkpt><trkpt lat="45.7135435" lon="9.3185421"><ele>381.0</ele><time>2026-05-03T11:00:34.909Z</time></trkpt><trkpt lat="45.7134337" lon="9.31855"><ele>381.5</ele><time>2026-05-03T11:00:35.897Z</time></trkpt><trkpt lat="45.7133174" lon="9.3185585"><ele>382.0</ele><time>2026-05-03T11:00:36.896Z</time></trkpt><trkpt lat="45.7132018" lon="9.3185665"><ele>382.5</ele><time>2026-05-03T11:00:37.905Z</time></trkpt><trkpt lat="45.7130821" lon="9.3185615"><ele>383.0</ele><time>2026-05-03T11:00:38.895Z</time></trkpt><trkpt lat="45.7129604" lon="9.3185553"><ele>383.0</ele><time>2026-05-03T11:00:39.902Z</time></trkpt><trkpt lat="45.7128445" lon="9.31855"><ele>383.0</ele><time>2026-05-03T11:00:40.896Z</time></trkpt><trkpt lat="45.7127214" lon="9.3185374"><ele>383.0</ele><time>2026-05-03T11:00:41.908Z</time></trkpt><trkpt lat="45.7126028" lon="9.3185259"><ele>383.0</ele><time>2026-05-03T11:00:42.905Z</time></trkpt><trkpt lat="45.7124774" lon="9.3185002"><ele>382.75</ele><time>2026-05-03T11:00:43.91Z</time></trkpt><trkpt lat="45.7123548" lon="9.3184767"><ele>382.5</ele><time>2026-05-03T11:00:44.902Z</time></trkpt><trkpt lat="45.7122322" lon="9.3184494"><ele>382.25</ele><time>2026-05-03T11:00:45.905Z</time></trkpt><trkpt lat="45.712106" lon="9.3184181"><ele>382.0</ele><time>2026-05-03T11:00:46.903Z</time></trkpt><trkpt lat="45.7119826" lon="9.318382"><ele>381.0</ele><time>2026-05-03T11:00:47.894Z</time></trkpt><trkpt lat="45.7118573" lon="9.3183298"><ele>380.0</ele><time>2026-05-03T11:00:48.907Z</time></trkpt><trkpt lat="45.7117342" lon="9.3182872"><ele>379.0</ele><time>2026-05-03T11:00:49.913Z</time></trkpt><trkpt lat="45.7116124" lon="9.3182358"><ele>378.0</ele><time>2026-05-03T11:00:50.905Z</time></trkpt><trkpt lat="45.7114914" lon="9.3181886"><ele>378.0</ele><time>2026-05-03T11:00:51.908Z</time></trkpt><trkpt lat="45.7113683" lon="9.3181397"><ele>378.0</ele><time>2026-05-03T11:00:52.951Z</time></trkpt><trkpt lat="45.711248" lon="9.3180872"><ele>378.0</ele><time>2026-05-03T11:00:53.916Z</time></trkpt><trkpt lat="45.7111255" lon="9.3180299"><ele>378.0</ele><time>2026-05-03T11:00:54.892Z</time></trkpt><trkpt lat="45.7110011" lon="9.3179753"><ele>379.75</ele><time>2026-05-03T11:00:55.903Z</time></trkpt><trkpt lat="45.7108775" lon="9.3179249"><ele>381.5</ele><time>2026-05-03T11:00:56.898Z</time></trkpt><trkpt lat="45.710757" lon="9.3178704"><ele>383.25</ele><time>2026-05-03T11:00:57.899Z</time></trkpt><trkpt lat="45.710638" lon="9.317816"><ele>385.0</ele><time>2026-05-03T11:00:58.903Z</time></trkpt><trkpt lat="45.7105151" lon="9.3177597"><ele>385.0</ele><time>2026-05-03T11:00:59.906Z</time></trkpt><trkpt lat="45.7103982" lon="9.317707"><ele>385.0</ele><time>2026-05-03T11:01:00.905Z</time></trkpt><trkpt lat="45.7102778" lon="9.3176515"><ele>385.0</ele><time>2026-05-03T11:01:01.911Z</time></trkpt><trkpt lat="45.7101552" lon="9.3176022"><ele>385.0</ele><time>2026-05-03T11:01:02.912Z</time></trkpt><trkpt lat="45.7100335" lon="9.3175478"><ele>384.0</ele><time>2026-05-03T11:01:03.904Z</time></trkpt><trkpt lat="45.7099179" lon="9.3174813"><ele>383.0</ele><time>2026-05-03T11:01:04.899Z</time></trkpt><trkpt lat="45.7097989" lon="9.3173858"><ele>382.0</ele><time>2026-05-03T11:01:05.9Z</time></trkpt><trkpt lat="45.7096776" lon="9.317289"><ele>381.0</ele><time>2026-05-03T11:01:06.905Z</time></trkpt><trkpt lat="45.7095689" lon="9.3171716"><ele>381.0</ele><time>2026-05-03T11:01:07.908Z</time></trkpt><trkpt lat="45.7094741" lon="9.3170426"><ele>381.0</ele><time>2026-05-03T11:01:08.91Z</time></trkpt><trkpt lat="45.7093958" lon="9.3168915"><ele>381.0</ele><time>2026-05-03T11:01:09.912Z</time></trkpt><trkpt lat="45.7093145" lon="9.3167312"><ele>381.0</ele><time>2026-05-03T11:01:10.911Z</time></trkpt><trkpt lat="45.709255" lon="9.3165527"><ele>381.0</ele><time>2026-05-03T11:01:11.902Z</time></trkpt><trkpt lat="45.7091925" lon="9.3163731"><ele>381.0</ele><time>2026-05-03T11:01:12.904Z</time></trkpt><trkpt lat="45.7091393" lon="9.3161908"><ele>381.0</ele><time>2026-05-03T11:01:13.898Z</time></trkpt><trkpt lat="45.7090871" lon="9.3160108"><ele>381.0</ele><time>2026-05-03T11:01:14.906Z</time></trkpt><trkpt lat="45.7090309" lon="9.3158337"><ele>381.0</ele><time>2026-05-03T11:01:15.906Z</time></trkpt><trkpt lat="45.7089776" lon="9.3156592"><ele>381.0</ele><time>2026-05-03T11:01:16.898Z</time></trkpt><trkpt lat="45.7089252" lon="9.3154768"><ele>381.0</ele><time>2026-05-03T11:01:17.896Z</time></trkpt><trkpt lat="45.7088687" lon="9.3153007"><ele>381.0</ele><time>2026-05-03T11:01:18.92Z</time></trkpt><trkpt lat="45.7088003" lon="9.3151338"><ele>380.5</ele><time>2026-05-03T11:01:19.911Z</time></trkpt><trkpt lat="45.7087195" lon="9.3149855"><ele>380.0</ele><time>2026-05-03T11:01:20.903Z</time></trkpt><trkpt lat="45.7086397" lon="9.3148435"><ele>379.5</ele><time>2026-05-03T11:01:21.904Z</time></trkpt><trkpt lat="45.7085396" lon="9.3147315"><ele>379.0</ele><time>2026-05-03T11:01:22.901Z</time></trkpt><trkpt lat="45.7084378" lon="9.3146351"><ele>379.0</ele><time>2026-05-03T11:01:23.908Z</time></trkpt><trkpt lat="45.7083361" lon="9.3145405"><ele>379.0</ele><time>2026-05-03T11:01:24.9Z</time></trkpt><trkpt lat="45.7082399" lon="9.3144483"><ele>379.0</ele><time>2026-05-03T11:01:25.906Z</time></trkpt><trkpt lat="45.7081478" lon="9.314355"><ele>379.0</ele><time>2026-05-03T11:01:26.903Z</time></trkpt><trkpt lat="45.7080565" lon="9.3142673"><ele>379.0</ele><time>2026-05-03T11:01:27.905Z</time></trkpt><trkpt lat="45.7079653" lon="9.3141815"><ele>379.0</ele><time>2026-05-03T11:01:28.904Z</time></trkpt><trkpt lat="45.7078693" lon="9.314106"><ele>379.0</ele><time>2026-05-03T11:01:29.907Z</time></trkpt><trkpt lat="45.7077728" lon="9.3140077"><ele>379.0</ele><time>2026-05-03T11:01:30.908Z</time></trkpt><trkpt lat="45.7076784" lon="9.3139015"><ele>377.5</ele><time>2026-05-03T11:01:31.9Z</time></trkpt><trkpt lat="45.7075852" lon="9.3137861"><ele>376.0</ele><time>2026-05-03T11:01:32.904Z</time></trkpt><trkpt lat="45.7074882" lon="9.3136672"><ele>374.5</ele><time>2026-05-03T11:01:33.906Z</time></trkpt><trkpt lat="45.70739" lon="9.3135415"><ele>373.0</ele><time>2026-05-03T11:01:34.902Z</time></trkpt><trkpt lat="45.7072948" lon="9.3133995"><ele>373.0</ele><time>2026-05-03T11:01:35.902Z</time></trkpt><trkpt lat="45.7071993" lon="9.3132447"><ele>373.0</ele><time>2026-05-03T11:01:36.898Z</time></trkpt><trkpt lat="45.7071049" lon="9.3130767"><ele>373.0</ele><time>2026-05-03T11:01:37.909Z</time></trkpt><trkpt lat="45.7070057" lon="9.3129026"><ele>370.3333333333333</ele><time>2026-05-03T11:01:38.892Z</time></trkpt><trkpt lat="45.7069065" lon="9.3127277"><ele>367.6666666666667</ele><time>2026-05-03T11:01:39.899Z</time></trkpt><trkpt lat="45.7068079" lon="9.3125514"><ele>365.0</ele><time>2026-05-03T11:01:40.913Z</time></trkpt><trkpt lat="45.70671" lon="9.3123774"><ele>367.25</ele><time>2026-05-03T11:01:41.9Z</time></trkpt><trkpt lat="45.7066162" lon="9.3122065"><ele>369.5</ele><time>2026-05-03T11:01:42.895Z</time></trkpt><trkpt lat="45.7065221" lon="9.3120413"><ele>371.75</ele><time>2026-05-03T11:01:43.9Z</time></trkpt><trkpt lat="45.7064304" lon="9.3118836"><ele>374.0</ele><time>2026-05-03T11:01:44.902Z</time></trkpt><trkpt lat="45.7063425" lon="9.3117289"><ele>374.0</ele><time>2026-05-03T11:01:45.905Z</time></trkpt><trkpt lat="45.7062549" lon="9.3115808"><ele>374.0</ele><time>2026-05-03T11:01:46.904Z</time></trkpt><trkpt lat="45.7061653" lon="9.3114425"><ele>374.0</ele><time>2026-05-03T11:01:47.899Z</time></trkpt><trkpt lat="45.7060704" lon="9.3113145"><ele>374.0</ele><time>2026-05-03T11:01:48.906Z</time></trkpt><trkpt lat="45.7059672" lon="9.3111984"><ele>372.75</ele><time>2026-05-03T11:01:49.891Z</time></trkpt><trkpt lat="45.7058538" lon="9.311096"><ele>371.5</ele><time>2026-05-03T11:01:50.93Z</time></trkpt><trkpt lat="45.7057335" lon="9.3110098"><ele>370.25</ele><time>2026-05-03T11:01:51.906Z</time></trkpt><trkpt lat="45.705612" lon="9.3109349"><ele>369.0</ele><time>2026-05-03T11:01:52.903Z</time></trkpt><trkpt lat="45.7054932" lon="9.3108684"><ele>369.0</ele><time>2026-05-03T11:01:53.904Z</time></trkpt><trkpt lat="45.7053787" lon="9.3108104"><ele>369.0</ele><time>2026-05-03T11:01:54.909Z</time></trkpt><trkpt lat="45.7052676" lon="9.3107641"><ele>369.0</ele><time>2026-05-03T11:01:55.898Z</time></trkpt><trkpt lat="45.7051628" lon="9.3107209"><ele>369.0</ele><time>2026-05-03T11:01:56.905Z</time></trkpt><trkpt lat="45.7050733" lon="9.3106981"><ele>369.0</ele><time>2026-05-03T11:01:57.909Z</time></trkpt><trkpt lat="45.7049963" lon="9.3106791"><ele>361.0</ele><time>2026-05-03T11:01:58.883Z</time></trkpt><trkpt lat="45.7048884" lon="9.3106731"><ele>361.0</ele><time>2026-05-03T11:02:00.912Z</time></trkpt><trkpt lat="45.7048115" lon="9.3106789"><ele>361.0</ele><time>2026-05-03T11:02:02.896Z</time></trkpt></trkseg><trkseg><trkpt lat="45.62524" lon="9.3222847"><ele>192.99999999999997</ele><time>2026-05-03T13:14:32.467Z</time></trkpt><trkpt lat="45.6251724" lon="9.322319"><ele>193.0</ele><time>2026-05-03T13:14:33.455Z</time></trkpt><trkpt lat="45.6251026" lon="9.322341"><ele>193.0</ele><time>2026-05-03T13:14:34.442Z</time></trkpt><trkpt lat="45.6250329" lon="9.3223607"><ele>193.0</ele><time>2026-05-03T13:14:35.452Z</time></trkpt><trkpt lat="45.6249207" lon="9.3223534"><ele>192.99999999999997</ele><time>2026-05-03T13:14:37.473Z</time></trkpt><trkpt lat="45.6248379" lon="9.3224095"><ele>193.0</ele><time>2026-05-03T13:14:39.452Z</time></trkpt><trkpt lat="45.6248092" lon="9.3225086"><ele>193.0</ele><time>2026-05-03T13:14:41.465Z</time></trkpt><trkpt lat="45.6249083" lon="9.3225599"><ele>193.0</ele><time>2026-05-03T13:14:43.458Z</time></trkpt><trkpt lat="45.6250014" lon="9.322509"><ele>193.0</ele><time>2026-05-03T13:14:45.469Z</time></trkpt><trkpt lat="45.6251002" lon="9.3224461"><ele>193.0</ele><time>2026-05-03T13:14:47.47Z</time></trkpt><trkpt lat="45.6251833" lon="9.3223992"><ele>193.0</ele><time>2026-05-03T13:14:49.46Z</time></trkpt><trkpt lat="45.6252445" lon="9.3223715"><ele>192.83333333333331</ele><time>2026-05-03T13:14:50.461Z</time></trkpt><trkpt lat="45.6253141" lon="9.3223372"><ele>192.66666666666666</ele><time>2026-05-03T13:14:51.452Z</time></trkpt><trkpt lat="45.6253928" lon="9.3222858"><ele>192.5</ele><time>2026-05-03T13:14:52.462Z</time></trkpt><trkpt lat="45.6254749" lon="9.3222343"><ele>192.33333333333331</ele><time>2026-05-03T13:14:53.467Z</time></trkpt><trkpt lat="45.6255539" lon="9.3221863"><ele>192.16666666666666</ele><time>2026-05-03T13:14:54.466Z</time></trkpt><trkpt lat="45.6256254" lon="9.3221455"><ele>192.0</ele><time>2026-05-03T13:14:55.471Z</time></trkpt><trkpt lat="45.6256962" lon="9.3221033"><ele>192.0</ele><time>2026-05-03T13:14:56.47Z</time></trkpt><trkpt lat="45.6257653" lon="9.3220636"><ele>192.0</ele><time>2026-05-03T13:14:57.468Z</time></trkpt><trkpt lat="45.625832" lon="9.3220261"><ele>192.0</ele><time>2026-05-03T13:14:58.46Z</time></trkpt><trkpt lat="45.6258962" lon="9.3219933"><ele>192.0</ele><time>2026-05-03T13:14:59.464Z</time></trkpt><trkpt lat="45.6259557" lon="9.321963"><ele>192.0</ele><time>2026-05-03T13:15:00.456Z</time></trkpt><trkpt lat="45.6260648" lon="9.3219007"><ele>192.0</ele><time>2026-05-03T13:15:02.469Z</time></trkpt><trkpt lat="45.6261415" lon="9.3218568"><ele>192.5</ele><time>2026-05-03T13:15:04.467Z</time></trkpt><trkpt lat="45.6262175" lon="9.3218137"><ele>193.0</ele><time>2026-05-03T13:15:07.466Z</time></trkpt><trkpt lat="45.6262743" lon="9.3217705"><ele>193.5</ele><time>2026-05-03T13:15:10.467Z</time></trkpt><trkpt lat="45.6263277" lon="9.3217125"><ele>194.0</ele><time>2026-05-03T13:15:15.455Z</time></trkpt><trkpt lat="45.6264018" lon="9.3216493"><ele>194.5</ele><time>2026-05-03T13:15:21.451Z</time></trkpt><trkpt lat="45.6264802" lon="9.3216004"><ele>195.0</ele><time>2026-05-03T13:15:24.459Z</time></trkpt><trkpt lat="45.6265456" lon="9.321553"><ele>195.0</ele><time>2026-05-03T13:15:26.456Z</time></trkpt><trkpt lat="45.6265943" lon="9.3214791"><ele>195.0</ele><time>2026-05-03T13:15:28.45Z</time></trkpt><trkpt lat="45.626592" lon="9.3213855"><ele>195.0</ele><time>2026-05-03T13:15:30.462Z</time></trkpt><trkpt lat="45.6265394" lon="9.3213143"><ele>195.0</ele><time>2026-05-03T13:15:32.447Z</time></trkpt><trkpt lat="45.6264501" lon="9.3212229"><ele>195.0</ele><time>2026-05-03T13:15:34.45Z</time></trkpt><trkpt lat="45.6263875" lon="9.3210838"><ele>195.0</ele><time>2026-05-03T13:15:36.455Z</time></trkpt><trkpt lat="45.6263873" lon="9.3209911"><ele>194.71428571428572</ele><time>2026-05-03T13:15:37.464Z</time></trkpt><trkpt lat="45.6263882" lon="9.3208935"><ele>194.42857142857142</ele><time>2026-05-03T13:15:38.463Z</time></trkpt><trkpt lat="45.6263884" lon="9.3207986"><ele>194.14285714285717</ele><time>2026-05-03T13:15:39.463Z</time></trkpt><trkpt lat="45.6263886" lon="9.3207058"><ele>193.85714285714286</ele><time>2026-05-03T13:15:40.458Z</time></trkpt><trkpt lat="45.6263897" lon="9.3206113"><ele>193.57142857142858</ele><time>2026-05-03T13:15:41.458Z</time></trkpt><trkpt lat="45.6263921" lon="9.3205133"><ele>193.2857142857143</ele><time>2026-05-03T13:15:42.463Z</time></trkpt><trkpt lat="45.6263941" lon="9.3204118"><ele>193.0</ele><time>2026-05-03T13:15:43.456Z</time></trkpt><trkpt lat="45.6263963" lon="9.3203082"><ele>193.00000000000003</ele><time>2026-05-03T13:15:44.462Z</time></trkpt><trkpt lat="45.626398" lon="9.3202053"><ele>193.0</ele><time>2026-05-03T13:15:45.46Z</time></trkpt><trkpt lat="45.6263987" lon="9.3201037"><ele>193.0</ele><time>2026-05-03T13:15:46.464Z</time></trkpt><trkpt lat="45.6264011" lon="9.3199991"><ele>193.0</ele><time>2026-05-03T13:15:47.454Z</time></trkpt><trkpt lat="45.6264036" lon="9.319893"><ele>193.0</ele><time>2026-05-03T13:15:48.466Z</time></trkpt><trkpt lat="45.6264066" lon="9.3197851"><ele>193.00000000000003</ele><time>2026-05-03T13:15:49.465Z</time></trkpt><trkpt lat="45.6264086" lon="9.3196719"><ele>193.0</ele><time>2026-05-03T13:15:50.456Z</time></trkpt><trkpt lat="45.6264086" lon="9.3195518"><ele>192.60000000000002</ele><time>2026-05-03T13:15:51.462Z</time></trkpt><trkpt lat="45.6264098" lon="9.3194243"><ele>192.20000000000002</ele><time>2026-05-03T13:15:52.456Z</time></trkpt><trkpt lat="45.6264124" lon="9.3192921"><ele>191.8</ele><time>2026-05-03T13:15:53.462Z</time></trkpt><trkpt lat="45.6264156" lon="9.3191622"><ele>191.4</ele><time>2026-05-03T13:15:54.47Z</time></trkpt><trkpt lat="45.6264176" lon="9.3190285"><ele>191.0</ele><time>2026-05-03T13:15:55.463Z</time></trkpt><trkpt lat="45.6264185" lon="9.3188895"><ele>191.0</ele><time>2026-05-03T13:15:56.448Z</time></trkpt><trkpt lat="45.6264185" lon="9.3187485"><ele>191.0</ele><time>2026-05-03T13:15:57.457Z</time></trkpt><trkpt lat="45.626418" lon="9.3186069"><ele>191.0</ele><time>2026-05-03T13:15:58.484Z</time></trkpt><trkpt lat="45.6264137" lon="9.3184634"><ele>191.0</ele><time>2026-05-03T13:15:59.461Z</time></trkpt><trkpt lat="45.626397" lon="9.3183214"><ele>191.0</ele><time>2026-05-03T13:16:00.458Z</time></trkpt><trkpt lat="45.6263801" lon="9.3181824"><ele>191.4</ele><time>2026-05-03T13:16:01.447Z</time></trkpt><trkpt lat="45.6263374" lon="9.3180505"><ele>191.8</ele><time>2026-05-03T13:16:02.456Z</time></trkpt><trkpt lat="45.6262942" lon="9.3179203"><ele>192.20000000000002</ele><time>2026-05-03T13:16:03.462Z</time></trkpt><trkpt lat="45.6262439" lon="9.317793"><ele>192.60000000000002</ele><time>2026-05-03T13:16:04.456Z</time></trkpt><trkpt lat="45.6261922" lon="9.3176528"><ele>193.0</ele><time>2026-05-03T13:16:05.46Z</time></trkpt><trkpt lat="45.62614" lon="9.317512"><ele>192.0</ele><time>2026-05-03T13:16:06.458Z</time></trkpt><trkpt lat="45.6260857" lon="9.3173376"><ele>191.0</ele><time>2026-05-03T13:16:07.462Z</time></trkpt><trkpt lat="45.6260297" lon="9.3171232"><ele>190.0</ele><time>2026-05-03T13:16:08.458Z</time></trkpt><trkpt lat="45.6259711" lon="9.3169059"><ele>190.0</ele><time>2026-05-03T13:16:09.451Z</time></trkpt><trkpt lat="45.625913" lon="9.3166957"><ele>190.0</ele><time>2026-05-03T13:16:10.443Z</time></trkpt><trkpt lat="45.6258515" lon="9.316477"><ele>190.0</ele><time>2026-05-03T13:16:11.456Z</time></trkpt><trkpt lat="45.6257891" lon="9.3162558"><ele>190.33333333333334</ele><time>2026-05-03T13:16:12.464Z</time></trkpt><trkpt lat="45.6257326" lon="9.3160411"><ele>190.66666666666666</ele><time>2026-05-03T13:16:13.462Z</time></trkpt><trkpt lat="45.6256735" lon="9.315834"><ele>191.0</ele><time>2026-05-03T13:16:14.464Z</time></trkpt><trkpt lat="45.6256097" lon="9.315636"><ele>191.33333333333331</ele><time>2026-05-03T13:16:15.464Z</time></trkpt><trkpt lat="45.6255356" lon="9.3154418"><ele>191.66666666666666</ele><time>2026-05-03T13:16:16.455Z</time></trkpt><trkpt lat="45.6254482" lon="9.3152488"><ele>192.0</ele><time>2026-05-03T13:16:17.446Z</time></trkpt><trkpt lat="45.6253547" lon="9.3150459"><ele>190.66666666666666</ele><time>2026-05-03T13:16:18.453Z</time></trkpt><trkpt lat="45.6252583" lon="9.3148299"><ele>189.33333333333331</ele><time>2026-05-03T13:16:19.459Z</time></trkpt><trkpt lat="45.6251618" lon="9.3146021"><ele>188.0</ele><time>2026-05-03T13:16:20.469Z</time></trkpt><trkpt lat="45.6250664" lon="9.3143793"><ele>188.0</ele><time>2026-05-03T13:16:21.467Z</time></trkpt><trkpt lat="45.6249735" lon="9.3141562"><ele>188.0</ele><time>2026-05-03T13:16:22.461Z</time></trkpt><trkpt lat="45.6248874" lon="9.3139048"><ele>188.0</ele><time>2026-05-03T13:16:23.455Z</time></trkpt><trkpt lat="45.6248097" lon="9.3136594"><ele>187.66666666666666</ele><time>2026-05-03T13:16:24.436Z</time></trkpt><trkpt lat="45.6247331" lon="9.3134221"><ele>187.33333333333334</ele><time>2026-05-03T13:16:25.452Z</time></trkpt><trkpt lat="45.6246686" lon="9.3131899"><ele>187.0</ele><time>2026-05-03T13:16:26.443Z</time></trkpt><trkpt lat="45.6246174" lon="9.3129712"><ele>187.0</ele><time>2026-05-03T13:16:27.474Z</time></trkpt><trkpt lat="45.6245665" lon="9.3127595"><ele>187.0</ele><time>2026-05-03T13:16:28.462Z</time></trkpt><trkpt lat="45.6245088" lon="9.312535"><ele>187.0</ele><time>2026-05-03T13:16:29.458Z</time></trkpt><trkpt lat="45.6244516" lon="9.3123356"><ele>187.0</ele><time>2026-05-03T13:16:30.46Z</time></trkpt><trkpt lat="45.6243933" lon="9.3121221"><ele>187.0</ele><time>2026-05-03T13:16:31.458Z</time></trkpt><trkpt lat="45.6243483" lon="9.3119338"><ele>187.0</ele><time>2026-05-03T13:16:32.463Z</time></trkpt><trkpt lat="45.6243042" lon="9.311755"><ele>187.0</ele><time>2026-05-03T13:16:33.458Z</time></trkpt><trkpt lat="45.6242658" lon="9.3115976"><ele>187.0</ele><time>2026-05-03T13:16:34.462Z</time></trkpt><trkpt lat="45.6242271" lon="9.3114408"><ele>187.0</ele><time>2026-05-03T13:16:35.463Z</time></trkpt><trkpt lat="45.6241937" lon="9.3112904"><ele>187.0</ele><time>2026-05-03T13:16:36.463Z</time></trkpt><trkpt lat="45.6241661" lon="9.3111565"><ele>187.0</ele><time>2026-05-03T13:16:37.455Z</time></trkpt><trkpt lat="45.6241585" lon="9.3110352"><ele>187.0</ele><time>2026-05-03T13:16:38.468Z</time></trkpt><trkpt lat="45.6241716" lon="9.310919"><ele>186.83333333333334</ele><time>2026-05-03T13:16:39.467Z</time></trkpt><trkpt lat="45.6241822" lon="9.3108189"><ele>186.66666666666669</ele><time>2026-05-03T13:16:40.466Z</time></trkpt><trkpt lat="45.6242008" lon="9.3107116"><ele>186.5</ele><time>2026-05-03T13:16:42.467Z</time></trkpt><trkpt lat="45.6242473" lon="9.3106483"><ele>186.33333333333334</ele><time>2026-05-03T13:16:50.462Z</time></trkpt><trkpt lat="45.6243628" lon="9.310627"><ele>186.16666666666666</ele><time>2026-05-03T13:16:52.461Z</time></trkpt><trkpt lat="45.62445" lon="9.3106382"><ele>186.0</ele><time>2026-05-03T13:16:53.467Z</time></trkpt><trkpt lat="45.6245471" lon="9.3106374"><ele>186.0</ele><time>2026-05-03T13:16:54.464Z</time></trkpt><trkpt lat="45.624645" lon="9.3106361"><ele>186.0</ele><time>2026-05-03T13:16:55.459Z</time></trkpt><trkpt lat="45.6247356" lon="9.3106382"><ele>186.0</ele><time>2026-05-03T13:16:56.468Z</time></trkpt><trkpt lat="45.6248099" lon="9.3106296"><ele>186.0</ele><time>2026-05-03T13:16:57.458Z</time></trkpt><trkpt lat="45.6249294" lon="9.3106161"><ele>186.0</ele><time>2026-05-03T13:16:59.481Z</time></trkpt><trkpt lat="45.625011" lon="9.3106163"><ele>186.0</ele><time>2026-05-03T13:17:01.469Z</time></trkpt><trkpt lat="45.6250833" lon="9.3106094"><ele>186.0</ele><time>2026-05-03T13:17:05.466Z</time></trkpt><trkpt lat="45.6251336" lon="9.310548"><ele>186.0</ele><time>2026-05-03T13:17:08.452Z</time></trkpt><trkpt lat="45.6250598" lon="9.3105756"><ele>186.0</ele><time>2026-05-03T13:17:26.459Z</time></trkpt><trkpt lat="45.6249223" lon="9.3105727"><ele>186.0</ele><time>2026-05-03T13:17:28.467Z</time></trkpt><trkpt lat="45.6248281" lon="9.3105635"><ele>186.0</ele><time>2026-05-03T13:17:29.463Z</time></trkpt><trkpt lat="45.6247271" lon="9.3105576"><ele>186.0</ele><time>2026-05-03T13:17:30.463Z</time></trkpt><trkpt lat="45.6246119" lon="9.3105513"><ele>186.0</ele><time>2026-05-03T13:17:31.461Z</time></trkpt><trkpt lat="45.6244837" lon="9.3105446"><ele>186.0</ele><time>2026-05-03T13:17:32.474Z</time></trkpt><trkpt lat="45.6243446" lon="9.3105332"><ele>186.0</ele><time>2026-05-03T13:17:33.462Z</time></trkpt><trkpt lat="45.6241981" lon="9.3105272"><ele>186.0</ele><time>2026-05-03T13:17:34.461Z</time></trkpt><trkpt lat="45.6240536" lon="9.31052"><ele>186.0</ele><time>2026-05-03T13:17:35.471Z</time></trkpt><trkpt lat="45.6239119" lon="9.3105154"><ele>186.0</ele><time>2026-05-03T13:17:36.472Z</time></trkpt><trkpt lat="45.6237655" lon="9.3105103"><ele>186.0</ele><time>2026-05-03T13:17:37.463Z</time></trkpt><trkpt lat="45.6236198" lon="9.3105051"><ele>185.75</ele><time>2026-05-03T13:17:38.452Z</time></trkpt><trkpt lat="45.623478" lon="9.3105014"><ele>185.5</ele><time>2026-05-03T13:17:39.462Z</time></trkpt><trkpt lat="45.6233361" lon="9.3104897"><ele>185.25</ele><time>2026-05-03T13:17:40.475Z</time></trkpt><trkpt lat="45.6231868" lon="9.3104788"><ele>185.0</ele><time>2026-05-03T13:17:41.464Z</time></trkpt><trkpt lat="45.6230371" lon="9.3104739"><ele>185.0</ele><time>2026-05-03T13:17:42.468Z</time></trkpt><trkpt lat="45.622881" lon="9.3104669"><ele>185.0</ele><time>2026-05-03T13:17:43.466Z</time></trkpt><trkpt lat="45.6227185" lon="9.3104591"><ele>185.0</ele><time>2026-05-03T13:17:44.452Z</time></trkpt><trkpt lat="45.6225559" lon="9.3104483"><ele>184.66666666666666</ele><time>2026-05-03T13:17:45.47Z</time></trkpt><trkpt lat="45.6223898" lon="9.3104351"><ele>184.33333333333334</ele><time>2026-05-03T13:17:46.468Z</time></trkpt><trkpt lat="45.6222263" lon="9.3104291"><ele>184.0</ele><time>2026-05-03T13:17:47.459Z</time></trkpt><trkpt lat="45.6220581" lon="9.3104251"><ele>184.0</ele><time>2026-05-03T13:17:48.477Z</time></trkpt><trkpt lat="45.6218919" lon="9.3104127"><ele>184.0</ele><time>2026-05-03T13:17:49.46Z</time></trkpt><trkpt lat="45.6217269" lon="9.3104046"><ele>184.0</ele><time>2026-05-03T13:17:50.455Z</time></trkpt><trkpt lat="45.621559" lon="9.3103903"><ele>184.0</ele><time>2026-05-03T13:17:51.447Z</time></trkpt><trkpt lat="45.6213914" lon="9.3103791"><ele>184.0</ele><time>2026-05-03T13:17:52.465Z</time></trkpt><trkpt lat="45.6212227" lon="9.3103699"><ele>184.0</ele><time>2026-05-03T13:17:53.461Z</time></trkpt><trkpt lat="45.6210718" lon="9.3103556"><ele>184.0</ele><time>2026-05-03T13:17:54.476Z</time></trkpt><trkpt lat="45.620925" lon="9.3103395"><ele>184.0</ele><time>2026-05-03T13:17:55.471Z</time></trkpt><trkpt lat="45.6207998" lon="9.3103188"><ele>184.0</ele><time>2026-05-03T13:17:56.468Z</time></trkpt><trkpt lat="45.6207003" lon="9.3102832"><ele>184.0</ele><time>2026-05-03T13:17:57.464Z</time></trkpt><trkpt lat="45.6206163" lon="9.3102293"><ele>184.0</ele><time>2026-05-03T13:17:58.461Z</time></trkpt><trkpt lat="45.6205388" lon="9.3101788"><ele>184.0</ele><time>2026-05-03T13:17:59.46Z</time></trkpt><trkpt lat="45.6204503" lon="9.3101692"><ele>184.0</ele><time>2026-05-03T13:18:00.46Z</time></trkpt><trkpt lat="45.6203513" lon="9.3101784"><ele>184.0</ele><time>2026-05-03T13:18:01.46Z</time></trkpt><trkpt lat="45.620218" lon="9.3102291"><ele>184.0</ele><time>2026-05-03T13:18:02.453Z</time></trkpt><trkpt lat="45.6200428" lon="9.3102705"><ele>183.66666666666669</ele><time>2026-05-03T13:18:03.455Z</time></trkpt><trkpt lat="45.6198661" lon="9.3102982"><ele>183.33333333333334</ele><time>2026-05-03T13:18:04.457Z</time></trkpt><trkpt lat="45.6196769" lon="9.3103182"><ele>183.0</ele><time>2026-05-03T13:18:05.469Z</time></trkpt><trkpt lat="45.6194771" lon="9.3103618"><ele>183.0</ele><time>2026-05-03T13:18:06.464Z</time></trkpt><trkpt lat="45.6192664" lon="9.3104606"><ele>183.0</ele><time>2026-05-03T13:18:07.461Z</time></trkpt><trkpt lat="45.6190587" lon="9.3105792"><ele>183.0</ele><time>2026-05-03T13:18:08.466Z</time></trkpt><trkpt lat="45.6188531" lon="9.3107069"><ele>183.0</ele><time>2026-05-03T13:18:09.453Z</time></trkpt><trkpt lat="45.6186599" lon="9.310857"><ele>183.0</ele><time>2026-05-03T13:18:10.466Z</time></trkpt><trkpt lat="45.6184918" lon="9.3110178"><ele>183.0</ele><time>2026-05-03T13:18:11.466Z</time></trkpt><trkpt lat="45.6183432" lon="9.3111873"><ele>182.33333333333334</ele><time>2026-05-03T13:18:12.45Z</time></trkpt><trkpt lat="45.6182059" lon="9.3113593"><ele>181.66666666666669</ele><time>2026-05-03T13:18:13.448Z</time></trkpt><trkpt lat="45.6180772" lon="9.3115272"><ele>181.0</ele><time>2026-05-03T13:18:14.456Z</time></trkpt><trkpt lat="45.6179608" lon="9.3116917"><ele>181.0</ele><time>2026-05-03T13:18:15.462Z</time></trkpt><trkpt lat="45.6178718" lon="9.3118592"><ele>181.0</ele><time>2026-05-03T13:18:16.458Z</time></trkpt><trkpt lat="45.6177947" lon="9.3119922"><ele>181.0</ele><time>2026-05-03T13:18:17.462Z</time></trkpt><trkpt lat="45.6176976" lon="9.3120724"><ele>181.0</ele><time>2026-05-03T13:18:18.473Z</time></trkpt><trkpt lat="45.617594" lon="9.312136"><ele>180.8</ele><time>2026-05-03T13:18:19.464Z</time></trkpt><trkpt lat="45.6174873" lon="9.3121361"><ele>180.60000000000002</ele><time>2026-05-03T13:18:20.463Z</time></trkpt><trkpt lat="45.6173728" lon="9.3121015"><ele>180.4</ele><time>2026-05-03T13:18:21.465Z</time></trkpt><trkpt lat="45.6172859" lon="9.3120319"><ele>180.2</ele><time>2026-05-03T13:18:22.46Z</time></trkpt><trkpt lat="45.6172005" lon="9.3119634"><ele>180.0</ele><time>2026-05-03T13:18:23.461Z</time></trkpt><trkpt lat="45.6171261" lon="9.3118937"><ele>180.0</ele><time>2026-05-03T13:18:24.459Z</time></trkpt><trkpt lat="45.6170512" lon="9.3118324"><ele>180.0</ele><time>2026-05-03T13:18:25.454Z</time></trkpt><trkpt lat="45.6169776" lon="9.3117751"><ele>180.0</ele><time>2026-05-03T13:18:26.459Z</time></trkpt><trkpt lat="45.6169014" lon="9.3117368"><ele>180.0</ele><time>2026-05-03T13:18:27.454Z</time></trkpt><trkpt lat="45.6168268" lon="9.3117191"><ele>180.0</ele><time>2026-05-03T13:18:28.461Z</time></trkpt><trkpt lat="45.6167478" lon="9.3117219"><ele>180.0</ele><time>2026-05-03T13:18:29.45Z</time></trkpt><trkpt lat="45.616669" lon="9.311734"><ele>180.0</ele><time>2026-05-03T13:18:30.454Z</time></trkpt><trkpt lat="45.6165797" lon="9.3117791"><ele>180.0</ele><time>2026-05-03T13:18:31.454Z</time></trkpt><trkpt lat="45.6164805" lon="9.3118378"><ele>180.0</ele><time>2026-05-03T13:18:32.461Z</time></trkpt><trkpt lat="45.616381" lon="9.3118963"><ele>180.0</ele><time>2026-05-03T13:18:33.477Z</time></trkpt><trkpt lat="45.6162917" lon="9.3119251"><ele>180.0</ele><time>2026-05-03T13:18:34.465Z</time></trkpt><trkpt lat="45.6162024" lon="9.3119294"><ele>179.8</ele><time>2026-05-03T13:18:35.453Z</time></trkpt><trkpt lat="45.6161157" lon="9.3119126"><ele>179.6</ele><time>2026-05-03T13:18:36.453Z</time></trkpt><trkpt lat="45.616026" lon="9.3118791"><ele>179.39999999999998</ele><time>2026-05-03T13:18:37.47Z</time></trkpt><trkpt lat="45.6159373" lon="9.311821"><ele>179.2</ele><time>2026-05-03T13:18:38.477Z</time></trkpt><trkpt lat="45.6158474" lon="9.3117621"><ele>179.0</ele><time>2026-05-03T13:18:39.458Z</time></trkpt><trkpt lat="45.6157514" lon="9.3117067"><ele>179.0</ele><time>2026-05-03T13:18:40.469Z</time></trkpt><trkpt lat="45.6156563" lon="9.3116553"><ele>179.0</ele><time>2026-05-03T13:18:41.485Z</time></trkpt><trkpt lat="45.6155652" lon="9.3115985"><ele>179.0</ele><time>2026-05-03T13:18:42.448Z</time></trkpt><trkpt lat="45.6154716" lon="9.3115367"><ele>179.0</ele><time>2026-05-03T13:18:43.458Z</time></trkpt><trkpt lat="45.6153908" lon="9.3114706"><ele>179.0</ele><time>2026-05-03T13:18:44.448Z</time></trkpt><trkpt lat="45.6153182" lon="9.3113935"><ele>179.33333333333331</ele><time>2026-05-03T13:18:45.467Z</time></trkpt><trkpt lat="45.6152554" lon="9.3113161"><ele>179.66666666666666</ele><time>2026-05-03T13:18:46.466Z</time></trkpt><trkpt lat="45.6152007" lon="9.3112316"><ele>180.0</ele><time>2026-05-03T13:18:47.468Z</time></trkpt><trkpt lat="45.6151608" lon="9.3111538"><ele>180.33333333333334</ele><time>2026-05-03T13:18:48.454Z</time></trkpt><trkpt lat="45.6151188" lon="9.3110687"><ele>180.66666666666669</ele><time>2026-05-03T13:18:49.466Z</time></trkpt><trkpt lat="45.6150798" lon="9.3109889"><ele>181.0</ele><time>2026-05-03T13:18:50.469Z</time></trkpt><trkpt lat="45.6150131" lon="9.3108805"><ele>181.0</ele><time>2026-05-03T13:18:52.457Z</time></trkpt><trkpt lat="45.6149647" lon="9.3107731"><ele>181.0</ele><time>2026-05-03T13:18:54.461Z</time></trkpt><trkpt lat="45.6149313" lon="9.3106827"><ele>181.0</ele><time>2026-05-03T13:19:03.465Z</time></trkpt><trkpt lat="45.6149946" lon="9.310627"><ele>181.0</ele><time>2026-05-03T13:19:09.471Z</time></trkpt><trkpt lat="45.6150251" lon="9.31074"><ele>181.0</ele><time>2026-05-03T13:19:11.454Z</time></trkpt><trkpt lat="45.6150817" lon="9.310816"><ele>181.0</ele><time>2026-05-03T13:19:13.45Z</time></trkpt><trkpt lat="45.6151266" lon="9.3109003"><ele>181.0</ele><time>2026-05-03T13:19:15.465Z</time></trkpt><trkpt lat="45.6151874" lon="9.3110161"><ele>181.0</ele><time>2026-05-03T13:19:17.468Z</time></trkpt><trkpt lat="45.6152638" lon="9.3111029"><ele>181.0</ele><time>2026-05-03T13:19:19.467Z</time></trkpt><trkpt lat="45.6153199" lon="9.3111786"><ele>181.0</ele><time>2026-05-03T13:19:21.461Z</time></trkpt><trkpt lat="45.6154069" lon="9.3112353"><ele>181.0</ele><time>2026-05-03T13:19:24.451Z</time></trkpt><trkpt lat="45.6154811" lon="9.311248"><ele>181.0</ele><time>2026-05-03T13:19:27.483Z</time></trkpt><trkpt lat="45.6155083" lon="9.3111412"><ele>181.0</ele><time>2026-05-03T13:19:31.474Z</time></trkpt><trkpt lat="45.6155042" lon="9.3110265"><ele>181.0</ele><time>2026-05-03T13:19:34.469Z</time></trkpt><trkpt lat="45.6153919" lon="9.3110645"><ele>181.0</ele><time>2026-05-03T13:20:35.394Z</time></trkpt><trkpt lat="45.6155354" lon="9.3115529"><ele>181.0</ele><time>2026-05-03T13:20:43.616Z</time></trkpt><trkpt lat="45.6156028" lon="9.3114844"><ele>181.0</ele><time>2026-05-03T13:20:51.467Z</time></trkpt><trkpt lat="45.615469" lon="9.3109258"><ele>181.0</ele><time>2026-05-03T13:20:59.361Z</time></trkpt><trkpt lat="45.6156705" lon="9.3110346"><ele>181.0</ele><time>2026-05-03T13:21:23.033Z</time></trkpt><trkpt lat="45.6154467" lon="9.3109141"><ele>181.0</ele><time>2026-05-03T13:21:30.897Z</time></trkpt><trkpt lat="45.6155972" lon="9.3114491"><ele>181.0</ele><time>2026-05-03T13:21:55.005Z</time></trkpt><trkpt lat="45.6155903" lon="9.3108888"><ele>181.0</ele><time>2026-05-03T13:22:18.643Z</time></trkpt><trkpt lat="45.6154028" lon="9.3108664"><ele>181.0</ele><time>2026-05-03T13:23:05.916Z</time></trkpt><trkpt lat="45.6155226" lon="9.3109281"><ele>181.0</ele><time>2026-05-03T13:23:21.685Z</time></trkpt><trkpt lat="45.6155377" lon="9.3113693"><ele>181.0</ele><time>2026-05-03T13:23:29.559Z</time></trkpt><trkpt lat="45.6156736" lon="9.3112046"><ele>181.0</ele><time>2026-05-03T13:23:37.462Z</time></trkpt><trkpt lat="45.6153523" lon="9.3109267"><ele>181.0</ele><time>2026-05-03T13:23:45.329Z</time></trkpt><trkpt lat="45.6154739" lon="9.3110455"><ele>181.0</ele><time>2026-05-03T13:24:01.088Z</time></trkpt><trkpt lat="45.6155732" lon="9.3112679"><ele>181.0</ele><time>2026-05-03T13:24:08.95Z</time></trkpt><trkpt lat="45.6156254" lon="9.3113641"><ele>181.0</ele><time>2026-05-03T13:24:16.803Z</time></trkpt><trkpt lat="45.6154456" lon="9.3110209"><ele>181.0</ele><time>2026-05-03T13:24:24.677Z</time></trkpt><trkpt lat="45.6153662" lon="9.3109196"><ele>181.0</ele><time>2026-05-03T13:24:40.434Z</time></trkpt><trkpt lat="45.6156129" lon="9.3109678"><ele>181.0</ele><time>2026-05-03T13:25:51.226Z</time></trkpt><trkpt lat="45.6154105" lon="9.3108832"><ele>181.0</ele><time>2026-05-03T13:26:53.035Z</time></trkpt><trkpt lat="45.6154667" lon="9.3107155"><ele>181.0</ele><time>2026-05-03T13:36:49.398Z</time></trkpt><trkpt lat="45.6153722" lon="9.3107491"><ele>181.0</ele><time>2026-05-03T14:12:27.65Z</time></trkpt><trkpt lat="45.6153059" lon="9.3107455"><ele>181.0</ele><time>2026-05-03T14:12:33.64Z</time></trkpt><trkpt lat="45.6153835" lon="9.3107983"><ele>181.0</ele><time>2026-05-03T14:13:19.873Z</time></trkpt></trkseg></trk></gpx>